<?xml version="1.0" encoding="UTF-8" standalone="no" ?>
<gpx xmlns="http://www.topografix.com/GPX/1/1" xmlns:xsi="http://www.w3.org/2001/XMLSchema-instance" xsi:schemaLocation="http://www.topografix.com/GPX/1/1 http://www.topografix.com/GPX/1/1/gpx.xsd" version="1.1" creator="VisuGPX - https://www.visugpx.com">
  <metadata>
    <name>La Milliacoise 2025 50km</name>
    <desc><![CDATA[Randonnée "La Milliacoise 2025" parcours 50km]]></desc>
  </metadata>
  <trk>
    <name><![CDATA[2025-11-16 08:27]]></name>
    <desc><![CDATA[<p>Heure de départ: 11/16/2025 09:36<br/>Heure d'arrivée: 11/16/2025 13:50<br/>Distance: 51,3 km (04:14)<br/>Temps déplacement: 03:50<br/>Vitesse moyenne: 12,1 km/h<br/>Vitesse moyenne mouv.: 13,37 km/h<br/>Vitesse Max.: 33,08 km/h<br/>Altitude minimale: 105 m<br/>Altitude maximale: 181 m<br/>Vitesse de montée: 313 m/h<br/>Vitesse de descente: -415,5 m/h<br/>Gain d'altitude: 739 m<br/>Perte d'altitude: -736 m<br/>Temps de montée: 02:21<br/>Temps de descente: 01:46<br/></p><hr align="center" width="480" style="height: 2px; width: 517px"/>]]></desc>
    <trkseg>
      <trkpt lat="48.3828" lon="2.4698">
        <ele>85.1</ele>
        <time>2025-11-16T07:36:44Z</time>
      </trkpt>
      <trkpt lat="48.38283" lon="2.46975">
        <ele>85.4</ele>
        <time>2025-11-16T07:37:46Z</time>
      </trkpt>
      <trkpt lat="48.38283" lon="2.46968">
        <ele>85.5</ele>
        <time>2025-11-16T07:37:50Z</time>
      </trkpt>
      <trkpt lat="48.38287" lon="2.46959">
        <ele>86</ele>
        <time>2025-11-16T07:37:54Z</time>
      </trkpt>
      <trkpt lat="48.38292" lon="2.46949">
        <ele>86.4</ele>
        <time>2025-11-16T07:37:58Z</time>
      </trkpt>
      <trkpt lat="48.38295" lon="2.46938">
        <ele>86.8</ele>
        <time>2025-11-16T07:38:02Z</time>
      </trkpt>
      <trkpt lat="48.38298" lon="2.46927">
        <ele>87.2</ele>
        <time>2025-11-16T07:38:06Z</time>
      </trkpt>
      <trkpt lat="48.38293" lon="2.46916">
        <ele>87.1</ele>
        <time>2025-11-16T07:38:10Z</time>
      </trkpt>
      <trkpt lat="48.38288" lon="2.46911">
        <ele>86.7</ele>
        <time>2025-11-16T07:38:12Z</time>
      </trkpt>
      <trkpt lat="48.38282" lon="2.469">
        <ele>86.3</ele>
        <time>2025-11-16T07:38:15Z</time>
      </trkpt>
      <trkpt lat="48.38276" lon="2.46893">
        <ele>85.9</ele>
        <time>2025-11-16T07:38:17Z</time>
      </trkpt>
      <trkpt lat="48.38272" lon="2.46887">
        <ele>85.8</ele>
        <time>2025-11-16T07:38:19Z</time>
      </trkpt>
      <trkpt lat="48.38266" lon="2.4688">
        <ele>85.8</ele>
        <time>2025-11-16T07:38:21Z</time>
      </trkpt>
      <trkpt lat="48.38262" lon="2.46872">
        <ele>85.7</ele>
        <time>2025-11-16T07:38:23Z</time>
      </trkpt>
      <trkpt lat="48.38258" lon="2.46866">
        <ele>85.5</ele>
        <time>2025-11-16T07:38:25Z</time>
      </trkpt>
      <trkpt lat="48.38254" lon="2.46856">
        <ele>85.4</ele>
        <time>2025-11-16T07:38:29Z</time>
      </trkpt>
      <trkpt lat="48.38255" lon="2.46849">
        <ele>85.7</ele>
        <time>2025-11-16T07:38:31Z</time>
      </trkpt>
      <trkpt lat="48.38258" lon="2.46844">
        <ele>86</ele>
        <time>2025-11-16T07:38:33Z</time>
      </trkpt>
      <trkpt lat="48.38262" lon="2.4684">
        <ele>86.3</ele>
        <time>2025-11-16T07:38:35Z</time>
      </trkpt>
      <trkpt lat="48.38266" lon="2.46835">
        <ele>86.6</ele>
        <time>2025-11-16T07:38:37Z</time>
      </trkpt>
      <trkpt lat="48.3827" lon="2.46831">
        <ele>86.8</ele>
        <time>2025-11-16T07:38:39Z</time>
      </trkpt>
      <trkpt lat="48.38277" lon="2.46823">
        <ele>87.4</ele>
        <time>2025-11-16T07:38:43Z</time>
      </trkpt>
      <trkpt lat="48.38282" lon="2.46816">
        <ele>88</ele>
        <time>2025-11-16T07:38:46Z</time>
      </trkpt>
      <trkpt lat="48.38286" lon="2.46811">
        <ele>88.7</ele>
        <time>2025-11-16T07:38:50Z</time>
      </trkpt>
      <trkpt lat="48.3829" lon="2.46804">
        <ele>89.4</ele>
        <time>2025-11-16T07:38:54Z</time>
      </trkpt>
      <trkpt lat="48.38295" lon="2.46798">
        <ele>90.1</ele>
        <time>2025-11-16T07:38:58Z</time>
      </trkpt>
      <trkpt lat="48.383" lon="2.46792">
        <ele>90.9</ele>
        <time>2025-11-16T07:39:02Z</time>
      </trkpt>
      <trkpt lat="48.38306" lon="2.46786">
        <ele>91.7</ele>
        <time>2025-11-16T07:39:06Z</time>
      </trkpt>
      <trkpt lat="48.3831" lon="2.46782">
        <ele>92.3</ele>
        <time>2025-11-16T07:39:10Z</time>
      </trkpt>
      <trkpt lat="48.38316" lon="2.46777">
        <ele>93.1</ele>
        <time>2025-11-16T07:39:14Z</time>
      </trkpt>
      <trkpt lat="48.38318" lon="2.4677">
        <ele>93.7</ele>
        <time>2025-11-16T07:39:18Z</time>
      </trkpt>
      <trkpt lat="48.38321" lon="2.46761">
        <ele>94.6</ele>
        <time>2025-11-16T07:39:22Z</time>
      </trkpt>
      <trkpt lat="48.38324" lon="2.46755">
        <ele>95.3</ele>
        <time>2025-11-16T07:39:26Z</time>
      </trkpt>
      <trkpt lat="48.38326" lon="2.46747">
        <ele>96.1</ele>
        <time>2025-11-16T07:39:32Z</time>
      </trkpt>
      <trkpt lat="48.38326" lon="2.46739">
        <ele>96.4</ele>
        <time>2025-11-16T07:39:36Z</time>
      </trkpt>
      <trkpt lat="48.38325" lon="2.46729">
        <ele>96.6</ele>
        <time>2025-11-16T07:39:40Z</time>
      </trkpt>
      <trkpt lat="48.38325" lon="2.46719">
        <ele>97</ele>
        <time>2025-11-16T07:39:44Z</time>
      </trkpt>
      <trkpt lat="48.38328" lon="2.46712">
        <ele>97.9</ele>
        <time>2025-11-16T07:39:48Z</time>
      </trkpt>
      <trkpt lat="48.38327" lon="2.46702">
        <ele>98.4</ele>
        <time>2025-11-16T07:40:20Z</time>
      </trkpt>
      <trkpt lat="48.38333" lon="2.46695">
        <ele>99.8</ele>
        <time>2025-11-16T07:40:26Z</time>
      </trkpt>
      <trkpt lat="48.38338" lon="2.46691">
        <ele>101.1</ele>
        <time>2025-11-16T07:40:30Z</time>
      </trkpt>
      <trkpt lat="48.38342" lon="2.46688">
        <ele>102.1</ele>
        <time>2025-11-16T07:40:34Z</time>
      </trkpt>
      <trkpt lat="48.38346" lon="2.4668">
        <ele>103.4</ele>
        <time>2025-11-16T07:40:40Z</time>
      </trkpt>
      <trkpt lat="48.38343" lon="2.46669">
        <ele>103.6</ele>
        <time>2025-11-16T07:40:46Z</time>
      </trkpt>
      <trkpt lat="48.38339" lon="2.46663">
        <ele>103.3</ele>
        <time>2025-11-16T07:40:48Z</time>
      </trkpt>
      <trkpt lat="48.38336" lon="2.46655">
        <ele>103.4</ele>
        <time>2025-11-16T07:40:52Z</time>
      </trkpt>
      <trkpt lat="48.38326" lon="2.46654">
        <ele>101.7</ele>
        <time>2025-11-16T07:40:56Z</time>
      </trkpt>
      <trkpt lat="48.3832" lon="2.46657">
        <ele>100.4</ele>
        <time>2025-11-16T07:40:58Z</time>
      </trkpt>
      <trkpt lat="48.38316" lon="2.46659">
        <ele>99.4</ele>
        <time>2025-11-16T07:41:00Z</time>
      </trkpt>
      <trkpt lat="48.38311" lon="2.46654">
        <ele>98.8</ele>
        <time>2025-11-16T07:41:02Z</time>
      </trkpt>
      <trkpt lat="48.38305" lon="2.4665">
        <ele>98.2</ele>
        <time>2025-11-16T07:41:04Z</time>
      </trkpt>
      <trkpt lat="48.383" lon="2.46644">
        <ele>97.7</ele>
        <time>2025-11-16T07:41:06Z</time>
      </trkpt>
      <trkpt lat="48.38291" lon="2.46645">
        <ele>96.1</ele>
        <time>2025-11-16T07:41:08Z</time>
      </trkpt>
      <trkpt lat="48.38282" lon="2.46647">
        <ele>94.4</ele>
        <time>2025-11-16T07:41:10Z</time>
      </trkpt>
      <trkpt lat="48.38275" lon="2.46644">
        <ele>93.5</ele>
        <time>2025-11-16T07:41:12Z</time>
      </trkpt>
      <trkpt lat="48.3827" lon="2.46635">
        <ele>93.4</ele>
        <time>2025-11-16T07:41:14Z</time>
      </trkpt>
      <trkpt lat="48.38266" lon="2.4663">
        <ele>93.3</ele>
        <time>2025-11-16T07:41:16Z</time>
      </trkpt>
      <trkpt lat="48.38262" lon="2.46624">
        <ele>93.1</ele>
        <time>2025-11-16T07:41:18Z</time>
      </trkpt>
      <trkpt lat="48.38258" lon="2.46619">
        <ele>92.8</ele>
        <time>2025-11-16T07:41:20Z</time>
      </trkpt>
      <trkpt lat="48.38252" lon="2.46612">
        <ele>92.2</ele>
        <time>2025-11-16T07:41:24Z</time>
      </trkpt>
      <trkpt lat="48.38248" lon="2.46607">
        <ele>92.1</ele>
        <time>2025-11-16T07:41:26Z</time>
      </trkpt>
      <trkpt lat="48.38244" lon="2.46602">
        <ele>92.2</ele>
        <time>2025-11-16T07:41:28Z</time>
      </trkpt>
      <trkpt lat="48.38239" lon="2.46593">
        <ele>92.2</ele>
        <time>2025-11-16T07:41:32Z</time>
      </trkpt>
      <trkpt lat="48.38234" lon="2.46585">
        <ele>92.2</ele>
        <time>2025-11-16T07:41:36Z</time>
      </trkpt>
      <trkpt lat="48.38233" lon="2.46572">
        <ele>93</ele>
        <time>2025-11-16T07:41:40Z</time>
      </trkpt>
      <trkpt lat="48.38237" lon="2.46566">
        <ele>93.8</ele>
        <time>2025-11-16T07:41:44Z</time>
      </trkpt>
      <trkpt lat="48.38241" lon="2.4656">
        <ele>94.7</ele>
        <time>2025-11-16T07:41:48Z</time>
      </trkpt>
      <trkpt lat="48.38246" lon="2.46553">
        <ele>95.7</ele>
        <time>2025-11-16T07:41:52Z</time>
      </trkpt>
      <trkpt lat="48.38249" lon="2.46546">
        <ele>96.6</ele>
        <time>2025-11-16T07:41:56Z</time>
      </trkpt>
      <trkpt lat="48.38253" lon="2.4654">
        <ele>97.6</ele>
        <time>2025-11-16T07:42:00Z</time>
      </trkpt>
      <trkpt lat="48.38255" lon="2.4653">
        <ele>98.8</ele>
        <time>2025-11-16T07:42:06Z</time>
      </trkpt>
      <trkpt lat="48.38258" lon="2.46521">
        <ele>100</ele>
        <time>2025-11-16T07:42:12Z</time>
      </trkpt>
      <trkpt lat="48.3826" lon="2.46513">
        <ele>100.8</ele>
        <time>2025-11-16T07:42:16Z</time>
      </trkpt>
      <trkpt lat="48.38254" lon="2.465">
        <ele>100.8</ele>
        <time>2025-11-16T07:42:20Z</time>
      </trkpt>
      <trkpt lat="48.38251" lon="2.46489">
        <ele>101.1</ele>
        <time>2025-11-16T07:42:22Z</time>
      </trkpt>
      <trkpt lat="48.38251" lon="2.46478">
        <ele>101.7</ele>
        <time>2025-11-16T07:42:26Z</time>
      </trkpt>
      <trkpt lat="48.38251" lon="2.46471">
        <ele>102.3</ele>
        <time>2025-11-16T07:42:30Z</time>
      </trkpt>
      <trkpt lat="48.38254" lon="2.46465">
        <ele>103.3</ele>
        <time>2025-11-16T07:42:34Z</time>
      </trkpt>
      <trkpt lat="48.38257" lon="2.46459">
        <ele>104.3</ele>
        <time>2025-11-16T07:42:38Z</time>
      </trkpt>
      <trkpt lat="48.38261" lon="2.46454">
        <ele>105.3</ele>
        <time>2025-11-16T07:42:42Z</time>
      </trkpt>
      <trkpt lat="48.38263" lon="2.46447">
        <ele>106.1</ele>
        <time>2025-11-16T07:42:48Z</time>
      </trkpt>
      <trkpt lat="48.38266" lon="2.46439">
        <ele>107.3</ele>
        <time>2025-11-16T07:42:54Z</time>
      </trkpt>
      <trkpt lat="48.38269" lon="2.46433">
        <ele>108.2</ele>
        <time>2025-11-16T07:42:58Z</time>
      </trkpt>
      <trkpt lat="48.38272" lon="2.46427">
        <ele>109.2</ele>
        <time>2025-11-16T07:43:02Z</time>
      </trkpt>
      <trkpt lat="48.38276" lon="2.46419">
        <ele>110.4</ele>
        <time>2025-11-16T07:43:08Z</time>
      </trkpt>
      <trkpt lat="48.38278" lon="2.46413">
        <ele>111.3</ele>
        <time>2025-11-16T07:43:12Z</time>
      </trkpt>
      <trkpt lat="48.38281" lon="2.46408">
        <ele>112.2</ele>
        <time>2025-11-16T07:43:16Z</time>
      </trkpt>
      <trkpt lat="48.38283" lon="2.46398">
        <ele>113.2</ele>
        <time>2025-11-16T07:43:21Z</time>
      </trkpt>
      <trkpt lat="48.38283" lon="2.46389">
        <ele>113.8</ele>
        <time>2025-11-16T07:43:25Z</time>
      </trkpt>
      <trkpt lat="48.38279" lon="2.46383">
        <ele>113.6</ele>
        <time>2025-11-16T07:43:29Z</time>
      </trkpt>
      <trkpt lat="48.38274" lon="2.46375">
        <ele>113.5</ele>
        <time>2025-11-16T07:43:33Z</time>
      </trkpt>
      <trkpt lat="48.38268" lon="2.46374">
        <ele>112.8</ele>
        <time>2025-11-16T07:43:37Z</time>
      </trkpt>
      <trkpt lat="48.38259" lon="2.46369">
        <ele>112.2</ele>
        <time>2025-11-16T07:43:41Z</time>
      </trkpt>
      <trkpt lat="48.38256" lon="2.46363">
        <ele>112.4</ele>
        <time>2025-11-16T07:43:45Z</time>
      </trkpt>
      <trkpt lat="48.38257" lon="2.46356">
        <ele>113.3</ele>
        <time>2025-11-16T07:43:49Z</time>
      </trkpt>
      <trkpt lat="48.3826" lon="2.46348">
        <ele>114.3</ele>
        <time>2025-11-16T07:43:53Z</time>
      </trkpt>
      <trkpt lat="48.38262" lon="2.46341">
        <ele>115.1</ele>
        <time>2025-11-16T07:43:57Z</time>
      </trkpt>
      <trkpt lat="48.38264" lon="2.46333">
        <ele>116</ele>
        <time>2025-11-16T07:44:01Z</time>
      </trkpt>
      <trkpt lat="48.38268" lon="2.46326">
        <ele>116.9</ele>
        <time>2025-11-16T07:44:05Z</time>
      </trkpt>
      <trkpt lat="48.38271" lon="2.46318">
        <ele>117.7</ele>
        <time>2025-11-16T07:44:09Z</time>
      </trkpt>
      <trkpt lat="48.38275" lon="2.46311">
        <ele>118.4</ele>
        <time>2025-11-16T07:44:13Z</time>
      </trkpt>
      <trkpt lat="48.38279" lon="2.46303">
        <ele>119.2</ele>
        <time>2025-11-16T07:44:17Z</time>
      </trkpt>
      <trkpt lat="48.38284" lon="2.46293">
        <ele>119.8</ele>
        <time>2025-11-16T07:44:21Z</time>
      </trkpt>
      <trkpt lat="48.38288" lon="2.46285">
        <ele>120.4</ele>
        <time>2025-11-16T07:44:25Z</time>
      </trkpt>
      <trkpt lat="48.38292" lon="2.46275">
        <ele>121.1</ele>
        <time>2025-11-16T07:44:29Z</time>
      </trkpt>
      <trkpt lat="48.38297" lon="2.46264">
        <ele>121.5</ele>
        <time>2025-11-16T07:44:33Z</time>
      </trkpt>
      <trkpt lat="48.38303" lon="2.46254">
        <ele>121.9</ele>
        <time>2025-11-16T07:44:37Z</time>
      </trkpt>
      <trkpt lat="48.38308" lon="2.46243">
        <ele>122</ele>
        <time>2025-11-16T07:44:41Z</time>
      </trkpt>
      <trkpt lat="48.3831" lon="2.46237">
        <ele>122.1</ele>
        <time>2025-11-16T07:44:43Z</time>
      </trkpt>
      <trkpt lat="48.38312" lon="2.46229">
        <ele>122.2</ele>
        <time>2025-11-16T07:44:45Z</time>
      </trkpt>
      <trkpt lat="48.38316" lon="2.46223">
        <ele>122.4</ele>
        <time>2025-11-16T07:44:47Z</time>
      </trkpt>
      <trkpt lat="48.38321" lon="2.46219">
        <ele>122.6</ele>
        <time>2025-11-16T07:44:49Z</time>
      </trkpt>
      <trkpt lat="48.38327" lon="2.46217">
        <ele>122.8</ele>
        <time>2025-11-16T07:44:51Z</time>
      </trkpt>
      <trkpt lat="48.38333" lon="2.46216">
        <ele>123</ele>
        <time>2025-11-16T07:44:53Z</time>
      </trkpt>
      <trkpt lat="48.3834" lon="2.46216">
        <ele>123</ele>
        <time>2025-11-16T07:44:55Z</time>
      </trkpt>
      <trkpt lat="48.38348" lon="2.46217">
        <ele>123</ele>
        <time>2025-11-16T07:44:57Z</time>
      </trkpt>
      <trkpt lat="48.38354" lon="2.46218">
        <ele>123</ele>
        <time>2025-11-16T07:44:59Z</time>
      </trkpt>
      <trkpt lat="48.38361" lon="2.46216">
        <ele>123</ele>
        <time>2025-11-16T07:45:01Z</time>
      </trkpt>
      <trkpt lat="48.38368" lon="2.46214">
        <ele>123</ele>
        <time>2025-11-16T07:45:03Z</time>
      </trkpt>
      <trkpt lat="48.38375" lon="2.46211">
        <ele>123</ele>
        <time>2025-11-16T07:45:05Z</time>
      </trkpt>
      <trkpt lat="48.38381" lon="2.46206">
        <ele>123</ele>
        <time>2025-11-16T07:45:07Z</time>
      </trkpt>
      <trkpt lat="48.38388" lon="2.46201">
        <ele>123</ele>
        <time>2025-11-16T07:45:09Z</time>
      </trkpt>
      <trkpt lat="48.38395" lon="2.46198">
        <ele>123</ele>
        <time>2025-11-16T07:45:11Z</time>
      </trkpt>
      <trkpt lat="48.38401" lon="2.46195">
        <ele>123</ele>
        <time>2025-11-16T07:45:13Z</time>
      </trkpt>
      <trkpt lat="48.38407" lon="2.46193">
        <ele>123</ele>
        <time>2025-11-16T07:45:15Z</time>
      </trkpt>
      <trkpt lat="48.38414" lon="2.46193">
        <ele>123</ele>
        <time>2025-11-16T07:45:17Z</time>
      </trkpt>
      <trkpt lat="48.38421" lon="2.46191">
        <ele>123</ele>
        <time>2025-11-16T07:45:19Z</time>
      </trkpt>
      <trkpt lat="48.38429" lon="2.46191">
        <ele>123</ele>
        <time>2025-11-16T07:45:21Z</time>
      </trkpt>
      <trkpt lat="48.38435" lon="2.4619">
        <ele>123</ele>
        <time>2025-11-16T07:45:23Z</time>
      </trkpt>
      <trkpt lat="48.38442" lon="2.4619">
        <ele>123</ele>
        <time>2025-11-16T07:45:25Z</time>
      </trkpt>
      <trkpt lat="48.38448" lon="2.4619">
        <ele>123</ele>
        <time>2025-11-16T07:45:27Z</time>
      </trkpt>
      <trkpt lat="48.38454" lon="2.4619">
        <ele>123</ele>
        <time>2025-11-16T07:45:29Z</time>
      </trkpt>
      <trkpt lat="48.3846" lon="2.46188">
        <ele>123</ele>
        <time>2025-11-16T07:45:31Z</time>
      </trkpt>
      <trkpt lat="48.38465" lon="2.46185">
        <ele>123</ele>
        <time>2025-11-16T07:45:33Z</time>
      </trkpt>
      <trkpt lat="48.38471" lon="2.46179">
        <ele>123</ele>
        <time>2025-11-16T07:45:35Z</time>
      </trkpt>
      <trkpt lat="48.38477" lon="2.46174">
        <ele>123</ele>
        <time>2025-11-16T07:45:37Z</time>
      </trkpt>
      <trkpt lat="48.38482" lon="2.46167">
        <ele>123</ele>
        <time>2025-11-16T07:45:39Z</time>
      </trkpt>
      <trkpt lat="48.38488" lon="2.46162">
        <ele>123</ele>
        <time>2025-11-16T07:45:41Z</time>
      </trkpt>
      <trkpt lat="48.38493" lon="2.46156">
        <ele>123</ele>
        <time>2025-11-16T07:45:43Z</time>
      </trkpt>
      <trkpt lat="48.38499" lon="2.4615">
        <ele>123</ele>
        <time>2025-11-16T07:45:45Z</time>
      </trkpt>
      <trkpt lat="48.38504" lon="2.46145">
        <ele>123</ele>
        <time>2025-11-16T07:45:47Z</time>
      </trkpt>
      <trkpt lat="48.3851" lon="2.46139">
        <ele>123</ele>
        <time>2025-11-16T07:45:49Z</time>
      </trkpt>
      <trkpt lat="48.38514" lon="2.46133">
        <ele>123</ele>
        <time>2025-11-16T07:45:51Z</time>
      </trkpt>
      <trkpt lat="48.3852" lon="2.46128">
        <ele>123</ele>
        <time>2025-11-16T07:45:53Z</time>
      </trkpt>
      <trkpt lat="48.38526" lon="2.46122">
        <ele>123</ele>
        <time>2025-11-16T07:45:55Z</time>
      </trkpt>
      <trkpt lat="48.38532" lon="2.46116">
        <ele>122.7</ele>
        <time>2025-11-16T07:45:57Z</time>
      </trkpt>
      <trkpt lat="48.38539" lon="2.46108">
        <ele>122.2</ele>
        <time>2025-11-16T07:45:59Z</time>
      </trkpt>
      <trkpt lat="48.38546" lon="2.46101">
        <ele>121.7</ele>
        <time>2025-11-16T07:46:01Z</time>
      </trkpt>
      <trkpt lat="48.38553" lon="2.46094">
        <ele>121.2</ele>
        <time>2025-11-16T07:46:03Z</time>
      </trkpt>
      <trkpt lat="48.38562" lon="2.46086">
        <ele>120.6</ele>
        <time>2025-11-16T07:46:05Z</time>
      </trkpt>
      <trkpt lat="48.3857" lon="2.46077">
        <ele>120</ele>
        <time>2025-11-16T07:46:07Z</time>
      </trkpt>
      <trkpt lat="48.38579" lon="2.46068">
        <ele>119.3</ele>
        <time>2025-11-16T07:46:09Z</time>
      </trkpt>
      <trkpt lat="48.38587" lon="2.46057">
        <ele>118.6</ele>
        <time>2025-11-16T07:46:11Z</time>
      </trkpt>
      <trkpt lat="48.38592" lon="2.4605">
        <ele>118.3</ele>
        <time>2025-11-16T07:46:13Z</time>
      </trkpt>
      <trkpt lat="48.38592" lon="2.46041">
        <ele>118.5</ele>
        <time>2025-11-16T07:46:15Z</time>
      </trkpt>
      <trkpt lat="48.38593" lon="2.46034">
        <ele>118.8</ele>
        <time>2025-11-16T07:46:17Z</time>
      </trkpt>
      <trkpt lat="48.38596" lon="2.46028">
        <ele>118.6</ele>
        <time>2025-11-16T07:46:19Z</time>
      </trkpt>
      <trkpt lat="48.38602" lon="2.46022">
        <ele>118.1</ele>
        <time>2025-11-16T07:46:21Z</time>
      </trkpt>
      <trkpt lat="48.38608" lon="2.46016">
        <ele>117.7</ele>
        <time>2025-11-16T07:46:23Z</time>
      </trkpt>
      <trkpt lat="48.38615" lon="2.46013">
        <ele>117</ele>
        <time>2025-11-16T07:46:25Z</time>
      </trkpt>
      <trkpt lat="48.38623" lon="2.46009">
        <ele>115.9</ele>
        <time>2025-11-16T07:46:27Z</time>
      </trkpt>
      <trkpt lat="48.38632" lon="2.46003">
        <ele>114.8</ele>
        <time>2025-11-16T07:46:29Z</time>
      </trkpt>
      <trkpt lat="48.3864" lon="2.45992">
        <ele>114.1</ele>
        <time>2025-11-16T07:46:31Z</time>
      </trkpt>
      <trkpt lat="48.38648" lon="2.45983">
        <ele>113.3</ele>
        <time>2025-11-16T07:46:33Z</time>
      </trkpt>
      <trkpt lat="48.38655" lon="2.45977">
        <ele>112.5</ele>
        <time>2025-11-16T07:46:35Z</time>
      </trkpt>
      <trkpt lat="48.38662" lon="2.45971">
        <ele>111.7</ele>
        <time>2025-11-16T07:46:37Z</time>
      </trkpt>
      <trkpt lat="48.38663" lon="2.45962">
        <ele>111.9</ele>
        <time>2025-11-16T07:46:39Z</time>
      </trkpt>
      <trkpt lat="48.38669" lon="2.45947">
        <ele>111.6</ele>
        <time>2025-11-16T07:46:41Z</time>
      </trkpt>
      <trkpt lat="48.38673" lon="2.45932">
        <ele>111.5</ele>
        <time>2025-11-16T07:46:43Z</time>
      </trkpt>
      <trkpt lat="48.38676" lon="2.45926">
        <ele>111.5</ele>
        <time>2025-11-16T07:46:45Z</time>
      </trkpt>
      <trkpt lat="48.38674" lon="2.45918">
        <ele>111.7</ele>
        <time>2025-11-16T07:46:49Z</time>
      </trkpt>
      <trkpt lat="48.38668" lon="2.45911">
        <ele>112.3</ele>
        <time>2025-11-16T07:46:53Z</time>
      </trkpt>
      <trkpt lat="48.38662" lon="2.45904">
        <ele>113.3</ele>
        <time>2025-11-16T07:46:57Z</time>
      </trkpt>
      <trkpt lat="48.38656" lon="2.45895">
        <ele>114.4</ele>
        <time>2025-11-16T07:47:01Z</time>
      </trkpt>
      <trkpt lat="48.38652" lon="2.45886">
        <ele>115.2</ele>
        <time>2025-11-16T07:47:05Z</time>
      </trkpt>
      <trkpt lat="48.38648" lon="2.45875">
        <ele>116</ele>
        <time>2025-11-16T07:47:09Z</time>
      </trkpt>
      <trkpt lat="48.38644" lon="2.45865">
        <ele>116.7</ele>
        <time>2025-11-16T07:47:13Z</time>
      </trkpt>
      <trkpt lat="48.38638" lon="2.45857">
        <ele>117.4</ele>
        <time>2025-11-16T07:47:17Z</time>
      </trkpt>
      <trkpt lat="48.38635" lon="2.45849">
        <ele>118.1</ele>
        <time>2025-11-16T07:47:21Z</time>
      </trkpt>
      <trkpt lat="48.38629" lon="2.4584">
        <ele>119</ele>
        <time>2025-11-16T07:47:25Z</time>
      </trkpt>
      <trkpt lat="48.38624" lon="2.45833">
        <ele>119.6</ele>
        <time>2025-11-16T07:47:29Z</time>
      </trkpt>
      <trkpt lat="48.3862" lon="2.45825">
        <ele>120</ele>
        <time>2025-11-16T07:47:33Z</time>
      </trkpt>
      <trkpt lat="48.38614" lon="2.45815">
        <ele>120.5</ele>
        <time>2025-11-16T07:47:37Z</time>
      </trkpt>
      <trkpt lat="48.38611" lon="2.45811">
        <ele>120.8</ele>
        <time>2025-11-16T07:47:39Z</time>
      </trkpt>
      <trkpt lat="48.38605" lon="2.45799">
        <ele>121.4</ele>
        <time>2025-11-16T07:47:43Z</time>
      </trkpt>
      <trkpt lat="48.38601" lon="2.45795">
        <ele>121.6</ele>
        <time>2025-11-16T07:47:45Z</time>
      </trkpt>
      <trkpt lat="48.38597" lon="2.45789">
        <ele>121.8</ele>
        <time>2025-11-16T07:47:47Z</time>
      </trkpt>
      <trkpt lat="48.38594" lon="2.45783">
        <ele>121.9</ele>
        <time>2025-11-16T07:47:49Z</time>
      </trkpt>
      <trkpt lat="48.38591" lon="2.45777">
        <ele>122</ele>
        <time>2025-11-16T07:47:51Z</time>
      </trkpt>
      <trkpt lat="48.38586" lon="2.45771">
        <ele>122.2</ele>
        <time>2025-11-16T07:47:53Z</time>
      </trkpt>
      <trkpt lat="48.38583" lon="2.45765">
        <ele>122.5</ele>
        <time>2025-11-16T07:47:55Z</time>
      </trkpt>
      <trkpt lat="48.38579" lon="2.45759">
        <ele>122.7</ele>
        <time>2025-11-16T07:47:57Z</time>
      </trkpt>
      <trkpt lat="48.38575" lon="2.45752">
        <ele>123</ele>
        <time>2025-11-16T07:47:59Z</time>
      </trkpt>
      <trkpt lat="48.38572" lon="2.45745">
        <ele>123</ele>
        <time>2025-11-16T07:48:01Z</time>
      </trkpt>
      <trkpt lat="48.38568" lon="2.45737">
        <ele>123</ele>
        <time>2025-11-16T07:48:03Z</time>
      </trkpt>
      <trkpt lat="48.38563" lon="2.45729">
        <ele>123</ele>
        <time>2025-11-16T07:48:05Z</time>
      </trkpt>
      <trkpt lat="48.38558" lon="2.45721">
        <ele>123</ele>
        <time>2025-11-16T07:48:07Z</time>
      </trkpt>
      <trkpt lat="48.38553" lon="2.45713">
        <ele>123</ele>
        <time>2025-11-16T07:48:09Z</time>
      </trkpt>
      <trkpt lat="48.38548" lon="2.45706">
        <ele>123</ele>
        <time>2025-11-16T07:48:11Z</time>
      </trkpt>
      <trkpt lat="48.38543" lon="2.45698">
        <ele>123</ele>
        <time>2025-11-16T07:48:13Z</time>
      </trkpt>
      <trkpt lat="48.38538" lon="2.4569">
        <ele>123</ele>
        <time>2025-11-16T07:48:15Z</time>
      </trkpt>
      <trkpt lat="48.38532" lon="2.45682">
        <ele>123</ele>
        <time>2025-11-16T07:48:17Z</time>
      </trkpt>
      <trkpt lat="48.38527" lon="2.45675">
        <ele>123</ele>
        <time>2025-11-16T07:48:19Z</time>
      </trkpt>
      <trkpt lat="48.38522" lon="2.45667">
        <ele>123</ele>
        <time>2025-11-16T07:48:21Z</time>
      </trkpt>
      <trkpt lat="48.38516" lon="2.45658">
        <ele>123</ele>
        <time>2025-11-16T07:48:23Z</time>
      </trkpt>
      <trkpt lat="48.38511" lon="2.45651">
        <ele>123</ele>
        <time>2025-11-16T07:48:25Z</time>
      </trkpt>
      <trkpt lat="48.38505" lon="2.45643">
        <ele>123</ele>
        <time>2025-11-16T07:48:27Z</time>
      </trkpt>
      <trkpt lat="48.38499" lon="2.45636">
        <ele>123</ele>
        <time>2025-11-16T07:48:29Z</time>
      </trkpt>
      <trkpt lat="48.38493" lon="2.45628">
        <ele>123.2</ele>
        <time>2025-11-16T07:48:31Z</time>
      </trkpt>
      <trkpt lat="48.38487" lon="2.45621">
        <ele>123.5</ele>
        <time>2025-11-16T07:48:33Z</time>
      </trkpt>
      <trkpt lat="48.38482" lon="2.45614">
        <ele>123.7</ele>
        <time>2025-11-16T07:48:35Z</time>
      </trkpt>
      <trkpt lat="48.38476" lon="2.45608">
        <ele>123.8</ele>
        <time>2025-11-16T07:48:37Z</time>
      </trkpt>
      <trkpt lat="48.3847" lon="2.45603">
        <ele>123.7</ele>
        <time>2025-11-16T07:48:39Z</time>
      </trkpt>
      <trkpt lat="48.38465" lon="2.45597">
        <ele>123.5</ele>
        <time>2025-11-16T07:48:41Z</time>
      </trkpt>
      <trkpt lat="48.38458" lon="2.45591">
        <ele>123.3</ele>
        <time>2025-11-16T07:48:43Z</time>
      </trkpt>
      <trkpt lat="48.38452" lon="2.45586">
        <ele>123.1</ele>
        <time>2025-11-16T07:48:45Z</time>
      </trkpt>
      <trkpt lat="48.38446" lon="2.45582">
        <ele>123</ele>
        <time>2025-11-16T07:48:47Z</time>
      </trkpt>
      <trkpt lat="48.3844" lon="2.45578">
        <ele>122.9</ele>
        <time>2025-11-16T07:48:49Z</time>
      </trkpt>
      <trkpt lat="48.38434" lon="2.45574">
        <ele>122.9</ele>
        <time>2025-11-16T07:48:51Z</time>
      </trkpt>
      <trkpt lat="48.38431" lon="2.45568">
        <ele>122.7</ele>
        <time>2025-11-16T07:48:53Z</time>
      </trkpt>
      <trkpt lat="48.38436" lon="2.45559">
        <ele>122.2</ele>
        <time>2025-11-16T07:48:57Z</time>
      </trkpt>
      <trkpt lat="48.38442" lon="2.45558">
        <ele>122.1</ele>
        <time>2025-11-16T07:48:59Z</time>
      </trkpt>
      <trkpt lat="48.38449" lon="2.4556">
        <ele>122.1</ele>
        <time>2025-11-16T07:49:01Z</time>
      </trkpt>
      <trkpt lat="48.38455" lon="2.45563">
        <ele>122.3</ele>
        <time>2025-11-16T07:49:03Z</time>
      </trkpt>
      <trkpt lat="48.38462" lon="2.45566">
        <ele>122.4</ele>
        <time>2025-11-16T07:49:05Z</time>
      </trkpt>
      <trkpt lat="48.38472" lon="2.45568">
        <ele>122.4</ele>
        <time>2025-11-16T07:49:07Z</time>
      </trkpt>
      <trkpt lat="48.3848" lon="2.4557">
        <ele>122.7</ele>
        <time>2025-11-16T07:49:09Z</time>
      </trkpt>
      <trkpt lat="48.3849" lon="2.45573">
        <ele>122.9</ele>
        <time>2025-11-16T07:49:11Z</time>
      </trkpt>
      <trkpt lat="48.38498" lon="2.45575">
        <ele>123</ele>
        <time>2025-11-16T07:49:13Z</time>
      </trkpt>
      <trkpt lat="48.38506" lon="2.45579">
        <ele>123</ele>
        <time>2025-11-16T07:49:15Z</time>
      </trkpt>
      <trkpt lat="48.38514" lon="2.45582">
        <ele>123</ele>
        <time>2025-11-16T07:49:17Z</time>
      </trkpt>
      <trkpt lat="48.38522" lon="2.45585">
        <ele>123</ele>
        <time>2025-11-16T07:49:19Z</time>
      </trkpt>
      <trkpt lat="48.3853" lon="2.45588">
        <ele>123</ele>
        <time>2025-11-16T07:49:21Z</time>
      </trkpt>
      <trkpt lat="48.38539" lon="2.45587">
        <ele>123</ele>
        <time>2025-11-16T07:49:23Z</time>
      </trkpt>
      <trkpt lat="48.38549" lon="2.45589">
        <ele>123</ele>
        <time>2025-11-16T07:49:25Z</time>
      </trkpt>
      <trkpt lat="48.38558" lon="2.45591">
        <ele>122.9</ele>
        <time>2025-11-16T07:49:27Z</time>
      </trkpt>
      <trkpt lat="48.38566" lon="2.45595">
        <ele>122.6</ele>
        <time>2025-11-16T07:49:29Z</time>
      </trkpt>
      <trkpt lat="48.38576" lon="2.45598">
        <ele>122.3</ele>
        <time>2025-11-16T07:49:31Z</time>
      </trkpt>
      <trkpt lat="48.38587" lon="2.45601">
        <ele>121.9</ele>
        <time>2025-11-16T07:49:33Z</time>
      </trkpt>
      <trkpt lat="48.38596" lon="2.45603">
        <ele>121.9</ele>
        <time>2025-11-16T07:49:35Z</time>
      </trkpt>
      <trkpt lat="48.38604" lon="2.45606">
        <ele>121.9</ele>
        <time>2025-11-16T07:49:37Z</time>
      </trkpt>
      <trkpt lat="48.38612" lon="2.45609">
        <ele>121.9</ele>
        <time>2025-11-16T07:49:39Z</time>
      </trkpt>
      <trkpt lat="48.38621" lon="2.45611">
        <ele>122</ele>
        <time>2025-11-16T07:49:41Z</time>
      </trkpt>
      <trkpt lat="48.3863" lon="2.45614">
        <ele>122</ele>
        <time>2025-11-16T07:49:43Z</time>
      </trkpt>
      <trkpt lat="48.3864" lon="2.45617">
        <ele>122</ele>
        <time>2025-11-16T07:49:45Z</time>
      </trkpt>
      <trkpt lat="48.38649" lon="2.45621">
        <ele>122</ele>
        <time>2025-11-16T07:49:47Z</time>
      </trkpt>
      <trkpt lat="48.38659" lon="2.45624">
        <ele>122</ele>
        <time>2025-11-16T07:49:49Z</time>
      </trkpt>
      <trkpt lat="48.38667" lon="2.45624">
        <ele>122</ele>
        <time>2025-11-16T07:49:51Z</time>
      </trkpt>
      <trkpt lat="48.38675" lon="2.45627">
        <ele>122</ele>
        <time>2025-11-16T07:49:53Z</time>
      </trkpt>
      <trkpt lat="48.38683" lon="2.45622">
        <ele>122</ele>
        <time>2025-11-16T07:49:55Z</time>
      </trkpt>
      <trkpt lat="48.38683" lon="2.45612">
        <ele>122</ele>
        <time>2025-11-16T07:49:57Z</time>
      </trkpt>
      <trkpt lat="48.38686" lon="2.45601">
        <ele>121.6</ele>
        <time>2025-11-16T07:49:59Z</time>
      </trkpt>
      <trkpt lat="48.38691" lon="2.45588">
        <ele>121.2</ele>
        <time>2025-11-16T07:50:01Z</time>
      </trkpt>
      <trkpt lat="48.38695" lon="2.45576">
        <ele>120.7</ele>
        <time>2025-11-16T07:50:03Z</time>
      </trkpt>
      <trkpt lat="48.38703" lon="2.45573">
        <ele>120.6</ele>
        <time>2025-11-16T07:50:05Z</time>
      </trkpt>
      <trkpt lat="48.3871" lon="2.45573">
        <ele>120.6</ele>
        <time>2025-11-16T07:50:07Z</time>
      </trkpt>
      <trkpt lat="48.38716" lon="2.45572">
        <ele>120.6</ele>
        <time>2025-11-16T07:50:09Z</time>
      </trkpt>
      <trkpt lat="48.38723" lon="2.45572">
        <ele>120.5</ele>
        <time>2025-11-16T07:50:11Z</time>
      </trkpt>
      <trkpt lat="48.3873" lon="2.45573">
        <ele>120.1</ele>
        <time>2025-11-16T07:50:13Z</time>
      </trkpt>
      <trkpt lat="48.38737" lon="2.45572">
        <ele>119.5</ele>
        <time>2025-11-16T07:50:15Z</time>
      </trkpt>
      <trkpt lat="48.38742" lon="2.45571">
        <ele>119.1</ele>
        <time>2025-11-16T07:50:17Z</time>
      </trkpt>
      <trkpt lat="48.38751" lon="2.45572">
        <ele>118.5</ele>
        <time>2025-11-16T07:50:21Z</time>
      </trkpt>
      <trkpt lat="48.38756" lon="2.45576">
        <ele>117.6</ele>
        <time>2025-11-16T07:50:23Z</time>
      </trkpt>
      <trkpt lat="48.3876" lon="2.4558">
        <ele>117</ele>
        <time>2025-11-16T07:50:25Z</time>
      </trkpt>
      <trkpt lat="48.38764" lon="2.45588">
        <ele>116.6</ele>
        <time>2025-11-16T07:50:27Z</time>
      </trkpt>
      <trkpt lat="48.38771" lon="2.45596">
        <ele>116</ele>
        <time>2025-11-16T07:50:29Z</time>
      </trkpt>
      <trkpt lat="48.38775" lon="2.456">
        <ele>115.6</ele>
        <time>2025-11-16T07:50:31Z</time>
      </trkpt>
      <trkpt lat="48.38781" lon="2.45603">
        <ele>114.7</ele>
        <time>2025-11-16T07:50:35Z</time>
      </trkpt>
      <trkpt lat="48.38786" lon="2.45604">
        <ele>113.6</ele>
        <time>2025-11-16T07:50:43Z</time>
      </trkpt>
      <trkpt lat="48.3879" lon="2.45597">
        <ele>112</ele>
        <time>2025-11-16T07:50:47Z</time>
      </trkpt>
      <trkpt lat="48.38792" lon="2.4559">
        <ele>110.9</ele>
        <time>2025-11-16T07:50:49Z</time>
      </trkpt>
      <trkpt lat="48.38795" lon="2.45581">
        <ele>109.5</ele>
        <time>2025-11-16T07:50:51Z</time>
      </trkpt>
      <trkpt lat="48.38795" lon="2.4557">
        <ele>108.5</ele>
        <time>2025-11-16T07:50:53Z</time>
      </trkpt>
      <trkpt lat="48.38794" lon="2.45561">
        <ele>107.8</ele>
        <time>2025-11-16T07:50:55Z</time>
      </trkpt>
      <trkpt lat="48.38796" lon="2.45549">
        <ele>106</ele>
        <time>2025-11-16T07:50:59Z</time>
      </trkpt>
      <trkpt lat="48.38797" lon="2.45542">
        <ele>104.9</ele>
        <time>2025-11-16T07:51:01Z</time>
      </trkpt>
      <trkpt lat="48.38798" lon="2.45535">
        <ele>104.1</ele>
        <time>2025-11-16T07:51:03Z</time>
      </trkpt>
      <trkpt lat="48.38798" lon="2.45523">
        <ele>102.6</ele>
        <time>2025-11-16T07:51:07Z</time>
      </trkpt>
      <trkpt lat="48.38795" lon="2.45517">
        <ele>102.6</ele>
        <time>2025-11-16T07:51:09Z</time>
      </trkpt>
      <trkpt lat="48.38793" lon="2.45511">
        <ele>102.7</ele>
        <time>2025-11-16T07:51:11Z</time>
      </trkpt>
      <trkpt lat="48.38789" lon="2.45505">
        <ele>102.8</ele>
        <time>2025-11-16T07:51:13Z</time>
      </trkpt>
      <trkpt lat="48.38783" lon="2.45495">
        <ele>102.9</ele>
        <time>2025-11-16T07:51:17Z</time>
      </trkpt>
      <trkpt lat="48.38779" lon="2.45492">
        <ele>103.6</ele>
        <time>2025-11-16T07:51:19Z</time>
      </trkpt>
      <trkpt lat="48.38773" lon="2.45489">
        <ele>104.2</ele>
        <time>2025-11-16T07:51:23Z</time>
      </trkpt>
      <trkpt lat="48.38767" lon="2.45483">
        <ele>104.3</ele>
        <time>2025-11-16T07:51:27Z</time>
      </trkpt>
      <trkpt lat="48.38759" lon="2.45479">
        <ele>104.8</ele>
        <time>2025-11-16T07:51:31Z</time>
      </trkpt>
      <trkpt lat="48.38754" lon="2.45474">
        <ele>104.8</ele>
        <time>2025-11-16T07:51:35Z</time>
      </trkpt>
      <trkpt lat="48.38749" lon="2.45469">
        <ele>104.4</ele>
        <time>2025-11-16T07:51:37Z</time>
      </trkpt>
      <trkpt lat="48.38743" lon="2.4546">
        <ele>103.1</ele>
        <time>2025-11-16T07:51:41Z</time>
      </trkpt>
      <trkpt lat="48.38738" lon="2.45455">
        <ele>102.3</ele>
        <time>2025-11-16T07:51:43Z</time>
      </trkpt>
      <trkpt lat="48.38734" lon="2.45453">
        <ele>102.2</ele>
        <time>2025-11-16T07:51:45Z</time>
      </trkpt>
      <trkpt lat="48.38727" lon="2.4545">
        <ele>101.7</ele>
        <time>2025-11-16T07:51:47Z</time>
      </trkpt>
      <trkpt lat="48.38721" lon="2.45445">
        <ele>101</ele>
        <time>2025-11-16T07:51:49Z</time>
      </trkpt>
      <trkpt lat="48.38716" lon="2.45443">
        <ele>100.7</ele>
        <time>2025-11-16T07:51:55Z</time>
      </trkpt>
      <trkpt lat="48.38711" lon="2.45446">
        <ele>101.3</ele>
        <time>2025-11-16T07:51:59Z</time>
      </trkpt>
      <trkpt lat="48.38705" lon="2.45446">
        <ele>101.3</ele>
        <time>2025-11-16T07:52:07Z</time>
      </trkpt>
      <trkpt lat="48.38701" lon="2.4545">
        <ele>102.1</ele>
        <time>2025-11-16T07:52:17Z</time>
      </trkpt>
      <trkpt lat="48.38693" lon="2.45443">
        <ele>100.8</ele>
        <time>2025-11-16T07:52:23Z</time>
      </trkpt>
      <trkpt lat="48.38688" lon="2.45438">
        <ele>99.9</ele>
        <time>2025-11-16T07:52:25Z</time>
      </trkpt>
      <trkpt lat="48.38684" lon="2.45433">
        <ele>98.9</ele>
        <time>2025-11-16T07:52:29Z</time>
      </trkpt>
      <trkpt lat="48.3868" lon="2.45427">
        <ele>97.9</ele>
        <time>2025-11-16T07:52:35Z</time>
      </trkpt>
      <trkpt lat="48.3867" lon="2.45421">
        <ele>96.8</ele>
        <time>2025-11-16T07:52:39Z</time>
      </trkpt>
      <trkpt lat="48.38663" lon="2.4542">
        <ele>96.8</ele>
        <time>2025-11-16T07:52:41Z</time>
      </trkpt>
      <trkpt lat="48.38655" lon="2.45419">
        <ele>96.8</ele>
        <time>2025-11-16T07:52:43Z</time>
      </trkpt>
      <trkpt lat="48.38649" lon="2.45416">
        <ele>96.5</ele>
        <time>2025-11-16T07:52:45Z</time>
      </trkpt>
      <trkpt lat="48.38643" lon="2.45411">
        <ele>96.4</ele>
        <time>2025-11-16T07:52:47Z</time>
      </trkpt>
      <trkpt lat="48.38635" lon="2.45402">
        <ele>96.6</ele>
        <time>2025-11-16T07:52:49Z</time>
      </trkpt>
      <trkpt lat="48.38632" lon="2.45391">
        <ele>96.4</ele>
        <time>2025-11-16T07:52:51Z</time>
      </trkpt>
      <trkpt lat="48.38631" lon="2.4538">
        <ele>95.6</ele>
        <time>2025-11-16T07:52:53Z</time>
      </trkpt>
      <trkpt lat="48.38635" lon="2.45368">
        <ele>94.2</ele>
        <time>2025-11-16T07:52:55Z</time>
      </trkpt>
      <trkpt lat="48.38634" lon="2.45357">
        <ele>93.2</ele>
        <time>2025-11-16T07:52:57Z</time>
      </trkpt>
      <trkpt lat="48.38636" lon="2.45349">
        <ele>92.2</ele>
        <time>2025-11-16T07:52:59Z</time>
      </trkpt>
      <trkpt lat="48.38639" lon="2.45341">
        <ele>90.8</ele>
        <time>2025-11-16T07:53:01Z</time>
      </trkpt>
      <trkpt lat="48.38638" lon="2.45332">
        <ele>89.9</ele>
        <time>2025-11-16T07:53:03Z</time>
      </trkpt>
      <trkpt lat="48.38636" lon="2.45324">
        <ele>88.9</ele>
        <time>2025-11-16T07:53:05Z</time>
      </trkpt>
      <trkpt lat="48.3863" lon="2.45315">
        <ele>88.3</ele>
        <time>2025-11-16T07:53:07Z</time>
      </trkpt>
      <trkpt lat="48.38626" lon="2.45307">
        <ele>87.2</ele>
        <time>2025-11-16T07:53:09Z</time>
      </trkpt>
      <trkpt lat="48.38623" lon="2.45299">
        <ele>86.3</ele>
        <time>2025-11-16T07:53:13Z</time>
      </trkpt>
      <trkpt lat="48.38618" lon="2.45293">
        <ele>85.8</ele>
        <time>2025-11-16T07:53:17Z</time>
      </trkpt>
      <trkpt lat="48.38615" lon="2.45288">
        <ele>85.2</ele>
        <time>2025-11-16T07:53:19Z</time>
      </trkpt>
      <trkpt lat="48.38611" lon="2.45285">
        <ele>85.1</ele>
        <time>2025-11-16T07:53:21Z</time>
      </trkpt>
      <trkpt lat="48.38606" lon="2.45282">
        <ele>84.9</ele>
        <time>2025-11-16T07:53:25Z</time>
      </trkpt>
      <trkpt lat="48.38601" lon="2.45277">
        <ele>84.2</ele>
        <time>2025-11-16T07:53:29Z</time>
      </trkpt>
      <trkpt lat="48.38604" lon="2.45271">
        <ele>83.5</ele>
        <time>2025-11-16T07:53:31Z</time>
      </trkpt>
      <trkpt lat="48.38605" lon="2.45258">
        <ele>82.1</ele>
        <time>2025-11-16T07:53:33Z</time>
      </trkpt>
      <trkpt lat="48.38607" lon="2.45248">
        <ele>81</ele>
        <time>2025-11-16T07:53:35Z</time>
      </trkpt>
      <trkpt lat="48.38613" lon="2.45242">
        <ele>80.7</ele>
        <time>2025-11-16T07:53:37Z</time>
      </trkpt>
      <trkpt lat="48.38616" lon="2.45232">
        <ele>80.2</ele>
        <time>2025-11-16T07:53:39Z</time>
      </trkpt>
      <trkpt lat="48.38616" lon="2.45218">
        <ele>79.7</ele>
        <time>2025-11-16T07:53:41Z</time>
      </trkpt>
      <trkpt lat="48.38619" lon="2.45202">
        <ele>79.2</ele>
        <time>2025-11-16T07:53:43Z</time>
      </trkpt>
      <trkpt lat="48.38623" lon="2.45185">
        <ele>78.9</ele>
        <time>2025-11-16T07:53:45Z</time>
      </trkpt>
      <trkpt lat="48.38627" lon="2.45168">
        <ele>78.5</ele>
        <time>2025-11-16T07:53:47Z</time>
      </trkpt>
      <trkpt lat="48.38631" lon="2.45152">
        <ele>78.3</ele>
        <time>2025-11-16T07:53:49Z</time>
      </trkpt>
      <trkpt lat="48.38634" lon="2.45138">
        <ele>78.2</ele>
        <time>2025-11-16T07:53:51Z</time>
      </trkpt>
      <trkpt lat="48.38635" lon="2.45123">
        <ele>78.1</ele>
        <time>2025-11-16T07:53:53Z</time>
      </trkpt>
      <trkpt lat="48.38633" lon="2.45108">
        <ele>78.3</ele>
        <time>2025-11-16T07:53:55Z</time>
      </trkpt>
      <trkpt lat="48.38627" lon="2.45096">
        <ele>78.7</ele>
        <time>2025-11-16T07:53:57Z</time>
      </trkpt>
      <trkpt lat="48.38621" lon="2.45085">
        <ele>79</ele>
        <time>2025-11-16T07:53:59Z</time>
      </trkpt>
      <trkpt lat="48.38614" lon="2.45075">
        <ele>79</ele>
        <time>2025-11-16T07:54:01Z</time>
      </trkpt>
      <trkpt lat="48.38607" lon="2.45064">
        <ele>79.2</ele>
        <time>2025-11-16T07:54:03Z</time>
      </trkpt>
      <trkpt lat="48.38601" lon="2.45054">
        <ele>79.4</ele>
        <time>2025-11-16T07:54:05Z</time>
      </trkpt>
      <trkpt lat="48.38594" lon="2.45042">
        <ele>79.8</ele>
        <time>2025-11-16T07:54:07Z</time>
      </trkpt>
      <trkpt lat="48.38588" lon="2.45032">
        <ele>80</ele>
        <time>2025-11-16T07:54:09Z</time>
      </trkpt>
      <trkpt lat="48.38581" lon="2.4502">
        <ele>80.1</ele>
        <time>2025-11-16T07:54:11Z</time>
      </trkpt>
      <trkpt lat="48.38575" lon="2.45009">
        <ele>80.4</ele>
        <time>2025-11-16T07:54:13Z</time>
      </trkpt>
      <trkpt lat="48.38568" lon="2.44998">
        <ele>80.5</ele>
        <time>2025-11-16T07:54:15Z</time>
      </trkpt>
      <trkpt lat="48.38562" lon="2.44988">
        <ele>80.8</ele>
        <time>2025-11-16T07:54:17Z</time>
      </trkpt>
      <trkpt lat="48.38557" lon="2.44978">
        <ele>81</ele>
        <time>2025-11-16T07:54:19Z</time>
      </trkpt>
      <trkpt lat="48.3855" lon="2.44967">
        <ele>81</ele>
        <time>2025-11-16T07:54:21Z</time>
      </trkpt>
      <trkpt lat="48.38543" lon="2.44956">
        <ele>80.9</ele>
        <time>2025-11-16T07:54:23Z</time>
      </trkpt>
      <trkpt lat="48.38536" lon="2.44947">
        <ele>80.8</ele>
        <time>2025-11-16T07:54:25Z</time>
      </trkpt>
      <trkpt lat="48.3853" lon="2.44938">
        <ele>80.9</ele>
        <time>2025-11-16T07:54:27Z</time>
      </trkpt>
      <trkpt lat="48.38523" lon="2.4493">
        <ele>81</ele>
        <time>2025-11-16T07:54:29Z</time>
      </trkpt>
      <trkpt lat="48.38516" lon="2.44923">
        <ele>81</ele>
        <time>2025-11-16T07:54:31Z</time>
      </trkpt>
      <trkpt lat="48.3851" lon="2.44915">
        <ele>81.1</ele>
        <time>2025-11-16T07:54:33Z</time>
      </trkpt>
      <trkpt lat="48.38504" lon="2.44909">
        <ele>81.3</ele>
        <time>2025-11-16T07:54:35Z</time>
      </trkpt>
      <trkpt lat="48.38499" lon="2.44902">
        <ele>81.5</ele>
        <time>2025-11-16T07:54:37Z</time>
      </trkpt>
      <trkpt lat="48.38493" lon="2.44894">
        <ele>81.8</ele>
        <time>2025-11-16T07:54:39Z</time>
      </trkpt>
      <trkpt lat="48.38488" lon="2.44887">
        <ele>82.1</ele>
        <time>2025-11-16T07:54:41Z</time>
      </trkpt>
      <trkpt lat="48.38482" lon="2.4488">
        <ele>82.3</ele>
        <time>2025-11-16T07:54:43Z</time>
      </trkpt>
      <trkpt lat="48.38476" lon="2.44873">
        <ele>82.6</ele>
        <time>2025-11-16T07:54:45Z</time>
      </trkpt>
      <trkpt lat="48.3847" lon="2.44867">
        <ele>82.7</ele>
        <time>2025-11-16T07:54:47Z</time>
      </trkpt>
      <trkpt lat="48.38465" lon="2.4486">
        <ele>82.8</ele>
        <time>2025-11-16T07:54:49Z</time>
      </trkpt>
      <trkpt lat="48.38459" lon="2.44854">
        <ele>82.9</ele>
        <time>2025-11-16T07:54:51Z</time>
      </trkpt>
      <trkpt lat="48.38453" lon="2.44848">
        <ele>83.1</ele>
        <time>2025-11-16T07:54:53Z</time>
      </trkpt>
      <trkpt lat="48.38448" lon="2.44843">
        <ele>83.3</ele>
        <time>2025-11-16T07:54:55Z</time>
      </trkpt>
      <trkpt lat="48.38442" lon="2.44837">
        <ele>83.7</ele>
        <time>2025-11-16T07:54:57Z</time>
      </trkpt>
      <trkpt lat="48.38436" lon="2.4483">
        <ele>83.7</ele>
        <time>2025-11-16T07:54:59Z</time>
      </trkpt>
      <trkpt lat="48.3843" lon="2.44824">
        <ele>83.7</ele>
        <time>2025-11-16T07:55:01Z</time>
      </trkpt>
      <trkpt lat="48.38424" lon="2.44817">
        <ele>83.7</ele>
        <time>2025-11-16T07:55:03Z</time>
      </trkpt>
      <trkpt lat="48.38417" lon="2.4481">
        <ele>83.8</ele>
        <time>2025-11-16T07:55:05Z</time>
      </trkpt>
      <trkpt lat="48.38411" lon="2.44803">
        <ele>83.9</ele>
        <time>2025-11-16T07:55:07Z</time>
      </trkpt>
      <trkpt lat="48.38405" lon="2.44797">
        <ele>84</ele>
        <time>2025-11-16T07:55:09Z</time>
      </trkpt>
      <trkpt lat="48.38399" lon="2.44791">
        <ele>84.2</ele>
        <time>2025-11-16T07:55:11Z</time>
      </trkpt>
      <trkpt lat="48.38393" lon="2.44785">
        <ele>84.5</ele>
        <time>2025-11-16T07:55:13Z</time>
      </trkpt>
      <trkpt lat="48.38387" lon="2.44778">
        <ele>84.9</ele>
        <time>2025-11-16T07:55:15Z</time>
      </trkpt>
      <trkpt lat="48.38382" lon="2.44773">
        <ele>84.7</ele>
        <time>2025-11-16T07:55:17Z</time>
      </trkpt>
      <trkpt lat="48.38376" lon="2.44768">
        <ele>84.6</ele>
        <time>2025-11-16T07:55:19Z</time>
      </trkpt>
      <trkpt lat="48.38371" lon="2.44762">
        <ele>84.6</ele>
        <time>2025-11-16T07:55:21Z</time>
      </trkpt>
      <trkpt lat="48.38365" lon="2.44756">
        <ele>84.8</ele>
        <time>2025-11-16T07:55:23Z</time>
      </trkpt>
      <trkpt lat="48.3836" lon="2.44751">
        <ele>84.9</ele>
        <time>2025-11-16T07:55:25Z</time>
      </trkpt>
      <trkpt lat="48.38355" lon="2.44744">
        <ele>84.8</ele>
        <time>2025-11-16T07:55:27Z</time>
      </trkpt>
      <trkpt lat="48.38349" lon="2.44737">
        <ele>84.8</ele>
        <time>2025-11-16T07:55:29Z</time>
      </trkpt>
      <trkpt lat="48.38345" lon="2.44731">
        <ele>84.9</ele>
        <time>2025-11-16T07:55:31Z</time>
      </trkpt>
      <trkpt lat="48.3834" lon="2.44726">
        <ele>85</ele>
        <time>2025-11-16T07:55:33Z</time>
      </trkpt>
      <trkpt lat="48.38334" lon="2.4472">
        <ele>85.1</ele>
        <time>2025-11-16T07:55:35Z</time>
      </trkpt>
      <trkpt lat="48.38328" lon="2.44715">
        <ele>85</ele>
        <time>2025-11-16T07:55:37Z</time>
      </trkpt>
      <trkpt lat="48.38323" lon="2.44709">
        <ele>84.9</ele>
        <time>2025-11-16T07:55:39Z</time>
      </trkpt>
      <trkpt lat="48.38317" lon="2.44702">
        <ele>84.9</ele>
        <time>2025-11-16T07:55:41Z</time>
      </trkpt>
      <trkpt lat="48.38311" lon="2.44696">
        <ele>85.1</ele>
        <time>2025-11-16T07:55:43Z</time>
      </trkpt>
      <trkpt lat="48.38305" lon="2.4469">
        <ele>85.1</ele>
        <time>2025-11-16T07:55:45Z</time>
      </trkpt>
      <trkpt lat="48.38298" lon="2.44685">
        <ele>85.2</ele>
        <time>2025-11-16T07:55:47Z</time>
      </trkpt>
      <trkpt lat="48.38292" lon="2.44678">
        <ele>85.4</ele>
        <time>2025-11-16T07:55:49Z</time>
      </trkpt>
      <trkpt lat="48.38285" lon="2.44673">
        <ele>85.6</ele>
        <time>2025-11-16T07:55:51Z</time>
      </trkpt>
      <trkpt lat="48.38278" lon="2.44667">
        <ele>86</ele>
        <time>2025-11-16T07:55:53Z</time>
      </trkpt>
      <trkpt lat="48.38272" lon="2.44661">
        <ele>85.8</ele>
        <time>2025-11-16T07:55:55Z</time>
      </trkpt>
      <trkpt lat="48.38265" lon="2.44655">
        <ele>85.7</ele>
        <time>2025-11-16T07:55:57Z</time>
      </trkpt>
      <trkpt lat="48.38259" lon="2.44649">
        <ele>85.7</ele>
        <time>2025-11-16T07:55:59Z</time>
      </trkpt>
      <trkpt lat="48.38252" lon="2.44643">
        <ele>85.8</ele>
        <time>2025-11-16T07:56:01Z</time>
      </trkpt>
      <trkpt lat="48.38247" lon="2.44636">
        <ele>85.9</ele>
        <time>2025-11-16T07:56:03Z</time>
      </trkpt>
      <trkpt lat="48.38241" lon="2.44628">
        <ele>85.7</ele>
        <time>2025-11-16T07:56:05Z</time>
      </trkpt>
      <trkpt lat="48.38236" lon="2.4462">
        <ele>85.7</ele>
        <time>2025-11-16T07:56:07Z</time>
      </trkpt>
      <trkpt lat="48.38232" lon="2.44611">
        <ele>85.7</ele>
        <time>2025-11-16T07:56:09Z</time>
      </trkpt>
      <trkpt lat="48.38228" lon="2.44601">
        <ele>85.9</ele>
        <time>2025-11-16T07:56:11Z</time>
      </trkpt>
      <trkpt lat="48.38226" lon="2.44592">
        <ele>86</ele>
        <time>2025-11-16T07:56:13Z</time>
      </trkpt>
      <trkpt lat="48.38223" lon="2.44583">
        <ele>86.2</ele>
        <time>2025-11-16T07:56:15Z</time>
      </trkpt>
      <trkpt lat="48.38221" lon="2.44574">
        <ele>86.6</ele>
        <time>2025-11-16T07:56:17Z</time>
      </trkpt>
      <trkpt lat="48.38217" lon="2.44565">
        <ele>86.9</ele>
        <time>2025-11-16T07:56:19Z</time>
      </trkpt>
      <trkpt lat="48.38213" lon="2.44558">
        <ele>86.9</ele>
        <time>2025-11-16T07:56:21Z</time>
      </trkpt>
      <trkpt lat="48.38209" lon="2.44549">
        <ele>87</ele>
        <time>2025-11-16T07:56:23Z</time>
      </trkpt>
      <trkpt lat="48.38203" lon="2.44541">
        <ele>87</ele>
        <time>2025-11-16T07:56:25Z</time>
      </trkpt>
      <trkpt lat="48.38198" lon="2.44532">
        <ele>87</ele>
        <time>2025-11-16T07:56:27Z</time>
      </trkpt>
      <trkpt lat="48.38193" lon="2.44525">
        <ele>87.2</ele>
        <time>2025-11-16T07:56:29Z</time>
      </trkpt>
      <trkpt lat="48.38188" lon="2.44516">
        <ele>87.5</ele>
        <time>2025-11-16T07:56:31Z</time>
      </trkpt>
      <trkpt lat="48.38182" lon="2.44506">
        <ele>87.8</ele>
        <time>2025-11-16T07:56:33Z</time>
      </trkpt>
      <trkpt lat="48.38178" lon="2.44496">
        <ele>88</ele>
        <time>2025-11-16T07:56:35Z</time>
      </trkpt>
      <trkpt lat="48.38174" lon="2.44487">
        <ele>88.1</ele>
        <time>2025-11-16T07:56:37Z</time>
      </trkpt>
      <trkpt lat="48.38169" lon="2.44476">
        <ele>88.1</ele>
        <time>2025-11-16T07:56:39Z</time>
      </trkpt>
      <trkpt lat="48.38165" lon="2.44465">
        <ele>88</ele>
        <time>2025-11-16T07:56:41Z</time>
      </trkpt>
      <trkpt lat="48.38162" lon="2.44455">
        <ele>87.9</ele>
        <time>2025-11-16T07:56:43Z</time>
      </trkpt>
      <trkpt lat="48.38159" lon="2.44446">
        <ele>88</ele>
        <time>2025-11-16T07:56:45Z</time>
      </trkpt>
      <trkpt lat="48.38155" lon="2.44436">
        <ele>88.2</ele>
        <time>2025-11-16T07:56:47Z</time>
      </trkpt>
      <trkpt lat="48.38153" lon="2.44427">
        <ele>88.3</ele>
        <time>2025-11-16T07:56:49Z</time>
      </trkpt>
      <trkpt lat="48.38149" lon="2.44417">
        <ele>88.4</ele>
        <time>2025-11-16T07:56:51Z</time>
      </trkpt>
      <trkpt lat="48.38146" lon="2.44408">
        <ele>88.6</ele>
        <time>2025-11-16T07:56:53Z</time>
      </trkpt>
      <trkpt lat="48.38142" lon="2.44397">
        <ele>88.8</ele>
        <time>2025-11-16T07:56:55Z</time>
      </trkpt>
      <trkpt lat="48.38138" lon="2.44388">
        <ele>89</ele>
        <time>2025-11-16T07:56:57Z</time>
      </trkpt>
      <trkpt lat="48.38132" lon="2.4438">
        <ele>89.2</ele>
        <time>2025-11-16T07:56:59Z</time>
      </trkpt>
      <trkpt lat="48.38128" lon="2.44371">
        <ele>89.4</ele>
        <time>2025-11-16T07:57:01Z</time>
      </trkpt>
      <trkpt lat="48.38124" lon="2.44363">
        <ele>89.5</ele>
        <time>2025-11-16T07:57:03Z</time>
      </trkpt>
      <trkpt lat="48.38121" lon="2.44357">
        <ele>89.9</ele>
        <time>2025-11-16T07:57:05Z</time>
      </trkpt>
      <trkpt lat="48.38117" lon="2.44368">
        <ele>89.8</ele>
        <time>2025-11-16T07:57:09Z</time>
      </trkpt>
      <trkpt lat="48.38112" lon="2.44373">
        <ele>90</ele>
        <time>2025-11-16T07:57:13Z</time>
      </trkpt>
      <trkpt lat="48.38106" lon="2.44377">
        <ele>90.6</ele>
        <time>2025-11-16T07:57:19Z</time>
      </trkpt>
      <trkpt lat="48.38102" lon="2.44385">
        <ele>91</ele>
        <time>2025-11-16T07:57:23Z</time>
      </trkpt>
      <trkpt lat="48.38098" lon="2.44396">
        <ele>91.4</ele>
        <time>2025-11-16T07:57:27Z</time>
      </trkpt>
      <trkpt lat="48.38095" lon="2.44401">
        <ele>91.7</ele>
        <time>2025-11-16T07:57:33Z</time>
      </trkpt>
      <trkpt lat="48.38091" lon="2.44406">
        <ele>92.1</ele>
        <time>2025-11-16T07:58:11Z</time>
      </trkpt>
      <trkpt lat="48.38086" lon="2.44409">
        <ele>92.7</ele>
        <time>2025-11-16T07:58:15Z</time>
      </trkpt>
      <trkpt lat="48.38081" lon="2.4441">
        <ele>93.3</ele>
        <time>2025-11-16T07:58:19Z</time>
      </trkpt>
      <trkpt lat="48.38076" lon="2.44412">
        <ele>94</ele>
        <time>2025-11-16T07:58:29Z</time>
      </trkpt>
      <trkpt lat="48.3807" lon="2.44411">
        <ele>94.9</ele>
        <time>2025-11-16T07:58:37Z</time>
      </trkpt>
      <trkpt lat="48.38064" lon="2.44413">
        <ele>95.7</ele>
        <time>2025-11-16T07:58:41Z</time>
      </trkpt>
      <trkpt lat="48.38059" lon="2.44408">
        <ele>96.5</ele>
        <time>2025-11-16T07:58:45Z</time>
      </trkpt>
      <trkpt lat="48.38054" lon="2.44419">
        <ele>97.3</ele>
        <time>2025-11-16T07:58:51Z</time>
      </trkpt>
      <trkpt lat="48.38052" lon="2.44427">
        <ele>97.7</ele>
        <time>2025-11-16T07:58:57Z</time>
      </trkpt>
      <trkpt lat="48.38048" lon="2.44432">
        <ele>98.4</ele>
        <time>2025-11-16T07:59:13Z</time>
      </trkpt>
      <trkpt lat="48.38048" lon="2.4444">
        <ele>98.4</ele>
        <time>2025-11-16T07:59:23Z</time>
      </trkpt>
      <trkpt lat="48.38048" lon="2.44448">
        <ele>98.5</ele>
        <time>2025-11-16T07:59:33Z</time>
      </trkpt>
      <trkpt lat="48.38047" lon="2.44455">
        <ele>99</ele>
        <time>2025-11-16T07:59:41Z</time>
      </trkpt>
      <trkpt lat="48.38046" lon="2.44465">
        <ele>99.4</ele>
        <time>2025-11-16T07:59:49Z</time>
      </trkpt>
      <trkpt lat="48.38045" lon="2.44472">
        <ele>99.9</ele>
        <time>2025-11-16T07:59:57Z</time>
      </trkpt>
      <trkpt lat="48.38042" lon="2.44478">
        <ele>100.8</ele>
        <time>2025-11-16T08:00:05Z</time>
      </trkpt>
      <trkpt lat="48.38039" lon="2.44484">
        <ele>101.6</ele>
        <time>2025-11-16T08:00:11Z</time>
      </trkpt>
      <trkpt lat="48.38036" lon="2.44492">
        <ele>102.7</ele>
        <time>2025-11-16T08:00:23Z</time>
      </trkpt>
      <trkpt lat="48.38031" lon="2.44499">
        <ele>104.4</ele>
        <time>2025-11-16T08:00:29Z</time>
      </trkpt>
      <trkpt lat="48.38028" lon="2.4451">
        <ele>105.6</ele>
        <time>2025-11-16T08:00:33Z</time>
      </trkpt>
      <trkpt lat="48.38025" lon="2.44518">
        <ele>107</ele>
        <time>2025-11-16T08:00:37Z</time>
      </trkpt>
      <trkpt lat="48.38022" lon="2.44527">
        <ele>108.2</ele>
        <time>2025-11-16T08:00:41Z</time>
      </trkpt>
      <trkpt lat="48.38018" lon="2.44532">
        <ele>109.3</ele>
        <time>2025-11-16T08:00:45Z</time>
      </trkpt>
      <trkpt lat="48.38012" lon="2.44532">
        <ele>110.7</ele>
        <time>2025-11-16T08:00:51Z</time>
      </trkpt>
      <trkpt lat="48.38006" lon="2.44534">
        <ele>111.9</ele>
        <time>2025-11-16T08:00:57Z</time>
      </trkpt>
      <trkpt lat="48.38002" lon="2.4454">
        <ele>113</ele>
        <time>2025-11-16T08:01:01Z</time>
      </trkpt>
      <trkpt lat="48.37996" lon="2.44544">
        <ele>114.1</ele>
        <time>2025-11-16T08:01:05Z</time>
      </trkpt>
      <trkpt lat="48.37993" lon="2.4455">
        <ele>114.6</ele>
        <time>2025-11-16T08:01:07Z</time>
      </trkpt>
      <trkpt lat="48.37988" lon="2.44559">
        <ele>115.3</ele>
        <time>2025-11-16T08:01:11Z</time>
      </trkpt>
      <trkpt lat="48.37988" lon="2.44572">
        <ele>115.3</ele>
        <time>2025-11-16T08:01:15Z</time>
      </trkpt>
      <trkpt lat="48.37987" lon="2.44579">
        <ele>115.4</ele>
        <time>2025-11-16T08:01:17Z</time>
      </trkpt>
      <trkpt lat="48.37985" lon="2.44586">
        <ele>115.6</ele>
        <time>2025-11-16T08:01:19Z</time>
      </trkpt>
      <trkpt lat="48.37983" lon="2.44592">
        <ele>115.9</ele>
        <time>2025-11-16T08:01:21Z</time>
      </trkpt>
      <trkpt lat="48.37982" lon="2.44601">
        <ele>116</ele>
        <time>2025-11-16T08:01:23Z</time>
      </trkpt>
      <trkpt lat="48.3798" lon="2.4461">
        <ele>116.2</ele>
        <time>2025-11-16T08:01:25Z</time>
      </trkpt>
      <trkpt lat="48.37978" lon="2.4462">
        <ele>116.1</ele>
        <time>2025-11-16T08:01:27Z</time>
      </trkpt>
      <trkpt lat="48.37976" lon="2.44628">
        <ele>116</ele>
        <time>2025-11-16T08:01:29Z</time>
      </trkpt>
      <trkpt lat="48.37976" lon="2.44638">
        <ele>115.6</ele>
        <time>2025-11-16T08:01:31Z</time>
      </trkpt>
      <trkpt lat="48.37974" lon="2.44648">
        <ele>115.8</ele>
        <time>2025-11-16T08:01:33Z</time>
      </trkpt>
      <trkpt lat="48.37976" lon="2.44658">
        <ele>115.6</ele>
        <time>2025-11-16T08:01:35Z</time>
      </trkpt>
      <trkpt lat="48.37975" lon="2.44672">
        <ele>115.5</ele>
        <time>2025-11-16T08:01:37Z</time>
      </trkpt>
      <trkpt lat="48.37973" lon="2.44688">
        <ele>115.8</ele>
        <time>2025-11-16T08:01:39Z</time>
      </trkpt>
      <trkpt lat="48.37975" lon="2.44701">
        <ele>115.5</ele>
        <time>2025-11-16T08:01:41Z</time>
      </trkpt>
      <trkpt lat="48.37981" lon="2.4471">
        <ele>114.7</ele>
        <time>2025-11-16T08:01:43Z</time>
      </trkpt>
      <trkpt lat="48.37986" lon="2.44719">
        <ele>114</ele>
        <time>2025-11-16T08:01:45Z</time>
      </trkpt>
      <trkpt lat="48.37991" lon="2.44724">
        <ele>113.3</ele>
        <time>2025-11-16T08:01:47Z</time>
      </trkpt>
      <trkpt lat="48.37999" lon="2.44729">
        <ele>112.6</ele>
        <time>2025-11-16T08:01:51Z</time>
      </trkpt>
      <trkpt lat="48.38005" lon="2.44732">
        <ele>112.1</ele>
        <time>2025-11-16T08:01:53Z</time>
      </trkpt>
      <trkpt lat="48.38008" lon="2.44737">
        <ele>112.1</ele>
        <time>2025-11-16T08:01:55Z</time>
      </trkpt>
      <trkpt lat="48.38013" lon="2.44737">
        <ele>111.4</ele>
        <time>2025-11-16T08:01:57Z</time>
      </trkpt>
      <trkpt lat="48.38019" lon="2.44738">
        <ele>110.8</ele>
        <time>2025-11-16T08:01:59Z</time>
      </trkpt>
      <trkpt lat="48.38024" lon="2.4474">
        <ele>110.4</ele>
        <time>2025-11-16T08:02:01Z</time>
      </trkpt>
      <trkpt lat="48.38029" lon="2.44744">
        <ele>110.2</ele>
        <time>2025-11-16T08:02:03Z</time>
      </trkpt>
      <trkpt lat="48.38035" lon="2.4475">
        <ele>110.3</ele>
        <time>2025-11-16T08:02:05Z</time>
      </trkpt>
      <trkpt lat="48.38037" lon="2.44757">
        <ele>110.7</ele>
        <time>2025-11-16T08:02:09Z</time>
      </trkpt>
      <trkpt lat="48.3804" lon="2.44765">
        <ele>111.3</ele>
        <time>2025-11-16T08:02:13Z</time>
      </trkpt>
      <trkpt lat="48.38042" lon="2.44774">
        <ele>112</ele>
        <time>2025-11-16T08:02:17Z</time>
      </trkpt>
      <trkpt lat="48.38047" lon="2.44781">
        <ele>112.1</ele>
        <time>2025-11-16T08:02:21Z</time>
      </trkpt>
      <trkpt lat="48.38054" lon="2.44781">
        <ele>111.4</ele>
        <time>2025-11-16T08:02:25Z</time>
      </trkpt>
      <trkpt lat="48.38058" lon="2.44791">
        <ele>111.5</ele>
        <time>2025-11-16T08:02:31Z</time>
      </trkpt>
      <trkpt lat="48.38061" lon="2.44798">
        <ele>111.3</ele>
        <time>2025-11-16T08:02:33Z</time>
      </trkpt>
      <trkpt lat="48.38064" lon="2.44807">
        <ele>111.3</ele>
        <time>2025-11-16T08:02:35Z</time>
      </trkpt>
      <trkpt lat="48.38066" lon="2.44821">
        <ele>111.7</ele>
        <time>2025-11-16T08:02:39Z</time>
      </trkpt>
      <trkpt lat="48.38069" lon="2.44829">
        <ele>111.8</ele>
        <time>2025-11-16T08:02:41Z</time>
      </trkpt>
      <trkpt lat="48.38071" lon="2.44836">
        <ele>111.9</ele>
        <time>2025-11-16T08:02:43Z</time>
      </trkpt>
      <trkpt lat="48.38073" lon="2.44854">
        <ele>112.7</ele>
        <time>2025-11-16T08:02:47Z</time>
      </trkpt>
      <trkpt lat="48.38073" lon="2.44863">
        <ele>113.2</ele>
        <time>2025-11-16T08:02:49Z</time>
      </trkpt>
      <trkpt lat="48.38073" lon="2.44874">
        <ele>113.9</ele>
        <time>2025-11-16T08:02:53Z</time>
      </trkpt>
      <trkpt lat="48.38075" lon="2.44881">
        <ele>114.1</ele>
        <time>2025-11-16T08:02:55Z</time>
      </trkpt>
      <trkpt lat="48.3808" lon="2.44892">
        <ele>114.4</ele>
        <time>2025-11-16T08:02:59Z</time>
      </trkpt>
      <trkpt lat="48.38078" lon="2.44902">
        <ele>115.2</ele>
        <time>2025-11-16T08:03:03Z</time>
      </trkpt>
      <trkpt lat="48.38079" lon="2.4491">
        <ele>115.7</ele>
        <time>2025-11-16T08:03:07Z</time>
      </trkpt>
      <trkpt lat="48.38083" lon="2.44918">
        <ele>116.1</ele>
        <time>2025-11-16T08:03:11Z</time>
      </trkpt>
      <trkpt lat="48.3809" lon="2.44916">
        <ele>116.2</ele>
        <time>2025-11-16T08:03:15Z</time>
      </trkpt>
      <trkpt lat="48.38099" lon="2.44915">
        <ele>116.4</ele>
        <time>2025-11-16T08:03:19Z</time>
      </trkpt>
      <trkpt lat="48.38103" lon="2.44913">
        <ele>116.4</ele>
        <time>2025-11-16T08:03:21Z</time>
      </trkpt>
      <trkpt lat="48.38109" lon="2.4491">
        <ele>116.3</ele>
        <time>2025-11-16T08:03:23Z</time>
      </trkpt>
      <trkpt lat="48.38115" lon="2.44905">
        <ele>115.8</ele>
        <time>2025-11-16T08:03:25Z</time>
      </trkpt>
      <trkpt lat="48.3812" lon="2.449">
        <ele>115.4</ele>
        <time>2025-11-16T08:03:27Z</time>
      </trkpt>
      <trkpt lat="48.38125" lon="2.44903">
        <ele>115.7</ele>
        <time>2025-11-16T08:03:29Z</time>
      </trkpt>
      <trkpt lat="48.38127" lon="2.44912">
        <ele>116.6</ele>
        <time>2025-11-16T08:03:33Z</time>
      </trkpt>
      <trkpt lat="48.3813" lon="2.4492">
        <ele>117.2</ele>
        <time>2025-11-16T08:03:37Z</time>
      </trkpt>
      <trkpt lat="48.38133" lon="2.4493">
        <ele>117.8</ele>
        <time>2025-11-16T08:03:41Z</time>
      </trkpt>
      <trkpt lat="48.38138" lon="2.44939">
        <ele>118.6</ele>
        <time>2025-11-16T08:03:45Z</time>
      </trkpt>
      <trkpt lat="48.38143" lon="2.44944">
        <ele>118.8</ele>
        <time>2025-11-16T08:03:47Z</time>
      </trkpt>
      <trkpt lat="48.38142" lon="2.44957">
        <ele>119.3</ele>
        <time>2025-11-16T08:03:51Z</time>
      </trkpt>
      <trkpt lat="48.38142" lon="2.44965">
        <ele>119.6</ele>
        <time>2025-11-16T08:03:53Z</time>
      </trkpt>
      <trkpt lat="48.38144" lon="2.44973">
        <ele>119.9</ele>
        <time>2025-11-16T08:03:55Z</time>
      </trkpt>
      <trkpt lat="48.38148" lon="2.44977">
        <ele>119.8</ele>
        <time>2025-11-16T08:03:57Z</time>
      </trkpt>
      <trkpt lat="48.38154" lon="2.4498">
        <ele>119.7</ele>
        <time>2025-11-16T08:03:59Z</time>
      </trkpt>
      <trkpt lat="48.38155" lon="2.44987">
        <ele>119.9</ele>
        <time>2025-11-16T08:04:01Z</time>
      </trkpt>
      <trkpt lat="48.38153" lon="2.44994">
        <ele>120.3</ele>
        <time>2025-11-16T08:04:03Z</time>
      </trkpt>
      <trkpt lat="48.3815" lon="2.45">
        <ele>120.6</ele>
        <time>2025-11-16T08:04:05Z</time>
      </trkpt>
      <trkpt lat="48.38147" lon="2.45009">
        <ele>120.8</ele>
        <time>2025-11-16T08:04:07Z</time>
      </trkpt>
      <trkpt lat="48.38145" lon="2.45018">
        <ele>120.9</ele>
        <time>2025-11-16T08:04:09Z</time>
      </trkpt>
      <trkpt lat="48.38141" lon="2.45025">
        <ele>121</ele>
        <time>2025-11-16T08:04:11Z</time>
      </trkpt>
      <trkpt lat="48.38137" lon="2.45028">
        <ele>121</ele>
        <time>2025-11-16T08:04:13Z</time>
      </trkpt>
      <trkpt lat="48.38135" lon="2.45035">
        <ele>121</ele>
        <time>2025-11-16T08:04:15Z</time>
      </trkpt>
      <trkpt lat="48.38133" lon="2.45044">
        <ele>121</ele>
        <time>2025-11-16T08:04:17Z</time>
      </trkpt>
      <trkpt lat="48.38127" lon="2.45058">
        <ele>121</ele>
        <time>2025-11-16T08:04:21Z</time>
      </trkpt>
      <trkpt lat="48.38127" lon="2.45065">
        <ele>121</ele>
        <time>2025-11-16T08:04:23Z</time>
      </trkpt>
      <trkpt lat="48.38131" lon="2.45075">
        <ele>121</ele>
        <time>2025-11-16T08:04:25Z</time>
      </trkpt>
      <trkpt lat="48.38134" lon="2.45082">
        <ele>121</ele>
        <time>2025-11-16T08:04:27Z</time>
      </trkpt>
      <trkpt lat="48.38137" lon="2.45089">
        <ele>121</ele>
        <time>2025-11-16T08:04:29Z</time>
      </trkpt>
      <trkpt lat="48.3814" lon="2.45096">
        <ele>121</ele>
        <time>2025-11-16T08:04:31Z</time>
      </trkpt>
      <trkpt lat="48.38142" lon="2.45105">
        <ele>120.9</ele>
        <time>2025-11-16T08:04:33Z</time>
      </trkpt>
      <trkpt lat="48.38145" lon="2.45114">
        <ele>120.8</ele>
        <time>2025-11-16T08:04:35Z</time>
      </trkpt>
      <trkpt lat="48.38147" lon="2.45124">
        <ele>120.7</ele>
        <time>2025-11-16T08:04:37Z</time>
      </trkpt>
      <trkpt lat="48.38149" lon="2.45133">
        <ele>120.6</ele>
        <time>2025-11-16T08:04:39Z</time>
      </trkpt>
      <trkpt lat="48.3815" lon="2.45142">
        <ele>120.6</ele>
        <time>2025-11-16T08:04:41Z</time>
      </trkpt>
      <trkpt lat="48.38153" lon="2.45151">
        <ele>120.5</ele>
        <time>2025-11-16T08:04:43Z</time>
      </trkpt>
      <trkpt lat="48.38154" lon="2.4516">
        <ele>120.5</ele>
        <time>2025-11-16T08:04:45Z</time>
      </trkpt>
      <trkpt lat="48.38149" lon="2.45162">
        <ele>120.6</ele>
        <time>2025-11-16T08:04:49Z</time>
      </trkpt>
      <trkpt lat="48.38144" lon="2.45159">
        <ele>120.8</ele>
        <time>2025-11-16T08:04:51Z</time>
      </trkpt>
      <trkpt lat="48.38138" lon="2.45156">
        <ele>121</ele>
        <time>2025-11-16T08:04:53Z</time>
      </trkpt>
      <trkpt lat="48.38131" lon="2.45153">
        <ele>121</ele>
        <time>2025-11-16T08:04:55Z</time>
      </trkpt>
      <trkpt lat="48.38124" lon="2.45151">
        <ele>121</ele>
        <time>2025-11-16T08:04:57Z</time>
      </trkpt>
      <trkpt lat="48.38117" lon="2.45149">
        <ele>121</ele>
        <time>2025-11-16T08:04:59Z</time>
      </trkpt>
      <trkpt lat="48.38106" lon="2.45149">
        <ele>121</ele>
        <time>2025-11-16T08:05:02Z</time>
      </trkpt>
      <trkpt lat="48.38096" lon="2.45147">
        <ele>121</ele>
        <time>2025-11-16T08:05:05Z</time>
      </trkpt>
      <trkpt lat="48.38088" lon="2.45147">
        <ele>121</ele>
        <time>2025-11-16T08:05:07Z</time>
      </trkpt>
      <trkpt lat="48.38081" lon="2.45147">
        <ele>121.1</ele>
        <time>2025-11-16T08:05:09Z</time>
      </trkpt>
      <trkpt lat="48.38074" lon="2.45148">
        <ele>121.3</ele>
        <time>2025-11-16T08:05:11Z</time>
      </trkpt>
      <trkpt lat="48.38067" lon="2.45148">
        <ele>121.6</ele>
        <time>2025-11-16T08:05:13Z</time>
      </trkpt>
      <trkpt lat="48.38059" lon="2.45149">
        <ele>121.9</ele>
        <time>2025-11-16T08:05:15Z</time>
      </trkpt>
      <trkpt lat="48.38052" lon="2.45149">
        <ele>122</ele>
        <time>2025-11-16T08:05:17Z</time>
      </trkpt>
      <trkpt lat="48.38045" lon="2.4515">
        <ele>122</ele>
        <time>2025-11-16T08:05:19Z</time>
      </trkpt>
      <trkpt lat="48.38038" lon="2.45151">
        <ele>122</ele>
        <time>2025-11-16T08:05:21Z</time>
      </trkpt>
      <trkpt lat="48.38031" lon="2.45152">
        <ele>122</ele>
        <time>2025-11-16T08:05:23Z</time>
      </trkpt>
      <trkpt lat="48.38024" lon="2.45153">
        <ele>122</ele>
        <time>2025-11-16T08:05:25Z</time>
      </trkpt>
      <trkpt lat="48.38017" lon="2.45153">
        <ele>122</ele>
        <time>2025-11-16T08:05:27Z</time>
      </trkpt>
      <trkpt lat="48.3801" lon="2.45153">
        <ele>122</ele>
        <time>2025-11-16T08:05:29Z</time>
      </trkpt>
      <trkpt lat="48.38003" lon="2.45152">
        <ele>122</ele>
        <time>2025-11-16T08:05:31Z</time>
      </trkpt>
      <trkpt lat="48.37996" lon="2.45152">
        <ele>122.2</ele>
        <time>2025-11-16T08:05:33Z</time>
      </trkpt>
      <trkpt lat="48.37988" lon="2.4515">
        <ele>122.4</ele>
        <time>2025-11-16T08:05:35Z</time>
      </trkpt>
      <trkpt lat="48.37981" lon="2.45147">
        <ele>122.7</ele>
        <time>2025-11-16T08:05:37Z</time>
      </trkpt>
      <trkpt lat="48.37974" lon="2.45144">
        <ele>122.9</ele>
        <time>2025-11-16T08:05:39Z</time>
      </trkpt>
      <trkpt lat="48.37966" lon="2.45141">
        <ele>123</ele>
        <time>2025-11-16T08:05:41Z</time>
      </trkpt>
      <trkpt lat="48.37959" lon="2.45137">
        <ele>122.9</ele>
        <time>2025-11-16T08:05:43Z</time>
      </trkpt>
      <trkpt lat="48.37952" lon="2.45132">
        <ele>122.7</ele>
        <time>2025-11-16T08:05:45Z</time>
      </trkpt>
      <trkpt lat="48.37944" lon="2.45128">
        <ele>122.6</ele>
        <time>2025-11-16T08:05:47Z</time>
      </trkpt>
      <trkpt lat="48.37937" lon="2.45124">
        <ele>122.6</ele>
        <time>2025-11-16T08:05:49Z</time>
      </trkpt>
      <trkpt lat="48.3793" lon="2.45121">
        <ele>122.7</ele>
        <time>2025-11-16T08:05:51Z</time>
      </trkpt>
      <trkpt lat="48.37922" lon="2.45118">
        <ele>122.8</ele>
        <time>2025-11-16T08:05:53Z</time>
      </trkpt>
      <trkpt lat="48.37915" lon="2.45115">
        <ele>123.1</ele>
        <time>2025-11-16T08:05:55Z</time>
      </trkpt>
      <trkpt lat="48.37908" lon="2.45112">
        <ele>123.3</ele>
        <time>2025-11-16T08:05:57Z</time>
      </trkpt>
      <trkpt lat="48.37901" lon="2.45108">
        <ele>123.5</ele>
        <time>2025-11-16T08:05:59Z</time>
      </trkpt>
      <trkpt lat="48.37895" lon="2.45106">
        <ele>123.6</ele>
        <time>2025-11-16T08:06:01Z</time>
      </trkpt>
      <trkpt lat="48.37888" lon="2.45103">
        <ele>123.7</ele>
        <time>2025-11-16T08:06:03Z</time>
      </trkpt>
      <trkpt lat="48.37881" lon="2.451">
        <ele>123.7</ele>
        <time>2025-11-16T08:06:05Z</time>
      </trkpt>
      <trkpt lat="48.37875" lon="2.45097">
        <ele>123.7</ele>
        <time>2025-11-16T08:06:07Z</time>
      </trkpt>
      <trkpt lat="48.37869" lon="2.45093">
        <ele>123.8</ele>
        <time>2025-11-16T08:06:09Z</time>
      </trkpt>
      <trkpt lat="48.37862" lon="2.45091">
        <ele>124</ele>
        <time>2025-11-16T08:06:11Z</time>
      </trkpt>
      <trkpt lat="48.37856" lon="2.45088">
        <ele>124.2</ele>
        <time>2025-11-16T08:06:13Z</time>
      </trkpt>
      <trkpt lat="48.37851" lon="2.45084">
        <ele>124.4</ele>
        <time>2025-11-16T08:06:15Z</time>
      </trkpt>
      <trkpt lat="48.37845" lon="2.4508">
        <ele>124.5</ele>
        <time>2025-11-16T08:06:17Z</time>
      </trkpt>
      <trkpt lat="48.37838" lon="2.45077">
        <ele>124.6</ele>
        <time>2025-11-16T08:06:19Z</time>
      </trkpt>
      <trkpt lat="48.37832" lon="2.45073">
        <ele>124.7</ele>
        <time>2025-11-16T08:06:21Z</time>
      </trkpt>
      <trkpt lat="48.37826" lon="2.4507">
        <ele>124.6</ele>
        <time>2025-11-16T08:06:23Z</time>
      </trkpt>
      <trkpt lat="48.3782" lon="2.45065">
        <ele>124.7</ele>
        <time>2025-11-16T08:06:25Z</time>
      </trkpt>
      <trkpt lat="48.37814" lon="2.45061">
        <ele>124.8</ele>
        <time>2025-11-16T08:06:27Z</time>
      </trkpt>
      <trkpt lat="48.37807" lon="2.45056">
        <ele>124.9</ele>
        <time>2025-11-16T08:06:29Z</time>
      </trkpt>
      <trkpt lat="48.37801" lon="2.45052">
        <ele>125</ele>
        <time>2025-11-16T08:06:31Z</time>
      </trkpt>
      <trkpt lat="48.37796" lon="2.45046">
        <ele>125</ele>
        <time>2025-11-16T08:06:33Z</time>
      </trkpt>
      <trkpt lat="48.3779" lon="2.45041">
        <ele>125</ele>
        <time>2025-11-16T08:06:35Z</time>
      </trkpt>
      <trkpt lat="48.37783" lon="2.45037">
        <ele>125</ele>
        <time>2025-11-16T08:06:37Z</time>
      </trkpt>
      <trkpt lat="48.37775" lon="2.45032">
        <ele>125.1</ele>
        <time>2025-11-16T08:06:39Z</time>
      </trkpt>
      <trkpt lat="48.37768" lon="2.45026">
        <ele>125.4</ele>
        <time>2025-11-16T08:06:41Z</time>
      </trkpt>
      <trkpt lat="48.37759" lon="2.4502">
        <ele>125.7</ele>
        <time>2025-11-16T08:06:43Z</time>
      </trkpt>
      <trkpt lat="48.37751" lon="2.45012">
        <ele>126</ele>
        <time>2025-11-16T08:06:45Z</time>
      </trkpt>
      <trkpt lat="48.37744" lon="2.45004">
        <ele>126</ele>
        <time>2025-11-16T08:06:47Z</time>
      </trkpt>
      <trkpt lat="48.37737" lon="2.44997">
        <ele>125.9</ele>
        <time>2025-11-16T08:06:49Z</time>
      </trkpt>
      <trkpt lat="48.37729" lon="2.44989">
        <ele>125.9</ele>
        <time>2025-11-16T08:06:51Z</time>
      </trkpt>
      <trkpt lat="48.37722" lon="2.44982">
        <ele>126</ele>
        <time>2025-11-16T08:06:53Z</time>
      </trkpt>
      <trkpt lat="48.37715" lon="2.44974">
        <ele>126</ele>
        <time>2025-11-16T08:06:55Z</time>
      </trkpt>
      <trkpt lat="48.37708" lon="2.44967">
        <ele>125.9</ele>
        <time>2025-11-16T08:06:57Z</time>
      </trkpt>
      <trkpt lat="48.37701" lon="2.4496">
        <ele>125.9</ele>
        <time>2025-11-16T08:06:59Z</time>
      </trkpt>
      <trkpt lat="48.37693" lon="2.44952">
        <ele>126</ele>
        <time>2025-11-16T08:07:01Z</time>
      </trkpt>
      <trkpt lat="48.37686" lon="2.44944">
        <ele>126</ele>
        <time>2025-11-16T08:07:03Z</time>
      </trkpt>
      <trkpt lat="48.37678" lon="2.44937">
        <ele>126</ele>
        <time>2025-11-16T08:07:05Z</time>
      </trkpt>
      <trkpt lat="48.3767" lon="2.44928">
        <ele>126</ele>
        <time>2025-11-16T08:07:07Z</time>
      </trkpt>
      <trkpt lat="48.37662" lon="2.44921">
        <ele>125.8</ele>
        <time>2025-11-16T08:07:09Z</time>
      </trkpt>
      <trkpt lat="48.37655" lon="2.44912">
        <ele>125.6</ele>
        <time>2025-11-16T08:07:11Z</time>
      </trkpt>
      <trkpt lat="48.37647" lon="2.44905">
        <ele>125.6</ele>
        <time>2025-11-16T08:07:13Z</time>
      </trkpt>
      <trkpt lat="48.37639" lon="2.44898">
        <ele>125.7</ele>
        <time>2025-11-16T08:07:15Z</time>
      </trkpt>
      <trkpt lat="48.37632" lon="2.4489">
        <ele>125.7</ele>
        <time>2025-11-16T08:07:17Z</time>
      </trkpt>
      <trkpt lat="48.37625" lon="2.44884">
        <ele>125.5</ele>
        <time>2025-11-16T08:07:19Z</time>
      </trkpt>
      <trkpt lat="48.37617" lon="2.44876">
        <ele>125.2</ele>
        <time>2025-11-16T08:07:21Z</time>
      </trkpt>
      <trkpt lat="48.3761" lon="2.44868">
        <ele>125</ele>
        <time>2025-11-16T08:07:23Z</time>
      </trkpt>
      <trkpt lat="48.37602" lon="2.44862">
        <ele>125</ele>
        <time>2025-11-16T08:07:25Z</time>
      </trkpt>
      <trkpt lat="48.37595" lon="2.44855">
        <ele>125</ele>
        <time>2025-11-16T08:07:27Z</time>
      </trkpt>
      <trkpt lat="48.37588" lon="2.44848">
        <ele>125</ele>
        <time>2025-11-16T08:07:29Z</time>
      </trkpt>
      <trkpt lat="48.3758" lon="2.44846">
        <ele>124.9</ele>
        <time>2025-11-16T08:07:31Z</time>
      </trkpt>
      <trkpt lat="48.37573" lon="2.44852">
        <ele>124.6</ele>
        <time>2025-11-16T08:07:33Z</time>
      </trkpt>
      <trkpt lat="48.3757" lon="2.44863">
        <ele>124.5</ele>
        <time>2025-11-16T08:07:35Z</time>
      </trkpt>
      <trkpt lat="48.37567" lon="2.44877">
        <ele>124.4</ele>
        <time>2025-11-16T08:07:37Z</time>
      </trkpt>
      <trkpt lat="48.37564" lon="2.44891">
        <ele>124.3</ele>
        <time>2025-11-16T08:07:39Z</time>
      </trkpt>
      <trkpt lat="48.3756" lon="2.44906">
        <ele>124.2</ele>
        <time>2025-11-16T08:07:41Z</time>
      </trkpt>
      <trkpt lat="48.37556" lon="2.44921">
        <ele>124</ele>
        <time>2025-11-16T08:07:43Z</time>
      </trkpt>
      <trkpt lat="48.37552" lon="2.44937">
        <ele>123.9</ele>
        <time>2025-11-16T08:07:45Z</time>
      </trkpt>
      <trkpt lat="48.37547" lon="2.44955">
        <ele>123.3</ele>
        <time>2025-11-16T08:07:47Z</time>
      </trkpt>
      <trkpt lat="48.37542" lon="2.44972">
        <ele>122.5</ele>
        <time>2025-11-16T08:07:49Z</time>
      </trkpt>
      <trkpt lat="48.37537" lon="2.44989">
        <ele>122.3</ele>
        <time>2025-11-16T08:07:51Z</time>
      </trkpt>
      <trkpt lat="48.37532" lon="2.45007">
        <ele>121.9</ele>
        <time>2025-11-16T08:07:53Z</time>
      </trkpt>
      <trkpt lat="48.37528" lon="2.45025">
        <ele>121.1</ele>
        <time>2025-11-16T08:07:55Z</time>
      </trkpt>
      <trkpt lat="48.37523" lon="2.45044">
        <ele>120.9</ele>
        <time>2025-11-16T08:07:57Z</time>
      </trkpt>
      <trkpt lat="48.37518" lon="2.45063">
        <ele>120.4</ele>
        <time>2025-11-16T08:07:59Z</time>
      </trkpt>
      <trkpt lat="48.37514" lon="2.45083">
        <ele>119.5</ele>
        <time>2025-11-16T08:08:01Z</time>
      </trkpt>
      <trkpt lat="48.3751" lon="2.45105">
        <ele>119.1</ele>
        <time>2025-11-16T08:08:03Z</time>
      </trkpt>
      <trkpt lat="48.37506" lon="2.45126">
        <ele>118</ele>
        <time>2025-11-16T08:08:05Z</time>
      </trkpt>
      <trkpt lat="48.37504" lon="2.45143">
        <ele>117</ele>
        <time>2025-11-16T08:08:07Z</time>
      </trkpt>
      <trkpt lat="48.37506" lon="2.45157">
        <ele>116.7</ele>
        <time>2025-11-16T08:08:09Z</time>
      </trkpt>
      <trkpt lat="48.37514" lon="2.45167">
        <ele>117</ele>
        <time>2025-11-16T08:08:11Z</time>
      </trkpt>
      <trkpt lat="48.37523" lon="2.45174">
        <ele>117.4</ele>
        <time>2025-11-16T08:08:13Z</time>
      </trkpt>
      <trkpt lat="48.37532" lon="2.4518">
        <ele>117.6</ele>
        <time>2025-11-16T08:08:15Z</time>
      </trkpt>
      <trkpt lat="48.37541" lon="2.45186">
        <ele>117.8</ele>
        <time>2025-11-16T08:08:17Z</time>
      </trkpt>
      <trkpt lat="48.37549" lon="2.45193">
        <ele>117.8</ele>
        <time>2025-11-16T08:08:19Z</time>
      </trkpt>
      <trkpt lat="48.37559" lon="2.452">
        <ele>117.9</ele>
        <time>2025-11-16T08:08:21Z</time>
      </trkpt>
      <trkpt lat="48.37568" lon="2.45207">
        <ele>118</ele>
        <time>2025-11-16T08:08:23Z</time>
      </trkpt>
      <trkpt lat="48.37578" lon="2.45214">
        <ele>118.1</ele>
        <time>2025-11-16T08:08:25Z</time>
      </trkpt>
      <trkpt lat="48.37587" lon="2.45221">
        <ele>118.2</ele>
        <time>2025-11-16T08:08:27Z</time>
      </trkpt>
      <trkpt lat="48.37596" lon="2.45229">
        <ele>118.2</ele>
        <time>2025-11-16T08:08:29Z</time>
      </trkpt>
      <trkpt lat="48.37604" lon="2.45238">
        <ele>118.2</ele>
        <time>2025-11-16T08:08:31Z</time>
      </trkpt>
      <trkpt lat="48.37613" lon="2.45247">
        <ele>118.1</ele>
        <time>2025-11-16T08:08:33Z</time>
      </trkpt>
      <trkpt lat="48.3762" lon="2.45257">
        <ele>117.7</ele>
        <time>2025-11-16T08:08:35Z</time>
      </trkpt>
      <trkpt lat="48.37627" lon="2.45268">
        <ele>117.5</ele>
        <time>2025-11-16T08:08:37Z</time>
      </trkpt>
      <trkpt lat="48.37633" lon="2.45279">
        <ele>117.5</ele>
        <time>2025-11-16T08:08:39Z</time>
      </trkpt>
      <trkpt lat="48.37639" lon="2.45291">
        <ele>117.5</ele>
        <time>2025-11-16T08:08:41Z</time>
      </trkpt>
      <trkpt lat="48.37645" lon="2.45302">
        <ele>117.3</ele>
        <time>2025-11-16T08:08:43Z</time>
      </trkpt>
      <trkpt lat="48.37652" lon="2.45319">
        <ele>117.5</ele>
        <time>2025-11-16T08:08:46Z</time>
      </trkpt>
      <trkpt lat="48.37657" lon="2.45331">
        <ele>117.7</ele>
        <time>2025-11-16T08:08:48Z</time>
      </trkpt>
      <trkpt lat="48.37663" lon="2.45341">
        <ele>117.8</ele>
        <time>2025-11-16T08:08:50Z</time>
      </trkpt>
      <trkpt lat="48.37667" lon="2.45351">
        <ele>118</ele>
        <time>2025-11-16T08:08:52Z</time>
      </trkpt>
      <trkpt lat="48.37674" lon="2.45361">
        <ele>118.3</ele>
        <time>2025-11-16T08:08:54Z</time>
      </trkpt>
      <trkpt lat="48.37682" lon="2.45369">
        <ele>118.2</ele>
        <time>2025-11-16T08:08:56Z</time>
      </trkpt>
      <trkpt lat="48.37691" lon="2.45376">
        <ele>118.3</ele>
        <time>2025-11-16T08:08:58Z</time>
      </trkpt>
      <trkpt lat="48.377" lon="2.4538">
        <ele>118.4</ele>
        <time>2025-11-16T08:09:00Z</time>
      </trkpt>
      <trkpt lat="48.37709" lon="2.45384">
        <ele>118.6</ele>
        <time>2025-11-16T08:09:02Z</time>
      </trkpt>
      <trkpt lat="48.37719" lon="2.45387">
        <ele>118.9</ele>
        <time>2025-11-16T08:09:04Z</time>
      </trkpt>
      <trkpt lat="48.37728" lon="2.45389">
        <ele>119</ele>
        <time>2025-11-16T08:09:06Z</time>
      </trkpt>
      <trkpt lat="48.37737" lon="2.45391">
        <ele>119</ele>
        <time>2025-11-16T08:09:08Z</time>
      </trkpt>
      <trkpt lat="48.37746" lon="2.45394">
        <ele>119</ele>
        <time>2025-11-16T08:09:10Z</time>
      </trkpt>
      <trkpt lat="48.37756" lon="2.45397">
        <ele>119.1</ele>
        <time>2025-11-16T08:09:12Z</time>
      </trkpt>
      <trkpt lat="48.37765" lon="2.454">
        <ele>119.3</ele>
        <time>2025-11-16T08:09:14Z</time>
      </trkpt>
      <trkpt lat="48.37774" lon="2.45404">
        <ele>119.4</ele>
        <time>2025-11-16T08:09:16Z</time>
      </trkpt>
      <trkpt lat="48.37782" lon="2.4541">
        <ele>119.4</ele>
        <time>2025-11-16T08:09:18Z</time>
      </trkpt>
      <trkpt lat="48.3779" lon="2.45416">
        <ele>119.5</ele>
        <time>2025-11-16T08:09:20Z</time>
      </trkpt>
      <trkpt lat="48.37798" lon="2.45424">
        <ele>119.5</ele>
        <time>2025-11-16T08:09:22Z</time>
      </trkpt>
      <trkpt lat="48.37806" lon="2.45432">
        <ele>119.4</ele>
        <time>2025-11-16T08:09:24Z</time>
      </trkpt>
      <trkpt lat="48.37814" lon="2.45441">
        <ele>119.4</ele>
        <time>2025-11-16T08:09:26Z</time>
      </trkpt>
      <trkpt lat="48.37822" lon="2.4545">
        <ele>119.4</ele>
        <time>2025-11-16T08:09:28Z</time>
      </trkpt>
      <trkpt lat="48.3783" lon="2.45459">
        <ele>119.4</ele>
        <time>2025-11-16T08:09:30Z</time>
      </trkpt>
      <trkpt lat="48.37836" lon="2.45468">
        <ele>119.2</ele>
        <time>2025-11-16T08:09:32Z</time>
      </trkpt>
      <trkpt lat="48.37837" lon="2.45476">
        <ele>119</ele>
        <time>2025-11-16T08:09:34Z</time>
      </trkpt>
      <trkpt lat="48.37833" lon="2.45486">
        <ele>118.5</ele>
        <time>2025-11-16T08:09:36Z</time>
      </trkpt>
      <trkpt lat="48.37825" lon="2.45497">
        <ele>117.8</ele>
        <time>2025-11-16T08:09:38Z</time>
      </trkpt>
      <trkpt lat="48.37816" lon="2.45507">
        <ele>117</ele>
        <time>2025-11-16T08:09:40Z</time>
      </trkpt>
      <trkpt lat="48.37807" lon="2.45518">
        <ele>115.8</ele>
        <time>2025-11-16T08:09:42Z</time>
      </trkpt>
      <trkpt lat="48.37797" lon="2.4553">
        <ele>114.9</ele>
        <time>2025-11-16T08:09:44Z</time>
      </trkpt>
      <trkpt lat="48.37787" lon="2.45542">
        <ele>114.1</ele>
        <time>2025-11-16T08:09:46Z</time>
      </trkpt>
      <trkpt lat="48.37776" lon="2.45555">
        <ele>113.1</ele>
        <time>2025-11-16T08:09:48Z</time>
      </trkpt>
      <trkpt lat="48.37768" lon="2.45567">
        <ele>112.8</ele>
        <time>2025-11-16T08:09:50Z</time>
      </trkpt>
      <trkpt lat="48.37767" lon="2.45581">
        <ele>112.1</ele>
        <time>2025-11-16T08:09:52Z</time>
      </trkpt>
      <trkpt lat="48.37769" lon="2.45596">
        <ele>111.2</ele>
        <time>2025-11-16T08:09:54Z</time>
      </trkpt>
      <trkpt lat="48.37771" lon="2.45614">
        <ele>110.1</ele>
        <time>2025-11-16T08:09:56Z</time>
      </trkpt>
      <trkpt lat="48.37773" lon="2.45633">
        <ele>108.6</ele>
        <time>2025-11-16T08:09:58Z</time>
      </trkpt>
      <trkpt lat="48.37775" lon="2.45652">
        <ele>107.2</ele>
        <time>2025-11-16T08:10:00Z</time>
      </trkpt>
      <trkpt lat="48.37776" lon="2.45668">
        <ele>106</ele>
        <time>2025-11-16T08:10:02Z</time>
      </trkpt>
      <trkpt lat="48.37778" lon="2.45684">
        <ele>104.7</ele>
        <time>2025-11-16T08:10:04Z</time>
      </trkpt>
      <trkpt lat="48.37779" lon="2.457">
        <ele>103.5</ele>
        <time>2025-11-16T08:10:06Z</time>
      </trkpt>
      <trkpt lat="48.37781" lon="2.45717">
        <ele>102.1</ele>
        <time>2025-11-16T08:10:08Z</time>
      </trkpt>
      <trkpt lat="48.37783" lon="2.45735">
        <ele>101.1</ele>
        <time>2025-11-16T08:10:10Z</time>
      </trkpt>
      <trkpt lat="48.37785" lon="2.45754">
        <ele>100</ele>
        <time>2025-11-16T08:10:12Z</time>
      </trkpt>
      <trkpt lat="48.37787" lon="2.45772">
        <ele>98.6</ele>
        <time>2025-11-16T08:10:14Z</time>
      </trkpt>
      <trkpt lat="48.37787" lon="2.4579">
        <ele>97.7</ele>
        <time>2025-11-16T08:10:16Z</time>
      </trkpt>
      <trkpt lat="48.37785" lon="2.45808">
        <ele>96.9</ele>
        <time>2025-11-16T08:10:18Z</time>
      </trkpt>
      <trkpt lat="48.37785" lon="2.45825">
        <ele>95.5</ele>
        <time>2025-11-16T08:10:20Z</time>
      </trkpt>
      <trkpt lat="48.37785" lon="2.45843">
        <ele>94</ele>
        <time>2025-11-16T08:10:22Z</time>
      </trkpt>
      <trkpt lat="48.37786" lon="2.45863">
        <ele>92.6</ele>
        <time>2025-11-16T08:10:24Z</time>
      </trkpt>
      <trkpt lat="48.3779" lon="2.45883">
        <ele>91.3</ele>
        <time>2025-11-16T08:10:26Z</time>
      </trkpt>
      <trkpt lat="48.37791" lon="2.45897">
        <ele>90.7</ele>
        <time>2025-11-16T08:10:28Z</time>
      </trkpt>
      <trkpt lat="48.37785" lon="2.45907">
        <ele>90.3</ele>
        <time>2025-11-16T08:10:30Z</time>
      </trkpt>
      <trkpt lat="48.37777" lon="2.45917">
        <ele>90</ele>
        <time>2025-11-16T08:10:32Z</time>
      </trkpt>
      <trkpt lat="48.37769" lon="2.45926">
        <ele>89.1</ele>
        <time>2025-11-16T08:10:34Z</time>
      </trkpt>
      <trkpt lat="48.3776" lon="2.45936">
        <ele>88.4</ele>
        <time>2025-11-16T08:10:36Z</time>
      </trkpt>
      <trkpt lat="48.37751" lon="2.45945">
        <ele>88</ele>
        <time>2025-11-16T08:10:38Z</time>
      </trkpt>
      <trkpt lat="48.37742" lon="2.45958">
        <ele>87.2</ele>
        <time>2025-11-16T08:10:40Z</time>
      </trkpt>
      <trkpt lat="48.37732" lon="2.45969">
        <ele>86.4</ele>
        <time>2025-11-16T08:10:42Z</time>
      </trkpt>
      <trkpt lat="48.37721" lon="2.45978">
        <ele>85.8</ele>
        <time>2025-11-16T08:10:44Z</time>
      </trkpt>
      <trkpt lat="48.37709" lon="2.45985">
        <ele>85.1</ele>
        <time>2025-11-16T08:10:46Z</time>
      </trkpt>
      <trkpt lat="48.37697" lon="2.45989">
        <ele>84.5</ele>
        <time>2025-11-16T08:10:48Z</time>
      </trkpt>
      <trkpt lat="48.37685" lon="2.45992">
        <ele>84</ele>
        <time>2025-11-16T08:10:50Z</time>
      </trkpt>
      <trkpt lat="48.37674" lon="2.45991">
        <ele>83.6</ele>
        <time>2025-11-16T08:10:52Z</time>
      </trkpt>
      <trkpt lat="48.37663" lon="2.4599">
        <ele>83.2</ele>
        <time>2025-11-16T08:10:54Z</time>
      </trkpt>
      <trkpt lat="48.37651" lon="2.4599">
        <ele>82.8</ele>
        <time>2025-11-16T08:10:56Z</time>
      </trkpt>
      <trkpt lat="48.37641" lon="2.45991">
        <ele>82.4</ele>
        <time>2025-11-16T08:10:58Z</time>
      </trkpt>
      <trkpt lat="48.37633" lon="2.45992">
        <ele>82.2</ele>
        <time>2025-11-16T08:11:00Z</time>
      </trkpt>
      <trkpt lat="48.37628" lon="2.46002">
        <ele>82</ele>
        <time>2025-11-16T08:11:02Z</time>
      </trkpt>
      <trkpt lat="48.37629" lon="2.46017">
        <ele>81.8</ele>
        <time>2025-11-16T08:11:04Z</time>
      </trkpt>
      <trkpt lat="48.37631" lon="2.46033">
        <ele>81.5</ele>
        <time>2025-11-16T08:11:06Z</time>
      </trkpt>
      <trkpt lat="48.37632" lon="2.4605">
        <ele>81</ele>
        <time>2025-11-16T08:11:08Z</time>
      </trkpt>
      <trkpt lat="48.37633" lon="2.46067">
        <ele>80.8</ele>
        <time>2025-11-16T08:11:10Z</time>
      </trkpt>
      <trkpt lat="48.37635" lon="2.46084">
        <ele>80.8</ele>
        <time>2025-11-16T08:11:12Z</time>
      </trkpt>
      <trkpt lat="48.37637" lon="2.46101">
        <ele>80.3</ele>
        <time>2025-11-16T08:11:14Z</time>
      </trkpt>
      <trkpt lat="48.37637" lon="2.46118">
        <ele>79.9</ele>
        <time>2025-11-16T08:11:16Z</time>
      </trkpt>
      <trkpt lat="48.37636" lon="2.46134">
        <ele>79.9</ele>
        <time>2025-11-16T08:11:18Z</time>
      </trkpt>
      <trkpt lat="48.37636" lon="2.46149">
        <ele>79.5</ele>
        <time>2025-11-16T08:11:20Z</time>
      </trkpt>
      <trkpt lat="48.37637" lon="2.46164">
        <ele>79</ele>
        <time>2025-11-16T08:11:22Z</time>
      </trkpt>
      <trkpt lat="48.37637" lon="2.4618">
        <ele>78.9</ele>
        <time>2025-11-16T08:11:24Z</time>
      </trkpt>
      <trkpt lat="48.37638" lon="2.46196">
        <ele>78.9</ele>
        <time>2025-11-16T08:11:26Z</time>
      </trkpt>
      <trkpt lat="48.37639" lon="2.46211">
        <ele>78.4</ele>
        <time>2025-11-16T08:11:28Z</time>
      </trkpt>
      <trkpt lat="48.3764" lon="2.46227">
        <ele>78</ele>
        <time>2025-11-16T08:11:30Z</time>
      </trkpt>
      <trkpt lat="48.3764" lon="2.46243">
        <ele>78</ele>
        <time>2025-11-16T08:11:32Z</time>
      </trkpt>
      <trkpt lat="48.3764" lon="2.46257">
        <ele>78</ele>
        <time>2025-11-16T08:11:34Z</time>
      </trkpt>
      <trkpt lat="48.37641" lon="2.46271">
        <ele>78</ele>
        <time>2025-11-16T08:11:36Z</time>
      </trkpt>
      <trkpt lat="48.3764" lon="2.46286">
        <ele>78</ele>
        <time>2025-11-16T08:11:38Z</time>
      </trkpt>
      <trkpt lat="48.3764" lon="2.463">
        <ele>78</ele>
        <time>2025-11-16T08:11:40Z</time>
      </trkpt>
      <trkpt lat="48.37639" lon="2.46316">
        <ele>77.6</ele>
        <time>2025-11-16T08:11:42Z</time>
      </trkpt>
      <trkpt lat="48.37638" lon="2.46331">
        <ele>77</ele>
        <time>2025-11-16T08:11:44Z</time>
      </trkpt>
      <trkpt lat="48.37637" lon="2.46346">
        <ele>76.9</ele>
        <time>2025-11-16T08:11:46Z</time>
      </trkpt>
      <trkpt lat="48.37636" lon="2.46361">
        <ele>76.9</ele>
        <time>2025-11-16T08:11:48Z</time>
      </trkpt>
      <trkpt lat="48.37635" lon="2.46377">
        <ele>76.9</ele>
        <time>2025-11-16T08:11:50Z</time>
      </trkpt>
      <trkpt lat="48.37635" lon="2.46392">
        <ele>76.7</ele>
        <time>2025-11-16T08:11:52Z</time>
      </trkpt>
      <trkpt lat="48.37633" lon="2.46407">
        <ele>76.1</ele>
        <time>2025-11-16T08:11:54Z</time>
      </trkpt>
      <trkpt lat="48.37631" lon="2.46422">
        <ele>75.7</ele>
        <time>2025-11-16T08:11:56Z</time>
      </trkpt>
      <trkpt lat="48.3763" lon="2.46437">
        <ele>75.7</ele>
        <time>2025-11-16T08:11:58Z</time>
      </trkpt>
      <trkpt lat="48.37629" lon="2.46453">
        <ele>75.6</ele>
        <time>2025-11-16T08:12:00Z</time>
      </trkpt>
      <trkpt lat="48.37628" lon="2.46468">
        <ele>75.6</ele>
        <time>2025-11-16T08:12:02Z</time>
      </trkpt>
      <trkpt lat="48.37627" lon="2.46484">
        <ele>75.6</ele>
        <time>2025-11-16T08:12:04Z</time>
      </trkpt>
      <trkpt lat="48.37627" lon="2.465">
        <ele>75.6</ele>
        <time>2025-11-16T08:12:06Z</time>
      </trkpt>
      <trkpt lat="48.37626" lon="2.46515">
        <ele>75.5</ele>
        <time>2025-11-16T08:12:08Z</time>
      </trkpt>
      <trkpt lat="48.37625" lon="2.4653">
        <ele>75.5</ele>
        <time>2025-11-16T08:12:10Z</time>
      </trkpt>
      <trkpt lat="48.37625" lon="2.46545">
        <ele>75.2</ele>
        <time>2025-11-16T08:12:12Z</time>
      </trkpt>
      <trkpt lat="48.37625" lon="2.4656">
        <ele>75</ele>
        <time>2025-11-16T08:12:14Z</time>
      </trkpt>
      <trkpt lat="48.37626" lon="2.46575">
        <ele>75</ele>
        <time>2025-11-16T08:12:16Z</time>
      </trkpt>
      <trkpt lat="48.37627" lon="2.4659">
        <ele>74.9</ele>
        <time>2025-11-16T08:12:18Z</time>
      </trkpt>
      <trkpt lat="48.37628" lon="2.46606">
        <ele>74.7</ele>
        <time>2025-11-16T08:12:20Z</time>
      </trkpt>
      <trkpt lat="48.37629" lon="2.4662">
        <ele>74.4</ele>
        <time>2025-11-16T08:12:22Z</time>
      </trkpt>
      <trkpt lat="48.3763" lon="2.46634">
        <ele>74.1</ele>
        <time>2025-11-16T08:12:24Z</time>
      </trkpt>
      <trkpt lat="48.37631" lon="2.46648">
        <ele>74</ele>
        <time>2025-11-16T08:12:26Z</time>
      </trkpt>
      <trkpt lat="48.37632" lon="2.46664">
        <ele>74</ele>
        <time>2025-11-16T08:12:28Z</time>
      </trkpt>
      <trkpt lat="48.37632" lon="2.46679">
        <ele>73.9</ele>
        <time>2025-11-16T08:12:30Z</time>
      </trkpt>
      <trkpt lat="48.37633" lon="2.46696">
        <ele>73.8</ele>
        <time>2025-11-16T08:12:32Z</time>
      </trkpt>
      <trkpt lat="48.37633" lon="2.46712">
        <ele>73.3</ele>
        <time>2025-11-16T08:12:34Z</time>
      </trkpt>
      <trkpt lat="48.37634" lon="2.46728">
        <ele>73</ele>
        <time>2025-11-16T08:12:36Z</time>
      </trkpt>
      <trkpt lat="48.37633" lon="2.46745">
        <ele>73</ele>
        <time>2025-11-16T08:12:38Z</time>
      </trkpt>
      <trkpt lat="48.37633" lon="2.46761">
        <ele>73</ele>
        <time>2025-11-16T08:12:40Z</time>
      </trkpt>
      <trkpt lat="48.37634" lon="2.46777">
        <ele>73</ele>
        <time>2025-11-16T08:12:42Z</time>
      </trkpt>
      <trkpt lat="48.37635" lon="2.46793">
        <ele>73</ele>
        <time>2025-11-16T08:12:44Z</time>
      </trkpt>
      <trkpt lat="48.37637" lon="2.46809">
        <ele>73</ele>
        <time>2025-11-16T08:12:46Z</time>
      </trkpt>
      <trkpt lat="48.37639" lon="2.46825">
        <ele>73</ele>
        <time>2025-11-16T08:12:48Z</time>
      </trkpt>
      <trkpt lat="48.37641" lon="2.4684">
        <ele>73</ele>
        <time>2025-11-16T08:12:50Z</time>
      </trkpt>
      <trkpt lat="48.37644" lon="2.46856">
        <ele>72.8</ele>
        <time>2025-11-16T08:12:52Z</time>
      </trkpt>
      <trkpt lat="48.37648" lon="2.46871">
        <ele>72.4</ele>
        <time>2025-11-16T08:12:54Z</time>
      </trkpt>
      <trkpt lat="48.37652" lon="2.46887">
        <ele>72</ele>
        <time>2025-11-16T08:12:56Z</time>
      </trkpt>
      <trkpt lat="48.37656" lon="2.46901">
        <ele>72</ele>
        <time>2025-11-16T08:12:58Z</time>
      </trkpt>
      <trkpt lat="48.37661" lon="2.46915">
        <ele>72</ele>
        <time>2025-11-16T08:13:00Z</time>
      </trkpt>
      <trkpt lat="48.37667" lon="2.46928">
        <ele>72</ele>
        <time>2025-11-16T08:13:02Z</time>
      </trkpt>
      <trkpt lat="48.37672" lon="2.4694">
        <ele>72</ele>
        <time>2025-11-16T08:13:04Z</time>
      </trkpt>
      <trkpt lat="48.37679" lon="2.46952">
        <ele>72</ele>
        <time>2025-11-16T08:13:06Z</time>
      </trkpt>
      <trkpt lat="48.37686" lon="2.46963">
        <ele>72</ele>
        <time>2025-11-16T08:13:08Z</time>
      </trkpt>
      <trkpt lat="48.37693" lon="2.46974">
        <ele>72</ele>
        <time>2025-11-16T08:13:10Z</time>
      </trkpt>
      <trkpt lat="48.377" lon="2.46984">
        <ele>72</ele>
        <time>2025-11-16T08:13:12Z</time>
      </trkpt>
      <trkpt lat="48.37707" lon="2.46994">
        <ele>72</ele>
        <time>2025-11-16T08:13:14Z</time>
      </trkpt>
      <trkpt lat="48.37715" lon="2.47003">
        <ele>72</ele>
        <time>2025-11-16T08:13:16Z</time>
      </trkpt>
      <trkpt lat="48.37723" lon="2.47014">
        <ele>72</ele>
        <time>2025-11-16T08:13:18Z</time>
      </trkpt>
      <trkpt lat="48.37731" lon="2.47025">
        <ele>72</ele>
        <time>2025-11-16T08:13:20Z</time>
      </trkpt>
      <trkpt lat="48.37737" lon="2.47037">
        <ele>71.8</ele>
        <time>2025-11-16T08:13:22Z</time>
      </trkpt>
      <trkpt lat="48.37743" lon="2.4705">
        <ele>71.8</ele>
        <time>2025-11-16T08:13:24Z</time>
      </trkpt>
      <trkpt lat="48.37748" lon="2.47063">
        <ele>71.7</ele>
        <time>2025-11-16T08:13:26Z</time>
      </trkpt>
      <trkpt lat="48.37753" lon="2.47076">
        <ele>71.3</ele>
        <time>2025-11-16T08:13:28Z</time>
      </trkpt>
      <trkpt lat="48.37756" lon="2.47089">
        <ele>71.2</ele>
        <time>2025-11-16T08:13:30Z</time>
      </trkpt>
      <trkpt lat="48.3776" lon="2.47103">
        <ele>71.4</ele>
        <time>2025-11-16T08:13:32Z</time>
      </trkpt>
      <trkpt lat="48.37764" lon="2.47116">
        <ele>71.4</ele>
        <time>2025-11-16T08:13:34Z</time>
      </trkpt>
      <trkpt lat="48.37769" lon="2.4713">
        <ele>71.2</ele>
        <time>2025-11-16T08:13:36Z</time>
      </trkpt>
      <trkpt lat="48.37772" lon="2.47143">
        <ele>71</ele>
        <time>2025-11-16T08:13:38Z</time>
      </trkpt>
      <trkpt lat="48.37776" lon="2.47156">
        <ele>71</ele>
        <time>2025-11-16T08:13:40Z</time>
      </trkpt>
      <trkpt lat="48.37781" lon="2.47168">
        <ele>71</ele>
        <time>2025-11-16T08:13:42Z</time>
      </trkpt>
      <trkpt lat="48.37787" lon="2.47182">
        <ele>70.6</ele>
        <time>2025-11-16T08:13:44Z</time>
      </trkpt>
      <trkpt lat="48.37792" lon="2.47196">
        <ele>70.5</ele>
        <time>2025-11-16T08:13:46Z</time>
      </trkpt>
      <trkpt lat="48.37798" lon="2.4721">
        <ele>70.3</ele>
        <time>2025-11-16T08:13:48Z</time>
      </trkpt>
      <trkpt lat="48.37803" lon="2.47224">
        <ele>70</ele>
        <time>2025-11-16T08:13:50Z</time>
      </trkpt>
      <trkpt lat="48.37808" lon="2.47238">
        <ele>70</ele>
        <time>2025-11-16T08:13:52Z</time>
      </trkpt>
      <trkpt lat="48.37813" lon="2.47251">
        <ele>70</ele>
        <time>2025-11-16T08:13:54Z</time>
      </trkpt>
      <trkpt lat="48.37818" lon="2.47264">
        <ele>70</ele>
        <time>2025-11-16T08:13:56Z</time>
      </trkpt>
      <trkpt lat="48.37824" lon="2.47276">
        <ele>70</ele>
        <time>2025-11-16T08:13:58Z</time>
      </trkpt>
      <trkpt lat="48.37829" lon="2.47288">
        <ele>69.9</ele>
        <time>2025-11-16T08:14:00Z</time>
      </trkpt>
      <trkpt lat="48.37834" lon="2.473">
        <ele>70</ele>
        <time>2025-11-16T08:14:02Z</time>
      </trkpt>
      <trkpt lat="48.37838" lon="2.47313">
        <ele>69.8</ele>
        <time>2025-11-16T08:14:04Z</time>
      </trkpt>
      <trkpt lat="48.37844" lon="2.47325">
        <ele>69.6</ele>
        <time>2025-11-16T08:14:06Z</time>
      </trkpt>
      <trkpt lat="48.37849" lon="2.47336">
        <ele>69.6</ele>
        <time>2025-11-16T08:14:08Z</time>
      </trkpt>
      <trkpt lat="48.37854" lon="2.47348">
        <ele>69.7</ele>
        <time>2025-11-16T08:14:10Z</time>
      </trkpt>
      <trkpt lat="48.37859" lon="2.4736">
        <ele>69.9</ele>
        <time>2025-11-16T08:14:12Z</time>
      </trkpt>
      <trkpt lat="48.37863" lon="2.47372">
        <ele>69.6</ele>
        <time>2025-11-16T08:14:14Z</time>
      </trkpt>
      <trkpt lat="48.37868" lon="2.47384">
        <ele>69.3</ele>
        <time>2025-11-16T08:14:16Z</time>
      </trkpt>
      <trkpt lat="48.37873" lon="2.47396">
        <ele>69.3</ele>
        <time>2025-11-16T08:14:18Z</time>
      </trkpt>
      <trkpt lat="48.37878" lon="2.47409">
        <ele>69.2</ele>
        <time>2025-11-16T08:14:20Z</time>
      </trkpt>
      <trkpt lat="48.37882" lon="2.47421">
        <ele>69</ele>
        <time>2025-11-16T08:14:22Z</time>
      </trkpt>
      <trkpt lat="48.37887" lon="2.47433">
        <ele>69</ele>
        <time>2025-11-16T08:14:24Z</time>
      </trkpt>
      <trkpt lat="48.37891" lon="2.47446">
        <ele>69</ele>
        <time>2025-11-16T08:14:26Z</time>
      </trkpt>
      <trkpt lat="48.37895" lon="2.47458">
        <ele>69</ele>
        <time>2025-11-16T08:14:28Z</time>
      </trkpt>
      <trkpt lat="48.379" lon="2.4747">
        <ele>69</ele>
        <time>2025-11-16T08:14:30Z</time>
      </trkpt>
      <trkpt lat="48.37904" lon="2.47482">
        <ele>68.9</ele>
        <time>2025-11-16T08:14:32Z</time>
      </trkpt>
      <trkpt lat="48.37909" lon="2.47493">
        <ele>68.8</ele>
        <time>2025-11-16T08:14:34Z</time>
      </trkpt>
      <trkpt lat="48.37913" lon="2.47504">
        <ele>68.7</ele>
        <time>2025-11-16T08:14:36Z</time>
      </trkpt>
      <trkpt lat="48.37918" lon="2.47516">
        <ele>68.5</ele>
        <time>2025-11-16T08:14:38Z</time>
      </trkpt>
      <trkpt lat="48.37922" lon="2.47526">
        <ele>68.2</ele>
        <time>2025-11-16T08:14:40Z</time>
      </trkpt>
      <trkpt lat="48.37926" lon="2.47537">
        <ele>68.4</ele>
        <time>2025-11-16T08:14:42Z</time>
      </trkpt>
      <trkpt lat="48.37931" lon="2.47547">
        <ele>68.5</ele>
        <time>2025-11-16T08:14:44Z</time>
      </trkpt>
      <trkpt lat="48.37936" lon="2.47557">
        <ele>68.7</ele>
        <time>2025-11-16T08:14:46Z</time>
      </trkpt>
      <trkpt lat="48.3794" lon="2.47568">
        <ele>68.8</ele>
        <time>2025-11-16T08:14:48Z</time>
      </trkpt>
      <trkpt lat="48.37944" lon="2.47579">
        <ele>69</ele>
        <time>2025-11-16T08:14:50Z</time>
      </trkpt>
      <trkpt lat="48.37948" lon="2.47588">
        <ele>68.7</ele>
        <time>2025-11-16T08:14:52Z</time>
      </trkpt>
      <trkpt lat="48.37953" lon="2.47599">
        <ele>68.3</ele>
        <time>2025-11-16T08:14:54Z</time>
      </trkpt>
      <trkpt lat="48.37957" lon="2.4761">
        <ele>68</ele>
        <time>2025-11-16T08:14:56Z</time>
      </trkpt>
      <trkpt lat="48.3796" lon="2.47621">
        <ele>67.8</ele>
        <time>2025-11-16T08:14:58Z</time>
      </trkpt>
      <trkpt lat="48.37963" lon="2.47629">
        <ele>67.6</ele>
        <time>2025-11-16T08:15:00Z</time>
      </trkpt>
      <trkpt lat="48.37966" lon="2.47635">
        <ele>67.3</ele>
        <time>2025-11-16T08:15:02Z</time>
      </trkpt>
      <trkpt lat="48.37967" lon="2.47642">
        <ele>67.2</ele>
        <time>2025-11-16T08:15:04Z</time>
      </trkpt>
      <trkpt lat="48.37966" lon="2.47649">
        <ele>67.2</ele>
        <time>2025-11-16T08:15:06Z</time>
      </trkpt>
      <trkpt lat="48.37963" lon="2.47656">
        <ele>67.3</ele>
        <time>2025-11-16T08:15:08Z</time>
      </trkpt>
      <trkpt lat="48.37957" lon="2.47663">
        <ele>67.5</ele>
        <time>2025-11-16T08:15:10Z</time>
      </trkpt>
      <trkpt lat="48.37949" lon="2.47665">
        <ele>67.8</ele>
        <time>2025-11-16T08:15:12Z</time>
      </trkpt>
      <trkpt lat="48.37941" lon="2.47667">
        <ele>68</ele>
        <time>2025-11-16T08:15:14Z</time>
      </trkpt>
      <trkpt lat="48.37932" lon="2.4767">
        <ele>68</ele>
        <time>2025-11-16T08:15:16Z</time>
      </trkpt>
      <trkpt lat="48.37923" lon="2.47673">
        <ele>68</ele>
        <time>2025-11-16T08:15:18Z</time>
      </trkpt>
      <trkpt lat="48.37914" lon="2.47675">
        <ele>68</ele>
        <time>2025-11-16T08:15:20Z</time>
      </trkpt>
      <trkpt lat="48.37905" lon="2.47677">
        <ele>68</ele>
        <time>2025-11-16T08:15:22Z</time>
      </trkpt>
      <trkpt lat="48.37895" lon="2.4768">
        <ele>68</ele>
        <time>2025-11-16T08:15:24Z</time>
      </trkpt>
      <trkpt lat="48.37885" lon="2.47683">
        <ele>68</ele>
        <time>2025-11-16T08:15:26Z</time>
      </trkpt>
      <trkpt lat="48.37875" lon="2.47685">
        <ele>68</ele>
        <time>2025-11-16T08:15:28Z</time>
      </trkpt>
      <trkpt lat="48.37865" lon="2.47689">
        <ele>68</ele>
        <time>2025-11-16T08:15:30Z</time>
      </trkpt>
      <trkpt lat="48.37855" lon="2.47693">
        <ele>67.8</ele>
        <time>2025-11-16T08:15:32Z</time>
      </trkpt>
      <trkpt lat="48.37845" lon="2.47698">
        <ele>67.4</ele>
        <time>2025-11-16T08:15:34Z</time>
      </trkpt>
      <trkpt lat="48.37835" lon="2.47703">
        <ele>67</ele>
        <time>2025-11-16T08:15:36Z</time>
      </trkpt>
      <trkpt lat="48.37824" lon="2.4771">
        <ele>67</ele>
        <time>2025-11-16T08:15:38Z</time>
      </trkpt>
      <trkpt lat="48.37814" lon="2.47717">
        <ele>67</ele>
        <time>2025-11-16T08:15:40Z</time>
      </trkpt>
      <trkpt lat="48.37804" lon="2.47723">
        <ele>67.1</ele>
        <time>2025-11-16T08:15:42Z</time>
      </trkpt>
      <trkpt lat="48.37794" lon="2.47732">
        <ele>67.4</ele>
        <time>2025-11-16T08:15:44Z</time>
      </trkpt>
      <trkpt lat="48.37785" lon="2.4774">
        <ele>67.7</ele>
        <time>2025-11-16T08:15:46Z</time>
      </trkpt>
      <trkpt lat="48.37776" lon="2.47748">
        <ele>68</ele>
        <time>2025-11-16T08:15:48Z</time>
      </trkpt>
      <trkpt lat="48.37767" lon="2.47755">
        <ele>68</ele>
        <time>2025-11-16T08:15:50Z</time>
      </trkpt>
      <trkpt lat="48.37758" lon="2.47763">
        <ele>68</ele>
        <time>2025-11-16T08:15:52Z</time>
      </trkpt>
      <trkpt lat="48.37748" lon="2.47772">
        <ele>68</ele>
        <time>2025-11-16T08:15:54Z</time>
      </trkpt>
      <trkpt lat="48.3774" lon="2.47781">
        <ele>67.6</ele>
        <time>2025-11-16T08:15:56Z</time>
      </trkpt>
      <trkpt lat="48.37732" lon="2.47789">
        <ele>67.4</ele>
        <time>2025-11-16T08:15:58Z</time>
      </trkpt>
      <trkpt lat="48.37724" lon="2.47797">
        <ele>67</ele>
        <time>2025-11-16T08:16:00Z</time>
      </trkpt>
      <trkpt lat="48.37715" lon="2.47797">
        <ele>67</ele>
        <time>2025-11-16T08:16:02Z</time>
      </trkpt>
      <trkpt lat="48.37707" lon="2.47789">
        <ele>67</ele>
        <time>2025-11-16T08:16:04Z</time>
      </trkpt>
      <trkpt lat="48.37702" lon="2.47777">
        <ele>67</ele>
        <time>2025-11-16T08:16:06Z</time>
      </trkpt>
      <trkpt lat="48.37697" lon="2.47764">
        <ele>67.5</ele>
        <time>2025-11-16T08:16:08Z</time>
      </trkpt>
      <trkpt lat="48.37693" lon="2.4775">
        <ele>67.9</ele>
        <time>2025-11-16T08:16:10Z</time>
      </trkpt>
      <trkpt lat="48.37688" lon="2.47736">
        <ele>67.9</ele>
        <time>2025-11-16T08:16:12Z</time>
      </trkpt>
      <trkpt lat="48.37684" lon="2.47722">
        <ele>68</ele>
        <time>2025-11-16T08:16:14Z</time>
      </trkpt>
      <trkpt lat="48.37682" lon="2.47708">
        <ele>68</ele>
        <time>2025-11-16T08:16:16Z</time>
      </trkpt>
      <trkpt lat="48.37678" lon="2.47693">
        <ele>68</ele>
        <time>2025-11-16T08:16:18Z</time>
      </trkpt>
      <trkpt lat="48.37674" lon="2.47678">
        <ele>68</ele>
        <time>2025-11-16T08:16:20Z</time>
      </trkpt>
      <trkpt lat="48.3767" lon="2.47663">
        <ele>68</ele>
        <time>2025-11-16T08:16:22Z</time>
      </trkpt>
      <trkpt lat="48.37666" lon="2.4765">
        <ele>68</ele>
        <time>2025-11-16T08:16:24Z</time>
      </trkpt>
      <trkpt lat="48.37658" lon="2.47645">
        <ele>68</ele>
        <time>2025-11-16T08:16:26Z</time>
      </trkpt>
      <trkpt lat="48.37651" lon="2.47649">
        <ele>68</ele>
        <time>2025-11-16T08:16:28Z</time>
      </trkpt>
      <trkpt lat="48.37644" lon="2.47654">
        <ele>68</ele>
        <time>2025-11-16T08:16:30Z</time>
      </trkpt>
      <trkpt lat="48.37636" lon="2.47658">
        <ele>68.1</ele>
        <time>2025-11-16T08:16:32Z</time>
      </trkpt>
      <trkpt lat="48.37628" lon="2.47662">
        <ele>68.4</ele>
        <time>2025-11-16T08:16:34Z</time>
      </trkpt>
      <trkpt lat="48.37618" lon="2.47667">
        <ele>68.7</ele>
        <time>2025-11-16T08:16:36Z</time>
      </trkpt>
      <trkpt lat="48.37609" lon="2.47673">
        <ele>68.8</ele>
        <time>2025-11-16T08:16:38Z</time>
      </trkpt>
      <trkpt lat="48.37599" lon="2.47678">
        <ele>68.6</ele>
        <time>2025-11-16T08:16:40Z</time>
      </trkpt>
      <trkpt lat="48.37591" lon="2.47683">
        <ele>68.4</ele>
        <time>2025-11-16T08:16:42Z</time>
      </trkpt>
      <trkpt lat="48.37581" lon="2.47689">
        <ele>68.3</ele>
        <time>2025-11-16T08:16:44Z</time>
      </trkpt>
      <trkpt lat="48.37572" lon="2.47694">
        <ele>68.4</ele>
        <time>2025-11-16T08:16:46Z</time>
      </trkpt>
      <trkpt lat="48.37562" lon="2.477">
        <ele>68.6</ele>
        <time>2025-11-16T08:16:48Z</time>
      </trkpt>
      <trkpt lat="48.37553" lon="2.47705">
        <ele>68.6</ele>
        <time>2025-11-16T08:16:50Z</time>
      </trkpt>
      <trkpt lat="48.37543" lon="2.47711">
        <ele>68.4</ele>
        <time>2025-11-16T08:16:52Z</time>
      </trkpt>
      <trkpt lat="48.37534" lon="2.47719">
        <ele>68.1</ele>
        <time>2025-11-16T08:16:54Z</time>
      </trkpt>
      <trkpt lat="48.37526" lon="2.47726">
        <ele>68</ele>
        <time>2025-11-16T08:16:56Z</time>
      </trkpt>
      <trkpt lat="48.37518" lon="2.47736">
        <ele>68</ele>
        <time>2025-11-16T08:16:58Z</time>
      </trkpt>
      <trkpt lat="48.37511" lon="2.47745">
        <ele>68</ele>
        <time>2025-11-16T08:17:00Z</time>
      </trkpt>
      <trkpt lat="48.37504" lon="2.47754">
        <ele>68</ele>
        <time>2025-11-16T08:17:02Z</time>
      </trkpt>
      <trkpt lat="48.37497" lon="2.47765">
        <ele>68</ele>
        <time>2025-11-16T08:17:04Z</time>
      </trkpt>
      <trkpt lat="48.3749" lon="2.47774">
        <ele>68</ele>
        <time>2025-11-16T08:17:06Z</time>
      </trkpt>
      <trkpt lat="48.37482" lon="2.47783">
        <ele>67.8</ele>
        <time>2025-11-16T08:17:08Z</time>
      </trkpt>
      <trkpt lat="48.37475" lon="2.47793">
        <ele>67.5</ele>
        <time>2025-11-16T08:17:10Z</time>
      </trkpt>
      <trkpt lat="48.37468" lon="2.47802">
        <ele>67.2</ele>
        <time>2025-11-16T08:17:12Z</time>
      </trkpt>
      <trkpt lat="48.3746" lon="2.47812">
        <ele>67.4</ele>
        <time>2025-11-16T08:17:14Z</time>
      </trkpt>
      <trkpt lat="48.37452" lon="2.47822">
        <ele>67.7</ele>
        <time>2025-11-16T08:17:16Z</time>
      </trkpt>
      <trkpt lat="48.37445" lon="2.4783">
        <ele>68</ele>
        <time>2025-11-16T08:17:18Z</time>
      </trkpt>
      <trkpt lat="48.37439" lon="2.4784">
        <ele>67.8</ele>
        <time>2025-11-16T08:17:20Z</time>
      </trkpt>
      <trkpt lat="48.37433" lon="2.47849">
        <ele>67.7</ele>
        <time>2025-11-16T08:17:22Z</time>
      </trkpt>
      <trkpt lat="48.37426" lon="2.47858">
        <ele>67.7</ele>
        <time>2025-11-16T08:17:24Z</time>
      </trkpt>
      <trkpt lat="48.3742" lon="2.47867">
        <ele>67.9</ele>
        <time>2025-11-16T08:17:26Z</time>
      </trkpt>
      <trkpt lat="48.37414" lon="2.47876">
        <ele>68</ele>
        <time>2025-11-16T08:17:28Z</time>
      </trkpt>
      <trkpt lat="48.37409" lon="2.47883">
        <ele>68</ele>
        <time>2025-11-16T08:17:30Z</time>
      </trkpt>
      <trkpt lat="48.37403" lon="2.4789">
        <ele>68</ele>
        <time>2025-11-16T08:17:32Z</time>
      </trkpt>
      <trkpt lat="48.37398" lon="2.47898">
        <ele>68</ele>
        <time>2025-11-16T08:17:34Z</time>
      </trkpt>
      <trkpt lat="48.37393" lon="2.47905">
        <ele>68</ele>
        <time>2025-11-16T08:17:36Z</time>
      </trkpt>
      <trkpt lat="48.37387" lon="2.47913">
        <ele>68</ele>
        <time>2025-11-16T08:17:38Z</time>
      </trkpt>
      <trkpt lat="48.37381" lon="2.47921">
        <ele>68</ele>
        <time>2025-11-16T08:17:40Z</time>
      </trkpt>
      <trkpt lat="48.37375" lon="2.47928">
        <ele>68.2</ele>
        <time>2025-11-16T08:17:42Z</time>
      </trkpt>
      <trkpt lat="48.37369" lon="2.47936">
        <ele>68.5</ele>
        <time>2025-11-16T08:17:44Z</time>
      </trkpt>
      <trkpt lat="48.37363" lon="2.47943">
        <ele>68.9</ele>
        <time>2025-11-16T08:17:46Z</time>
      </trkpt>
      <trkpt lat="48.37357" lon="2.4795">
        <ele>69</ele>
        <time>2025-11-16T08:17:48Z</time>
      </trkpt>
      <trkpt lat="48.37351" lon="2.47958">
        <ele>69</ele>
        <time>2025-11-16T08:17:50Z</time>
      </trkpt>
      <trkpt lat="48.37346" lon="2.47965">
        <ele>69</ele>
        <time>2025-11-16T08:17:52Z</time>
      </trkpt>
      <trkpt lat="48.37339" lon="2.47972">
        <ele>69</ele>
        <time>2025-11-16T08:17:54Z</time>
      </trkpt>
      <trkpt lat="48.37334" lon="2.4798">
        <ele>69</ele>
        <time>2025-11-16T08:17:56Z</time>
      </trkpt>
      <trkpt lat="48.37328" lon="2.47988">
        <ele>69.1</ele>
        <time>2025-11-16T08:17:58Z</time>
      </trkpt>
      <trkpt lat="48.37322" lon="2.47997">
        <ele>69.3</ele>
        <time>2025-11-16T08:18:00Z</time>
      </trkpt>
      <trkpt lat="48.37317" lon="2.48005">
        <ele>69.7</ele>
        <time>2025-11-16T08:18:02Z</time>
      </trkpt>
      <trkpt lat="48.37311" lon="2.48013">
        <ele>69.9</ele>
        <time>2025-11-16T08:18:04Z</time>
      </trkpt>
      <trkpt lat="48.37306" lon="2.4802">
        <ele>70</ele>
        <time>2025-11-16T08:18:06Z</time>
      </trkpt>
      <trkpt lat="48.373" lon="2.48027">
        <ele>70</ele>
        <time>2025-11-16T08:18:08Z</time>
      </trkpt>
      <trkpt lat="48.37296" lon="2.48033">
        <ele>70.1</ele>
        <time>2025-11-16T08:18:10Z</time>
      </trkpt>
      <trkpt lat="48.37292" lon="2.4804">
        <ele>70.2</ele>
        <time>2025-11-16T08:18:12Z</time>
      </trkpt>
      <trkpt lat="48.37286" lon="2.48046">
        <ele>70.5</ele>
        <time>2025-11-16T08:18:14Z</time>
      </trkpt>
      <trkpt lat="48.37281" lon="2.48053">
        <ele>70.8</ele>
        <time>2025-11-16T08:18:16Z</time>
      </trkpt>
      <trkpt lat="48.37276" lon="2.4806">
        <ele>71.1</ele>
        <time>2025-11-16T08:18:18Z</time>
      </trkpt>
      <trkpt lat="48.37274" lon="2.48067">
        <ele>71.1</ele>
        <time>2025-11-16T08:18:20Z</time>
      </trkpt>
      <trkpt lat="48.37276" lon="2.48076">
        <ele>71.1</ele>
        <time>2025-11-16T08:18:22Z</time>
      </trkpt>
      <trkpt lat="48.37281" lon="2.48084">
        <ele>71</ele>
        <time>2025-11-16T08:18:24Z</time>
      </trkpt>
      <trkpt lat="48.37287" lon="2.48092">
        <ele>71.2</ele>
        <time>2025-11-16T08:18:26Z</time>
      </trkpt>
      <trkpt lat="48.37292" lon="2.48101">
        <ele>71.3</ele>
        <time>2025-11-16T08:18:28Z</time>
      </trkpt>
      <trkpt lat="48.37297" lon="2.4811">
        <ele>71.3</ele>
        <time>2025-11-16T08:18:30Z</time>
      </trkpt>
      <trkpt lat="48.37302" lon="2.4812">
        <ele>71.4</ele>
        <time>2025-11-16T08:18:32Z</time>
      </trkpt>
      <trkpt lat="48.37308" lon="2.4813">
        <ele>71.6</ele>
        <time>2025-11-16T08:18:34Z</time>
      </trkpt>
      <trkpt lat="48.37314" lon="2.48139">
        <ele>71.7</ele>
        <time>2025-11-16T08:18:36Z</time>
      </trkpt>
      <trkpt lat="48.3732" lon="2.48149">
        <ele>71.7</ele>
        <time>2025-11-16T08:18:38Z</time>
      </trkpt>
      <trkpt lat="48.37327" lon="2.48158">
        <ele>71.8</ele>
        <time>2025-11-16T08:18:40Z</time>
      </trkpt>
      <trkpt lat="48.37333" lon="2.48168">
        <ele>72</ele>
        <time>2025-11-16T08:18:42Z</time>
      </trkpt>
      <trkpt lat="48.3734" lon="2.48178">
        <ele>72</ele>
        <time>2025-11-16T08:18:44Z</time>
      </trkpt>
      <trkpt lat="48.37346" lon="2.48187">
        <ele>72</ele>
        <time>2025-11-16T08:18:46Z</time>
      </trkpt>
      <trkpt lat="48.37352" lon="2.48197">
        <ele>72</ele>
        <time>2025-11-16T08:18:48Z</time>
      </trkpt>
      <trkpt lat="48.37358" lon="2.48206">
        <ele>72</ele>
        <time>2025-11-16T08:18:50Z</time>
      </trkpt>
      <trkpt lat="48.37364" lon="2.48215">
        <ele>72</ele>
        <time>2025-11-16T08:18:52Z</time>
      </trkpt>
      <trkpt lat="48.37371" lon="2.48226">
        <ele>72.1</ele>
        <time>2025-11-16T08:18:54Z</time>
      </trkpt>
      <trkpt lat="48.37377" lon="2.48236">
        <ele>72.2</ele>
        <time>2025-11-16T08:18:56Z</time>
      </trkpt>
      <trkpt lat="48.37385" lon="2.48247">
        <ele>72.1</ele>
        <time>2025-11-16T08:18:58Z</time>
      </trkpt>
      <trkpt lat="48.37392" lon="2.48257">
        <ele>71.9</ele>
        <time>2025-11-16T08:19:00Z</time>
      </trkpt>
      <trkpt lat="48.374" lon="2.48266">
        <ele>71.6</ele>
        <time>2025-11-16T08:19:02Z</time>
      </trkpt>
      <trkpt lat="48.37408" lon="2.48273">
        <ele>71.3</ele>
        <time>2025-11-16T08:19:04Z</time>
      </trkpt>
      <trkpt lat="48.37417" lon="2.4828">
        <ele>71</ele>
        <time>2025-11-16T08:19:06Z</time>
      </trkpt>
      <trkpt lat="48.37425" lon="2.48287">
        <ele>70.7</ele>
        <time>2025-11-16T08:19:08Z</time>
      </trkpt>
      <trkpt lat="48.37433" lon="2.48294">
        <ele>70.4</ele>
        <time>2025-11-16T08:19:10Z</time>
      </trkpt>
      <trkpt lat="48.3744" lon="2.48304">
        <ele>70.2</ele>
        <time>2025-11-16T08:19:12Z</time>
      </trkpt>
      <trkpt lat="48.37444" lon="2.48314">
        <ele>70.3</ele>
        <time>2025-11-16T08:19:14Z</time>
      </trkpt>
      <trkpt lat="48.37445" lon="2.48325">
        <ele>70.7</ele>
        <time>2025-11-16T08:19:16Z</time>
      </trkpt>
      <trkpt lat="48.37442" lon="2.48332">
        <ele>71</ele>
        <time>2025-11-16T08:19:18Z</time>
      </trkpt>
      <trkpt lat="48.37439" lon="2.48344">
        <ele>71.3</ele>
        <time>2025-11-16T08:19:22Z</time>
      </trkpt>
      <trkpt lat="48.37436" lon="2.48351">
        <ele>71.5</ele>
        <time>2025-11-16T08:19:24Z</time>
      </trkpt>
      <trkpt lat="48.37431" lon="2.48362">
        <ele>72</ele>
        <time>2025-11-16T08:19:28Z</time>
      </trkpt>
      <trkpt lat="48.37428" lon="2.48367">
        <ele>72.4</ele>
        <time>2025-11-16T08:19:30Z</time>
      </trkpt>
      <trkpt lat="48.37426" lon="2.48374">
        <ele>72.8</ele>
        <time>2025-11-16T08:19:32Z</time>
      </trkpt>
      <trkpt lat="48.37423" lon="2.48381">
        <ele>73.3</ele>
        <time>2025-11-16T08:19:34Z</time>
      </trkpt>
      <trkpt lat="48.37419" lon="2.48387">
        <ele>73.7</ele>
        <time>2025-11-16T08:19:36Z</time>
      </trkpt>
      <trkpt lat="48.37418" lon="2.48394">
        <ele>73.9</ele>
        <time>2025-11-16T08:19:38Z</time>
      </trkpt>
      <trkpt lat="48.37418" lon="2.48401">
        <ele>73.9</ele>
        <time>2025-11-16T08:19:40Z</time>
      </trkpt>
      <trkpt lat="48.37417" lon="2.48409">
        <ele>74</ele>
        <time>2025-11-16T08:19:42Z</time>
      </trkpt>
      <trkpt lat="48.37417" lon="2.48418">
        <ele>73.9</ele>
        <time>2025-11-16T08:19:44Z</time>
      </trkpt>
      <trkpt lat="48.37415" lon="2.48427">
        <ele>73.9</ele>
        <time>2025-11-16T08:19:46Z</time>
      </trkpt>
      <trkpt lat="48.37414" lon="2.48436">
        <ele>73.7</ele>
        <time>2025-11-16T08:19:48Z</time>
      </trkpt>
      <trkpt lat="48.37413" lon="2.48446">
        <ele>73.4</ele>
        <time>2025-11-16T08:19:50Z</time>
      </trkpt>
      <trkpt lat="48.37411" lon="2.48455">
        <ele>73</ele>
        <time>2025-11-16T08:19:52Z</time>
      </trkpt>
      <trkpt lat="48.37411" lon="2.48469">
        <ele>72</ele>
        <time>2025-11-16T08:19:54Z</time>
      </trkpt>
      <trkpt lat="48.37409" lon="2.48486">
        <ele>71.5</ele>
        <time>2025-11-16T08:19:56Z</time>
      </trkpt>
      <trkpt lat="48.37409" lon="2.48501">
        <ele>70.8</ele>
        <time>2025-11-16T08:19:58Z</time>
      </trkpt>
      <trkpt lat="48.3741" lon="2.48517">
        <ele>69.8</ele>
        <time>2025-11-16T08:20:00Z</time>
      </trkpt>
      <trkpt lat="48.37412" lon="2.48532">
        <ele>69</ele>
        <time>2025-11-16T08:20:02Z</time>
      </trkpt>
      <trkpt lat="48.3741" lon="2.48545">
        <ele>68.5</ele>
        <time>2025-11-16T08:20:04Z</time>
      </trkpt>
      <trkpt lat="48.37405" lon="2.48553">
        <ele>68.1</ele>
        <time>2025-11-16T08:20:06Z</time>
      </trkpt>
      <trkpt lat="48.37399" lon="2.48557">
        <ele>68</ele>
        <time>2025-11-16T08:20:08Z</time>
      </trkpt>
      <trkpt lat="48.37391" lon="2.48559">
        <ele>67.9</ele>
        <time>2025-11-16T08:20:10Z</time>
      </trkpt>
      <trkpt lat="48.37384" lon="2.48562">
        <ele>68.1</ele>
        <time>2025-11-16T08:20:12Z</time>
      </trkpt>
      <trkpt lat="48.37376" lon="2.48564">
        <ele>68.4</ele>
        <time>2025-11-16T08:20:14Z</time>
      </trkpt>
      <trkpt lat="48.3737" lon="2.48568">
        <ele>68.6</ele>
        <time>2025-11-16T08:20:16Z</time>
      </trkpt>
      <trkpt lat="48.37362" lon="2.48573">
        <ele>68.7</ele>
        <time>2025-11-16T08:20:18Z</time>
      </trkpt>
      <trkpt lat="48.37354" lon="2.48577">
        <ele>68.7</ele>
        <time>2025-11-16T08:20:20Z</time>
      </trkpt>
      <trkpt lat="48.37347" lon="2.48582">
        <ele>68.6</ele>
        <time>2025-11-16T08:20:22Z</time>
      </trkpt>
      <trkpt lat="48.37339" lon="2.48585">
        <ele>68.7</ele>
        <time>2025-11-16T08:20:24Z</time>
      </trkpt>
      <trkpt lat="48.37332" lon="2.4859">
        <ele>68.8</ele>
        <time>2025-11-16T08:20:26Z</time>
      </trkpt>
      <trkpt lat="48.37325" lon="2.48596">
        <ele>68.6</ele>
        <time>2025-11-16T08:20:28Z</time>
      </trkpt>
      <trkpt lat="48.37318" lon="2.48602">
        <ele>68.3</ele>
        <time>2025-11-16T08:20:30Z</time>
      </trkpt>
      <trkpt lat="48.37311" lon="2.48607">
        <ele>68.2</ele>
        <time>2025-11-16T08:20:32Z</time>
      </trkpt>
      <trkpt lat="48.37304" lon="2.48613">
        <ele>68</ele>
        <time>2025-11-16T08:20:34Z</time>
      </trkpt>
      <trkpt lat="48.37297" lon="2.48619">
        <ele>68.1</ele>
        <time>2025-11-16T08:20:36Z</time>
      </trkpt>
      <trkpt lat="48.37292" lon="2.48624">
        <ele>68.2</ele>
        <time>2025-11-16T08:20:38Z</time>
      </trkpt>
      <trkpt lat="48.37285" lon="2.48631">
        <ele>68.5</ele>
        <time>2025-11-16T08:20:40Z</time>
      </trkpt>
      <trkpt lat="48.37279" lon="2.48637">
        <ele>68.9</ele>
        <time>2025-11-16T08:20:42Z</time>
      </trkpt>
      <trkpt lat="48.37274" lon="2.48644">
        <ele>69.4</ele>
        <time>2025-11-16T08:20:44Z</time>
      </trkpt>
      <trkpt lat="48.3727" lon="2.48652">
        <ele>69.7</ele>
        <time>2025-11-16T08:20:46Z</time>
      </trkpt>
      <trkpt lat="48.37268" lon="2.48663">
        <ele>69.7</ele>
        <time>2025-11-16T08:20:48Z</time>
      </trkpt>
      <trkpt lat="48.37267" lon="2.48673">
        <ele>69.8</ele>
        <time>2025-11-16T08:20:50Z</time>
      </trkpt>
      <trkpt lat="48.37264" lon="2.48684">
        <ele>70</ele>
        <time>2025-11-16T08:20:52Z</time>
      </trkpt>
      <trkpt lat="48.37263" lon="2.48694">
        <ele>70.1</ele>
        <time>2025-11-16T08:20:54Z</time>
      </trkpt>
      <trkpt lat="48.3726" lon="2.48705">
        <ele>70</ele>
        <time>2025-11-16T08:20:56Z</time>
      </trkpt>
      <trkpt lat="48.37258" lon="2.48715">
        <ele>69.9</ele>
        <time>2025-11-16T08:20:58Z</time>
      </trkpt>
      <trkpt lat="48.37256" lon="2.48724">
        <ele>69.8</ele>
        <time>2025-11-16T08:21:00Z</time>
      </trkpt>
      <trkpt lat="48.37254" lon="2.48734">
        <ele>69.9</ele>
        <time>2025-11-16T08:21:02Z</time>
      </trkpt>
      <trkpt lat="48.37252" lon="2.48744">
        <ele>69.9</ele>
        <time>2025-11-16T08:21:04Z</time>
      </trkpt>
      <trkpt lat="48.3725" lon="2.48753">
        <ele>70</ele>
        <time>2025-11-16T08:21:06Z</time>
      </trkpt>
      <trkpt lat="48.37248" lon="2.48764">
        <ele>70.2</ele>
        <time>2025-11-16T08:21:08Z</time>
      </trkpt>
      <trkpt lat="48.37248" lon="2.48774">
        <ele>70.3</ele>
        <time>2025-11-16T08:21:10Z</time>
      </trkpt>
      <trkpt lat="48.37246" lon="2.48785">
        <ele>70.4</ele>
        <time>2025-11-16T08:21:12Z</time>
      </trkpt>
      <trkpt lat="48.37245" lon="2.48796">
        <ele>70.4</ele>
        <time>2025-11-16T08:21:14Z</time>
      </trkpt>
      <trkpt lat="48.37243" lon="2.48806">
        <ele>70.5</ele>
        <time>2025-11-16T08:21:16Z</time>
      </trkpt>
      <trkpt lat="48.3724" lon="2.48816">
        <ele>70.7</ele>
        <time>2025-11-16T08:21:18Z</time>
      </trkpt>
      <trkpt lat="48.37237" lon="2.48825">
        <ele>70.9</ele>
        <time>2025-11-16T08:21:20Z</time>
      </trkpt>
      <trkpt lat="48.37235" lon="2.48836">
        <ele>71.1</ele>
        <time>2025-11-16T08:21:22Z</time>
      </trkpt>
      <trkpt lat="48.37232" lon="2.48845">
        <ele>71.3</ele>
        <time>2025-11-16T08:21:24Z</time>
      </trkpt>
      <trkpt lat="48.3723" lon="2.48854">
        <ele>71.4</ele>
        <time>2025-11-16T08:21:26Z</time>
      </trkpt>
      <trkpt lat="48.37227" lon="2.48864">
        <ele>71.6</ele>
        <time>2025-11-16T08:21:28Z</time>
      </trkpt>
      <trkpt lat="48.37225" lon="2.48873">
        <ele>71.8</ele>
        <time>2025-11-16T08:21:30Z</time>
      </trkpt>
      <trkpt lat="48.37224" lon="2.48884">
        <ele>71.9</ele>
        <time>2025-11-16T08:21:32Z</time>
      </trkpt>
      <trkpt lat="48.37224" lon="2.48895">
        <ele>72</ele>
        <time>2025-11-16T08:21:34Z</time>
      </trkpt>
      <trkpt lat="48.37225" lon="2.48906">
        <ele>72.4</ele>
        <time>2025-11-16T08:21:36Z</time>
      </trkpt>
      <trkpt lat="48.37224" lon="2.48917">
        <ele>72.8</ele>
        <time>2025-11-16T08:21:38Z</time>
      </trkpt>
      <trkpt lat="48.37224" lon="2.48929">
        <ele>72.8</ele>
        <time>2025-11-16T08:21:40Z</time>
      </trkpt>
      <trkpt lat="48.37226" lon="2.48942">
        <ele>72.5</ele>
        <time>2025-11-16T08:21:42Z</time>
      </trkpt>
      <trkpt lat="48.37227" lon="2.48955">
        <ele>72</ele>
        <time>2025-11-16T08:21:44Z</time>
      </trkpt>
      <trkpt lat="48.37226" lon="2.4897">
        <ele>71.6</ele>
        <time>2025-11-16T08:21:46Z</time>
      </trkpt>
      <trkpt lat="48.37227" lon="2.48985">
        <ele>71.1</ele>
        <time>2025-11-16T08:21:48Z</time>
      </trkpt>
      <trkpt lat="48.37227" lon="2.49">
        <ele>70.7</ele>
        <time>2025-11-16T08:21:50Z</time>
      </trkpt>
      <trkpt lat="48.37225" lon="2.49012">
        <ele>70.3</ele>
        <time>2025-11-16T08:21:52Z</time>
      </trkpt>
      <trkpt lat="48.37225" lon="2.49026">
        <ele>69.9</ele>
        <time>2025-11-16T08:21:54Z</time>
      </trkpt>
      <trkpt lat="48.37225" lon="2.4904">
        <ele>69.8</ele>
        <time>2025-11-16T08:21:56Z</time>
      </trkpt>
      <trkpt lat="48.37224" lon="2.49052">
        <ele>69.9</ele>
        <time>2025-11-16T08:21:58Z</time>
      </trkpt>
      <trkpt lat="48.37224" lon="2.49066">
        <ele>69.5</ele>
        <time>2025-11-16T08:22:00Z</time>
      </trkpt>
      <trkpt lat="48.37223" lon="2.49079">
        <ele>69.1</ele>
        <time>2025-11-16T08:22:02Z</time>
      </trkpt>
      <trkpt lat="48.37224" lon="2.49091">
        <ele>68.9</ele>
        <time>2025-11-16T08:22:04Z</time>
      </trkpt>
      <trkpt lat="48.37227" lon="2.49103">
        <ele>68.8</ele>
        <time>2025-11-16T08:22:06Z</time>
      </trkpt>
      <trkpt lat="48.37232" lon="2.49114">
        <ele>68.6</ele>
        <time>2025-11-16T08:22:08Z</time>
      </trkpt>
      <trkpt lat="48.37237" lon="2.49123">
        <ele>68.5</ele>
        <time>2025-11-16T08:22:10Z</time>
      </trkpt>
      <trkpt lat="48.37241" lon="2.49134">
        <ele>68.3</ele>
        <time>2025-11-16T08:22:12Z</time>
      </trkpt>
      <trkpt lat="48.37248" lon="2.49144">
        <ele>68.1</ele>
        <time>2025-11-16T08:22:14Z</time>
      </trkpt>
      <trkpt lat="48.37256" lon="2.49153">
        <ele>68</ele>
        <time>2025-11-16T08:22:16Z</time>
      </trkpt>
      <trkpt lat="48.37264" lon="2.49162">
        <ele>68</ele>
        <time>2025-11-16T08:22:18Z</time>
      </trkpt>
      <trkpt lat="48.37273" lon="2.49171">
        <ele>68</ele>
        <time>2025-11-16T08:22:20Z</time>
      </trkpt>
      <trkpt lat="48.3728" lon="2.49182">
        <ele>68</ele>
        <time>2025-11-16T08:22:22Z</time>
      </trkpt>
      <trkpt lat="48.37289" lon="2.49191">
        <ele>68</ele>
        <time>2025-11-16T08:22:24Z</time>
      </trkpt>
      <trkpt lat="48.37295" lon="2.492">
        <ele>68</ele>
        <time>2025-11-16T08:22:26Z</time>
      </trkpt>
      <trkpt lat="48.37301" lon="2.4921">
        <ele>68</ele>
        <time>2025-11-16T08:22:28Z</time>
      </trkpt>
      <trkpt lat="48.37305" lon="2.49223">
        <ele>68</ele>
        <time>2025-11-16T08:22:30Z</time>
      </trkpt>
      <trkpt lat="48.37309" lon="2.49237">
        <ele>67.9</ele>
        <time>2025-11-16T08:22:32Z</time>
      </trkpt>
      <trkpt lat="48.37315" lon="2.4925">
        <ele>67.6</ele>
        <time>2025-11-16T08:22:34Z</time>
      </trkpt>
      <trkpt lat="48.37322" lon="2.49264">
        <ele>67.4</ele>
        <time>2025-11-16T08:22:36Z</time>
      </trkpt>
      <trkpt lat="48.37328" lon="2.49278">
        <ele>67.2</ele>
        <time>2025-11-16T08:22:38Z</time>
      </trkpt>
      <trkpt lat="48.37333" lon="2.49293">
        <ele>67</ele>
        <time>2025-11-16T08:22:40Z</time>
      </trkpt>
      <trkpt lat="48.37337" lon="2.49307">
        <ele>67.1</ele>
        <time>2025-11-16T08:22:42Z</time>
      </trkpt>
      <trkpt lat="48.37341" lon="2.4932">
        <ele>67.4</ele>
        <time>2025-11-16T08:22:44Z</time>
      </trkpt>
      <trkpt lat="48.3735" lon="2.49326">
        <ele>67.3</ele>
        <time>2025-11-16T08:22:46Z</time>
      </trkpt>
      <trkpt lat="48.37361" lon="2.49324">
        <ele>67</ele>
        <time>2025-11-16T08:22:48Z</time>
      </trkpt>
      <trkpt lat="48.37372" lon="2.4932">
        <ele>67</ele>
        <time>2025-11-16T08:22:50Z</time>
      </trkpt>
      <trkpt lat="48.37383" lon="2.49316">
        <ele>67</ele>
        <time>2025-11-16T08:22:52Z</time>
      </trkpt>
      <trkpt lat="48.37393" lon="2.49311">
        <ele>66.8</ele>
        <time>2025-11-16T08:22:54Z</time>
      </trkpt>
      <trkpt lat="48.37403" lon="2.49307">
        <ele>66.5</ele>
        <time>2025-11-16T08:22:56Z</time>
      </trkpt>
      <trkpt lat="48.37413" lon="2.49303">
        <ele>66.1</ele>
        <time>2025-11-16T08:22:58Z</time>
      </trkpt>
      <trkpt lat="48.37424" lon="2.49299">
        <ele>66</ele>
        <time>2025-11-16T08:23:00Z</time>
      </trkpt>
      <trkpt lat="48.37435" lon="2.49294">
        <ele>66</ele>
        <time>2025-11-16T08:23:02Z</time>
      </trkpt>
      <trkpt lat="48.37445" lon="2.49289">
        <ele>66</ele>
        <time>2025-11-16T08:23:04Z</time>
      </trkpt>
      <trkpt lat="48.37456" lon="2.49284">
        <ele>66</ele>
        <time>2025-11-16T08:23:06Z</time>
      </trkpt>
      <trkpt lat="48.37467" lon="2.49279">
        <ele>66</ele>
        <time>2025-11-16T08:23:08Z</time>
      </trkpt>
      <trkpt lat="48.37478" lon="2.49279">
        <ele>66</ele>
        <time>2025-11-16T08:23:10Z</time>
      </trkpt>
      <trkpt lat="48.37488" lon="2.49285">
        <ele>66.2</ele>
        <time>2025-11-16T08:23:12Z</time>
      </trkpt>
      <trkpt lat="48.37493" lon="2.493">
        <ele>66.6</ele>
        <time>2025-11-16T08:23:14Z</time>
      </trkpt>
      <trkpt lat="48.37494" lon="2.49315">
        <ele>66.8</ele>
        <time>2025-11-16T08:23:16Z</time>
      </trkpt>
      <trkpt lat="48.37494" lon="2.49331">
        <ele>66.8</ele>
        <time>2025-11-16T08:23:18Z</time>
      </trkpt>
      <trkpt lat="48.37493" lon="2.49347">
        <ele>66.8</ele>
        <time>2025-11-16T08:23:20Z</time>
      </trkpt>
      <trkpt lat="48.37492" lon="2.49362">
        <ele>66.7</ele>
        <time>2025-11-16T08:23:22Z</time>
      </trkpt>
      <trkpt lat="48.37492" lon="2.49377">
        <ele>66.7</ele>
        <time>2025-11-16T08:23:24Z</time>
      </trkpt>
      <trkpt lat="48.37492" lon="2.49391">
        <ele>66.6</ele>
        <time>2025-11-16T08:23:26Z</time>
      </trkpt>
      <trkpt lat="48.37494" lon="2.49403">
        <ele>66.4</ele>
        <time>2025-11-16T08:23:28Z</time>
      </trkpt>
      <trkpt lat="48.37498" lon="2.49413">
        <ele>66.1</ele>
        <time>2025-11-16T08:23:30Z</time>
      </trkpt>
      <trkpt lat="48.37501" lon="2.49423">
        <ele>66</ele>
        <time>2025-11-16T08:23:32Z</time>
      </trkpt>
      <trkpt lat="48.37505" lon="2.49433">
        <ele>66</ele>
        <time>2025-11-16T08:23:34Z</time>
      </trkpt>
      <trkpt lat="48.37509" lon="2.49444">
        <ele>66</ele>
        <time>2025-11-16T08:23:36Z</time>
      </trkpt>
      <trkpt lat="48.37511" lon="2.49456">
        <ele>66</ele>
        <time>2025-11-16T08:23:38Z</time>
      </trkpt>
      <trkpt lat="48.37513" lon="2.49468">
        <ele>66</ele>
        <time>2025-11-16T08:23:40Z</time>
      </trkpt>
      <trkpt lat="48.37514" lon="2.49479">
        <ele>66</ele>
        <time>2025-11-16T08:23:42Z</time>
      </trkpt>
      <trkpt lat="48.37514" lon="2.49491">
        <ele>66</ele>
        <time>2025-11-16T08:23:44Z</time>
      </trkpt>
      <trkpt lat="48.37516" lon="2.49502">
        <ele>66</ele>
        <time>2025-11-16T08:23:46Z</time>
      </trkpt>
      <trkpt lat="48.37518" lon="2.49511">
        <ele>66</ele>
        <time>2025-11-16T08:23:48Z</time>
      </trkpt>
      <trkpt lat="48.3752" lon="2.49521">
        <ele>66</ele>
        <time>2025-11-16T08:23:50Z</time>
      </trkpt>
      <trkpt lat="48.37521" lon="2.49532">
        <ele>66</ele>
        <time>2025-11-16T08:23:52Z</time>
      </trkpt>
      <trkpt lat="48.3752" lon="2.49544">
        <ele>66.2</ele>
        <time>2025-11-16T08:23:54Z</time>
      </trkpt>
      <trkpt lat="48.3752" lon="2.49558">
        <ele>66.3</ele>
        <time>2025-11-16T08:23:56Z</time>
      </trkpt>
      <trkpt lat="48.3752" lon="2.49572">
        <ele>66.3</ele>
        <time>2025-11-16T08:23:58Z</time>
      </trkpt>
      <trkpt lat="48.3752" lon="2.49586">
        <ele>66.3</ele>
        <time>2025-11-16T08:24:00Z</time>
      </trkpt>
      <trkpt lat="48.37522" lon="2.49599">
        <ele>66.2</ele>
        <time>2025-11-16T08:24:02Z</time>
      </trkpt>
      <trkpt lat="48.37527" lon="2.4961">
        <ele>66</ele>
        <time>2025-11-16T08:24:04Z</time>
      </trkpt>
      <trkpt lat="48.37534" lon="2.4962">
        <ele>66.2</ele>
        <time>2025-11-16T08:24:06Z</time>
      </trkpt>
      <trkpt lat="48.3754" lon="2.49628">
        <ele>66.3</ele>
        <time>2025-11-16T08:24:08Z</time>
      </trkpt>
      <trkpt lat="48.37546" lon="2.49635">
        <ele>66.3</ele>
        <time>2025-11-16T08:24:10Z</time>
      </trkpt>
      <trkpt lat="48.37552" lon="2.49642">
        <ele>66.1</ele>
        <time>2025-11-16T08:24:12Z</time>
      </trkpt>
      <trkpt lat="48.37561" lon="2.49642">
        <ele>66</ele>
        <time>2025-11-16T08:24:14Z</time>
      </trkpt>
      <trkpt lat="48.37568" lon="2.49643">
        <ele>66</ele>
        <time>2025-11-16T08:24:16Z</time>
      </trkpt>
      <trkpt lat="48.37576" lon="2.49643">
        <ele>66</ele>
        <time>2025-11-16T08:24:18Z</time>
      </trkpt>
      <trkpt lat="48.37584" lon="2.49643">
        <ele>66</ele>
        <time>2025-11-16T08:24:20Z</time>
      </trkpt>
      <trkpt lat="48.37592" lon="2.49644">
        <ele>66</ele>
        <time>2025-11-16T08:24:22Z</time>
      </trkpt>
      <trkpt lat="48.37599" lon="2.49644">
        <ele>66</ele>
        <time>2025-11-16T08:24:24Z</time>
      </trkpt>
      <trkpt lat="48.37607" lon="2.49645">
        <ele>66</ele>
        <time>2025-11-16T08:24:26Z</time>
      </trkpt>
      <trkpt lat="48.37614" lon="2.49645">
        <ele>66</ele>
        <time>2025-11-16T08:24:28Z</time>
      </trkpt>
      <trkpt lat="48.3762" lon="2.49648">
        <ele>66</ele>
        <time>2025-11-16T08:24:30Z</time>
      </trkpt>
      <trkpt lat="48.37625" lon="2.4965">
        <ele>66</ele>
        <time>2025-11-16T08:24:32Z</time>
      </trkpt>
      <trkpt lat="48.37631" lon="2.4965">
        <ele>66</ele>
        <time>2025-11-16T08:24:34Z</time>
      </trkpt>
      <trkpt lat="48.3764" lon="2.49651">
        <ele>66</ele>
        <time>2025-11-16T08:24:36Z</time>
      </trkpt>
      <trkpt lat="48.37648" lon="2.49654">
        <ele>66</ele>
        <time>2025-11-16T08:24:38Z</time>
      </trkpt>
      <trkpt lat="48.37656" lon="2.49659">
        <ele>66</ele>
        <time>2025-11-16T08:24:40Z</time>
      </trkpt>
      <trkpt lat="48.37664" lon="2.49663">
        <ele>66</ele>
        <time>2025-11-16T08:24:42Z</time>
      </trkpt>
      <trkpt lat="48.37673" lon="2.49665">
        <ele>66</ele>
        <time>2025-11-16T08:24:44Z</time>
      </trkpt>
      <trkpt lat="48.37682" lon="2.49666">
        <ele>66</ele>
        <time>2025-11-16T08:24:46Z</time>
      </trkpt>
      <trkpt lat="48.37691" lon="2.49665">
        <ele>66</ele>
        <time>2025-11-16T08:24:48Z</time>
      </trkpt>
      <trkpt lat="48.37699" lon="2.49668">
        <ele>66</ele>
        <time>2025-11-16T08:24:50Z</time>
      </trkpt>
      <trkpt lat="48.37708" lon="2.49671">
        <ele>66</ele>
        <time>2025-11-16T08:24:52Z</time>
      </trkpt>
      <trkpt lat="48.37718" lon="2.49678">
        <ele>66</ele>
        <time>2025-11-16T08:24:54Z</time>
      </trkpt>
      <trkpt lat="48.37724" lon="2.49687">
        <ele>66.1</ele>
        <time>2025-11-16T08:24:56Z</time>
      </trkpt>
      <trkpt lat="48.37731" lon="2.49697">
        <ele>66.3</ele>
        <time>2025-11-16T08:24:58Z</time>
      </trkpt>
      <trkpt lat="48.37737" lon="2.49708">
        <ele>66.5</ele>
        <time>2025-11-16T08:25:00Z</time>
      </trkpt>
      <trkpt lat="48.37742" lon="2.49719">
        <ele>66.7</ele>
        <time>2025-11-16T08:25:02Z</time>
      </trkpt>
      <trkpt lat="48.37747" lon="2.4973">
        <ele>66.9</ele>
        <time>2025-11-16T08:25:04Z</time>
      </trkpt>
      <trkpt lat="48.37752" lon="2.49741">
        <ele>67.1</ele>
        <time>2025-11-16T08:25:06Z</time>
      </trkpt>
      <trkpt lat="48.37757" lon="2.49753">
        <ele>67.2</ele>
        <time>2025-11-16T08:25:08Z</time>
      </trkpt>
      <trkpt lat="48.37762" lon="2.49763">
        <ele>67.4</ele>
        <time>2025-11-16T08:25:10Z</time>
      </trkpt>
      <trkpt lat="48.37766" lon="2.49775">
        <ele>67.6</ele>
        <time>2025-11-16T08:25:12Z</time>
      </trkpt>
      <trkpt lat="48.37771" lon="2.49785">
        <ele>67.7</ele>
        <time>2025-11-16T08:25:14Z</time>
      </trkpt>
      <trkpt lat="48.37775" lon="2.49796">
        <ele>67.9</ele>
        <time>2025-11-16T08:25:16Z</time>
      </trkpt>
      <trkpt lat="48.3778" lon="2.49809">
        <ele>68.1</ele>
        <time>2025-11-16T08:25:18Z</time>
      </trkpt>
      <trkpt lat="48.37784" lon="2.49819">
        <ele>68.2</ele>
        <time>2025-11-16T08:25:20Z</time>
      </trkpt>
      <trkpt lat="48.37789" lon="2.49831">
        <ele>68.4</ele>
        <time>2025-11-16T08:25:22Z</time>
      </trkpt>
      <trkpt lat="48.37793" lon="2.49842">
        <ele>68.6</ele>
        <time>2025-11-16T08:25:24Z</time>
      </trkpt>
      <trkpt lat="48.37797" lon="2.49853">
        <ele>68.7</ele>
        <time>2025-11-16T08:25:26Z</time>
      </trkpt>
      <trkpt lat="48.37801" lon="2.49864">
        <ele>68.8</ele>
        <time>2025-11-16T08:25:28Z</time>
      </trkpt>
      <trkpt lat="48.37806" lon="2.49875">
        <ele>69</ele>
        <time>2025-11-16T08:25:30Z</time>
      </trkpt>
      <trkpt lat="48.3781" lon="2.49886">
        <ele>69.2</ele>
        <time>2025-11-16T08:25:32Z</time>
      </trkpt>
      <trkpt lat="48.37815" lon="2.49897">
        <ele>69.3</ele>
        <time>2025-11-16T08:25:34Z</time>
      </trkpt>
      <trkpt lat="48.37819" lon="2.49908">
        <ele>69.5</ele>
        <time>2025-11-16T08:25:36Z</time>
      </trkpt>
      <trkpt lat="48.37824" lon="2.49917">
        <ele>69.7</ele>
        <time>2025-11-16T08:25:38Z</time>
      </trkpt>
      <trkpt lat="48.37828" lon="2.49929">
        <ele>69.8</ele>
        <time>2025-11-16T08:25:40Z</time>
      </trkpt>
      <trkpt lat="48.37833" lon="2.4994">
        <ele>70</ele>
        <time>2025-11-16T08:25:42Z</time>
      </trkpt>
      <trkpt lat="48.37839" lon="2.49951">
        <ele>70.2</ele>
        <time>2025-11-16T08:25:44Z</time>
      </trkpt>
      <trkpt lat="48.37844" lon="2.49961">
        <ele>70.4</ele>
        <time>2025-11-16T08:25:46Z</time>
      </trkpt>
      <trkpt lat="48.3785" lon="2.4997">
        <ele>70.6</ele>
        <time>2025-11-16T08:25:48Z</time>
      </trkpt>
      <trkpt lat="48.37856" lon="2.49979">
        <ele>70.8</ele>
        <time>2025-11-16T08:25:50Z</time>
      </trkpt>
      <trkpt lat="48.37861" lon="2.49989">
        <ele>71</ele>
        <time>2025-11-16T08:25:52Z</time>
      </trkpt>
      <trkpt lat="48.37864" lon="2.50001">
        <ele>71.2</ele>
        <time>2025-11-16T08:25:54Z</time>
      </trkpt>
      <trkpt lat="48.37868" lon="2.50013">
        <ele>71.8</ele>
        <time>2025-11-16T08:25:56Z</time>
      </trkpt>
      <trkpt lat="48.37871" lon="2.50026">
        <ele>72.3</ele>
        <time>2025-11-16T08:25:58Z</time>
      </trkpt>
      <trkpt lat="48.37874" lon="2.50038">
        <ele>72.5</ele>
        <time>2025-11-16T08:26:00Z</time>
      </trkpt>
      <trkpt lat="48.37878" lon="2.50052">
        <ele>72.6</ele>
        <time>2025-11-16T08:26:02Z</time>
      </trkpt>
      <trkpt lat="48.37881" lon="2.50065">
        <ele>72.7</ele>
        <time>2025-11-16T08:26:04Z</time>
      </trkpt>
      <trkpt lat="48.37883" lon="2.5008">
        <ele>72.8</ele>
        <time>2025-11-16T08:26:06Z</time>
      </trkpt>
      <trkpt lat="48.37887" lon="2.50094">
        <ele>72.9</ele>
        <time>2025-11-16T08:26:08Z</time>
      </trkpt>
      <trkpt lat="48.3789" lon="2.50111">
        <ele>73</ele>
        <time>2025-11-16T08:26:10Z</time>
      </trkpt>
      <trkpt lat="48.37892" lon="2.50126">
        <ele>73</ele>
        <time>2025-11-16T08:26:12Z</time>
      </trkpt>
      <trkpt lat="48.37893" lon="2.50142">
        <ele>73</ele>
        <time>2025-11-16T08:26:14Z</time>
      </trkpt>
      <trkpt lat="48.37894" lon="2.50156">
        <ele>73</ele>
        <time>2025-11-16T08:26:16Z</time>
      </trkpt>
      <trkpt lat="48.37895" lon="2.50171">
        <ele>73</ele>
        <time>2025-11-16T08:26:18Z</time>
      </trkpt>
      <trkpt lat="48.37896" lon="2.50185">
        <ele>73</ele>
        <time>2025-11-16T08:26:20Z</time>
      </trkpt>
      <trkpt lat="48.37897" lon="2.50201">
        <ele>72.8</ele>
        <time>2025-11-16T08:26:22Z</time>
      </trkpt>
      <trkpt lat="48.37899" lon="2.50215">
        <ele>72.5</ele>
        <time>2025-11-16T08:26:24Z</time>
      </trkpt>
      <trkpt lat="48.37899" lon="2.5023">
        <ele>72.4</ele>
        <time>2025-11-16T08:26:26Z</time>
      </trkpt>
      <trkpt lat="48.379" lon="2.50244">
        <ele>72.4</ele>
        <time>2025-11-16T08:26:28Z</time>
      </trkpt>
      <trkpt lat="48.37903" lon="2.50258">
        <ele>72.5</ele>
        <time>2025-11-16T08:26:30Z</time>
      </trkpt>
      <trkpt lat="48.37908" lon="2.50271">
        <ele>72.7</ele>
        <time>2025-11-16T08:26:32Z</time>
      </trkpt>
      <trkpt lat="48.37912" lon="2.50281">
        <ele>72.8</ele>
        <time>2025-11-16T08:26:34Z</time>
      </trkpt>
      <trkpt lat="48.3792" lon="2.50291">
        <ele>73</ele>
        <time>2025-11-16T08:26:36Z</time>
      </trkpt>
      <trkpt lat="48.37928" lon="2.503">
        <ele>73</ele>
        <time>2025-11-16T08:26:38Z</time>
      </trkpt>
      <trkpt lat="48.37937" lon="2.50309">
        <ele>73</ele>
        <time>2025-11-16T08:26:40Z</time>
      </trkpt>
      <trkpt lat="48.37943" lon="2.50319">
        <ele>73</ele>
        <time>2025-11-16T08:26:42Z</time>
      </trkpt>
      <trkpt lat="48.37948" lon="2.50328">
        <ele>73</ele>
        <time>2025-11-16T08:26:44Z</time>
      </trkpt>
      <trkpt lat="48.37956" lon="2.50338">
        <ele>73</ele>
        <time>2025-11-16T08:26:46Z</time>
      </trkpt>
      <trkpt lat="48.37963" lon="2.50347">
        <ele>73</ele>
        <time>2025-11-16T08:26:48Z</time>
      </trkpt>
      <trkpt lat="48.3797" lon="2.50356">
        <ele>73</ele>
        <time>2025-11-16T08:26:50Z</time>
      </trkpt>
      <trkpt lat="48.37976" lon="2.50364">
        <ele>73.1</ele>
        <time>2025-11-16T08:26:52Z</time>
      </trkpt>
      <trkpt lat="48.37985" lon="2.50369">
        <ele>73.3</ele>
        <time>2025-11-16T08:26:54Z</time>
      </trkpt>
      <trkpt lat="48.37994" lon="2.50371">
        <ele>73.4</ele>
        <time>2025-11-16T08:26:56Z</time>
      </trkpt>
      <trkpt lat="48.38002" lon="2.50373">
        <ele>73.3</ele>
        <time>2025-11-16T08:26:58Z</time>
      </trkpt>
      <trkpt lat="48.38012" lon="2.50377">
        <ele>72.7</ele>
        <time>2025-11-16T08:27:00Z</time>
      </trkpt>
      <trkpt lat="48.38021" lon="2.50383">
        <ele>72.3</ele>
        <time>2025-11-16T08:27:02Z</time>
      </trkpt>
      <trkpt lat="48.3803" lon="2.50389">
        <ele>71.8</ele>
        <time>2025-11-16T08:27:04Z</time>
      </trkpt>
      <trkpt lat="48.3804" lon="2.50398">
        <ele>71.3</ele>
        <time>2025-11-16T08:27:06Z</time>
      </trkpt>
      <trkpt lat="48.38048" lon="2.50407">
        <ele>70.7</ele>
        <time>2025-11-16T08:27:08Z</time>
      </trkpt>
      <trkpt lat="48.38056" lon="2.50418">
        <ele>70</ele>
        <time>2025-11-16T08:27:10Z</time>
      </trkpt>
      <trkpt lat="48.38062" lon="2.50431">
        <ele>70.2</ele>
        <time>2025-11-16T08:27:12Z</time>
      </trkpt>
      <trkpt lat="48.38068" lon="2.50445">
        <ele>70.1</ele>
        <time>2025-11-16T08:27:14Z</time>
      </trkpt>
      <trkpt lat="48.38072" lon="2.50458">
        <ele>70</ele>
        <time>2025-11-16T08:27:16Z</time>
      </trkpt>
      <trkpt lat="48.38077" lon="2.50473">
        <ele>69.7</ele>
        <time>2025-11-16T08:27:18Z</time>
      </trkpt>
      <trkpt lat="48.38082" lon="2.50489">
        <ele>69.2</ele>
        <time>2025-11-16T08:27:20Z</time>
      </trkpt>
      <trkpt lat="48.38087" lon="2.50503">
        <ele>68.9</ele>
        <time>2025-11-16T08:27:22Z</time>
      </trkpt>
      <trkpt lat="48.38093" lon="2.50516">
        <ele>68.7</ele>
        <time>2025-11-16T08:27:24Z</time>
      </trkpt>
      <trkpt lat="48.38098" lon="2.50531">
        <ele>68.5</ele>
        <time>2025-11-16T08:27:26Z</time>
      </trkpt>
      <trkpt lat="48.38104" lon="2.50542">
        <ele>68.6</ele>
        <time>2025-11-16T08:27:28Z</time>
      </trkpt>
      <trkpt lat="48.38109" lon="2.50551">
        <ele>68.8</ele>
        <time>2025-11-16T08:27:30Z</time>
      </trkpt>
      <trkpt lat="48.38109" lon="2.5056">
        <ele>69</ele>
        <time>2025-11-16T08:27:32Z</time>
      </trkpt>
      <trkpt lat="48.38106" lon="2.50568">
        <ele>69</ele>
        <time>2025-11-16T08:27:34Z</time>
      </trkpt>
      <trkpt lat="48.38105" lon="2.50578">
        <ele>69</ele>
        <time>2025-11-16T08:27:36Z</time>
      </trkpt>
      <trkpt lat="48.38102" lon="2.5059">
        <ele>69</ele>
        <time>2025-11-16T08:27:38Z</time>
      </trkpt>
      <trkpt lat="48.38097" lon="2.50599">
        <ele>69</ele>
        <time>2025-11-16T08:27:40Z</time>
      </trkpt>
      <trkpt lat="48.38091" lon="2.50609">
        <ele>69</ele>
        <time>2025-11-16T08:27:42Z</time>
      </trkpt>
      <trkpt lat="48.38084" lon="2.50619">
        <ele>69.3</ele>
        <time>2025-11-16T08:27:44Z</time>
      </trkpt>
      <trkpt lat="48.38078" lon="2.50628">
        <ele>69.8</ele>
        <time>2025-11-16T08:27:46Z</time>
      </trkpt>
      <trkpt lat="48.3807" lon="2.50639">
        <ele>70</ele>
        <time>2025-11-16T08:27:48Z</time>
      </trkpt>
      <trkpt lat="48.38064" lon="2.5065">
        <ele>70</ele>
        <time>2025-11-16T08:27:50Z</time>
      </trkpt>
      <trkpt lat="48.38059" lon="2.50658">
        <ele>70</ele>
        <time>2025-11-16T08:27:52Z</time>
      </trkpt>
      <trkpt lat="48.38052" lon="2.50667">
        <ele>70.1</ele>
        <time>2025-11-16T08:27:54Z</time>
      </trkpt>
      <trkpt lat="48.38046" lon="2.50676">
        <ele>70.2</ele>
        <time>2025-11-16T08:27:56Z</time>
      </trkpt>
      <trkpt lat="48.38039" lon="2.50685">
        <ele>70.2</ele>
        <time>2025-11-16T08:27:58Z</time>
      </trkpt>
      <trkpt lat="48.38031" lon="2.50693">
        <ele>70</ele>
        <time>2025-11-16T08:28:00Z</time>
      </trkpt>
      <trkpt lat="48.38024" lon="2.50701">
        <ele>70.1</ele>
        <time>2025-11-16T08:28:02Z</time>
      </trkpt>
      <trkpt lat="48.38017" lon="2.50709">
        <ele>70.2</ele>
        <time>2025-11-16T08:28:04Z</time>
      </trkpt>
      <trkpt lat="48.3801" lon="2.50717">
        <ele>70.1</ele>
        <time>2025-11-16T08:28:06Z</time>
      </trkpt>
      <trkpt lat="48.38001" lon="2.50727">
        <ele>70</ele>
        <time>2025-11-16T08:28:08Z</time>
      </trkpt>
      <trkpt lat="48.37995" lon="2.50735">
        <ele>70.1</ele>
        <time>2025-11-16T08:28:10Z</time>
      </trkpt>
      <trkpt lat="48.37987" lon="2.50746">
        <ele>70.1</ele>
        <time>2025-11-16T08:28:12Z</time>
      </trkpt>
      <trkpt lat="48.37979" lon="2.50757">
        <ele>70.2</ele>
        <time>2025-11-16T08:28:14Z</time>
      </trkpt>
      <trkpt lat="48.37971" lon="2.50766">
        <ele>70</ele>
        <time>2025-11-16T08:28:16Z</time>
      </trkpt>
      <trkpt lat="48.37962" lon="2.50774">
        <ele>70.1</ele>
        <time>2025-11-16T08:28:18Z</time>
      </trkpt>
      <trkpt lat="48.37953" lon="2.50782">
        <ele>70.1</ele>
        <time>2025-11-16T08:28:20Z</time>
      </trkpt>
      <trkpt lat="48.37945" lon="2.50791">
        <ele>70</ele>
        <time>2025-11-16T08:28:22Z</time>
      </trkpt>
      <trkpt lat="48.37935" lon="2.50799">
        <ele>70.1</ele>
        <time>2025-11-16T08:28:24Z</time>
      </trkpt>
      <trkpt lat="48.37928" lon="2.50805">
        <ele>70</ele>
        <time>2025-11-16T08:28:26Z</time>
      </trkpt>
      <trkpt lat="48.3792" lon="2.50812">
        <ele>69.8</ele>
        <time>2025-11-16T08:28:28Z</time>
      </trkpt>
      <trkpt lat="48.37911" lon="2.5082">
        <ele>69.5</ele>
        <time>2025-11-16T08:28:30Z</time>
      </trkpt>
      <trkpt lat="48.37904" lon="2.50827">
        <ele>69.2</ele>
        <time>2025-11-16T08:28:32Z</time>
      </trkpt>
      <trkpt lat="48.37896" lon="2.50831">
        <ele>69.1</ele>
        <time>2025-11-16T08:28:34Z</time>
      </trkpt>
      <trkpt lat="48.37887" lon="2.50836">
        <ele>68.9</ele>
        <time>2025-11-16T08:28:36Z</time>
      </trkpt>
      <trkpt lat="48.37878" lon="2.50838">
        <ele>68.8</ele>
        <time>2025-11-16T08:28:38Z</time>
      </trkpt>
      <trkpt lat="48.37869" lon="2.50837">
        <ele>68.9</ele>
        <time>2025-11-16T08:28:40Z</time>
      </trkpt>
      <trkpt lat="48.3786" lon="2.50833">
        <ele>69</ele>
        <time>2025-11-16T08:28:42Z</time>
      </trkpt>
      <trkpt lat="48.37851" lon="2.50829">
        <ele>69.1</ele>
        <time>2025-11-16T08:28:44Z</time>
      </trkpt>
      <trkpt lat="48.3784" lon="2.50828">
        <ele>69.1</ele>
        <time>2025-11-16T08:28:46Z</time>
      </trkpt>
      <trkpt lat="48.37832" lon="2.50825">
        <ele>69</ele>
        <time>2025-11-16T08:28:48Z</time>
      </trkpt>
      <trkpt lat="48.37824" lon="2.50824">
        <ele>68.8</ele>
        <time>2025-11-16T08:28:50Z</time>
      </trkpt>
      <trkpt lat="48.37816" lon="2.50821">
        <ele>68.7</ele>
        <time>2025-11-16T08:28:52Z</time>
      </trkpt>
      <trkpt lat="48.37809" lon="2.50816">
        <ele>68.7</ele>
        <time>2025-11-16T08:28:54Z</time>
      </trkpt>
      <trkpt lat="48.37801" lon="2.50813">
        <ele>68.8</ele>
        <time>2025-11-16T08:28:56Z</time>
      </trkpt>
      <trkpt lat="48.37793" lon="2.50811">
        <ele>68.9</ele>
        <time>2025-11-16T08:28:58Z</time>
      </trkpt>
      <trkpt lat="48.37784" lon="2.5081">
        <ele>69</ele>
        <time>2025-11-16T08:29:00Z</time>
      </trkpt>
      <trkpt lat="48.37775" lon="2.50808">
        <ele>69</ele>
        <time>2025-11-16T08:29:02Z</time>
      </trkpt>
      <trkpt lat="48.37766" lon="2.50805">
        <ele>69</ele>
        <time>2025-11-16T08:29:04Z</time>
      </trkpt>
      <trkpt lat="48.37757" lon="2.50803">
        <ele>69</ele>
        <time>2025-11-16T08:29:06Z</time>
      </trkpt>
      <trkpt lat="48.37748" lon="2.50802">
        <ele>69</ele>
        <time>2025-11-16T08:29:08Z</time>
      </trkpt>
      <trkpt lat="48.37738" lon="2.50802">
        <ele>69</ele>
        <time>2025-11-16T08:29:10Z</time>
      </trkpt>
      <trkpt lat="48.37728" lon="2.50803">
        <ele>69</ele>
        <time>2025-11-16T08:29:12Z</time>
      </trkpt>
      <trkpt lat="48.37718" lon="2.50803">
        <ele>69</ele>
        <time>2025-11-16T08:29:14Z</time>
      </trkpt>
      <trkpt lat="48.37707" lon="2.50802">
        <ele>69</ele>
        <time>2025-11-16T08:29:16Z</time>
      </trkpt>
      <trkpt lat="48.37699" lon="2.508">
        <ele>69</ele>
        <time>2025-11-16T08:29:18Z</time>
      </trkpt>
      <trkpt lat="48.3769" lon="2.50799">
        <ele>69</ele>
        <time>2025-11-16T08:29:20Z</time>
      </trkpt>
      <trkpt lat="48.37681" lon="2.50799">
        <ele>69</ele>
        <time>2025-11-16T08:29:22Z</time>
      </trkpt>
      <trkpt lat="48.37672" lon="2.508">
        <ele>69</ele>
        <time>2025-11-16T08:29:24Z</time>
      </trkpt>
      <trkpt lat="48.37664" lon="2.50799">
        <ele>69</ele>
        <time>2025-11-16T08:29:26Z</time>
      </trkpt>
      <trkpt lat="48.37655" lon="2.508">
        <ele>69</ele>
        <time>2025-11-16T08:29:28Z</time>
      </trkpt>
      <trkpt lat="48.37646" lon="2.50801">
        <ele>69</ele>
        <time>2025-11-16T08:29:30Z</time>
      </trkpt>
      <trkpt lat="48.37638" lon="2.50801">
        <ele>69</ele>
        <time>2025-11-16T08:29:32Z</time>
      </trkpt>
      <trkpt lat="48.37628" lon="2.50802">
        <ele>69</ele>
        <time>2025-11-16T08:29:34Z</time>
      </trkpt>
      <trkpt lat="48.37618" lon="2.50803">
        <ele>69</ele>
        <time>2025-11-16T08:29:36Z</time>
      </trkpt>
      <trkpt lat="48.37608" lon="2.50805">
        <ele>69</ele>
        <time>2025-11-16T08:29:38Z</time>
      </trkpt>
      <trkpt lat="48.37599" lon="2.50806">
        <ele>69</ele>
        <time>2025-11-16T08:29:40Z</time>
      </trkpt>
      <trkpt lat="48.3759" lon="2.50806">
        <ele>69</ele>
        <time>2025-11-16T08:29:42Z</time>
      </trkpt>
      <trkpt lat="48.37581" lon="2.50809">
        <ele>69</ele>
        <time>2025-11-16T08:29:44Z</time>
      </trkpt>
      <trkpt lat="48.37572" lon="2.50811">
        <ele>69</ele>
        <time>2025-11-16T08:29:46Z</time>
      </trkpt>
      <trkpt lat="48.37562" lon="2.50815">
        <ele>69</ele>
        <time>2025-11-16T08:29:48Z</time>
      </trkpt>
      <trkpt lat="48.37553" lon="2.50817">
        <ele>69</ele>
        <time>2025-11-16T08:29:50Z</time>
      </trkpt>
      <trkpt lat="48.37544" lon="2.5082">
        <ele>69</ele>
        <time>2025-11-16T08:29:52Z</time>
      </trkpt>
      <trkpt lat="48.37534" lon="2.50822">
        <ele>69</ele>
        <time>2025-11-16T08:29:54Z</time>
      </trkpt>
      <trkpt lat="48.37525" lon="2.50824">
        <ele>69</ele>
        <time>2025-11-16T08:29:56Z</time>
      </trkpt>
      <trkpt lat="48.37517" lon="2.50826">
        <ele>69</ele>
        <time>2025-11-16T08:29:58Z</time>
      </trkpt>
      <trkpt lat="48.37508" lon="2.50829">
        <ele>69</ele>
        <time>2025-11-16T08:30:00Z</time>
      </trkpt>
      <trkpt lat="48.37499" lon="2.50833">
        <ele>69</ele>
        <time>2025-11-16T08:30:02Z</time>
      </trkpt>
      <trkpt lat="48.37489" lon="2.50835">
        <ele>69</ele>
        <time>2025-11-16T08:30:04Z</time>
      </trkpt>
      <trkpt lat="48.37479" lon="2.5084">
        <ele>69</ele>
        <time>2025-11-16T08:30:06Z</time>
      </trkpt>
      <trkpt lat="48.37471" lon="2.50843">
        <ele>69</ele>
        <time>2025-11-16T08:30:08Z</time>
      </trkpt>
      <trkpt lat="48.37465" lon="2.50846">
        <ele>69</ele>
        <time>2025-11-16T08:30:10Z</time>
      </trkpt>
      <trkpt lat="48.37464" lon="2.50856">
        <ele>69</ele>
        <time>2025-11-16T08:30:12Z</time>
      </trkpt>
      <trkpt lat="48.37468" lon="2.50865">
        <ele>69</ele>
        <time>2025-11-16T08:30:14Z</time>
      </trkpt>
      <trkpt lat="48.3747" lon="2.50876">
        <ele>69</ele>
        <time>2025-11-16T08:30:16Z</time>
      </trkpt>
      <trkpt lat="48.37471" lon="2.50889">
        <ele>69</ele>
        <time>2025-11-16T08:30:18Z</time>
      </trkpt>
      <trkpt lat="48.37473" lon="2.50902">
        <ele>69</ele>
        <time>2025-11-16T08:30:20Z</time>
      </trkpt>
      <trkpt lat="48.37477" lon="2.50913">
        <ele>69</ele>
        <time>2025-11-16T08:30:22Z</time>
      </trkpt>
      <trkpt lat="48.37481" lon="2.50927">
        <ele>69</ele>
        <time>2025-11-16T08:30:24Z</time>
      </trkpt>
      <trkpt lat="48.37487" lon="2.50939">
        <ele>69</ele>
        <time>2025-11-16T08:30:26Z</time>
      </trkpt>
      <trkpt lat="48.37492" lon="2.50949">
        <ele>69</ele>
        <time>2025-11-16T08:30:28Z</time>
      </trkpt>
      <trkpt lat="48.37495" lon="2.50961">
        <ele>69</ele>
        <time>2025-11-16T08:30:30Z</time>
      </trkpt>
      <trkpt lat="48.375" lon="2.50971">
        <ele>69</ele>
        <time>2025-11-16T08:30:32Z</time>
      </trkpt>
      <trkpt lat="48.37503" lon="2.50984">
        <ele>69</ele>
        <time>2025-11-16T08:30:34Z</time>
      </trkpt>
      <trkpt lat="48.37504" lon="2.50996">
        <ele>69</ele>
        <time>2025-11-16T08:30:36Z</time>
      </trkpt>
      <trkpt lat="48.37505" lon="2.51007">
        <ele>69</ele>
        <time>2025-11-16T08:30:38Z</time>
      </trkpt>
      <trkpt lat="48.37507" lon="2.51019">
        <ele>69</ele>
        <time>2025-11-16T08:30:40Z</time>
      </trkpt>
      <trkpt lat="48.37508" lon="2.5103">
        <ele>69</ele>
        <time>2025-11-16T08:30:42Z</time>
      </trkpt>
      <trkpt lat="48.37512" lon="2.51039">
        <ele>69</ele>
        <time>2025-11-16T08:30:44Z</time>
      </trkpt>
      <trkpt lat="48.37513" lon="2.5105">
        <ele>69</ele>
        <time>2025-11-16T08:30:46Z</time>
      </trkpt>
      <trkpt lat="48.37514" lon="2.51062">
        <ele>69</ele>
        <time>2025-11-16T08:30:48Z</time>
      </trkpt>
      <trkpt lat="48.37515" lon="2.51075">
        <ele>69</ele>
        <time>2025-11-16T08:30:50Z</time>
      </trkpt>
      <trkpt lat="48.37517" lon="2.51089">
        <ele>69</ele>
        <time>2025-11-16T08:30:52Z</time>
      </trkpt>
      <trkpt lat="48.37518" lon="2.51102">
        <ele>69</ele>
        <time>2025-11-16T08:30:54Z</time>
      </trkpt>
      <trkpt lat="48.37521" lon="2.51114">
        <ele>69</ele>
        <time>2025-11-16T08:30:56Z</time>
      </trkpt>
      <trkpt lat="48.37525" lon="2.51126">
        <ele>69</ele>
        <time>2025-11-16T08:30:58Z</time>
      </trkpt>
      <trkpt lat="48.37527" lon="2.51136">
        <ele>69</ele>
        <time>2025-11-16T08:31:00Z</time>
      </trkpt>
      <trkpt lat="48.37529" lon="2.51146">
        <ele>69</ele>
        <time>2025-11-16T08:31:02Z</time>
      </trkpt>
      <trkpt lat="48.3753" lon="2.51157">
        <ele>69</ele>
        <time>2025-11-16T08:31:04Z</time>
      </trkpt>
      <trkpt lat="48.37534" lon="2.51167">
        <ele>69</ele>
        <time>2025-11-16T08:31:06Z</time>
      </trkpt>
      <trkpt lat="48.37538" lon="2.51178">
        <ele>69</ele>
        <time>2025-11-16T08:31:08Z</time>
      </trkpt>
      <trkpt lat="48.3754" lon="2.51188">
        <ele>69</ele>
        <time>2025-11-16T08:31:10Z</time>
      </trkpt>
      <trkpt lat="48.37542" lon="2.51199">
        <ele>69</ele>
        <time>2025-11-16T08:31:12Z</time>
      </trkpt>
      <trkpt lat="48.37541" lon="2.51211">
        <ele>69</ele>
        <time>2025-11-16T08:31:14Z</time>
      </trkpt>
      <trkpt lat="48.3754" lon="2.51221">
        <ele>69</ele>
        <time>2025-11-16T08:31:16Z</time>
      </trkpt>
      <trkpt lat="48.3754" lon="2.51233">
        <ele>68.8</ele>
        <time>2025-11-16T08:31:18Z</time>
      </trkpt>
      <trkpt lat="48.37541" lon="2.51243">
        <ele>68.6</ele>
        <time>2025-11-16T08:31:20Z</time>
      </trkpt>
      <trkpt lat="48.37547" lon="2.51252">
        <ele>68.3</ele>
        <time>2025-11-16T08:31:22Z</time>
      </trkpt>
      <trkpt lat="48.37554" lon="2.51259">
        <ele>68.1</ele>
        <time>2025-11-16T08:31:24Z</time>
      </trkpt>
      <trkpt lat="48.3756" lon="2.51268">
        <ele>68</ele>
        <time>2025-11-16T08:31:26Z</time>
      </trkpt>
      <trkpt lat="48.37567" lon="2.51279">
        <ele>68</ele>
        <time>2025-11-16T08:31:28Z</time>
      </trkpt>
      <trkpt lat="48.37574" lon="2.51289">
        <ele>68</ele>
        <time>2025-11-16T08:31:30Z</time>
      </trkpt>
      <trkpt lat="48.37582" lon="2.513">
        <ele>68</ele>
        <time>2025-11-16T08:31:32Z</time>
      </trkpt>
      <trkpt lat="48.37588" lon="2.51309">
        <ele>67.7</ele>
        <time>2025-11-16T08:31:34Z</time>
      </trkpt>
      <trkpt lat="48.37595" lon="2.51319">
        <ele>67.3</ele>
        <time>2025-11-16T08:31:36Z</time>
      </trkpt>
      <trkpt lat="48.37602" lon="2.51329">
        <ele>67.1</ele>
        <time>2025-11-16T08:31:38Z</time>
      </trkpt>
      <trkpt lat="48.37609" lon="2.51339">
        <ele>67</ele>
        <time>2025-11-16T08:31:40Z</time>
      </trkpt>
      <trkpt lat="48.37616" lon="2.51349">
        <ele>67</ele>
        <time>2025-11-16T08:31:42Z</time>
      </trkpt>
      <trkpt lat="48.37623" lon="2.51359">
        <ele>67</ele>
        <time>2025-11-16T08:31:44Z</time>
      </trkpt>
      <trkpt lat="48.37629" lon="2.51368">
        <ele>67</ele>
        <time>2025-11-16T08:31:46Z</time>
      </trkpt>
      <trkpt lat="48.37635" lon="2.51378">
        <ele>67</ele>
        <time>2025-11-16T08:31:48Z</time>
      </trkpt>
      <trkpt lat="48.37641" lon="2.51389">
        <ele>67</ele>
        <time>2025-11-16T08:31:50Z</time>
      </trkpt>
      <trkpt lat="48.37647" lon="2.514">
        <ele>67</ele>
        <time>2025-11-16T08:31:52Z</time>
      </trkpt>
      <trkpt lat="48.37653" lon="2.5141">
        <ele>67</ele>
        <time>2025-11-16T08:31:54Z</time>
      </trkpt>
      <trkpt lat="48.37658" lon="2.51421">
        <ele>67</ele>
        <time>2025-11-16T08:31:56Z</time>
      </trkpt>
      <trkpt lat="48.37663" lon="2.51431">
        <ele>67</ele>
        <time>2025-11-16T08:31:58Z</time>
      </trkpt>
      <trkpt lat="48.37668" lon="2.51441">
        <ele>67</ele>
        <time>2025-11-16T08:32:00Z</time>
      </trkpt>
      <trkpt lat="48.37673" lon="2.51453">
        <ele>67</ele>
        <time>2025-11-16T08:32:02Z</time>
      </trkpt>
      <trkpt lat="48.37678" lon="2.51465">
        <ele>67</ele>
        <time>2025-11-16T08:32:04Z</time>
      </trkpt>
      <trkpt lat="48.37683" lon="2.51474">
        <ele>67</ele>
        <time>2025-11-16T08:32:06Z</time>
      </trkpt>
      <trkpt lat="48.37689" lon="2.51483">
        <ele>67</ele>
        <time>2025-11-16T08:32:08Z</time>
      </trkpt>
      <trkpt lat="48.37695" lon="2.51493">
        <ele>67</ele>
        <time>2025-11-16T08:32:10Z</time>
      </trkpt>
      <trkpt lat="48.37701" lon="2.51502">
        <ele>67.3</ele>
        <time>2025-11-16T08:32:12Z</time>
      </trkpt>
      <trkpt lat="48.37707" lon="2.51512">
        <ele>67.7</ele>
        <time>2025-11-16T08:32:14Z</time>
      </trkpt>
      <trkpt lat="48.37714" lon="2.51522">
        <ele>67.9</ele>
        <time>2025-11-16T08:32:16Z</time>
      </trkpt>
      <trkpt lat="48.3772" lon="2.51532">
        <ele>68</ele>
        <time>2025-11-16T08:32:18Z</time>
      </trkpt>
      <trkpt lat="48.37727" lon="2.51541">
        <ele>68</ele>
        <time>2025-11-16T08:32:20Z</time>
      </trkpt>
      <trkpt lat="48.37732" lon="2.5155">
        <ele>68</ele>
        <time>2025-11-16T08:32:22Z</time>
      </trkpt>
      <trkpt lat="48.37738" lon="2.51559">
        <ele>68</ele>
        <time>2025-11-16T08:32:24Z</time>
      </trkpt>
      <trkpt lat="48.37744" lon="2.5157">
        <ele>68</ele>
        <time>2025-11-16T08:32:26Z</time>
      </trkpt>
      <trkpt lat="48.3775" lon="2.51579">
        <ele>68</ele>
        <time>2025-11-16T08:32:28Z</time>
      </trkpt>
      <trkpt lat="48.37756" lon="2.51588">
        <ele>68</ele>
        <time>2025-11-16T08:32:30Z</time>
      </trkpt>
      <trkpt lat="48.37762" lon="2.51599">
        <ele>67.8</ele>
        <time>2025-11-16T08:32:32Z</time>
      </trkpt>
      <trkpt lat="48.37768" lon="2.51609">
        <ele>67.4</ele>
        <time>2025-11-16T08:32:34Z</time>
      </trkpt>
      <trkpt lat="48.37774" lon="2.51619">
        <ele>67.2</ele>
        <time>2025-11-16T08:32:36Z</time>
      </trkpt>
      <trkpt lat="48.3778" lon="2.51629">
        <ele>67</ele>
        <time>2025-11-16T08:32:38Z</time>
      </trkpt>
      <trkpt lat="48.37786" lon="2.51639">
        <ele>67</ele>
        <time>2025-11-16T08:32:40Z</time>
      </trkpt>
      <trkpt lat="48.37793" lon="2.5165">
        <ele>67</ele>
        <time>2025-11-16T08:32:42Z</time>
      </trkpt>
      <trkpt lat="48.37799" lon="2.5166">
        <ele>67</ele>
        <time>2025-11-16T08:32:44Z</time>
      </trkpt>
      <trkpt lat="48.37805" lon="2.5167">
        <ele>67</ele>
        <time>2025-11-16T08:32:46Z</time>
      </trkpt>
      <trkpt lat="48.37812" lon="2.5168">
        <ele>67</ele>
        <time>2025-11-16T08:32:48Z</time>
      </trkpt>
      <trkpt lat="48.37818" lon="2.51689">
        <ele>67</ele>
        <time>2025-11-16T08:32:50Z</time>
      </trkpt>
      <trkpt lat="48.37825" lon="2.51699">
        <ele>67</ele>
        <time>2025-11-16T08:32:52Z</time>
      </trkpt>
      <trkpt lat="48.37832" lon="2.51708">
        <ele>67</ele>
        <time>2025-11-16T08:32:54Z</time>
      </trkpt>
      <trkpt lat="48.37838" lon="2.51718">
        <ele>67</ele>
        <time>2025-11-16T08:32:56Z</time>
      </trkpt>
      <trkpt lat="48.37845" lon="2.51728">
        <ele>67.1</ele>
        <time>2025-11-16T08:32:58Z</time>
      </trkpt>
      <trkpt lat="48.37851" lon="2.51739">
        <ele>67.2</ele>
        <time>2025-11-16T08:33:00Z</time>
      </trkpt>
      <trkpt lat="48.37859" lon="2.51747">
        <ele>67.1</ele>
        <time>2025-11-16T08:33:02Z</time>
      </trkpt>
      <trkpt lat="48.37866" lon="2.51757">
        <ele>67.2</ele>
        <time>2025-11-16T08:33:04Z</time>
      </trkpt>
      <trkpt lat="48.37873" lon="2.51767">
        <ele>67.3</ele>
        <time>2025-11-16T08:33:06Z</time>
      </trkpt>
      <trkpt lat="48.37879" lon="2.51776">
        <ele>67.3</ele>
        <time>2025-11-16T08:33:08Z</time>
      </trkpt>
      <trkpt lat="48.37887" lon="2.51786">
        <ele>67.1</ele>
        <time>2025-11-16T08:33:10Z</time>
      </trkpt>
      <trkpt lat="48.37894" lon="2.51798">
        <ele>67</ele>
        <time>2025-11-16T08:33:12Z</time>
      </trkpt>
      <trkpt lat="48.37902" lon="2.51807">
        <ele>67</ele>
        <time>2025-11-16T08:33:14Z</time>
      </trkpt>
      <trkpt lat="48.37907" lon="2.51819">
        <ele>67.2</ele>
        <time>2025-11-16T08:33:16Z</time>
      </trkpt>
      <trkpt lat="48.37914" lon="2.51831">
        <ele>67.1</ele>
        <time>2025-11-16T08:33:18Z</time>
      </trkpt>
      <trkpt lat="48.37922" lon="2.51841">
        <ele>67</ele>
        <time>2025-11-16T08:33:20Z</time>
      </trkpt>
      <trkpt lat="48.37929" lon="2.51852">
        <ele>67</ele>
        <time>2025-11-16T08:33:22Z</time>
      </trkpt>
      <trkpt lat="48.37936" lon="2.51864">
        <ele>67</ele>
        <time>2025-11-16T08:33:24Z</time>
      </trkpt>
      <trkpt lat="48.37943" lon="2.51874">
        <ele>67</ele>
        <time>2025-11-16T08:33:26Z</time>
      </trkpt>
      <trkpt lat="48.37951" lon="2.51885">
        <ele>67</ele>
        <time>2025-11-16T08:33:28Z</time>
      </trkpt>
      <trkpt lat="48.37958" lon="2.51896">
        <ele>67</ele>
        <time>2025-11-16T08:33:30Z</time>
      </trkpt>
      <trkpt lat="48.37965" lon="2.51908">
        <ele>67</ele>
        <time>2025-11-16T08:33:32Z</time>
      </trkpt>
      <trkpt lat="48.37973" lon="2.5192">
        <ele>67</ele>
        <time>2025-11-16T08:33:34Z</time>
      </trkpt>
      <trkpt lat="48.37979" lon="2.51932">
        <ele>67</ele>
        <time>2025-11-16T08:33:36Z</time>
      </trkpt>
      <trkpt lat="48.37987" lon="2.51942">
        <ele>67</ele>
        <time>2025-11-16T08:33:38Z</time>
      </trkpt>
      <trkpt lat="48.37993" lon="2.51953">
        <ele>67</ele>
        <time>2025-11-16T08:33:40Z</time>
      </trkpt>
      <trkpt lat="48.38001" lon="2.51965">
        <ele>67</ele>
        <time>2025-11-16T08:33:42Z</time>
      </trkpt>
      <trkpt lat="48.38009" lon="2.51976">
        <ele>67.4</ele>
        <time>2025-11-16T08:33:44Z</time>
      </trkpt>
      <trkpt lat="48.38016" lon="2.51987">
        <ele>67.8</ele>
        <time>2025-11-16T08:33:46Z</time>
      </trkpt>
      <trkpt lat="48.38025" lon="2.51995">
        <ele>68</ele>
        <time>2025-11-16T08:33:48Z</time>
      </trkpt>
      <trkpt lat="48.38031" lon="2.52007">
        <ele>68.2</ele>
        <time>2025-11-16T08:33:50Z</time>
      </trkpt>
      <trkpt lat="48.38039" lon="2.52018">
        <ele>68.4</ele>
        <time>2025-11-16T08:33:52Z</time>
      </trkpt>
      <trkpt lat="48.38046" lon="2.52029">
        <ele>68.4</ele>
        <time>2025-11-16T08:33:54Z</time>
      </trkpt>
      <trkpt lat="48.38053" lon="2.52041">
        <ele>68.5</ele>
        <time>2025-11-16T08:33:56Z</time>
      </trkpt>
      <trkpt lat="48.38061" lon="2.52051">
        <ele>68.7</ele>
        <time>2025-11-16T08:33:58Z</time>
      </trkpt>
      <trkpt lat="48.38069" lon="2.52062">
        <ele>68.5</ele>
        <time>2025-11-16T08:34:00Z</time>
      </trkpt>
      <trkpt lat="48.38077" lon="2.52072">
        <ele>68.2</ele>
        <time>2025-11-16T08:34:02Z</time>
      </trkpt>
      <trkpt lat="48.38084" lon="2.52084">
        <ele>68</ele>
        <time>2025-11-16T08:34:04Z</time>
      </trkpt>
      <trkpt lat="48.38091" lon="2.52097">
        <ele>67.7</ele>
        <time>2025-11-16T08:34:06Z</time>
      </trkpt>
      <trkpt lat="48.38099" lon="2.52108">
        <ele>67.4</ele>
        <time>2025-11-16T08:34:08Z</time>
      </trkpt>
      <trkpt lat="48.38107" lon="2.52118">
        <ele>67.1</ele>
        <time>2025-11-16T08:34:10Z</time>
      </trkpt>
      <trkpt lat="48.38115" lon="2.52129">
        <ele>67</ele>
        <time>2025-11-16T08:34:12Z</time>
      </trkpt>
      <trkpt lat="48.38123" lon="2.52139">
        <ele>67</ele>
        <time>2025-11-16T08:34:14Z</time>
      </trkpt>
      <trkpt lat="48.3813" lon="2.5215">
        <ele>67</ele>
        <time>2025-11-16T08:34:16Z</time>
      </trkpt>
      <trkpt lat="48.38136" lon="2.52163">
        <ele>67</ele>
        <time>2025-11-16T08:34:18Z</time>
      </trkpt>
      <trkpt lat="48.38143" lon="2.52174">
        <ele>67</ele>
        <time>2025-11-16T08:34:20Z</time>
      </trkpt>
      <trkpt lat="48.3815" lon="2.52185">
        <ele>67</ele>
        <time>2025-11-16T08:34:22Z</time>
      </trkpt>
      <trkpt lat="48.38157" lon="2.52195">
        <ele>67</ele>
        <time>2025-11-16T08:34:24Z</time>
      </trkpt>
      <trkpt lat="48.38164" lon="2.52207">
        <ele>67</ele>
        <time>2025-11-16T08:34:26Z</time>
      </trkpt>
      <trkpt lat="48.38171" lon="2.5222">
        <ele>67</ele>
        <time>2025-11-16T08:34:28Z</time>
      </trkpt>
      <trkpt lat="48.38179" lon="2.52231">
        <ele>67</ele>
        <time>2025-11-16T08:34:30Z</time>
      </trkpt>
      <trkpt lat="48.38187" lon="2.52243">
        <ele>67</ele>
        <time>2025-11-16T08:34:32Z</time>
      </trkpt>
      <trkpt lat="48.38192" lon="2.52255">
        <ele>67</ele>
        <time>2025-11-16T08:34:34Z</time>
      </trkpt>
      <trkpt lat="48.38198" lon="2.52268">
        <ele>67.1</ele>
        <time>2025-11-16T08:34:36Z</time>
      </trkpt>
      <trkpt lat="48.38205" lon="2.52281">
        <ele>67.3</ele>
        <time>2025-11-16T08:34:38Z</time>
      </trkpt>
      <trkpt lat="48.38211" lon="2.52293">
        <ele>67.3</ele>
        <time>2025-11-16T08:34:40Z</time>
      </trkpt>
      <trkpt lat="48.38219" lon="2.52304">
        <ele>67</ele>
        <time>2025-11-16T08:34:42Z</time>
      </trkpt>
      <trkpt lat="48.38226" lon="2.52316">
        <ele>67.2</ele>
        <time>2025-11-16T08:34:44Z</time>
      </trkpt>
      <trkpt lat="48.38237" lon="2.52325">
        <ele>67.7</ele>
        <time>2025-11-16T08:34:46Z</time>
      </trkpt>
      <trkpt lat="48.38244" lon="2.52336">
        <ele>67.7</ele>
        <time>2025-11-16T08:34:48Z</time>
      </trkpt>
      <trkpt lat="48.38252" lon="2.52347">
        <ele>67.6</ele>
        <time>2025-11-16T08:34:50Z</time>
      </trkpt>
      <trkpt lat="48.38259" lon="2.52359">
        <ele>67.5</ele>
        <time>2025-11-16T08:34:52Z</time>
      </trkpt>
      <trkpt lat="48.38267" lon="2.5237">
        <ele>67.4</ele>
        <time>2025-11-16T08:34:54Z</time>
      </trkpt>
      <trkpt lat="48.38275" lon="2.52381">
        <ele>67.3</ele>
        <time>2025-11-16T08:34:56Z</time>
      </trkpt>
      <trkpt lat="48.38282" lon="2.52391">
        <ele>67.2</ele>
        <time>2025-11-16T08:34:58Z</time>
      </trkpt>
      <trkpt lat="48.38288" lon="2.52405">
        <ele>67.1</ele>
        <time>2025-11-16T08:35:00Z</time>
      </trkpt>
      <trkpt lat="48.3829" lon="2.5242">
        <ele>67</ele>
        <time>2025-11-16T08:35:02Z</time>
      </trkpt>
      <trkpt lat="48.38292" lon="2.52432">
        <ele>67</ele>
        <time>2025-11-16T08:35:04Z</time>
      </trkpt>
      <trkpt lat="48.38295" lon="2.52445">
        <ele>67</ele>
        <time>2025-11-16T08:35:06Z</time>
      </trkpt>
      <trkpt lat="48.38296" lon="2.52458">
        <ele>67</ele>
        <time>2025-11-16T08:35:08Z</time>
      </trkpt>
      <trkpt lat="48.38297" lon="2.52471">
        <ele>67</ele>
        <time>2025-11-16T08:35:10Z</time>
      </trkpt>
      <trkpt lat="48.38298" lon="2.52486">
        <ele>67</ele>
        <time>2025-11-16T08:35:12Z</time>
      </trkpt>
      <trkpt lat="48.38297" lon="2.52501">
        <ele>67.1</ele>
        <time>2025-11-16T08:35:14Z</time>
      </trkpt>
      <trkpt lat="48.38298" lon="2.52515">
        <ele>67.6</ele>
        <time>2025-11-16T08:35:16Z</time>
      </trkpt>
      <trkpt lat="48.38298" lon="2.52529">
        <ele>68</ele>
        <time>2025-11-16T08:35:18Z</time>
      </trkpt>
      <trkpt lat="48.38301" lon="2.52541">
        <ele>68</ele>
        <time>2025-11-16T08:35:20Z</time>
      </trkpt>
      <trkpt lat="48.38305" lon="2.52551">
        <ele>68</ele>
        <time>2025-11-16T08:35:22Z</time>
      </trkpt>
      <trkpt lat="48.3831" lon="2.52562">
        <ele>68.2</ele>
        <time>2025-11-16T08:35:24Z</time>
      </trkpt>
      <trkpt lat="48.38313" lon="2.52572">
        <ele>68.6</ele>
        <time>2025-11-16T08:35:26Z</time>
      </trkpt>
      <trkpt lat="48.38316" lon="2.52582">
        <ele>68.9</ele>
        <time>2025-11-16T08:35:28Z</time>
      </trkpt>
      <trkpt lat="48.38321" lon="2.52589">
        <ele>69.2</ele>
        <time>2025-11-16T08:35:30Z</time>
      </trkpt>
      <trkpt lat="48.38325" lon="2.52598">
        <ele>69.5</ele>
        <time>2025-11-16T08:35:32Z</time>
      </trkpt>
      <trkpt lat="48.38329" lon="2.52608">
        <ele>69.9</ele>
        <time>2025-11-16T08:35:34Z</time>
      </trkpt>
      <trkpt lat="48.38333" lon="2.52617">
        <ele>70</ele>
        <time>2025-11-16T08:35:36Z</time>
      </trkpt>
      <trkpt lat="48.38335" lon="2.52627">
        <ele>70</ele>
        <time>2025-11-16T08:35:38Z</time>
      </trkpt>
      <trkpt lat="48.38337" lon="2.52636">
        <ele>70</ele>
        <time>2025-11-16T08:35:40Z</time>
      </trkpt>
      <trkpt lat="48.38339" lon="2.52646">
        <ele>70</ele>
        <time>2025-11-16T08:35:42Z</time>
      </trkpt>
      <trkpt lat="48.3834" lon="2.52657">
        <ele>70</ele>
        <time>2025-11-16T08:35:44Z</time>
      </trkpt>
      <trkpt lat="48.38342" lon="2.52667">
        <ele>70</ele>
        <time>2025-11-16T08:35:46Z</time>
      </trkpt>
      <trkpt lat="48.38342" lon="2.52678">
        <ele>69.9</ele>
        <time>2025-11-16T08:35:48Z</time>
      </trkpt>
      <trkpt lat="48.38343" lon="2.5269">
        <ele>69.7</ele>
        <time>2025-11-16T08:35:50Z</time>
      </trkpt>
      <trkpt lat="48.38344" lon="2.52703">
        <ele>69.5</ele>
        <time>2025-11-16T08:35:52Z</time>
      </trkpt>
      <trkpt lat="48.38344" lon="2.52716">
        <ele>69.3</ele>
        <time>2025-11-16T08:35:54Z</time>
      </trkpt>
      <trkpt lat="48.38344" lon="2.52728">
        <ele>69.1</ele>
        <time>2025-11-16T08:35:56Z</time>
      </trkpt>
      <trkpt lat="48.38344" lon="2.52739">
        <ele>68.8</ele>
        <time>2025-11-16T08:35:58Z</time>
      </trkpt>
      <trkpt lat="48.38347" lon="2.52751">
        <ele>68.5</ele>
        <time>2025-11-16T08:36:00Z</time>
      </trkpt>
      <trkpt lat="48.38349" lon="2.52763">
        <ele>68.4</ele>
        <time>2025-11-16T08:36:02Z</time>
      </trkpt>
      <trkpt lat="48.38354" lon="2.52775">
        <ele>68.3</ele>
        <time>2025-11-16T08:36:04Z</time>
      </trkpt>
      <trkpt lat="48.38357" lon="2.52787">
        <ele>68.1</ele>
        <time>2025-11-16T08:36:06Z</time>
      </trkpt>
      <trkpt lat="48.38361" lon="2.52799">
        <ele>68</ele>
        <time>2025-11-16T08:36:08Z</time>
      </trkpt>
      <trkpt lat="48.38364" lon="2.52811">
        <ele>68</ele>
        <time>2025-11-16T08:36:10Z</time>
      </trkpt>
      <trkpt lat="48.38368" lon="2.52822">
        <ele>68</ele>
        <time>2025-11-16T08:36:12Z</time>
      </trkpt>
      <trkpt lat="48.38372" lon="2.52835">
        <ele>68</ele>
        <time>2025-11-16T08:36:14Z</time>
      </trkpt>
      <trkpt lat="48.38375" lon="2.52846">
        <ele>68</ele>
        <time>2025-11-16T08:36:16Z</time>
      </trkpt>
      <trkpt lat="48.38378" lon="2.52858">
        <ele>68</ele>
        <time>2025-11-16T08:36:18Z</time>
      </trkpt>
      <trkpt lat="48.38382" lon="2.5287">
        <ele>68</ele>
        <time>2025-11-16T08:36:20Z</time>
      </trkpt>
      <trkpt lat="48.38386" lon="2.52881">
        <ele>68</ele>
        <time>2025-11-16T08:36:22Z</time>
      </trkpt>
      <trkpt lat="48.3839" lon="2.52891">
        <ele>68.1</ele>
        <time>2025-11-16T08:36:24Z</time>
      </trkpt>
      <trkpt lat="48.38394" lon="2.52902">
        <ele>68.7</ele>
        <time>2025-11-16T08:36:26Z</time>
      </trkpt>
      <trkpt lat="48.38396" lon="2.52912">
        <ele>69.1</ele>
        <time>2025-11-16T08:36:28Z</time>
      </trkpt>
      <trkpt lat="48.38398" lon="2.52922">
        <ele>69.4</ele>
        <time>2025-11-16T08:36:30Z</time>
      </trkpt>
      <trkpt lat="48.38401" lon="2.52934">
        <ele>69.7</ele>
        <time>2025-11-16T08:36:32Z</time>
      </trkpt>
      <trkpt lat="48.38403" lon="2.52945">
        <ele>70</ele>
        <time>2025-11-16T08:36:34Z</time>
      </trkpt>
      <trkpt lat="48.38405" lon="2.52958">
        <ele>70.1</ele>
        <time>2025-11-16T08:36:36Z</time>
      </trkpt>
      <trkpt lat="48.38408" lon="2.5297">
        <ele>70.3</ele>
        <time>2025-11-16T08:36:38Z</time>
      </trkpt>
      <trkpt lat="48.3841" lon="2.52979">
        <ele>70.5</ele>
        <time>2025-11-16T08:36:40Z</time>
      </trkpt>
      <trkpt lat="48.38413" lon="2.5299">
        <ele>70.7</ele>
        <time>2025-11-16T08:36:42Z</time>
      </trkpt>
      <trkpt lat="48.38417" lon="2.53">
        <ele>71</ele>
        <time>2025-11-16T08:36:44Z</time>
      </trkpt>
      <trkpt lat="48.38421" lon="2.53012">
        <ele>70.8</ele>
        <time>2025-11-16T08:36:46Z</time>
      </trkpt>
      <trkpt lat="48.38423" lon="2.53024">
        <ele>70.5</ele>
        <time>2025-11-16T08:36:48Z</time>
      </trkpt>
      <trkpt lat="48.38427" lon="2.53036">
        <ele>70.5</ele>
        <time>2025-11-16T08:36:50Z</time>
      </trkpt>
      <trkpt lat="48.3843" lon="2.53051">
        <ele>70.1</ele>
        <time>2025-11-16T08:36:52Z</time>
      </trkpt>
      <trkpt lat="48.38433" lon="2.53066">
        <ele>70</ele>
        <time>2025-11-16T08:36:54Z</time>
      </trkpt>
      <trkpt lat="48.38437" lon="2.53081">
        <ele>69.8</ele>
        <time>2025-11-16T08:36:56Z</time>
      </trkpt>
      <trkpt lat="48.38439" lon="2.53096">
        <ele>69.3</ele>
        <time>2025-11-16T08:36:58Z</time>
      </trkpt>
      <trkpt lat="48.38441" lon="2.53108">
        <ele>69</ele>
        <time>2025-11-16T08:37:00Z</time>
      </trkpt>
      <trkpt lat="48.38445" lon="2.53121">
        <ele>69</ele>
        <time>2025-11-16T08:37:02Z</time>
      </trkpt>
      <trkpt lat="48.3845" lon="2.53132">
        <ele>69.7</ele>
        <time>2025-11-16T08:37:04Z</time>
      </trkpt>
      <trkpt lat="48.38456" lon="2.53142">
        <ele>70.2</ele>
        <time>2025-11-16T08:37:06Z</time>
      </trkpt>
      <trkpt lat="48.3846" lon="2.53152">
        <ele>70.2</ele>
        <time>2025-11-16T08:37:08Z</time>
      </trkpt>
      <trkpt lat="48.38464" lon="2.53165">
        <ele>70.2</ele>
        <time>2025-11-16T08:37:10Z</time>
      </trkpt>
      <trkpt lat="48.38468" lon="2.53177">
        <ele>70.2</ele>
        <time>2025-11-16T08:37:12Z</time>
      </trkpt>
      <trkpt lat="48.38474" lon="2.53188">
        <ele>70.5</ele>
        <time>2025-11-16T08:37:14Z</time>
      </trkpt>
      <trkpt lat="48.3848" lon="2.53196">
        <ele>71.1</ele>
        <time>2025-11-16T08:37:16Z</time>
      </trkpt>
      <trkpt lat="48.38486" lon="2.53206">
        <ele>71.4</ele>
        <time>2025-11-16T08:37:18Z</time>
      </trkpt>
      <trkpt lat="48.38491" lon="2.53217">
        <ele>71.3</ele>
        <time>2025-11-16T08:37:20Z</time>
      </trkpt>
      <trkpt lat="48.38495" lon="2.53228">
        <ele>71.4</ele>
        <time>2025-11-16T08:37:22Z</time>
      </trkpt>
      <trkpt lat="48.38502" lon="2.53236">
        <ele>71.7</ele>
        <time>2025-11-16T08:37:24Z</time>
      </trkpt>
      <trkpt lat="48.38508" lon="2.53243">
        <ele>72</ele>
        <time>2025-11-16T08:37:26Z</time>
      </trkpt>
      <trkpt lat="48.38514" lon="2.53249">
        <ele>72.1</ele>
        <time>2025-11-16T08:37:28Z</time>
      </trkpt>
      <trkpt lat="48.38521" lon="2.53254">
        <ele>72.5</ele>
        <time>2025-11-16T08:37:30Z</time>
      </trkpt>
      <trkpt lat="48.38528" lon="2.53259">
        <ele>73</ele>
        <time>2025-11-16T08:37:32Z</time>
      </trkpt>
      <trkpt lat="48.38534" lon="2.53263">
        <ele>73.3</ele>
        <time>2025-11-16T08:37:34Z</time>
      </trkpt>
      <trkpt lat="48.38541" lon="2.53266">
        <ele>73.4</ele>
        <time>2025-11-16T08:37:36Z</time>
      </trkpt>
      <trkpt lat="48.38548" lon="2.53271">
        <ele>73.4</ele>
        <time>2025-11-16T08:37:38Z</time>
      </trkpt>
      <trkpt lat="48.38555" lon="2.53273">
        <ele>73.3</ele>
        <time>2025-11-16T08:37:40Z</time>
      </trkpt>
      <trkpt lat="48.38561" lon="2.53276">
        <ele>73.3</ele>
        <time>2025-11-16T08:37:42Z</time>
      </trkpt>
      <trkpt lat="48.38567" lon="2.53279">
        <ele>73.5</ele>
        <time>2025-11-16T08:37:44Z</time>
      </trkpt>
      <trkpt lat="48.38574" lon="2.53281">
        <ele>73.8</ele>
        <time>2025-11-16T08:37:46Z</time>
      </trkpt>
      <trkpt lat="48.38579" lon="2.53281">
        <ele>74</ele>
        <time>2025-11-16T08:37:48Z</time>
      </trkpt>
      <trkpt lat="48.38584" lon="2.53281">
        <ele>74.1</ele>
        <time>2025-11-16T08:37:50Z</time>
      </trkpt>
      <trkpt lat="48.3859" lon="2.53282">
        <ele>74.4</ele>
        <time>2025-11-16T08:37:52Z</time>
      </trkpt>
      <trkpt lat="48.38596" lon="2.53284">
        <ele>74.6</ele>
        <time>2025-11-16T08:37:54Z</time>
      </trkpt>
      <trkpt lat="48.38602" lon="2.53288">
        <ele>74.8</ele>
        <time>2025-11-16T08:37:56Z</time>
      </trkpt>
      <trkpt lat="48.38607" lon="2.5329">
        <ele>74.9</ele>
        <time>2025-11-16T08:37:58Z</time>
      </trkpt>
      <trkpt lat="48.38612" lon="2.53293">
        <ele>75</ele>
        <time>2025-11-16T08:38:00Z</time>
      </trkpt>
      <trkpt lat="48.38616" lon="2.53295">
        <ele>75</ele>
        <time>2025-11-16T08:38:02Z</time>
      </trkpt>
      <trkpt lat="48.38622" lon="2.53299">
        <ele>75</ele>
        <time>2025-11-16T08:38:04Z</time>
      </trkpt>
      <trkpt lat="48.38626" lon="2.53303">
        <ele>75</ele>
        <time>2025-11-16T08:38:06Z</time>
      </trkpt>
      <trkpt lat="48.38632" lon="2.53306">
        <ele>75</ele>
        <time>2025-11-16T08:38:08Z</time>
      </trkpt>
      <trkpt lat="48.38637" lon="2.5331">
        <ele>75</ele>
        <time>2025-11-16T08:38:10Z</time>
      </trkpt>
      <trkpt lat="48.38642" lon="2.53314">
        <ele>74.9</ele>
        <time>2025-11-16T08:38:12Z</time>
      </trkpt>
      <trkpt lat="48.38648" lon="2.53318">
        <ele>74.8</ele>
        <time>2025-11-16T08:38:14Z</time>
      </trkpt>
      <trkpt lat="48.38655" lon="2.53325">
        <ele>74.8</ele>
        <time>2025-11-16T08:38:16Z</time>
      </trkpt>
      <trkpt lat="48.38661" lon="2.53334">
        <ele>75</ele>
        <time>2025-11-16T08:38:18Z</time>
      </trkpt>
      <trkpt lat="48.38666" lon="2.53343">
        <ele>75</ele>
        <time>2025-11-16T08:38:20Z</time>
      </trkpt>
      <trkpt lat="48.38671" lon="2.53352">
        <ele>75</ele>
        <time>2025-11-16T08:38:22Z</time>
      </trkpt>
      <trkpt lat="48.38674" lon="2.53359">
        <ele>75</ele>
        <time>2025-11-16T08:38:24Z</time>
      </trkpt>
      <trkpt lat="48.38677" lon="2.53367">
        <ele>75.2</ele>
        <time>2025-11-16T08:38:26Z</time>
      </trkpt>
      <trkpt lat="48.38679" lon="2.53376">
        <ele>75.5</ele>
        <time>2025-11-16T08:38:28Z</time>
      </trkpt>
      <trkpt lat="48.3868" lon="2.53385">
        <ele>75.9</ele>
        <time>2025-11-16T08:38:30Z</time>
      </trkpt>
      <trkpt lat="48.38683" lon="2.53394">
        <ele>76.2</ele>
        <time>2025-11-16T08:38:32Z</time>
      </trkpt>
      <trkpt lat="48.38682" lon="2.53404">
        <ele>76.5</ele>
        <time>2025-11-16T08:38:34Z</time>
      </trkpt>
      <trkpt lat="48.38682" lon="2.53413">
        <ele>76.9</ele>
        <time>2025-11-16T08:38:36Z</time>
      </trkpt>
      <trkpt lat="48.38682" lon="2.53422">
        <ele>77.2</ele>
        <time>2025-11-16T08:38:38Z</time>
      </trkpt>
      <trkpt lat="48.38681" lon="2.5343">
        <ele>77.5</ele>
        <time>2025-11-16T08:38:40Z</time>
      </trkpt>
      <trkpt lat="48.38681" lon="2.53439">
        <ele>77.8</ele>
        <time>2025-11-16T08:38:42Z</time>
      </trkpt>
      <trkpt lat="48.38682" lon="2.53448">
        <ele>78.1</ele>
        <time>2025-11-16T08:38:44Z</time>
      </trkpt>
      <trkpt lat="48.38683" lon="2.53457">
        <ele>78.4</ele>
        <time>2025-11-16T08:38:46Z</time>
      </trkpt>
      <trkpt lat="48.38683" lon="2.53465">
        <ele>78.8</ele>
        <time>2025-11-16T08:38:48Z</time>
      </trkpt>
      <trkpt lat="48.38683" lon="2.53474">
        <ele>79.1</ele>
        <time>2025-11-16T08:38:50Z</time>
      </trkpt>
      <trkpt lat="48.38682" lon="2.53482">
        <ele>79.3</ele>
        <time>2025-11-16T08:38:52Z</time>
      </trkpt>
      <trkpt lat="48.38682" lon="2.5349">
        <ele>79.6</ele>
        <time>2025-11-16T08:38:54Z</time>
      </trkpt>
      <trkpt lat="48.38681" lon="2.53498">
        <ele>79.9</ele>
        <time>2025-11-16T08:38:56Z</time>
      </trkpt>
      <trkpt lat="48.3868" lon="2.53505">
        <ele>80.3</ele>
        <time>2025-11-16T08:38:58Z</time>
      </trkpt>
      <trkpt lat="48.38678" lon="2.53519">
        <ele>81</ele>
        <time>2025-11-16T08:39:02Z</time>
      </trkpt>
      <trkpt lat="48.38676" lon="2.53527">
        <ele>81.3</ele>
        <time>2025-11-16T08:39:04Z</time>
      </trkpt>
      <trkpt lat="48.38676" lon="2.53534">
        <ele>81.8</ele>
        <time>2025-11-16T08:39:06Z</time>
      </trkpt>
      <trkpt lat="48.38677" lon="2.53543">
        <ele>82.4</ele>
        <time>2025-11-16T08:39:08Z</time>
      </trkpt>
      <trkpt lat="48.38678" lon="2.5355">
        <ele>83</ele>
        <time>2025-11-16T08:39:10Z</time>
      </trkpt>
      <trkpt lat="48.38679" lon="2.53558">
        <ele>83.5</ele>
        <time>2025-11-16T08:39:12Z</time>
      </trkpt>
      <trkpt lat="48.38681" lon="2.53565">
        <ele>83.9</ele>
        <time>2025-11-16T08:39:14Z</time>
      </trkpt>
      <trkpt lat="48.38684" lon="2.53578">
        <ele>84.4</ele>
        <time>2025-11-16T08:39:18Z</time>
      </trkpt>
      <trkpt lat="48.38687" lon="2.53587">
        <ele>84.9</ele>
        <time>2025-11-16T08:39:20Z</time>
      </trkpt>
      <trkpt lat="48.3869" lon="2.53594">
        <ele>85.3</ele>
        <time>2025-11-16T08:39:22Z</time>
      </trkpt>
      <trkpt lat="48.38693" lon="2.536">
        <ele>85.6</ele>
        <time>2025-11-16T08:39:24Z</time>
      </trkpt>
      <trkpt lat="48.38695" lon="2.53607">
        <ele>85.9</ele>
        <time>2025-11-16T08:39:26Z</time>
      </trkpt>
      <trkpt lat="48.38698" lon="2.53613">
        <ele>86.5</ele>
        <time>2025-11-16T08:39:28Z</time>
      </trkpt>
      <trkpt lat="48.387" lon="2.53619">
        <ele>87.2</ele>
        <time>2025-11-16T08:39:30Z</time>
      </trkpt>
      <trkpt lat="48.38704" lon="2.53632">
        <ele>88.3</ele>
        <time>2025-11-16T08:39:34Z</time>
      </trkpt>
      <trkpt lat="48.38707" lon="2.53644">
        <ele>89.2</ele>
        <time>2025-11-16T08:39:38Z</time>
      </trkpt>
      <trkpt lat="48.38709" lon="2.53652">
        <ele>89.7</ele>
        <time>2025-11-16T08:39:40Z</time>
      </trkpt>
      <trkpt lat="48.38711" lon="2.53666">
        <ele>90.4</ele>
        <time>2025-11-16T08:39:44Z</time>
      </trkpt>
      <trkpt lat="48.38711" lon="2.53673">
        <ele>90.7</ele>
        <time>2025-11-16T08:39:46Z</time>
      </trkpt>
      <trkpt lat="48.38709" lon="2.5368">
        <ele>91.2</ele>
        <time>2025-11-16T08:39:48Z</time>
      </trkpt>
      <trkpt lat="48.38708" lon="2.53693">
        <ele>92</ele>
        <time>2025-11-16T08:39:52Z</time>
      </trkpt>
      <trkpt lat="48.38706" lon="2.53707">
        <ele>92.9</ele>
        <time>2025-11-16T08:39:56Z</time>
      </trkpt>
      <trkpt lat="48.38705" lon="2.53714">
        <ele>93.4</ele>
        <time>2025-11-16T08:39:58Z</time>
      </trkpt>
      <trkpt lat="48.38708" lon="2.53725">
        <ele>93.7</ele>
        <time>2025-11-16T08:40:02Z</time>
      </trkpt>
      <trkpt lat="48.3871" lon="2.53732">
        <ele>93.8</ele>
        <time>2025-11-16T08:40:04Z</time>
      </trkpt>
      <trkpt lat="48.38713" lon="2.53738">
        <ele>93.9</ele>
        <time>2025-11-16T08:40:06Z</time>
      </trkpt>
      <trkpt lat="48.38718" lon="2.53745">
        <ele>94</ele>
        <time>2025-11-16T08:40:10Z</time>
      </trkpt>
      <trkpt lat="48.38724" lon="2.53748">
        <ele>94</ele>
        <time>2025-11-16T08:40:14Z</time>
      </trkpt>
      <trkpt lat="48.38732" lon="2.53752">
        <ele>94.9</ele>
        <time>2025-11-16T08:40:18Z</time>
      </trkpt>
      <trkpt lat="48.38736" lon="2.53755">
        <ele>95.4</ele>
        <time>2025-11-16T08:40:20Z</time>
      </trkpt>
      <trkpt lat="48.38741" lon="2.53756">
        <ele>95.7</ele>
        <time>2025-11-16T08:40:22Z</time>
      </trkpt>
      <trkpt lat="48.38748" lon="2.53765">
        <ele>96.5</ele>
        <time>2025-11-16T08:40:26Z</time>
      </trkpt>
      <trkpt lat="48.38754" lon="2.53773">
        <ele>97.3</ele>
        <time>2025-11-16T08:40:30Z</time>
      </trkpt>
      <trkpt lat="48.38758" lon="2.5378">
        <ele>98</ele>
        <time>2025-11-16T08:40:34Z</time>
      </trkpt>
      <trkpt lat="48.3876" lon="2.53789">
        <ele>98.6</ele>
        <time>2025-11-16T08:40:38Z</time>
      </trkpt>
      <trkpt lat="48.3876" lon="2.53801">
        <ele>99.2</ele>
        <time>2025-11-16T08:40:42Z</time>
      </trkpt>
      <trkpt lat="48.38758" lon="2.53807">
        <ele>99.4</ele>
        <time>2025-11-16T08:40:44Z</time>
      </trkpt>
      <trkpt lat="48.38752" lon="2.53814">
        <ele>99.9</ele>
        <time>2025-11-16T08:40:48Z</time>
      </trkpt>
      <trkpt lat="48.38747" lon="2.53819">
        <ele>100.5</ele>
        <time>2025-11-16T08:40:52Z</time>
      </trkpt>
      <trkpt lat="48.38744" lon="2.53823">
        <ele>101.1</ele>
        <time>2025-11-16T08:40:56Z</time>
      </trkpt>
      <trkpt lat="48.38738" lon="2.53828">
        <ele>101.9</ele>
        <time>2025-11-16T08:41:00Z</time>
      </trkpt>
      <trkpt lat="48.3873" lon="2.53834">
        <ele>102.8</ele>
        <time>2025-11-16T08:41:04Z</time>
      </trkpt>
      <trkpt lat="48.38725" lon="2.53843">
        <ele>103.9</ele>
        <time>2025-11-16T08:41:08Z</time>
      </trkpt>
      <trkpt lat="48.38723" lon="2.53853">
        <ele>105.1</ele>
        <time>2025-11-16T08:41:12Z</time>
      </trkpt>
      <trkpt lat="48.3872" lon="2.5386">
        <ele>106</ele>
        <time>2025-11-16T08:41:14Z</time>
      </trkpt>
      <trkpt lat="48.38717" lon="2.5387">
        <ele>107.3</ele>
        <time>2025-11-16T08:41:18Z</time>
      </trkpt>
      <trkpt lat="48.38715" lon="2.53882">
        <ele>108.6</ele>
        <time>2025-11-16T08:41:22Z</time>
      </trkpt>
      <trkpt lat="48.38712" lon="2.53891">
        <ele>109.5</ele>
        <time>2025-11-16T08:41:26Z</time>
      </trkpt>
      <trkpt lat="48.38711" lon="2.53902">
        <ele>110.3</ele>
        <time>2025-11-16T08:41:30Z</time>
      </trkpt>
      <trkpt lat="48.3871" lon="2.53913">
        <ele>111.2</ele>
        <time>2025-11-16T08:41:34Z</time>
      </trkpt>
      <trkpt lat="48.38711" lon="2.53924">
        <ele>111.8</ele>
        <time>2025-11-16T08:41:38Z</time>
      </trkpt>
      <trkpt lat="48.38709" lon="2.53934">
        <ele>112.4</ele>
        <time>2025-11-16T08:41:42Z</time>
      </trkpt>
      <trkpt lat="48.38706" lon="2.53947">
        <ele>113.1</ele>
        <time>2025-11-16T08:41:46Z</time>
      </trkpt>
      <trkpt lat="48.38705" lon="2.53954">
        <ele>113.3</ele>
        <time>2025-11-16T08:41:48Z</time>
      </trkpt>
      <trkpt lat="48.38705" lon="2.53961">
        <ele>113.6</ele>
        <time>2025-11-16T08:41:50Z</time>
      </trkpt>
      <trkpt lat="48.38704" lon="2.53969">
        <ele>113.9</ele>
        <time>2025-11-16T08:41:52Z</time>
      </trkpt>
      <trkpt lat="48.38703" lon="2.53976">
        <ele>114</ele>
        <time>2025-11-16T08:41:54Z</time>
      </trkpt>
      <trkpt lat="48.38703" lon="2.53983">
        <ele>114</ele>
        <time>2025-11-16T08:41:56Z</time>
      </trkpt>
      <trkpt lat="48.38705" lon="2.5399">
        <ele>114</ele>
        <time>2025-11-16T08:41:58Z</time>
      </trkpt>
      <trkpt lat="48.38705" lon="2.53998">
        <ele>114</ele>
        <time>2025-11-16T08:42:00Z</time>
      </trkpt>
      <trkpt lat="48.38705" lon="2.54007">
        <ele>114.2</ele>
        <time>2025-11-16T08:42:02Z</time>
      </trkpt>
      <trkpt lat="48.38705" lon="2.54015">
        <ele>114.3</ele>
        <time>2025-11-16T08:42:04Z</time>
      </trkpt>
      <trkpt lat="48.38705" lon="2.54024">
        <ele>114.5</ele>
        <time>2025-11-16T08:42:06Z</time>
      </trkpt>
      <trkpt lat="48.38704" lon="2.54033">
        <ele>114.6</ele>
        <time>2025-11-16T08:42:08Z</time>
      </trkpt>
      <trkpt lat="48.38703" lon="2.54042">
        <ele>114.7</ele>
        <time>2025-11-16T08:42:10Z</time>
      </trkpt>
      <trkpt lat="48.38702" lon="2.54051">
        <ele>114.7</ele>
        <time>2025-11-16T08:42:12Z</time>
      </trkpt>
      <trkpt lat="48.38702" lon="2.5406">
        <ele>114.7</ele>
        <time>2025-11-16T08:42:14Z</time>
      </trkpt>
      <trkpt lat="48.38702" lon="2.54067">
        <ele>114.7</ele>
        <time>2025-11-16T08:42:16Z</time>
      </trkpt>
      <trkpt lat="48.38702" lon="2.54076">
        <ele>114.7</ele>
        <time>2025-11-16T08:42:18Z</time>
      </trkpt>
      <trkpt lat="48.387" lon="2.54086">
        <ele>114.8</ele>
        <time>2025-11-16T08:42:20Z</time>
      </trkpt>
      <trkpt lat="48.38699" lon="2.54094">
        <ele>114.9</ele>
        <time>2025-11-16T08:42:22Z</time>
      </trkpt>
      <trkpt lat="48.38698" lon="2.54103">
        <ele>115</ele>
        <time>2025-11-16T08:42:24Z</time>
      </trkpt>
      <trkpt lat="48.38696" lon="2.54114">
        <ele>115</ele>
        <time>2025-11-16T08:42:26Z</time>
      </trkpt>
      <trkpt lat="48.38695" lon="2.54125">
        <ele>115</ele>
        <time>2025-11-16T08:42:28Z</time>
      </trkpt>
      <trkpt lat="48.38695" lon="2.54135">
        <ele>115</ele>
        <time>2025-11-16T08:42:30Z</time>
      </trkpt>
      <trkpt lat="48.38694" lon="2.54146">
        <ele>115</ele>
        <time>2025-11-16T08:42:32Z</time>
      </trkpt>
      <trkpt lat="48.38694" lon="2.54157">
        <ele>115</ele>
        <time>2025-11-16T08:42:34Z</time>
      </trkpt>
      <trkpt lat="48.38693" lon="2.54168">
        <ele>115</ele>
        <time>2025-11-16T08:42:36Z</time>
      </trkpt>
      <trkpt lat="48.38692" lon="2.5418">
        <ele>115.5</ele>
        <time>2025-11-16T08:42:38Z</time>
      </trkpt>
      <trkpt lat="48.38691" lon="2.54192">
        <ele>115.9</ele>
        <time>2025-11-16T08:42:40Z</time>
      </trkpt>
      <trkpt lat="48.38689" lon="2.54202">
        <ele>116</ele>
        <time>2025-11-16T08:42:42Z</time>
      </trkpt>
      <trkpt lat="48.38686" lon="2.54212">
        <ele>116</ele>
        <time>2025-11-16T08:42:44Z</time>
      </trkpt>
      <trkpt lat="48.38685" lon="2.54221">
        <ele>116</ele>
        <time>2025-11-16T08:42:46Z</time>
      </trkpt>
      <trkpt lat="48.38684" lon="2.54231">
        <ele>116.2</ele>
        <time>2025-11-16T08:42:48Z</time>
      </trkpt>
      <trkpt lat="48.38682" lon="2.54242">
        <ele>116.4</ele>
        <time>2025-11-16T08:42:50Z</time>
      </trkpt>
      <trkpt lat="48.38682" lon="2.54253">
        <ele>116.6</ele>
        <time>2025-11-16T08:42:52Z</time>
      </trkpt>
      <trkpt lat="48.3868" lon="2.54264">
        <ele>116.8</ele>
        <time>2025-11-16T08:42:54Z</time>
      </trkpt>
      <trkpt lat="48.3868" lon="2.54276">
        <ele>117</ele>
        <time>2025-11-16T08:42:56Z</time>
      </trkpt>
      <trkpt lat="48.38679" lon="2.54286">
        <ele>117.1</ele>
        <time>2025-11-16T08:42:58Z</time>
      </trkpt>
      <trkpt lat="48.38678" lon="2.54298">
        <ele>117.3</ele>
        <time>2025-11-16T08:43:00Z</time>
      </trkpt>
      <trkpt lat="48.38677" lon="2.54311">
        <ele>117.4</ele>
        <time>2025-11-16T08:43:02Z</time>
      </trkpt>
      <trkpt lat="48.38676" lon="2.54323">
        <ele>117.3</ele>
        <time>2025-11-16T08:43:04Z</time>
      </trkpt>
      <trkpt lat="48.38675" lon="2.54333">
        <ele>117.3</ele>
        <time>2025-11-16T08:43:06Z</time>
      </trkpt>
      <trkpt lat="48.38672" lon="2.54344">
        <ele>117.2</ele>
        <time>2025-11-16T08:43:08Z</time>
      </trkpt>
      <trkpt lat="48.38669" lon="2.54353">
        <ele>117.1</ele>
        <time>2025-11-16T08:43:10Z</time>
      </trkpt>
      <trkpt lat="48.3867" lon="2.54364">
        <ele>117.1</ele>
        <time>2025-11-16T08:43:12Z</time>
      </trkpt>
      <trkpt lat="48.38668" lon="2.54374">
        <ele>117.1</ele>
        <time>2025-11-16T08:43:14Z</time>
      </trkpt>
      <trkpt lat="48.38667" lon="2.54384">
        <ele>117</ele>
        <time>2025-11-16T08:43:16Z</time>
      </trkpt>
      <trkpt lat="48.38667" lon="2.54397">
        <ele>117</ele>
        <time>2025-11-16T08:43:18Z</time>
      </trkpt>
      <trkpt lat="48.38666" lon="2.5441">
        <ele>117</ele>
        <time>2025-11-16T08:43:20Z</time>
      </trkpt>
      <trkpt lat="48.38664" lon="2.54423">
        <ele>116.7</ele>
        <time>2025-11-16T08:43:22Z</time>
      </trkpt>
      <trkpt lat="48.38663" lon="2.54435">
        <ele>116.2</ele>
        <time>2025-11-16T08:43:24Z</time>
      </trkpt>
      <trkpt lat="48.38662" lon="2.54448">
        <ele>115.8</ele>
        <time>2025-11-16T08:43:26Z</time>
      </trkpt>
      <trkpt lat="48.3866" lon="2.54459">
        <ele>115.7</ele>
        <time>2025-11-16T08:43:28Z</time>
      </trkpt>
      <trkpt lat="48.38657" lon="2.5447">
        <ele>115.6</ele>
        <time>2025-11-16T08:43:30Z</time>
      </trkpt>
      <trkpt lat="48.38655" lon="2.54482">
        <ele>115.6</ele>
        <time>2025-11-16T08:43:32Z</time>
      </trkpt>
      <trkpt lat="48.38655" lon="2.54492">
        <ele>115.6</ele>
        <time>2025-11-16T08:43:34Z</time>
      </trkpt>
      <trkpt lat="48.38653" lon="2.54503">
        <ele>115.5</ele>
        <time>2025-11-16T08:43:36Z</time>
      </trkpt>
      <trkpt lat="48.38649" lon="2.54514">
        <ele>115.4</ele>
        <time>2025-11-16T08:43:38Z</time>
      </trkpt>
      <trkpt lat="48.38645" lon="2.54525">
        <ele>115.2</ele>
        <time>2025-11-16T08:43:40Z</time>
      </trkpt>
      <trkpt lat="48.38641" lon="2.54537">
        <ele>115.1</ele>
        <time>2025-11-16T08:43:42Z</time>
      </trkpt>
      <trkpt lat="48.38639" lon="2.5455">
        <ele>115</ele>
        <time>2025-11-16T08:43:44Z</time>
      </trkpt>
      <trkpt lat="48.38635" lon="2.5456">
        <ele>114.9</ele>
        <time>2025-11-16T08:43:46Z</time>
      </trkpt>
      <trkpt lat="48.38632" lon="2.54573">
        <ele>114.7</ele>
        <time>2025-11-16T08:43:48Z</time>
      </trkpt>
      <trkpt lat="48.3863" lon="2.54589">
        <ele>114.7</ele>
        <time>2025-11-16T08:43:50Z</time>
      </trkpt>
      <trkpt lat="48.38629" lon="2.54603">
        <ele>114.6</ele>
        <time>2025-11-16T08:43:52Z</time>
      </trkpt>
      <trkpt lat="48.38623" lon="2.5462">
        <ele>114.4</ele>
        <time>2025-11-16T08:43:54Z</time>
      </trkpt>
      <trkpt lat="48.38621" lon="2.54636">
        <ele>114.3</ele>
        <time>2025-11-16T08:43:56Z</time>
      </trkpt>
      <trkpt lat="48.38619" lon="2.54648">
        <ele>114.3</ele>
        <time>2025-11-16T08:43:58Z</time>
      </trkpt>
      <trkpt lat="48.38616" lon="2.54662">
        <ele>114.2</ele>
        <time>2025-11-16T08:44:00Z</time>
      </trkpt>
      <trkpt lat="48.38612" lon="2.54677">
        <ele>114</ele>
        <time>2025-11-16T08:44:02Z</time>
      </trkpt>
      <trkpt lat="48.38609" lon="2.54692">
        <ele>114</ele>
        <time>2025-11-16T08:44:04Z</time>
      </trkpt>
      <trkpt lat="48.38609" lon="2.54707">
        <ele>114</ele>
        <time>2025-11-16T08:44:06Z</time>
      </trkpt>
      <trkpt lat="48.38607" lon="2.54724">
        <ele>114.1</ele>
        <time>2025-11-16T08:44:08Z</time>
      </trkpt>
      <trkpt lat="48.38604" lon="2.5474">
        <ele>114.5</ele>
        <time>2025-11-16T08:44:10Z</time>
      </trkpt>
      <trkpt lat="48.386" lon="2.54753">
        <ele>114.6</ele>
        <time>2025-11-16T08:44:12Z</time>
      </trkpt>
      <trkpt lat="48.38597" lon="2.54766">
        <ele>114.5</ele>
        <time>2025-11-16T08:44:14Z</time>
      </trkpt>
      <trkpt lat="48.38591" lon="2.54775">
        <ele>114.3</ele>
        <time>2025-11-16T08:44:16Z</time>
      </trkpt>
      <trkpt lat="48.38581" lon="2.54779">
        <ele>114</ele>
        <time>2025-11-16T08:44:18Z</time>
      </trkpt>
      <trkpt lat="48.38573" lon="2.5478">
        <ele>114</ele>
        <time>2025-11-16T08:44:20Z</time>
      </trkpt>
      <trkpt lat="48.38565" lon="2.54773">
        <ele>114</ele>
        <time>2025-11-16T08:44:22Z</time>
      </trkpt>
      <trkpt lat="48.3856" lon="2.54764">
        <ele>114</ele>
        <time>2025-11-16T08:44:24Z</time>
      </trkpt>
      <trkpt lat="48.38553" lon="2.54756">
        <ele>114</ele>
        <time>2025-11-16T08:44:26Z</time>
      </trkpt>
      <trkpt lat="48.38545" lon="2.54747">
        <ele>114</ele>
        <time>2025-11-16T08:44:28Z</time>
      </trkpt>
      <trkpt lat="48.3854" lon="2.54738">
        <ele>114</ele>
        <time>2025-11-16T08:44:30Z</time>
      </trkpt>
      <trkpt lat="48.38538" lon="2.54728">
        <ele>114</ele>
        <time>2025-11-16T08:44:32Z</time>
      </trkpt>
      <trkpt lat="48.38535" lon="2.54721">
        <ele>114</ele>
        <time>2025-11-16T08:44:34Z</time>
      </trkpt>
      <trkpt lat="48.38533" lon="2.54713">
        <ele>114</ele>
        <time>2025-11-16T08:44:36Z</time>
      </trkpt>
      <trkpt lat="48.38532" lon="2.54706">
        <ele>114</ele>
        <time>2025-11-16T08:44:38Z</time>
      </trkpt>
      <trkpt lat="48.38529" lon="2.54698">
        <ele>114</ele>
        <time>2025-11-16T08:44:40Z</time>
      </trkpt>
      <trkpt lat="48.38525" lon="2.54687">
        <ele>114</ele>
        <time>2025-11-16T08:44:44Z</time>
      </trkpt>
      <trkpt lat="48.3852" lon="2.5468">
        <ele>114.2</ele>
        <time>2025-11-16T08:44:46Z</time>
      </trkpt>
      <trkpt lat="48.38516" lon="2.54672">
        <ele>114.4</ele>
        <time>2025-11-16T08:44:48Z</time>
      </trkpt>
      <trkpt lat="48.38511" lon="2.54665">
        <ele>114.6</ele>
        <time>2025-11-16T08:44:50Z</time>
      </trkpt>
      <trkpt lat="48.38507" lon="2.54659">
        <ele>114.8</ele>
        <time>2025-11-16T08:44:52Z</time>
      </trkpt>
      <trkpt lat="48.38504" lon="2.54652">
        <ele>114.9</ele>
        <time>2025-11-16T08:44:54Z</time>
      </trkpt>
      <trkpt lat="48.38503" lon="2.54645">
        <ele>115</ele>
        <time>2025-11-16T08:44:56Z</time>
      </trkpt>
      <trkpt lat="48.38501" lon="2.54638">
        <ele>115</ele>
        <time>2025-11-16T08:44:58Z</time>
      </trkpt>
      <trkpt lat="48.38495" lon="2.54625">
        <ele>115</ele>
        <time>2025-11-16T08:45:02Z</time>
      </trkpt>
      <trkpt lat="48.38489" lon="2.54623">
        <ele>115</ele>
        <time>2025-11-16T08:45:04Z</time>
      </trkpt>
      <trkpt lat="48.38483" lon="2.54628">
        <ele>115</ele>
        <time>2025-11-16T08:45:06Z</time>
      </trkpt>
      <trkpt lat="48.3848" lon="2.54636">
        <ele>115</ele>
        <time>2025-11-16T08:45:08Z</time>
      </trkpt>
      <trkpt lat="48.38477" lon="2.54644">
        <ele>115</ele>
        <time>2025-11-16T08:45:10Z</time>
      </trkpt>
      <trkpt lat="48.38474" lon="2.54654">
        <ele>115</ele>
        <time>2025-11-16T08:45:12Z</time>
      </trkpt>
      <trkpt lat="48.38469" lon="2.54663">
        <ele>114.9</ele>
        <time>2025-11-16T08:45:14Z</time>
      </trkpt>
      <trkpt lat="48.38463" lon="2.54672">
        <ele>114.6</ele>
        <time>2025-11-16T08:45:16Z</time>
      </trkpt>
      <trkpt lat="48.38456" lon="2.54677">
        <ele>114.5</ele>
        <time>2025-11-16T08:45:18Z</time>
      </trkpt>
      <trkpt lat="48.38448" lon="2.54682">
        <ele>114.5</ele>
        <time>2025-11-16T08:45:20Z</time>
      </trkpt>
      <trkpt lat="48.38441" lon="2.54689">
        <ele>114.7</ele>
        <time>2025-11-16T08:45:22Z</time>
      </trkpt>
      <trkpt lat="48.38434" lon="2.54696">
        <ele>114.6</ele>
        <time>2025-11-16T08:45:24Z</time>
      </trkpt>
      <trkpt lat="48.38428" lon="2.54704">
        <ele>114.6</ele>
        <time>2025-11-16T08:45:26Z</time>
      </trkpt>
      <trkpt lat="48.3842" lon="2.5471">
        <ele>114.6</ele>
        <time>2025-11-16T08:45:28Z</time>
      </trkpt>
      <trkpt lat="48.38412" lon="2.54713">
        <ele>114.5</ele>
        <time>2025-11-16T08:45:30Z</time>
      </trkpt>
      <trkpt lat="48.38403" lon="2.54717">
        <ele>114.3</ele>
        <time>2025-11-16T08:45:32Z</time>
      </trkpt>
      <trkpt lat="48.38391" lon="2.54723">
        <ele>114.1</ele>
        <time>2025-11-16T08:45:34Z</time>
      </trkpt>
      <trkpt lat="48.38383" lon="2.54734">
        <ele>114.2</ele>
        <time>2025-11-16T08:45:36Z</time>
      </trkpt>
      <trkpt lat="48.38377" lon="2.54744">
        <ele>114.4</ele>
        <time>2025-11-16T08:45:38Z</time>
      </trkpt>
      <trkpt lat="48.38371" lon="2.54755">
        <ele>114.3</ele>
        <time>2025-11-16T08:45:40Z</time>
      </trkpt>
      <trkpt lat="48.38365" lon="2.54762">
        <ele>114.1</ele>
        <time>2025-11-16T08:45:42Z</time>
      </trkpt>
      <trkpt lat="48.38356" lon="2.54769">
        <ele>113.5</ele>
        <time>2025-11-16T08:45:44Z</time>
      </trkpt>
      <trkpt lat="48.38346" lon="2.54779">
        <ele>112.4</ele>
        <time>2025-11-16T08:45:46Z</time>
      </trkpt>
      <trkpt lat="48.38336" lon="2.54795">
        <ele>111.2</ele>
        <time>2025-11-16T08:45:48Z</time>
      </trkpt>
      <trkpt lat="48.38327" lon="2.5481">
        <ele>110.6</ele>
        <time>2025-11-16T08:45:50Z</time>
      </trkpt>
      <trkpt lat="48.38313" lon="2.54825">
        <ele>109.6</ele>
        <time>2025-11-16T08:45:52Z</time>
      </trkpt>
      <trkpt lat="48.38305" lon="2.54843">
        <ele>109</ele>
        <time>2025-11-16T08:45:54Z</time>
      </trkpt>
      <trkpt lat="48.38308" lon="2.54866">
        <ele>109.1</ele>
        <time>2025-11-16T08:45:56Z</time>
      </trkpt>
      <trkpt lat="48.38307" lon="2.54888">
        <ele>109.1</ele>
        <time>2025-11-16T08:45:58Z</time>
      </trkpt>
      <trkpt lat="48.38305" lon="2.54909">
        <ele>109</ele>
        <time>2025-11-16T08:46:00Z</time>
      </trkpt>
      <trkpt lat="48.383" lon="2.54927">
        <ele>108.9</ele>
        <time>2025-11-16T08:46:02Z</time>
      </trkpt>
      <trkpt lat="48.38291" lon="2.54947">
        <ele>108.5</ele>
        <time>2025-11-16T08:46:04Z</time>
      </trkpt>
      <trkpt lat="48.38284" lon="2.54965">
        <ele>108.1</ele>
        <time>2025-11-16T08:46:06Z</time>
      </trkpt>
      <trkpt lat="48.38279" lon="2.54977">
        <ele>107.8</ele>
        <time>2025-11-16T08:46:08Z</time>
      </trkpt>
      <trkpt lat="48.38275" lon="2.54987">
        <ele>107.5</ele>
        <time>2025-11-16T08:46:10Z</time>
      </trkpt>
      <trkpt lat="48.38268" lon="2.54994">
        <ele>107.5</ele>
        <time>2025-11-16T08:46:12Z</time>
      </trkpt>
      <trkpt lat="48.38266" lon="2.55008">
        <ele>107.4</ele>
        <time>2025-11-16T08:46:14Z</time>
      </trkpt>
      <trkpt lat="48.38266" lon="2.55019">
        <ele>107.4</ele>
        <time>2025-11-16T08:46:16Z</time>
      </trkpt>
      <trkpt lat="48.38266" lon="2.55029">
        <ele>107.4</ele>
        <time>2025-11-16T08:46:18Z</time>
      </trkpt>
      <trkpt lat="48.38267" lon="2.55038">
        <ele>107.4</ele>
        <time>2025-11-16T08:46:20Z</time>
      </trkpt>
      <trkpt lat="48.38273" lon="2.5504">
        <ele>107.2</ele>
        <time>2025-11-16T08:46:24Z</time>
      </trkpt>
      <trkpt lat="48.38279" lon="2.55036">
        <ele>107</ele>
        <time>2025-11-16T08:46:28Z</time>
      </trkpt>
      <trkpt lat="48.38284" lon="2.55033">
        <ele>107.2</ele>
        <time>2025-11-16T08:46:30Z</time>
      </trkpt>
      <trkpt lat="48.38291" lon="2.55031">
        <ele>107.5</ele>
        <time>2025-11-16T08:46:34Z</time>
      </trkpt>
      <trkpt lat="48.38298" lon="2.55027">
        <ele>107.7</ele>
        <time>2025-11-16T08:46:38Z</time>
      </trkpt>
      <trkpt lat="48.38307" lon="2.55026">
        <ele>108.2</ele>
        <time>2025-11-16T08:46:42Z</time>
      </trkpt>
      <trkpt lat="48.38314" lon="2.55027">
        <ele>109.3</ele>
        <time>2025-11-16T08:46:46Z</time>
      </trkpt>
      <trkpt lat="48.38321" lon="2.55032">
        <ele>110.3</ele>
        <time>2025-11-16T08:46:50Z</time>
      </trkpt>
      <trkpt lat="48.38326" lon="2.55035">
        <ele>111.2</ele>
        <time>2025-11-16T08:46:54Z</time>
      </trkpt>
      <trkpt lat="48.38332" lon="2.55038">
        <ele>112.1</ele>
        <time>2025-11-16T08:46:58Z</time>
      </trkpt>
      <trkpt lat="48.38337" lon="2.55042">
        <ele>113</ele>
        <time>2025-11-16T08:47:04Z</time>
      </trkpt>
      <trkpt lat="48.38339" lon="2.55049">
        <ele>113.5</ele>
        <time>2025-11-16T08:47:08Z</time>
      </trkpt>
      <trkpt lat="48.38342" lon="2.55057">
        <ele>113.9</ele>
        <time>2025-11-16T08:47:12Z</time>
      </trkpt>
      <trkpt lat="48.38344" lon="2.55063">
        <ele>114.1</ele>
        <time>2025-11-16T08:47:16Z</time>
      </trkpt>
      <trkpt lat="48.38347" lon="2.55068">
        <ele>114.5</ele>
        <time>2025-11-16T08:47:20Z</time>
      </trkpt>
      <trkpt lat="48.38354" lon="2.55072">
        <ele>115.2</ele>
        <time>2025-11-16T08:47:24Z</time>
      </trkpt>
      <trkpt lat="48.38362" lon="2.55074">
        <ele>116</ele>
        <time>2025-11-16T08:47:28Z</time>
      </trkpt>
      <trkpt lat="48.38367" lon="2.55074">
        <ele>116.1</ele>
        <time>2025-11-16T08:47:30Z</time>
      </trkpt>
      <trkpt lat="48.38374" lon="2.55077">
        <ele>116.1</ele>
        <time>2025-11-16T08:47:34Z</time>
      </trkpt>
      <trkpt lat="48.38381" lon="2.55081">
        <ele>116.1</ele>
        <time>2025-11-16T08:47:38Z</time>
      </trkpt>
      <trkpt lat="48.38385" lon="2.55084">
        <ele>116</ele>
        <time>2025-11-16T08:47:40Z</time>
      </trkpt>
      <trkpt lat="48.38391" lon="2.55087">
        <ele>115.9</ele>
        <time>2025-11-16T08:47:42Z</time>
      </trkpt>
      <trkpt lat="48.38396" lon="2.55091">
        <ele>115.7</ele>
        <time>2025-11-16T08:47:44Z</time>
      </trkpt>
      <trkpt lat="48.38403" lon="2.55093">
        <ele>115.5</ele>
        <time>2025-11-16T08:47:46Z</time>
      </trkpt>
      <trkpt lat="48.38412" lon="2.55099">
        <ele>115.2</ele>
        <time>2025-11-16T08:47:48Z</time>
      </trkpt>
      <trkpt lat="48.38423" lon="2.55105">
        <ele>114.8</ele>
        <time>2025-11-16T08:47:50Z</time>
      </trkpt>
      <trkpt lat="48.38434" lon="2.55114">
        <ele>114.4</ele>
        <time>2025-11-16T08:47:52Z</time>
      </trkpt>
      <trkpt lat="48.38443" lon="2.55121">
        <ele>114.1</ele>
        <time>2025-11-16T08:47:54Z</time>
      </trkpt>
      <trkpt lat="48.38453" lon="2.55128">
        <ele>114</ele>
        <time>2025-11-16T08:47:56Z</time>
      </trkpt>
      <trkpt lat="48.38468" lon="2.55134">
        <ele>114</ele>
        <time>2025-11-16T08:47:58Z</time>
      </trkpt>
      <trkpt lat="48.3848" lon="2.5514">
        <ele>113.7</ele>
        <time>2025-11-16T08:48:00Z</time>
      </trkpt>
      <trkpt lat="48.38494" lon="2.55146">
        <ele>113.2</ele>
        <time>2025-11-16T08:48:02Z</time>
      </trkpt>
      <trkpt lat="48.38507" lon="2.55152">
        <ele>113</ele>
        <time>2025-11-16T08:48:04Z</time>
      </trkpt>
      <trkpt lat="48.38517" lon="2.55166">
        <ele>113</ele>
        <time>2025-11-16T08:48:06Z</time>
      </trkpt>
      <trkpt lat="48.38517" lon="2.55183">
        <ele>113.4</ele>
        <time>2025-11-16T08:48:08Z</time>
      </trkpt>
      <trkpt lat="48.38519" lon="2.55196">
        <ele>113.6</ele>
        <time>2025-11-16T08:48:10Z</time>
      </trkpt>
      <trkpt lat="48.38518" lon="2.55207">
        <ele>113.4</ele>
        <time>2025-11-16T08:48:12Z</time>
      </trkpt>
      <trkpt lat="48.38519" lon="2.55216">
        <ele>113.1</ele>
        <time>2025-11-16T08:48:14Z</time>
      </trkpt>
      <trkpt lat="48.38519" lon="2.55225">
        <ele>113</ele>
        <time>2025-11-16T08:48:16Z</time>
      </trkpt>
      <trkpt lat="48.3852" lon="2.55235">
        <ele>112.9</ele>
        <time>2025-11-16T08:48:18Z</time>
      </trkpt>
      <trkpt lat="48.3852" lon="2.55249">
        <ele>112.7</ele>
        <time>2025-11-16T08:48:20Z</time>
      </trkpt>
      <trkpt lat="48.38518" lon="2.55262">
        <ele>112.5</ele>
        <time>2025-11-16T08:48:22Z</time>
      </trkpt>
      <trkpt lat="48.38516" lon="2.55278">
        <ele>112.2</ele>
        <time>2025-11-16T08:48:24Z</time>
      </trkpt>
      <trkpt lat="48.38514" lon="2.55296">
        <ele>111.7</ele>
        <time>2025-11-16T08:48:26Z</time>
      </trkpt>
      <trkpt lat="48.38514" lon="2.55314">
        <ele>111.3</ele>
        <time>2025-11-16T08:48:28Z</time>
      </trkpt>
      <trkpt lat="48.3851" lon="2.55332">
        <ele>110.4</ele>
        <time>2025-11-16T08:48:30Z</time>
      </trkpt>
      <trkpt lat="48.38509" lon="2.5535">
        <ele>110.1</ele>
        <time>2025-11-16T08:48:32Z</time>
      </trkpt>
      <trkpt lat="48.38506" lon="2.55367">
        <ele>109.5</ele>
        <time>2025-11-16T08:48:34Z</time>
      </trkpt>
      <trkpt lat="48.38503" lon="2.55385">
        <ele>108.6</ele>
        <time>2025-11-16T08:48:36Z</time>
      </trkpt>
      <trkpt lat="48.38501" lon="2.55403">
        <ele>107.7</ele>
        <time>2025-11-16T08:48:38Z</time>
      </trkpt>
      <trkpt lat="48.385" lon="2.5542">
        <ele>106.9</ele>
        <time>2025-11-16T08:48:40Z</time>
      </trkpt>
      <trkpt lat="48.38498" lon="2.55439">
        <ele>106.3</ele>
        <time>2025-11-16T08:48:42Z</time>
      </trkpt>
      <trkpt lat="48.38497" lon="2.55456">
        <ele>105.7</ele>
        <time>2025-11-16T08:48:44Z</time>
      </trkpt>
      <trkpt lat="48.38496" lon="2.55472">
        <ele>105</ele>
        <time>2025-11-16T08:48:46Z</time>
      </trkpt>
      <trkpt lat="48.38492" lon="2.55487">
        <ele>104.5</ele>
        <time>2025-11-16T08:48:48Z</time>
      </trkpt>
      <trkpt lat="48.38488" lon="2.55504">
        <ele>103.9</ele>
        <time>2025-11-16T08:48:50Z</time>
      </trkpt>
      <trkpt lat="48.38484" lon="2.5552">
        <ele>103.6</ele>
        <time>2025-11-16T08:48:52Z</time>
      </trkpt>
      <trkpt lat="48.3848" lon="2.55537">
        <ele>103.2</ele>
        <time>2025-11-16T08:48:54Z</time>
      </trkpt>
      <trkpt lat="48.38476" lon="2.55554">
        <ele>103</ele>
        <time>2025-11-16T08:48:56Z</time>
      </trkpt>
      <trkpt lat="48.38471" lon="2.5557">
        <ele>103</ele>
        <time>2025-11-16T08:48:58Z</time>
      </trkpt>
      <trkpt lat="48.38466" lon="2.55587">
        <ele>103</ele>
        <time>2025-11-16T08:49:00Z</time>
      </trkpt>
      <trkpt lat="48.38462" lon="2.55604">
        <ele>103</ele>
        <time>2025-11-16T08:49:02Z</time>
      </trkpt>
      <trkpt lat="48.38459" lon="2.55621">
        <ele>103</ele>
        <time>2025-11-16T08:49:04Z</time>
      </trkpt>
      <trkpt lat="48.38453" lon="2.55638">
        <ele>103</ele>
        <time>2025-11-16T08:49:06Z</time>
      </trkpt>
      <trkpt lat="48.3845" lon="2.55655">
        <ele>103</ele>
        <time>2025-11-16T08:49:08Z</time>
      </trkpt>
      <trkpt lat="48.38447" lon="2.55672">
        <ele>103</ele>
        <time>2025-11-16T08:49:10Z</time>
      </trkpt>
      <trkpt lat="48.38443" lon="2.55687">
        <ele>103.1</ele>
        <time>2025-11-16T08:49:12Z</time>
      </trkpt>
      <trkpt lat="48.38441" lon="2.55704">
        <ele>103.2</ele>
        <time>2025-11-16T08:49:14Z</time>
      </trkpt>
      <trkpt lat="48.38438" lon="2.5572">
        <ele>103.3</ele>
        <time>2025-11-16T08:49:16Z</time>
      </trkpt>
      <trkpt lat="48.38432" lon="2.55734">
        <ele>103.4</ele>
        <time>2025-11-16T08:49:18Z</time>
      </trkpt>
      <trkpt lat="48.38424" lon="2.55746">
        <ele>103.7</ele>
        <time>2025-11-16T08:49:20Z</time>
      </trkpt>
      <trkpt lat="48.38418" lon="2.55756">
        <ele>103.9</ele>
        <time>2025-11-16T08:49:22Z</time>
      </trkpt>
      <trkpt lat="48.38415" lon="2.55767">
        <ele>104.2</ele>
        <time>2025-11-16T08:49:24Z</time>
      </trkpt>
      <trkpt lat="48.38414" lon="2.55778">
        <ele>104.2</ele>
        <time>2025-11-16T08:49:26Z</time>
      </trkpt>
      <trkpt lat="48.38413" lon="2.55789">
        <ele>104.3</ele>
        <time>2025-11-16T08:49:28Z</time>
      </trkpt>
      <trkpt lat="48.38413" lon="2.558">
        <ele>104.3</ele>
        <time>2025-11-16T08:49:30Z</time>
      </trkpt>
      <trkpt lat="48.38413" lon="2.55809">
        <ele>104.3</ele>
        <time>2025-11-16T08:49:32Z</time>
      </trkpt>
      <trkpt lat="48.38419" lon="2.55809">
        <ele>104</ele>
        <time>2025-11-16T08:49:34Z</time>
      </trkpt>
      <trkpt lat="48.38416" lon="2.5582">
        <ele>104</ele>
        <time>2025-11-16T08:49:36Z</time>
      </trkpt>
      <trkpt lat="48.38417" lon="2.55833">
        <ele>104</ele>
        <time>2025-11-16T08:49:38Z</time>
      </trkpt>
      <trkpt lat="48.3842" lon="2.55851">
        <ele>104.1</ele>
        <time>2025-11-16T08:49:40Z</time>
      </trkpt>
      <trkpt lat="48.38418" lon="2.55866">
        <ele>104</ele>
        <time>2025-11-16T08:49:42Z</time>
      </trkpt>
      <trkpt lat="48.38415" lon="2.55876">
        <ele>104</ele>
        <time>2025-11-16T08:49:44Z</time>
      </trkpt>
      <trkpt lat="48.38414" lon="2.55887">
        <ele>104.1</ele>
        <time>2025-11-16T08:49:46Z</time>
      </trkpt>
      <trkpt lat="48.38411" lon="2.55897">
        <ele>104.1</ele>
        <time>2025-11-16T08:49:48Z</time>
      </trkpt>
      <trkpt lat="48.38408" lon="2.55909">
        <ele>104.1</ele>
        <time>2025-11-16T08:49:50Z</time>
      </trkpt>
      <trkpt lat="48.38404" lon="2.55924">
        <ele>104</ele>
        <time>2025-11-16T08:49:52Z</time>
      </trkpt>
      <trkpt lat="48.38403" lon="2.55935">
        <ele>104</ele>
        <time>2025-11-16T08:49:54Z</time>
      </trkpt>
      <trkpt lat="48.38401" lon="2.55948">
        <ele>104.1</ele>
        <time>2025-11-16T08:49:56Z</time>
      </trkpt>
      <trkpt lat="48.38399" lon="2.5596">
        <ele>104.2</ele>
        <time>2025-11-16T08:49:58Z</time>
      </trkpt>
      <trkpt lat="48.38397" lon="2.55971">
        <ele>104.3</ele>
        <time>2025-11-16T08:50:00Z</time>
      </trkpt>
      <trkpt lat="48.38396" lon="2.55982">
        <ele>104.4</ele>
        <time>2025-11-16T08:50:02Z</time>
      </trkpt>
      <trkpt lat="48.38395" lon="2.55992">
        <ele>104.4</ele>
        <time>2025-11-16T08:50:04Z</time>
      </trkpt>
      <trkpt lat="48.38394" lon="2.56001">
        <ele>104.4</ele>
        <time>2025-11-16T08:50:06Z</time>
      </trkpt>
      <trkpt lat="48.38394" lon="2.5601">
        <ele>104.7</ele>
        <time>2025-11-16T08:50:08Z</time>
      </trkpt>
      <trkpt lat="48.38393" lon="2.56021">
        <ele>105</ele>
        <time>2025-11-16T08:50:10Z</time>
      </trkpt>
      <trkpt lat="48.38392" lon="2.56028">
        <ele>105.2</ele>
        <time>2025-11-16T08:50:12Z</time>
      </trkpt>
      <trkpt lat="48.3839" lon="2.56037">
        <ele>105.1</ele>
        <time>2025-11-16T08:50:14Z</time>
      </trkpt>
      <trkpt lat="48.38388" lon="2.56046">
        <ele>105.1</ele>
        <time>2025-11-16T08:50:16Z</time>
      </trkpt>
      <trkpt lat="48.38386" lon="2.56054">
        <ele>105.3</ele>
        <time>2025-11-16T08:50:18Z</time>
      </trkpt>
      <trkpt lat="48.38385" lon="2.56061">
        <ele>105.6</ele>
        <time>2025-11-16T08:50:20Z</time>
      </trkpt>
      <trkpt lat="48.38383" lon="2.56068">
        <ele>106</ele>
        <time>2025-11-16T08:50:22Z</time>
      </trkpt>
      <trkpt lat="48.38381" lon="2.56074">
        <ele>106.5</ele>
        <time>2025-11-16T08:50:24Z</time>
      </trkpt>
      <trkpt lat="48.3838" lon="2.56082">
        <ele>106.9</ele>
        <time>2025-11-16T08:50:26Z</time>
      </trkpt>
      <trkpt lat="48.38379" lon="2.5609">
        <ele>107.3</ele>
        <time>2025-11-16T08:50:28Z</time>
      </trkpt>
      <trkpt lat="48.38378" lon="2.56102">
        <ele>107.7</ele>
        <time>2025-11-16T08:50:32Z</time>
      </trkpt>
      <trkpt lat="48.38375" lon="2.56107">
        <ele>107.9</ele>
        <time>2025-11-16T08:50:34Z</time>
      </trkpt>
      <trkpt lat="48.38372" lon="2.56113">
        <ele>108</ele>
        <time>2025-11-16T08:50:36Z</time>
      </trkpt>
      <trkpt lat="48.38369" lon="2.56118">
        <ele>108.1</ele>
        <time>2025-11-16T08:50:38Z</time>
      </trkpt>
      <trkpt lat="48.38362" lon="2.56129">
        <ele>108</ele>
        <time>2025-11-16T08:50:42Z</time>
      </trkpt>
      <trkpt lat="48.38356" lon="2.56136">
        <ele>108.7</ele>
        <time>2025-11-16T08:50:44Z</time>
      </trkpt>
      <trkpt lat="48.38351" lon="2.56142">
        <ele>109.5</ele>
        <time>2025-11-16T08:50:46Z</time>
      </trkpt>
      <trkpt lat="48.38347" lon="2.56147">
        <ele>110.1</ele>
        <time>2025-11-16T08:50:48Z</time>
      </trkpt>
      <trkpt lat="48.38342" lon="2.56151">
        <ele>110.5</ele>
        <time>2025-11-16T08:50:50Z</time>
      </trkpt>
      <trkpt lat="48.38337" lon="2.56157">
        <ele>111</ele>
        <time>2025-11-16T08:50:52Z</time>
      </trkpt>
      <trkpt lat="48.38332" lon="2.5616">
        <ele>111.3</ele>
        <time>2025-11-16T08:50:54Z</time>
      </trkpt>
      <trkpt lat="48.38324" lon="2.56163">
        <ele>111.9</ele>
        <time>2025-11-16T08:50:58Z</time>
      </trkpt>
      <trkpt lat="48.38319" lon="2.56165">
        <ele>112.2</ele>
        <time>2025-11-16T08:51:00Z</time>
      </trkpt>
      <trkpt lat="48.38311" lon="2.56168">
        <ele>112.6</ele>
        <time>2025-11-16T08:51:04Z</time>
      </trkpt>
      <trkpt lat="48.38307" lon="2.56178">
        <ele>112.9</ele>
        <time>2025-11-16T08:51:08Z</time>
      </trkpt>
      <trkpt lat="48.38303" lon="2.56185">
        <ele>113.2</ele>
        <time>2025-11-16T08:51:10Z</time>
      </trkpt>
      <trkpt lat="48.383" lon="2.5619">
        <ele>113.4</ele>
        <time>2025-11-16T08:51:12Z</time>
      </trkpt>
      <trkpt lat="48.38297" lon="2.56197">
        <ele>113.6</ele>
        <time>2025-11-16T08:51:14Z</time>
      </trkpt>
      <trkpt lat="48.38295" lon="2.56203">
        <ele>113.8</ele>
        <time>2025-11-16T08:51:16Z</time>
      </trkpt>
      <trkpt lat="48.38293" lon="2.56211">
        <ele>114</ele>
        <time>2025-11-16T08:51:18Z</time>
      </trkpt>
      <trkpt lat="48.38292" lon="2.56217">
        <ele>114</ele>
        <time>2025-11-16T08:51:20Z</time>
      </trkpt>
      <trkpt lat="48.38291" lon="2.56224">
        <ele>114</ele>
        <time>2025-11-16T08:51:22Z</time>
      </trkpt>
      <trkpt lat="48.38289" lon="2.56232">
        <ele>114</ele>
        <time>2025-11-16T08:51:24Z</time>
      </trkpt>
      <trkpt lat="48.38286" lon="2.56239">
        <ele>114</ele>
        <time>2025-11-16T08:51:26Z</time>
      </trkpt>
      <trkpt lat="48.38282" lon="2.56244">
        <ele>114</ele>
        <time>2025-11-16T08:51:28Z</time>
      </trkpt>
      <trkpt lat="48.38274" lon="2.56252">
        <ele>114.1</ele>
        <time>2025-11-16T08:51:32Z</time>
      </trkpt>
      <trkpt lat="48.38269" lon="2.56255">
        <ele>114.3</ele>
        <time>2025-11-16T08:51:34Z</time>
      </trkpt>
      <trkpt lat="48.38265" lon="2.56258">
        <ele>114.5</ele>
        <time>2025-11-16T08:51:36Z</time>
      </trkpt>
      <trkpt lat="48.38259" lon="2.56261">
        <ele>114.7</ele>
        <time>2025-11-16T08:51:38Z</time>
      </trkpt>
      <trkpt lat="48.38253" lon="2.56265">
        <ele>114.9</ele>
        <time>2025-11-16T08:51:40Z</time>
      </trkpt>
      <trkpt lat="48.38247" lon="2.56268">
        <ele>115.1</ele>
        <time>2025-11-16T08:51:42Z</time>
      </trkpt>
      <trkpt lat="48.38239" lon="2.56274">
        <ele>115.4</ele>
        <time>2025-11-16T08:51:46Z</time>
      </trkpt>
      <trkpt lat="48.38231" lon="2.56279">
        <ele>115.6</ele>
        <time>2025-11-16T08:51:50Z</time>
      </trkpt>
      <trkpt lat="48.38224" lon="2.56287">
        <ele>115.6</ele>
        <time>2025-11-16T08:51:54Z</time>
      </trkpt>
      <trkpt lat="48.38219" lon="2.56295">
        <ele>115.2</ele>
        <time>2025-11-16T08:51:58Z</time>
      </trkpt>
      <trkpt lat="48.38215" lon="2.563">
        <ele>114.9</ele>
        <time>2025-11-16T08:52:00Z</time>
      </trkpt>
      <trkpt lat="48.38214" lon="2.56311">
        <ele>114.7</ele>
        <time>2025-11-16T08:52:04Z</time>
      </trkpt>
      <trkpt lat="48.38212" lon="2.56318">
        <ele>114.6</ele>
        <time>2025-11-16T08:52:06Z</time>
      </trkpt>
      <trkpt lat="48.38208" lon="2.56327">
        <ele>114.5</ele>
        <time>2025-11-16T08:52:08Z</time>
      </trkpt>
      <trkpt lat="48.38203" lon="2.56335">
        <ele>114.4</ele>
        <time>2025-11-16T08:52:10Z</time>
      </trkpt>
      <trkpt lat="48.382" lon="2.56345">
        <ele>114.5</ele>
        <time>2025-11-16T08:52:12Z</time>
      </trkpt>
      <trkpt lat="48.38198" lon="2.56353">
        <ele>114.7</ele>
        <time>2025-11-16T08:52:14Z</time>
      </trkpt>
      <trkpt lat="48.38195" lon="2.5636">
        <ele>115</ele>
        <time>2025-11-16T08:52:16Z</time>
      </trkpt>
      <trkpt lat="48.38191" lon="2.56371">
        <ele>114.7</ele>
        <time>2025-11-16T08:52:20Z</time>
      </trkpt>
      <trkpt lat="48.3819" lon="2.56378">
        <ele>114.7</ele>
        <time>2025-11-16T08:52:22Z</time>
      </trkpt>
      <trkpt lat="48.38187" lon="2.56386">
        <ele>114.7</ele>
        <time>2025-11-16T08:52:24Z</time>
      </trkpt>
      <trkpt lat="48.38185" lon="2.56394">
        <ele>114.7</ele>
        <time>2025-11-16T08:52:26Z</time>
      </trkpt>
      <trkpt lat="48.38183" lon="2.56403">
        <ele>114.6</ele>
        <time>2025-11-16T08:52:28Z</time>
      </trkpt>
      <trkpt lat="48.3818" lon="2.56414">
        <ele>114.5</ele>
        <time>2025-11-16T08:52:30Z</time>
      </trkpt>
      <trkpt lat="48.38176" lon="2.56426">
        <ele>114.5</ele>
        <time>2025-11-16T08:52:32Z</time>
      </trkpt>
      <trkpt lat="48.38172" lon="2.56436">
        <ele>114.8</ele>
        <time>2025-11-16T08:52:34Z</time>
      </trkpt>
      <trkpt lat="48.38165" lon="2.56444">
        <ele>114.9</ele>
        <time>2025-11-16T08:52:36Z</time>
      </trkpt>
      <trkpt lat="48.3816" lon="2.56455">
        <ele>114.3</ele>
        <time>2025-11-16T08:52:38Z</time>
      </trkpt>
      <trkpt lat="48.38155" lon="2.56469">
        <ele>114.1</ele>
        <time>2025-11-16T08:52:40Z</time>
      </trkpt>
      <trkpt lat="48.38156" lon="2.56482">
        <ele>114.1</ele>
        <time>2025-11-16T08:52:42Z</time>
      </trkpt>
      <trkpt lat="48.38152" lon="2.56489">
        <ele>113.7</ele>
        <time>2025-11-16T08:52:44Z</time>
      </trkpt>
      <trkpt lat="48.38148" lon="2.56485">
        <ele>113.3</ele>
        <time>2025-11-16T08:52:46Z</time>
      </trkpt>
      <trkpt lat="48.38146" lon="2.56478">
        <ele>113.4</ele>
        <time>2025-11-16T08:52:48Z</time>
      </trkpt>
      <trkpt lat="48.38144" lon="2.56466">
        <ele>113.2</ele>
        <time>2025-11-16T08:52:50Z</time>
      </trkpt>
      <trkpt lat="48.38143" lon="2.56451">
        <ele>112.7</ele>
        <time>2025-11-16T08:52:52Z</time>
      </trkpt>
      <trkpt lat="48.38144" lon="2.56437">
        <ele>112.3</ele>
        <time>2025-11-16T08:52:54Z</time>
      </trkpt>
      <trkpt lat="48.38147" lon="2.56421">
        <ele>112</ele>
        <time>2025-11-16T08:52:56Z</time>
      </trkpt>
      <trkpt lat="48.3815" lon="2.56404">
        <ele>111.9</ele>
        <time>2025-11-16T08:52:58Z</time>
      </trkpt>
      <trkpt lat="48.38154" lon="2.56387">
        <ele>112</ele>
        <time>2025-11-16T08:53:00Z</time>
      </trkpt>
      <trkpt lat="48.38157" lon="2.56368">
        <ele>111.1</ele>
        <time>2025-11-16T08:53:02Z</time>
      </trkpt>
      <trkpt lat="48.38163" lon="2.56351">
        <ele>110.7</ele>
        <time>2025-11-16T08:53:04Z</time>
      </trkpt>
      <trkpt lat="48.38167" lon="2.5633">
        <ele>109.7</ele>
        <time>2025-11-16T08:53:06Z</time>
      </trkpt>
      <trkpt lat="48.3817" lon="2.56308">
        <ele>108.8</ele>
        <time>2025-11-16T08:53:08Z</time>
      </trkpt>
      <trkpt lat="48.38171" lon="2.56287">
        <ele>108.3</ele>
        <time>2025-11-16T08:53:10Z</time>
      </trkpt>
      <trkpt lat="48.3817" lon="2.56263">
        <ele>107.8</ele>
        <time>2025-11-16T08:53:12Z</time>
      </trkpt>
      <trkpt lat="48.38167" lon="2.56241">
        <ele>107.1</ele>
        <time>2025-11-16T08:53:14Z</time>
      </trkpt>
      <trkpt lat="48.3816" lon="2.56221">
        <ele>106.1</ele>
        <time>2025-11-16T08:53:16Z</time>
      </trkpt>
      <trkpt lat="48.38156" lon="2.56199">
        <ele>106</ele>
        <time>2025-11-16T08:53:18Z</time>
      </trkpt>
      <trkpt lat="48.38151" lon="2.56179">
        <ele>105.2</ele>
        <time>2025-11-16T08:53:20Z</time>
      </trkpt>
      <trkpt lat="48.38149" lon="2.56161">
        <ele>104.8</ele>
        <time>2025-11-16T08:53:22Z</time>
      </trkpt>
      <trkpt lat="48.38148" lon="2.56143">
        <ele>104.6</ele>
        <time>2025-11-16T08:53:24Z</time>
      </trkpt>
      <trkpt lat="48.38148" lon="2.56129">
        <ele>104.6</ele>
        <time>2025-11-16T08:53:26Z</time>
      </trkpt>
      <trkpt lat="48.38149" lon="2.56115">
        <ele>104.4</ele>
        <time>2025-11-16T08:53:28Z</time>
      </trkpt>
      <trkpt lat="48.38147" lon="2.56103">
        <ele>104.2</ele>
        <time>2025-11-16T08:53:30Z</time>
      </trkpt>
      <trkpt lat="48.38146" lon="2.56088">
        <ele>104.1</ele>
        <time>2025-11-16T08:53:32Z</time>
      </trkpt>
      <trkpt lat="48.38146" lon="2.56076">
        <ele>104.4</ele>
        <time>2025-11-16T08:53:34Z</time>
      </trkpt>
      <trkpt lat="48.38143" lon="2.56064">
        <ele>104.8</ele>
        <time>2025-11-16T08:53:36Z</time>
      </trkpt>
      <trkpt lat="48.38135" lon="2.56058">
        <ele>104.7</ele>
        <time>2025-11-16T08:53:38Z</time>
      </trkpt>
      <trkpt lat="48.38128" lon="2.5605">
        <ele>105</ele>
        <time>2025-11-16T08:53:40Z</time>
      </trkpt>
      <trkpt lat="48.3812" lon="2.56046">
        <ele>104.9</ele>
        <time>2025-11-16T08:53:42Z</time>
      </trkpt>
      <trkpt lat="48.38111" lon="2.56041">
        <ele>104.5</ele>
        <time>2025-11-16T08:53:44Z</time>
      </trkpt>
      <trkpt lat="48.38103" lon="2.56033">
        <ele>104.3</ele>
        <time>2025-11-16T08:53:46Z</time>
      </trkpt>
      <trkpt lat="48.38096" lon="2.56031">
        <ele>103.9</ele>
        <time>2025-11-16T08:53:48Z</time>
      </trkpt>
      <trkpt lat="48.38085" lon="2.56035">
        <ele>103.1</ele>
        <time>2025-11-16T08:53:50Z</time>
      </trkpt>
      <trkpt lat="48.38077" lon="2.56029">
        <ele>103</ele>
        <time>2025-11-16T08:53:52Z</time>
      </trkpt>
      <trkpt lat="48.38068" lon="2.56028">
        <ele>103</ele>
        <time>2025-11-16T08:53:54Z</time>
      </trkpt>
      <trkpt lat="48.38062" lon="2.56025">
        <ele>102.9</ele>
        <time>2025-11-16T08:53:56Z</time>
      </trkpt>
      <trkpt lat="48.38059" lon="2.5602">
        <ele>102.7</ele>
        <time>2025-11-16T08:53:58Z</time>
      </trkpt>
      <trkpt lat="48.38055" lon="2.56012">
        <ele>102.5</ele>
        <time>2025-11-16T08:54:00Z</time>
      </trkpt>
      <trkpt lat="48.3805" lon="2.56002">
        <ele>102.6</ele>
        <time>2025-11-16T08:54:02Z</time>
      </trkpt>
      <trkpt lat="48.38046" lon="2.55991">
        <ele>102.8</ele>
        <time>2025-11-16T08:54:04Z</time>
      </trkpt>
      <trkpt lat="48.38045" lon="2.55981">
        <ele>102.6</ele>
        <time>2025-11-16T08:54:06Z</time>
      </trkpt>
      <trkpt lat="48.38042" lon="2.55969">
        <ele>102.4</ele>
        <time>2025-11-16T08:54:08Z</time>
      </trkpt>
      <trkpt lat="48.38039" lon="2.55956">
        <ele>102.2</ele>
        <time>2025-11-16T08:54:10Z</time>
      </trkpt>
      <trkpt lat="48.38039" lon="2.55941">
        <ele>102</ele>
        <time>2025-11-16T08:54:12Z</time>
      </trkpt>
      <trkpt lat="48.38038" lon="2.55927">
        <ele>102</ele>
        <time>2025-11-16T08:54:14Z</time>
      </trkpt>
      <trkpt lat="48.38036" lon="2.5591">
        <ele>102</ele>
        <time>2025-11-16T08:54:16Z</time>
      </trkpt>
      <trkpt lat="48.38036" lon="2.55897">
        <ele>102</ele>
        <time>2025-11-16T08:54:18Z</time>
      </trkpt>
      <trkpt lat="48.38036" lon="2.55883">
        <ele>102</ele>
        <time>2025-11-16T08:54:20Z</time>
      </trkpt>
      <trkpt lat="48.38035" lon="2.55869">
        <ele>102</ele>
        <time>2025-11-16T08:54:22Z</time>
      </trkpt>
      <trkpt lat="48.38033" lon="2.55857">
        <ele>102</ele>
        <time>2025-11-16T08:54:24Z</time>
      </trkpt>
      <trkpt lat="48.38033" lon="2.55842">
        <ele>102</ele>
        <time>2025-11-16T08:54:26Z</time>
      </trkpt>
      <trkpt lat="48.38033" lon="2.55829">
        <ele>102</ele>
        <time>2025-11-16T08:54:28Z</time>
      </trkpt>
      <trkpt lat="48.38036" lon="2.55815">
        <ele>102</ele>
        <time>2025-11-16T08:54:30Z</time>
      </trkpt>
      <trkpt lat="48.38036" lon="2.55801">
        <ele>102</ele>
        <time>2025-11-16T08:54:32Z</time>
      </trkpt>
      <trkpt lat="48.38035" lon="2.55787">
        <ele>102</ele>
        <time>2025-11-16T08:54:34Z</time>
      </trkpt>
      <trkpt lat="48.38036" lon="2.55772">
        <ele>102</ele>
        <time>2025-11-16T08:54:36Z</time>
      </trkpt>
      <trkpt lat="48.38037" lon="2.55757">
        <ele>102</ele>
        <time>2025-11-16T08:54:38Z</time>
      </trkpt>
      <trkpt lat="48.38037" lon="2.55743">
        <ele>102</ele>
        <time>2025-11-16T08:54:40Z</time>
      </trkpt>
      <trkpt lat="48.38034" lon="2.5573">
        <ele>102</ele>
        <time>2025-11-16T08:54:42Z</time>
      </trkpt>
      <trkpt lat="48.38028" lon="2.55719">
        <ele>102</ele>
        <time>2025-11-16T08:54:44Z</time>
      </trkpt>
      <trkpt lat="48.38023" lon="2.55708">
        <ele>102</ele>
        <time>2025-11-16T08:54:46Z</time>
      </trkpt>
      <trkpt lat="48.38019" lon="2.55695">
        <ele>102</ele>
        <time>2025-11-16T08:54:48Z</time>
      </trkpt>
      <trkpt lat="48.38018" lon="2.55682">
        <ele>102</ele>
        <time>2025-11-16T08:54:50Z</time>
      </trkpt>
      <trkpt lat="48.38018" lon="2.5567">
        <ele>102</ele>
        <time>2025-11-16T08:54:52Z</time>
      </trkpt>
      <trkpt lat="48.38019" lon="2.55657">
        <ele>102</ele>
        <time>2025-11-16T08:54:54Z</time>
      </trkpt>
      <trkpt lat="48.3802" lon="2.55646">
        <ele>102</ele>
        <time>2025-11-16T08:54:56Z</time>
      </trkpt>
      <trkpt lat="48.38023" lon="2.55636">
        <ele>102</ele>
        <time>2025-11-16T08:54:58Z</time>
      </trkpt>
      <trkpt lat="48.38024" lon="2.55623">
        <ele>102</ele>
        <time>2025-11-16T08:55:00Z</time>
      </trkpt>
      <trkpt lat="48.38026" lon="2.55611">
        <ele>102</ele>
        <time>2025-11-16T08:55:02Z</time>
      </trkpt>
      <trkpt lat="48.38027" lon="2.55598">
        <ele>102</ele>
        <time>2025-11-16T08:55:04Z</time>
      </trkpt>
      <trkpt lat="48.38028" lon="2.55586">
        <ele>102</ele>
        <time>2025-11-16T08:55:06Z</time>
      </trkpt>
      <trkpt lat="48.38025" lon="2.55577">
        <ele>102</ele>
        <time>2025-11-16T08:55:08Z</time>
      </trkpt>
      <trkpt lat="48.3802" lon="2.55564">
        <ele>102</ele>
        <time>2025-11-16T08:55:10Z</time>
      </trkpt>
      <trkpt lat="48.38016" lon="2.55551">
        <ele>102</ele>
        <time>2025-11-16T08:55:12Z</time>
      </trkpt>
      <trkpt lat="48.38014" lon="2.55538">
        <ele>102</ele>
        <time>2025-11-16T08:55:14Z</time>
      </trkpt>
      <trkpt lat="48.38014" lon="2.55525">
        <ele>102.1</ele>
        <time>2025-11-16T08:55:16Z</time>
      </trkpt>
      <trkpt lat="48.38016" lon="2.55512">
        <ele>102.2</ele>
        <time>2025-11-16T08:55:18Z</time>
      </trkpt>
      <trkpt lat="48.38018" lon="2.555">
        <ele>102.4</ele>
        <time>2025-11-16T08:55:20Z</time>
      </trkpt>
      <trkpt lat="48.38022" lon="2.55488">
        <ele>102.2</ele>
        <time>2025-11-16T08:55:22Z</time>
      </trkpt>
      <trkpt lat="48.38025" lon="2.55476">
        <ele>102.1</ele>
        <time>2025-11-16T08:55:24Z</time>
      </trkpt>
      <trkpt lat="48.38028" lon="2.55463">
        <ele>102</ele>
        <time>2025-11-16T08:55:26Z</time>
      </trkpt>
      <trkpt lat="48.38032" lon="2.5545">
        <ele>102</ele>
        <time>2025-11-16T08:55:28Z</time>
      </trkpt>
      <trkpt lat="48.38032" lon="2.55436">
        <ele>102</ele>
        <time>2025-11-16T08:55:30Z</time>
      </trkpt>
      <trkpt lat="48.38031" lon="2.55422">
        <ele>102</ele>
        <time>2025-11-16T08:55:32Z</time>
      </trkpt>
      <trkpt lat="48.38031" lon="2.55409">
        <ele>102</ele>
        <time>2025-11-16T08:55:34Z</time>
      </trkpt>
      <trkpt lat="48.38032" lon="2.55397">
        <ele>102</ele>
        <time>2025-11-16T08:55:36Z</time>
      </trkpt>
      <trkpt lat="48.38032" lon="2.55384">
        <ele>102</ele>
        <time>2025-11-16T08:55:38Z</time>
      </trkpt>
      <trkpt lat="48.38034" lon="2.55371">
        <ele>102.1</ele>
        <time>2025-11-16T08:55:40Z</time>
      </trkpt>
      <trkpt lat="48.38035" lon="2.55358">
        <ele>102.3</ele>
        <time>2025-11-16T08:55:42Z</time>
      </trkpt>
      <trkpt lat="48.38036" lon="2.55345">
        <ele>102.3</ele>
        <time>2025-11-16T08:55:44Z</time>
      </trkpt>
      <trkpt lat="48.38037" lon="2.55334">
        <ele>102.3</ele>
        <time>2025-11-16T08:55:46Z</time>
      </trkpt>
      <trkpt lat="48.3804" lon="2.55323">
        <ele>102.4</ele>
        <time>2025-11-16T08:55:48Z</time>
      </trkpt>
      <trkpt lat="48.38042" lon="2.55312">
        <ele>102.5</ele>
        <time>2025-11-16T08:55:50Z</time>
      </trkpt>
      <trkpt lat="48.38045" lon="2.553">
        <ele>102.5</ele>
        <time>2025-11-16T08:55:52Z</time>
      </trkpt>
      <trkpt lat="48.38048" lon="2.5529">
        <ele>102.3</ele>
        <time>2025-11-16T08:55:54Z</time>
      </trkpt>
      <trkpt lat="48.38052" lon="2.55278">
        <ele>102</ele>
        <time>2025-11-16T08:55:56Z</time>
      </trkpt>
      <trkpt lat="48.38053" lon="2.55267">
        <ele>102</ele>
        <time>2025-11-16T08:55:58Z</time>
      </trkpt>
      <trkpt lat="48.38055" lon="2.55256">
        <ele>102</ele>
        <time>2025-11-16T08:56:00Z</time>
      </trkpt>
      <trkpt lat="48.38056" lon="2.55244">
        <ele>102</ele>
        <time>2025-11-16T08:56:02Z</time>
      </trkpt>
      <trkpt lat="48.38057" lon="2.55232">
        <ele>102.1</ele>
        <time>2025-11-16T08:56:04Z</time>
      </trkpt>
      <trkpt lat="48.38058" lon="2.55221">
        <ele>102.2</ele>
        <time>2025-11-16T08:56:06Z</time>
      </trkpt>
      <trkpt lat="48.3806" lon="2.55209">
        <ele>102.3</ele>
        <time>2025-11-16T08:56:08Z</time>
      </trkpt>
      <trkpt lat="48.38063" lon="2.55199">
        <ele>102.5</ele>
        <time>2025-11-16T08:56:10Z</time>
      </trkpt>
      <trkpt lat="48.38064" lon="2.55186">
        <ele>102.5</ele>
        <time>2025-11-16T08:56:12Z</time>
      </trkpt>
      <trkpt lat="48.38064" lon="2.55173">
        <ele>102.4</ele>
        <time>2025-11-16T08:56:14Z</time>
      </trkpt>
      <trkpt lat="48.38066" lon="2.55161">
        <ele>102.3</ele>
        <time>2025-11-16T08:56:16Z</time>
      </trkpt>
      <trkpt lat="48.38069" lon="2.5515">
        <ele>102.2</ele>
        <time>2025-11-16T08:56:18Z</time>
      </trkpt>
      <trkpt lat="48.38071" lon="2.55139">
        <ele>102</ele>
        <time>2025-11-16T08:56:20Z</time>
      </trkpt>
      <trkpt lat="48.38074" lon="2.55127">
        <ele>102.2</ele>
        <time>2025-11-16T08:56:22Z</time>
      </trkpt>
      <trkpt lat="48.38075" lon="2.55113">
        <ele>102.3</ele>
        <time>2025-11-16T08:56:24Z</time>
      </trkpt>
      <trkpt lat="48.38076" lon="2.55101">
        <ele>102.3</ele>
        <time>2025-11-16T08:56:26Z</time>
      </trkpt>
      <trkpt lat="48.38078" lon="2.55089">
        <ele>102.2</ele>
        <time>2025-11-16T08:56:28Z</time>
      </trkpt>
      <trkpt lat="48.38079" lon="2.55077">
        <ele>102.1</ele>
        <time>2025-11-16T08:56:30Z</time>
      </trkpt>
      <trkpt lat="48.38081" lon="2.55065">
        <ele>102.1</ele>
        <time>2025-11-16T08:56:32Z</time>
      </trkpt>
      <trkpt lat="48.38083" lon="2.55052">
        <ele>102</ele>
        <time>2025-11-16T08:56:34Z</time>
      </trkpt>
      <trkpt lat="48.38084" lon="2.5504">
        <ele>102</ele>
        <time>2025-11-16T08:56:36Z</time>
      </trkpt>
      <trkpt lat="48.38087" lon="2.55029">
        <ele>102.1</ele>
        <time>2025-11-16T08:56:38Z</time>
      </trkpt>
      <trkpt lat="48.38087" lon="2.55016">
        <ele>102.1</ele>
        <time>2025-11-16T08:56:40Z</time>
      </trkpt>
      <trkpt lat="48.38089" lon="2.55006">
        <ele>102.2</ele>
        <time>2025-11-16T08:56:42Z</time>
      </trkpt>
      <trkpt lat="48.38091" lon="2.54997">
        <ele>102.3</ele>
        <time>2025-11-16T08:56:44Z</time>
      </trkpt>
      <trkpt lat="48.38091" lon="2.54987">
        <ele>102.3</ele>
        <time>2025-11-16T08:56:46Z</time>
      </trkpt>
      <trkpt lat="48.3809" lon="2.54978">
        <ele>102.2</ele>
        <time>2025-11-16T08:56:48Z</time>
      </trkpt>
      <trkpt lat="48.38086" lon="2.5497">
        <ele>102.1</ele>
        <time>2025-11-16T08:56:50Z</time>
      </trkpt>
      <trkpt lat="48.38081" lon="2.54961">
        <ele>102</ele>
        <time>2025-11-16T08:56:52Z</time>
      </trkpt>
      <trkpt lat="48.38076" lon="2.54955">
        <ele>102</ele>
        <time>2025-11-16T08:56:54Z</time>
      </trkpt>
      <trkpt lat="48.38072" lon="2.54948">
        <ele>102</ele>
        <time>2025-11-16T08:56:56Z</time>
      </trkpt>
      <trkpt lat="48.3807" lon="2.54941">
        <ele>102</ele>
        <time>2025-11-16T08:56:58Z</time>
      </trkpt>
      <trkpt lat="48.38068" lon="2.54935">
        <ele>102</ele>
        <time>2025-11-16T08:57:00Z</time>
      </trkpt>
      <trkpt lat="48.38068" lon="2.54926">
        <ele>102</ele>
        <time>2025-11-16T08:57:02Z</time>
      </trkpt>
      <trkpt lat="48.38068" lon="2.54919">
        <ele>102</ele>
        <time>2025-11-16T08:57:04Z</time>
      </trkpt>
      <trkpt lat="48.38066" lon="2.54912">
        <ele>102.2</ele>
        <time>2025-11-16T08:57:06Z</time>
      </trkpt>
      <trkpt lat="48.38064" lon="2.54904">
        <ele>102.5</ele>
        <time>2025-11-16T08:57:08Z</time>
      </trkpt>
      <trkpt lat="48.38061" lon="2.54896">
        <ele>102.7</ele>
        <time>2025-11-16T08:57:10Z</time>
      </trkpt>
      <trkpt lat="48.38059" lon="2.5489">
        <ele>103</ele>
        <time>2025-11-16T08:57:12Z</time>
      </trkpt>
      <trkpt lat="48.38056" lon="2.54884">
        <ele>103.2</ele>
        <time>2025-11-16T08:57:14Z</time>
      </trkpt>
      <trkpt lat="48.38052" lon="2.54877">
        <ele>104</ele>
        <time>2025-11-16T08:57:16Z</time>
      </trkpt>
      <trkpt lat="48.3805" lon="2.54871">
        <ele>104.5</ele>
        <time>2025-11-16T08:57:18Z</time>
      </trkpt>
      <trkpt lat="48.38046" lon="2.54865">
        <ele>105.2</ele>
        <time>2025-11-16T08:57:20Z</time>
      </trkpt>
      <trkpt lat="48.38044" lon="2.54857">
        <ele>105.6</ele>
        <time>2025-11-16T08:57:22Z</time>
      </trkpt>
      <trkpt lat="48.38042" lon="2.54848">
        <ele>105.7</ele>
        <time>2025-11-16T08:57:24Z</time>
      </trkpt>
      <trkpt lat="48.38042" lon="2.54839">
        <ele>105.6</ele>
        <time>2025-11-16T08:57:26Z</time>
      </trkpt>
      <trkpt lat="48.38042" lon="2.5483">
        <ele>105.4</ele>
        <time>2025-11-16T08:57:28Z</time>
      </trkpt>
      <trkpt lat="48.38041" lon="2.54818">
        <ele>105.3</ele>
        <time>2025-11-16T08:57:30Z</time>
      </trkpt>
      <trkpt lat="48.38039" lon="2.54806">
        <ele>105</ele>
        <time>2025-11-16T08:57:32Z</time>
      </trkpt>
      <trkpt lat="48.38035" lon="2.54796">
        <ele>104.7</ele>
        <time>2025-11-16T08:57:34Z</time>
      </trkpt>
      <trkpt lat="48.38025" lon="2.54793">
        <ele>104.2</ele>
        <time>2025-11-16T08:57:36Z</time>
      </trkpt>
      <trkpt lat="48.38016" lon="2.54788">
        <ele>104.1</ele>
        <time>2025-11-16T08:57:38Z</time>
      </trkpt>
      <trkpt lat="48.38008" lon="2.54776">
        <ele>102.8</ele>
        <time>2025-11-16T08:57:40Z</time>
      </trkpt>
      <trkpt lat="48.38004" lon="2.54755">
        <ele>100.8</ele>
        <time>2025-11-16T08:57:42Z</time>
      </trkpt>
      <trkpt lat="48.38004" lon="2.5473">
        <ele>100.3</ele>
        <time>2025-11-16T08:57:44Z</time>
      </trkpt>
      <trkpt lat="48.38007" lon="2.54706">
        <ele>100.5</ele>
        <time>2025-11-16T08:57:46Z</time>
      </trkpt>
      <trkpt lat="48.3801" lon="2.54683">
        <ele>100.6</ele>
        <time>2025-11-16T08:57:48Z</time>
      </trkpt>
      <trkpt lat="48.38011" lon="2.54661">
        <ele>100.3</ele>
        <time>2025-11-16T08:57:50Z</time>
      </trkpt>
      <trkpt lat="48.38014" lon="2.5464">
        <ele>100</ele>
        <time>2025-11-16T08:57:52Z</time>
      </trkpt>
      <trkpt lat="48.3802" lon="2.54621">
        <ele>98.9</ele>
        <time>2025-11-16T08:57:54Z</time>
      </trkpt>
      <trkpt lat="48.38021" lon="2.54601">
        <ele>97.6</ele>
        <time>2025-11-16T08:57:56Z</time>
      </trkpt>
      <trkpt lat="48.38021" lon="2.5458">
        <ele>96.1</ele>
        <time>2025-11-16T08:57:58Z</time>
      </trkpt>
      <trkpt lat="48.38025" lon="2.54559">
        <ele>93.6</ele>
        <time>2025-11-16T08:58:00Z</time>
      </trkpt>
      <trkpt lat="48.38028" lon="2.54533">
        <ele>90.7</ele>
        <time>2025-11-16T08:58:02Z</time>
      </trkpt>
      <trkpt lat="48.3803" lon="2.54508">
        <ele>88.3</ele>
        <time>2025-11-16T08:58:04Z</time>
      </trkpt>
      <trkpt lat="48.38029" lon="2.54483">
        <ele>85.3</ele>
        <time>2025-11-16T08:58:06Z</time>
      </trkpt>
      <trkpt lat="48.38023" lon="2.54457">
        <ele>83</ele>
        <time>2025-11-16T08:58:08Z</time>
      </trkpt>
      <trkpt lat="48.38019" lon="2.54438">
        <ele>81.5</ele>
        <time>2025-11-16T08:58:10Z</time>
      </trkpt>
      <trkpt lat="48.38009" lon="2.54421">
        <ele>80.3</ele>
        <time>2025-11-16T08:58:12Z</time>
      </trkpt>
      <trkpt lat="48.38" lon="2.54404">
        <ele>79.1</ele>
        <time>2025-11-16T08:58:14Z</time>
      </trkpt>
      <trkpt lat="48.37991" lon="2.54385">
        <ele>77.9</ele>
        <time>2025-11-16T08:58:16Z</time>
      </trkpt>
      <trkpt lat="48.37986" lon="2.54366">
        <ele>77.2</ele>
        <time>2025-11-16T08:58:18Z</time>
      </trkpt>
      <trkpt lat="48.37984" lon="2.54347">
        <ele>76.5</ele>
        <time>2025-11-16T08:58:20Z</time>
      </trkpt>
      <trkpt lat="48.37983" lon="2.54328">
        <ele>75.9</ele>
        <time>2025-11-16T08:58:22Z</time>
      </trkpt>
      <trkpt lat="48.37983" lon="2.5431">
        <ele>75.5</ele>
        <time>2025-11-16T08:58:24Z</time>
      </trkpt>
      <trkpt lat="48.37981" lon="2.54295">
        <ele>75.2</ele>
        <time>2025-11-16T08:58:26Z</time>
      </trkpt>
      <trkpt lat="48.37977" lon="2.5428">
        <ele>75</ele>
        <time>2025-11-16T08:58:28Z</time>
      </trkpt>
      <trkpt lat="48.3797" lon="2.54268">
        <ele>74.6</ele>
        <time>2025-11-16T08:58:30Z</time>
      </trkpt>
      <trkpt lat="48.37961" lon="2.54257">
        <ele>74.2</ele>
        <time>2025-11-16T08:58:32Z</time>
      </trkpt>
      <trkpt lat="48.37953" lon="2.54246">
        <ele>73.9</ele>
        <time>2025-11-16T08:58:34Z</time>
      </trkpt>
      <trkpt lat="48.37945" lon="2.54235">
        <ele>73.5</ele>
        <time>2025-11-16T08:58:36Z</time>
      </trkpt>
      <trkpt lat="48.37936" lon="2.54222">
        <ele>73</ele>
        <time>2025-11-16T08:58:38Z</time>
      </trkpt>
      <trkpt lat="48.37926" lon="2.54211">
        <ele>72.7</ele>
        <time>2025-11-16T08:58:40Z</time>
      </trkpt>
      <trkpt lat="48.37918" lon="2.54199">
        <ele>72.2</ele>
        <time>2025-11-16T08:58:42Z</time>
      </trkpt>
      <trkpt lat="48.3791" lon="2.54186">
        <ele>72</ele>
        <time>2025-11-16T08:58:44Z</time>
      </trkpt>
      <trkpt lat="48.37902" lon="2.54173">
        <ele>72</ele>
        <time>2025-11-16T08:58:46Z</time>
      </trkpt>
      <trkpt lat="48.37894" lon="2.54158">
        <ele>72</ele>
        <time>2025-11-16T08:58:48Z</time>
      </trkpt>
      <trkpt lat="48.37885" lon="2.54147">
        <ele>72</ele>
        <time>2025-11-16T08:58:50Z</time>
      </trkpt>
      <trkpt lat="48.37875" lon="2.54139">
        <ele>72</ele>
        <time>2025-11-16T08:58:52Z</time>
      </trkpt>
      <trkpt lat="48.37865" lon="2.54134">
        <ele>72</ele>
        <time>2025-11-16T08:58:54Z</time>
      </trkpt>
      <trkpt lat="48.37854" lon="2.54125">
        <ele>72</ele>
        <time>2025-11-16T08:58:56Z</time>
      </trkpt>
      <trkpt lat="48.37844" lon="2.54119">
        <ele>72</ele>
        <time>2025-11-16T08:58:58Z</time>
      </trkpt>
      <trkpt lat="48.37833" lon="2.54112">
        <ele>72</ele>
        <time>2025-11-16T08:59:00Z</time>
      </trkpt>
      <trkpt lat="48.37823" lon="2.54105">
        <ele>72</ele>
        <time>2025-11-16T08:59:02Z</time>
      </trkpt>
      <trkpt lat="48.37814" lon="2.54099">
        <ele>72</ele>
        <time>2025-11-16T08:59:04Z</time>
      </trkpt>
      <trkpt lat="48.37805" lon="2.54092">
        <ele>72</ele>
        <time>2025-11-16T08:59:06Z</time>
      </trkpt>
      <trkpt lat="48.37798" lon="2.54087">
        <ele>72.5</ele>
        <time>2025-11-16T08:59:08Z</time>
      </trkpt>
      <trkpt lat="48.37791" lon="2.54082">
        <ele>73</ele>
        <time>2025-11-16T08:59:10Z</time>
      </trkpt>
      <trkpt lat="48.37785" lon="2.54078">
        <ele>73.5</ele>
        <time>2025-11-16T08:59:12Z</time>
      </trkpt>
      <trkpt lat="48.37779" lon="2.54072">
        <ele>73.9</ele>
        <time>2025-11-16T08:59:14Z</time>
      </trkpt>
      <trkpt lat="48.37775" lon="2.54067">
        <ele>74.1</ele>
        <time>2025-11-16T08:59:16Z</time>
      </trkpt>
      <trkpt lat="48.37769" lon="2.54062">
        <ele>74.3</ele>
        <time>2025-11-16T08:59:18Z</time>
      </trkpt>
      <trkpt lat="48.37765" lon="2.54057">
        <ele>74.5</ele>
        <time>2025-11-16T08:59:20Z</time>
      </trkpt>
      <trkpt lat="48.3776" lon="2.54051">
        <ele>74.7</ele>
        <time>2025-11-16T08:59:22Z</time>
      </trkpt>
      <trkpt lat="48.37757" lon="2.54045">
        <ele>75</ele>
        <time>2025-11-16T08:59:24Z</time>
      </trkpt>
      <trkpt lat="48.37752" lon="2.5404">
        <ele>75.4</ele>
        <time>2025-11-16T08:59:26Z</time>
      </trkpt>
      <trkpt lat="48.37747" lon="2.54034">
        <ele>75.8</ele>
        <time>2025-11-16T08:59:28Z</time>
      </trkpt>
      <trkpt lat="48.37742" lon="2.54028">
        <ele>76</ele>
        <time>2025-11-16T08:59:30Z</time>
      </trkpt>
      <trkpt lat="48.37737" lon="2.54022">
        <ele>76.1</ele>
        <time>2025-11-16T08:59:32Z</time>
      </trkpt>
      <trkpt lat="48.37733" lon="2.54018">
        <ele>76.2</ele>
        <time>2025-11-16T08:59:34Z</time>
      </trkpt>
      <trkpt lat="48.37729" lon="2.54014">
        <ele>76.4</ele>
        <time>2025-11-16T08:59:36Z</time>
      </trkpt>
      <trkpt lat="48.37725" lon="2.54009">
        <ele>76.6</ele>
        <time>2025-11-16T08:59:38Z</time>
      </trkpt>
      <trkpt lat="48.37721" lon="2.54005">
        <ele>76.8</ele>
        <time>2025-11-16T08:59:40Z</time>
      </trkpt>
      <trkpt lat="48.37713" lon="2.53998">
        <ele>77</ele>
        <time>2025-11-16T08:59:44Z</time>
      </trkpt>
      <trkpt lat="48.37708" lon="2.53993">
        <ele>77.1</ele>
        <time>2025-11-16T08:59:46Z</time>
      </trkpt>
      <trkpt lat="48.37704" lon="2.53985">
        <ele>77.4</ele>
        <time>2025-11-16T08:59:48Z</time>
      </trkpt>
      <trkpt lat="48.377" lon="2.53975">
        <ele>77.7</ele>
        <time>2025-11-16T08:59:50Z</time>
      </trkpt>
      <trkpt lat="48.37696" lon="2.53965">
        <ele>77.9</ele>
        <time>2025-11-16T08:59:52Z</time>
      </trkpt>
      <trkpt lat="48.37692" lon="2.53955">
        <ele>78</ele>
        <time>2025-11-16T08:59:54Z</time>
      </trkpt>
      <trkpt lat="48.37688" lon="2.53943">
        <ele>78</ele>
        <time>2025-11-16T08:59:56Z</time>
      </trkpt>
      <trkpt lat="48.37686" lon="2.53931">
        <ele>78</ele>
        <time>2025-11-16T08:59:58Z</time>
      </trkpt>
      <trkpt lat="48.37683" lon="2.53919">
        <ele>78</ele>
        <time>2025-11-16T09:00:00Z</time>
      </trkpt>
      <trkpt lat="48.37678" lon="2.53909">
        <ele>78</ele>
        <time>2025-11-16T09:00:02Z</time>
      </trkpt>
      <trkpt lat="48.37673" lon="2.53898">
        <ele>77.6</ele>
        <time>2025-11-16T09:00:04Z</time>
      </trkpt>
      <trkpt lat="48.37668" lon="2.53886">
        <ele>77.1</ele>
        <time>2025-11-16T09:00:06Z</time>
      </trkpt>
      <trkpt lat="48.37662" lon="2.53874">
        <ele>77.1</ele>
        <time>2025-11-16T09:00:08Z</time>
      </trkpt>
      <trkpt lat="48.37656" lon="2.53863">
        <ele>77</ele>
        <time>2025-11-16T09:00:10Z</time>
      </trkpt>
      <trkpt lat="48.3765" lon="2.53854">
        <ele>76.8</ele>
        <time>2025-11-16T09:00:12Z</time>
      </trkpt>
      <trkpt lat="48.37643" lon="2.53842">
        <ele>76.4</ele>
        <time>2025-11-16T09:00:14Z</time>
      </trkpt>
      <trkpt lat="48.37636" lon="2.53833">
        <ele>76.1</ele>
        <time>2025-11-16T09:00:16Z</time>
      </trkpt>
      <trkpt lat="48.37628" lon="2.53824">
        <ele>76.3</ele>
        <time>2025-11-16T09:00:18Z</time>
      </trkpt>
      <trkpt lat="48.37621" lon="2.53815">
        <ele>76.2</ele>
        <time>2025-11-16T09:00:20Z</time>
      </trkpt>
      <trkpt lat="48.37613" lon="2.53808">
        <ele>76.1</ele>
        <time>2025-11-16T09:00:22Z</time>
      </trkpt>
      <trkpt lat="48.37607" lon="2.53802">
        <ele>76</ele>
        <time>2025-11-16T09:00:24Z</time>
      </trkpt>
      <trkpt lat="48.37598" lon="2.53798">
        <ele>76</ele>
        <time>2025-11-16T09:00:26Z</time>
      </trkpt>
      <trkpt lat="48.37591" lon="2.53794">
        <ele>76</ele>
        <time>2025-11-16T09:00:28Z</time>
      </trkpt>
      <trkpt lat="48.37583" lon="2.5379">
        <ele>75.9</ele>
        <time>2025-11-16T09:00:30Z</time>
      </trkpt>
      <trkpt lat="48.37576" lon="2.53785">
        <ele>75.8</ele>
        <time>2025-11-16T09:00:32Z</time>
      </trkpt>
      <trkpt lat="48.37568" lon="2.5378">
        <ele>75.7</ele>
        <time>2025-11-16T09:00:34Z</time>
      </trkpt>
      <trkpt lat="48.37561" lon="2.53775">
        <ele>75.8</ele>
        <time>2025-11-16T09:00:36Z</time>
      </trkpt>
      <trkpt lat="48.37554" lon="2.5377">
        <ele>76.1</ele>
        <time>2025-11-16T09:00:38Z</time>
      </trkpt>
      <trkpt lat="48.37546" lon="2.53765">
        <ele>76.2</ele>
        <time>2025-11-16T09:00:40Z</time>
      </trkpt>
      <trkpt lat="48.37539" lon="2.5376">
        <ele>76.2</ele>
        <time>2025-11-16T09:00:42Z</time>
      </trkpt>
      <trkpt lat="48.37532" lon="2.53754">
        <ele>76.1</ele>
        <time>2025-11-16T09:00:44Z</time>
      </trkpt>
      <trkpt lat="48.37526" lon="2.53748">
        <ele>75.9</ele>
        <time>2025-11-16T09:00:46Z</time>
      </trkpt>
      <trkpt lat="48.37518" lon="2.53742">
        <ele>75.7</ele>
        <time>2025-11-16T09:00:48Z</time>
      </trkpt>
      <trkpt lat="48.37511" lon="2.53737">
        <ele>75.5</ele>
        <time>2025-11-16T09:00:50Z</time>
      </trkpt>
      <trkpt lat="48.37504" lon="2.53733">
        <ele>75.4</ele>
        <time>2025-11-16T09:00:52Z</time>
      </trkpt>
      <trkpt lat="48.37497" lon="2.53726">
        <ele>75.1</ele>
        <time>2025-11-16T09:00:54Z</time>
      </trkpt>
      <trkpt lat="48.3749" lon="2.53721">
        <ele>75</ele>
        <time>2025-11-16T09:00:56Z</time>
      </trkpt>
      <trkpt lat="48.37482" lon="2.53714">
        <ele>75</ele>
        <time>2025-11-16T09:00:58Z</time>
      </trkpt>
      <trkpt lat="48.37474" lon="2.53709">
        <ele>75</ele>
        <time>2025-11-16T09:01:00Z</time>
      </trkpt>
      <trkpt lat="48.37466" lon="2.53703">
        <ele>74.8</ele>
        <time>2025-11-16T09:01:02Z</time>
      </trkpt>
      <trkpt lat="48.37458" lon="2.53697">
        <ele>74.5</ele>
        <time>2025-11-16T09:01:04Z</time>
      </trkpt>
      <trkpt lat="48.3745" lon="2.5369">
        <ele>74.2</ele>
        <time>2025-11-16T09:01:06Z</time>
      </trkpt>
      <trkpt lat="48.37444" lon="2.53682">
        <ele>74</ele>
        <time>2025-11-16T09:01:08Z</time>
      </trkpt>
      <trkpt lat="48.37436" lon="2.53678">
        <ele>74</ele>
        <time>2025-11-16T09:01:10Z</time>
      </trkpt>
      <trkpt lat="48.37429" lon="2.53672">
        <ele>74</ele>
        <time>2025-11-16T09:01:12Z</time>
      </trkpt>
      <trkpt lat="48.37422" lon="2.53668">
        <ele>74</ele>
        <time>2025-11-16T09:01:14Z</time>
      </trkpt>
      <trkpt lat="48.37414" lon="2.53663">
        <ele>74</ele>
        <time>2025-11-16T09:01:16Z</time>
      </trkpt>
      <trkpt lat="48.37408" lon="2.53656">
        <ele>74</ele>
        <time>2025-11-16T09:01:18Z</time>
      </trkpt>
      <trkpt lat="48.37402" lon="2.53648">
        <ele>74</ele>
        <time>2025-11-16T09:01:20Z</time>
      </trkpt>
      <trkpt lat="48.37397" lon="2.5364">
        <ele>74</ele>
        <time>2025-11-16T09:01:22Z</time>
      </trkpt>
      <trkpt lat="48.3739" lon="2.53636">
        <ele>74</ele>
        <time>2025-11-16T09:01:24Z</time>
      </trkpt>
      <trkpt lat="48.37382" lon="2.5363">
        <ele>74</ele>
        <time>2025-11-16T09:01:26Z</time>
      </trkpt>
      <trkpt lat="48.37374" lon="2.53627">
        <ele>74</ele>
        <time>2025-11-16T09:01:28Z</time>
      </trkpt>
      <trkpt lat="48.37367" lon="2.53622">
        <ele>74</ele>
        <time>2025-11-16T09:01:30Z</time>
      </trkpt>
      <trkpt lat="48.37359" lon="2.53615">
        <ele>74</ele>
        <time>2025-11-16T09:01:32Z</time>
      </trkpt>
      <trkpt lat="48.37352" lon="2.53607">
        <ele>74</ele>
        <time>2025-11-16T09:01:34Z</time>
      </trkpt>
      <trkpt lat="48.37345" lon="2.53601">
        <ele>74</ele>
        <time>2025-11-16T09:01:36Z</time>
      </trkpt>
      <trkpt lat="48.37338" lon="2.53595">
        <ele>74</ele>
        <time>2025-11-16T09:01:38Z</time>
      </trkpt>
      <trkpt lat="48.37329" lon="2.53593">
        <ele>73.8</ele>
        <time>2025-11-16T09:01:40Z</time>
      </trkpt>
      <trkpt lat="48.37321" lon="2.53593">
        <ele>73.6</ele>
        <time>2025-11-16T09:01:42Z</time>
      </trkpt>
      <trkpt lat="48.37313" lon="2.53589">
        <ele>73.3</ele>
        <time>2025-11-16T09:01:44Z</time>
      </trkpt>
      <trkpt lat="48.37306" lon="2.53584">
        <ele>73</ele>
        <time>2025-11-16T09:01:46Z</time>
      </trkpt>
      <trkpt lat="48.37299" lon="2.53579">
        <ele>73</ele>
        <time>2025-11-16T09:01:48Z</time>
      </trkpt>
      <trkpt lat="48.37292" lon="2.5357">
        <ele>73</ele>
        <time>2025-11-16T09:01:50Z</time>
      </trkpt>
      <trkpt lat="48.37285" lon="2.53565">
        <ele>73</ele>
        <time>2025-11-16T09:01:52Z</time>
      </trkpt>
      <trkpt lat="48.37277" lon="2.53561">
        <ele>73</ele>
        <time>2025-11-16T09:01:54Z</time>
      </trkpt>
      <trkpt lat="48.3727" lon="2.53556">
        <ele>73</ele>
        <time>2025-11-16T09:01:56Z</time>
      </trkpt>
      <trkpt lat="48.3726" lon="2.53549">
        <ele>73</ele>
        <time>2025-11-16T09:01:58Z</time>
      </trkpt>
      <trkpt lat="48.3725" lon="2.53542">
        <ele>73</ele>
        <time>2025-11-16T09:02:00Z</time>
      </trkpt>
      <trkpt lat="48.37242" lon="2.53536">
        <ele>73</ele>
        <time>2025-11-16T09:02:02Z</time>
      </trkpt>
      <trkpt lat="48.37234" lon="2.53529">
        <ele>73</ele>
        <time>2025-11-16T09:02:04Z</time>
      </trkpt>
      <trkpt lat="48.37225" lon="2.53522">
        <ele>73</ele>
        <time>2025-11-16T09:02:06Z</time>
      </trkpt>
      <trkpt lat="48.37215" lon="2.53516">
        <ele>73</ele>
        <time>2025-11-16T09:02:08Z</time>
      </trkpt>
      <trkpt lat="48.37205" lon="2.53508">
        <ele>73</ele>
        <time>2025-11-16T09:02:10Z</time>
      </trkpt>
      <trkpt lat="48.37195" lon="2.53498">
        <ele>73</ele>
        <time>2025-11-16T09:02:12Z</time>
      </trkpt>
      <trkpt lat="48.37186" lon="2.53488">
        <ele>72.7</ele>
        <time>2025-11-16T09:02:14Z</time>
      </trkpt>
      <trkpt lat="48.37176" lon="2.53479">
        <ele>72.3</ele>
        <time>2025-11-16T09:02:16Z</time>
      </trkpt>
      <trkpt lat="48.37166" lon="2.53469">
        <ele>72</ele>
        <time>2025-11-16T09:02:18Z</time>
      </trkpt>
      <trkpt lat="48.37156" lon="2.53461">
        <ele>72</ele>
        <time>2025-11-16T09:02:20Z</time>
      </trkpt>
      <trkpt lat="48.37146" lon="2.53451">
        <ele>72</ele>
        <time>2025-11-16T09:02:22Z</time>
      </trkpt>
      <trkpt lat="48.37136" lon="2.53445">
        <ele>72</ele>
        <time>2025-11-16T09:02:24Z</time>
      </trkpt>
      <trkpt lat="48.37127" lon="2.53437">
        <ele>72</ele>
        <time>2025-11-16T09:02:26Z</time>
      </trkpt>
      <trkpt lat="48.37116" lon="2.53428">
        <ele>72</ele>
        <time>2025-11-16T09:02:28Z</time>
      </trkpt>
      <trkpt lat="48.37105" lon="2.53421">
        <ele>72</ele>
        <time>2025-11-16T09:02:30Z</time>
      </trkpt>
      <trkpt lat="48.37096" lon="2.53414">
        <ele>72</ele>
        <time>2025-11-16T09:02:32Z</time>
      </trkpt>
      <trkpt lat="48.37087" lon="2.53406">
        <ele>72</ele>
        <time>2025-11-16T09:02:34Z</time>
      </trkpt>
      <trkpt lat="48.37077" lon="2.53398">
        <ele>72</ele>
        <time>2025-11-16T09:02:36Z</time>
      </trkpt>
      <trkpt lat="48.37068" lon="2.5339">
        <ele>72</ele>
        <time>2025-11-16T09:02:38Z</time>
      </trkpt>
      <trkpt lat="48.37059" lon="2.53382">
        <ele>72</ele>
        <time>2025-11-16T09:02:40Z</time>
      </trkpt>
      <trkpt lat="48.37049" lon="2.53374">
        <ele>72</ele>
        <time>2025-11-16T09:02:42Z</time>
      </trkpt>
      <trkpt lat="48.3704" lon="2.53366">
        <ele>72</ele>
        <time>2025-11-16T09:02:44Z</time>
      </trkpt>
      <trkpt lat="48.37031" lon="2.53357">
        <ele>72</ele>
        <time>2025-11-16T09:02:46Z</time>
      </trkpt>
      <trkpt lat="48.37022" lon="2.53347">
        <ele>72</ele>
        <time>2025-11-16T09:02:48Z</time>
      </trkpt>
      <trkpt lat="48.37012" lon="2.53338">
        <ele>72</ele>
        <time>2025-11-16T09:02:50Z</time>
      </trkpt>
      <trkpt lat="48.37003" lon="2.5333">
        <ele>72</ele>
        <time>2025-11-16T09:02:52Z</time>
      </trkpt>
      <trkpt lat="48.36993" lon="2.53321">
        <ele>71.7</ele>
        <time>2025-11-16T09:02:54Z</time>
      </trkpt>
      <trkpt lat="48.36983" lon="2.53311">
        <ele>71.4</ele>
        <time>2025-11-16T09:02:56Z</time>
      </trkpt>
      <trkpt lat="48.36973" lon="2.53302">
        <ele>71</ele>
        <time>2025-11-16T09:02:58Z</time>
      </trkpt>
      <trkpt lat="48.36963" lon="2.53294">
        <ele>71</ele>
        <time>2025-11-16T09:03:00Z</time>
      </trkpt>
      <trkpt lat="48.36953" lon="2.53285">
        <ele>71</ele>
        <time>2025-11-16T09:03:02Z</time>
      </trkpt>
      <trkpt lat="48.36944" lon="2.53277">
        <ele>71</ele>
        <time>2025-11-16T09:03:04Z</time>
      </trkpt>
      <trkpt lat="48.36934" lon="2.53267">
        <ele>71</ele>
        <time>2025-11-16T09:03:06Z</time>
      </trkpt>
      <trkpt lat="48.36924" lon="2.53257">
        <ele>71</ele>
        <time>2025-11-16T09:03:08Z</time>
      </trkpt>
      <trkpt lat="48.36914" lon="2.53248">
        <ele>71</ele>
        <time>2025-11-16T09:03:10Z</time>
      </trkpt>
      <trkpt lat="48.36904" lon="2.53238">
        <ele>71</ele>
        <time>2025-11-16T09:03:12Z</time>
      </trkpt>
      <trkpt lat="48.36894" lon="2.53229">
        <ele>71</ele>
        <time>2025-11-16T09:03:14Z</time>
      </trkpt>
      <trkpt lat="48.36886" lon="2.53219">
        <ele>71</ele>
        <time>2025-11-16T09:03:16Z</time>
      </trkpt>
      <trkpt lat="48.36876" lon="2.53209">
        <ele>71</ele>
        <time>2025-11-16T09:03:18Z</time>
      </trkpt>
      <trkpt lat="48.36867" lon="2.53199">
        <ele>71</ele>
        <time>2025-11-16T09:03:20Z</time>
      </trkpt>
      <trkpt lat="48.36858" lon="2.53188">
        <ele>71</ele>
        <time>2025-11-16T09:03:22Z</time>
      </trkpt>
      <trkpt lat="48.3685" lon="2.53176">
        <ele>70.7</ele>
        <time>2025-11-16T09:03:24Z</time>
      </trkpt>
      <trkpt lat="48.36841" lon="2.53167">
        <ele>70.3</ele>
        <time>2025-11-16T09:03:26Z</time>
      </trkpt>
      <trkpt lat="48.36833" lon="2.5317">
        <ele>70.1</ele>
        <time>2025-11-16T09:03:28Z</time>
      </trkpt>
      <trkpt lat="48.36833" lon="2.53182">
        <ele>70.6</ele>
        <time>2025-11-16T09:03:30Z</time>
      </trkpt>
      <trkpt lat="48.36836" lon="2.53194">
        <ele>71</ele>
        <time>2025-11-16T09:03:32Z</time>
      </trkpt>
      <trkpt lat="48.36839" lon="2.53207">
        <ele>71</ele>
        <time>2025-11-16T09:03:34Z</time>
      </trkpt>
      <trkpt lat="48.36841" lon="2.5322">
        <ele>71</ele>
        <time>2025-11-16T09:03:36Z</time>
      </trkpt>
      <trkpt lat="48.36843" lon="2.53233">
        <ele>71.3</ele>
        <time>2025-11-16T09:03:38Z</time>
      </trkpt>
      <trkpt lat="48.36846" lon="2.53245">
        <ele>71.5</ele>
        <time>2025-11-16T09:03:40Z</time>
      </trkpt>
      <trkpt lat="48.36848" lon="2.53257">
        <ele>71.7</ele>
        <time>2025-11-16T09:03:42Z</time>
      </trkpt>
      <trkpt lat="48.36852" lon="2.53268">
        <ele>72</ele>
        <time>2025-11-16T09:03:44Z</time>
      </trkpt>
      <trkpt lat="48.36856" lon="2.53279">
        <ele>72.2</ele>
        <time>2025-11-16T09:03:46Z</time>
      </trkpt>
      <trkpt lat="48.36857" lon="2.53291">
        <ele>72.2</ele>
        <time>2025-11-16T09:03:48Z</time>
      </trkpt>
      <trkpt lat="48.3686" lon="2.53302">
        <ele>72.1</ele>
        <time>2025-11-16T09:03:50Z</time>
      </trkpt>
      <trkpt lat="48.36863" lon="2.53313">
        <ele>72.2</ele>
        <time>2025-11-16T09:03:52Z</time>
      </trkpt>
      <trkpt lat="48.36866" lon="2.53324">
        <ele>72.5</ele>
        <time>2025-11-16T09:03:54Z</time>
      </trkpt>
      <trkpt lat="48.36871" lon="2.53335">
        <ele>72.7</ele>
        <time>2025-11-16T09:03:56Z</time>
      </trkpt>
      <trkpt lat="48.36875" lon="2.53347">
        <ele>72.7</ele>
        <time>2025-11-16T09:03:58Z</time>
      </trkpt>
      <trkpt lat="48.3688" lon="2.53358">
        <ele>72.6</ele>
        <time>2025-11-16T09:04:00Z</time>
      </trkpt>
      <trkpt lat="48.36884" lon="2.5337">
        <ele>72.4</ele>
        <time>2025-11-16T09:04:02Z</time>
      </trkpt>
      <trkpt lat="48.36887" lon="2.53381">
        <ele>72.2</ele>
        <time>2025-11-16T09:04:04Z</time>
      </trkpt>
      <trkpt lat="48.36891" lon="2.53393">
        <ele>72.1</ele>
        <time>2025-11-16T09:04:06Z</time>
      </trkpt>
      <trkpt lat="48.36895" lon="2.53405">
        <ele>72.5</ele>
        <time>2025-11-16T09:04:08Z</time>
      </trkpt>
      <trkpt lat="48.36898" lon="2.53417">
        <ele>72.7</ele>
        <time>2025-11-16T09:04:10Z</time>
      </trkpt>
      <trkpt lat="48.369" lon="2.53427">
        <ele>73.2</ele>
        <time>2025-11-16T09:04:12Z</time>
      </trkpt>
      <trkpt lat="48.36901" lon="2.53435">
        <ele>73.6</ele>
        <time>2025-11-16T09:04:14Z</time>
      </trkpt>
      <trkpt lat="48.36902" lon="2.53444">
        <ele>74</ele>
        <time>2025-11-16T09:04:16Z</time>
      </trkpt>
      <trkpt lat="48.36901" lon="2.53451">
        <ele>74.6</ele>
        <time>2025-11-16T09:04:18Z</time>
      </trkpt>
      <trkpt lat="48.36899" lon="2.53464">
        <ele>75.7</ele>
        <time>2025-11-16T09:04:22Z</time>
      </trkpt>
      <trkpt lat="48.36895" lon="2.53472">
        <ele>76.5</ele>
        <time>2025-11-16T09:04:26Z</time>
      </trkpt>
      <trkpt lat="48.36892" lon="2.5348">
        <ele>77.6</ele>
        <time>2025-11-16T09:04:30Z</time>
      </trkpt>
      <trkpt lat="48.36889" lon="2.5349">
        <ele>78.9</ele>
        <time>2025-11-16T09:04:34Z</time>
      </trkpt>
      <trkpt lat="48.36886" lon="2.53498">
        <ele>80.4</ele>
        <time>2025-11-16T09:04:38Z</time>
      </trkpt>
      <trkpt lat="48.36884" lon="2.53506">
        <ele>81.7</ele>
        <time>2025-11-16T09:04:42Z</time>
      </trkpt>
      <trkpt lat="48.36882" lon="2.53515">
        <ele>83</ele>
        <time>2025-11-16T09:04:48Z</time>
      </trkpt>
      <trkpt lat="48.3688" lon="2.53522">
        <ele>84.3</ele>
        <time>2025-11-16T09:04:52Z</time>
      </trkpt>
      <trkpt lat="48.3688" lon="2.5353">
        <ele>85.1</ele>
        <time>2025-11-16T09:04:56Z</time>
      </trkpt>
      <trkpt lat="48.36879" lon="2.53538">
        <ele>86.4</ele>
        <time>2025-11-16T09:05:02Z</time>
      </trkpt>
      <trkpt lat="48.36877" lon="2.53544">
        <ele>87.7</ele>
        <time>2025-11-16T09:05:06Z</time>
      </trkpt>
      <trkpt lat="48.36875" lon="2.53553">
        <ele>89.3</ele>
        <time>2025-11-16T09:05:12Z</time>
      </trkpt>
      <trkpt lat="48.36873" lon="2.5356">
        <ele>90.4</ele>
        <time>2025-11-16T09:05:16Z</time>
      </trkpt>
      <trkpt lat="48.36872" lon="2.5357">
        <ele>91.9</ele>
        <time>2025-11-16T09:05:22Z</time>
      </trkpt>
      <trkpt lat="48.36871" lon="2.53578">
        <ele>92.9</ele>
        <time>2025-11-16T09:05:26Z</time>
      </trkpt>
      <trkpt lat="48.3687" lon="2.53584">
        <ele>93.8</ele>
        <time>2025-11-16T09:05:30Z</time>
      </trkpt>
      <trkpt lat="48.3687" lon="2.53592">
        <ele>94.8</ele>
        <time>2025-11-16T09:05:34Z</time>
      </trkpt>
      <trkpt lat="48.36868" lon="2.53604">
        <ele>96.2</ele>
        <time>2025-11-16T09:05:40Z</time>
      </trkpt>
      <trkpt lat="48.36868" lon="2.53612">
        <ele>97.1</ele>
        <time>2025-11-16T09:05:44Z</time>
      </trkpt>
      <trkpt lat="48.3687" lon="2.53619">
        <ele>97.8</ele>
        <time>2025-11-16T09:05:48Z</time>
      </trkpt>
      <trkpt lat="48.36871" lon="2.53629">
        <ele>98.9</ele>
        <time>2025-11-16T09:05:52Z</time>
      </trkpt>
      <trkpt lat="48.36872" lon="2.53637">
        <ele>99.8</ele>
        <time>2025-11-16T09:05:56Z</time>
      </trkpt>
      <trkpt lat="48.36872" lon="2.53647">
        <ele>100.8</ele>
        <time>2025-11-16T09:06:02Z</time>
      </trkpt>
      <trkpt lat="48.36872" lon="2.53654">
        <ele>101.6</ele>
        <time>2025-11-16T09:06:06Z</time>
      </trkpt>
      <trkpt lat="48.36871" lon="2.53662">
        <ele>102.3</ele>
        <time>2025-11-16T09:06:10Z</time>
      </trkpt>
      <trkpt lat="48.36872" lon="2.53671">
        <ele>103.1</ele>
        <time>2025-11-16T09:06:14Z</time>
      </trkpt>
      <trkpt lat="48.36871" lon="2.53681">
        <ele>103.9</ele>
        <time>2025-11-16T09:06:20Z</time>
      </trkpt>
      <trkpt lat="48.36869" lon="2.53688">
        <ele>104.4</ele>
        <time>2025-11-16T09:06:24Z</time>
      </trkpt>
      <trkpt lat="48.36866" lon="2.53696">
        <ele>104.6</ele>
        <time>2025-11-16T09:06:28Z</time>
      </trkpt>
      <trkpt lat="48.36862" lon="2.53702">
        <ele>104.6</ele>
        <time>2025-11-16T09:06:32Z</time>
      </trkpt>
      <trkpt lat="48.36857" lon="2.53708">
        <ele>105.6</ele>
        <time>2025-11-16T09:06:38Z</time>
      </trkpt>
      <trkpt lat="48.36854" lon="2.53715">
        <ele>106.2</ele>
        <time>2025-11-16T09:06:42Z</time>
      </trkpt>
      <trkpt lat="48.36851" lon="2.53721">
        <ele>106.7</ele>
        <time>2025-11-16T09:06:46Z</time>
      </trkpt>
      <trkpt lat="48.36848" lon="2.53728">
        <ele>107.3</ele>
        <time>2025-11-16T09:06:50Z</time>
      </trkpt>
      <trkpt lat="48.36845" lon="2.53737">
        <ele>107.9</ele>
        <time>2025-11-16T09:06:54Z</time>
      </trkpt>
      <trkpt lat="48.36844" lon="2.53745">
        <ele>108.4</ele>
        <time>2025-11-16T09:06:58Z</time>
      </trkpt>
      <trkpt lat="48.36843" lon="2.53754">
        <ele>108.8</ele>
        <time>2025-11-16T09:07:02Z</time>
      </trkpt>
      <trkpt lat="48.36841" lon="2.53767">
        <ele>109.1</ele>
        <time>2025-11-16T09:07:06Z</time>
      </trkpt>
      <trkpt lat="48.3684" lon="2.53779">
        <ele>109.4</ele>
        <time>2025-11-16T09:07:10Z</time>
      </trkpt>
      <trkpt lat="48.36839" lon="2.5379">
        <ele>110.1</ele>
        <time>2025-11-16T09:07:14Z</time>
      </trkpt>
      <trkpt lat="48.36837" lon="2.538">
        <ele>110.8</ele>
        <time>2025-11-16T09:07:18Z</time>
      </trkpt>
      <trkpt lat="48.36837" lon="2.5381">
        <ele>111.5</ele>
        <time>2025-11-16T09:07:22Z</time>
      </trkpt>
      <trkpt lat="48.36836" lon="2.5382">
        <ele>112.1</ele>
        <time>2025-11-16T09:07:26Z</time>
      </trkpt>
      <trkpt lat="48.36836" lon="2.53828">
        <ele>112.7</ele>
        <time>2025-11-16T09:07:30Z</time>
      </trkpt>
      <trkpt lat="48.36835" lon="2.53837">
        <ele>113.3</ele>
        <time>2025-11-16T09:07:34Z</time>
      </trkpt>
      <trkpt lat="48.36832" lon="2.53843">
        <ele>113.8</ele>
        <time>2025-11-16T09:07:38Z</time>
      </trkpt>
      <trkpt lat="48.36828" lon="2.53851">
        <ele>114.3</ele>
        <time>2025-11-16T09:07:42Z</time>
      </trkpt>
      <trkpt lat="48.36826" lon="2.53858">
        <ele>114.8</ele>
        <time>2025-11-16T09:07:46Z</time>
      </trkpt>
      <trkpt lat="48.36824" lon="2.53868">
        <ele>115.1</ele>
        <time>2025-11-16T09:07:50Z</time>
      </trkpt>
      <trkpt lat="48.36822" lon="2.53879">
        <ele>115.3</ele>
        <time>2025-11-16T09:07:54Z</time>
      </trkpt>
      <trkpt lat="48.36821" lon="2.53891">
        <ele>115.5</ele>
        <time>2025-11-16T09:07:58Z</time>
      </trkpt>
      <trkpt lat="48.36819" lon="2.53901">
        <ele>115.5</ele>
        <time>2025-11-16T09:08:02Z</time>
      </trkpt>
      <trkpt lat="48.36817" lon="2.5391">
        <ele>115.6</ele>
        <time>2025-11-16T09:08:06Z</time>
      </trkpt>
      <trkpt lat="48.36814" lon="2.53922">
        <ele>115.7</ele>
        <time>2025-11-16T09:08:10Z</time>
      </trkpt>
      <trkpt lat="48.36814" lon="2.53929">
        <ele>115.7</ele>
        <time>2025-11-16T09:08:12Z</time>
      </trkpt>
      <trkpt lat="48.36814" lon="2.53935">
        <ele>115.7</ele>
        <time>2025-11-16T09:08:14Z</time>
      </trkpt>
      <trkpt lat="48.36814" lon="2.53951">
        <ele>115.6</ele>
        <time>2025-11-16T09:08:18Z</time>
      </trkpt>
      <trkpt lat="48.36814" lon="2.5396">
        <ele>115.5</ele>
        <time>2025-11-16T09:08:20Z</time>
      </trkpt>
      <trkpt lat="48.36816" lon="2.53969">
        <ele>115.3</ele>
        <time>2025-11-16T09:08:22Z</time>
      </trkpt>
      <trkpt lat="48.36818" lon="2.5398">
        <ele>115.2</ele>
        <time>2025-11-16T09:08:24Z</time>
      </trkpt>
      <trkpt lat="48.36821" lon="2.53991">
        <ele>115.3</ele>
        <time>2025-11-16T09:08:26Z</time>
      </trkpt>
      <trkpt lat="48.36823" lon="2.54003">
        <ele>115.4</ele>
        <time>2025-11-16T09:08:28Z</time>
      </trkpt>
      <trkpt lat="48.36827" lon="2.54014">
        <ele>115.2</ele>
        <time>2025-11-16T09:08:30Z</time>
      </trkpt>
      <trkpt lat="48.36829" lon="2.54024">
        <ele>115.2</ele>
        <time>2025-11-16T09:08:32Z</time>
      </trkpt>
      <trkpt lat="48.3683" lon="2.54034">
        <ele>115.3</ele>
        <time>2025-11-16T09:08:34Z</time>
      </trkpt>
      <trkpt lat="48.36831" lon="2.54044">
        <ele>115.7</ele>
        <time>2025-11-16T09:08:36Z</time>
      </trkpt>
      <trkpt lat="48.36835" lon="2.54055">
        <ele>115.9</ele>
        <time>2025-11-16T09:08:38Z</time>
      </trkpt>
      <trkpt lat="48.36836" lon="2.54067">
        <ele>115.9</ele>
        <time>2025-11-16T09:08:40Z</time>
      </trkpt>
      <trkpt lat="48.36839" lon="2.54077">
        <ele>115.9</ele>
        <time>2025-11-16T09:08:42Z</time>
      </trkpt>
      <trkpt lat="48.36844" lon="2.54087">
        <ele>116.1</ele>
        <time>2025-11-16T09:08:44Z</time>
      </trkpt>
      <trkpt lat="48.36847" lon="2.54099">
        <ele>116.3</ele>
        <time>2025-11-16T09:08:46Z</time>
      </trkpt>
      <trkpt lat="48.3685" lon="2.54112">
        <ele>116.4</ele>
        <time>2025-11-16T09:08:48Z</time>
      </trkpt>
      <trkpt lat="48.36854" lon="2.54126">
        <ele>116.7</ele>
        <time>2025-11-16T09:08:50Z</time>
      </trkpt>
      <trkpt lat="48.36857" lon="2.54139">
        <ele>117</ele>
        <time>2025-11-16T09:08:52Z</time>
      </trkpt>
      <trkpt lat="48.36859" lon="2.54151">
        <ele>117</ele>
        <time>2025-11-16T09:08:54Z</time>
      </trkpt>
      <trkpt lat="48.36862" lon="2.54165">
        <ele>117</ele>
        <time>2025-11-16T09:08:56Z</time>
      </trkpt>
      <trkpt lat="48.36863" lon="2.54178">
        <ele>117</ele>
        <time>2025-11-16T09:08:58Z</time>
      </trkpt>
      <trkpt lat="48.36865" lon="2.54191">
        <ele>117</ele>
        <time>2025-11-16T09:09:00Z</time>
      </trkpt>
      <trkpt lat="48.36867" lon="2.54204">
        <ele>117</ele>
        <time>2025-11-16T09:09:02Z</time>
      </trkpt>
      <trkpt lat="48.3687" lon="2.54216">
        <ele>117</ele>
        <time>2025-11-16T09:09:04Z</time>
      </trkpt>
      <trkpt lat="48.36872" lon="2.54227">
        <ele>117</ele>
        <time>2025-11-16T09:09:06Z</time>
      </trkpt>
      <trkpt lat="48.3688" lon="2.54234">
        <ele>117</ele>
        <time>2025-11-16T09:09:08Z</time>
      </trkpt>
      <trkpt lat="48.36888" lon="2.54236">
        <ele>117</ele>
        <time>2025-11-16T09:09:10Z</time>
      </trkpt>
      <trkpt lat="48.36893" lon="2.54237">
        <ele>117</ele>
        <time>2025-11-16T09:09:12Z</time>
      </trkpt>
      <trkpt lat="48.36898" lon="2.54239">
        <ele>117</ele>
        <time>2025-11-16T09:09:14Z</time>
      </trkpt>
      <trkpt lat="48.36903" lon="2.54242">
        <ele>117</ele>
        <time>2025-11-16T09:09:16Z</time>
      </trkpt>
      <trkpt lat="48.3691" lon="2.54244">
        <ele>117</ele>
        <time>2025-11-16T09:09:18Z</time>
      </trkpt>
      <trkpt lat="48.36916" lon="2.54247">
        <ele>117</ele>
        <time>2025-11-16T09:09:20Z</time>
      </trkpt>
      <trkpt lat="48.36923" lon="2.5425">
        <ele>117.2</ele>
        <time>2025-11-16T09:09:22Z</time>
      </trkpt>
      <trkpt lat="48.3693" lon="2.54252">
        <ele>117.5</ele>
        <time>2025-11-16T09:09:24Z</time>
      </trkpt>
      <trkpt lat="48.36937" lon="2.54254">
        <ele>117.8</ele>
        <time>2025-11-16T09:09:26Z</time>
      </trkpt>
      <trkpt lat="48.36945" lon="2.54257">
        <ele>118</ele>
        <time>2025-11-16T09:09:28Z</time>
      </trkpt>
      <trkpt lat="48.36953" lon="2.54261">
        <ele>118</ele>
        <time>2025-11-16T09:09:30Z</time>
      </trkpt>
      <trkpt lat="48.36961" lon="2.54264">
        <ele>118</ele>
        <time>2025-11-16T09:09:32Z</time>
      </trkpt>
      <trkpt lat="48.36968" lon="2.54268">
        <ele>118</ele>
        <time>2025-11-16T09:09:34Z</time>
      </trkpt>
      <trkpt lat="48.36976" lon="2.54273">
        <ele>118</ele>
        <time>2025-11-16T09:09:36Z</time>
      </trkpt>
      <trkpt lat="48.36983" lon="2.54279">
        <ele>118</ele>
        <time>2025-11-16T09:09:38Z</time>
      </trkpt>
      <trkpt lat="48.3699" lon="2.54287">
        <ele>118</ele>
        <time>2025-11-16T09:09:40Z</time>
      </trkpt>
      <trkpt lat="48.36996" lon="2.54297">
        <ele>118</ele>
        <time>2025-11-16T09:09:42Z</time>
      </trkpt>
      <trkpt lat="48.37002" lon="2.54306">
        <ele>117.9</ele>
        <time>2025-11-16T09:09:44Z</time>
      </trkpt>
      <trkpt lat="48.37009" lon="2.54315">
        <ele>117.7</ele>
        <time>2025-11-16T09:09:46Z</time>
      </trkpt>
      <trkpt lat="48.37016" lon="2.54324">
        <ele>117.4</ele>
        <time>2025-11-16T09:09:48Z</time>
      </trkpt>
      <trkpt lat="48.37023" lon="2.54334">
        <ele>117.2</ele>
        <time>2025-11-16T09:09:50Z</time>
      </trkpt>
      <trkpt lat="48.3703" lon="2.54345">
        <ele>117.3</ele>
        <time>2025-11-16T09:09:52Z</time>
      </trkpt>
      <trkpt lat="48.37037" lon="2.54355">
        <ele>117.4</ele>
        <time>2025-11-16T09:09:54Z</time>
      </trkpt>
      <trkpt lat="48.37044" lon="2.54365">
        <ele>117.4</ele>
        <time>2025-11-16T09:09:56Z</time>
      </trkpt>
      <trkpt lat="48.37051" lon="2.54375">
        <ele>117.2</ele>
        <time>2025-11-16T09:09:58Z</time>
      </trkpt>
      <trkpt lat="48.37059" lon="2.54385">
        <ele>116.9</ele>
        <time>2025-11-16T09:10:00Z</time>
      </trkpt>
      <trkpt lat="48.37066" lon="2.54393">
        <ele>116.6</ele>
        <time>2025-11-16T09:10:02Z</time>
      </trkpt>
      <trkpt lat="48.37073" lon="2.54405">
        <ele>116.4</ele>
        <time>2025-11-16T09:10:04Z</time>
      </trkpt>
      <trkpt lat="48.3708" lon="2.54415">
        <ele>116.1</ele>
        <time>2025-11-16T09:10:06Z</time>
      </trkpt>
      <trkpt lat="48.37086" lon="2.54426">
        <ele>115.8</ele>
        <time>2025-11-16T09:10:08Z</time>
      </trkpt>
      <trkpt lat="48.37092" lon="2.54436">
        <ele>115.2</ele>
        <time>2025-11-16T09:10:10Z</time>
      </trkpt>
      <trkpt lat="48.371" lon="2.54448">
        <ele>114.2</ele>
        <time>2025-11-16T09:10:12Z</time>
      </trkpt>
      <trkpt lat="48.3711" lon="2.54465">
        <ele>113.2</ele>
        <time>2025-11-16T09:10:14Z</time>
      </trkpt>
      <trkpt lat="48.3712" lon="2.54483">
        <ele>112.3</ele>
        <time>2025-11-16T09:10:16Z</time>
      </trkpt>
      <trkpt lat="48.37127" lon="2.54499">
        <ele>112.8</ele>
        <time>2025-11-16T09:10:18Z</time>
      </trkpt>
      <trkpt lat="48.37133" lon="2.54508">
        <ele>113.1</ele>
        <time>2025-11-16T09:10:20Z</time>
      </trkpt>
      <trkpt lat="48.37138" lon="2.54513">
        <ele>113.4</ele>
        <time>2025-11-16T09:10:22Z</time>
      </trkpt>
      <trkpt lat="48.37143" lon="2.54516">
        <ele>113.5</ele>
        <time>2025-11-16T09:10:24Z</time>
      </trkpt>
      <trkpt lat="48.37148" lon="2.5452">
        <ele>113.7</ele>
        <time>2025-11-16T09:10:26Z</time>
      </trkpt>
      <trkpt lat="48.37153" lon="2.54525">
        <ele>114.1</ele>
        <time>2025-11-16T09:10:28Z</time>
      </trkpt>
      <trkpt lat="48.37157" lon="2.5453">
        <ele>114.5</ele>
        <time>2025-11-16T09:10:30Z</time>
      </trkpt>
      <trkpt lat="48.37161" lon="2.54536">
        <ele>114.7</ele>
        <time>2025-11-16T09:10:32Z</time>
      </trkpt>
      <trkpt lat="48.37166" lon="2.54544">
        <ele>115.2</ele>
        <time>2025-11-16T09:10:34Z</time>
      </trkpt>
      <trkpt lat="48.3717" lon="2.54552">
        <ele>115.6</ele>
        <time>2025-11-16T09:10:36Z</time>
      </trkpt>
      <trkpt lat="48.37175" lon="2.54559">
        <ele>115.7</ele>
        <time>2025-11-16T09:10:38Z</time>
      </trkpt>
      <trkpt lat="48.37179" lon="2.54566">
        <ele>115.7</ele>
        <time>2025-11-16T09:10:40Z</time>
      </trkpt>
      <trkpt lat="48.37184" lon="2.54573">
        <ele>115.8</ele>
        <time>2025-11-16T09:10:42Z</time>
      </trkpt>
      <trkpt lat="48.37189" lon="2.54583">
        <ele>116</ele>
        <time>2025-11-16T09:10:44Z</time>
      </trkpt>
      <trkpt lat="48.37196" lon="2.54592">
        <ele>115.9</ele>
        <time>2025-11-16T09:10:46Z</time>
      </trkpt>
      <trkpt lat="48.37203" lon="2.54601">
        <ele>115.2</ele>
        <time>2025-11-16T09:10:48Z</time>
      </trkpt>
      <trkpt lat="48.37212" lon="2.54613">
        <ele>114.1</ele>
        <time>2025-11-16T09:10:50Z</time>
      </trkpt>
      <trkpt lat="48.3722" lon="2.54626">
        <ele>113.2</ele>
        <time>2025-11-16T09:10:52Z</time>
      </trkpt>
      <trkpt lat="48.37229" lon="2.5464">
        <ele>111.9</ele>
        <time>2025-11-16T09:10:54Z</time>
      </trkpt>
      <trkpt lat="48.3724" lon="2.54656">
        <ele>109.4</ele>
        <time>2025-11-16T09:10:56Z</time>
      </trkpt>
      <trkpt lat="48.3725" lon="2.54672">
        <ele>107.3</ele>
        <time>2025-11-16T09:10:58Z</time>
      </trkpt>
      <trkpt lat="48.37263" lon="2.54689">
        <ele>105.2</ele>
        <time>2025-11-16T09:11:00Z</time>
      </trkpt>
      <trkpt lat="48.37273" lon="2.54705">
        <ele>103.6</ele>
        <time>2025-11-16T09:11:02Z</time>
      </trkpt>
      <trkpt lat="48.3728" lon="2.54717">
        <ele>103.2</ele>
        <time>2025-11-16T09:11:04Z</time>
      </trkpt>
      <trkpt lat="48.3728" lon="2.54728">
        <ele>104</ele>
        <time>2025-11-16T09:11:06Z</time>
      </trkpt>
      <trkpt lat="48.37277" lon="2.54737">
        <ele>105.2</ele>
        <time>2025-11-16T09:11:10Z</time>
      </trkpt>
      <trkpt lat="48.37274" lon="2.54743">
        <ele>106.2</ele>
        <time>2025-11-16T09:11:14Z</time>
      </trkpt>
      <trkpt lat="48.37269" lon="2.54751">
        <ele>107.6</ele>
        <time>2025-11-16T09:11:20Z</time>
      </trkpt>
      <trkpt lat="48.37266" lon="2.54756">
        <ele>108.6</ele>
        <time>2025-11-16T09:11:24Z</time>
      </trkpt>
      <trkpt lat="48.37262" lon="2.54763">
        <ele>109.8</ele>
        <time>2025-11-16T09:11:30Z</time>
      </trkpt>
      <trkpt lat="48.37257" lon="2.54769">
        <ele>111.1</ele>
        <time>2025-11-16T09:11:36Z</time>
      </trkpt>
      <trkpt lat="48.37253" lon="2.54775">
        <ele>112.2</ele>
        <time>2025-11-16T09:11:40Z</time>
      </trkpt>
      <trkpt lat="48.37249" lon="2.5478">
        <ele>113.1</ele>
        <time>2025-11-16T09:11:44Z</time>
      </trkpt>
      <trkpt lat="48.37245" lon="2.54786">
        <ele>113.6</ele>
        <time>2025-11-16T09:11:48Z</time>
      </trkpt>
      <trkpt lat="48.3724" lon="2.54794">
        <ele>114.3</ele>
        <time>2025-11-16T09:11:52Z</time>
      </trkpt>
      <trkpt lat="48.37236" lon="2.54802">
        <ele>114.9</ele>
        <time>2025-11-16T09:11:56Z</time>
      </trkpt>
      <trkpt lat="48.3723" lon="2.54809">
        <ele>115.3</ele>
        <time>2025-11-16T09:12:00Z</time>
      </trkpt>
      <trkpt lat="48.37227" lon="2.54815">
        <ele>115.4</ele>
        <time>2025-11-16T09:12:04Z</time>
      </trkpt>
      <trkpt lat="48.37222" lon="2.54823">
        <ele>115.4</ele>
        <time>2025-11-16T09:12:08Z</time>
      </trkpt>
      <trkpt lat="48.37218" lon="2.54827">
        <ele>115.3</ele>
        <time>2025-11-16T09:12:10Z</time>
      </trkpt>
      <trkpt lat="48.37212" lon="2.54838">
        <ele>115.2</ele>
        <time>2025-11-16T09:12:14Z</time>
      </trkpt>
      <trkpt lat="48.37205" lon="2.54847">
        <ele>115.1</ele>
        <time>2025-11-16T09:12:18Z</time>
      </trkpt>
      <trkpt lat="48.372" lon="2.54853">
        <ele>115.1</ele>
        <time>2025-11-16T09:12:20Z</time>
      </trkpt>
      <trkpt lat="48.37197" lon="2.54859">
        <ele>115</ele>
        <time>2025-11-16T09:12:22Z</time>
      </trkpt>
      <trkpt lat="48.37193" lon="2.54865">
        <ele>114.9</ele>
        <time>2025-11-16T09:12:24Z</time>
      </trkpt>
      <trkpt lat="48.37189" lon="2.5487">
        <ele>114.9</ele>
        <time>2025-11-16T09:12:26Z</time>
      </trkpt>
      <trkpt lat="48.37185" lon="2.54875">
        <ele>115</ele>
        <time>2025-11-16T09:12:28Z</time>
      </trkpt>
      <trkpt lat="48.37182" lon="2.54881">
        <ele>115.1</ele>
        <time>2025-11-16T09:12:30Z</time>
      </trkpt>
      <trkpt lat="48.37178" lon="2.54887">
        <ele>115.2</ele>
        <time>2025-11-16T09:12:32Z</time>
      </trkpt>
      <trkpt lat="48.37175" lon="2.54893">
        <ele>115.5</ele>
        <time>2025-11-16T09:12:34Z</time>
      </trkpt>
      <trkpt lat="48.37171" lon="2.54898">
        <ele>115.9</ele>
        <time>2025-11-16T09:12:36Z</time>
      </trkpt>
      <trkpt lat="48.37168" lon="2.54904">
        <ele>116.4</ele>
        <time>2025-11-16T09:12:38Z</time>
      </trkpt>
      <trkpt lat="48.37164" lon="2.54909">
        <ele>116.8</ele>
        <time>2025-11-16T09:12:40Z</time>
      </trkpt>
      <trkpt lat="48.37161" lon="2.54915">
        <ele>117.2</ele>
        <time>2025-11-16T09:12:42Z</time>
      </trkpt>
      <trkpt lat="48.37157" lon="2.54922">
        <ele>117.4</ele>
        <time>2025-11-16T09:12:44Z</time>
      </trkpt>
      <trkpt lat="48.37151" lon="2.54928">
        <ele>117.6</ele>
        <time>2025-11-16T09:12:46Z</time>
      </trkpt>
      <trkpt lat="48.37147" lon="2.54935">
        <ele>117.7</ele>
        <time>2025-11-16T09:12:48Z</time>
      </trkpt>
      <trkpt lat="48.37142" lon="2.54943">
        <ele>117.9</ele>
        <time>2025-11-16T09:12:50Z</time>
      </trkpt>
      <trkpt lat="48.37137" lon="2.54951">
        <ele>118.1</ele>
        <time>2025-11-16T09:12:52Z</time>
      </trkpt>
      <trkpt lat="48.37133" lon="2.54958">
        <ele>118.1</ele>
        <time>2025-11-16T09:12:54Z</time>
      </trkpt>
      <trkpt lat="48.37127" lon="2.54966">
        <ele>118.1</ele>
        <time>2025-11-16T09:12:56Z</time>
      </trkpt>
      <trkpt lat="48.37122" lon="2.54975">
        <ele>118</ele>
        <time>2025-11-16T09:12:58Z</time>
      </trkpt>
      <trkpt lat="48.37117" lon="2.54983">
        <ele>118</ele>
        <time>2025-11-16T09:13:00Z</time>
      </trkpt>
      <trkpt lat="48.37112" lon="2.54992">
        <ele>118</ele>
        <time>2025-11-16T09:13:02Z</time>
      </trkpt>
      <trkpt lat="48.37107" lon="2.55">
        <ele>118</ele>
        <time>2025-11-16T09:13:04Z</time>
      </trkpt>
      <trkpt lat="48.37103" lon="2.55006">
        <ele>118</ele>
        <time>2025-11-16T09:13:06Z</time>
      </trkpt>
      <trkpt lat="48.37097" lon="2.55014">
        <ele>118</ele>
        <time>2025-11-16T09:13:08Z</time>
      </trkpt>
      <trkpt lat="48.37091" lon="2.55023">
        <ele>118</ele>
        <time>2025-11-16T09:13:10Z</time>
      </trkpt>
      <trkpt lat="48.37083" lon="2.55034">
        <ele>117.8</ele>
        <time>2025-11-16T09:13:12Z</time>
      </trkpt>
      <trkpt lat="48.37076" lon="2.55046">
        <ele>117.3</ele>
        <time>2025-11-16T09:13:14Z</time>
      </trkpt>
      <trkpt lat="48.3707" lon="2.55054">
        <ele>117</ele>
        <time>2025-11-16T09:13:16Z</time>
      </trkpt>
      <trkpt lat="48.37064" lon="2.55065">
        <ele>116.6</ele>
        <time>2025-11-16T09:13:18Z</time>
      </trkpt>
      <trkpt lat="48.37056" lon="2.55078">
        <ele>116.2</ele>
        <time>2025-11-16T09:13:20Z</time>
      </trkpt>
      <trkpt lat="48.37048" lon="2.5509">
        <ele>115.7</ele>
        <time>2025-11-16T09:13:22Z</time>
      </trkpt>
      <trkpt lat="48.37042" lon="2.55101">
        <ele>115.3</ele>
        <time>2025-11-16T09:13:24Z</time>
      </trkpt>
      <trkpt lat="48.37036" lon="2.5511">
        <ele>115.4</ele>
        <time>2025-11-16T09:13:26Z</time>
      </trkpt>
      <trkpt lat="48.37031" lon="2.5512">
        <ele>115.5</ele>
        <time>2025-11-16T09:13:28Z</time>
      </trkpt>
      <trkpt lat="48.37026" lon="2.55128">
        <ele>115.5</ele>
        <time>2025-11-16T09:13:30Z</time>
      </trkpt>
      <trkpt lat="48.37021" lon="2.55136">
        <ele>115.6</ele>
        <time>2025-11-16T09:13:32Z</time>
      </trkpt>
      <trkpt lat="48.37017" lon="2.55142">
        <ele>115.9</ele>
        <time>2025-11-16T09:13:34Z</time>
      </trkpt>
      <trkpt lat="48.37013" lon="2.55149">
        <ele>116.2</ele>
        <time>2025-11-16T09:13:36Z</time>
      </trkpt>
      <trkpt lat="48.37009" lon="2.55157">
        <ele>116.6</ele>
        <time>2025-11-16T09:13:38Z</time>
      </trkpt>
      <trkpt lat="48.37004" lon="2.55164">
        <ele>116.8</ele>
        <time>2025-11-16T09:13:40Z</time>
      </trkpt>
      <trkpt lat="48.36999" lon="2.55173">
        <ele>117</ele>
        <time>2025-11-16T09:13:42Z</time>
      </trkpt>
      <trkpt lat="48.36994" lon="2.5518">
        <ele>117.2</ele>
        <time>2025-11-16T09:13:44Z</time>
      </trkpt>
      <trkpt lat="48.36989" lon="2.55189">
        <ele>117.4</ele>
        <time>2025-11-16T09:13:46Z</time>
      </trkpt>
      <trkpt lat="48.36984" lon="2.55196">
        <ele>117.6</ele>
        <time>2025-11-16T09:13:48Z</time>
      </trkpt>
      <trkpt lat="48.3698" lon="2.55203">
        <ele>117.7</ele>
        <time>2025-11-16T09:13:50Z</time>
      </trkpt>
      <trkpt lat="48.36977" lon="2.55212">
        <ele>117.8</ele>
        <time>2025-11-16T09:13:52Z</time>
      </trkpt>
      <trkpt lat="48.36978" lon="2.55222">
        <ele>117.8</ele>
        <time>2025-11-16T09:13:54Z</time>
      </trkpt>
      <trkpt lat="48.36982" lon="2.55231">
        <ele>117.6</ele>
        <time>2025-11-16T09:13:56Z</time>
      </trkpt>
      <trkpt lat="48.36988" lon="2.55239">
        <ele>117.4</ele>
        <time>2025-11-16T09:13:58Z</time>
      </trkpt>
      <trkpt lat="48.36994" lon="2.55248">
        <ele>117.2</ele>
        <time>2025-11-16T09:14:00Z</time>
      </trkpt>
      <trkpt lat="48.37" lon="2.55258">
        <ele>117.3</ele>
        <time>2025-11-16T09:14:02Z</time>
      </trkpt>
      <trkpt lat="48.37006" lon="2.55267">
        <ele>117.5</ele>
        <time>2025-11-16T09:14:04Z</time>
      </trkpt>
      <trkpt lat="48.37011" lon="2.55277">
        <ele>117.6</ele>
        <time>2025-11-16T09:14:06Z</time>
      </trkpt>
      <trkpt lat="48.37018" lon="2.55286">
        <ele>117.4</ele>
        <time>2025-11-16T09:14:08Z</time>
      </trkpt>
      <trkpt lat="48.37024" lon="2.55295">
        <ele>117.1</ele>
        <time>2025-11-16T09:14:10Z</time>
      </trkpt>
      <trkpt lat="48.3703" lon="2.55305">
        <ele>117</ele>
        <time>2025-11-16T09:14:12Z</time>
      </trkpt>
      <trkpt lat="48.37037" lon="2.55316">
        <ele>117</ele>
        <time>2025-11-16T09:14:14Z</time>
      </trkpt>
      <trkpt lat="48.37044" lon="2.55327">
        <ele>117</ele>
        <time>2025-11-16T09:14:16Z</time>
      </trkpt>
      <trkpt lat="48.3705" lon="2.55338">
        <ele>117</ele>
        <time>2025-11-16T09:14:18Z</time>
      </trkpt>
      <trkpt lat="48.37057" lon="2.55349">
        <ele>117</ele>
        <time>2025-11-16T09:14:20Z</time>
      </trkpt>
      <trkpt lat="48.37065" lon="2.55359">
        <ele>117</ele>
        <time>2025-11-16T09:14:22Z</time>
      </trkpt>
      <trkpt lat="48.37072" lon="2.5537">
        <ele>117.3</ele>
        <time>2025-11-16T09:14:24Z</time>
      </trkpt>
      <trkpt lat="48.37077" lon="2.55382">
        <ele>117.8</ele>
        <time>2025-11-16T09:14:26Z</time>
      </trkpt>
      <trkpt lat="48.37078" lon="2.55397">
        <ele>118</ele>
        <time>2025-11-16T09:14:28Z</time>
      </trkpt>
      <trkpt lat="48.37073" lon="2.55411">
        <ele>118</ele>
        <time>2025-11-16T09:14:30Z</time>
      </trkpt>
      <trkpt lat="48.37069" lon="2.55425">
        <ele>118</ele>
        <time>2025-11-16T09:14:32Z</time>
      </trkpt>
      <trkpt lat="48.37066" lon="2.55437">
        <ele>118</ele>
        <time>2025-11-16T09:14:34Z</time>
      </trkpt>
      <trkpt lat="48.37062" lon="2.5545">
        <ele>118</ele>
        <time>2025-11-16T09:14:36Z</time>
      </trkpt>
      <trkpt lat="48.37058" lon="2.55461">
        <ele>118</ele>
        <time>2025-11-16T09:14:38Z</time>
      </trkpt>
      <trkpt lat="48.37054" lon="2.55472">
        <ele>118</ele>
        <time>2025-11-16T09:14:40Z</time>
      </trkpt>
      <trkpt lat="48.37048" lon="2.55483">
        <ele>118</ele>
        <time>2025-11-16T09:14:42Z</time>
      </trkpt>
      <trkpt lat="48.37043" lon="2.55494">
        <ele>118</ele>
        <time>2025-11-16T09:14:44Z</time>
      </trkpt>
      <trkpt lat="48.37038" lon="2.55504">
        <ele>118</ele>
        <time>2025-11-16T09:14:46Z</time>
      </trkpt>
      <trkpt lat="48.37036" lon="2.55512">
        <ele>118</ele>
        <time>2025-11-16T09:14:48Z</time>
      </trkpt>
      <trkpt lat="48.37031" lon="2.55523">
        <ele>118</ele>
        <time>2025-11-16T09:14:50Z</time>
      </trkpt>
      <trkpt lat="48.37025" lon="2.55535">
        <ele>118</ele>
        <time>2025-11-16T09:14:52Z</time>
      </trkpt>
      <trkpt lat="48.37021" lon="2.55546">
        <ele>118</ele>
        <time>2025-11-16T09:14:54Z</time>
      </trkpt>
      <trkpt lat="48.37017" lon="2.55555">
        <ele>118</ele>
        <time>2025-11-16T09:14:56Z</time>
      </trkpt>
      <trkpt lat="48.37013" lon="2.55566">
        <ele>118.2</ele>
        <time>2025-11-16T09:14:58Z</time>
      </trkpt>
      <trkpt lat="48.37008" lon="2.55574">
        <ele>118.5</ele>
        <time>2025-11-16T09:15:00Z</time>
      </trkpt>
      <trkpt lat="48.37003" lon="2.55585">
        <ele>118.9</ele>
        <time>2025-11-16T09:15:02Z</time>
      </trkpt>
      <trkpt lat="48.36996" lon="2.55593">
        <ele>118.9</ele>
        <time>2025-11-16T09:15:04Z</time>
      </trkpt>
      <trkpt lat="48.36988" lon="2.55599">
        <ele>118.8</ele>
        <time>2025-11-16T09:15:06Z</time>
      </trkpt>
      <trkpt lat="48.3698" lon="2.55603">
        <ele>118.8</ele>
        <time>2025-11-16T09:15:08Z</time>
      </trkpt>
      <trkpt lat="48.36974" lon="2.55608">
        <ele>118.9</ele>
        <time>2025-11-16T09:15:10Z</time>
      </trkpt>
      <trkpt lat="48.36969" lon="2.55616">
        <ele>118.9</ele>
        <time>2025-11-16T09:15:12Z</time>
      </trkpt>
      <trkpt lat="48.36963" lon="2.55627">
        <ele>118.9</ele>
        <time>2025-11-16T09:15:14Z</time>
      </trkpt>
      <trkpt lat="48.36958" lon="2.55637">
        <ele>119</ele>
        <time>2025-11-16T09:15:16Z</time>
      </trkpt>
      <trkpt lat="48.36955" lon="2.55647">
        <ele>119</ele>
        <time>2025-11-16T09:15:18Z</time>
      </trkpt>
      <trkpt lat="48.36949" lon="2.55659">
        <ele>119</ele>
        <time>2025-11-16T09:15:20Z</time>
      </trkpt>
      <trkpt lat="48.36946" lon="2.55669">
        <ele>119</ele>
        <time>2025-11-16T09:15:22Z</time>
      </trkpt>
      <trkpt lat="48.36943" lon="2.55679">
        <ele>118.9</ele>
        <time>2025-11-16T09:15:24Z</time>
      </trkpt>
      <trkpt lat="48.3694" lon="2.5569">
        <ele>118.8</ele>
        <time>2025-11-16T09:15:26Z</time>
      </trkpt>
      <trkpt lat="48.36933" lon="2.55702">
        <ele>118.6</ele>
        <time>2025-11-16T09:15:28Z</time>
      </trkpt>
      <trkpt lat="48.36929" lon="2.55714">
        <ele>118.5</ele>
        <time>2025-11-16T09:15:30Z</time>
      </trkpt>
      <trkpt lat="48.36925" lon="2.55727">
        <ele>118.4</ele>
        <time>2025-11-16T09:15:32Z</time>
      </trkpt>
      <trkpt lat="48.36919" lon="2.55741">
        <ele>118.7</ele>
        <time>2025-11-16T09:15:34Z</time>
      </trkpt>
      <trkpt lat="48.36913" lon="2.55754">
        <ele>118.9</ele>
        <time>2025-11-16T09:15:36Z</time>
      </trkpt>
      <trkpt lat="48.36908" lon="2.55767">
        <ele>118.7</ele>
        <time>2025-11-16T09:15:38Z</time>
      </trkpt>
      <trkpt lat="48.36903" lon="2.55777">
        <ele>118.5</ele>
        <time>2025-11-16T09:15:40Z</time>
      </trkpt>
      <trkpt lat="48.36898" lon="2.55789">
        <ele>118.3</ele>
        <time>2025-11-16T09:15:42Z</time>
      </trkpt>
      <trkpt lat="48.36892" lon="2.55802">
        <ele>118.1</ele>
        <time>2025-11-16T09:15:44Z</time>
      </trkpt>
      <trkpt lat="48.36886" lon="2.55814">
        <ele>117.9</ele>
        <time>2025-11-16T09:15:46Z</time>
      </trkpt>
      <trkpt lat="48.36879" lon="2.55826">
        <ele>117.6</ele>
        <time>2025-11-16T09:15:48Z</time>
      </trkpt>
      <trkpt lat="48.36873" lon="2.5584">
        <ele>117.4</ele>
        <time>2025-11-16T09:15:50Z</time>
      </trkpt>
      <trkpt lat="48.36868" lon="2.55855">
        <ele>117.2</ele>
        <time>2025-11-16T09:15:52Z</time>
      </trkpt>
      <trkpt lat="48.36864" lon="2.55871">
        <ele>117.1</ele>
        <time>2025-11-16T09:15:54Z</time>
      </trkpt>
      <trkpt lat="48.36861" lon="2.55888">
        <ele>117</ele>
        <time>2025-11-16T09:15:56Z</time>
      </trkpt>
      <trkpt lat="48.3686" lon="2.55903">
        <ele>117</ele>
        <time>2025-11-16T09:15:58Z</time>
      </trkpt>
      <trkpt lat="48.3686" lon="2.55918">
        <ele>117</ele>
        <time>2025-11-16T09:16:00Z</time>
      </trkpt>
      <trkpt lat="48.36861" lon="2.55933">
        <ele>117</ele>
        <time>2025-11-16T09:16:02Z</time>
      </trkpt>
      <trkpt lat="48.36863" lon="2.55946">
        <ele>117</ele>
        <time>2025-11-16T09:16:04Z</time>
      </trkpt>
      <trkpt lat="48.36863" lon="2.5596">
        <ele>117</ele>
        <time>2025-11-16T09:16:06Z</time>
      </trkpt>
      <trkpt lat="48.36863" lon="2.55975">
        <ele>117</ele>
        <time>2025-11-16T09:16:08Z</time>
      </trkpt>
      <trkpt lat="48.36862" lon="2.55989">
        <ele>117</ele>
        <time>2025-11-16T09:16:10Z</time>
      </trkpt>
      <trkpt lat="48.36861" lon="2.56003">
        <ele>116.9</ele>
        <time>2025-11-16T09:16:12Z</time>
      </trkpt>
      <trkpt lat="48.36864" lon="2.56018">
        <ele>116.4</ele>
        <time>2025-11-16T09:16:14Z</time>
      </trkpt>
      <trkpt lat="48.36871" lon="2.56028">
        <ele>116.3</ele>
        <time>2025-11-16T09:16:16Z</time>
      </trkpt>
      <trkpt lat="48.36881" lon="2.56033">
        <ele>116.6</ele>
        <time>2025-11-16T09:16:18Z</time>
      </trkpt>
      <trkpt lat="48.36889" lon="2.56039">
        <ele>116.6</ele>
        <time>2025-11-16T09:16:20Z</time>
      </trkpt>
      <trkpt lat="48.36896" lon="2.56046">
        <ele>116.3</ele>
        <time>2025-11-16T09:16:22Z</time>
      </trkpt>
      <trkpt lat="48.36905" lon="2.56056">
        <ele>116</ele>
        <time>2025-11-16T09:16:24Z</time>
      </trkpt>
      <trkpt lat="48.36912" lon="2.56066">
        <ele>116.3</ele>
        <time>2025-11-16T09:16:26Z</time>
      </trkpt>
      <trkpt lat="48.36918" lon="2.56074">
        <ele>116.7</ele>
        <time>2025-11-16T09:16:28Z</time>
      </trkpt>
      <trkpt lat="48.36926" lon="2.56078">
        <ele>116.8</ele>
        <time>2025-11-16T09:16:30Z</time>
      </trkpt>
      <trkpt lat="48.36933" lon="2.56083">
        <ele>117</ele>
        <time>2025-11-16T09:16:32Z</time>
      </trkpt>
      <trkpt lat="48.36943" lon="2.5609">
        <ele>117</ele>
        <time>2025-11-16T09:16:34Z</time>
      </trkpt>
      <trkpt lat="48.36951" lon="2.56094">
        <ele>116.9</ele>
        <time>2025-11-16T09:16:36Z</time>
      </trkpt>
      <trkpt lat="48.3696" lon="2.56094">
        <ele>116.6</ele>
        <time>2025-11-16T09:16:38Z</time>
      </trkpt>
      <trkpt lat="48.3697" lon="2.56093">
        <ele>116.4</ele>
        <time>2025-11-16T09:16:40Z</time>
      </trkpt>
      <trkpt lat="48.36979" lon="2.56101">
        <ele>116.7</ele>
        <time>2025-11-16T09:16:42Z</time>
      </trkpt>
      <trkpt lat="48.36986" lon="2.56113">
        <ele>117</ele>
        <time>2025-11-16T09:16:44Z</time>
      </trkpt>
      <trkpt lat="48.36992" lon="2.56121">
        <ele>117</ele>
        <time>2025-11-16T09:16:46Z</time>
      </trkpt>
      <trkpt lat="48.36997" lon="2.56128">
        <ele>117</ele>
        <time>2025-11-16T09:16:48Z</time>
      </trkpt>
      <trkpt lat="48.37002" lon="2.56134">
        <ele>117.1</ele>
        <time>2025-11-16T09:16:50Z</time>
      </trkpt>
      <trkpt lat="48.37008" lon="2.56142">
        <ele>117.3</ele>
        <time>2025-11-16T09:16:54Z</time>
      </trkpt>
      <trkpt lat="48.37013" lon="2.56145">
        <ele>117.5</ele>
        <time>2025-11-16T09:16:56Z</time>
      </trkpt>
      <trkpt lat="48.37019" lon="2.56147">
        <ele>117.7</ele>
        <time>2025-11-16T09:16:58Z</time>
      </trkpt>
      <trkpt lat="48.37026" lon="2.56149">
        <ele>117.9</ele>
        <time>2025-11-16T09:17:00Z</time>
      </trkpt>
      <trkpt lat="48.37034" lon="2.56149">
        <ele>118.2</ele>
        <time>2025-11-16T09:17:02Z</time>
      </trkpt>
      <trkpt lat="48.3704" lon="2.56148">
        <ele>118.4</ele>
        <time>2025-11-16T09:17:04Z</time>
      </trkpt>
      <trkpt lat="48.37046" lon="2.56145">
        <ele>118.6</ele>
        <time>2025-11-16T09:17:06Z</time>
      </trkpt>
      <trkpt lat="48.37054" lon="2.56145">
        <ele>119</ele>
        <time>2025-11-16T09:17:10Z</time>
      </trkpt>
      <trkpt lat="48.37059" lon="2.56146">
        <ele>119</ele>
        <time>2025-11-16T09:17:12Z</time>
      </trkpt>
      <trkpt lat="48.37064" lon="2.56158">
        <ele>119.2</ele>
        <time>2025-11-16T09:17:16Z</time>
      </trkpt>
      <trkpt lat="48.37069" lon="2.56168">
        <ele>119.4</ele>
        <time>2025-11-16T09:17:20Z</time>
      </trkpt>
      <trkpt lat="48.37074" lon="2.56173">
        <ele>119.5</ele>
        <time>2025-11-16T09:17:30Z</time>
      </trkpt>
      <trkpt lat="48.37078" lon="2.56179">
        <ele>119.4</ele>
        <time>2025-11-16T09:17:38Z</time>
      </trkpt>
      <trkpt lat="48.37083" lon="2.56186">
        <ele>119.3</ele>
        <time>2025-11-16T09:17:46Z</time>
      </trkpt>
      <trkpt lat="48.37085" lon="2.56191">
        <ele>119.2</ele>
        <time>2025-11-16T09:25:22Z</time>
      </trkpt>
      <trkpt lat="48.37089" lon="2.56198">
        <ele>119.2</ele>
        <time>2025-11-16T09:25:28Z</time>
      </trkpt>
      <trkpt lat="48.37093" lon="2.56203">
        <ele>119.2</ele>
        <time>2025-11-16T09:25:32Z</time>
      </trkpt>
      <trkpt lat="48.37096" lon="2.5621">
        <ele>119.2</ele>
        <time>2025-11-16T09:25:38Z</time>
      </trkpt>
      <trkpt lat="48.37101" lon="2.56211">
        <ele>119.2</ele>
        <time>2025-11-16T09:25:46Z</time>
      </trkpt>
      <trkpt lat="48.37105" lon="2.56214">
        <ele>119.2</ele>
        <time>2025-11-16T09:25:52Z</time>
      </trkpt>
      <trkpt lat="48.37105" lon="2.56221">
        <ele>119</ele>
        <time>2025-11-16T09:28:18Z</time>
      </trkpt>
      <trkpt lat="48.37111" lon="2.56229">
        <ele>119</ele>
        <time>2025-11-16T09:28:30Z</time>
      </trkpt>
      <trkpt lat="48.37114" lon="2.56235">
        <ele>119.1</ele>
        <time>2025-11-16T09:28:32Z</time>
      </trkpt>
      <trkpt lat="48.37118" lon="2.56241">
        <ele>119.2</ele>
        <time>2025-11-16T09:28:34Z</time>
      </trkpt>
      <trkpt lat="48.37122" lon="2.56249">
        <ele>119.4</ele>
        <time>2025-11-16T09:28:36Z</time>
      </trkpt>
      <trkpt lat="48.37126" lon="2.56257">
        <ele>119.4</ele>
        <time>2025-11-16T09:28:38Z</time>
      </trkpt>
      <trkpt lat="48.3713" lon="2.56264">
        <ele>119.3</ele>
        <time>2025-11-16T09:28:40Z</time>
      </trkpt>
      <trkpt lat="48.37136" lon="2.56271">
        <ele>119.2</ele>
        <time>2025-11-16T09:28:42Z</time>
      </trkpt>
      <trkpt lat="48.37141" lon="2.56273">
        <ele>119.2</ele>
        <time>2025-11-16T09:28:44Z</time>
      </trkpt>
      <trkpt lat="48.37146" lon="2.5628">
        <ele>119.3</ele>
        <time>2025-11-16T09:28:46Z</time>
      </trkpt>
      <trkpt lat="48.37152" lon="2.56289">
        <ele>119.3</ele>
        <time>2025-11-16T09:28:48Z</time>
      </trkpt>
      <trkpt lat="48.3716" lon="2.56301">
        <ele>119.1</ele>
        <time>2025-11-16T09:28:50Z</time>
      </trkpt>
      <trkpt lat="48.37165" lon="2.56316">
        <ele>118.7</ele>
        <time>2025-11-16T09:28:52Z</time>
      </trkpt>
      <trkpt lat="48.37172" lon="2.56328">
        <ele>118</ele>
        <time>2025-11-16T09:28:54Z</time>
      </trkpt>
      <trkpt lat="48.37179" lon="2.56339">
        <ele>117.6</ele>
        <time>2025-11-16T09:28:56Z</time>
      </trkpt>
      <trkpt lat="48.37187" lon="2.56349">
        <ele>117</ele>
        <time>2025-11-16T09:28:58Z</time>
      </trkpt>
      <trkpt lat="48.37193" lon="2.56358">
        <ele>116.3</ele>
        <time>2025-11-16T09:29:00Z</time>
      </trkpt>
      <trkpt lat="48.37203" lon="2.56367">
        <ele>115.5</ele>
        <time>2025-11-16T09:29:02Z</time>
      </trkpt>
      <trkpt lat="48.37213" lon="2.56376">
        <ele>114.8</ele>
        <time>2025-11-16T09:29:04Z</time>
      </trkpt>
      <trkpt lat="48.37223" lon="2.56383">
        <ele>114</ele>
        <time>2025-11-16T09:29:06Z</time>
      </trkpt>
      <trkpt lat="48.37234" lon="2.5639">
        <ele>113.6</ele>
        <time>2025-11-16T09:29:08Z</time>
      </trkpt>
      <trkpt lat="48.37245" lon="2.56398">
        <ele>113.2</ele>
        <time>2025-11-16T09:29:10Z</time>
      </trkpt>
      <trkpt lat="48.37256" lon="2.56407">
        <ele>112.9</ele>
        <time>2025-11-16T09:29:12Z</time>
      </trkpt>
      <trkpt lat="48.37267" lon="2.56415">
        <ele>113</ele>
        <time>2025-11-16T09:29:14Z</time>
      </trkpt>
      <trkpt lat="48.37278" lon="2.56424">
        <ele>113.3</ele>
        <time>2025-11-16T09:29:16Z</time>
      </trkpt>
      <trkpt lat="48.37288" lon="2.56433">
        <ele>113.4</ele>
        <time>2025-11-16T09:29:18Z</time>
      </trkpt>
      <trkpt lat="48.37298" lon="2.56441">
        <ele>113.2</ele>
        <time>2025-11-16T09:29:20Z</time>
      </trkpt>
      <trkpt lat="48.37309" lon="2.56449">
        <ele>113.2</ele>
        <time>2025-11-16T09:29:22Z</time>
      </trkpt>
      <trkpt lat="48.37318" lon="2.56459">
        <ele>113.3</ele>
        <time>2025-11-16T09:29:24Z</time>
      </trkpt>
      <trkpt lat="48.37327" lon="2.56473">
        <ele>113.2</ele>
        <time>2025-11-16T09:29:26Z</time>
      </trkpt>
      <trkpt lat="48.37334" lon="2.56487">
        <ele>113</ele>
        <time>2025-11-16T09:29:28Z</time>
      </trkpt>
      <trkpt lat="48.37338" lon="2.56503">
        <ele>112.9</ele>
        <time>2025-11-16T09:29:30Z</time>
      </trkpt>
      <trkpt lat="48.37343" lon="2.56518">
        <ele>113.3</ele>
        <time>2025-11-16T09:29:32Z</time>
      </trkpt>
      <trkpt lat="48.37348" lon="2.56534">
        <ele>113.5</ele>
        <time>2025-11-16T09:29:34Z</time>
      </trkpt>
      <trkpt lat="48.37353" lon="2.56549">
        <ele>113.3</ele>
        <time>2025-11-16T09:29:36Z</time>
      </trkpt>
      <trkpt lat="48.37359" lon="2.56562">
        <ele>113.1</ele>
        <time>2025-11-16T09:29:38Z</time>
      </trkpt>
      <trkpt lat="48.37363" lon="2.56576">
        <ele>112.9</ele>
        <time>2025-11-16T09:29:40Z</time>
      </trkpt>
      <trkpt lat="48.37367" lon="2.5659">
        <ele>113</ele>
        <time>2025-11-16T09:29:42Z</time>
      </trkpt>
      <trkpt lat="48.37369" lon="2.56604">
        <ele>113.5</ele>
        <time>2025-11-16T09:29:44Z</time>
      </trkpt>
      <trkpt lat="48.37372" lon="2.56618">
        <ele>113.6</ele>
        <time>2025-11-16T09:29:46Z</time>
      </trkpt>
      <trkpt lat="48.37375" lon="2.5663">
        <ele>113.5</ele>
        <time>2025-11-16T09:29:48Z</time>
      </trkpt>
      <trkpt lat="48.37379" lon="2.56642">
        <ele>113.4</ele>
        <time>2025-11-16T09:29:50Z</time>
      </trkpt>
      <trkpt lat="48.37382" lon="2.56655">
        <ele>113.4</ele>
        <time>2025-11-16T09:29:52Z</time>
      </trkpt>
      <trkpt lat="48.37384" lon="2.5667">
        <ele>113.4</ele>
        <time>2025-11-16T09:29:54Z</time>
      </trkpt>
      <trkpt lat="48.37387" lon="2.56683">
        <ele>113.1</ele>
        <time>2025-11-16T09:29:56Z</time>
      </trkpt>
      <trkpt lat="48.3739" lon="2.56695">
        <ele>113</ele>
        <time>2025-11-16T09:29:58Z</time>
      </trkpt>
      <trkpt lat="48.37393" lon="2.5671">
        <ele>113</ele>
        <time>2025-11-16T09:30:00Z</time>
      </trkpt>
      <trkpt lat="48.37396" lon="2.56723">
        <ele>113</ele>
        <time>2025-11-16T09:30:02Z</time>
      </trkpt>
      <trkpt lat="48.37398" lon="2.56737">
        <ele>113.4</ele>
        <time>2025-11-16T09:30:04Z</time>
      </trkpt>
      <trkpt lat="48.37399" lon="2.5675">
        <ele>113.6</ele>
        <time>2025-11-16T09:30:06Z</time>
      </trkpt>
      <trkpt lat="48.37401" lon="2.56763">
        <ele>113.8</ele>
        <time>2025-11-16T09:30:08Z</time>
      </trkpt>
      <trkpt lat="48.37404" lon="2.56776">
        <ele>114</ele>
        <time>2025-11-16T09:30:10Z</time>
      </trkpt>
      <trkpt lat="48.37406" lon="2.56788">
        <ele>114.4</ele>
        <time>2025-11-16T09:30:12Z</time>
      </trkpt>
      <trkpt lat="48.37407" lon="2.56799">
        <ele>114.8</ele>
        <time>2025-11-16T09:30:14Z</time>
      </trkpt>
      <trkpt lat="48.37407" lon="2.5681">
        <ele>115.2</ele>
        <time>2025-11-16T09:30:16Z</time>
      </trkpt>
      <trkpt lat="48.37408" lon="2.56821">
        <ele>115.6</ele>
        <time>2025-11-16T09:30:18Z</time>
      </trkpt>
      <trkpt lat="48.37409" lon="2.56832">
        <ele>116</ele>
        <time>2025-11-16T09:30:20Z</time>
      </trkpt>
      <trkpt lat="48.3741" lon="2.56843">
        <ele>116.3</ele>
        <time>2025-11-16T09:30:22Z</time>
      </trkpt>
      <trkpt lat="48.3741" lon="2.56852">
        <ele>116.7</ele>
        <time>2025-11-16T09:30:24Z</time>
      </trkpt>
      <trkpt lat="48.37412" lon="2.56861">
        <ele>117</ele>
        <time>2025-11-16T09:30:26Z</time>
      </trkpt>
      <trkpt lat="48.37414" lon="2.56869">
        <ele>117.2</ele>
        <time>2025-11-16T09:30:28Z</time>
      </trkpt>
      <trkpt lat="48.37415" lon="2.56878">
        <ele>117.6</ele>
        <time>2025-11-16T09:30:30Z</time>
      </trkpt>
      <trkpt lat="48.37415" lon="2.56887">
        <ele>117.9</ele>
        <time>2025-11-16T09:30:32Z</time>
      </trkpt>
      <trkpt lat="48.37414" lon="2.56897">
        <ele>118.2</ele>
        <time>2025-11-16T09:30:34Z</time>
      </trkpt>
      <trkpt lat="48.37412" lon="2.56906">
        <ele>118.4</ele>
        <time>2025-11-16T09:30:36Z</time>
      </trkpt>
      <trkpt lat="48.3741" lon="2.56914">
        <ele>118.7</ele>
        <time>2025-11-16T09:30:38Z</time>
      </trkpt>
      <trkpt lat="48.37409" lon="2.56924">
        <ele>119</ele>
        <time>2025-11-16T09:30:40Z</time>
      </trkpt>
      <trkpt lat="48.37407" lon="2.56934">
        <ele>119.3</ele>
        <time>2025-11-16T09:30:42Z</time>
      </trkpt>
      <trkpt lat="48.37406" lon="2.56944">
        <ele>119.6</ele>
        <time>2025-11-16T09:30:44Z</time>
      </trkpt>
      <trkpt lat="48.37405" lon="2.56952">
        <ele>119.7</ele>
        <time>2025-11-16T09:30:46Z</time>
      </trkpt>
      <trkpt lat="48.37404" lon="2.56961">
        <ele>119.9</ele>
        <time>2025-11-16T09:30:48Z</time>
      </trkpt>
      <trkpt lat="48.37403" lon="2.5697">
        <ele>120</ele>
        <time>2025-11-16T09:30:50Z</time>
      </trkpt>
      <trkpt lat="48.37401" lon="2.56979">
        <ele>120</ele>
        <time>2025-11-16T09:30:52Z</time>
      </trkpt>
      <trkpt lat="48.37399" lon="2.56989">
        <ele>120.1</ele>
        <time>2025-11-16T09:30:54Z</time>
      </trkpt>
      <trkpt lat="48.37398" lon="2.56999">
        <ele>120.3</ele>
        <time>2025-11-16T09:30:56Z</time>
      </trkpt>
      <trkpt lat="48.37396" lon="2.57009">
        <ele>120.6</ele>
        <time>2025-11-16T09:30:58Z</time>
      </trkpt>
      <trkpt lat="48.37395" lon="2.57019">
        <ele>120.9</ele>
        <time>2025-11-16T09:31:00Z</time>
      </trkpt>
      <trkpt lat="48.37393" lon="2.57029">
        <ele>121.2</ele>
        <time>2025-11-16T09:31:02Z</time>
      </trkpt>
      <trkpt lat="48.3739" lon="2.57038">
        <ele>121.4</ele>
        <time>2025-11-16T09:31:04Z</time>
      </trkpt>
      <trkpt lat="48.37389" lon="2.57046">
        <ele>121.6</ele>
        <time>2025-11-16T09:31:06Z</time>
      </trkpt>
      <trkpt lat="48.37388" lon="2.57056">
        <ele>122</ele>
        <time>2025-11-16T09:31:08Z</time>
      </trkpt>
      <trkpt lat="48.37389" lon="2.57065">
        <ele>122</ele>
        <time>2025-11-16T09:31:10Z</time>
      </trkpt>
      <trkpt lat="48.37391" lon="2.57076">
        <ele>122.1</ele>
        <time>2025-11-16T09:31:12Z</time>
      </trkpt>
      <trkpt lat="48.37392" lon="2.57084">
        <ele>122.1</ele>
        <time>2025-11-16T09:31:14Z</time>
      </trkpt>
      <trkpt lat="48.37394" lon="2.57092">
        <ele>122.2</ele>
        <time>2025-11-16T09:31:16Z</time>
      </trkpt>
      <trkpt lat="48.37397" lon="2.57099">
        <ele>122.3</ele>
        <time>2025-11-16T09:31:18Z</time>
      </trkpt>
      <trkpt lat="48.374" lon="2.57106">
        <ele>122.4</ele>
        <time>2025-11-16T09:31:20Z</time>
      </trkpt>
      <trkpt lat="48.37402" lon="2.57113">
        <ele>122.5</ele>
        <time>2025-11-16T09:31:22Z</time>
      </trkpt>
      <trkpt lat="48.37404" lon="2.57121">
        <ele>122.7</ele>
        <time>2025-11-16T09:31:24Z</time>
      </trkpt>
      <trkpt lat="48.37403" lon="2.57131">
        <ele>122.8</ele>
        <time>2025-11-16T09:31:26Z</time>
      </trkpt>
      <trkpt lat="48.37402" lon="2.5714">
        <ele>123</ele>
        <time>2025-11-16T09:31:28Z</time>
      </trkpt>
      <trkpt lat="48.37397" lon="2.57149">
        <ele>123</ele>
        <time>2025-11-16T09:31:30Z</time>
      </trkpt>
      <trkpt lat="48.37396" lon="2.57159">
        <ele>123</ele>
        <time>2025-11-16T09:31:32Z</time>
      </trkpt>
      <trkpt lat="48.37395" lon="2.57173">
        <ele>123</ele>
        <time>2025-11-16T09:31:34Z</time>
      </trkpt>
      <trkpt lat="48.37393" lon="2.57187">
        <ele>123</ele>
        <time>2025-11-16T09:31:36Z</time>
      </trkpt>
      <trkpt lat="48.3739" lon="2.572">
        <ele>122.8</ele>
        <time>2025-11-16T09:31:38Z</time>
      </trkpt>
      <trkpt lat="48.37386" lon="2.57213">
        <ele>122.3</ele>
        <time>2025-11-16T09:31:40Z</time>
      </trkpt>
      <trkpt lat="48.37381" lon="2.57226">
        <ele>122</ele>
        <time>2025-11-16T09:31:42Z</time>
      </trkpt>
      <trkpt lat="48.37376" lon="2.57238">
        <ele>122</ele>
        <time>2025-11-16T09:31:44Z</time>
      </trkpt>
      <trkpt lat="48.37369" lon="2.57249">
        <ele>122</ele>
        <time>2025-11-16T09:31:46Z</time>
      </trkpt>
      <trkpt lat="48.37364" lon="2.57261">
        <ele>122</ele>
        <time>2025-11-16T09:31:48Z</time>
      </trkpt>
      <trkpt lat="48.37361" lon="2.5727">
        <ele>122</ele>
        <time>2025-11-16T09:31:50Z</time>
      </trkpt>
      <trkpt lat="48.37358" lon="2.57276">
        <ele>122</ele>
        <time>2025-11-16T09:31:52Z</time>
      </trkpt>
      <trkpt lat="48.37356" lon="2.57283">
        <ele>122</ele>
        <time>2025-11-16T09:31:54Z</time>
      </trkpt>
      <trkpt lat="48.37355" lon="2.5729">
        <ele>122</ele>
        <time>2025-11-16T09:31:56Z</time>
      </trkpt>
      <trkpt lat="48.37352" lon="2.57297">
        <ele>122</ele>
        <time>2025-11-16T09:31:58Z</time>
      </trkpt>
      <trkpt lat="48.3735" lon="2.57308">
        <ele>122.1</ele>
        <time>2025-11-16T09:32:00Z</time>
      </trkpt>
      <trkpt lat="48.37347" lon="2.57321">
        <ele>122.3</ele>
        <time>2025-11-16T09:32:02Z</time>
      </trkpt>
      <trkpt lat="48.37345" lon="2.57335">
        <ele>122.4</ele>
        <time>2025-11-16T09:32:04Z</time>
      </trkpt>
      <trkpt lat="48.37343" lon="2.57351">
        <ele>122.8</ele>
        <time>2025-11-16T09:32:06Z</time>
      </trkpt>
      <trkpt lat="48.3735" lon="2.57367">
        <ele>123.1</ele>
        <time>2025-11-16T09:32:08Z</time>
      </trkpt>
      <trkpt lat="48.37357" lon="2.57378">
        <ele>123.5</ele>
        <time>2025-11-16T09:32:10Z</time>
      </trkpt>
      <trkpt lat="48.37365" lon="2.57384">
        <ele>123.8</ele>
        <time>2025-11-16T09:32:12Z</time>
      </trkpt>
      <trkpt lat="48.37374" lon="2.57389">
        <ele>124</ele>
        <time>2025-11-16T09:32:14Z</time>
      </trkpt>
      <trkpt lat="48.37381" lon="2.57394">
        <ele>124.2</ele>
        <time>2025-11-16T09:32:16Z</time>
      </trkpt>
      <trkpt lat="48.37387" lon="2.57402">
        <ele>124.5</ele>
        <time>2025-11-16T09:32:18Z</time>
      </trkpt>
      <trkpt lat="48.37393" lon="2.57411">
        <ele>124.8</ele>
        <time>2025-11-16T09:32:20Z</time>
      </trkpt>
      <trkpt lat="48.37396" lon="2.5742">
        <ele>124.9</ele>
        <time>2025-11-16T09:32:22Z</time>
      </trkpt>
      <trkpt lat="48.374" lon="2.57429">
        <ele>124.7</ele>
        <time>2025-11-16T09:32:24Z</time>
      </trkpt>
      <trkpt lat="48.37403" lon="2.57439">
        <ele>124.6</ele>
        <time>2025-11-16T09:32:26Z</time>
      </trkpt>
      <trkpt lat="48.37407" lon="2.57449">
        <ele>124.5</ele>
        <time>2025-11-16T09:32:28Z</time>
      </trkpt>
      <trkpt lat="48.37411" lon="2.57462">
        <ele>124.2</ele>
        <time>2025-11-16T09:32:30Z</time>
      </trkpt>
      <trkpt lat="48.37415" lon="2.57476">
        <ele>123.9</ele>
        <time>2025-11-16T09:32:32Z</time>
      </trkpt>
      <trkpt lat="48.37417" lon="2.57491">
        <ele>124</ele>
        <time>2025-11-16T09:32:34Z</time>
      </trkpt>
      <trkpt lat="48.37419" lon="2.57506">
        <ele>123.9</ele>
        <time>2025-11-16T09:32:36Z</time>
      </trkpt>
      <trkpt lat="48.37421" lon="2.5752">
        <ele>123.6</ele>
        <time>2025-11-16T09:32:38Z</time>
      </trkpt>
      <trkpt lat="48.37422" lon="2.57535">
        <ele>123.6</ele>
        <time>2025-11-16T09:32:40Z</time>
      </trkpt>
      <trkpt lat="48.37423" lon="2.57547">
        <ele>124</ele>
        <time>2025-11-16T09:32:42Z</time>
      </trkpt>
      <trkpt lat="48.37423" lon="2.57561">
        <ele>124.4</ele>
        <time>2025-11-16T09:32:44Z</time>
      </trkpt>
      <trkpt lat="48.37423" lon="2.57572">
        <ele>124.7</ele>
        <time>2025-11-16T09:32:46Z</time>
      </trkpt>
      <trkpt lat="48.37422" lon="2.57581">
        <ele>124.9</ele>
        <time>2025-11-16T09:32:48Z</time>
      </trkpt>
      <trkpt lat="48.37422" lon="2.57591">
        <ele>125</ele>
        <time>2025-11-16T09:32:50Z</time>
      </trkpt>
      <trkpt lat="48.37421" lon="2.576">
        <ele>125</ele>
        <time>2025-11-16T09:32:52Z</time>
      </trkpt>
      <trkpt lat="48.37421" lon="2.57609">
        <ele>125</ele>
        <time>2025-11-16T09:32:54Z</time>
      </trkpt>
      <trkpt lat="48.37422" lon="2.57618">
        <ele>125</ele>
        <time>2025-11-16T09:32:56Z</time>
      </trkpt>
      <trkpt lat="48.37422" lon="2.57629">
        <ele>125</ele>
        <time>2025-11-16T09:32:58Z</time>
      </trkpt>
      <trkpt lat="48.37422" lon="2.5764">
        <ele>125</ele>
        <time>2025-11-16T09:33:00Z</time>
      </trkpt>
      <trkpt lat="48.37422" lon="2.57653">
        <ele>125</ele>
        <time>2025-11-16T09:33:02Z</time>
      </trkpt>
      <trkpt lat="48.37423" lon="2.57666">
        <ele>125</ele>
        <time>2025-11-16T09:33:04Z</time>
      </trkpt>
      <trkpt lat="48.37427" lon="2.57679">
        <ele>125</ele>
        <time>2025-11-16T09:33:06Z</time>
      </trkpt>
      <trkpt lat="48.3743" lon="2.57692">
        <ele>125</ele>
        <time>2025-11-16T09:33:08Z</time>
      </trkpt>
      <trkpt lat="48.37433" lon="2.57704">
        <ele>125</ele>
        <time>2025-11-16T09:33:10Z</time>
      </trkpt>
      <trkpt lat="48.37435" lon="2.57716">
        <ele>125</ele>
        <time>2025-11-16T09:33:12Z</time>
      </trkpt>
      <trkpt lat="48.37439" lon="2.57728">
        <ele>125</ele>
        <time>2025-11-16T09:33:14Z</time>
      </trkpt>
      <trkpt lat="48.37441" lon="2.57739">
        <ele>125</ele>
        <time>2025-11-16T09:33:16Z</time>
      </trkpt>
      <trkpt lat="48.37442" lon="2.57751">
        <ele>125</ele>
        <time>2025-11-16T09:33:18Z</time>
      </trkpt>
      <trkpt lat="48.37442" lon="2.57764">
        <ele>125</ele>
        <time>2025-11-16T09:33:20Z</time>
      </trkpt>
      <trkpt lat="48.37441" lon="2.57777">
        <ele>125</ele>
        <time>2025-11-16T09:33:22Z</time>
      </trkpt>
      <trkpt lat="48.37441" lon="2.57791">
        <ele>125</ele>
        <time>2025-11-16T09:33:24Z</time>
      </trkpt>
      <trkpt lat="48.37441" lon="2.57804">
        <ele>125</ele>
        <time>2025-11-16T09:33:26Z</time>
      </trkpt>
      <trkpt lat="48.37443" lon="2.57816">
        <ele>125</ele>
        <time>2025-11-16T09:33:28Z</time>
      </trkpt>
      <trkpt lat="48.37443" lon="2.57828">
        <ele>125</ele>
        <time>2025-11-16T09:33:30Z</time>
      </trkpt>
      <trkpt lat="48.37443" lon="2.5784">
        <ele>125.2</ele>
        <time>2025-11-16T09:33:32Z</time>
      </trkpt>
      <trkpt lat="48.37444" lon="2.57852">
        <ele>125.7</ele>
        <time>2025-11-16T09:33:34Z</time>
      </trkpt>
      <trkpt lat="48.37445" lon="2.57864">
        <ele>126</ele>
        <time>2025-11-16T09:33:36Z</time>
      </trkpt>
      <trkpt lat="48.37447" lon="2.57879">
        <ele>126</ele>
        <time>2025-11-16T09:33:38Z</time>
      </trkpt>
      <trkpt lat="48.37449" lon="2.57893">
        <ele>126</ele>
        <time>2025-11-16T09:33:40Z</time>
      </trkpt>
      <trkpt lat="48.37451" lon="2.57907">
        <ele>126</ele>
        <time>2025-11-16T09:33:42Z</time>
      </trkpt>
      <trkpt lat="48.37455" lon="2.57922">
        <ele>125.9</ele>
        <time>2025-11-16T09:33:44Z</time>
      </trkpt>
      <trkpt lat="48.37457" lon="2.57938">
        <ele>125.6</ele>
        <time>2025-11-16T09:33:46Z</time>
      </trkpt>
      <trkpt lat="48.3746" lon="2.57956">
        <ele>125.5</ele>
        <time>2025-11-16T09:33:48Z</time>
      </trkpt>
      <trkpt lat="48.37463" lon="2.57973">
        <ele>125.3</ele>
        <time>2025-11-16T09:33:50Z</time>
      </trkpt>
      <trkpt lat="48.37465" lon="2.57989">
        <ele>125.3</ele>
        <time>2025-11-16T09:33:52Z</time>
      </trkpt>
      <trkpt lat="48.37467" lon="2.58003">
        <ele>125.2</ele>
        <time>2025-11-16T09:33:54Z</time>
      </trkpt>
      <trkpt lat="48.3747" lon="2.58017">
        <ele>125.1</ele>
        <time>2025-11-16T09:33:56Z</time>
      </trkpt>
      <trkpt lat="48.37472" lon="2.58031">
        <ele>125</ele>
        <time>2025-11-16T09:33:58Z</time>
      </trkpt>
      <trkpt lat="48.37475" lon="2.58042">
        <ele>125</ele>
        <time>2025-11-16T09:34:00Z</time>
      </trkpt>
      <trkpt lat="48.37475" lon="2.58055">
        <ele>125</ele>
        <time>2025-11-16T09:34:02Z</time>
      </trkpt>
      <trkpt lat="48.37476" lon="2.58069">
        <ele>125</ele>
        <time>2025-11-16T09:34:04Z</time>
      </trkpt>
      <trkpt lat="48.37476" lon="2.58083">
        <ele>125</ele>
        <time>2025-11-16T09:34:06Z</time>
      </trkpt>
      <trkpt lat="48.37478" lon="2.58098">
        <ele>124.9</ele>
        <time>2025-11-16T09:34:08Z</time>
      </trkpt>
      <trkpt lat="48.3748" lon="2.58111">
        <ele>124.7</ele>
        <time>2025-11-16T09:34:10Z</time>
      </trkpt>
      <trkpt lat="48.37481" lon="2.58125">
        <ele>124.7</ele>
        <time>2025-11-16T09:34:12Z</time>
      </trkpt>
      <trkpt lat="48.37481" lon="2.5814">
        <ele>124.7</ele>
        <time>2025-11-16T09:34:14Z</time>
      </trkpt>
      <trkpt lat="48.37483" lon="2.58155">
        <ele>124.6</ele>
        <time>2025-11-16T09:34:16Z</time>
      </trkpt>
      <trkpt lat="48.37485" lon="2.58169">
        <ele>124.5</ele>
        <time>2025-11-16T09:34:18Z</time>
      </trkpt>
      <trkpt lat="48.37485" lon="2.58181">
        <ele>124.5</ele>
        <time>2025-11-16T09:34:20Z</time>
      </trkpt>
      <trkpt lat="48.37488" lon="2.58192">
        <ele>124.4</ele>
        <time>2025-11-16T09:34:22Z</time>
      </trkpt>
      <trkpt lat="48.3749" lon="2.58202">
        <ele>124.5</ele>
        <time>2025-11-16T09:34:24Z</time>
      </trkpt>
      <trkpt lat="48.37492" lon="2.58212">
        <ele>124.7</ele>
        <time>2025-11-16T09:34:26Z</time>
      </trkpt>
      <trkpt lat="48.37495" lon="2.58223">
        <ele>125</ele>
        <time>2025-11-16T09:34:28Z</time>
      </trkpt>
      <trkpt lat="48.37497" lon="2.58234">
        <ele>125</ele>
        <time>2025-11-16T09:34:30Z</time>
      </trkpt>
      <trkpt lat="48.375" lon="2.58248">
        <ele>125</ele>
        <time>2025-11-16T09:34:32Z</time>
      </trkpt>
      <trkpt lat="48.37504" lon="2.58266">
        <ele>124.9</ele>
        <time>2025-11-16T09:34:34Z</time>
      </trkpt>
      <trkpt lat="48.37506" lon="2.58282">
        <ele>124.8</ele>
        <time>2025-11-16T09:34:36Z</time>
      </trkpt>
      <trkpt lat="48.37507" lon="2.58299">
        <ele>124.9</ele>
        <time>2025-11-16T09:34:38Z</time>
      </trkpt>
      <trkpt lat="48.37509" lon="2.58316">
        <ele>125</ele>
        <time>2025-11-16T09:34:40Z</time>
      </trkpt>
      <trkpt lat="48.37513" lon="2.5833">
        <ele>125</ele>
        <time>2025-11-16T09:34:42Z</time>
      </trkpt>
      <trkpt lat="48.37515" lon="2.58343">
        <ele>125.2</ele>
        <time>2025-11-16T09:34:44Z</time>
      </trkpt>
      <trkpt lat="48.37517" lon="2.58356">
        <ele>125.3</ele>
        <time>2025-11-16T09:34:46Z</time>
      </trkpt>
      <trkpt lat="48.37519" lon="2.58368">
        <ele>125.5</ele>
        <time>2025-11-16T09:34:48Z</time>
      </trkpt>
      <trkpt lat="48.37521" lon="2.58379">
        <ele>125.7</ele>
        <time>2025-11-16T09:34:50Z</time>
      </trkpt>
      <trkpt lat="48.37522" lon="2.58389">
        <ele>126</ele>
        <time>2025-11-16T09:34:52Z</time>
      </trkpt>
      <trkpt lat="48.37524" lon="2.58399">
        <ele>126</ele>
        <time>2025-11-16T09:34:54Z</time>
      </trkpt>
      <trkpt lat="48.37525" lon="2.5841">
        <ele>126</ele>
        <time>2025-11-16T09:34:56Z</time>
      </trkpt>
      <trkpt lat="48.37525" lon="2.58422">
        <ele>126</ele>
        <time>2025-11-16T09:34:58Z</time>
      </trkpt>
      <trkpt lat="48.37526" lon="2.58435">
        <ele>126</ele>
        <time>2025-11-16T09:35:00Z</time>
      </trkpt>
      <trkpt lat="48.37525" lon="2.58449">
        <ele>126</ele>
        <time>2025-11-16T09:35:02Z</time>
      </trkpt>
      <trkpt lat="48.37525" lon="2.58464">
        <ele>126.1</ele>
        <time>2025-11-16T09:35:04Z</time>
      </trkpt>
      <trkpt lat="48.37524" lon="2.58479">
        <ele>126.1</ele>
        <time>2025-11-16T09:35:06Z</time>
      </trkpt>
      <trkpt lat="48.37524" lon="2.58492">
        <ele>126.1</ele>
        <time>2025-11-16T09:35:08Z</time>
      </trkpt>
      <trkpt lat="48.37525" lon="2.58506">
        <ele>126.3</ele>
        <time>2025-11-16T09:35:10Z</time>
      </trkpt>
      <trkpt lat="48.37525" lon="2.5852">
        <ele>126.8</ele>
        <time>2025-11-16T09:35:12Z</time>
      </trkpt>
      <trkpt lat="48.37525" lon="2.58534">
        <ele>127</ele>
        <time>2025-11-16T09:35:14Z</time>
      </trkpt>
      <trkpt lat="48.37525" lon="2.58547">
        <ele>127</ele>
        <time>2025-11-16T09:35:16Z</time>
      </trkpt>
      <trkpt lat="48.37525" lon="2.5856">
        <ele>127</ele>
        <time>2025-11-16T09:35:18Z</time>
      </trkpt>
      <trkpt lat="48.37525" lon="2.58574">
        <ele>127</ele>
        <time>2025-11-16T09:35:20Z</time>
      </trkpt>
      <trkpt lat="48.37526" lon="2.58587">
        <ele>127</ele>
        <time>2025-11-16T09:35:22Z</time>
      </trkpt>
      <trkpt lat="48.37525" lon="2.58601">
        <ele>127</ele>
        <time>2025-11-16T09:35:24Z</time>
      </trkpt>
      <trkpt lat="48.37526" lon="2.58614">
        <ele>127</ele>
        <time>2025-11-16T09:35:26Z</time>
      </trkpt>
      <trkpt lat="48.37525" lon="2.58628">
        <ele>127</ele>
        <time>2025-11-16T09:35:28Z</time>
      </trkpt>
      <trkpt lat="48.37526" lon="2.58642">
        <ele>127</ele>
        <time>2025-11-16T09:35:30Z</time>
      </trkpt>
      <trkpt lat="48.37528" lon="2.58654">
        <ele>127</ele>
        <time>2025-11-16T09:35:32Z</time>
      </trkpt>
      <trkpt lat="48.37528" lon="2.58668">
        <ele>127</ele>
        <time>2025-11-16T09:35:34Z</time>
      </trkpt>
      <trkpt lat="48.37528" lon="2.58681">
        <ele>127</ele>
        <time>2025-11-16T09:35:36Z</time>
      </trkpt>
      <trkpt lat="48.37528" lon="2.58696">
        <ele>127</ele>
        <time>2025-11-16T09:35:38Z</time>
      </trkpt>
      <trkpt lat="48.37528" lon="2.58711">
        <ele>127</ele>
        <time>2025-11-16T09:35:40Z</time>
      </trkpt>
      <trkpt lat="48.3753" lon="2.58725">
        <ele>127</ele>
        <time>2025-11-16T09:35:42Z</time>
      </trkpt>
      <trkpt lat="48.37529" lon="2.58739">
        <ele>127</ele>
        <time>2025-11-16T09:35:44Z</time>
      </trkpt>
      <trkpt lat="48.37529" lon="2.58754">
        <ele>127</ele>
        <time>2025-11-16T09:35:46Z</time>
      </trkpt>
      <trkpt lat="48.37529" lon="2.58769">
        <ele>127</ele>
        <time>2025-11-16T09:35:48Z</time>
      </trkpt>
      <trkpt lat="48.3753" lon="2.58782">
        <ele>127</ele>
        <time>2025-11-16T09:35:50Z</time>
      </trkpt>
      <trkpt lat="48.37529" lon="2.58797">
        <ele>127</ele>
        <time>2025-11-16T09:35:52Z</time>
      </trkpt>
      <trkpt lat="48.37529" lon="2.58812">
        <ele>127</ele>
        <time>2025-11-16T09:35:54Z</time>
      </trkpt>
      <trkpt lat="48.37529" lon="2.58827">
        <ele>127</ele>
        <time>2025-11-16T09:35:56Z</time>
      </trkpt>
      <trkpt lat="48.37529" lon="2.58842">
        <ele>127</ele>
        <time>2025-11-16T09:35:58Z</time>
      </trkpt>
      <trkpt lat="48.3753" lon="2.58859">
        <ele>127</ele>
        <time>2025-11-16T09:36:00Z</time>
      </trkpt>
      <trkpt lat="48.37529" lon="2.58874">
        <ele>127</ele>
        <time>2025-11-16T09:36:02Z</time>
      </trkpt>
      <trkpt lat="48.37529" lon="2.5889">
        <ele>127</ele>
        <time>2025-11-16T09:36:04Z</time>
      </trkpt>
      <trkpt lat="48.37529" lon="2.58906">
        <ele>127</ele>
        <time>2025-11-16T09:36:06Z</time>
      </trkpt>
      <trkpt lat="48.37529" lon="2.58922">
        <ele>126.9</ele>
        <time>2025-11-16T09:36:08Z</time>
      </trkpt>
      <trkpt lat="48.3753" lon="2.58938">
        <ele>126.9</ele>
        <time>2025-11-16T09:36:10Z</time>
      </trkpt>
      <trkpt lat="48.3753" lon="2.58952">
        <ele>126.9</ele>
        <time>2025-11-16T09:36:12Z</time>
      </trkpt>
      <trkpt lat="48.37531" lon="2.58968">
        <ele>126.9</ele>
        <time>2025-11-16T09:36:14Z</time>
      </trkpt>
      <trkpt lat="48.3753" lon="2.58984">
        <ele>126.9</ele>
        <time>2025-11-16T09:36:16Z</time>
      </trkpt>
      <trkpt lat="48.37531" lon="2.59">
        <ele>126.9</ele>
        <time>2025-11-16T09:36:18Z</time>
      </trkpt>
      <trkpt lat="48.37531" lon="2.59015">
        <ele>126.9</ele>
        <time>2025-11-16T09:36:20Z</time>
      </trkpt>
      <trkpt lat="48.37531" lon="2.59031">
        <ele>127</ele>
        <time>2025-11-16T09:36:22Z</time>
      </trkpt>
      <trkpt lat="48.3753" lon="2.59048">
        <ele>127</ele>
        <time>2025-11-16T09:36:24Z</time>
      </trkpt>
      <trkpt lat="48.37532" lon="2.59064">
        <ele>127</ele>
        <time>2025-11-16T09:36:26Z</time>
      </trkpt>
      <trkpt lat="48.37532" lon="2.59079">
        <ele>127</ele>
        <time>2025-11-16T09:36:28Z</time>
      </trkpt>
      <trkpt lat="48.37533" lon="2.59093">
        <ele>127</ele>
        <time>2025-11-16T09:36:30Z</time>
      </trkpt>
      <trkpt lat="48.37532" lon="2.59108">
        <ele>127</ele>
        <time>2025-11-16T09:36:32Z</time>
      </trkpt>
      <trkpt lat="48.37531" lon="2.59122">
        <ele>127</ele>
        <time>2025-11-16T09:36:34Z</time>
      </trkpt>
      <trkpt lat="48.37531" lon="2.59136">
        <ele>127</ele>
        <time>2025-11-16T09:36:36Z</time>
      </trkpt>
      <trkpt lat="48.37531" lon="2.5915">
        <ele>127</ele>
        <time>2025-11-16T09:36:38Z</time>
      </trkpt>
      <trkpt lat="48.3753" lon="2.59163">
        <ele>127</ele>
        <time>2025-11-16T09:36:40Z</time>
      </trkpt>
      <trkpt lat="48.37531" lon="2.59179">
        <ele>127</ele>
        <time>2025-11-16T09:36:42Z</time>
      </trkpt>
      <trkpt lat="48.37532" lon="2.59192">
        <ele>127</ele>
        <time>2025-11-16T09:36:44Z</time>
      </trkpt>
      <trkpt lat="48.37532" lon="2.59205">
        <ele>127</ele>
        <time>2025-11-16T09:36:46Z</time>
      </trkpt>
      <trkpt lat="48.37531" lon="2.59219">
        <ele>127</ele>
        <time>2025-11-16T09:36:48Z</time>
      </trkpt>
      <trkpt lat="48.3753" lon="2.59232">
        <ele>127</ele>
        <time>2025-11-16T09:36:50Z</time>
      </trkpt>
      <trkpt lat="48.37532" lon="2.59247">
        <ele>127</ele>
        <time>2025-11-16T09:36:52Z</time>
      </trkpt>
      <trkpt lat="48.37532" lon="2.59261">
        <ele>127</ele>
        <time>2025-11-16T09:36:54Z</time>
      </trkpt>
      <trkpt lat="48.37532" lon="2.59275">
        <ele>127</ele>
        <time>2025-11-16T09:36:56Z</time>
      </trkpt>
      <trkpt lat="48.37532" lon="2.59287">
        <ele>127</ele>
        <time>2025-11-16T09:36:58Z</time>
      </trkpt>
      <trkpt lat="48.37532" lon="2.59302">
        <ele>127</ele>
        <time>2025-11-16T09:37:00Z</time>
      </trkpt>
      <trkpt lat="48.37532" lon="2.59317">
        <ele>127</ele>
        <time>2025-11-16T09:37:02Z</time>
      </trkpt>
      <trkpt lat="48.37532" lon="2.59331">
        <ele>127</ele>
        <time>2025-11-16T09:37:04Z</time>
      </trkpt>
      <trkpt lat="48.37532" lon="2.59345">
        <ele>127</ele>
        <time>2025-11-16T09:37:06Z</time>
      </trkpt>
      <trkpt lat="48.37532" lon="2.59359">
        <ele>127</ele>
        <time>2025-11-16T09:37:08Z</time>
      </trkpt>
      <trkpt lat="48.37533" lon="2.59373">
        <ele>127</ele>
        <time>2025-11-16T09:37:10Z</time>
      </trkpt>
      <trkpt lat="48.37532" lon="2.59387">
        <ele>127</ele>
        <time>2025-11-16T09:37:12Z</time>
      </trkpt>
      <trkpt lat="48.37535" lon="2.594">
        <ele>127</ele>
        <time>2025-11-16T09:37:14Z</time>
      </trkpt>
      <trkpt lat="48.37535" lon="2.59412">
        <ele>127</ele>
        <time>2025-11-16T09:37:16Z</time>
      </trkpt>
      <trkpt lat="48.37535" lon="2.59426">
        <ele>127</ele>
        <time>2025-11-16T09:37:18Z</time>
      </trkpt>
      <trkpt lat="48.37536" lon="2.5944">
        <ele>127</ele>
        <time>2025-11-16T09:37:20Z</time>
      </trkpt>
      <trkpt lat="48.37537" lon="2.59454">
        <ele>127.2</ele>
        <time>2025-11-16T09:37:22Z</time>
      </trkpt>
      <trkpt lat="48.37542" lon="2.59466">
        <ele>127.4</ele>
        <time>2025-11-16T09:37:24Z</time>
      </trkpt>
      <trkpt lat="48.37548" lon="2.59478">
        <ele>127.3</ele>
        <time>2025-11-16T09:37:26Z</time>
      </trkpt>
      <trkpt lat="48.37555" lon="2.59486">
        <ele>127</ele>
        <time>2025-11-16T09:37:28Z</time>
      </trkpt>
      <trkpt lat="48.37562" lon="2.59496">
        <ele>127</ele>
        <time>2025-11-16T09:37:30Z</time>
      </trkpt>
      <trkpt lat="48.3757" lon="2.59506">
        <ele>127.1</ele>
        <time>2025-11-16T09:37:32Z</time>
      </trkpt>
      <trkpt lat="48.37577" lon="2.59515">
        <ele>127.1</ele>
        <time>2025-11-16T09:37:34Z</time>
      </trkpt>
      <trkpt lat="48.37585" lon="2.59525">
        <ele>127</ele>
        <time>2025-11-16T09:37:36Z</time>
      </trkpt>
      <trkpt lat="48.37593" lon="2.59534">
        <ele>127</ele>
        <time>2025-11-16T09:37:38Z</time>
      </trkpt>
      <trkpt lat="48.37599" lon="2.59545">
        <ele>127</ele>
        <time>2025-11-16T09:37:40Z</time>
      </trkpt>
      <trkpt lat="48.37606" lon="2.59553">
        <ele>127</ele>
        <time>2025-11-16T09:37:42Z</time>
      </trkpt>
      <trkpt lat="48.37614" lon="2.5956">
        <ele>127</ele>
        <time>2025-11-16T09:37:44Z</time>
      </trkpt>
      <trkpt lat="48.3762" lon="2.59568">
        <ele>127</ele>
        <time>2025-11-16T09:37:46Z</time>
      </trkpt>
      <trkpt lat="48.37627" lon="2.59581">
        <ele>127</ele>
        <time>2025-11-16T09:37:49Z</time>
      </trkpt>
      <trkpt lat="48.37634" lon="2.59588">
        <ele>126.9</ele>
        <time>2025-11-16T09:37:51Z</time>
      </trkpt>
      <trkpt lat="48.37641" lon="2.59598">
        <ele>126.4</ele>
        <time>2025-11-16T09:37:53Z</time>
      </trkpt>
      <trkpt lat="48.37648" lon="2.59607">
        <ele>126.1</ele>
        <time>2025-11-16T09:37:55Z</time>
      </trkpt>
      <trkpt lat="48.37655" lon="2.59615">
        <ele>126</ele>
        <time>2025-11-16T09:37:57Z</time>
      </trkpt>
      <trkpt lat="48.37663" lon="2.59624">
        <ele>126</ele>
        <time>2025-11-16T09:37:59Z</time>
      </trkpt>
      <trkpt lat="48.37669" lon="2.59631">
        <ele>126</ele>
        <time>2025-11-16T09:38:01Z</time>
      </trkpt>
      <trkpt lat="48.37676" lon="2.5964">
        <ele>126</ele>
        <time>2025-11-16T09:38:03Z</time>
      </trkpt>
      <trkpt lat="48.37681" lon="2.59648">
        <ele>126</ele>
        <time>2025-11-16T09:38:05Z</time>
      </trkpt>
      <trkpt lat="48.37688" lon="2.59658">
        <ele>126</ele>
        <time>2025-11-16T09:38:07Z</time>
      </trkpt>
      <trkpt lat="48.37694" lon="2.59667">
        <ele>126</ele>
        <time>2025-11-16T09:38:09Z</time>
      </trkpt>
      <trkpt lat="48.37702" lon="2.59674">
        <ele>126</ele>
        <time>2025-11-16T09:38:11Z</time>
      </trkpt>
      <trkpt lat="48.37708" lon="2.59682">
        <ele>126</ele>
        <time>2025-11-16T09:38:13Z</time>
      </trkpt>
      <trkpt lat="48.37715" lon="2.59688">
        <ele>126</ele>
        <time>2025-11-16T09:38:15Z</time>
      </trkpt>
      <trkpt lat="48.3772" lon="2.59694">
        <ele>126</ele>
        <time>2025-11-16T09:38:17Z</time>
      </trkpt>
      <trkpt lat="48.37725" lon="2.59701">
        <ele>126.2</ele>
        <time>2025-11-16T09:38:19Z</time>
      </trkpt>
      <trkpt lat="48.37732" lon="2.59708">
        <ele>126.3</ele>
        <time>2025-11-16T09:38:21Z</time>
      </trkpt>
      <trkpt lat="48.37739" lon="2.59716">
        <ele>126.3</ele>
        <time>2025-11-16T09:38:23Z</time>
      </trkpt>
      <trkpt lat="48.37744" lon="2.59723">
        <ele>126.2</ele>
        <time>2025-11-16T09:38:25Z</time>
      </trkpt>
      <trkpt lat="48.37749" lon="2.59729">
        <ele>126</ele>
        <time>2025-11-16T09:38:27Z</time>
      </trkpt>
      <trkpt lat="48.37755" lon="2.59737">
        <ele>126</ele>
        <time>2025-11-16T09:38:29Z</time>
      </trkpt>
      <trkpt lat="48.37761" lon="2.59745">
        <ele>126</ele>
        <time>2025-11-16T09:38:31Z</time>
      </trkpt>
      <trkpt lat="48.37768" lon="2.59753">
        <ele>126</ele>
        <time>2025-11-16T09:38:33Z</time>
      </trkpt>
      <trkpt lat="48.37774" lon="2.59761">
        <ele>126</ele>
        <time>2025-11-16T09:38:35Z</time>
      </trkpt>
      <trkpt lat="48.37782" lon="2.59768">
        <ele>126</ele>
        <time>2025-11-16T09:38:37Z</time>
      </trkpt>
      <trkpt lat="48.37788" lon="2.59777">
        <ele>126</ele>
        <time>2025-11-16T09:38:39Z</time>
      </trkpt>
      <trkpt lat="48.37795" lon="2.59784">
        <ele>126</ele>
        <time>2025-11-16T09:38:41Z</time>
      </trkpt>
      <trkpt lat="48.37801" lon="2.59791">
        <ele>126</ele>
        <time>2025-11-16T09:38:43Z</time>
      </trkpt>
      <trkpt lat="48.37806" lon="2.59798">
        <ele>126</ele>
        <time>2025-11-16T09:38:45Z</time>
      </trkpt>
      <trkpt lat="48.3781" lon="2.59805">
        <ele>126</ele>
        <time>2025-11-16T09:38:47Z</time>
      </trkpt>
      <trkpt lat="48.37816" lon="2.59812">
        <ele>126</ele>
        <time>2025-11-16T09:38:49Z</time>
      </trkpt>
      <trkpt lat="48.37821" lon="2.5982">
        <ele>126</ele>
        <time>2025-11-16T09:38:51Z</time>
      </trkpt>
      <trkpt lat="48.37826" lon="2.59828">
        <ele>126</ele>
        <time>2025-11-16T09:38:53Z</time>
      </trkpt>
      <trkpt lat="48.3783" lon="2.59834">
        <ele>126</ele>
        <time>2025-11-16T09:38:55Z</time>
      </trkpt>
      <trkpt lat="48.37836" lon="2.59838">
        <ele>126</ele>
        <time>2025-11-16T09:38:57Z</time>
      </trkpt>
      <trkpt lat="48.37841" lon="2.59842">
        <ele>126</ele>
        <time>2025-11-16T09:38:59Z</time>
      </trkpt>
      <trkpt lat="48.37846" lon="2.59837">
        <ele>126</ele>
        <time>2025-11-16T09:39:01Z</time>
      </trkpt>
      <trkpt lat="48.37851" lon="2.5983">
        <ele>126</ele>
        <time>2025-11-16T09:39:03Z</time>
      </trkpt>
      <trkpt lat="48.37856" lon="2.59821">
        <ele>126</ele>
        <time>2025-11-16T09:39:05Z</time>
      </trkpt>
      <trkpt lat="48.37861" lon="2.59812">
        <ele>126</ele>
        <time>2025-11-16T09:39:07Z</time>
      </trkpt>
      <trkpt lat="48.37868" lon="2.59805">
        <ele>126</ele>
        <time>2025-11-16T09:39:09Z</time>
      </trkpt>
      <trkpt lat="48.37873" lon="2.59794">
        <ele>125.8</ele>
        <time>2025-11-16T09:39:11Z</time>
      </trkpt>
      <trkpt lat="48.37878" lon="2.59785">
        <ele>125.6</ele>
        <time>2025-11-16T09:39:13Z</time>
      </trkpt>
      <trkpt lat="48.37884" lon="2.59776">
        <ele>125.2</ele>
        <time>2025-11-16T09:39:15Z</time>
      </trkpt>
      <trkpt lat="48.3789" lon="2.59767">
        <ele>125</ele>
        <time>2025-11-16T09:39:17Z</time>
      </trkpt>
      <trkpt lat="48.37895" lon="2.59757">
        <ele>125</ele>
        <time>2025-11-16T09:39:19Z</time>
      </trkpt>
      <trkpt lat="48.37901" lon="2.59747">
        <ele>125</ele>
        <time>2025-11-16T09:39:21Z</time>
      </trkpt>
      <trkpt lat="48.37906" lon="2.59737">
        <ele>125</ele>
        <time>2025-11-16T09:39:23Z</time>
      </trkpt>
      <trkpt lat="48.37911" lon="2.59729">
        <ele>125</ele>
        <time>2025-11-16T09:39:25Z</time>
      </trkpt>
      <trkpt lat="48.37917" lon="2.5972">
        <ele>125</ele>
        <time>2025-11-16T09:39:27Z</time>
      </trkpt>
      <trkpt lat="48.37923" lon="2.5971">
        <ele>125</ele>
        <time>2025-11-16T09:39:29Z</time>
      </trkpt>
      <trkpt lat="48.37929" lon="2.597">
        <ele>125</ele>
        <time>2025-11-16T09:39:31Z</time>
      </trkpt>
      <trkpt lat="48.37934" lon="2.5969">
        <ele>125</ele>
        <time>2025-11-16T09:39:33Z</time>
      </trkpt>
      <trkpt lat="48.3794" lon="2.59679">
        <ele>125</ele>
        <time>2025-11-16T09:39:35Z</time>
      </trkpt>
      <trkpt lat="48.37945" lon="2.5967">
        <ele>125</ele>
        <time>2025-11-16T09:39:37Z</time>
      </trkpt>
      <trkpt lat="48.3795" lon="2.5966">
        <ele>124.8</ele>
        <time>2025-11-16T09:39:39Z</time>
      </trkpt>
      <trkpt lat="48.37955" lon="2.5965">
        <ele>124.6</ele>
        <time>2025-11-16T09:39:41Z</time>
      </trkpt>
      <trkpt lat="48.37961" lon="2.59637">
        <ele>124.4</ele>
        <time>2025-11-16T09:39:43Z</time>
      </trkpt>
      <trkpt lat="48.37968" lon="2.59627">
        <ele>124.1</ele>
        <time>2025-11-16T09:39:45Z</time>
      </trkpt>
      <trkpt lat="48.37974" lon="2.59617">
        <ele>123.9</ele>
        <time>2025-11-16T09:39:47Z</time>
      </trkpt>
      <trkpt lat="48.37981" lon="2.59608">
        <ele>123.7</ele>
        <time>2025-11-16T09:39:49Z</time>
      </trkpt>
      <trkpt lat="48.37987" lon="2.59599">
        <ele>123.5</ele>
        <time>2025-11-16T09:39:51Z</time>
      </trkpt>
      <trkpt lat="48.37989" lon="2.59585">
        <ele>123.4</ele>
        <time>2025-11-16T09:39:53Z</time>
      </trkpt>
      <trkpt lat="48.37991" lon="2.59572">
        <ele>123.3</ele>
        <time>2025-11-16T09:39:55Z</time>
      </trkpt>
      <trkpt lat="48.37991" lon="2.59558">
        <ele>123.3</ele>
        <time>2025-11-16T09:39:57Z</time>
      </trkpt>
      <trkpt lat="48.37991" lon="2.59544">
        <ele>123.3</ele>
        <time>2025-11-16T09:39:59Z</time>
      </trkpt>
      <trkpt lat="48.37992" lon="2.59529">
        <ele>123.3</ele>
        <time>2025-11-16T09:40:01Z</time>
      </trkpt>
      <trkpt lat="48.37992" lon="2.59516">
        <ele>123.3</ele>
        <time>2025-11-16T09:40:03Z</time>
      </trkpt>
      <trkpt lat="48.37993" lon="2.59502">
        <ele>123.3</ele>
        <time>2025-11-16T09:40:05Z</time>
      </trkpt>
      <trkpt lat="48.37993" lon="2.59488">
        <ele>123.2</ele>
        <time>2025-11-16T09:40:07Z</time>
      </trkpt>
      <trkpt lat="48.37994" lon="2.59475">
        <ele>123.2</ele>
        <time>2025-11-16T09:40:09Z</time>
      </trkpt>
      <trkpt lat="48.37994" lon="2.59461">
        <ele>123.2</ele>
        <time>2025-11-16T09:40:11Z</time>
      </trkpt>
      <trkpt lat="48.37995" lon="2.59446">
        <ele>123.2</ele>
        <time>2025-11-16T09:40:13Z</time>
      </trkpt>
      <trkpt lat="48.37995" lon="2.59432">
        <ele>122.8</ele>
        <time>2025-11-16T09:40:15Z</time>
      </trkpt>
      <trkpt lat="48.37995" lon="2.59417">
        <ele>122.4</ele>
        <time>2025-11-16T09:40:17Z</time>
      </trkpt>
      <trkpt lat="48.37995" lon="2.59403">
        <ele>121.9</ele>
        <time>2025-11-16T09:40:19Z</time>
      </trkpt>
      <trkpt lat="48.37996" lon="2.5939">
        <ele>121.3</ele>
        <time>2025-11-16T09:40:21Z</time>
      </trkpt>
      <trkpt lat="48.37996" lon="2.59376">
        <ele>121.3</ele>
        <time>2025-11-16T09:40:23Z</time>
      </trkpt>
      <trkpt lat="48.37997" lon="2.59362">
        <ele>121.2</ele>
        <time>2025-11-16T09:40:25Z</time>
      </trkpt>
      <trkpt lat="48.37997" lon="2.59349">
        <ele>121.2</ele>
        <time>2025-11-16T09:40:27Z</time>
      </trkpt>
      <trkpt lat="48.37998" lon="2.59336">
        <ele>121.2</ele>
        <time>2025-11-16T09:40:29Z</time>
      </trkpt>
      <trkpt lat="48.37998" lon="2.59322">
        <ele>121.1</ele>
        <time>2025-11-16T09:40:31Z</time>
      </trkpt>
      <trkpt lat="48.37999" lon="2.5931">
        <ele>121.1</ele>
        <time>2025-11-16T09:40:33Z</time>
      </trkpt>
      <trkpt lat="48.37999" lon="2.59296">
        <ele>121.1</ele>
        <time>2025-11-16T09:40:35Z</time>
      </trkpt>
      <trkpt lat="48.37999" lon="2.59281">
        <ele>121.1</ele>
        <time>2025-11-16T09:40:37Z</time>
      </trkpt>
      <trkpt lat="48.38" lon="2.59271">
        <ele>120.8</ele>
        <time>2025-11-16T09:40:39Z</time>
      </trkpt>
      <trkpt lat="48.38001" lon="2.59257">
        <ele>120.2</ele>
        <time>2025-11-16T09:40:41Z</time>
      </trkpt>
      <trkpt lat="48.38001" lon="2.59243">
        <ele>120</ele>
        <time>2025-11-16T09:40:43Z</time>
      </trkpt>
      <trkpt lat="48.38002" lon="2.59229">
        <ele>119.9</ele>
        <time>2025-11-16T09:40:45Z</time>
      </trkpt>
      <trkpt lat="48.38001" lon="2.59213">
        <ele>119.9</ele>
        <time>2025-11-16T09:40:47Z</time>
      </trkpt>
      <trkpt lat="48.38002" lon="2.59198">
        <ele>119.9</ele>
        <time>2025-11-16T09:40:49Z</time>
      </trkpt>
      <trkpt lat="48.38002" lon="2.59183">
        <ele>119.5</ele>
        <time>2025-11-16T09:40:51Z</time>
      </trkpt>
      <trkpt lat="48.38002" lon="2.59169">
        <ele>119</ele>
        <time>2025-11-16T09:40:53Z</time>
      </trkpt>
      <trkpt lat="48.38002" lon="2.59153">
        <ele>118.9</ele>
        <time>2025-11-16T09:40:55Z</time>
      </trkpt>
      <trkpt lat="48.38003" lon="2.59138">
        <ele>118.9</ele>
        <time>2025-11-16T09:40:57Z</time>
      </trkpt>
      <trkpt lat="48.38003" lon="2.59124">
        <ele>118.9</ele>
        <time>2025-11-16T09:40:59Z</time>
      </trkpt>
      <trkpt lat="48.38003" lon="2.59111">
        <ele>118.9</ele>
        <time>2025-11-16T09:41:01Z</time>
      </trkpt>
      <trkpt lat="48.38003" lon="2.59096">
        <ele>118.4</ele>
        <time>2025-11-16T09:41:03Z</time>
      </trkpt>
      <trkpt lat="48.38003" lon="2.59082">
        <ele>118</ele>
        <time>2025-11-16T09:41:05Z</time>
      </trkpt>
      <trkpt lat="48.38005" lon="2.59068">
        <ele>118.4</ele>
        <time>2025-11-16T09:41:07Z</time>
      </trkpt>
      <trkpt lat="48.38007" lon="2.59056">
        <ele>118.8</ele>
        <time>2025-11-16T09:41:09Z</time>
      </trkpt>
      <trkpt lat="48.38009" lon="2.59042">
        <ele>118.7</ele>
        <time>2025-11-16T09:41:11Z</time>
      </trkpt>
      <trkpt lat="48.3801" lon="2.5903">
        <ele>118.7</ele>
        <time>2025-11-16T09:41:13Z</time>
      </trkpt>
      <trkpt lat="48.3801" lon="2.59019">
        <ele>118.8</ele>
        <time>2025-11-16T09:41:15Z</time>
      </trkpt>
      <trkpt lat="48.3801" lon="2.59007">
        <ele>118.9</ele>
        <time>2025-11-16T09:41:17Z</time>
      </trkpt>
      <trkpt lat="48.38012" lon="2.58996">
        <ele>119.1</ele>
        <time>2025-11-16T09:41:19Z</time>
      </trkpt>
      <trkpt lat="48.38013" lon="2.58986">
        <ele>119.3</ele>
        <time>2025-11-16T09:41:21Z</time>
      </trkpt>
      <trkpt lat="48.38015" lon="2.58977">
        <ele>119.4</ele>
        <time>2025-11-16T09:41:23Z</time>
      </trkpt>
      <trkpt lat="48.38017" lon="2.58969">
        <ele>119.4</ele>
        <time>2025-11-16T09:41:25Z</time>
      </trkpt>
      <trkpt lat="48.38018" lon="2.5896">
        <ele>119.3</ele>
        <time>2025-11-16T09:41:27Z</time>
      </trkpt>
      <trkpt lat="48.3802" lon="2.58949">
        <ele>119.3</ele>
        <time>2025-11-16T09:41:29Z</time>
      </trkpt>
      <trkpt lat="48.38021" lon="2.58939">
        <ele>119.2</ele>
        <time>2025-11-16T09:41:31Z</time>
      </trkpt>
      <trkpt lat="48.38023" lon="2.5893">
        <ele>119.2</ele>
        <time>2025-11-16T09:41:33Z</time>
      </trkpt>
      <trkpt lat="48.38025" lon="2.58918">
        <ele>119.1</ele>
        <time>2025-11-16T09:41:35Z</time>
      </trkpt>
      <trkpt lat="48.38025" lon="2.58906">
        <ele>119.1</ele>
        <time>2025-11-16T09:41:37Z</time>
      </trkpt>
      <trkpt lat="48.38026" lon="2.58898">
        <ele>119.1</ele>
        <time>2025-11-16T09:41:39Z</time>
      </trkpt>
      <trkpt lat="48.38027" lon="2.58887">
        <ele>119</ele>
        <time>2025-11-16T09:41:41Z</time>
      </trkpt>
      <trkpt lat="48.38028" lon="2.58878">
        <ele>119</ele>
        <time>2025-11-16T09:41:43Z</time>
      </trkpt>
      <trkpt lat="48.38029" lon="2.58867">
        <ele>119</ele>
        <time>2025-11-16T09:41:45Z</time>
      </trkpt>
      <trkpt lat="48.38029" lon="2.58854">
        <ele>119.2</ele>
        <time>2025-11-16T09:41:47Z</time>
      </trkpt>
      <trkpt lat="48.3803" lon="2.58841">
        <ele>119.6</ele>
        <time>2025-11-16T09:41:49Z</time>
      </trkpt>
      <trkpt lat="48.3803" lon="2.58828">
        <ele>119.9</ele>
        <time>2025-11-16T09:41:51Z</time>
      </trkpt>
      <trkpt lat="48.38029" lon="2.58816">
        <ele>119.9</ele>
        <time>2025-11-16T09:41:53Z</time>
      </trkpt>
      <trkpt lat="48.38029" lon="2.58804">
        <ele>119.9</ele>
        <time>2025-11-16T09:41:55Z</time>
      </trkpt>
      <trkpt lat="48.38029" lon="2.58795">
        <ele>119.9</ele>
        <time>2025-11-16T09:41:57Z</time>
      </trkpt>
      <trkpt lat="48.38029" lon="2.58784">
        <ele>119.9</ele>
        <time>2025-11-16T09:41:59Z</time>
      </trkpt>
      <trkpt lat="48.3803" lon="2.58774">
        <ele>120.1</ele>
        <time>2025-11-16T09:42:01Z</time>
      </trkpt>
      <trkpt lat="48.38029" lon="2.58763">
        <ele>120.5</ele>
        <time>2025-11-16T09:42:03Z</time>
      </trkpt>
      <trkpt lat="48.38029" lon="2.58751">
        <ele>120.9</ele>
        <time>2025-11-16T09:42:05Z</time>
      </trkpt>
      <trkpt lat="48.38029" lon="2.58738">
        <ele>120.9</ele>
        <time>2025-11-16T09:42:07Z</time>
      </trkpt>
      <trkpt lat="48.3803" lon="2.58726">
        <ele>120.9</ele>
        <time>2025-11-16T09:42:09Z</time>
      </trkpt>
      <trkpt lat="48.3803" lon="2.58712">
        <ele>120.9</ele>
        <time>2025-11-16T09:42:11Z</time>
      </trkpt>
      <trkpt lat="48.38029" lon="2.587">
        <ele>121</ele>
        <time>2025-11-16T09:42:13Z</time>
      </trkpt>
      <trkpt lat="48.38029" lon="2.58687">
        <ele>121</ele>
        <time>2025-11-16T09:42:15Z</time>
      </trkpt>
      <trkpt lat="48.38033" lon="2.58677">
        <ele>120.9</ele>
        <time>2025-11-16T09:42:17Z</time>
      </trkpt>
      <trkpt lat="48.38035" lon="2.58666">
        <ele>121</ele>
        <time>2025-11-16T09:42:19Z</time>
      </trkpt>
      <trkpt lat="48.38037" lon="2.58655">
        <ele>121.3</ele>
        <time>2025-11-16T09:42:21Z</time>
      </trkpt>
      <trkpt lat="48.38039" lon="2.58643">
        <ele>121.5</ele>
        <time>2025-11-16T09:42:23Z</time>
      </trkpt>
      <trkpt lat="48.3804" lon="2.58631">
        <ele>121.6</ele>
        <time>2025-11-16T09:42:25Z</time>
      </trkpt>
      <trkpt lat="48.38042" lon="2.58618">
        <ele>121.5</ele>
        <time>2025-11-16T09:42:27Z</time>
      </trkpt>
      <trkpt lat="48.38045" lon="2.58605">
        <ele>121.4</ele>
        <time>2025-11-16T09:42:29Z</time>
      </trkpt>
      <trkpt lat="48.38047" lon="2.58591">
        <ele>121.3</ele>
        <time>2025-11-16T09:42:31Z</time>
      </trkpt>
      <trkpt lat="48.3805" lon="2.58577">
        <ele>121.2</ele>
        <time>2025-11-16T09:42:33Z</time>
      </trkpt>
      <trkpt lat="48.38052" lon="2.58565">
        <ele>121.1</ele>
        <time>2025-11-16T09:42:35Z</time>
      </trkpt>
      <trkpt lat="48.38053" lon="2.58552">
        <ele>121.1</ele>
        <time>2025-11-16T09:42:37Z</time>
      </trkpt>
      <trkpt lat="48.38055" lon="2.5854">
        <ele>121</ele>
        <time>2025-11-16T09:42:39Z</time>
      </trkpt>
      <trkpt lat="48.38057" lon="2.58528">
        <ele>121</ele>
        <time>2025-11-16T09:42:41Z</time>
      </trkpt>
      <trkpt lat="48.38058" lon="2.58517">
        <ele>121.3</ele>
        <time>2025-11-16T09:42:43Z</time>
      </trkpt>
      <trkpt lat="48.3806" lon="2.58506">
        <ele>121.6</ele>
        <time>2025-11-16T09:42:45Z</time>
      </trkpt>
      <trkpt lat="48.38062" lon="2.58496">
        <ele>121.8</ele>
        <time>2025-11-16T09:42:47Z</time>
      </trkpt>
      <trkpt lat="48.38063" lon="2.58487">
        <ele>121.7</ele>
        <time>2025-11-16T09:42:49Z</time>
      </trkpt>
      <trkpt lat="48.38063" lon="2.58479">
        <ele>121.7</ele>
        <time>2025-11-16T09:42:51Z</time>
      </trkpt>
      <trkpt lat="48.38065" lon="2.5847">
        <ele>121.7</ele>
        <time>2025-11-16T09:42:53Z</time>
      </trkpt>
      <trkpt lat="48.38066" lon="2.5846">
        <ele>121.8</ele>
        <time>2025-11-16T09:42:55Z</time>
      </trkpt>
      <trkpt lat="48.38069" lon="2.5845">
        <ele>121.9</ele>
        <time>2025-11-16T09:42:57Z</time>
      </trkpt>
      <trkpt lat="48.3807" lon="2.58438">
        <ele>122</ele>
        <time>2025-11-16T09:42:59Z</time>
      </trkpt>
      <trkpt lat="48.38072" lon="2.58423">
        <ele>122</ele>
        <time>2025-11-16T09:43:01Z</time>
      </trkpt>
      <trkpt lat="48.38074" lon="2.58409">
        <ele>122</ele>
        <time>2025-11-16T09:43:03Z</time>
      </trkpt>
      <trkpt lat="48.38077" lon="2.58396">
        <ele>122</ele>
        <time>2025-11-16T09:43:05Z</time>
      </trkpt>
      <trkpt lat="48.3808" lon="2.58383">
        <ele>121.8</ele>
        <time>2025-11-16T09:43:07Z</time>
      </trkpt>
      <trkpt lat="48.38082" lon="2.58371">
        <ele>121.4</ele>
        <time>2025-11-16T09:43:09Z</time>
      </trkpt>
      <trkpt lat="48.38085" lon="2.58357">
        <ele>121.1</ele>
        <time>2025-11-16T09:43:11Z</time>
      </trkpt>
      <trkpt lat="48.38087" lon="2.58343">
        <ele>121.6</ele>
        <time>2025-11-16T09:43:13Z</time>
      </trkpt>
      <trkpt lat="48.3809" lon="2.58331">
        <ele>121.8</ele>
        <time>2025-11-16T09:43:15Z</time>
      </trkpt>
      <trkpt lat="48.38092" lon="2.58318">
        <ele>121.7</ele>
        <time>2025-11-16T09:43:17Z</time>
      </trkpt>
      <trkpt lat="48.38094" lon="2.58305">
        <ele>121.6</ele>
        <time>2025-11-16T09:43:19Z</time>
      </trkpt>
      <trkpt lat="48.38096" lon="2.58292">
        <ele>121.8</ele>
        <time>2025-11-16T09:43:21Z</time>
      </trkpt>
      <trkpt lat="48.38099" lon="2.58279">
        <ele>122</ele>
        <time>2025-11-16T09:43:23Z</time>
      </trkpt>
      <trkpt lat="48.38101" lon="2.58267">
        <ele>122</ele>
        <time>2025-11-16T09:43:25Z</time>
      </trkpt>
      <trkpt lat="48.38101" lon="2.58257">
        <ele>122</ele>
        <time>2025-11-16T09:43:27Z</time>
      </trkpt>
      <trkpt lat="48.38101" lon="2.58248">
        <ele>122</ele>
        <time>2025-11-16T09:43:29Z</time>
      </trkpt>
      <trkpt lat="48.38102" lon="2.58237">
        <ele>122</ele>
        <time>2025-11-16T09:43:31Z</time>
      </trkpt>
      <trkpt lat="48.38103" lon="2.58226">
        <ele>122</ele>
        <time>2025-11-16T09:43:33Z</time>
      </trkpt>
      <trkpt lat="48.38104" lon="2.58214">
        <ele>122.1</ele>
        <time>2025-11-16T09:43:35Z</time>
      </trkpt>
      <trkpt lat="48.38106" lon="2.58202">
        <ele>122.1</ele>
        <time>2025-11-16T09:43:37Z</time>
      </trkpt>
      <trkpt lat="48.38107" lon="2.5819">
        <ele>122.1</ele>
        <time>2025-11-16T09:43:39Z</time>
      </trkpt>
      <trkpt lat="48.38109" lon="2.58177">
        <ele>122.1</ele>
        <time>2025-11-16T09:43:41Z</time>
      </trkpt>
      <trkpt lat="48.38112" lon="2.58164">
        <ele>122</ele>
        <time>2025-11-16T09:43:43Z</time>
      </trkpt>
      <trkpt lat="48.38113" lon="2.58151">
        <ele>122</ele>
        <time>2025-11-16T09:43:45Z</time>
      </trkpt>
      <trkpt lat="48.38116" lon="2.58138">
        <ele>122</ele>
        <time>2025-11-16T09:43:47Z</time>
      </trkpt>
      <trkpt lat="48.38119" lon="2.58124">
        <ele>122</ele>
        <time>2025-11-16T09:43:49Z</time>
      </trkpt>
      <trkpt lat="48.3812" lon="2.5811">
        <ele>122</ele>
        <time>2025-11-16T09:43:51Z</time>
      </trkpt>
      <trkpt lat="48.38123" lon="2.58096">
        <ele>122</ele>
        <time>2025-11-16T09:43:53Z</time>
      </trkpt>
      <trkpt lat="48.38125" lon="2.58082">
        <ele>122</ele>
        <time>2025-11-16T09:43:55Z</time>
      </trkpt>
      <trkpt lat="48.38127" lon="2.58069">
        <ele>121.8</ele>
        <time>2025-11-16T09:43:57Z</time>
      </trkpt>
      <trkpt lat="48.38129" lon="2.58055">
        <ele>121.6</ele>
        <time>2025-11-16T09:43:59Z</time>
      </trkpt>
      <trkpt lat="48.3813" lon="2.58041">
        <ele>121.3</ele>
        <time>2025-11-16T09:44:01Z</time>
      </trkpt>
      <trkpt lat="48.38131" lon="2.58029">
        <ele>121</ele>
        <time>2025-11-16T09:44:03Z</time>
      </trkpt>
      <trkpt lat="48.38133" lon="2.58017">
        <ele>120.6</ele>
        <time>2025-11-16T09:44:05Z</time>
      </trkpt>
      <trkpt lat="48.38135" lon="2.58004">
        <ele>120.2</ele>
        <time>2025-11-16T09:44:07Z</time>
      </trkpt>
      <trkpt lat="48.38138" lon="2.57993">
        <ele>119.7</ele>
        <time>2025-11-16T09:44:09Z</time>
      </trkpt>
      <trkpt lat="48.3814" lon="2.57981">
        <ele>119.3</ele>
        <time>2025-11-16T09:44:11Z</time>
      </trkpt>
      <trkpt lat="48.38141" lon="2.57969">
        <ele>118.8</ele>
        <time>2025-11-16T09:44:13Z</time>
      </trkpt>
      <trkpt lat="48.38143" lon="2.57958">
        <ele>118.2</ele>
        <time>2025-11-16T09:44:15Z</time>
      </trkpt>
      <trkpt lat="48.38146" lon="2.57947">
        <ele>117.6</ele>
        <time>2025-11-16T09:44:17Z</time>
      </trkpt>
      <trkpt lat="48.38149" lon="2.57937">
        <ele>117</ele>
        <time>2025-11-16T09:44:19Z</time>
      </trkpt>
      <trkpt lat="48.38151" lon="2.57926">
        <ele>116.5</ele>
        <time>2025-11-16T09:44:21Z</time>
      </trkpt>
      <trkpt lat="48.38152" lon="2.57915">
        <ele>116</ele>
        <time>2025-11-16T09:44:23Z</time>
      </trkpt>
      <trkpt lat="48.38154" lon="2.57902">
        <ele>115.9</ele>
        <time>2025-11-16T09:44:25Z</time>
      </trkpt>
      <trkpt lat="48.38155" lon="2.5789">
        <ele>115.8</ele>
        <time>2025-11-16T09:44:27Z</time>
      </trkpt>
      <trkpt lat="48.38157" lon="2.57875">
        <ele>116.2</ele>
        <time>2025-11-16T09:44:29Z</time>
      </trkpt>
      <trkpt lat="48.38159" lon="2.57861">
        <ele>116.5</ele>
        <time>2025-11-16T09:44:31Z</time>
      </trkpt>
      <trkpt lat="48.38162" lon="2.57849">
        <ele>116.7</ele>
        <time>2025-11-16T09:44:33Z</time>
      </trkpt>
      <trkpt lat="48.38164" lon="2.57835">
        <ele>117</ele>
        <time>2025-11-16T09:44:35Z</time>
      </trkpt>
      <trkpt lat="48.38167" lon="2.57821">
        <ele>117</ele>
        <time>2025-11-16T09:44:37Z</time>
      </trkpt>
      <trkpt lat="48.38169" lon="2.57808">
        <ele>116.9</ele>
        <time>2025-11-16T09:44:39Z</time>
      </trkpt>
      <trkpt lat="48.3817" lon="2.57796">
        <ele>117.2</ele>
        <time>2025-11-16T09:44:41Z</time>
      </trkpt>
      <trkpt lat="48.38173" lon="2.57783">
        <ele>117.6</ele>
        <time>2025-11-16T09:44:43Z</time>
      </trkpt>
      <trkpt lat="48.38175" lon="2.5777">
        <ele>117.9</ele>
        <time>2025-11-16T09:44:45Z</time>
      </trkpt>
      <trkpt lat="48.38178" lon="2.57757">
        <ele>118</ele>
        <time>2025-11-16T09:44:47Z</time>
      </trkpt>
      <trkpt lat="48.38181" lon="2.57745">
        <ele>118.1</ele>
        <time>2025-11-16T09:44:49Z</time>
      </trkpt>
      <trkpt lat="48.38184" lon="2.57732">
        <ele>118.2</ele>
        <time>2025-11-16T09:44:51Z</time>
      </trkpt>
      <trkpt lat="48.38186" lon="2.5772">
        <ele>118.3</ele>
        <time>2025-11-16T09:44:53Z</time>
      </trkpt>
      <trkpt lat="48.38188" lon="2.57708">
        <ele>118.1</ele>
        <time>2025-11-16T09:44:55Z</time>
      </trkpt>
      <trkpt lat="48.38191" lon="2.57696">
        <ele>118</ele>
        <time>2025-11-16T09:44:57Z</time>
      </trkpt>
      <trkpt lat="48.38194" lon="2.57685">
        <ele>118</ele>
        <time>2025-11-16T09:44:59Z</time>
      </trkpt>
      <trkpt lat="48.38197" lon="2.57672">
        <ele>117.9</ele>
        <time>2025-11-16T09:45:01Z</time>
      </trkpt>
      <trkpt lat="48.382" lon="2.5766">
        <ele>117.6</ele>
        <time>2025-11-16T09:45:03Z</time>
      </trkpt>
      <trkpt lat="48.38201" lon="2.57644">
        <ele>117.1</ele>
        <time>2025-11-16T09:45:05Z</time>
      </trkpt>
      <trkpt lat="48.38203" lon="2.57631">
        <ele>117</ele>
        <time>2025-11-16T09:45:07Z</time>
      </trkpt>
      <trkpt lat="48.38204" lon="2.57616">
        <ele>117</ele>
        <time>2025-11-16T09:45:09Z</time>
      </trkpt>
      <trkpt lat="48.38203" lon="2.57603">
        <ele>116.8</ele>
        <time>2025-11-16T09:45:11Z</time>
      </trkpt>
      <trkpt lat="48.38202" lon="2.57588">
        <ele>116.4</ele>
        <time>2025-11-16T09:45:13Z</time>
      </trkpt>
      <trkpt lat="48.38202" lon="2.57571">
        <ele>116.3</ele>
        <time>2025-11-16T09:45:15Z</time>
      </trkpt>
      <trkpt lat="48.38204" lon="2.57557">
        <ele>116.3</ele>
        <time>2025-11-16T09:45:17Z</time>
      </trkpt>
      <trkpt lat="48.38205" lon="2.57542">
        <ele>115.9</ele>
        <time>2025-11-16T09:45:19Z</time>
      </trkpt>
      <trkpt lat="48.38207" lon="2.57525">
        <ele>115.3</ele>
        <time>2025-11-16T09:45:21Z</time>
      </trkpt>
      <trkpt lat="48.3821" lon="2.57511">
        <ele>115</ele>
        <time>2025-11-16T09:45:23Z</time>
      </trkpt>
      <trkpt lat="48.38216" lon="2.57497">
        <ele>114.7</ele>
        <time>2025-11-16T09:45:25Z</time>
      </trkpt>
      <trkpt lat="48.3822" lon="2.57484">
        <ele>114.4</ele>
        <time>2025-11-16T09:45:27Z</time>
      </trkpt>
      <trkpt lat="48.38223" lon="2.5747">
        <ele>114.1</ele>
        <time>2025-11-16T09:45:29Z</time>
      </trkpt>
      <trkpt lat="48.38226" lon="2.57456">
        <ele>114.2</ele>
        <time>2025-11-16T09:45:31Z</time>
      </trkpt>
      <trkpt lat="48.38228" lon="2.57444">
        <ele>114.2</ele>
        <time>2025-11-16T09:45:33Z</time>
      </trkpt>
      <trkpt lat="48.38229" lon="2.5743">
        <ele>113.7</ele>
        <time>2025-11-16T09:45:35Z</time>
      </trkpt>
      <trkpt lat="48.38228" lon="2.57418">
        <ele>113.3</ele>
        <time>2025-11-16T09:45:37Z</time>
      </trkpt>
      <trkpt lat="48.38228" lon="2.57403">
        <ele>112.7</ele>
        <time>2025-11-16T09:45:39Z</time>
      </trkpt>
      <trkpt lat="48.38227" lon="2.57389">
        <ele>112.2</ele>
        <time>2025-11-16T09:45:41Z</time>
      </trkpt>
      <trkpt lat="48.38227" lon="2.57374">
        <ele>111.2</ele>
        <time>2025-11-16T09:45:43Z</time>
      </trkpt>
      <trkpt lat="48.38228" lon="2.57361">
        <ele>110.4</ele>
        <time>2025-11-16T09:45:45Z</time>
      </trkpt>
      <trkpt lat="48.38227" lon="2.57347">
        <ele>110.3</ele>
        <time>2025-11-16T09:45:47Z</time>
      </trkpt>
      <trkpt lat="48.38227" lon="2.57332">
        <ele>110.2</ele>
        <time>2025-11-16T09:45:49Z</time>
      </trkpt>
      <trkpt lat="48.38228" lon="2.57317">
        <ele>110.2</ele>
        <time>2025-11-16T09:45:51Z</time>
      </trkpt>
      <trkpt lat="48.38232" lon="2.57303">
        <ele>110.3</ele>
        <time>2025-11-16T09:45:53Z</time>
      </trkpt>
      <trkpt lat="48.38234" lon="2.57289">
        <ele>110.1</ele>
        <time>2025-11-16T09:45:55Z</time>
      </trkpt>
      <trkpt lat="48.38236" lon="2.57274">
        <ele>109.9</ele>
        <time>2025-11-16T09:45:57Z</time>
      </trkpt>
      <trkpt lat="48.38235" lon="2.5726">
        <ele>109.6</ele>
        <time>2025-11-16T09:45:59Z</time>
      </trkpt>
      <trkpt lat="48.38231" lon="2.57247">
        <ele>109.2</ele>
        <time>2025-11-16T09:46:01Z</time>
      </trkpt>
      <trkpt lat="48.38228" lon="2.57234">
        <ele>108.8</ele>
        <time>2025-11-16T09:46:03Z</time>
      </trkpt>
      <trkpt lat="48.38227" lon="2.57217">
        <ele>108.1</ele>
        <time>2025-11-16T09:46:05Z</time>
      </trkpt>
      <trkpt lat="48.38227" lon="2.572">
        <ele>107.5</ele>
        <time>2025-11-16T09:46:07Z</time>
      </trkpt>
      <trkpt lat="48.38229" lon="2.57184">
        <ele>107.1</ele>
        <time>2025-11-16T09:46:09Z</time>
      </trkpt>
      <trkpt lat="48.3823" lon="2.57168">
        <ele>106.6</ele>
        <time>2025-11-16T09:46:11Z</time>
      </trkpt>
      <trkpt lat="48.3823" lon="2.57153">
        <ele>106.1</ele>
        <time>2025-11-16T09:46:13Z</time>
      </trkpt>
      <trkpt lat="48.38229" lon="2.57138">
        <ele>105.5</ele>
        <time>2025-11-16T09:46:15Z</time>
      </trkpt>
      <trkpt lat="48.38231" lon="2.57123">
        <ele>105.4</ele>
        <time>2025-11-16T09:46:17Z</time>
      </trkpt>
      <trkpt lat="48.38233" lon="2.57108">
        <ele>105.3</ele>
        <time>2025-11-16T09:46:19Z</time>
      </trkpt>
      <trkpt lat="48.38237" lon="2.57093">
        <ele>105.2</ele>
        <time>2025-11-16T09:46:21Z</time>
      </trkpt>
      <trkpt lat="48.38242" lon="2.5708">
        <ele>105.1</ele>
        <time>2025-11-16T09:46:23Z</time>
      </trkpt>
      <trkpt lat="48.38249" lon="2.57067">
        <ele>105</ele>
        <time>2025-11-16T09:46:25Z</time>
      </trkpt>
      <trkpt lat="48.38254" lon="2.57057">
        <ele>105.2</ele>
        <time>2025-11-16T09:46:27Z</time>
      </trkpt>
      <trkpt lat="48.38258" lon="2.57044">
        <ele>105.6</ele>
        <time>2025-11-16T09:46:29Z</time>
      </trkpt>
      <trkpt lat="48.38262" lon="2.57032">
        <ele>105.9</ele>
        <time>2025-11-16T09:46:31Z</time>
      </trkpt>
      <trkpt lat="48.38265" lon="2.57018">
        <ele>105.8</ele>
        <time>2025-11-16T09:46:33Z</time>
      </trkpt>
      <trkpt lat="48.38267" lon="2.57004">
        <ele>105.5</ele>
        <time>2025-11-16T09:46:35Z</time>
      </trkpt>
      <trkpt lat="48.38267" lon="2.56989">
        <ele>104.7</ele>
        <time>2025-11-16T09:46:37Z</time>
      </trkpt>
      <trkpt lat="48.38267" lon="2.56973">
        <ele>103.9</ele>
        <time>2025-11-16T09:46:39Z</time>
      </trkpt>
      <trkpt lat="48.38266" lon="2.5696">
        <ele>103.3</ele>
        <time>2025-11-16T09:46:41Z</time>
      </trkpt>
      <trkpt lat="48.38264" lon="2.56948">
        <ele>102.7</ele>
        <time>2025-11-16T09:46:43Z</time>
      </trkpt>
      <trkpt lat="48.38262" lon="2.56935">
        <ele>102.4</ele>
        <time>2025-11-16T09:46:45Z</time>
      </trkpt>
      <trkpt lat="48.38263" lon="2.56922">
        <ele>102.2</ele>
        <time>2025-11-16T09:46:47Z</time>
      </trkpt>
      <trkpt lat="48.38265" lon="2.56909">
        <ele>101.9</ele>
        <time>2025-11-16T09:46:49Z</time>
      </trkpt>
      <trkpt lat="48.38269" lon="2.56894">
        <ele>101.3</ele>
        <time>2025-11-16T09:46:51Z</time>
      </trkpt>
      <trkpt lat="48.38272" lon="2.56876">
        <ele>100.5</ele>
        <time>2025-11-16T09:46:53Z</time>
      </trkpt>
      <trkpt lat="48.38277" lon="2.5686">
        <ele>99.1</ele>
        <time>2025-11-16T09:46:55Z</time>
      </trkpt>
      <trkpt lat="48.38282" lon="2.56844">
        <ele>98.7</ele>
        <time>2025-11-16T09:46:57Z</time>
      </trkpt>
      <trkpt lat="48.38287" lon="2.56827">
        <ele>98.3</ele>
        <time>2025-11-16T09:46:59Z</time>
      </trkpt>
      <trkpt lat="48.38293" lon="2.56816">
        <ele>98.1</ele>
        <time>2025-11-16T09:47:01Z</time>
      </trkpt>
      <trkpt lat="48.383" lon="2.56804">
        <ele>97.7</ele>
        <time>2025-11-16T09:47:03Z</time>
      </trkpt>
      <trkpt lat="48.38305" lon="2.56793">
        <ele>97.1</ele>
        <time>2025-11-16T09:47:05Z</time>
      </trkpt>
      <trkpt lat="48.38309" lon="2.5678">
        <ele>96.4</ele>
        <time>2025-11-16T09:47:07Z</time>
      </trkpt>
      <trkpt lat="48.38317" lon="2.56768">
        <ele>96.2</ele>
        <time>2025-11-16T09:47:09Z</time>
      </trkpt>
      <trkpt lat="48.38325" lon="2.5676">
        <ele>95.9</ele>
        <time>2025-11-16T09:47:11Z</time>
      </trkpt>
      <trkpt lat="48.38333" lon="2.5675">
        <ele>95</ele>
        <time>2025-11-16T09:47:13Z</time>
      </trkpt>
      <trkpt lat="48.38339" lon="2.56739">
        <ele>94.5</ele>
        <time>2025-11-16T09:47:15Z</time>
      </trkpt>
      <trkpt lat="48.38349" lon="2.56729">
        <ele>93.8</ele>
        <time>2025-11-16T09:47:17Z</time>
      </trkpt>
      <trkpt lat="48.38358" lon="2.5672">
        <ele>93.1</ele>
        <time>2025-11-16T09:47:19Z</time>
      </trkpt>
      <trkpt lat="48.38368" lon="2.56711">
        <ele>93.7</ele>
        <time>2025-11-16T09:47:21Z</time>
      </trkpt>
      <trkpt lat="48.38378" lon="2.56697">
        <ele>93.8</ele>
        <time>2025-11-16T09:47:23Z</time>
      </trkpt>
      <trkpt lat="48.38384" lon="2.56683">
        <ele>93.1</ele>
        <time>2025-11-16T09:47:25Z</time>
      </trkpt>
      <trkpt lat="48.3839" lon="2.56667">
        <ele>92.2</ele>
        <time>2025-11-16T09:47:27Z</time>
      </trkpt>
      <trkpt lat="48.38396" lon="2.56652">
        <ele>91.4</ele>
        <time>2025-11-16T09:47:29Z</time>
      </trkpt>
      <trkpt lat="48.38403" lon="2.56638">
        <ele>90.5</ele>
        <time>2025-11-16T09:47:31Z</time>
      </trkpt>
      <trkpt lat="48.38409" lon="2.56623">
        <ele>89.9</ele>
        <time>2025-11-16T09:47:33Z</time>
      </trkpt>
      <trkpt lat="48.38418" lon="2.56612">
        <ele>89.2</ele>
        <time>2025-11-16T09:47:35Z</time>
      </trkpt>
      <trkpt lat="48.38428" lon="2.56601">
        <ele>89.2</ele>
        <time>2025-11-16T09:47:37Z</time>
      </trkpt>
      <trkpt lat="48.38436" lon="2.56588">
        <ele>88.4</ele>
        <time>2025-11-16T09:47:39Z</time>
      </trkpt>
      <trkpt lat="48.38442" lon="2.56575">
        <ele>87.7</ele>
        <time>2025-11-16T09:47:41Z</time>
      </trkpt>
      <trkpt lat="48.3845" lon="2.56562">
        <ele>88</ele>
        <time>2025-11-16T09:47:43Z</time>
      </trkpt>
      <trkpt lat="48.38457" lon="2.56547">
        <ele>88</ele>
        <time>2025-11-16T09:47:45Z</time>
      </trkpt>
      <trkpt lat="48.38464" lon="2.56535">
        <ele>87.9</ele>
        <time>2025-11-16T09:47:47Z</time>
      </trkpt>
      <trkpt lat="48.38472" lon="2.56522">
        <ele>87.6</ele>
        <time>2025-11-16T09:47:49Z</time>
      </trkpt>
      <trkpt lat="48.38477" lon="2.56507">
        <ele>87.4</ele>
        <time>2025-11-16T09:47:51Z</time>
      </trkpt>
      <trkpt lat="48.3848" lon="2.5649">
        <ele>86.6</ele>
        <time>2025-11-16T09:47:53Z</time>
      </trkpt>
      <trkpt lat="48.38486" lon="2.56476">
        <ele>85.9</ele>
        <time>2025-11-16T09:47:55Z</time>
      </trkpt>
      <trkpt lat="48.38495" lon="2.56468">
        <ele>85.5</ele>
        <time>2025-11-16T09:47:57Z</time>
      </trkpt>
      <trkpt lat="48.38503" lon="2.56457">
        <ele>84.7</ele>
        <time>2025-11-16T09:47:59Z</time>
      </trkpt>
      <trkpt lat="48.38511" lon="2.56454">
        <ele>84</ele>
        <time>2025-11-16T09:48:01Z</time>
      </trkpt>
      <trkpt lat="48.38518" lon="2.56455">
        <ele>83.4</ele>
        <time>2025-11-16T09:48:03Z</time>
      </trkpt>
      <trkpt lat="48.38527" lon="2.56455">
        <ele>82.8</ele>
        <time>2025-11-16T09:48:05Z</time>
      </trkpt>
      <trkpt lat="48.38535" lon="2.56451">
        <ele>81.9</ele>
        <time>2025-11-16T09:48:07Z</time>
      </trkpt>
      <trkpt lat="48.38546" lon="2.56447">
        <ele>80.9</ele>
        <time>2025-11-16T09:48:09Z</time>
      </trkpt>
      <trkpt lat="48.38555" lon="2.56445">
        <ele>80</ele>
        <time>2025-11-16T09:48:11Z</time>
      </trkpt>
      <trkpt lat="48.38564" lon="2.56442">
        <ele>79.7</ele>
        <time>2025-11-16T09:48:13Z</time>
      </trkpt>
      <trkpt lat="48.38576" lon="2.56436">
        <ele>79.3</ele>
        <time>2025-11-16T09:48:15Z</time>
      </trkpt>
      <trkpt lat="48.38587" lon="2.56433">
        <ele>78.9</ele>
        <time>2025-11-16T09:48:17Z</time>
      </trkpt>
      <trkpt lat="48.38597" lon="2.56429">
        <ele>78.5</ele>
        <time>2025-11-16T09:48:19Z</time>
      </trkpt>
      <trkpt lat="48.38606" lon="2.56426">
        <ele>78.2</ele>
        <time>2025-11-16T09:48:21Z</time>
      </trkpt>
      <trkpt lat="48.38616" lon="2.56421">
        <ele>78</ele>
        <time>2025-11-16T09:48:23Z</time>
      </trkpt>
      <trkpt lat="48.38625" lon="2.56417">
        <ele>78</ele>
        <time>2025-11-16T09:48:25Z</time>
      </trkpt>
      <trkpt lat="48.38633" lon="2.56412">
        <ele>78</ele>
        <time>2025-11-16T09:48:27Z</time>
      </trkpt>
      <trkpt lat="48.38639" lon="2.56405">
        <ele>78</ele>
        <time>2025-11-16T09:48:29Z</time>
      </trkpt>
      <trkpt lat="48.38647" lon="2.56395">
        <ele>77.7</ele>
        <time>2025-11-16T09:48:31Z</time>
      </trkpt>
      <trkpt lat="48.38654" lon="2.56384">
        <ele>77.5</ele>
        <time>2025-11-16T09:48:33Z</time>
      </trkpt>
      <trkpt lat="48.38662" lon="2.56373">
        <ele>77.2</ele>
        <time>2025-11-16T09:48:35Z</time>
      </trkpt>
      <trkpt lat="48.38667" lon="2.56361">
        <ele>77</ele>
        <time>2025-11-16T09:48:37Z</time>
      </trkpt>
      <trkpt lat="48.38672" lon="2.56351">
        <ele>77.3</ele>
        <time>2025-11-16T09:48:39Z</time>
      </trkpt>
      <trkpt lat="48.38678" lon="2.56347">
        <ele>77.3</ele>
        <time>2025-11-16T09:48:41Z</time>
      </trkpt>
      <trkpt lat="48.38685" lon="2.56343">
        <ele>77.2</ele>
        <time>2025-11-16T09:48:43Z</time>
      </trkpt>
      <trkpt lat="48.38692" lon="2.56337">
        <ele>77.1</ele>
        <time>2025-11-16T09:48:45Z</time>
      </trkpt>
      <trkpt lat="48.387" lon="2.56336">
        <ele>77</ele>
        <time>2025-11-16T09:48:47Z</time>
      </trkpt>
      <trkpt lat="48.38709" lon="2.5634">
        <ele>77</ele>
        <time>2025-11-16T09:48:49Z</time>
      </trkpt>
      <trkpt lat="48.38715" lon="2.56343">
        <ele>77</ele>
        <time>2025-11-16T09:48:51Z</time>
      </trkpt>
      <trkpt lat="48.38721" lon="2.56336">
        <ele>77</ele>
        <time>2025-11-16T09:48:53Z</time>
      </trkpt>
      <trkpt lat="48.38724" lon="2.56324">
        <ele>77</ele>
        <time>2025-11-16T09:48:55Z</time>
      </trkpt>
      <trkpt lat="48.38725" lon="2.56311">
        <ele>77</ele>
        <time>2025-11-16T09:48:57Z</time>
      </trkpt>
      <trkpt lat="48.38729" lon="2.563">
        <ele>77</ele>
        <time>2025-11-16T09:48:59Z</time>
      </trkpt>
      <trkpt lat="48.38732" lon="2.56289">
        <ele>77</ele>
        <time>2025-11-16T09:49:01Z</time>
      </trkpt>
      <trkpt lat="48.38735" lon="2.5628">
        <ele>77</ele>
        <time>2025-11-16T09:49:03Z</time>
      </trkpt>
      <trkpt lat="48.38737" lon="2.5627">
        <ele>77</ele>
        <time>2025-11-16T09:49:05Z</time>
      </trkpt>
      <trkpt lat="48.38741" lon="2.56263">
        <ele>77</ele>
        <time>2025-11-16T09:49:07Z</time>
      </trkpt>
      <trkpt lat="48.38744" lon="2.56257">
        <ele>77</ele>
        <time>2025-11-16T09:49:09Z</time>
      </trkpt>
      <trkpt lat="48.38748" lon="2.56247">
        <ele>77</ele>
        <time>2025-11-16T09:49:13Z</time>
      </trkpt>
      <trkpt lat="48.3875" lon="2.56241">
        <ele>77</ele>
        <time>2025-11-16T09:49:15Z</time>
      </trkpt>
      <trkpt lat="48.38752" lon="2.56228">
        <ele>77</ele>
        <time>2025-11-16T09:49:19Z</time>
      </trkpt>
      <trkpt lat="48.38758" lon="2.56224">
        <ele>77</ele>
        <time>2025-11-16T09:49:23Z</time>
      </trkpt>
      <trkpt lat="48.38762" lon="2.56223">
        <ele>77</ele>
        <time>2025-11-16T09:49:31Z</time>
      </trkpt>
      <trkpt lat="48.3877" lon="2.56225">
        <ele>77</ele>
        <time>2025-11-16T09:49:35Z</time>
      </trkpt>
      <trkpt lat="48.38775" lon="2.56224">
        <ele>77</ele>
        <time>2025-11-16T09:49:37Z</time>
      </trkpt>
      <trkpt lat="48.38781" lon="2.56221">
        <ele>77</ele>
        <time>2025-11-16T09:49:39Z</time>
      </trkpt>
      <trkpt lat="48.38788" lon="2.56221">
        <ele>77</ele>
        <time>2025-11-16T09:49:41Z</time>
      </trkpt>
      <trkpt lat="48.38795" lon="2.56222">
        <ele>77</ele>
        <time>2025-11-16T09:49:43Z</time>
      </trkpt>
      <trkpt lat="48.38803" lon="2.56226">
        <ele>77</ele>
        <time>2025-11-16T09:49:45Z</time>
      </trkpt>
      <trkpt lat="48.3881" lon="2.56231">
        <ele>77</ele>
        <time>2025-11-16T09:49:47Z</time>
      </trkpt>
      <trkpt lat="48.38817" lon="2.56239">
        <ele>77</ele>
        <time>2025-11-16T09:49:49Z</time>
      </trkpt>
      <trkpt lat="48.38822" lon="2.5625">
        <ele>77</ele>
        <time>2025-11-16T09:49:51Z</time>
      </trkpt>
      <trkpt lat="48.38829" lon="2.56261">
        <ele>77</ele>
        <time>2025-11-16T09:49:53Z</time>
      </trkpt>
      <trkpt lat="48.38835" lon="2.5627">
        <ele>77</ele>
        <time>2025-11-16T09:49:55Z</time>
      </trkpt>
      <trkpt lat="48.3884" lon="2.56279">
        <ele>77</ele>
        <time>2025-11-16T09:49:57Z</time>
      </trkpt>
      <trkpt lat="48.38846" lon="2.56286">
        <ele>77</ele>
        <time>2025-11-16T09:49:59Z</time>
      </trkpt>
      <trkpt lat="48.38851" lon="2.56292">
        <ele>77</ele>
        <time>2025-11-16T09:50:01Z</time>
      </trkpt>
      <trkpt lat="48.38858" lon="2.563">
        <ele>77</ele>
        <time>2025-11-16T09:50:03Z</time>
      </trkpt>
      <trkpt lat="48.38864" lon="2.56312">
        <ele>77</ele>
        <time>2025-11-16T09:50:05Z</time>
      </trkpt>
      <trkpt lat="48.38869" lon="2.56323">
        <ele>77</ele>
        <time>2025-11-16T09:50:07Z</time>
      </trkpt>
      <trkpt lat="48.38875" lon="2.56333">
        <ele>77</ele>
        <time>2025-11-16T09:50:09Z</time>
      </trkpt>
      <trkpt lat="48.38881" lon="2.56344">
        <ele>77.1</ele>
        <time>2025-11-16T09:50:11Z</time>
      </trkpt>
      <trkpt lat="48.38887" lon="2.56354">
        <ele>77.1</ele>
        <time>2025-11-16T09:50:13Z</time>
      </trkpt>
      <trkpt lat="48.38892" lon="2.56364">
        <ele>77</ele>
        <time>2025-11-16T09:50:15Z</time>
      </trkpt>
      <trkpt lat="48.38896" lon="2.56374">
        <ele>77</ele>
        <time>2025-11-16T09:50:17Z</time>
      </trkpt>
      <trkpt lat="48.38899" lon="2.56384">
        <ele>77</ele>
        <time>2025-11-16T09:50:19Z</time>
      </trkpt>
      <trkpt lat="48.38901" lon="2.56395">
        <ele>77</ele>
        <time>2025-11-16T09:50:21Z</time>
      </trkpt>
      <trkpt lat="48.38904" lon="2.56405">
        <ele>77</ele>
        <time>2025-11-16T09:50:23Z</time>
      </trkpt>
      <trkpt lat="48.38905" lon="2.56416">
        <ele>77</ele>
        <time>2025-11-16T09:50:25Z</time>
      </trkpt>
      <trkpt lat="48.38906" lon="2.56425">
        <ele>77</ele>
        <time>2025-11-16T09:50:27Z</time>
      </trkpt>
      <trkpt lat="48.38904" lon="2.56435">
        <ele>77</ele>
        <time>2025-11-16T09:50:29Z</time>
      </trkpt>
      <trkpt lat="48.38903" lon="2.56442">
        <ele>77</ele>
        <time>2025-11-16T09:50:31Z</time>
      </trkpt>
      <trkpt lat="48.38903" lon="2.56454">
        <ele>77</ele>
        <time>2025-11-16T09:50:33Z</time>
      </trkpt>
      <trkpt lat="48.38906" lon="2.56463">
        <ele>77</ele>
        <time>2025-11-16T09:50:35Z</time>
      </trkpt>
      <trkpt lat="48.38909" lon="2.56471">
        <ele>77</ele>
        <time>2025-11-16T09:50:37Z</time>
      </trkpt>
      <trkpt lat="48.38912" lon="2.56481">
        <ele>77</ele>
        <time>2025-11-16T09:50:39Z</time>
      </trkpt>
      <trkpt lat="48.38913" lon="2.5649">
        <ele>77</ele>
        <time>2025-11-16T09:50:41Z</time>
      </trkpt>
      <trkpt lat="48.38915" lon="2.565">
        <ele>77</ele>
        <time>2025-11-16T09:50:43Z</time>
      </trkpt>
      <trkpt lat="48.38915" lon="2.56509">
        <ele>77</ele>
        <time>2025-11-16T09:50:45Z</time>
      </trkpt>
      <trkpt lat="48.38917" lon="2.56519">
        <ele>77</ele>
        <time>2025-11-16T09:50:47Z</time>
      </trkpt>
      <trkpt lat="48.3892" lon="2.56529">
        <ele>77</ele>
        <time>2025-11-16T09:50:49Z</time>
      </trkpt>
      <trkpt lat="48.38922" lon="2.56537">
        <ele>77</ele>
        <time>2025-11-16T09:50:51Z</time>
      </trkpt>
      <trkpt lat="48.38925" lon="2.56545">
        <ele>77</ele>
        <time>2025-11-16T09:50:53Z</time>
      </trkpt>
      <trkpt lat="48.38926" lon="2.56554">
        <ele>77</ele>
        <time>2025-11-16T09:50:55Z</time>
      </trkpt>
      <trkpt lat="48.38929" lon="2.56564">
        <ele>77.1</ele>
        <time>2025-11-16T09:50:57Z</time>
      </trkpt>
      <trkpt lat="48.38931" lon="2.56573">
        <ele>77.3</ele>
        <time>2025-11-16T09:50:59Z</time>
      </trkpt>
      <trkpt lat="48.38934" lon="2.56583">
        <ele>77.6</ele>
        <time>2025-11-16T09:51:01Z</time>
      </trkpt>
      <trkpt lat="48.38935" lon="2.56592">
        <ele>77.8</ele>
        <time>2025-11-16T09:51:03Z</time>
      </trkpt>
      <trkpt lat="48.38937" lon="2.566">
        <ele>77.9</ele>
        <time>2025-11-16T09:51:05Z</time>
      </trkpt>
      <trkpt lat="48.3894" lon="2.56607">
        <ele>78</ele>
        <time>2025-11-16T09:51:07Z</time>
      </trkpt>
      <trkpt lat="48.38944" lon="2.56613">
        <ele>78.1</ele>
        <time>2025-11-16T09:51:09Z</time>
      </trkpt>
      <trkpt lat="48.38952" lon="2.56621">
        <ele>78.6</ele>
        <time>2025-11-16T09:51:13Z</time>
      </trkpt>
      <trkpt lat="48.38957" lon="2.56625">
        <ele>79</ele>
        <time>2025-11-16T09:51:15Z</time>
      </trkpt>
      <trkpt lat="48.38962" lon="2.56629">
        <ele>79.2</ele>
        <time>2025-11-16T09:51:17Z</time>
      </trkpt>
      <trkpt lat="48.38966" lon="2.56631">
        <ele>79.5</ele>
        <time>2025-11-16T09:51:19Z</time>
      </trkpt>
      <trkpt lat="48.3897" lon="2.56635">
        <ele>79.8</ele>
        <time>2025-11-16T09:51:21Z</time>
      </trkpt>
      <trkpt lat="48.38975" lon="2.5664">
        <ele>80.1</ele>
        <time>2025-11-16T09:51:23Z</time>
      </trkpt>
      <trkpt lat="48.3898" lon="2.56645">
        <ele>80.2</ele>
        <time>2025-11-16T09:51:25Z</time>
      </trkpt>
      <trkpt lat="48.38984" lon="2.5665">
        <ele>80.4</ele>
        <time>2025-11-16T09:51:27Z</time>
      </trkpt>
      <trkpt lat="48.38988" lon="2.56655">
        <ele>80.6</ele>
        <time>2025-11-16T09:51:29Z</time>
      </trkpt>
      <trkpt lat="48.38993" lon="2.5666">
        <ele>80.8</ele>
        <time>2025-11-16T09:51:31Z</time>
      </trkpt>
      <trkpt lat="48.38998" lon="2.56666">
        <ele>81</ele>
        <time>2025-11-16T09:51:33Z</time>
      </trkpt>
      <trkpt lat="48.39002" lon="2.56673">
        <ele>81.2</ele>
        <time>2025-11-16T09:51:35Z</time>
      </trkpt>
      <trkpt lat="48.39006" lon="2.5668">
        <ele>81.5</ele>
        <time>2025-11-16T09:51:37Z</time>
      </trkpt>
      <trkpt lat="48.3901" lon="2.56687">
        <ele>81.7</ele>
        <time>2025-11-16T09:51:39Z</time>
      </trkpt>
      <trkpt lat="48.39012" lon="2.56696">
        <ele>82.1</ele>
        <time>2025-11-16T09:51:41Z</time>
      </trkpt>
      <trkpt lat="48.39016" lon="2.56703">
        <ele>82.4</ele>
        <time>2025-11-16T09:51:43Z</time>
      </trkpt>
      <trkpt lat="48.3902" lon="2.56709">
        <ele>82.7</ele>
        <time>2025-11-16T09:51:45Z</time>
      </trkpt>
      <trkpt lat="48.39022" lon="2.56717">
        <ele>83</ele>
        <time>2025-11-16T09:51:47Z</time>
      </trkpt>
      <trkpt lat="48.39026" lon="2.56725">
        <ele>83.2</ele>
        <time>2025-11-16T09:51:49Z</time>
      </trkpt>
      <trkpt lat="48.3903" lon="2.56733">
        <ele>83.5</ele>
        <time>2025-11-16T09:51:51Z</time>
      </trkpt>
      <trkpt lat="48.39032" lon="2.56741">
        <ele>83.8</ele>
        <time>2025-11-16T09:51:53Z</time>
      </trkpt>
      <trkpt lat="48.39034" lon="2.56749">
        <ele>84.2</ele>
        <time>2025-11-16T09:51:55Z</time>
      </trkpt>
      <trkpt lat="48.39035" lon="2.56757">
        <ele>84.6</ele>
        <time>2025-11-16T09:51:57Z</time>
      </trkpt>
      <trkpt lat="48.39041" lon="2.56759">
        <ele>85</ele>
        <time>2025-11-16T09:52:01Z</time>
      </trkpt>
      <trkpt lat="48.39046" lon="2.56747">
        <ele>84.5</ele>
        <time>2025-11-16T09:52:05Z</time>
      </trkpt>
      <trkpt lat="48.39047" lon="2.56737">
        <ele>84.2</ele>
        <time>2025-11-16T09:52:07Z</time>
      </trkpt>
      <trkpt lat="48.39048" lon="2.56727">
        <ele>83.9</ele>
        <time>2025-11-16T09:52:09Z</time>
      </trkpt>
      <trkpt lat="48.3905" lon="2.56717">
        <ele>83.6</ele>
        <time>2025-11-16T09:52:11Z</time>
      </trkpt>
      <trkpt lat="48.39053" lon="2.56707">
        <ele>83.3</ele>
        <time>2025-11-16T09:52:13Z</time>
      </trkpt>
      <trkpt lat="48.39054" lon="2.56695">
        <ele>83</ele>
        <time>2025-11-16T09:52:15Z</time>
      </trkpt>
      <trkpt lat="48.39056" lon="2.56682">
        <ele>82.7</ele>
        <time>2025-11-16T09:52:17Z</time>
      </trkpt>
      <trkpt lat="48.3906" lon="2.5667">
        <ele>82.9</ele>
        <time>2025-11-16T09:52:19Z</time>
      </trkpt>
      <trkpt lat="48.39061" lon="2.56656">
        <ele>82.9</ele>
        <time>2025-11-16T09:52:21Z</time>
      </trkpt>
      <trkpt lat="48.39064" lon="2.56642">
        <ele>83.2</ele>
        <time>2025-11-16T09:52:23Z</time>
      </trkpt>
      <trkpt lat="48.39067" lon="2.56629">
        <ele>83.2</ele>
        <time>2025-11-16T09:52:25Z</time>
      </trkpt>
      <trkpt lat="48.3907" lon="2.56613">
        <ele>83.1</ele>
        <time>2025-11-16T09:52:27Z</time>
      </trkpt>
      <trkpt lat="48.39072" lon="2.56596">
        <ele>82.5</ele>
        <time>2025-11-16T09:52:29Z</time>
      </trkpt>
      <trkpt lat="48.39075" lon="2.56579">
        <ele>82</ele>
        <time>2025-11-16T09:52:31Z</time>
      </trkpt>
      <trkpt lat="48.39079" lon="2.56563">
        <ele>81.7</ele>
        <time>2025-11-16T09:52:33Z</time>
      </trkpt>
      <trkpt lat="48.39082" lon="2.56545">
        <ele>81.5</ele>
        <time>2025-11-16T09:52:35Z</time>
      </trkpt>
      <trkpt lat="48.39084" lon="2.56529">
        <ele>81.2</ele>
        <time>2025-11-16T09:52:37Z</time>
      </trkpt>
      <trkpt lat="48.39087" lon="2.56514">
        <ele>81.7</ele>
        <time>2025-11-16T09:52:39Z</time>
      </trkpt>
      <trkpt lat="48.39091" lon="2.56501">
        <ele>82.3</ele>
        <time>2025-11-16T09:52:41Z</time>
      </trkpt>
      <trkpt lat="48.39093" lon="2.56486">
        <ele>82.3</ele>
        <time>2025-11-16T09:52:43Z</time>
      </trkpt>
      <trkpt lat="48.39095" lon="2.56474">
        <ele>82.6</ele>
        <time>2025-11-16T09:52:45Z</time>
      </trkpt>
      <trkpt lat="48.39098" lon="2.56459">
        <ele>82.7</ele>
        <time>2025-11-16T09:52:47Z</time>
      </trkpt>
      <trkpt lat="48.391" lon="2.56444">
        <ele>82.4</ele>
        <time>2025-11-16T09:52:49Z</time>
      </trkpt>
      <trkpt lat="48.39103" lon="2.5643">
        <ele>82.4</ele>
        <time>2025-11-16T09:52:51Z</time>
      </trkpt>
      <trkpt lat="48.39106" lon="2.56416">
        <ele>82.3</ele>
        <time>2025-11-16T09:52:53Z</time>
      </trkpt>
      <trkpt lat="48.39109" lon="2.56402">
        <ele>82.2</ele>
        <time>2025-11-16T09:52:55Z</time>
      </trkpt>
      <trkpt lat="48.39113" lon="2.5639">
        <ele>82.3</ele>
        <time>2025-11-16T09:52:57Z</time>
      </trkpt>
      <trkpt lat="48.39115" lon="2.56377">
        <ele>82.6</ele>
        <time>2025-11-16T09:52:59Z</time>
      </trkpt>
      <trkpt lat="48.39118" lon="2.56365">
        <ele>82.9</ele>
        <time>2025-11-16T09:53:01Z</time>
      </trkpt>
      <trkpt lat="48.39121" lon="2.56354">
        <ele>83.1</ele>
        <time>2025-11-16T09:53:03Z</time>
      </trkpt>
      <trkpt lat="48.39123" lon="2.56341">
        <ele>83.4</ele>
        <time>2025-11-16T09:53:05Z</time>
      </trkpt>
      <trkpt lat="48.39125" lon="2.56329">
        <ele>83.6</ele>
        <time>2025-11-16T09:53:07Z</time>
      </trkpt>
      <trkpt lat="48.39127" lon="2.56318">
        <ele>84</ele>
        <time>2025-11-16T09:53:09Z</time>
      </trkpt>
      <trkpt lat="48.39129" lon="2.56306">
        <ele>84.4</ele>
        <time>2025-11-16T09:53:11Z</time>
      </trkpt>
      <trkpt lat="48.3913" lon="2.56297">
        <ele>84.4</ele>
        <time>2025-11-16T09:53:13Z</time>
      </trkpt>
      <trkpt lat="48.39132" lon="2.56287">
        <ele>84.4</ele>
        <time>2025-11-16T09:53:15Z</time>
      </trkpt>
      <trkpt lat="48.39134" lon="2.56278">
        <ele>84.4</ele>
        <time>2025-11-16T09:53:17Z</time>
      </trkpt>
      <trkpt lat="48.39135" lon="2.5627">
        <ele>84.4</ele>
        <time>2025-11-16T09:53:19Z</time>
      </trkpt>
      <trkpt lat="48.39136" lon="2.56263">
        <ele>84.3</ele>
        <time>2025-11-16T09:53:21Z</time>
      </trkpt>
      <trkpt lat="48.39138" lon="2.56253">
        <ele>84.1</ele>
        <time>2025-11-16T09:53:23Z</time>
      </trkpt>
      <trkpt lat="48.3914" lon="2.56244">
        <ele>84.1</ele>
        <time>2025-11-16T09:53:25Z</time>
      </trkpt>
      <trkpt lat="48.39141" lon="2.56231">
        <ele>84.2</ele>
        <time>2025-11-16T09:53:27Z</time>
      </trkpt>
      <trkpt lat="48.39143" lon="2.56218">
        <ele>84.3</ele>
        <time>2025-11-16T09:53:29Z</time>
      </trkpt>
      <trkpt lat="48.39145" lon="2.56203">
        <ele>84.4</ele>
        <time>2025-11-16T09:53:31Z</time>
      </trkpt>
      <trkpt lat="48.39145" lon="2.56187">
        <ele>84.2</ele>
        <time>2025-11-16T09:53:33Z</time>
      </trkpt>
      <trkpt lat="48.39146" lon="2.5617">
        <ele>83.6</ele>
        <time>2025-11-16T09:53:35Z</time>
      </trkpt>
      <trkpt lat="48.39148" lon="2.56154">
        <ele>83.2</ele>
        <time>2025-11-16T09:53:37Z</time>
      </trkpt>
      <trkpt lat="48.39149" lon="2.56136">
        <ele>82.5</ele>
        <time>2025-11-16T09:53:39Z</time>
      </trkpt>
      <trkpt lat="48.39149" lon="2.56119">
        <ele>81.3</ele>
        <time>2025-11-16T09:53:41Z</time>
      </trkpt>
      <trkpt lat="48.3915" lon="2.56102">
        <ele>80.4</ele>
        <time>2025-11-16T09:53:43Z</time>
      </trkpt>
      <trkpt lat="48.39153" lon="2.56086">
        <ele>80.1</ele>
        <time>2025-11-16T09:53:45Z</time>
      </trkpt>
      <trkpt lat="48.39155" lon="2.5607">
        <ele>79.7</ele>
        <time>2025-11-16T09:53:47Z</time>
      </trkpt>
      <trkpt lat="48.39156" lon="2.56052">
        <ele>79.1</ele>
        <time>2025-11-16T09:53:49Z</time>
      </trkpt>
      <trkpt lat="48.39156" lon="2.56033">
        <ele>78.4</ele>
        <time>2025-11-16T09:53:51Z</time>
      </trkpt>
      <trkpt lat="48.39158" lon="2.56013">
        <ele>78</ele>
        <time>2025-11-16T09:53:53Z</time>
      </trkpt>
      <trkpt lat="48.39158" lon="2.55994">
        <ele>77.6</ele>
        <time>2025-11-16T09:53:55Z</time>
      </trkpt>
      <trkpt lat="48.39158" lon="2.55974">
        <ele>77.4</ele>
        <time>2025-11-16T09:53:57Z</time>
      </trkpt>
      <trkpt lat="48.39161" lon="2.55955">
        <ele>77.6</ele>
        <time>2025-11-16T09:53:59Z</time>
      </trkpt>
      <trkpt lat="48.39163" lon="2.55935">
        <ele>77.4</ele>
        <time>2025-11-16T09:54:01Z</time>
      </trkpt>
      <trkpt lat="48.39164" lon="2.55916">
        <ele>76.9</ele>
        <time>2025-11-16T09:54:03Z</time>
      </trkpt>
      <trkpt lat="48.39166" lon="2.55899">
        <ele>76.3</ele>
        <time>2025-11-16T09:54:05Z</time>
      </trkpt>
      <trkpt lat="48.39168" lon="2.5588">
        <ele>76.1</ele>
        <time>2025-11-16T09:54:07Z</time>
      </trkpt>
      <trkpt lat="48.39172" lon="2.55862">
        <ele>76.4</ele>
        <time>2025-11-16T09:54:09Z</time>
      </trkpt>
      <trkpt lat="48.39177" lon="2.55845">
        <ele>76.1</ele>
        <time>2025-11-16T09:54:11Z</time>
      </trkpt>
      <trkpt lat="48.39182" lon="2.55828">
        <ele>76.1</ele>
        <time>2025-11-16T09:54:13Z</time>
      </trkpt>
      <trkpt lat="48.39187" lon="2.55814">
        <ele>76.5</ele>
        <time>2025-11-16T09:54:15Z</time>
      </trkpt>
      <trkpt lat="48.39192" lon="2.55799">
        <ele>76.6</ele>
        <time>2025-11-16T09:54:17Z</time>
      </trkpt>
      <trkpt lat="48.39195" lon="2.55782">
        <ele>76.2</ele>
        <time>2025-11-16T09:54:19Z</time>
      </trkpt>
      <trkpt lat="48.39198" lon="2.55766">
        <ele>75.6</ele>
        <time>2025-11-16T09:54:21Z</time>
      </trkpt>
      <trkpt lat="48.39203" lon="2.55751">
        <ele>75.3</ele>
        <time>2025-11-16T09:54:23Z</time>
      </trkpt>
      <trkpt lat="48.39208" lon="2.55734">
        <ele>75.1</ele>
        <time>2025-11-16T09:54:25Z</time>
      </trkpt>
      <trkpt lat="48.39211" lon="2.55719">
        <ele>74.7</ele>
        <time>2025-11-16T09:54:27Z</time>
      </trkpt>
      <trkpt lat="48.39215" lon="2.55704">
        <ele>74</ele>
        <time>2025-11-16T09:54:29Z</time>
      </trkpt>
      <trkpt lat="48.39218" lon="2.5569">
        <ele>73.7</ele>
        <time>2025-11-16T09:54:31Z</time>
      </trkpt>
      <trkpt lat="48.3922" lon="2.55675">
        <ele>73.8</ele>
        <time>2025-11-16T09:54:33Z</time>
      </trkpt>
      <trkpt lat="48.39223" lon="2.55661">
        <ele>73.9</ele>
        <time>2025-11-16T09:54:35Z</time>
      </trkpt>
      <trkpt lat="48.39227" lon="2.55646">
        <ele>73.6</ele>
        <time>2025-11-16T09:54:37Z</time>
      </trkpt>
      <trkpt lat="48.3923" lon="2.55631">
        <ele>73.5</ele>
        <time>2025-11-16T09:54:39Z</time>
      </trkpt>
      <trkpt lat="48.39233" lon="2.55618">
        <ele>73.5</ele>
        <time>2025-11-16T09:54:41Z</time>
      </trkpt>
      <trkpt lat="48.39237" lon="2.55606">
        <ele>73.5</ele>
        <time>2025-11-16T09:54:43Z</time>
      </trkpt>
      <trkpt lat="48.3924" lon="2.55593">
        <ele>73.6</ele>
        <time>2025-11-16T09:54:45Z</time>
      </trkpt>
      <trkpt lat="48.39245" lon="2.55582">
        <ele>73.8</ele>
        <time>2025-11-16T09:54:47Z</time>
      </trkpt>
      <trkpt lat="48.39248" lon="2.55573">
        <ele>73.5</ele>
        <time>2025-11-16T09:54:49Z</time>
      </trkpt>
      <trkpt lat="48.3925" lon="2.55563">
        <ele>73.3</ele>
        <time>2025-11-16T09:54:51Z</time>
      </trkpt>
      <trkpt lat="48.39255" lon="2.55555">
        <ele>73</ele>
        <time>2025-11-16T09:54:53Z</time>
      </trkpt>
      <trkpt lat="48.39262" lon="2.55549">
        <ele>72.9</ele>
        <time>2025-11-16T09:54:55Z</time>
      </trkpt>
      <trkpt lat="48.39268" lon="2.55543">
        <ele>72.8</ele>
        <time>2025-11-16T09:54:57Z</time>
      </trkpt>
      <trkpt lat="48.39274" lon="2.55539">
        <ele>72.9</ele>
        <time>2025-11-16T09:54:59Z</time>
      </trkpt>
      <trkpt lat="48.3928" lon="2.55534">
        <ele>73</ele>
        <time>2025-11-16T09:55:01Z</time>
      </trkpt>
      <trkpt lat="48.39285" lon="2.55531">
        <ele>73</ele>
        <time>2025-11-16T09:55:03Z</time>
      </trkpt>
      <trkpt lat="48.39286" lon="2.55522">
        <ele>72.8</ele>
        <time>2025-11-16T09:55:05Z</time>
      </trkpt>
      <trkpt lat="48.39286" lon="2.55514">
        <ele>72.5</ele>
        <time>2025-11-16T09:55:07Z</time>
      </trkpt>
      <trkpt lat="48.39286" lon="2.55504">
        <ele>72.2</ele>
        <time>2025-11-16T09:55:09Z</time>
      </trkpt>
      <trkpt lat="48.39283" lon="2.55495">
        <ele>72</ele>
        <time>2025-11-16T09:55:11Z</time>
      </trkpt>
      <trkpt lat="48.39277" lon="2.5549">
        <ele>72</ele>
        <time>2025-11-16T09:55:13Z</time>
      </trkpt>
      <trkpt lat="48.3927" lon="2.55485">
        <ele>72</ele>
        <time>2025-11-16T09:55:15Z</time>
      </trkpt>
      <trkpt lat="48.39262" lon="2.55484">
        <ele>72</ele>
        <time>2025-11-16T09:55:17Z</time>
      </trkpt>
      <trkpt lat="48.39254" lon="2.55484">
        <ele>72</ele>
        <time>2025-11-16T09:55:19Z</time>
      </trkpt>
      <trkpt lat="48.39246" lon="2.55484">
        <ele>72</ele>
        <time>2025-11-16T09:55:21Z</time>
      </trkpt>
      <trkpt lat="48.39238" lon="2.55486">
        <ele>72</ele>
        <time>2025-11-16T09:55:23Z</time>
      </trkpt>
      <trkpt lat="48.3923" lon="2.55487">
        <ele>72</ele>
        <time>2025-11-16T09:55:25Z</time>
      </trkpt>
      <trkpt lat="48.39222" lon="2.5549">
        <ele>72</ele>
        <time>2025-11-16T09:55:27Z</time>
      </trkpt>
      <trkpt lat="48.39215" lon="2.55491">
        <ele>72</ele>
        <time>2025-11-16T09:55:29Z</time>
      </trkpt>
      <trkpt lat="48.39208" lon="2.55492">
        <ele>72</ele>
        <time>2025-11-16T09:55:31Z</time>
      </trkpt>
      <trkpt lat="48.392" lon="2.55493">
        <ele>72</ele>
        <time>2025-11-16T09:55:33Z</time>
      </trkpt>
      <trkpt lat="48.39192" lon="2.55495">
        <ele>72</ele>
        <time>2025-11-16T09:55:35Z</time>
      </trkpt>
      <trkpt lat="48.39184" lon="2.55497">
        <ele>72</ele>
        <time>2025-11-16T09:55:37Z</time>
      </trkpt>
      <trkpt lat="48.39176" lon="2.555">
        <ele>72</ele>
        <time>2025-11-16T09:55:39Z</time>
      </trkpt>
      <trkpt lat="48.39168" lon="2.55502">
        <ele>72</ele>
        <time>2025-11-16T09:55:41Z</time>
      </trkpt>
      <trkpt lat="48.39159" lon="2.55504">
        <ele>72</ele>
        <time>2025-11-16T09:55:43Z</time>
      </trkpt>
      <trkpt lat="48.39151" lon="2.55507">
        <ele>72</ele>
        <time>2025-11-16T09:55:45Z</time>
      </trkpt>
      <trkpt lat="48.39143" lon="2.55509">
        <ele>72</ele>
        <time>2025-11-16T09:55:47Z</time>
      </trkpt>
      <trkpt lat="48.39137" lon="2.55511">
        <ele>72</ele>
        <time>2025-11-16T09:55:49Z</time>
      </trkpt>
      <trkpt lat="48.39131" lon="2.55512">
        <ele>72.2</ele>
        <time>2025-11-16T09:55:51Z</time>
      </trkpt>
      <trkpt lat="48.39124" lon="2.55515">
        <ele>72.2</ele>
        <time>2025-11-16T09:55:53Z</time>
      </trkpt>
      <trkpt lat="48.39117" lon="2.55517">
        <ele>72.3</ele>
        <time>2025-11-16T09:55:55Z</time>
      </trkpt>
      <trkpt lat="48.39108" lon="2.5552">
        <ele>72.3</ele>
        <time>2025-11-16T09:55:57Z</time>
      </trkpt>
      <trkpt lat="48.39101" lon="2.55523">
        <ele>72.2</ele>
        <time>2025-11-16T09:55:59Z</time>
      </trkpt>
      <trkpt lat="48.39094" lon="2.55526">
        <ele>72.1</ele>
        <time>2025-11-16T09:56:01Z</time>
      </trkpt>
      <trkpt lat="48.39087" lon="2.55529">
        <ele>72</ele>
        <time>2025-11-16T09:56:03Z</time>
      </trkpt>
      <trkpt lat="48.39081" lon="2.55532">
        <ele>72</ele>
        <time>2025-11-16T09:56:05Z</time>
      </trkpt>
      <trkpt lat="48.39075" lon="2.55535">
        <ele>72</ele>
        <time>2025-11-16T09:56:07Z</time>
      </trkpt>
      <trkpt lat="48.39069" lon="2.55538">
        <ele>72</ele>
        <time>2025-11-16T09:56:09Z</time>
      </trkpt>
      <trkpt lat="48.39065" lon="2.5554">
        <ele>72</ele>
        <time>2025-11-16T09:56:11Z</time>
      </trkpt>
      <trkpt lat="48.3906" lon="2.55543">
        <ele>72</ele>
        <time>2025-11-16T09:56:13Z</time>
      </trkpt>
      <trkpt lat="48.39054" lon="2.55547">
        <ele>72.1</ele>
        <time>2025-11-16T09:56:15Z</time>
      </trkpt>
      <trkpt lat="48.39048" lon="2.5555">
        <ele>72.3</ele>
        <time>2025-11-16T09:56:17Z</time>
      </trkpt>
      <trkpt lat="48.39043" lon="2.55553">
        <ele>72.5</ele>
        <time>2025-11-16T09:56:19Z</time>
      </trkpt>
      <trkpt lat="48.39037" lon="2.55556">
        <ele>72.7</ele>
        <time>2025-11-16T09:56:21Z</time>
      </trkpt>
      <trkpt lat="48.39032" lon="2.55559">
        <ele>72.9</ele>
        <time>2025-11-16T09:56:23Z</time>
      </trkpt>
      <trkpt lat="48.39027" lon="2.55561">
        <ele>73</ele>
        <time>2025-11-16T09:56:25Z</time>
      </trkpt>
      <trkpt lat="48.39021" lon="2.55563">
        <ele>73.2</ele>
        <time>2025-11-16T09:56:27Z</time>
      </trkpt>
      <trkpt lat="48.39016" lon="2.55562">
        <ele>73.4</ele>
        <time>2025-11-16T09:56:29Z</time>
      </trkpt>
      <trkpt lat="48.3901" lon="2.55558">
        <ele>73.6</ele>
        <time>2025-11-16T09:56:31Z</time>
      </trkpt>
      <trkpt lat="48.39007" lon="2.5555">
        <ele>73.7</ele>
        <time>2025-11-16T09:56:33Z</time>
      </trkpt>
      <trkpt lat="48.39005" lon="2.5554">
        <ele>73.8</ele>
        <time>2025-11-16T09:56:35Z</time>
      </trkpt>
      <trkpt lat="48.39002" lon="2.55529">
        <ele>73.9</ele>
        <time>2025-11-16T09:56:39Z</time>
      </trkpt>
      <trkpt lat="48.39001" lon="2.55522">
        <ele>74</ele>
        <time>2025-11-16T09:56:41Z</time>
      </trkpt>
      <trkpt lat="48.39" lon="2.55513">
        <ele>74</ele>
        <time>2025-11-16T09:56:43Z</time>
      </trkpt>
      <trkpt lat="48.38999" lon="2.55501">
        <ele>74.1</ele>
        <time>2025-11-16T09:56:45Z</time>
      </trkpt>
      <trkpt lat="48.38994" lon="2.55488">
        <ele>74.3</ele>
        <time>2025-11-16T09:56:47Z</time>
      </trkpt>
      <trkpt lat="48.38993" lon="2.55476">
        <ele>74.1</ele>
        <time>2025-11-16T09:56:49Z</time>
      </trkpt>
      <trkpt lat="48.38996" lon="2.55463">
        <ele>73.7</ele>
        <time>2025-11-16T09:56:51Z</time>
      </trkpt>
      <trkpt lat="48.39001" lon="2.55454">
        <ele>73.3</ele>
        <time>2025-11-16T09:56:53Z</time>
      </trkpt>
      <trkpt lat="48.39008" lon="2.55449">
        <ele>73.1</ele>
        <time>2025-11-16T09:56:55Z</time>
      </trkpt>
      <trkpt lat="48.39015" lon="2.55445">
        <ele>73</ele>
        <time>2025-11-16T09:56:57Z</time>
      </trkpt>
      <trkpt lat="48.39022" lon="2.55441">
        <ele>73</ele>
        <time>2025-11-16T09:56:59Z</time>
      </trkpt>
      <trkpt lat="48.3903" lon="2.55437">
        <ele>73</ele>
        <time>2025-11-16T09:57:01Z</time>
      </trkpt>
      <trkpt lat="48.39038" lon="2.55436">
        <ele>73.1</ele>
        <time>2025-11-16T09:57:03Z</time>
      </trkpt>
      <trkpt lat="48.39046" lon="2.55438">
        <ele>73.2</ele>
        <time>2025-11-16T09:57:05Z</time>
      </trkpt>
      <trkpt lat="48.39054" lon="2.55438">
        <ele>73.2</ele>
        <time>2025-11-16T09:57:07Z</time>
      </trkpt>
      <trkpt lat="48.39062" lon="2.55434">
        <ele>73.4</ele>
        <time>2025-11-16T09:57:09Z</time>
      </trkpt>
      <trkpt lat="48.3907" lon="2.55431">
        <ele>73.5</ele>
        <time>2025-11-16T09:57:11Z</time>
      </trkpt>
      <trkpt lat="48.39078" lon="2.55427">
        <ele>73.6</ele>
        <time>2025-11-16T09:57:13Z</time>
      </trkpt>
      <trkpt lat="48.39087" lon="2.55425">
        <ele>73.7</ele>
        <time>2025-11-16T09:57:15Z</time>
      </trkpt>
      <trkpt lat="48.39097" lon="2.55425">
        <ele>73.7</ele>
        <time>2025-11-16T09:57:17Z</time>
      </trkpt>
      <trkpt lat="48.39105" lon="2.55422">
        <ele>73.8</ele>
        <time>2025-11-16T09:57:19Z</time>
      </trkpt>
      <trkpt lat="48.39114" lon="2.55419">
        <ele>73.8</ele>
        <time>2025-11-16T09:57:21Z</time>
      </trkpt>
      <trkpt lat="48.39122" lon="2.55416">
        <ele>73.6</ele>
        <time>2025-11-16T09:57:23Z</time>
      </trkpt>
      <trkpt lat="48.39131" lon="2.55413">
        <ele>73.4</ele>
        <time>2025-11-16T09:57:25Z</time>
      </trkpt>
      <trkpt lat="48.39139" lon="2.5541">
        <ele>73.2</ele>
        <time>2025-11-16T09:57:27Z</time>
      </trkpt>
      <trkpt lat="48.39148" lon="2.55409">
        <ele>73</ele>
        <time>2025-11-16T09:57:29Z</time>
      </trkpt>
      <trkpt lat="48.39157" lon="2.55406">
        <ele>72.7</ele>
        <time>2025-11-16T09:57:31Z</time>
      </trkpt>
      <trkpt lat="48.39166" lon="2.55405">
        <ele>72.5</ele>
        <time>2025-11-16T09:57:33Z</time>
      </trkpt>
      <trkpt lat="48.39175" lon="2.55404">
        <ele>72.3</ele>
        <time>2025-11-16T09:57:35Z</time>
      </trkpt>
      <trkpt lat="48.39185" lon="2.55404">
        <ele>72.2</ele>
        <time>2025-11-16T09:57:37Z</time>
      </trkpt>
      <trkpt lat="48.39194" lon="2.55402">
        <ele>72</ele>
        <time>2025-11-16T09:57:39Z</time>
      </trkpt>
      <trkpt lat="48.39203" lon="2.55402">
        <ele>71.7</ele>
        <time>2025-11-16T09:57:41Z</time>
      </trkpt>
      <trkpt lat="48.39213" lon="2.55399">
        <ele>71.3</ele>
        <time>2025-11-16T09:57:43Z</time>
      </trkpt>
      <trkpt lat="48.39222" lon="2.55398">
        <ele>71</ele>
        <time>2025-11-16T09:57:45Z</time>
      </trkpt>
      <trkpt lat="48.39231" lon="2.55396">
        <ele>71</ele>
        <time>2025-11-16T09:57:47Z</time>
      </trkpt>
      <trkpt lat="48.3924" lon="2.55393">
        <ele>71</ele>
        <time>2025-11-16T09:57:49Z</time>
      </trkpt>
      <trkpt lat="48.39248" lon="2.55389">
        <ele>71</ele>
        <time>2025-11-16T09:57:51Z</time>
      </trkpt>
      <trkpt lat="48.39257" lon="2.55389">
        <ele>71</ele>
        <time>2025-11-16T09:57:53Z</time>
      </trkpt>
      <trkpt lat="48.39265" lon="2.55388">
        <ele>71</ele>
        <time>2025-11-16T09:57:55Z</time>
      </trkpt>
      <trkpt lat="48.39273" lon="2.55388">
        <ele>71</ele>
        <time>2025-11-16T09:57:57Z</time>
      </trkpt>
      <trkpt lat="48.39283" lon="2.55386">
        <ele>71.2</ele>
        <time>2025-11-16T09:57:59Z</time>
      </trkpt>
      <trkpt lat="48.39292" lon="2.55385">
        <ele>71.5</ele>
        <time>2025-11-16T09:58:01Z</time>
      </trkpt>
      <trkpt lat="48.39301" lon="2.55383">
        <ele>71.8</ele>
        <time>2025-11-16T09:58:03Z</time>
      </trkpt>
      <trkpt lat="48.39311" lon="2.55383">
        <ele>72</ele>
        <time>2025-11-16T09:58:05Z</time>
      </trkpt>
      <trkpt lat="48.39319" lon="2.55381">
        <ele>72</ele>
        <time>2025-11-16T09:58:07Z</time>
      </trkpt>
      <trkpt lat="48.39327" lon="2.55379">
        <ele>72</ele>
        <time>2025-11-16T09:58:09Z</time>
      </trkpt>
      <trkpt lat="48.39334" lon="2.55378">
        <ele>72</ele>
        <time>2025-11-16T09:58:11Z</time>
      </trkpt>
      <trkpt lat="48.39342" lon="2.55376">
        <ele>72</ele>
        <time>2025-11-16T09:58:13Z</time>
      </trkpt>
      <trkpt lat="48.39351" lon="2.55373">
        <ele>72</ele>
        <time>2025-11-16T09:58:15Z</time>
      </trkpt>
      <trkpt lat="48.39358" lon="2.55372">
        <ele>72</ele>
        <time>2025-11-16T09:58:17Z</time>
      </trkpt>
      <trkpt lat="48.39364" lon="2.55372">
        <ele>72</ele>
        <time>2025-11-16T09:58:19Z</time>
      </trkpt>
      <trkpt lat="48.39369" lon="2.55372">
        <ele>72</ele>
        <time>2025-11-16T09:58:21Z</time>
      </trkpt>
      <trkpt lat="48.39375" lon="2.55373">
        <ele>72</ele>
        <time>2025-11-16T09:58:23Z</time>
      </trkpt>
      <trkpt lat="48.39381" lon="2.55374">
        <ele>72</ele>
        <time>2025-11-16T09:58:25Z</time>
      </trkpt>
      <trkpt lat="48.39386" lon="2.55373">
        <ele>72</ele>
        <time>2025-11-16T09:58:27Z</time>
      </trkpt>
      <trkpt lat="48.39394" lon="2.55367">
        <ele>72</ele>
        <time>2025-11-16T09:58:29Z</time>
      </trkpt>
      <trkpt lat="48.39402" lon="2.5536">
        <ele>72</ele>
        <time>2025-11-16T09:58:31Z</time>
      </trkpt>
      <trkpt lat="48.39409" lon="2.55347">
        <ele>72.1</ele>
        <time>2025-11-16T09:58:33Z</time>
      </trkpt>
      <trkpt lat="48.39414" lon="2.55333">
        <ele>72.1</ele>
        <time>2025-11-16T09:58:35Z</time>
      </trkpt>
      <trkpt lat="48.39419" lon="2.55321">
        <ele>72.4</ele>
        <time>2025-11-16T09:58:37Z</time>
      </trkpt>
      <trkpt lat="48.39423" lon="2.55307">
        <ele>72.7</ele>
        <time>2025-11-16T09:58:39Z</time>
      </trkpt>
      <trkpt lat="48.39427" lon="2.55295">
        <ele>72.8</ele>
        <time>2025-11-16T09:58:41Z</time>
      </trkpt>
      <trkpt lat="48.39431" lon="2.55284">
        <ele>72.9</ele>
        <time>2025-11-16T09:58:43Z</time>
      </trkpt>
      <trkpt lat="48.39437" lon="2.55274">
        <ele>73</ele>
        <time>2025-11-16T09:58:45Z</time>
      </trkpt>
      <trkpt lat="48.39441" lon="2.55263">
        <ele>73.1</ele>
        <time>2025-11-16T09:58:47Z</time>
      </trkpt>
      <trkpt lat="48.39438" lon="2.55253">
        <ele>73.2</ele>
        <time>2025-11-16T09:58:49Z</time>
      </trkpt>
      <trkpt lat="48.3943" lon="2.55248">
        <ele>73.5</ele>
        <time>2025-11-16T09:58:51Z</time>
      </trkpt>
      <trkpt lat="48.39423" lon="2.55243">
        <ele>73.8</ele>
        <time>2025-11-16T09:58:53Z</time>
      </trkpt>
      <trkpt lat="48.39417" lon="2.55239">
        <ele>74</ele>
        <time>2025-11-16T09:58:55Z</time>
      </trkpt>
      <trkpt lat="48.39411" lon="2.55234">
        <ele>74</ele>
        <time>2025-11-16T09:58:57Z</time>
      </trkpt>
      <trkpt lat="48.39405" lon="2.55231">
        <ele>74</ele>
        <time>2025-11-16T09:58:59Z</time>
      </trkpt>
      <trkpt lat="48.39399" lon="2.55228">
        <ele>74</ele>
        <time>2025-11-16T09:59:01Z</time>
      </trkpt>
      <trkpt lat="48.39394" lon="2.55227">
        <ele>74</ele>
        <time>2025-11-16T09:59:03Z</time>
      </trkpt>
      <trkpt lat="48.39389" lon="2.55224">
        <ele>74</ele>
        <time>2025-11-16T09:59:05Z</time>
      </trkpt>
      <trkpt lat="48.39382" lon="2.55219">
        <ele>74</ele>
        <time>2025-11-16T09:59:07Z</time>
      </trkpt>
      <trkpt lat="48.39375" lon="2.55214">
        <ele>74</ele>
        <time>2025-11-16T09:59:09Z</time>
      </trkpt>
      <trkpt lat="48.39368" lon="2.55208">
        <ele>74</ele>
        <time>2025-11-16T09:59:11Z</time>
      </trkpt>
      <trkpt lat="48.39361" lon="2.55201">
        <ele>74</ele>
        <time>2025-11-16T09:59:13Z</time>
      </trkpt>
      <trkpt lat="48.39355" lon="2.55192">
        <ele>74</ele>
        <time>2025-11-16T09:59:15Z</time>
      </trkpt>
      <trkpt lat="48.3935" lon="2.55183">
        <ele>74</ele>
        <time>2025-11-16T09:59:17Z</time>
      </trkpt>
      <trkpt lat="48.39344" lon="2.55174">
        <ele>74</ele>
        <time>2025-11-16T09:59:19Z</time>
      </trkpt>
      <trkpt lat="48.39338" lon="2.55166">
        <ele>74</ele>
        <time>2025-11-16T09:59:21Z</time>
      </trkpt>
      <trkpt lat="48.39332" lon="2.55158">
        <ele>74.3</ele>
        <time>2025-11-16T09:59:23Z</time>
      </trkpt>
      <trkpt lat="48.39326" lon="2.55151">
        <ele>74.5</ele>
        <time>2025-11-16T09:59:25Z</time>
      </trkpt>
      <trkpt lat="48.39319" lon="2.55144">
        <ele>74.8</ele>
        <time>2025-11-16T09:59:27Z</time>
      </trkpt>
      <trkpt lat="48.39313" lon="2.55138">
        <ele>75</ele>
        <time>2025-11-16T09:59:29Z</time>
      </trkpt>
      <trkpt lat="48.39307" lon="2.55133">
        <ele>75</ele>
        <time>2025-11-16T09:59:31Z</time>
      </trkpt>
      <trkpt lat="48.39301" lon="2.55126">
        <ele>75</ele>
        <time>2025-11-16T09:59:33Z</time>
      </trkpt>
      <trkpt lat="48.39296" lon="2.55117">
        <ele>75</ele>
        <time>2025-11-16T09:59:35Z</time>
      </trkpt>
      <trkpt lat="48.39292" lon="2.55108">
        <ele>75.1</ele>
        <time>2025-11-16T09:59:37Z</time>
      </trkpt>
      <trkpt lat="48.39291" lon="2.55098">
        <ele>75.3</ele>
        <time>2025-11-16T09:59:39Z</time>
      </trkpt>
      <trkpt lat="48.39289" lon="2.55087">
        <ele>75.5</ele>
        <time>2025-11-16T09:59:41Z</time>
      </trkpt>
      <trkpt lat="48.39288" lon="2.55077">
        <ele>75.6</ele>
        <time>2025-11-16T09:59:43Z</time>
      </trkpt>
      <trkpt lat="48.39287" lon="2.55067">
        <ele>75.7</ele>
        <time>2025-11-16T09:59:45Z</time>
      </trkpt>
      <trkpt lat="48.39287" lon="2.55057">
        <ele>75.7</ele>
        <time>2025-11-16T09:59:47Z</time>
      </trkpt>
      <trkpt lat="48.39288" lon="2.55048">
        <ele>75.7</ele>
        <time>2025-11-16T09:59:49Z</time>
      </trkpt>
      <trkpt lat="48.39289" lon="2.55038">
        <ele>75.8</ele>
        <time>2025-11-16T09:59:51Z</time>
      </trkpt>
      <trkpt lat="48.39291" lon="2.5503">
        <ele>76</ele>
        <time>2025-11-16T09:59:53Z</time>
      </trkpt>
      <trkpt lat="48.39292" lon="2.55021">
        <ele>76.1</ele>
        <time>2025-11-16T09:59:55Z</time>
      </trkpt>
      <trkpt lat="48.39293" lon="2.55012">
        <ele>76.3</ele>
        <time>2025-11-16T09:59:57Z</time>
      </trkpt>
      <trkpt lat="48.39294" lon="2.55004">
        <ele>76.5</ele>
        <time>2025-11-16T09:59:59Z</time>
      </trkpt>
      <trkpt lat="48.39295" lon="2.54997">
        <ele>76.7</ele>
        <time>2025-11-16T10:00:01Z</time>
      </trkpt>
      <trkpt lat="48.39296" lon="2.54989">
        <ele>77.1</ele>
        <time>2025-11-16T10:00:03Z</time>
      </trkpt>
      <trkpt lat="48.39297" lon="2.5498">
        <ele>77.4</ele>
        <time>2025-11-16T10:00:05Z</time>
      </trkpt>
      <trkpt lat="48.39298" lon="2.54972">
        <ele>77.7</ele>
        <time>2025-11-16T10:00:07Z</time>
      </trkpt>
      <trkpt lat="48.39299" lon="2.54963">
        <ele>78</ele>
        <time>2025-11-16T10:00:09Z</time>
      </trkpt>
      <trkpt lat="48.393" lon="2.54955">
        <ele>78.3</ele>
        <time>2025-11-16T10:00:11Z</time>
      </trkpt>
      <trkpt lat="48.39301" lon="2.54945">
        <ele>78.7</ele>
        <time>2025-11-16T10:00:13Z</time>
      </trkpt>
      <trkpt lat="48.39303" lon="2.54935">
        <ele>78.8</ele>
        <time>2025-11-16T10:00:15Z</time>
      </trkpt>
      <trkpt lat="48.39304" lon="2.54925">
        <ele>78.9</ele>
        <time>2025-11-16T10:00:17Z</time>
      </trkpt>
      <trkpt lat="48.39305" lon="2.54914">
        <ele>79</ele>
        <time>2025-11-16T10:00:19Z</time>
      </trkpt>
      <trkpt lat="48.39306" lon="2.54905">
        <ele>79.1</ele>
        <time>2025-11-16T10:00:21Z</time>
      </trkpt>
      <trkpt lat="48.39307" lon="2.54895">
        <ele>79.2</ele>
        <time>2025-11-16T10:00:23Z</time>
      </trkpt>
      <trkpt lat="48.39308" lon="2.54885">
        <ele>79.5</ele>
        <time>2025-11-16T10:00:25Z</time>
      </trkpt>
      <trkpt lat="48.39309" lon="2.54875">
        <ele>80</ele>
        <time>2025-11-16T10:00:27Z</time>
      </trkpt>
      <trkpt lat="48.3931" lon="2.54865">
        <ele>80.5</ele>
        <time>2025-11-16T10:00:29Z</time>
      </trkpt>
      <trkpt lat="48.39311" lon="2.54855">
        <ele>80.8</ele>
        <time>2025-11-16T10:00:31Z</time>
      </trkpt>
      <trkpt lat="48.39312" lon="2.54846">
        <ele>81</ele>
        <time>2025-11-16T10:00:33Z</time>
      </trkpt>
      <trkpt lat="48.39314" lon="2.54838">
        <ele>81.2</ele>
        <time>2025-11-16T10:00:35Z</time>
      </trkpt>
      <trkpt lat="48.39316" lon="2.5483">
        <ele>81.5</ele>
        <time>2025-11-16T10:00:37Z</time>
      </trkpt>
      <trkpt lat="48.39317" lon="2.5482">
        <ele>81.8</ele>
        <time>2025-11-16T10:00:39Z</time>
      </trkpt>
      <trkpt lat="48.39318" lon="2.5481">
        <ele>81.9</ele>
        <time>2025-11-16T10:00:41Z</time>
      </trkpt>
      <trkpt lat="48.39319" lon="2.54802">
        <ele>82</ele>
        <time>2025-11-16T10:00:43Z</time>
      </trkpt>
      <trkpt lat="48.3932" lon="2.54793">
        <ele>82.1</ele>
        <time>2025-11-16T10:00:45Z</time>
      </trkpt>
      <trkpt lat="48.39321" lon="2.54785">
        <ele>82.1</ele>
        <time>2025-11-16T10:00:47Z</time>
      </trkpt>
      <trkpt lat="48.39323" lon="2.54776">
        <ele>82.2</ele>
        <time>2025-11-16T10:00:49Z</time>
      </trkpt>
      <trkpt lat="48.39324" lon="2.54767">
        <ele>82.3</ele>
        <time>2025-11-16T10:00:51Z</time>
      </trkpt>
      <trkpt lat="48.39325" lon="2.54758">
        <ele>82.4</ele>
        <time>2025-11-16T10:00:53Z</time>
      </trkpt>
      <trkpt lat="48.39326" lon="2.54748">
        <ele>82.5</ele>
        <time>2025-11-16T10:00:55Z</time>
      </trkpt>
      <trkpt lat="48.39327" lon="2.54739">
        <ele>82.5</ele>
        <time>2025-11-16T10:00:57Z</time>
      </trkpt>
      <trkpt lat="48.39327" lon="2.54731">
        <ele>82.5</ele>
        <time>2025-11-16T10:00:59Z</time>
      </trkpt>
      <trkpt lat="48.39328" lon="2.54716">
        <ele>82.6</ele>
        <time>2025-11-16T10:01:03Z</time>
      </trkpt>
      <trkpt lat="48.39329" lon="2.54708">
        <ele>82.7</ele>
        <time>2025-11-16T10:01:05Z</time>
      </trkpt>
      <trkpt lat="48.3933" lon="2.547">
        <ele>82.8</ele>
        <time>2025-11-16T10:01:07Z</time>
      </trkpt>
      <trkpt lat="48.39332" lon="2.5469">
        <ele>82.9</ele>
        <time>2025-11-16T10:01:09Z</time>
      </trkpt>
      <trkpt lat="48.39333" lon="2.54681">
        <ele>83</ele>
        <time>2025-11-16T10:01:11Z</time>
      </trkpt>
      <trkpt lat="48.39334" lon="2.54672">
        <ele>83.1</ele>
        <time>2025-11-16T10:01:13Z</time>
      </trkpt>
      <trkpt lat="48.39334" lon="2.54664">
        <ele>83.3</ele>
        <time>2025-11-16T10:01:15Z</time>
      </trkpt>
      <trkpt lat="48.39335" lon="2.54656">
        <ele>83.8</ele>
        <time>2025-11-16T10:01:17Z</time>
      </trkpt>
      <trkpt lat="48.39336" lon="2.54648">
        <ele>84.4</ele>
        <time>2025-11-16T10:01:19Z</time>
      </trkpt>
      <trkpt lat="48.39338" lon="2.54639">
        <ele>84.9</ele>
        <time>2025-11-16T10:01:21Z</time>
      </trkpt>
      <trkpt lat="48.39338" lon="2.5463">
        <ele>84.9</ele>
        <time>2025-11-16T10:01:23Z</time>
      </trkpt>
      <trkpt lat="48.39339" lon="2.54623">
        <ele>85.2</ele>
        <time>2025-11-16T10:01:25Z</time>
      </trkpt>
      <trkpt lat="48.3934" lon="2.54614">
        <ele>85.5</ele>
        <time>2025-11-16T10:01:27Z</time>
      </trkpt>
      <trkpt lat="48.39342" lon="2.54606">
        <ele>86</ele>
        <time>2025-11-16T10:01:29Z</time>
      </trkpt>
      <trkpt lat="48.39343" lon="2.54599">
        <ele>86.1</ele>
        <time>2025-11-16T10:01:31Z</time>
      </trkpt>
      <trkpt lat="48.39343" lon="2.54591">
        <ele>86.3</ele>
        <time>2025-11-16T10:01:33Z</time>
      </trkpt>
      <trkpt lat="48.39343" lon="2.54583">
        <ele>86.4</ele>
        <time>2025-11-16T10:01:35Z</time>
      </trkpt>
      <trkpt lat="48.39339" lon="2.5457">
        <ele>86.2</ele>
        <time>2025-11-16T10:01:39Z</time>
      </trkpt>
      <trkpt lat="48.39336" lon="2.54559">
        <ele>86.2</ele>
        <time>2025-11-16T10:01:43Z</time>
      </trkpt>
      <trkpt lat="48.39334" lon="2.5455">
        <ele>86.5</ele>
        <time>2025-11-16T10:01:47Z</time>
      </trkpt>
      <trkpt lat="48.39331" lon="2.54537">
        <ele>87.6</ele>
        <time>2025-11-16T10:01:51Z</time>
      </trkpt>
      <trkpt lat="48.39332" lon="2.54526">
        <ele>88.3</ele>
        <time>2025-11-16T10:01:55Z</time>
      </trkpt>
      <trkpt lat="48.39332" lon="2.54515">
        <ele>89.5</ele>
        <time>2025-11-16T10:01:59Z</time>
      </trkpt>
      <trkpt lat="48.39333" lon="2.54507">
        <ele>90.4</ele>
        <time>2025-11-16T10:02:03Z</time>
      </trkpt>
      <trkpt lat="48.39333" lon="2.545">
        <ele>91.1</ele>
        <time>2025-11-16T10:02:07Z</time>
      </trkpt>
      <trkpt lat="48.39333" lon="2.54491">
        <ele>92</ele>
        <time>2025-11-16T10:02:11Z</time>
      </trkpt>
      <trkpt lat="48.39334" lon="2.54484">
        <ele>92.6</ele>
        <time>2025-11-16T10:02:15Z</time>
      </trkpt>
      <trkpt lat="48.39335" lon="2.54478">
        <ele>93.2</ele>
        <time>2025-11-16T10:02:19Z</time>
      </trkpt>
      <trkpt lat="48.39335" lon="2.54471">
        <ele>93.9</ele>
        <time>2025-11-16T10:02:23Z</time>
      </trkpt>
      <trkpt lat="48.39335" lon="2.54464">
        <ele>94.9</ele>
        <time>2025-11-16T10:02:27Z</time>
      </trkpt>
      <trkpt lat="48.39336" lon="2.54456">
        <ele>95.9</ele>
        <time>2025-11-16T10:02:31Z</time>
      </trkpt>
      <trkpt lat="48.39336" lon="2.54449">
        <ele>96.8</ele>
        <time>2025-11-16T10:02:35Z</time>
      </trkpt>
      <trkpt lat="48.39337" lon="2.54442">
        <ele>97.5</ele>
        <time>2025-11-16T10:02:39Z</time>
      </trkpt>
      <trkpt lat="48.39338" lon="2.54435">
        <ele>98</ele>
        <time>2025-11-16T10:02:43Z</time>
      </trkpt>
      <trkpt lat="48.39338" lon="2.54428">
        <ele>98.6</ele>
        <time>2025-11-16T10:02:47Z</time>
      </trkpt>
      <trkpt lat="48.39339" lon="2.54419">
        <ele>99.4</ele>
        <time>2025-11-16T10:02:53Z</time>
      </trkpt>
      <trkpt lat="48.3934" lon="2.54411">
        <ele>99.9</ele>
        <time>2025-11-16T10:02:57Z</time>
      </trkpt>
      <trkpt lat="48.39341" lon="2.54401">
        <ele>100.7</ele>
        <time>2025-11-16T10:03:03Z</time>
      </trkpt>
      <trkpt lat="48.39341" lon="2.54392">
        <ele>101.6</ele>
        <time>2025-11-16T10:03:09Z</time>
      </trkpt>
      <trkpt lat="48.39341" lon="2.54383">
        <ele>102.8</ele>
        <time>2025-11-16T10:03:15Z</time>
      </trkpt>
      <trkpt lat="48.39343" lon="2.54375">
        <ele>103.4</ele>
        <time>2025-11-16T10:03:19Z</time>
      </trkpt>
      <trkpt lat="48.39344" lon="2.54365">
        <ele>104.4</ele>
        <time>2025-11-16T10:03:25Z</time>
      </trkpt>
      <trkpt lat="48.39346" lon="2.54356">
        <ele>105</ele>
        <time>2025-11-16T10:03:31Z</time>
      </trkpt>
      <trkpt lat="48.39346" lon="2.54347">
        <ele>105.8</ele>
        <time>2025-11-16T10:03:37Z</time>
      </trkpt>
      <trkpt lat="48.39346" lon="2.54339">
        <ele>106.4</ele>
        <time>2025-11-16T10:03:43Z</time>
      </trkpt>
      <trkpt lat="48.39346" lon="2.5433">
        <ele>107.3</ele>
        <time>2025-11-16T10:03:49Z</time>
      </trkpt>
      <trkpt lat="48.39346" lon="2.54322">
        <ele>107.3</ele>
        <time>2025-11-16T10:03:55Z</time>
      </trkpt>
      <trkpt lat="48.39345" lon="2.54314">
        <ele>108</ele>
        <time>2025-11-16T10:04:01Z</time>
      </trkpt>
      <trkpt lat="48.39344" lon="2.54305">
        <ele>108.5</ele>
        <time>2025-11-16T10:04:07Z</time>
      </trkpt>
      <trkpt lat="48.39344" lon="2.54298">
        <ele>108.9</ele>
        <time>2025-11-16T10:04:11Z</time>
      </trkpt>
      <trkpt lat="48.39344" lon="2.54289">
        <ele>109.2</ele>
        <time>2025-11-16T10:04:17Z</time>
      </trkpt>
      <trkpt lat="48.39342" lon="2.5428">
        <ele>110</ele>
        <time>2025-11-16T10:04:23Z</time>
      </trkpt>
      <trkpt lat="48.39342" lon="2.54272">
        <ele>110.4</ele>
        <time>2025-11-16T10:04:27Z</time>
      </trkpt>
      <trkpt lat="48.39342" lon="2.54262">
        <ele>110.9</ele>
        <time>2025-11-16T10:04:33Z</time>
      </trkpt>
      <trkpt lat="48.39343" lon="2.54255">
        <ele>111</ele>
        <time>2025-11-16T10:04:37Z</time>
      </trkpt>
      <trkpt lat="48.39344" lon="2.54247">
        <ele>111.3</ele>
        <time>2025-11-16T10:04:41Z</time>
      </trkpt>
      <trkpt lat="48.39345" lon="2.5424">
        <ele>111.7</ele>
        <time>2025-11-16T10:04:45Z</time>
      </trkpt>
      <trkpt lat="48.39346" lon="2.54232">
        <ele>112.4</ele>
        <time>2025-11-16T10:04:49Z</time>
      </trkpt>
      <trkpt lat="48.39347" lon="2.54221">
        <ele>113.2</ele>
        <time>2025-11-16T10:04:53Z</time>
      </trkpt>
      <trkpt lat="48.39349" lon="2.54213">
        <ele>114</ele>
        <time>2025-11-16T10:04:57Z</time>
      </trkpt>
      <trkpt lat="48.39354" lon="2.54203">
        <ele>115</ele>
        <time>2025-11-16T10:05:01Z</time>
      </trkpt>
      <trkpt lat="48.39358" lon="2.54197">
        <ele>115.8</ele>
        <time>2025-11-16T10:05:05Z</time>
      </trkpt>
      <trkpt lat="48.39363" lon="2.54192">
        <ele>116</ele>
        <time>2025-11-16T10:05:09Z</time>
      </trkpt>
      <trkpt lat="48.3937" lon="2.54187">
        <ele>116</ele>
        <time>2025-11-16T10:05:13Z</time>
      </trkpt>
      <trkpt lat="48.39376" lon="2.54182">
        <ele>116.3</ele>
        <time>2025-11-16T10:05:17Z</time>
      </trkpt>
      <trkpt lat="48.39383" lon="2.54176">
        <ele>116.6</ele>
        <time>2025-11-16T10:05:21Z</time>
      </trkpt>
      <trkpt lat="48.39387" lon="2.54173">
        <ele>117</ele>
        <time>2025-11-16T10:05:23Z</time>
      </trkpt>
      <trkpt lat="48.39392" lon="2.54168">
        <ele>117.5</ele>
        <time>2025-11-16T10:05:25Z</time>
      </trkpt>
      <trkpt lat="48.39396" lon="2.54163">
        <ele>117.4</ele>
        <time>2025-11-16T10:05:27Z</time>
      </trkpt>
      <trkpt lat="48.394" lon="2.54156">
        <ele>117.5</ele>
        <time>2025-11-16T10:05:29Z</time>
      </trkpt>
      <trkpt lat="48.39404" lon="2.54151">
        <ele>117.5</ele>
        <time>2025-11-16T10:05:31Z</time>
      </trkpt>
      <trkpt lat="48.39409" lon="2.54145">
        <ele>117.8</ele>
        <time>2025-11-16T10:05:33Z</time>
      </trkpt>
      <trkpt lat="48.39414" lon="2.54139">
        <ele>118.1</ele>
        <time>2025-11-16T10:05:35Z</time>
      </trkpt>
      <trkpt lat="48.39418" lon="2.54134">
        <ele>118</ele>
        <time>2025-11-16T10:05:37Z</time>
      </trkpt>
      <trkpt lat="48.39421" lon="2.54128">
        <ele>117.8</ele>
        <time>2025-11-16T10:05:39Z</time>
      </trkpt>
      <trkpt lat="48.39425" lon="2.54121">
        <ele>117.7</ele>
        <time>2025-11-16T10:05:41Z</time>
      </trkpt>
      <trkpt lat="48.39427" lon="2.54114">
        <ele>117.7</ele>
        <time>2025-11-16T10:05:43Z</time>
      </trkpt>
      <trkpt lat="48.3943" lon="2.54107">
        <ele>117.8</ele>
        <time>2025-11-16T10:05:45Z</time>
      </trkpt>
      <trkpt lat="48.39433" lon="2.54099">
        <ele>117.9</ele>
        <time>2025-11-16T10:05:47Z</time>
      </trkpt>
      <trkpt lat="48.39436" lon="2.54091">
        <ele>118.1</ele>
        <time>2025-11-16T10:05:49Z</time>
      </trkpt>
      <trkpt lat="48.3944" lon="2.54081">
        <ele>118.4</ele>
        <time>2025-11-16T10:05:51Z</time>
      </trkpt>
      <trkpt lat="48.39443" lon="2.54071">
        <ele>118.5</ele>
        <time>2025-11-16T10:05:53Z</time>
      </trkpt>
      <trkpt lat="48.39447" lon="2.54064">
        <ele>118.5</ele>
        <time>2025-11-16T10:05:55Z</time>
      </trkpt>
      <trkpt lat="48.3945" lon="2.54055">
        <ele>118.7</ele>
        <time>2025-11-16T10:05:57Z</time>
      </trkpt>
      <trkpt lat="48.39453" lon="2.54047">
        <ele>118.8</ele>
        <time>2025-11-16T10:05:59Z</time>
      </trkpt>
      <trkpt lat="48.39457" lon="2.54039">
        <ele>119</ele>
        <time>2025-11-16T10:06:01Z</time>
      </trkpt>
      <trkpt lat="48.39459" lon="2.5403">
        <ele>119.4</ele>
        <time>2025-11-16T10:06:03Z</time>
      </trkpt>
      <trkpt lat="48.39463" lon="2.54021">
        <ele>119.3</ele>
        <time>2025-11-16T10:06:05Z</time>
      </trkpt>
      <trkpt lat="48.39465" lon="2.54011">
        <ele>119.3</ele>
        <time>2025-11-16T10:06:07Z</time>
      </trkpt>
      <trkpt lat="48.39467" lon="2.54001">
        <ele>119.2</ele>
        <time>2025-11-16T10:06:09Z</time>
      </trkpt>
      <trkpt lat="48.39468" lon="2.5399">
        <ele>119.4</ele>
        <time>2025-11-16T10:06:11Z</time>
      </trkpt>
      <trkpt lat="48.39471" lon="2.53981">
        <ele>119.7</ele>
        <time>2025-11-16T10:06:13Z</time>
      </trkpt>
      <trkpt lat="48.39475" lon="2.53971">
        <ele>120</ele>
        <time>2025-11-16T10:06:15Z</time>
      </trkpt>
      <trkpt lat="48.39476" lon="2.5396">
        <ele>120</ele>
        <time>2025-11-16T10:06:17Z</time>
      </trkpt>
      <trkpt lat="48.39478" lon="2.53949">
        <ele>120</ele>
        <time>2025-11-16T10:06:19Z</time>
      </trkpt>
      <trkpt lat="48.39479" lon="2.53937">
        <ele>119.8</ele>
        <time>2025-11-16T10:06:21Z</time>
      </trkpt>
      <trkpt lat="48.3948" lon="2.53926">
        <ele>119.5</ele>
        <time>2025-11-16T10:06:23Z</time>
      </trkpt>
      <trkpt lat="48.39481" lon="2.53914">
        <ele>119.3</ele>
        <time>2025-11-16T10:06:25Z</time>
      </trkpt>
      <trkpt lat="48.39481" lon="2.53902">
        <ele>119.3</ele>
        <time>2025-11-16T10:06:27Z</time>
      </trkpt>
      <trkpt lat="48.39482" lon="2.5389">
        <ele>119.3</ele>
        <time>2025-11-16T10:06:29Z</time>
      </trkpt>
      <trkpt lat="48.39481" lon="2.53878">
        <ele>119</ele>
        <time>2025-11-16T10:06:31Z</time>
      </trkpt>
      <trkpt lat="48.39481" lon="2.53867">
        <ele>118.5</ele>
        <time>2025-11-16T10:06:33Z</time>
      </trkpt>
      <trkpt lat="48.39481" lon="2.53856">
        <ele>118.5</ele>
        <time>2025-11-16T10:06:35Z</time>
      </trkpt>
      <trkpt lat="48.39482" lon="2.53845">
        <ele>118.9</ele>
        <time>2025-11-16T10:06:37Z</time>
      </trkpt>
      <trkpt lat="48.39482" lon="2.53833">
        <ele>119.3</ele>
        <time>2025-11-16T10:06:39Z</time>
      </trkpt>
      <trkpt lat="48.39481" lon="2.53822">
        <ele>119.3</ele>
        <time>2025-11-16T10:06:41Z</time>
      </trkpt>
      <trkpt lat="48.39482" lon="2.5381">
        <ele>119.4</ele>
        <time>2025-11-16T10:06:43Z</time>
      </trkpt>
      <trkpt lat="48.39482" lon="2.53799">
        <ele>119.4</ele>
        <time>2025-11-16T10:06:45Z</time>
      </trkpt>
      <trkpt lat="48.39483" lon="2.53787">
        <ele>119.4</ele>
        <time>2025-11-16T10:06:47Z</time>
      </trkpt>
      <trkpt lat="48.39484" lon="2.53775">
        <ele>119.4</ele>
        <time>2025-11-16T10:06:49Z</time>
      </trkpt>
      <trkpt lat="48.39487" lon="2.53764">
        <ele>119.5</ele>
        <time>2025-11-16T10:06:51Z</time>
      </trkpt>
      <trkpt lat="48.39491" lon="2.53754">
        <ele>119.7</ele>
        <time>2025-11-16T10:06:53Z</time>
      </trkpt>
      <trkpt lat="48.39495" lon="2.53745">
        <ele>119.8</ele>
        <time>2025-11-16T10:06:55Z</time>
      </trkpt>
      <trkpt lat="48.39499" lon="2.53735">
        <ele>120</ele>
        <time>2025-11-16T10:06:57Z</time>
      </trkpt>
      <trkpt lat="48.39503" lon="2.53724">
        <ele>120.1</ele>
        <time>2025-11-16T10:06:59Z</time>
      </trkpt>
      <trkpt lat="48.39506" lon="2.53713">
        <ele>120.2</ele>
        <time>2025-11-16T10:07:01Z</time>
      </trkpt>
      <trkpt lat="48.39509" lon="2.53701">
        <ele>120.3</ele>
        <time>2025-11-16T10:07:03Z</time>
      </trkpt>
      <trkpt lat="48.39512" lon="2.53688">
        <ele>120.4</ele>
        <time>2025-11-16T10:07:05Z</time>
      </trkpt>
      <trkpt lat="48.39513" lon="2.53676">
        <ele>120.5</ele>
        <time>2025-11-16T10:07:07Z</time>
      </trkpt>
      <trkpt lat="48.39514" lon="2.53663">
        <ele>120.6</ele>
        <time>2025-11-16T10:07:09Z</time>
      </trkpt>
      <trkpt lat="48.39516" lon="2.53651">
        <ele>120.9</ele>
        <time>2025-11-16T10:07:11Z</time>
      </trkpt>
      <trkpt lat="48.3952" lon="2.5364">
        <ele>121.4</ele>
        <time>2025-11-16T10:07:13Z</time>
      </trkpt>
      <trkpt lat="48.39521" lon="2.53626">
        <ele>121.5</ele>
        <time>2025-11-16T10:07:15Z</time>
      </trkpt>
      <trkpt lat="48.3952" lon="2.53616">
        <ele>121.4</ele>
        <time>2025-11-16T10:07:17Z</time>
      </trkpt>
      <trkpt lat="48.39521" lon="2.53605">
        <ele>121.3</ele>
        <time>2025-11-16T10:07:19Z</time>
      </trkpt>
      <trkpt lat="48.39521" lon="2.53595">
        <ele>121.1</ele>
        <time>2025-11-16T10:07:21Z</time>
      </trkpt>
      <trkpt lat="48.39522" lon="2.53583">
        <ele>120.8</ele>
        <time>2025-11-16T10:07:23Z</time>
      </trkpt>
      <trkpt lat="48.39524" lon="2.53572">
        <ele>120.9</ele>
        <time>2025-11-16T10:07:25Z</time>
      </trkpt>
      <trkpt lat="48.39525" lon="2.53561">
        <ele>120.9</ele>
        <time>2025-11-16T10:07:27Z</time>
      </trkpt>
      <trkpt lat="48.39526" lon="2.5355">
        <ele>121</ele>
        <time>2025-11-16T10:07:29Z</time>
      </trkpt>
      <trkpt lat="48.39528" lon="2.5354">
        <ele>121</ele>
        <time>2025-11-16T10:07:31Z</time>
      </trkpt>
      <trkpt lat="48.39529" lon="2.5353">
        <ele>121</ele>
        <time>2025-11-16T10:07:33Z</time>
      </trkpt>
      <trkpt lat="48.3953" lon="2.53518">
        <ele>120.8</ele>
        <time>2025-11-16T10:07:35Z</time>
      </trkpt>
      <trkpt lat="48.39533" lon="2.53506">
        <ele>120.5</ele>
        <time>2025-11-16T10:07:37Z</time>
      </trkpt>
      <trkpt lat="48.39533" lon="2.53494">
        <ele>120.4</ele>
        <time>2025-11-16T10:07:39Z</time>
      </trkpt>
      <trkpt lat="48.39532" lon="2.53478">
        <ele>120.3</ele>
        <time>2025-11-16T10:07:41Z</time>
      </trkpt>
      <trkpt lat="48.3953" lon="2.53467">
        <ele>120</ele>
        <time>2025-11-16T10:07:43Z</time>
      </trkpt>
      <trkpt lat="48.39531" lon="2.53452">
        <ele>119.5</ele>
        <time>2025-11-16T10:07:45Z</time>
      </trkpt>
      <trkpt lat="48.39533" lon="2.53435">
        <ele>119.3</ele>
        <time>2025-11-16T10:07:47Z</time>
      </trkpt>
      <trkpt lat="48.39535" lon="2.53418">
        <ele>119.3</ele>
        <time>2025-11-16T10:07:49Z</time>
      </trkpt>
      <trkpt lat="48.39538" lon="2.534">
        <ele>118.8</ele>
        <time>2025-11-16T10:07:51Z</time>
      </trkpt>
      <trkpt lat="48.39539" lon="2.53384">
        <ele>118.2</ele>
        <time>2025-11-16T10:07:53Z</time>
      </trkpt>
      <trkpt lat="48.39541" lon="2.53367">
        <ele>117.7</ele>
        <time>2025-11-16T10:07:55Z</time>
      </trkpt>
      <trkpt lat="48.39543" lon="2.53351">
        <ele>117.4</ele>
        <time>2025-11-16T10:07:57Z</time>
      </trkpt>
      <trkpt lat="48.39547" lon="2.53335">
        <ele>117</ele>
        <time>2025-11-16T10:07:59Z</time>
      </trkpt>
      <trkpt lat="48.3955" lon="2.53319">
        <ele>116.5</ele>
        <time>2025-11-16T10:08:01Z</time>
      </trkpt>
      <trkpt lat="48.39553" lon="2.53303">
        <ele>115.9</ele>
        <time>2025-11-16T10:08:03Z</time>
      </trkpt>
      <trkpt lat="48.39558" lon="2.53287">
        <ele>115.6</ele>
        <time>2025-11-16T10:08:05Z</time>
      </trkpt>
      <trkpt lat="48.39564" lon="2.5327">
        <ele>115.8</ele>
        <time>2025-11-16T10:08:07Z</time>
      </trkpt>
      <trkpt lat="48.39571" lon="2.53255">
        <ele>116.2</ele>
        <time>2025-11-16T10:08:09Z</time>
      </trkpt>
      <trkpt lat="48.39576" lon="2.53237">
        <ele>116.2</ele>
        <time>2025-11-16T10:08:11Z</time>
      </trkpt>
      <trkpt lat="48.39581" lon="2.53221">
        <ele>115.9</ele>
        <time>2025-11-16T10:08:13Z</time>
      </trkpt>
      <trkpt lat="48.39585" lon="2.53205">
        <ele>115</ele>
        <time>2025-11-16T10:08:15Z</time>
      </trkpt>
      <trkpt lat="48.39587" lon="2.53186">
        <ele>114.2</ele>
        <time>2025-11-16T10:08:17Z</time>
      </trkpt>
      <trkpt lat="48.39589" lon="2.53168">
        <ele>113.8</ele>
        <time>2025-11-16T10:08:19Z</time>
      </trkpt>
      <trkpt lat="48.3959" lon="2.53148">
        <ele>113.1</ele>
        <time>2025-11-16T10:08:21Z</time>
      </trkpt>
      <trkpt lat="48.39592" lon="2.53129">
        <ele>112.8</ele>
        <time>2025-11-16T10:08:23Z</time>
      </trkpt>
      <trkpt lat="48.39594" lon="2.53111">
        <ele>112.8</ele>
        <time>2025-11-16T10:08:25Z</time>
      </trkpt>
      <trkpt lat="48.39596" lon="2.53092">
        <ele>112.2</ele>
        <time>2025-11-16T10:08:27Z</time>
      </trkpt>
      <trkpt lat="48.39598" lon="2.53075">
        <ele>112</ele>
        <time>2025-11-16T10:08:29Z</time>
      </trkpt>
      <trkpt lat="48.39599" lon="2.53056">
        <ele>112.1</ele>
        <time>2025-11-16T10:08:31Z</time>
      </trkpt>
      <trkpt lat="48.39601" lon="2.53036">
        <ele>112.1</ele>
        <time>2025-11-16T10:08:33Z</time>
      </trkpt>
      <trkpt lat="48.39605" lon="2.53019">
        <ele>111.7</ele>
        <time>2025-11-16T10:08:35Z</time>
      </trkpt>
      <trkpt lat="48.39606" lon="2.52999">
        <ele>111.1</ele>
        <time>2025-11-16T10:08:37Z</time>
      </trkpt>
      <trkpt lat="48.3961" lon="2.52983">
        <ele>110.5</ele>
        <time>2025-11-16T10:08:39Z</time>
      </trkpt>
      <trkpt lat="48.39613" lon="2.52966">
        <ele>110.1</ele>
        <time>2025-11-16T10:08:41Z</time>
      </trkpt>
      <trkpt lat="48.39612" lon="2.52951">
        <ele>109.4</ele>
        <time>2025-11-16T10:08:43Z</time>
      </trkpt>
      <trkpt lat="48.3961" lon="2.52937">
        <ele>108.6</ele>
        <time>2025-11-16T10:08:45Z</time>
      </trkpt>
      <trkpt lat="48.39609" lon="2.52923">
        <ele>107.7</ele>
        <time>2025-11-16T10:08:47Z</time>
      </trkpt>
      <trkpt lat="48.39609" lon="2.52906">
        <ele>106.9</ele>
        <time>2025-11-16T10:08:49Z</time>
      </trkpt>
      <trkpt lat="48.39608" lon="2.5289">
        <ele>106.6</ele>
        <time>2025-11-16T10:08:51Z</time>
      </trkpt>
      <trkpt lat="48.39609" lon="2.52874">
        <ele>106.4</ele>
        <time>2025-11-16T10:08:53Z</time>
      </trkpt>
      <trkpt lat="48.3961" lon="2.52859">
        <ele>106.1</ele>
        <time>2025-11-16T10:08:55Z</time>
      </trkpt>
      <trkpt lat="48.39611" lon="2.52843">
        <ele>105.5</ele>
        <time>2025-11-16T10:08:57Z</time>
      </trkpt>
      <trkpt lat="48.3961" lon="2.52829">
        <ele>105.2</ele>
        <time>2025-11-16T10:08:59Z</time>
      </trkpt>
      <trkpt lat="48.3961" lon="2.52814">
        <ele>105.3</ele>
        <time>2025-11-16T10:09:01Z</time>
      </trkpt>
      <trkpt lat="48.39609" lon="2.52802">
        <ele>105.4</ele>
        <time>2025-11-16T10:09:03Z</time>
      </trkpt>
      <trkpt lat="48.39607" lon="2.52786">
        <ele>105.3</ele>
        <time>2025-11-16T10:09:05Z</time>
      </trkpt>
      <trkpt lat="48.39609" lon="2.52772">
        <ele>104.6</ele>
        <time>2025-11-16T10:09:07Z</time>
      </trkpt>
      <trkpt lat="48.39615" lon="2.52758">
        <ele>103.7</ele>
        <time>2025-11-16T10:09:09Z</time>
      </trkpt>
      <trkpt lat="48.39621" lon="2.52741">
        <ele>103.3</ele>
        <time>2025-11-16T10:09:11Z</time>
      </trkpt>
      <trkpt lat="48.39626" lon="2.52724">
        <ele>103.3</ele>
        <time>2025-11-16T10:09:13Z</time>
      </trkpt>
      <trkpt lat="48.39629" lon="2.52706">
        <ele>102.8</ele>
        <time>2025-11-16T10:09:15Z</time>
      </trkpt>
      <trkpt lat="48.39632" lon="2.52689">
        <ele>102.3</ele>
        <time>2025-11-16T10:09:17Z</time>
      </trkpt>
      <trkpt lat="48.39636" lon="2.52672">
        <ele>101.6</ele>
        <time>2025-11-16T10:09:19Z</time>
      </trkpt>
      <trkpt lat="48.39638" lon="2.52656">
        <ele>100.8</ele>
        <time>2025-11-16T10:09:21Z</time>
      </trkpt>
      <trkpt lat="48.39641" lon="2.52637">
        <ele>99.9</ele>
        <time>2025-11-16T10:09:23Z</time>
      </trkpt>
      <trkpt lat="48.39644" lon="2.52617">
        <ele>99.7</ele>
        <time>2025-11-16T10:09:25Z</time>
      </trkpt>
      <trkpt lat="48.39644" lon="2.526">
        <ele>99.3</ele>
        <time>2025-11-16T10:09:27Z</time>
      </trkpt>
      <trkpt lat="48.39645" lon="2.52582">
        <ele>98.8</ele>
        <time>2025-11-16T10:09:29Z</time>
      </trkpt>
      <trkpt lat="48.39646" lon="2.52562">
        <ele>99.1</ele>
        <time>2025-11-16T10:09:31Z</time>
      </trkpt>
      <trkpt lat="48.39646" lon="2.52545">
        <ele>99.1</ele>
        <time>2025-11-16T10:09:33Z</time>
      </trkpt>
      <trkpt lat="48.39647" lon="2.52528">
        <ele>98.9</ele>
        <time>2025-11-16T10:09:35Z</time>
      </trkpt>
      <trkpt lat="48.39647" lon="2.5251">
        <ele>98.8</ele>
        <time>2025-11-16T10:09:37Z</time>
      </trkpt>
      <trkpt lat="48.3965" lon="2.52496">
        <ele>98.5</ele>
        <time>2025-11-16T10:09:39Z</time>
      </trkpt>
      <trkpt lat="48.39652" lon="2.5248">
        <ele>98.5</ele>
        <time>2025-11-16T10:09:41Z</time>
      </trkpt>
      <trkpt lat="48.39656" lon="2.52461">
        <ele>98.1</ele>
        <time>2025-11-16T10:09:43Z</time>
      </trkpt>
      <trkpt lat="48.39664" lon="2.5245">
        <ele>96.5</ele>
        <time>2025-11-16T10:09:45Z</time>
      </trkpt>
      <trkpt lat="48.39675" lon="2.52438">
        <ele>95.6</ele>
        <time>2025-11-16T10:09:47Z</time>
      </trkpt>
      <trkpt lat="48.39683" lon="2.52422">
        <ele>94.9</ele>
        <time>2025-11-16T10:09:49Z</time>
      </trkpt>
      <trkpt lat="48.39687" lon="2.52401">
        <ele>94.1</ele>
        <time>2025-11-16T10:09:51Z</time>
      </trkpt>
      <trkpt lat="48.39689" lon="2.5238">
        <ele>93.1</ele>
        <time>2025-11-16T10:09:53Z</time>
      </trkpt>
      <trkpt lat="48.3969" lon="2.52362">
        <ele>91.8</ele>
        <time>2025-11-16T10:09:55Z</time>
      </trkpt>
      <trkpt lat="48.39691" lon="2.52353">
        <ele>91.6</ele>
        <time>2025-11-16T10:09:57Z</time>
      </trkpt>
      <trkpt lat="48.39687" lon="2.52347">
        <ele>92.3</ele>
        <time>2025-11-16T10:09:59Z</time>
      </trkpt>
      <trkpt lat="48.39683" lon="2.52348">
        <ele>93.1</ele>
        <time>2025-11-16T10:10:03Z</time>
      </trkpt>
      <trkpt lat="48.3968" lon="2.52356">
        <ele>93.6</ele>
        <time>2025-11-16T10:10:07Z</time>
      </trkpt>
      <trkpt lat="48.39678" lon="2.52363">
        <ele>94.1</ele>
        <time>2025-11-16T10:10:11Z</time>
      </trkpt>
      <trkpt lat="48.39676" lon="2.52373">
        <ele>94.7</ele>
        <time>2025-11-16T10:10:15Z</time>
      </trkpt>
      <trkpt lat="48.39673" lon="2.5238">
        <ele>95.2</ele>
        <time>2025-11-16T10:10:19Z</time>
      </trkpt>
      <trkpt lat="48.39671" lon="2.52388">
        <ele>95.6</ele>
        <time>2025-11-16T10:10:23Z</time>
      </trkpt>
      <trkpt lat="48.39668" lon="2.52395">
        <ele>95.9</ele>
        <time>2025-11-16T10:10:27Z</time>
      </trkpt>
      <trkpt lat="48.39665" lon="2.52401">
        <ele>96.6</ele>
        <time>2025-11-16T10:10:31Z</time>
      </trkpt>
      <trkpt lat="48.39662" lon="2.52409">
        <ele>97.2</ele>
        <time>2025-11-16T10:10:35Z</time>
      </trkpt>
      <trkpt lat="48.39659" lon="2.52417">
        <ele>97.8</ele>
        <time>2025-11-16T10:10:39Z</time>
      </trkpt>
      <trkpt lat="48.39655" lon="2.52425">
        <ele>98.8</ele>
        <time>2025-11-16T10:10:43Z</time>
      </trkpt>
      <trkpt lat="48.39652" lon="2.52432">
        <ele>99.5</ele>
        <time>2025-11-16T10:10:47Z</time>
      </trkpt>
      <trkpt lat="48.39649" lon="2.5244">
        <ele>100</ele>
        <time>2025-11-16T10:10:51Z</time>
      </trkpt>
      <trkpt lat="48.39646" lon="2.52449">
        <ele>100.4</ele>
        <time>2025-11-16T10:10:55Z</time>
      </trkpt>
      <trkpt lat="48.39643" lon="2.52459">
        <ele>100.8</ele>
        <time>2025-11-16T10:10:59Z</time>
      </trkpt>
      <trkpt lat="48.3964" lon="2.52468">
        <ele>101</ele>
        <time>2025-11-16T10:11:03Z</time>
      </trkpt>
      <trkpt lat="48.39638" lon="2.52477">
        <ele>101.2</ele>
        <time>2025-11-16T10:11:07Z</time>
      </trkpt>
      <trkpt lat="48.39635" lon="2.52486">
        <ele>101.6</ele>
        <time>2025-11-16T10:11:11Z</time>
      </trkpt>
      <trkpt lat="48.39633" lon="2.52493">
        <ele>102</ele>
        <time>2025-11-16T10:11:15Z</time>
      </trkpt>
      <trkpt lat="48.3963" lon="2.52503">
        <ele>102.9</ele>
        <time>2025-11-16T10:11:19Z</time>
      </trkpt>
      <trkpt lat="48.39626" lon="2.52513">
        <ele>104</ele>
        <time>2025-11-16T10:11:23Z</time>
      </trkpt>
      <trkpt lat="48.39623" lon="2.52523">
        <ele>104.6</ele>
        <time>2025-11-16T10:11:27Z</time>
      </trkpt>
      <trkpt lat="48.39621" lon="2.52533">
        <ele>105.1</ele>
        <time>2025-11-16T10:11:31Z</time>
      </trkpt>
      <trkpt lat="48.39618" lon="2.52543">
        <ele>105.5</ele>
        <time>2025-11-16T10:11:35Z</time>
      </trkpt>
      <trkpt lat="48.39616" lon="2.52552">
        <ele>106</ele>
        <time>2025-11-16T10:11:39Z</time>
      </trkpt>
      <trkpt lat="48.39614" lon="2.52562">
        <ele>106.3</ele>
        <time>2025-11-16T10:11:43Z</time>
      </trkpt>
      <trkpt lat="48.39612" lon="2.52572">
        <ele>106.8</ele>
        <time>2025-11-16T10:11:47Z</time>
      </trkpt>
      <trkpt lat="48.3961" lon="2.52582">
        <ele>107.3</ele>
        <time>2025-11-16T10:11:51Z</time>
      </trkpt>
      <trkpt lat="48.39609" lon="2.52594">
        <ele>107.7</ele>
        <time>2025-11-16T10:11:55Z</time>
      </trkpt>
      <trkpt lat="48.39607" lon="2.52604">
        <ele>108.4</ele>
        <time>2025-11-16T10:11:59Z</time>
      </trkpt>
      <trkpt lat="48.39606" lon="2.52613">
        <ele>108.7</ele>
        <time>2025-11-16T10:12:03Z</time>
      </trkpt>
      <trkpt lat="48.39605" lon="2.52622">
        <ele>109</ele>
        <time>2025-11-16T10:12:07Z</time>
      </trkpt>
      <trkpt lat="48.39605" lon="2.52633">
        <ele>108.9</ele>
        <time>2025-11-16T10:12:11Z</time>
      </trkpt>
      <trkpt lat="48.39602" lon="2.52645">
        <ele>109.4</ele>
        <time>2025-11-16T10:12:15Z</time>
      </trkpt>
      <trkpt lat="48.39601" lon="2.52658">
        <ele>109.6</ele>
        <time>2025-11-16T10:12:19Z</time>
      </trkpt>
      <trkpt lat="48.39597" lon="2.52671">
        <ele>110.4</ele>
        <time>2025-11-16T10:12:23Z</time>
      </trkpt>
      <trkpt lat="48.39594" lon="2.52682">
        <ele>111.1</ele>
        <time>2025-11-16T10:12:27Z</time>
      </trkpt>
      <trkpt lat="48.39593" lon="2.52689">
        <ele>111.3</ele>
        <time>2025-11-16T10:12:29Z</time>
      </trkpt>
      <trkpt lat="48.39591" lon="2.527">
        <ele>111.7</ele>
        <time>2025-11-16T10:12:33Z</time>
      </trkpt>
      <trkpt lat="48.3959" lon="2.52709">
        <ele>111.8</ele>
        <time>2025-11-16T10:12:37Z</time>
      </trkpt>
      <trkpt lat="48.39586" lon="2.52718">
        <ele>112.5</ele>
        <time>2025-11-16T10:12:41Z</time>
      </trkpt>
      <trkpt lat="48.39583" lon="2.52726">
        <ele>112.8</ele>
        <time>2025-11-16T10:12:45Z</time>
      </trkpt>
      <trkpt lat="48.39578" lon="2.52734">
        <ele>113.1</ele>
        <time>2025-11-16T10:12:49Z</time>
      </trkpt>
      <trkpt lat="48.39572" lon="2.52739">
        <ele>114.1</ele>
        <time>2025-11-16T10:12:53Z</time>
      </trkpt>
      <trkpt lat="48.39567" lon="2.52741">
        <ele>115</ele>
        <time>2025-11-16T10:12:57Z</time>
      </trkpt>
      <trkpt lat="48.3956" lon="2.52747">
        <ele>116.1</ele>
        <time>2025-11-16T10:13:01Z</time>
      </trkpt>
      <trkpt lat="48.39555" lon="2.52753">
        <ele>117</ele>
        <time>2025-11-16T10:13:05Z</time>
      </trkpt>
      <trkpt lat="48.3955" lon="2.52757">
        <ele>117.4</ele>
        <time>2025-11-16T10:13:09Z</time>
      </trkpt>
      <trkpt lat="48.39542" lon="2.5276">
        <ele>118</ele>
        <time>2025-11-16T10:13:13Z</time>
      </trkpt>
      <trkpt lat="48.39537" lon="2.5276">
        <ele>118.3</ele>
        <time>2025-11-16T10:13:15Z</time>
      </trkpt>
      <trkpt lat="48.39532" lon="2.52761">
        <ele>118.7</ele>
        <time>2025-11-16T10:13:17Z</time>
      </trkpt>
      <trkpt lat="48.39527" lon="2.52762">
        <ele>119</ele>
        <time>2025-11-16T10:13:19Z</time>
      </trkpt>
      <trkpt lat="48.39521" lon="2.52762">
        <ele>119.1</ele>
        <time>2025-11-16T10:13:21Z</time>
      </trkpt>
      <trkpt lat="48.39515" lon="2.52762">
        <ele>119.2</ele>
        <time>2025-11-16T10:13:23Z</time>
      </trkpt>
      <trkpt lat="48.3951" lon="2.52762">
        <ele>119.3</ele>
        <time>2025-11-16T10:13:25Z</time>
      </trkpt>
      <trkpt lat="48.39503" lon="2.52762">
        <ele>119.4</ele>
        <time>2025-11-16T10:13:27Z</time>
      </trkpt>
      <trkpt lat="48.39497" lon="2.5276">
        <ele>119.3</ele>
        <time>2025-11-16T10:13:29Z</time>
      </trkpt>
      <trkpt lat="48.39489" lon="2.52759">
        <ele>119.2</ele>
        <time>2025-11-16T10:13:31Z</time>
      </trkpt>
      <trkpt lat="48.39481" lon="2.52756">
        <ele>119.1</ele>
        <time>2025-11-16T10:13:33Z</time>
      </trkpt>
      <trkpt lat="48.39472" lon="2.52755">
        <ele>119</ele>
        <time>2025-11-16T10:13:35Z</time>
      </trkpt>
      <trkpt lat="48.39463" lon="2.52754">
        <ele>118.7</ele>
        <time>2025-11-16T10:13:37Z</time>
      </trkpt>
      <trkpt lat="48.39455" lon="2.52754">
        <ele>118.4</ele>
        <time>2025-11-16T10:13:39Z</time>
      </trkpt>
      <trkpt lat="48.39447" lon="2.52759">
        <ele>118.1</ele>
        <time>2025-11-16T10:13:41Z</time>
      </trkpt>
      <trkpt lat="48.39439" lon="2.52766">
        <ele>117.7</ele>
        <time>2025-11-16T10:13:43Z</time>
      </trkpt>
      <trkpt lat="48.39434" lon="2.52778">
        <ele>117.6</ele>
        <time>2025-11-16T10:13:45Z</time>
      </trkpt>
      <trkpt lat="48.39428" lon="2.52788">
        <ele>117.8</ele>
        <time>2025-11-16T10:13:47Z</time>
      </trkpt>
      <trkpt lat="48.39422" lon="2.52799">
        <ele>117.9</ele>
        <time>2025-11-16T10:13:49Z</time>
      </trkpt>
      <trkpt lat="48.39416" lon="2.52808">
        <ele>118.1</ele>
        <time>2025-11-16T10:13:51Z</time>
      </trkpt>
      <trkpt lat="48.39411" lon="2.52816">
        <ele>118.2</ele>
        <time>2025-11-16T10:13:53Z</time>
      </trkpt>
      <trkpt lat="48.39406" lon="2.52825">
        <ele>118.3</ele>
        <time>2025-11-16T10:13:55Z</time>
      </trkpt>
      <trkpt lat="48.39402" lon="2.52832">
        <ele>118.4</ele>
        <time>2025-11-16T10:13:57Z</time>
      </trkpt>
      <trkpt lat="48.39399" lon="2.52842">
        <ele>118.6</ele>
        <time>2025-11-16T10:13:59Z</time>
      </trkpt>
      <trkpt lat="48.39394" lon="2.5285">
        <ele>118.7</ele>
        <time>2025-11-16T10:14:01Z</time>
      </trkpt>
      <trkpt lat="48.3939" lon="2.52858">
        <ele>118.9</ele>
        <time>2025-11-16T10:14:03Z</time>
      </trkpt>
      <trkpt lat="48.39385" lon="2.52866">
        <ele>119</ele>
        <time>2025-11-16T10:14:05Z</time>
      </trkpt>
      <trkpt lat="48.39381" lon="2.52874">
        <ele>119.2</ele>
        <time>2025-11-16T10:14:07Z</time>
      </trkpt>
      <trkpt lat="48.39376" lon="2.52884">
        <ele>119.4</ele>
        <time>2025-11-16T10:14:09Z</time>
      </trkpt>
      <trkpt lat="48.3937" lon="2.52893">
        <ele>119.5</ele>
        <time>2025-11-16T10:14:11Z</time>
      </trkpt>
      <trkpt lat="48.39366" lon="2.52901">
        <ele>119.6</ele>
        <time>2025-11-16T10:14:13Z</time>
      </trkpt>
      <trkpt lat="48.3936" lon="2.52909">
        <ele>119.7</ele>
        <time>2025-11-16T10:14:15Z</time>
      </trkpt>
      <trkpt lat="48.39354" lon="2.52914">
        <ele>119.9</ele>
        <time>2025-11-16T10:14:17Z</time>
      </trkpt>
      <trkpt lat="48.39346" lon="2.52917">
        <ele>120</ele>
        <time>2025-11-16T10:14:19Z</time>
      </trkpt>
      <trkpt lat="48.39338" lon="2.52918">
        <ele>120</ele>
        <time>2025-11-16T10:14:21Z</time>
      </trkpt>
      <trkpt lat="48.39331" lon="2.52918">
        <ele>119.9</ele>
        <time>2025-11-16T10:14:23Z</time>
      </trkpt>
      <trkpt lat="48.39324" lon="2.52919">
        <ele>119.7</ele>
        <time>2025-11-16T10:14:25Z</time>
      </trkpt>
      <trkpt lat="48.39317" lon="2.52921">
        <ele>119.5</ele>
        <time>2025-11-16T10:14:27Z</time>
      </trkpt>
      <trkpt lat="48.39311" lon="2.52925">
        <ele>119.4</ele>
        <time>2025-11-16T10:14:29Z</time>
      </trkpt>
      <trkpt lat="48.39305" lon="2.5293">
        <ele>119.4</ele>
        <time>2025-11-16T10:14:31Z</time>
      </trkpt>
      <trkpt lat="48.39299" lon="2.52934">
        <ele>119.4</ele>
        <time>2025-11-16T10:14:33Z</time>
      </trkpt>
      <trkpt lat="48.39294" lon="2.52938">
        <ele>119.4</ele>
        <time>2025-11-16T10:14:35Z</time>
      </trkpt>
      <trkpt lat="48.39289" lon="2.52941">
        <ele>119.3</ele>
        <time>2025-11-16T10:14:37Z</time>
      </trkpt>
      <trkpt lat="48.39285" lon="2.52946">
        <ele>119.2</ele>
        <time>2025-11-16T10:14:39Z</time>
      </trkpt>
      <trkpt lat="48.39279" lon="2.52947">
        <ele>119.1</ele>
        <time>2025-11-16T10:14:41Z</time>
      </trkpt>
      <trkpt lat="48.39274" lon="2.52938">
        <ele>118.6</ele>
        <time>2025-11-16T10:14:45Z</time>
      </trkpt>
      <trkpt lat="48.39276" lon="2.5293">
        <ele>118.4</ele>
        <time>2025-11-16T10:14:47Z</time>
      </trkpt>
      <trkpt lat="48.39278" lon="2.52923">
        <ele>118.2</ele>
        <time>2025-11-16T10:14:49Z</time>
      </trkpt>
      <trkpt lat="48.39281" lon="2.52914">
        <ele>118</ele>
        <time>2025-11-16T10:14:51Z</time>
      </trkpt>
      <trkpt lat="48.39284" lon="2.52903">
        <ele>117.6</ele>
        <time>2025-11-16T10:14:53Z</time>
      </trkpt>
      <trkpt lat="48.39288" lon="2.52889">
        <ele>117</ele>
        <time>2025-11-16T10:14:55Z</time>
      </trkpt>
      <trkpt lat="48.39293" lon="2.52875">
        <ele>116.4</ele>
        <time>2025-11-16T10:14:57Z</time>
      </trkpt>
      <trkpt lat="48.393" lon="2.5286">
        <ele>115.4</ele>
        <time>2025-11-16T10:14:59Z</time>
      </trkpt>
      <trkpt lat="48.39306" lon="2.52849">
        <ele>114.1</ele>
        <time>2025-11-16T10:15:01Z</time>
      </trkpt>
      <trkpt lat="48.39314" lon="2.52834">
        <ele>113.1</ele>
        <time>2025-11-16T10:15:03Z</time>
      </trkpt>
      <trkpt lat="48.39319" lon="2.52813">
        <ele>111.9</ele>
        <time>2025-11-16T10:15:05Z</time>
      </trkpt>
      <trkpt lat="48.39323" lon="2.52792">
        <ele>111</ele>
        <time>2025-11-16T10:15:07Z</time>
      </trkpt>
      <trkpt lat="48.39329" lon="2.5277">
        <ele>109.8</ele>
        <time>2025-11-16T10:15:09Z</time>
      </trkpt>
      <trkpt lat="48.39336" lon="2.52748">
        <ele>108.1</ele>
        <time>2025-11-16T10:15:11Z</time>
      </trkpt>
      <trkpt lat="48.39344" lon="2.52727">
        <ele>107.3</ele>
        <time>2025-11-16T10:15:13Z</time>
      </trkpt>
      <trkpt lat="48.39349" lon="2.52704">
        <ele>106</ele>
        <time>2025-11-16T10:15:15Z</time>
      </trkpt>
      <trkpt lat="48.39349" lon="2.5268">
        <ele>105.7</ele>
        <time>2025-11-16T10:15:17Z</time>
      </trkpt>
      <trkpt lat="48.3935" lon="2.52657">
        <ele>106.1</ele>
        <time>2025-11-16T10:15:19Z</time>
      </trkpt>
      <trkpt lat="48.39352" lon="2.52635">
        <ele>105.7</ele>
        <time>2025-11-16T10:15:21Z</time>
      </trkpt>
      <trkpt lat="48.39353" lon="2.52611">
        <ele>104.1</ele>
        <time>2025-11-16T10:15:23Z</time>
      </trkpt>
      <trkpt lat="48.39354" lon="2.52587">
        <ele>101.9</ele>
        <time>2025-11-16T10:15:25Z</time>
      </trkpt>
      <trkpt lat="48.39351" lon="2.52565">
        <ele>100.3</ele>
        <time>2025-11-16T10:15:27Z</time>
      </trkpt>
      <trkpt lat="48.39344" lon="2.52544">
        <ele>99.1</ele>
        <time>2025-11-16T10:15:29Z</time>
      </trkpt>
      <trkpt lat="48.39335" lon="2.5253">
        <ele>97.4</ele>
        <time>2025-11-16T10:15:31Z</time>
      </trkpt>
      <trkpt lat="48.39325" lon="2.52523">
        <ele>96.8</ele>
        <time>2025-11-16T10:15:33Z</time>
      </trkpt>
      <trkpt lat="48.39313" lon="2.52519">
        <ele>95.9</ele>
        <time>2025-11-16T10:15:35Z</time>
      </trkpt>
      <trkpt lat="48.39302" lon="2.52512">
        <ele>95</ele>
        <time>2025-11-16T10:15:37Z</time>
      </trkpt>
      <trkpt lat="48.39298" lon="2.52497">
        <ele>94.2</ele>
        <time>2025-11-16T10:15:39Z</time>
      </trkpt>
      <trkpt lat="48.39299" lon="2.52477">
        <ele>93.6</ele>
        <time>2025-11-16T10:15:41Z</time>
      </trkpt>
      <trkpt lat="48.393" lon="2.52453">
        <ele>92.3</ele>
        <time>2025-11-16T10:15:43Z</time>
      </trkpt>
      <trkpt lat="48.39297" lon="2.52434">
        <ele>91</ele>
        <time>2025-11-16T10:15:45Z</time>
      </trkpt>
      <trkpt lat="48.3929" lon="2.52418">
        <ele>89.9</ele>
        <time>2025-11-16T10:15:47Z</time>
      </trkpt>
      <trkpt lat="48.39289" lon="2.52403">
        <ele>90</ele>
        <time>2025-11-16T10:15:49Z</time>
      </trkpt>
      <trkpt lat="48.39292" lon="2.52388">
        <ele>90.5</ele>
        <time>2025-11-16T10:15:51Z</time>
      </trkpt>
      <trkpt lat="48.39292" lon="2.52372">
        <ele>90.5</ele>
        <time>2025-11-16T10:15:53Z</time>
      </trkpt>
      <trkpt lat="48.39293" lon="2.52357">
        <ele>90.5</ele>
        <time>2025-11-16T10:15:55Z</time>
      </trkpt>
      <trkpt lat="48.39292" lon="2.52341">
        <ele>90.2</ele>
        <time>2025-11-16T10:15:57Z</time>
      </trkpt>
      <trkpt lat="48.39291" lon="2.52327">
        <ele>89.7</ele>
        <time>2025-11-16T10:15:59Z</time>
      </trkpt>
      <trkpt lat="48.39287" lon="2.52313">
        <ele>88.7</ele>
        <time>2025-11-16T10:16:01Z</time>
      </trkpt>
      <trkpt lat="48.39282" lon="2.52298">
        <ele>87.3</ele>
        <time>2025-11-16T10:16:03Z</time>
      </trkpt>
      <trkpt lat="48.39279" lon="2.52281">
        <ele>86.3</ele>
        <time>2025-11-16T10:16:05Z</time>
      </trkpt>
      <trkpt lat="48.39278" lon="2.52266">
        <ele>85.6</ele>
        <time>2025-11-16T10:16:07Z</time>
      </trkpt>
      <trkpt lat="48.39275" lon="2.52253">
        <ele>85.3</ele>
        <time>2025-11-16T10:16:09Z</time>
      </trkpt>
      <trkpt lat="48.3927" lon="2.52237">
        <ele>85</ele>
        <time>2025-11-16T10:16:11Z</time>
      </trkpt>
      <trkpt lat="48.39263" lon="2.52227">
        <ele>84.3</ele>
        <time>2025-11-16T10:16:13Z</time>
      </trkpt>
      <trkpt lat="48.39253" lon="2.5222">
        <ele>83.2</ele>
        <time>2025-11-16T10:16:15Z</time>
      </trkpt>
      <trkpt lat="48.39242" lon="2.52216">
        <ele>82.3</ele>
        <time>2025-11-16T10:16:17Z</time>
      </trkpt>
      <trkpt lat="48.39231" lon="2.52208">
        <ele>80.9</ele>
        <time>2025-11-16T10:16:19Z</time>
      </trkpt>
      <trkpt lat="48.39221" lon="2.52197">
        <ele>79.2</ele>
        <time>2025-11-16T10:16:21Z</time>
      </trkpt>
      <trkpt lat="48.39212" lon="2.52185">
        <ele>79.1</ele>
        <time>2025-11-16T10:16:23Z</time>
      </trkpt>
      <trkpt lat="48.39202" lon="2.52175">
        <ele>78.7</ele>
        <time>2025-11-16T10:16:25Z</time>
      </trkpt>
      <trkpt lat="48.39193" lon="2.52166">
        <ele>78</ele>
        <time>2025-11-16T10:16:27Z</time>
      </trkpt>
      <trkpt lat="48.39184" lon="2.52157">
        <ele>77.9</ele>
        <time>2025-11-16T10:16:29Z</time>
      </trkpt>
      <trkpt lat="48.39176" lon="2.52149">
        <ele>77.6</ele>
        <time>2025-11-16T10:16:31Z</time>
      </trkpt>
      <trkpt lat="48.39168" lon="2.52139">
        <ele>77.1</ele>
        <time>2025-11-16T10:16:33Z</time>
      </trkpt>
      <trkpt lat="48.39162" lon="2.52126">
        <ele>77.2</ele>
        <time>2025-11-16T10:16:35Z</time>
      </trkpt>
      <trkpt lat="48.39157" lon="2.52112">
        <ele>77</ele>
        <time>2025-11-16T10:16:37Z</time>
      </trkpt>
      <trkpt lat="48.39152" lon="2.52098">
        <ele>76.5</ele>
        <time>2025-11-16T10:16:39Z</time>
      </trkpt>
      <trkpt lat="48.39145" lon="2.52084">
        <ele>75.5</ele>
        <time>2025-11-16T10:16:41Z</time>
      </trkpt>
      <trkpt lat="48.39135" lon="2.52075">
        <ele>75</ele>
        <time>2025-11-16T10:16:43Z</time>
      </trkpt>
      <trkpt lat="48.39124" lon="2.52069">
        <ele>74.7</ele>
        <time>2025-11-16T10:16:45Z</time>
      </trkpt>
      <trkpt lat="48.39113" lon="2.52064">
        <ele>74.3</ele>
        <time>2025-11-16T10:16:47Z</time>
      </trkpt>
      <trkpt lat="48.39102" lon="2.52063">
        <ele>74.3</ele>
        <time>2025-11-16T10:16:49Z</time>
      </trkpt>
      <trkpt lat="48.39092" lon="2.52064">
        <ele>74.3</ele>
        <time>2025-11-16T10:16:51Z</time>
      </trkpt>
      <trkpt lat="48.39084" lon="2.52064">
        <ele>74.3</ele>
        <time>2025-11-16T10:16:53Z</time>
      </trkpt>
      <trkpt lat="48.39074" lon="2.52065">
        <ele>74.2</ele>
        <time>2025-11-16T10:16:55Z</time>
      </trkpt>
      <trkpt lat="48.39064" lon="2.52064">
        <ele>74.1</ele>
        <time>2025-11-16T10:16:57Z</time>
      </trkpt>
      <trkpt lat="48.39054" lon="2.52063">
        <ele>74</ele>
        <time>2025-11-16T10:16:59Z</time>
      </trkpt>
      <trkpt lat="48.39045" lon="2.5206">
        <ele>74.1</ele>
        <time>2025-11-16T10:17:01Z</time>
      </trkpt>
      <trkpt lat="48.39039" lon="2.52051">
        <ele>73.9</ele>
        <time>2025-11-16T10:17:03Z</time>
      </trkpt>
      <trkpt lat="48.39036" lon="2.52039">
        <ele>73.6</ele>
        <time>2025-11-16T10:17:05Z</time>
      </trkpt>
      <trkpt lat="48.39035" lon="2.52027">
        <ele>73.3</ele>
        <time>2025-11-16T10:17:07Z</time>
      </trkpt>
      <trkpt lat="48.39032" lon="2.52014">
        <ele>73.2</ele>
        <time>2025-11-16T10:17:09Z</time>
      </trkpt>
      <trkpt lat="48.3903" lon="2.52002">
        <ele>73.1</ele>
        <time>2025-11-16T10:17:11Z</time>
      </trkpt>
      <trkpt lat="48.39027" lon="2.51989">
        <ele>72.6</ele>
        <time>2025-11-16T10:17:13Z</time>
      </trkpt>
      <trkpt lat="48.39023" lon="2.51976">
        <ele>72.1</ele>
        <time>2025-11-16T10:17:15Z</time>
      </trkpt>
      <trkpt lat="48.39019" lon="2.51963">
        <ele>72</ele>
        <time>2025-11-16T10:17:17Z</time>
      </trkpt>
      <trkpt lat="48.39018" lon="2.5195">
        <ele>72</ele>
        <time>2025-11-16T10:17:19Z</time>
      </trkpt>
      <trkpt lat="48.39017" lon="2.51937">
        <ele>72</ele>
        <time>2025-11-16T10:17:21Z</time>
      </trkpt>
      <trkpt lat="48.39012" lon="2.51922">
        <ele>72</ele>
        <time>2025-11-16T10:17:23Z</time>
      </trkpt>
      <trkpt lat="48.39007" lon="2.51908">
        <ele>71.8</ele>
        <time>2025-11-16T10:17:25Z</time>
      </trkpt>
      <trkpt lat="48.39" lon="2.51896">
        <ele>71.3</ele>
        <time>2025-11-16T10:17:27Z</time>
      </trkpt>
      <trkpt lat="48.38993" lon="2.51887">
        <ele>71</ele>
        <time>2025-11-16T10:17:29Z</time>
      </trkpt>
      <trkpt lat="48.38985" lon="2.51876">
        <ele>71</ele>
        <time>2025-11-16T10:17:31Z</time>
      </trkpt>
      <trkpt lat="48.38976" lon="2.51865">
        <ele>71</ele>
        <time>2025-11-16T10:17:33Z</time>
      </trkpt>
      <trkpt lat="48.38969" lon="2.51854">
        <ele>70.6</ele>
        <time>2025-11-16T10:17:35Z</time>
      </trkpt>
      <trkpt lat="48.38962" lon="2.51841">
        <ele>70.2</ele>
        <time>2025-11-16T10:17:37Z</time>
      </trkpt>
      <trkpt lat="48.38955" lon="2.51829">
        <ele>70</ele>
        <time>2025-11-16T10:17:39Z</time>
      </trkpt>
      <trkpt lat="48.38949" lon="2.51819">
        <ele>70</ele>
        <time>2025-11-16T10:17:41Z</time>
      </trkpt>
      <trkpt lat="48.38941" lon="2.51807">
        <ele>70</ele>
        <time>2025-11-16T10:17:43Z</time>
      </trkpt>
      <trkpt lat="48.38935" lon="2.51792">
        <ele>69.5</ele>
        <time>2025-11-16T10:17:45Z</time>
      </trkpt>
      <trkpt lat="48.38927" lon="2.51777">
        <ele>69</ele>
        <time>2025-11-16T10:17:47Z</time>
      </trkpt>
      <trkpt lat="48.38921" lon="2.51763">
        <ele>69</ele>
        <time>2025-11-16T10:17:49Z</time>
      </trkpt>
      <trkpt lat="48.38912" lon="2.51747">
        <ele>69</ele>
        <time>2025-11-16T10:17:51Z</time>
      </trkpt>
      <trkpt lat="48.38904" lon="2.5173">
        <ele>69</ele>
        <time>2025-11-16T10:17:53Z</time>
      </trkpt>
      <trkpt lat="48.38895" lon="2.51716">
        <ele>69</ele>
        <time>2025-11-16T10:17:55Z</time>
      </trkpt>
      <trkpt lat="48.38887" lon="2.517">
        <ele>69</ele>
        <time>2025-11-16T10:17:57Z</time>
      </trkpt>
      <trkpt lat="48.38878" lon="2.51685">
        <ele>69</ele>
        <time>2025-11-16T10:17:59Z</time>
      </trkpt>
      <trkpt lat="48.3887" lon="2.51669">
        <ele>69</ele>
        <time>2025-11-16T10:18:01Z</time>
      </trkpt>
      <trkpt lat="48.38861" lon="2.51654">
        <ele>69</ele>
        <time>2025-11-16T10:18:03Z</time>
      </trkpt>
      <trkpt lat="48.38854" lon="2.51642">
        <ele>69</ele>
        <time>2025-11-16T10:18:05Z</time>
      </trkpt>
      <trkpt lat="48.38847" lon="2.51629">
        <ele>69</ele>
        <time>2025-11-16T10:18:07Z</time>
      </trkpt>
      <trkpt lat="48.38841" lon="2.51614">
        <ele>69</ele>
        <time>2025-11-16T10:18:09Z</time>
      </trkpt>
      <trkpt lat="48.38835" lon="2.51603">
        <ele>69</ele>
        <time>2025-11-16T10:18:11Z</time>
      </trkpt>
      <trkpt lat="48.38827" lon="2.51603">
        <ele>69</ele>
        <time>2025-11-16T10:18:13Z</time>
      </trkpt>
      <trkpt lat="48.38826" lon="2.51609">
        <ele>69</ele>
        <time>2025-11-16T10:18:15Z</time>
      </trkpt>
      <trkpt lat="48.38825" lon="2.51617">
        <ele>69</ele>
        <time>2025-11-16T10:18:17Z</time>
      </trkpt>
      <trkpt lat="48.38826" lon="2.51628">
        <ele>69</ele>
        <time>2025-11-16T10:18:19Z</time>
      </trkpt>
      <trkpt lat="48.38825" lon="2.51637">
        <ele>69</ele>
        <time>2025-11-16T10:18:21Z</time>
      </trkpt>
      <trkpt lat="48.38823" lon="2.51645">
        <ele>69</ele>
        <time>2025-11-16T10:18:23Z</time>
      </trkpt>
      <trkpt lat="48.38822" lon="2.51653">
        <ele>69</ele>
        <time>2025-11-16T10:18:25Z</time>
      </trkpt>
      <trkpt lat="48.38818" lon="2.5166">
        <ele>69</ele>
        <time>2025-11-16T10:18:27Z</time>
      </trkpt>
      <trkpt lat="48.3882" lon="2.51669">
        <ele>69</ele>
        <time>2025-11-16T10:18:29Z</time>
      </trkpt>
      <trkpt lat="48.38819" lon="2.51679">
        <ele>68.8</ele>
        <time>2025-11-16T10:18:31Z</time>
      </trkpt>
      <trkpt lat="48.38817" lon="2.51687">
        <ele>68.5</ele>
        <time>2025-11-16T10:18:33Z</time>
      </trkpt>
      <trkpt lat="48.38812" lon="2.51692">
        <ele>68.3</ele>
        <time>2025-11-16T10:18:35Z</time>
      </trkpt>
      <trkpt lat="48.38813" lon="2.51701">
        <ele>68.3</ele>
        <time>2025-11-16T10:18:37Z</time>
      </trkpt>
      <trkpt lat="48.38814" lon="2.51711">
        <ele>68.3</ele>
        <time>2025-11-16T10:18:39Z</time>
      </trkpt>
      <trkpt lat="48.38817" lon="2.51719">
        <ele>68.4</ele>
        <time>2025-11-16T10:18:41Z</time>
      </trkpt>
      <trkpt lat="48.38818" lon="2.51727">
        <ele>68.4</ele>
        <time>2025-11-16T10:18:43Z</time>
      </trkpt>
      <trkpt lat="48.38819" lon="2.51738">
        <ele>68.2</ele>
        <time>2025-11-16T10:18:45Z</time>
      </trkpt>
      <trkpt lat="48.38818" lon="2.51748">
        <ele>68</ele>
        <time>2025-11-16T10:18:47Z</time>
      </trkpt>
      <trkpt lat="48.38818" lon="2.51757">
        <ele>68</ele>
        <time>2025-11-16T10:18:49Z</time>
      </trkpt>
      <trkpt lat="48.38818" lon="2.51768">
        <ele>68</ele>
        <time>2025-11-16T10:18:51Z</time>
      </trkpt>
      <trkpt lat="48.38818" lon="2.51777">
        <ele>68</ele>
        <time>2025-11-16T10:18:53Z</time>
      </trkpt>
      <trkpt lat="48.38816" lon="2.51788">
        <ele>68</ele>
        <time>2025-11-16T10:18:55Z</time>
      </trkpt>
      <trkpt lat="48.38814" lon="2.51797">
        <ele>68</ele>
        <time>2025-11-16T10:18:57Z</time>
      </trkpt>
      <trkpt lat="48.38812" lon="2.51807">
        <ele>68</ele>
        <time>2025-11-16T10:18:59Z</time>
      </trkpt>
      <trkpt lat="48.38813" lon="2.51822">
        <ele>68.2</ele>
        <time>2025-11-16T10:19:01Z</time>
      </trkpt>
      <trkpt lat="48.38811" lon="2.51833">
        <ele>68.2</ele>
        <time>2025-11-16T10:19:03Z</time>
      </trkpt>
      <trkpt lat="48.3881" lon="2.51843">
        <ele>68.1</ele>
        <time>2025-11-16T10:19:05Z</time>
      </trkpt>
      <trkpt lat="48.38805" lon="2.51851">
        <ele>68</ele>
        <time>2025-11-16T10:19:09Z</time>
      </trkpt>
      <trkpt lat="48.38801" lon="2.51855">
        <ele>68</ele>
        <time>2025-11-16T10:19:13Z</time>
      </trkpt>
      <trkpt lat="48.38795" lon="2.51856">
        <ele>68</ele>
        <time>2025-11-16T10:19:23Z</time>
      </trkpt>
      <trkpt lat="48.38791" lon="2.51852">
        <ele>68</ele>
        <time>2025-11-16T10:19:25Z</time>
      </trkpt>
      <trkpt lat="48.38787" lon="2.51845">
        <ele>68</ele>
        <time>2025-11-16T10:19:27Z</time>
      </trkpt>
      <trkpt lat="48.38783" lon="2.51838">
        <ele>68</ele>
        <time>2025-11-16T10:19:29Z</time>
      </trkpt>
      <trkpt lat="48.38777" lon="2.51829">
        <ele>68</ele>
        <time>2025-11-16T10:19:31Z</time>
      </trkpt>
      <trkpt lat="48.38773" lon="2.51819">
        <ele>68</ele>
        <time>2025-11-16T10:19:33Z</time>
      </trkpt>
      <trkpt lat="48.38768" lon="2.51807">
        <ele>68</ele>
        <time>2025-11-16T10:19:35Z</time>
      </trkpt>
      <trkpt lat="48.38762" lon="2.51802">
        <ele>68</ele>
        <time>2025-11-16T10:19:37Z</time>
      </trkpt>
      <trkpt lat="48.38755" lon="2.51799">
        <ele>68</ele>
        <time>2025-11-16T10:19:39Z</time>
      </trkpt>
      <trkpt lat="48.38751" lon="2.51784">
        <ele>68</ele>
        <time>2025-11-16T10:19:43Z</time>
      </trkpt>
      <trkpt lat="48.38749" lon="2.51768">
        <ele>68</ele>
        <time>2025-11-16T10:19:45Z</time>
      </trkpt>
      <trkpt lat="48.38745" lon="2.51754">
        <ele>68.2</ele>
        <time>2025-11-16T10:19:47Z</time>
      </trkpt>
      <trkpt lat="48.38739" lon="2.51744">
        <ele>68.4</ele>
        <time>2025-11-16T10:19:49Z</time>
      </trkpt>
      <trkpt lat="48.38732" lon="2.51732">
        <ele>68.6</ele>
        <time>2025-11-16T10:19:51Z</time>
      </trkpt>
      <trkpt lat="48.38726" lon="2.51722">
        <ele>68.9</ele>
        <time>2025-11-16T10:19:53Z</time>
      </trkpt>
      <trkpt lat="48.3872" lon="2.51715">
        <ele>69.1</ele>
        <time>2025-11-16T10:19:55Z</time>
      </trkpt>
      <trkpt lat="48.38715" lon="2.51708">
        <ele>69.3</ele>
        <time>2025-11-16T10:19:57Z</time>
      </trkpt>
      <trkpt lat="48.38711" lon="2.51704">
        <ele>69.4</ele>
        <time>2025-11-16T10:19:59Z</time>
      </trkpt>
      <trkpt lat="48.38706" lon="2.51699">
        <ele>69.6</ele>
        <time>2025-11-16T10:20:01Z</time>
      </trkpt>
      <trkpt lat="48.387" lon="2.51692">
        <ele>69.7</ele>
        <time>2025-11-16T10:20:03Z</time>
      </trkpt>
      <trkpt lat="48.38694" lon="2.51686">
        <ele>69.7</ele>
        <time>2025-11-16T10:20:05Z</time>
      </trkpt>
      <trkpt lat="48.38687" lon="2.51682">
        <ele>69.8</ele>
        <time>2025-11-16T10:20:07Z</time>
      </trkpt>
      <trkpt lat="48.38683" lon="2.51675">
        <ele>69.7</ele>
        <time>2025-11-16T10:20:09Z</time>
      </trkpt>
      <trkpt lat="48.38677" lon="2.51667">
        <ele>69.6</ele>
        <time>2025-11-16T10:20:11Z</time>
      </trkpt>
      <trkpt lat="48.38672" lon="2.51658">
        <ele>69.8</ele>
        <time>2025-11-16T10:20:13Z</time>
      </trkpt>
      <trkpt lat="48.38668" lon="2.51647">
        <ele>69.9</ele>
        <time>2025-11-16T10:20:15Z</time>
      </trkpt>
      <trkpt lat="48.38664" lon="2.51639">
        <ele>70</ele>
        <time>2025-11-16T10:20:17Z</time>
      </trkpt>
      <trkpt lat="48.38658" lon="2.51636">
        <ele>69.9</ele>
        <time>2025-11-16T10:20:19Z</time>
      </trkpt>
      <trkpt lat="48.38651" lon="2.51633">
        <ele>69.8</ele>
        <time>2025-11-16T10:20:21Z</time>
      </trkpt>
      <trkpt lat="48.38644" lon="2.5163">
        <ele>69.7</ele>
        <time>2025-11-16T10:20:23Z</time>
      </trkpt>
      <trkpt lat="48.38638" lon="2.51629">
        <ele>69.7</ele>
        <time>2025-11-16T10:20:25Z</time>
      </trkpt>
      <trkpt lat="48.38633" lon="2.51633">
        <ele>70</ele>
        <time>2025-11-16T10:20:27Z</time>
      </trkpt>
      <trkpt lat="48.38629" lon="2.51638">
        <ele>70.3</ele>
        <time>2025-11-16T10:20:29Z</time>
      </trkpt>
      <trkpt lat="48.38624" lon="2.51642">
        <ele>70.8</ele>
        <time>2025-11-16T10:20:31Z</time>
      </trkpt>
      <trkpt lat="48.38619" lon="2.51638">
        <ele>70.7</ele>
        <time>2025-11-16T10:20:33Z</time>
      </trkpt>
      <trkpt lat="48.38615" lon="2.51633">
        <ele>70.6</ele>
        <time>2025-11-16T10:20:35Z</time>
      </trkpt>
      <trkpt lat="48.3861" lon="2.51627">
        <ele>70.6</ele>
        <time>2025-11-16T10:20:37Z</time>
      </trkpt>
      <trkpt lat="48.38603" lon="2.51617">
        <ele>70.3</ele>
        <time>2025-11-16T10:20:39Z</time>
      </trkpt>
      <trkpt lat="48.38595" lon="2.51607">
        <ele>69.9</ele>
        <time>2025-11-16T10:20:41Z</time>
      </trkpt>
      <trkpt lat="48.38587" lon="2.51597">
        <ele>69.5</ele>
        <time>2025-11-16T10:20:43Z</time>
      </trkpt>
      <trkpt lat="48.38582" lon="2.5159">
        <ele>69.3</ele>
        <time>2025-11-16T10:20:45Z</time>
      </trkpt>
      <trkpt lat="48.38575" lon="2.51582">
        <ele>69.3</ele>
        <time>2025-11-16T10:20:47Z</time>
      </trkpt>
      <trkpt lat="48.38569" lon="2.51573">
        <ele>69.3</ele>
        <time>2025-11-16T10:20:49Z</time>
      </trkpt>
      <trkpt lat="48.38564" lon="2.51563">
        <ele>69.2</ele>
        <time>2025-11-16T10:20:51Z</time>
      </trkpt>
      <trkpt lat="48.38557" lon="2.51555">
        <ele>69</ele>
        <time>2025-11-16T10:20:53Z</time>
      </trkpt>
      <trkpt lat="48.3855" lon="2.51546">
        <ele>69.1</ele>
        <time>2025-11-16T10:20:55Z</time>
      </trkpt>
      <trkpt lat="48.38544" lon="2.51537">
        <ele>69.1</ele>
        <time>2025-11-16T10:20:57Z</time>
      </trkpt>
      <trkpt lat="48.38541" lon="2.51527">
        <ele>69</ele>
        <time>2025-11-16T10:20:59Z</time>
      </trkpt>
      <trkpt lat="48.38544" lon="2.51517">
        <ele>69</ele>
        <time>2025-11-16T10:21:01Z</time>
      </trkpt>
      <trkpt lat="48.38549" lon="2.51508">
        <ele>69</ele>
        <time>2025-11-16T10:21:03Z</time>
      </trkpt>
      <trkpt lat="48.38553" lon="2.51498">
        <ele>69</ele>
        <time>2025-11-16T10:21:05Z</time>
      </trkpt>
      <trkpt lat="48.38559" lon="2.51487">
        <ele>68.9</ele>
        <time>2025-11-16T10:21:07Z</time>
      </trkpt>
      <trkpt lat="48.38565" lon="2.51477">
        <ele>68.9</ele>
        <time>2025-11-16T10:21:09Z</time>
      </trkpt>
      <trkpt lat="48.3857" lon="2.51467">
        <ele>69.1</ele>
        <time>2025-11-16T10:21:11Z</time>
      </trkpt>
      <trkpt lat="48.38576" lon="2.51459">
        <ele>69.1</ele>
        <time>2025-11-16T10:21:13Z</time>
      </trkpt>
      <trkpt lat="48.38582" lon="2.51448">
        <ele>69.1</ele>
        <time>2025-11-16T10:21:15Z</time>
      </trkpt>
      <trkpt lat="48.38588" lon="2.51438">
        <ele>69.2</ele>
        <time>2025-11-16T10:21:17Z</time>
      </trkpt>
      <trkpt lat="48.38594" lon="2.51427">
        <ele>69.4</ele>
        <time>2025-11-16T10:21:19Z</time>
      </trkpt>
      <trkpt lat="48.386" lon="2.51418">
        <ele>69.4</ele>
        <time>2025-11-16T10:21:21Z</time>
      </trkpt>
      <trkpt lat="48.38606" lon="2.51406">
        <ele>69.6</ele>
        <time>2025-11-16T10:21:23Z</time>
      </trkpt>
      <trkpt lat="48.38612" lon="2.51396">
        <ele>69.7</ele>
        <time>2025-11-16T10:21:25Z</time>
      </trkpt>
      <trkpt lat="48.38616" lon="2.51387">
        <ele>69.8</ele>
        <time>2025-11-16T10:21:27Z</time>
      </trkpt>
      <trkpt lat="48.38623" lon="2.51377">
        <ele>69.6</ele>
        <time>2025-11-16T10:21:29Z</time>
      </trkpt>
      <trkpt lat="48.3863" lon="2.51368">
        <ele>69.3</ele>
        <time>2025-11-16T10:21:31Z</time>
      </trkpt>
      <trkpt lat="48.38637" lon="2.51358">
        <ele>69</ele>
        <time>2025-11-16T10:21:33Z</time>
      </trkpt>
      <trkpt lat="48.38644" lon="2.51347">
        <ele>68.4</ele>
        <time>2025-11-16T10:21:35Z</time>
      </trkpt>
      <trkpt lat="48.38649" lon="2.51336">
        <ele>68.1</ele>
        <time>2025-11-16T10:21:37Z</time>
      </trkpt>
      <trkpt lat="48.38654" lon="2.51327">
        <ele>68</ele>
        <time>2025-11-16T10:21:39Z</time>
      </trkpt>
      <trkpt lat="48.38658" lon="2.51317">
        <ele>68</ele>
        <time>2025-11-16T10:21:41Z</time>
      </trkpt>
      <trkpt lat="48.38662" lon="2.51314">
        <ele>68</ele>
        <time>2025-11-16T10:21:43Z</time>
      </trkpt>
      <trkpt lat="48.38666" lon="2.51309">
        <ele>68</ele>
        <time>2025-11-16T10:21:45Z</time>
      </trkpt>
      <trkpt lat="48.38664" lon="2.51302">
        <ele>68</ele>
        <time>2025-11-16T10:21:47Z</time>
      </trkpt>
      <trkpt lat="48.3866" lon="2.51295">
        <ele>68</ele>
        <time>2025-11-16T10:21:49Z</time>
      </trkpt>
      <trkpt lat="48.38657" lon="2.51287">
        <ele>68</ele>
        <time>2025-11-16T10:21:51Z</time>
      </trkpt>
      <trkpt lat="48.38651" lon="2.51277">
        <ele>68</ele>
        <time>2025-11-16T10:21:53Z</time>
      </trkpt>
      <trkpt lat="48.38646" lon="2.51267">
        <ele>68</ele>
        <time>2025-11-16T10:21:55Z</time>
      </trkpt>
      <trkpt lat="48.38641" lon="2.51258">
        <ele>68</ele>
        <time>2025-11-16T10:21:57Z</time>
      </trkpt>
      <trkpt lat="48.38635" lon="2.5125">
        <ele>68.1</ele>
        <time>2025-11-16T10:21:59Z</time>
      </trkpt>
      <trkpt lat="48.38628" lon="2.51241">
        <ele>68.4</ele>
        <time>2025-11-16T10:22:01Z</time>
      </trkpt>
      <trkpt lat="48.38621" lon="2.51232">
        <ele>68.6</ele>
        <time>2025-11-16T10:22:03Z</time>
      </trkpt>
      <trkpt lat="48.38614" lon="2.51223">
        <ele>68.9</ele>
        <time>2025-11-16T10:22:05Z</time>
      </trkpt>
      <trkpt lat="48.38608" lon="2.51215">
        <ele>69.1</ele>
        <time>2025-11-16T10:22:07Z</time>
      </trkpt>
      <trkpt lat="48.38602" lon="2.51205">
        <ele>69.3</ele>
        <time>2025-11-16T10:22:09Z</time>
      </trkpt>
      <trkpt lat="48.38598" lon="2.51195">
        <ele>69.5</ele>
        <time>2025-11-16T10:22:11Z</time>
      </trkpt>
      <trkpt lat="48.38592" lon="2.51184">
        <ele>69.3</ele>
        <time>2025-11-16T10:22:13Z</time>
      </trkpt>
      <trkpt lat="48.38586" lon="2.51174">
        <ele>69.2</ele>
        <time>2025-11-16T10:22:15Z</time>
      </trkpt>
      <trkpt lat="48.38581" lon="2.51166">
        <ele>69.2</ele>
        <time>2025-11-16T10:22:17Z</time>
      </trkpt>
      <trkpt lat="48.38575" lon="2.51155">
        <ele>69.6</ele>
        <time>2025-11-16T10:22:19Z</time>
      </trkpt>
      <trkpt lat="48.38568" lon="2.51144">
        <ele>69.7</ele>
        <time>2025-11-16T10:22:21Z</time>
      </trkpt>
      <trkpt lat="48.38561" lon="2.51133">
        <ele>69.6</ele>
        <time>2025-11-16T10:22:23Z</time>
      </trkpt>
      <trkpt lat="48.38555" lon="2.51124">
        <ele>69.5</ele>
        <time>2025-11-16T10:22:25Z</time>
      </trkpt>
      <trkpt lat="48.38549" lon="2.51116">
        <ele>69.5</ele>
        <time>2025-11-16T10:22:27Z</time>
      </trkpt>
      <trkpt lat="48.38541" lon="2.51106">
        <ele>69.4</ele>
        <time>2025-11-16T10:22:29Z</time>
      </trkpt>
      <trkpt lat="48.38541" lon="2.51092">
        <ele>69.2</ele>
        <time>2025-11-16T10:22:31Z</time>
      </trkpt>
      <trkpt lat="48.38545" lon="2.5108">
        <ele>69</ele>
        <time>2025-11-16T10:22:33Z</time>
      </trkpt>
      <trkpt lat="48.38551" lon="2.51069">
        <ele>69</ele>
        <time>2025-11-16T10:22:35Z</time>
      </trkpt>
      <trkpt lat="48.38556" lon="2.51061">
        <ele>69</ele>
        <time>2025-11-16T10:22:37Z</time>
      </trkpt>
      <trkpt lat="48.38562" lon="2.51054">
        <ele>69</ele>
        <time>2025-11-16T10:22:39Z</time>
      </trkpt>
      <trkpt lat="48.38567" lon="2.51046">
        <ele>69.2</ele>
        <time>2025-11-16T10:22:41Z</time>
      </trkpt>
      <trkpt lat="48.38572" lon="2.51038">
        <ele>69.3</ele>
        <time>2025-11-16T10:22:43Z</time>
      </trkpt>
      <trkpt lat="48.38577" lon="2.51029">
        <ele>69.2</ele>
        <time>2025-11-16T10:22:45Z</time>
      </trkpt>
      <trkpt lat="48.38583" lon="2.5102">
        <ele>69.3</ele>
        <time>2025-11-16T10:22:47Z</time>
      </trkpt>
      <trkpt lat="48.3859" lon="2.5101">
        <ele>69.5</ele>
        <time>2025-11-16T10:22:49Z</time>
      </trkpt>
      <trkpt lat="48.38597" lon="2.51001">
        <ele>69.5</ele>
        <time>2025-11-16T10:22:51Z</time>
      </trkpt>
      <trkpt lat="48.38604" lon="2.5099">
        <ele>69.4</ele>
        <time>2025-11-16T10:22:53Z</time>
      </trkpt>
      <trkpt lat="48.3861" lon="2.50981">
        <ele>69.1</ele>
        <time>2025-11-16T10:22:55Z</time>
      </trkpt>
      <trkpt lat="48.38617" lon="2.50972">
        <ele>69</ele>
        <time>2025-11-16T10:22:57Z</time>
      </trkpt>
      <trkpt lat="48.38623" lon="2.50962">
        <ele>69.2</ele>
        <time>2025-11-16T10:22:59Z</time>
      </trkpt>
      <trkpt lat="48.3863" lon="2.50952">
        <ele>69.2</ele>
        <time>2025-11-16T10:23:01Z</time>
      </trkpt>
      <trkpt lat="48.38638" lon="2.50944">
        <ele>69</ele>
        <time>2025-11-16T10:23:03Z</time>
      </trkpt>
      <trkpt lat="48.38646" lon="2.50934">
        <ele>68.7</ele>
        <time>2025-11-16T10:23:05Z</time>
      </trkpt>
      <trkpt lat="48.38654" lon="2.50924">
        <ele>68.5</ele>
        <time>2025-11-16T10:23:07Z</time>
      </trkpt>
      <trkpt lat="48.38661" lon="2.50913">
        <ele>68.3</ele>
        <time>2025-11-16T10:23:09Z</time>
      </trkpt>
      <trkpt lat="48.38669" lon="2.50903">
        <ele>68.4</ele>
        <time>2025-11-16T10:23:11Z</time>
      </trkpt>
      <trkpt lat="48.38677" lon="2.50894">
        <ele>68.5</ele>
        <time>2025-11-16T10:23:13Z</time>
      </trkpt>
      <trkpt lat="48.38685" lon="2.50883">
        <ele>68.3</ele>
        <time>2025-11-16T10:23:15Z</time>
      </trkpt>
      <trkpt lat="48.3869" lon="2.5087">
        <ele>68.2</ele>
        <time>2025-11-16T10:23:17Z</time>
      </trkpt>
      <trkpt lat="48.38693" lon="2.50855">
        <ele>68</ele>
        <time>2025-11-16T10:23:19Z</time>
      </trkpt>
      <trkpt lat="48.38692" lon="2.5084">
        <ele>68.1</ele>
        <time>2025-11-16T10:23:21Z</time>
      </trkpt>
      <trkpt lat="48.38692" lon="2.50825">
        <ele>67.8</ele>
        <time>2025-11-16T10:23:23Z</time>
      </trkpt>
      <trkpt lat="48.3869" lon="2.50811">
        <ele>67.5</ele>
        <time>2025-11-16T10:23:25Z</time>
      </trkpt>
      <trkpt lat="48.38688" lon="2.50796">
        <ele>67.4</ele>
        <time>2025-11-16T10:23:27Z</time>
      </trkpt>
      <trkpt lat="48.38684" lon="2.50783">
        <ele>67.4</ele>
        <time>2025-11-16T10:23:29Z</time>
      </trkpt>
      <trkpt lat="48.38679" lon="2.50769">
        <ele>67.5</ele>
        <time>2025-11-16T10:23:31Z</time>
      </trkpt>
      <trkpt lat="48.38675" lon="2.50757">
        <ele>67.7</ele>
        <time>2025-11-16T10:23:33Z</time>
      </trkpt>
      <trkpt lat="48.3867" lon="2.50744">
        <ele>67.9</ele>
        <time>2025-11-16T10:23:35Z</time>
      </trkpt>
      <trkpt lat="48.38665" lon="2.50731">
        <ele>68.1</ele>
        <time>2025-11-16T10:23:37Z</time>
      </trkpt>
      <trkpt lat="48.38662" lon="2.50716">
        <ele>68.3</ele>
        <time>2025-11-16T10:23:39Z</time>
      </trkpt>
      <trkpt lat="48.38657" lon="2.50702">
        <ele>68.4</ele>
        <time>2025-11-16T10:23:41Z</time>
      </trkpt>
      <trkpt lat="48.38653" lon="2.5069">
        <ele>68.5</ele>
        <time>2025-11-16T10:23:43Z</time>
      </trkpt>
      <trkpt lat="48.38649" lon="2.50676">
        <ele>68.6</ele>
        <time>2025-11-16T10:23:45Z</time>
      </trkpt>
      <trkpt lat="48.38645" lon="2.50663">
        <ele>68.8</ele>
        <time>2025-11-16T10:23:47Z</time>
      </trkpt>
      <trkpt lat="48.38641" lon="2.50652">
        <ele>68.9</ele>
        <time>2025-11-16T10:23:49Z</time>
      </trkpt>
      <trkpt lat="48.38637" lon="2.5064">
        <ele>69.1</ele>
        <time>2025-11-16T10:23:51Z</time>
      </trkpt>
      <trkpt lat="48.38633" lon="2.50629">
        <ele>69.4</ele>
        <time>2025-11-16T10:23:53Z</time>
      </trkpt>
      <trkpt lat="48.38628" lon="2.50617">
        <ele>69.5</ele>
        <time>2025-11-16T10:23:55Z</time>
      </trkpt>
      <trkpt lat="48.38624" lon="2.50602">
        <ele>69.5</ele>
        <time>2025-11-16T10:23:57Z</time>
      </trkpt>
      <trkpt lat="48.3862" lon="2.50587">
        <ele>69.7</ele>
        <time>2025-11-16T10:23:59Z</time>
      </trkpt>
      <trkpt lat="48.3862" lon="2.50575">
        <ele>69.5</ele>
        <time>2025-11-16T10:24:01Z</time>
      </trkpt>
      <trkpt lat="48.38616" lon="2.50559">
        <ele>69.1</ele>
        <time>2025-11-16T10:24:03Z</time>
      </trkpt>
      <trkpt lat="48.38613" lon="2.50543">
        <ele>69</ele>
        <time>2025-11-16T10:24:05Z</time>
      </trkpt>
      <trkpt lat="48.38609" lon="2.50527">
        <ele>69.1</ele>
        <time>2025-11-16T10:24:07Z</time>
      </trkpt>
      <trkpt lat="48.38604" lon="2.50511">
        <ele>69.2</ele>
        <time>2025-11-16T10:24:09Z</time>
      </trkpt>
      <trkpt lat="48.386" lon="2.50495">
        <ele>69.4</ele>
        <time>2025-11-16T10:24:11Z</time>
      </trkpt>
      <trkpt lat="48.38596" lon="2.50479">
        <ele>69.5</ele>
        <time>2025-11-16T10:24:13Z</time>
      </trkpt>
      <trkpt lat="48.38593" lon="2.50464">
        <ele>69.5</ele>
        <time>2025-11-16T10:24:15Z</time>
      </trkpt>
      <trkpt lat="48.3859" lon="2.50449">
        <ele>69.1</ele>
        <time>2025-11-16T10:24:17Z</time>
      </trkpt>
      <trkpt lat="48.38587" lon="2.50432">
        <ele>69</ele>
        <time>2025-11-16T10:24:19Z</time>
      </trkpt>
      <trkpt lat="48.38584" lon="2.50419">
        <ele>69</ele>
        <time>2025-11-16T10:24:21Z</time>
      </trkpt>
      <trkpt lat="48.38581" lon="2.50407">
        <ele>69.1</ele>
        <time>2025-11-16T10:24:23Z</time>
      </trkpt>
      <trkpt lat="48.38578" lon="2.5039">
        <ele>69</ele>
        <time>2025-11-16T10:24:25Z</time>
      </trkpt>
      <trkpt lat="48.38576" lon="2.50375">
        <ele>69</ele>
        <time>2025-11-16T10:24:27Z</time>
      </trkpt>
      <trkpt lat="48.38572" lon="2.50361">
        <ele>69</ele>
        <time>2025-11-16T10:24:29Z</time>
      </trkpt>
      <trkpt lat="48.38569" lon="2.50344">
        <ele>69</ele>
        <time>2025-11-16T10:24:31Z</time>
      </trkpt>
      <trkpt lat="48.38566" lon="2.5033">
        <ele>69</ele>
        <time>2025-11-16T10:24:33Z</time>
      </trkpt>
      <trkpt lat="48.3857" lon="2.50317">
        <ele>69</ele>
        <time>2025-11-16T10:24:35Z</time>
      </trkpt>
      <trkpt lat="48.38578" lon="2.50313">
        <ele>69</ele>
        <time>2025-11-16T10:24:37Z</time>
      </trkpt>
      <trkpt lat="48.38585" lon="2.50308">
        <ele>69</ele>
        <time>2025-11-16T10:24:39Z</time>
      </trkpt>
      <trkpt lat="48.38593" lon="2.50304">
        <ele>69</ele>
        <time>2025-11-16T10:24:41Z</time>
      </trkpt>
      <trkpt lat="48.38602" lon="2.50298">
        <ele>69</ele>
        <time>2025-11-16T10:24:43Z</time>
      </trkpt>
      <trkpt lat="48.3861" lon="2.50296">
        <ele>69</ele>
        <time>2025-11-16T10:24:45Z</time>
      </trkpt>
      <trkpt lat="48.3862" lon="2.50291">
        <ele>69</ele>
        <time>2025-11-16T10:24:47Z</time>
      </trkpt>
      <trkpt lat="48.3863" lon="2.50287">
        <ele>69</ele>
        <time>2025-11-16T10:24:49Z</time>
      </trkpt>
      <trkpt lat="48.38638" lon="2.50284">
        <ele>69</ele>
        <time>2025-11-16T10:24:51Z</time>
      </trkpt>
      <trkpt lat="48.38648" lon="2.50283">
        <ele>69</ele>
        <time>2025-11-16T10:24:53Z</time>
      </trkpt>
      <trkpt lat="48.38657" lon="2.50282">
        <ele>69</ele>
        <time>2025-11-16T10:24:55Z</time>
      </trkpt>
      <trkpt lat="48.38664" lon="2.50278">
        <ele>69</ele>
        <time>2025-11-16T10:24:57Z</time>
      </trkpt>
      <trkpt lat="48.38673" lon="2.50275">
        <ele>69</ele>
        <time>2025-11-16T10:24:59Z</time>
      </trkpt>
      <trkpt lat="48.38682" lon="2.50271">
        <ele>69</ele>
        <time>2025-11-16T10:25:01Z</time>
      </trkpt>
      <trkpt lat="48.38692" lon="2.50268">
        <ele>69</ele>
        <time>2025-11-16T10:25:03Z</time>
      </trkpt>
      <trkpt lat="48.38703" lon="2.50265">
        <ele>69</ele>
        <time>2025-11-16T10:25:05Z</time>
      </trkpt>
      <trkpt lat="48.38714" lon="2.50263">
        <ele>69</ele>
        <time>2025-11-16T10:25:07Z</time>
      </trkpt>
      <trkpt lat="48.38725" lon="2.50263">
        <ele>69</ele>
        <time>2025-11-16T10:25:09Z</time>
      </trkpt>
      <trkpt lat="48.38735" lon="2.50264">
        <ele>69</ele>
        <time>2025-11-16T10:25:11Z</time>
      </trkpt>
      <trkpt lat="48.38745" lon="2.50265">
        <ele>69</ele>
        <time>2025-11-16T10:25:13Z</time>
      </trkpt>
      <trkpt lat="48.38754" lon="2.50268">
        <ele>69</ele>
        <time>2025-11-16T10:25:15Z</time>
      </trkpt>
      <trkpt lat="48.38763" lon="2.5027">
        <ele>69.1</ele>
        <time>2025-11-16T10:25:17Z</time>
      </trkpt>
      <trkpt lat="48.38773" lon="2.50275">
        <ele>69.1</ele>
        <time>2025-11-16T10:25:19Z</time>
      </trkpt>
      <trkpt lat="48.38782" lon="2.5028">
        <ele>69.1</ele>
        <time>2025-11-16T10:25:21Z</time>
      </trkpt>
      <trkpt lat="48.38789" lon="2.50285">
        <ele>69.4</ele>
        <time>2025-11-16T10:25:23Z</time>
      </trkpt>
      <trkpt lat="48.38796" lon="2.50288">
        <ele>69.7</ele>
        <time>2025-11-16T10:25:25Z</time>
      </trkpt>
      <trkpt lat="48.38804" lon="2.50291">
        <ele>69.9</ele>
        <time>2025-11-16T10:25:27Z</time>
      </trkpt>
      <trkpt lat="48.38811" lon="2.50298">
        <ele>70</ele>
        <time>2025-11-16T10:25:29Z</time>
      </trkpt>
      <trkpt lat="48.38817" lon="2.50306">
        <ele>70</ele>
        <time>2025-11-16T10:25:31Z</time>
      </trkpt>
      <trkpt lat="48.38825" lon="2.50314">
        <ele>69.9</ele>
        <time>2025-11-16T10:25:33Z</time>
      </trkpt>
      <trkpt lat="48.38834" lon="2.50324">
        <ele>70</ele>
        <time>2025-11-16T10:25:35Z</time>
      </trkpt>
      <trkpt lat="48.38841" lon="2.50334">
        <ele>70</ele>
        <time>2025-11-16T10:25:37Z</time>
      </trkpt>
      <trkpt lat="48.38849" lon="2.50341">
        <ele>70</ele>
        <time>2025-11-16T10:25:39Z</time>
      </trkpt>
      <trkpt lat="48.38857" lon="2.50347">
        <ele>70</ele>
        <time>2025-11-16T10:25:41Z</time>
      </trkpt>
      <trkpt lat="48.38864" lon="2.50357">
        <ele>69.9</ele>
        <time>2025-11-16T10:25:43Z</time>
      </trkpt>
      <trkpt lat="48.38873" lon="2.50365">
        <ele>69.5</ele>
        <time>2025-11-16T10:25:45Z</time>
      </trkpt>
      <trkpt lat="48.38882" lon="2.50373">
        <ele>69.2</ele>
        <time>2025-11-16T10:25:47Z</time>
      </trkpt>
      <trkpt lat="48.3889" lon="2.50378">
        <ele>69</ele>
        <time>2025-11-16T10:25:49Z</time>
      </trkpt>
      <trkpt lat="48.38899" lon="2.50384">
        <ele>69</ele>
        <time>2025-11-16T10:25:51Z</time>
      </trkpt>
      <trkpt lat="48.38907" lon="2.50389">
        <ele>69</ele>
        <time>2025-11-16T10:25:53Z</time>
      </trkpt>
      <trkpt lat="48.38917" lon="2.50395">
        <ele>69</ele>
        <time>2025-11-16T10:25:55Z</time>
      </trkpt>
      <trkpt lat="48.38926" lon="2.50399">
        <ele>69</ele>
        <time>2025-11-16T10:25:57Z</time>
      </trkpt>
      <trkpt lat="48.38935" lon="2.50403">
        <ele>69</ele>
        <time>2025-11-16T10:25:59Z</time>
      </trkpt>
      <trkpt lat="48.38942" lon="2.50408">
        <ele>69</ele>
        <time>2025-11-16T10:26:01Z</time>
      </trkpt>
      <trkpt lat="48.38949" lon="2.50413">
        <ele>69</ele>
        <time>2025-11-16T10:26:03Z</time>
      </trkpt>
      <trkpt lat="48.38958" lon="2.50417">
        <ele>69</ele>
        <time>2025-11-16T10:26:05Z</time>
      </trkpt>
      <trkpt lat="48.38968" lon="2.50424">
        <ele>69</ele>
        <time>2025-11-16T10:26:07Z</time>
      </trkpt>
      <trkpt lat="48.38976" lon="2.5043">
        <ele>69</ele>
        <time>2025-11-16T10:26:09Z</time>
      </trkpt>
      <trkpt lat="48.38985" lon="2.50439">
        <ele>69</ele>
        <time>2025-11-16T10:26:11Z</time>
      </trkpt>
      <trkpt lat="48.38996" lon="2.50446">
        <ele>69</ele>
        <time>2025-11-16T10:26:13Z</time>
      </trkpt>
      <trkpt lat="48.39003" lon="2.50454">
        <ele>69</ele>
        <time>2025-11-16T10:26:15Z</time>
      </trkpt>
      <trkpt lat="48.39012" lon="2.50459">
        <ele>69</ele>
        <time>2025-11-16T10:26:17Z</time>
      </trkpt>
      <trkpt lat="48.3902" lon="2.50463">
        <ele>69</ele>
        <time>2025-11-16T10:26:19Z</time>
      </trkpt>
      <trkpt lat="48.39029" lon="2.50471">
        <ele>69</ele>
        <time>2025-11-16T10:26:21Z</time>
      </trkpt>
      <trkpt lat="48.39037" lon="2.50478">
        <ele>69.2</ele>
        <time>2025-11-16T10:26:23Z</time>
      </trkpt>
      <trkpt lat="48.39045" lon="2.50485">
        <ele>69.5</ele>
        <time>2025-11-16T10:26:25Z</time>
      </trkpt>
      <trkpt lat="48.39053" lon="2.50492">
        <ele>69.7</ele>
        <time>2025-11-16T10:26:27Z</time>
      </trkpt>
      <trkpt lat="48.39062" lon="2.50499">
        <ele>70</ele>
        <time>2025-11-16T10:26:29Z</time>
      </trkpt>
      <trkpt lat="48.3907" lon="2.50506">
        <ele>70.2</ele>
        <time>2025-11-16T10:26:31Z</time>
      </trkpt>
      <trkpt lat="48.39078" lon="2.50512">
        <ele>70.4</ele>
        <time>2025-11-16T10:26:33Z</time>
      </trkpt>
      <trkpt lat="48.39086" lon="2.50519">
        <ele>70.7</ele>
        <time>2025-11-16T10:26:35Z</time>
      </trkpt>
      <trkpt lat="48.39094" lon="2.50525">
        <ele>70.9</ele>
        <time>2025-11-16T10:26:37Z</time>
      </trkpt>
      <trkpt lat="48.39103" lon="2.50531">
        <ele>71</ele>
        <time>2025-11-16T10:26:39Z</time>
      </trkpt>
      <trkpt lat="48.39111" lon="2.50537">
        <ele>71</ele>
        <time>2025-11-16T10:26:41Z</time>
      </trkpt>
      <trkpt lat="48.39119" lon="2.50543">
        <ele>71</ele>
        <time>2025-11-16T10:26:43Z</time>
      </trkpt>
      <trkpt lat="48.39127" lon="2.50548">
        <ele>71</ele>
        <time>2025-11-16T10:26:45Z</time>
      </trkpt>
      <trkpt lat="48.39136" lon="2.50551">
        <ele>71</ele>
        <time>2025-11-16T10:26:47Z</time>
      </trkpt>
      <trkpt lat="48.39144" lon="2.50556">
        <ele>71</ele>
        <time>2025-11-16T10:26:49Z</time>
      </trkpt>
      <trkpt lat="48.39152" lon="2.50562">
        <ele>71.2</ele>
        <time>2025-11-16T10:26:51Z</time>
      </trkpt>
      <trkpt lat="48.39161" lon="2.50567">
        <ele>71.4</ele>
        <time>2025-11-16T10:26:53Z</time>
      </trkpt>
      <trkpt lat="48.3917" lon="2.50569">
        <ele>71.5</ele>
        <time>2025-11-16T10:26:55Z</time>
      </trkpt>
      <trkpt lat="48.39177" lon="2.50573">
        <ele>71.8</ele>
        <time>2025-11-16T10:26:57Z</time>
      </trkpt>
      <trkpt lat="48.39187" lon="2.50577">
        <ele>71.9</ele>
        <time>2025-11-16T10:26:59Z</time>
      </trkpt>
      <trkpt lat="48.39197" lon="2.50582">
        <ele>72.1</ele>
        <time>2025-11-16T10:27:01Z</time>
      </trkpt>
      <trkpt lat="48.39204" lon="2.50585">
        <ele>72.4</ele>
        <time>2025-11-16T10:27:03Z</time>
      </trkpt>
      <trkpt lat="48.39213" lon="2.50588">
        <ele>72.7</ele>
        <time>2025-11-16T10:27:05Z</time>
      </trkpt>
      <trkpt lat="48.39221" lon="2.50592">
        <ele>73</ele>
        <time>2025-11-16T10:27:07Z</time>
      </trkpt>
      <trkpt lat="48.39229" lon="2.50594">
        <ele>73.1</ele>
        <time>2025-11-16T10:27:09Z</time>
      </trkpt>
      <trkpt lat="48.39238" lon="2.50596">
        <ele>73.2</ele>
        <time>2025-11-16T10:27:11Z</time>
      </trkpt>
      <trkpt lat="48.39247" lon="2.50599">
        <ele>73.5</ele>
        <time>2025-11-16T10:27:13Z</time>
      </trkpt>
      <trkpt lat="48.39255" lon="2.50602">
        <ele>73.7</ele>
        <time>2025-11-16T10:27:15Z</time>
      </trkpt>
      <trkpt lat="48.39263" lon="2.50604">
        <ele>73.9</ele>
        <time>2025-11-16T10:27:17Z</time>
      </trkpt>
      <trkpt lat="48.39272" lon="2.50607">
        <ele>74</ele>
        <time>2025-11-16T10:27:19Z</time>
      </trkpt>
      <trkpt lat="48.3928" lon="2.5061">
        <ele>74.1</ele>
        <time>2025-11-16T10:27:21Z</time>
      </trkpt>
      <trkpt lat="48.39289" lon="2.50612">
        <ele>74.4</ele>
        <time>2025-11-16T10:27:23Z</time>
      </trkpt>
      <trkpt lat="48.39297" lon="2.50616">
        <ele>74.7</ele>
        <time>2025-11-16T10:27:25Z</time>
      </trkpt>
      <trkpt lat="48.39304" lon="2.50619">
        <ele>75</ele>
        <time>2025-11-16T10:27:27Z</time>
      </trkpt>
      <trkpt lat="48.39312" lon="2.50623">
        <ele>75.1</ele>
        <time>2025-11-16T10:27:29Z</time>
      </trkpt>
      <trkpt lat="48.3932" lon="2.50626">
        <ele>75.3</ele>
        <time>2025-11-16T10:27:31Z</time>
      </trkpt>
      <trkpt lat="48.39328" lon="2.50631">
        <ele>75.6</ele>
        <time>2025-11-16T10:27:33Z</time>
      </trkpt>
      <trkpt lat="48.39335" lon="2.50636">
        <ele>76</ele>
        <time>2025-11-16T10:27:35Z</time>
      </trkpt>
      <trkpt lat="48.39341" lon="2.50641">
        <ele>76.3</ele>
        <time>2025-11-16T10:27:37Z</time>
      </trkpt>
      <trkpt lat="48.39347" lon="2.50645">
        <ele>76.7</ele>
        <time>2025-11-16T10:27:39Z</time>
      </trkpt>
      <trkpt lat="48.39354" lon="2.5065">
        <ele>77.1</ele>
        <time>2025-11-16T10:27:41Z</time>
      </trkpt>
      <trkpt lat="48.39359" lon="2.50653">
        <ele>77.4</ele>
        <time>2025-11-16T10:27:43Z</time>
      </trkpt>
      <trkpt lat="48.39366" lon="2.50659">
        <ele>77.9</ele>
        <time>2025-11-16T10:27:45Z</time>
      </trkpt>
      <trkpt lat="48.39373" lon="2.50664">
        <ele>78.3</ele>
        <time>2025-11-16T10:27:47Z</time>
      </trkpt>
      <trkpt lat="48.39379" lon="2.50668">
        <ele>78.7</ele>
        <time>2025-11-16T10:27:49Z</time>
      </trkpt>
      <trkpt lat="48.39386" lon="2.50674">
        <ele>79.1</ele>
        <time>2025-11-16T10:27:51Z</time>
      </trkpt>
      <trkpt lat="48.39392" lon="2.50677">
        <ele>79.5</ele>
        <time>2025-11-16T10:27:53Z</time>
      </trkpt>
      <trkpt lat="48.39398" lon="2.50678">
        <ele>79.7</ele>
        <time>2025-11-16T10:27:55Z</time>
      </trkpt>
      <trkpt lat="48.39404" lon="2.50681">
        <ele>80</ele>
        <time>2025-11-16T10:27:57Z</time>
      </trkpt>
      <trkpt lat="48.3941" lon="2.50682">
        <ele>80.3</ele>
        <time>2025-11-16T10:27:59Z</time>
      </trkpt>
      <trkpt lat="48.39417" lon="2.50684">
        <ele>80.6</ele>
        <time>2025-11-16T10:28:01Z</time>
      </trkpt>
      <trkpt lat="48.39422" lon="2.50688">
        <ele>81</ele>
        <time>2025-11-16T10:28:03Z</time>
      </trkpt>
      <trkpt lat="48.39432" lon="2.50693">
        <ele>81.5</ele>
        <time>2025-11-16T10:28:07Z</time>
      </trkpt>
      <trkpt lat="48.39438" lon="2.50694">
        <ele>81.8</ele>
        <time>2025-11-16T10:28:09Z</time>
      </trkpt>
      <trkpt lat="48.39443" lon="2.50688">
        <ele>81.7</ele>
        <time>2025-11-16T10:28:11Z</time>
      </trkpt>
      <trkpt lat="48.39443" lon="2.50679">
        <ele>81.4</ele>
        <time>2025-11-16T10:28:13Z</time>
      </trkpt>
      <trkpt lat="48.39438" lon="2.50675">
        <ele>81.1</ele>
        <time>2025-11-16T10:28:15Z</time>
      </trkpt>
      <trkpt lat="48.3943" lon="2.5067">
        <ele>80.6</ele>
        <time>2025-11-16T10:28:17Z</time>
      </trkpt>
      <trkpt lat="48.39423" lon="2.50661">
        <ele>80</ele>
        <time>2025-11-16T10:28:19Z</time>
      </trkpt>
      <trkpt lat="48.39416" lon="2.5065">
        <ele>79.4</ele>
        <time>2025-11-16T10:28:21Z</time>
      </trkpt>
      <trkpt lat="48.3941" lon="2.50638">
        <ele>78.7</ele>
        <time>2025-11-16T10:28:23Z</time>
      </trkpt>
      <trkpt lat="48.39404" lon="2.50626">
        <ele>78.1</ele>
        <time>2025-11-16T10:28:25Z</time>
      </trkpt>
      <trkpt lat="48.39396" lon="2.50613">
        <ele>77.3</ele>
        <time>2025-11-16T10:28:27Z</time>
      </trkpt>
      <trkpt lat="48.3939" lon="2.50602">
        <ele>76.7</ele>
        <time>2025-11-16T10:28:29Z</time>
      </trkpt>
      <trkpt lat="48.39383" lon="2.50589">
        <ele>76</ele>
        <time>2025-11-16T10:28:31Z</time>
      </trkpt>
      <trkpt lat="48.39378" lon="2.50577">
        <ele>75.4</ele>
        <time>2025-11-16T10:28:33Z</time>
      </trkpt>
      <trkpt lat="48.39376" lon="2.50562">
        <ele>74.7</ele>
        <time>2025-11-16T10:28:35Z</time>
      </trkpt>
      <trkpt lat="48.39371" lon="2.50545">
        <ele>74</ele>
        <time>2025-11-16T10:28:37Z</time>
      </trkpt>
      <trkpt lat="48.39368" lon="2.50529">
        <ele>73.3</ele>
        <time>2025-11-16T10:28:39Z</time>
      </trkpt>
      <trkpt lat="48.39363" lon="2.50515">
        <ele>73</ele>
        <time>2025-11-16T10:28:41Z</time>
      </trkpt>
      <trkpt lat="48.39358" lon="2.50501">
        <ele>73</ele>
        <time>2025-11-16T10:28:43Z</time>
      </trkpt>
      <trkpt lat="48.39354" lon="2.50488">
        <ele>72.6</ele>
        <time>2025-11-16T10:28:45Z</time>
      </trkpt>
      <trkpt lat="48.39349" lon="2.50474">
        <ele>72.1</ele>
        <time>2025-11-16T10:28:47Z</time>
      </trkpt>
      <trkpt lat="48.39345" lon="2.50459">
        <ele>71.8</ele>
        <time>2025-11-16T10:28:49Z</time>
      </trkpt>
      <trkpt lat="48.39339" lon="2.50447">
        <ele>71.8</ele>
        <time>2025-11-16T10:28:51Z</time>
      </trkpt>
      <trkpt lat="48.39334" lon="2.50431">
        <ele>71.5</ele>
        <time>2025-11-16T10:28:53Z</time>
      </trkpt>
      <trkpt lat="48.39328" lon="2.50416">
        <ele>71</ele>
        <time>2025-11-16T10:28:55Z</time>
      </trkpt>
      <trkpt lat="48.39324" lon="2.50401">
        <ele>70.4</ele>
        <time>2025-11-16T10:28:57Z</time>
      </trkpt>
      <trkpt lat="48.3932" lon="2.50386">
        <ele>69.9</ele>
        <time>2025-11-16T10:28:59Z</time>
      </trkpt>
      <trkpt lat="48.39316" lon="2.50371">
        <ele>69.4</ele>
        <time>2025-11-16T10:29:01Z</time>
      </trkpt>
      <trkpt lat="48.39312" lon="2.50358">
        <ele>69</ele>
        <time>2025-11-16T10:29:03Z</time>
      </trkpt>
      <trkpt lat="48.39307" lon="2.50344">
        <ele>69</ele>
        <time>2025-11-16T10:29:05Z</time>
      </trkpt>
      <trkpt lat="48.39302" lon="2.50329">
        <ele>69</ele>
        <time>2025-11-16T10:29:07Z</time>
      </trkpt>
      <trkpt lat="48.39296" lon="2.50315">
        <ele>69</ele>
        <time>2025-11-16T10:29:09Z</time>
      </trkpt>
      <trkpt lat="48.39293" lon="2.50298">
        <ele>69</ele>
        <time>2025-11-16T10:29:11Z</time>
      </trkpt>
      <trkpt lat="48.39294" lon="2.50281">
        <ele>69</ele>
        <time>2025-11-16T10:29:13Z</time>
      </trkpt>
      <trkpt lat="48.39301" lon="2.50272">
        <ele>69</ele>
        <time>2025-11-16T10:29:15Z</time>
      </trkpt>
      <trkpt lat="48.3931" lon="2.50262">
        <ele>69</ele>
        <time>2025-11-16T10:29:17Z</time>
      </trkpt>
      <trkpt lat="48.39318" lon="2.50252">
        <ele>69</ele>
        <time>2025-11-16T10:29:19Z</time>
      </trkpt>
      <trkpt lat="48.39327" lon="2.50241">
        <ele>69</ele>
        <time>2025-11-16T10:29:21Z</time>
      </trkpt>
      <trkpt lat="48.39335" lon="2.50232">
        <ele>69</ele>
        <time>2025-11-16T10:29:23Z</time>
      </trkpt>
      <trkpt lat="48.39344" lon="2.50222">
        <ele>69</ele>
        <time>2025-11-16T10:29:25Z</time>
      </trkpt>
      <trkpt lat="48.39353" lon="2.50215">
        <ele>69</ele>
        <time>2025-11-16T10:29:27Z</time>
      </trkpt>
      <trkpt lat="48.39361" lon="2.50206">
        <ele>69</ele>
        <time>2025-11-16T10:29:29Z</time>
      </trkpt>
      <trkpt lat="48.39368" lon="2.502">
        <ele>69</ele>
        <time>2025-11-16T10:29:31Z</time>
      </trkpt>
      <trkpt lat="48.39374" lon="2.50191">
        <ele>69</ele>
        <time>2025-11-16T10:29:33Z</time>
      </trkpt>
      <trkpt lat="48.39376" lon="2.50182">
        <ele>69</ele>
        <time>2025-11-16T10:29:35Z</time>
      </trkpt>
      <trkpt lat="48.39375" lon="2.50173">
        <ele>69</ele>
        <time>2025-11-16T10:29:37Z</time>
      </trkpt>
      <trkpt lat="48.39379" lon="2.50166">
        <ele>69</ele>
        <time>2025-11-16T10:29:39Z</time>
      </trkpt>
      <trkpt lat="48.39384" lon="2.50159">
        <ele>69</ele>
        <time>2025-11-16T10:29:41Z</time>
      </trkpt>
      <trkpt lat="48.39388" lon="2.50149">
        <ele>69</ele>
        <time>2025-11-16T10:29:43Z</time>
      </trkpt>
      <trkpt lat="48.39396" lon="2.50149">
        <ele>69</ele>
        <time>2025-11-16T10:29:45Z</time>
      </trkpt>
      <trkpt lat="48.39401" lon="2.50138">
        <ele>69</ele>
        <time>2025-11-16T10:29:49Z</time>
      </trkpt>
      <trkpt lat="48.39406" lon="2.50131">
        <ele>69</ele>
        <time>2025-11-16T10:29:51Z</time>
      </trkpt>
      <trkpt lat="48.39411" lon="2.50121">
        <ele>69</ele>
        <time>2025-11-16T10:29:53Z</time>
      </trkpt>
      <trkpt lat="48.39415" lon="2.50113">
        <ele>69</ele>
        <time>2025-11-16T10:29:55Z</time>
      </trkpt>
      <trkpt lat="48.39421" lon="2.50106">
        <ele>69</ele>
        <time>2025-11-16T10:29:57Z</time>
      </trkpt>
      <trkpt lat="48.39425" lon="2.50098">
        <ele>69</ele>
        <time>2025-11-16T10:29:59Z</time>
      </trkpt>
      <trkpt lat="48.39428" lon="2.50086">
        <ele>69</ele>
        <time>2025-11-16T10:30:01Z</time>
      </trkpt>
      <trkpt lat="48.39432" lon="2.50078">
        <ele>69</ele>
        <time>2025-11-16T10:30:03Z</time>
      </trkpt>
      <trkpt lat="48.39437" lon="2.50078">
        <ele>69</ele>
        <time>2025-11-16T10:30:05Z</time>
      </trkpt>
      <trkpt lat="48.39442" lon="2.50077">
        <ele>69</ele>
        <time>2025-11-16T10:30:07Z</time>
      </trkpt>
      <trkpt lat="48.39447" lon="2.50074">
        <ele>69</ele>
        <time>2025-11-16T10:30:09Z</time>
      </trkpt>
      <trkpt lat="48.39453" lon="2.50065">
        <ele>69</ele>
        <time>2025-11-16T10:30:11Z</time>
      </trkpt>
      <trkpt lat="48.3946" lon="2.50061">
        <ele>69</ele>
        <time>2025-11-16T10:30:13Z</time>
      </trkpt>
      <trkpt lat="48.39466" lon="2.50053">
        <ele>68.9</ele>
        <time>2025-11-16T10:30:15Z</time>
      </trkpt>
      <trkpt lat="48.3947" lon="2.50042">
        <ele>68.5</ele>
        <time>2025-11-16T10:30:17Z</time>
      </trkpt>
      <trkpt lat="48.39476" lon="2.50035">
        <ele>68.2</ele>
        <time>2025-11-16T10:30:19Z</time>
      </trkpt>
      <trkpt lat="48.39481" lon="2.50031">
        <ele>68.1</ele>
        <time>2025-11-16T10:30:21Z</time>
      </trkpt>
      <trkpt lat="48.39486" lon="2.50022">
        <ele>68</ele>
        <time>2025-11-16T10:30:23Z</time>
      </trkpt>
      <trkpt lat="48.39492" lon="2.50017">
        <ele>68</ele>
        <time>2025-11-16T10:30:25Z</time>
      </trkpt>
      <trkpt lat="48.39498" lon="2.50011">
        <ele>68</ele>
        <time>2025-11-16T10:30:27Z</time>
      </trkpt>
      <trkpt lat="48.39506" lon="2.5">
        <ele>68</ele>
        <time>2025-11-16T10:30:29Z</time>
      </trkpt>
      <trkpt lat="48.39512" lon="2.49995">
        <ele>68</ele>
        <time>2025-11-16T10:30:31Z</time>
      </trkpt>
      <trkpt lat="48.39518" lon="2.4999">
        <ele>68</ele>
        <time>2025-11-16T10:30:33Z</time>
      </trkpt>
      <trkpt lat="48.39524" lon="2.49983">
        <ele>68</ele>
        <time>2025-11-16T10:30:35Z</time>
      </trkpt>
      <trkpt lat="48.39528" lon="2.49975">
        <ele>68</ele>
        <time>2025-11-16T10:30:37Z</time>
      </trkpt>
      <trkpt lat="48.39535" lon="2.4997">
        <ele>68</ele>
        <time>2025-11-16T10:30:39Z</time>
      </trkpt>
      <trkpt lat="48.39543" lon="2.49959">
        <ele>68</ele>
        <time>2025-11-16T10:30:43Z</time>
      </trkpt>
      <trkpt lat="48.39547" lon="2.49953">
        <ele>68</ele>
        <time>2025-11-16T10:30:45Z</time>
      </trkpt>
      <trkpt lat="48.39552" lon="2.49948">
        <ele>68</ele>
        <time>2025-11-16T10:30:47Z</time>
      </trkpt>
      <trkpt lat="48.39553" lon="2.49941">
        <ele>68</ele>
        <time>2025-11-16T10:30:49Z</time>
      </trkpt>
      <trkpt lat="48.39553" lon="2.49933">
        <ele>68</ele>
        <time>2025-11-16T10:30:51Z</time>
      </trkpt>
      <trkpt lat="48.39548" lon="2.49929">
        <ele>68</ele>
        <time>2025-11-16T10:30:53Z</time>
      </trkpt>
      <trkpt lat="48.39542" lon="2.49924">
        <ele>68</ele>
        <time>2025-11-16T10:30:55Z</time>
      </trkpt>
      <trkpt lat="48.39535" lon="2.4992">
        <ele>68</ele>
        <time>2025-11-16T10:30:57Z</time>
      </trkpt>
      <trkpt lat="48.39529" lon="2.49913">
        <ele>68</ele>
        <time>2025-11-16T10:30:59Z</time>
      </trkpt>
      <trkpt lat="48.39521" lon="2.49907">
        <ele>68</ele>
        <time>2025-11-16T10:31:01Z</time>
      </trkpt>
      <trkpt lat="48.39514" lon="2.499">
        <ele>68</ele>
        <time>2025-11-16T10:31:03Z</time>
      </trkpt>
      <trkpt lat="48.39509" lon="2.49892">
        <ele>68</ele>
        <time>2025-11-16T10:31:05Z</time>
      </trkpt>
      <trkpt lat="48.39504" lon="2.49882">
        <ele>68</ele>
        <time>2025-11-16T10:31:07Z</time>
      </trkpt>
      <trkpt lat="48.395" lon="2.49872">
        <ele>68</ele>
        <time>2025-11-16T10:31:09Z</time>
      </trkpt>
      <trkpt lat="48.39494" lon="2.49863">
        <ele>68</ele>
        <time>2025-11-16T10:31:11Z</time>
      </trkpt>
      <trkpt lat="48.39488" lon="2.49855">
        <ele>68</ele>
        <time>2025-11-16T10:31:13Z</time>
      </trkpt>
      <trkpt lat="48.39483" lon="2.49846">
        <ele>68</ele>
        <time>2025-11-16T10:31:15Z</time>
      </trkpt>
      <trkpt lat="48.39478" lon="2.49836">
        <ele>68</ele>
        <time>2025-11-16T10:31:17Z</time>
      </trkpt>
      <trkpt lat="48.39474" lon="2.49827">
        <ele>68</ele>
        <time>2025-11-16T10:31:19Z</time>
      </trkpt>
      <trkpt lat="48.39469" lon="2.49818">
        <ele>68</ele>
        <time>2025-11-16T10:31:21Z</time>
      </trkpt>
      <trkpt lat="48.39464" lon="2.49808">
        <ele>68</ele>
        <time>2025-11-16T10:31:23Z</time>
      </trkpt>
      <trkpt lat="48.39458" lon="2.49799">
        <ele>68</ele>
        <time>2025-11-16T10:31:25Z</time>
      </trkpt>
      <trkpt lat="48.39452" lon="2.49789">
        <ele>68</ele>
        <time>2025-11-16T10:31:27Z</time>
      </trkpt>
      <trkpt lat="48.39447" lon="2.4978">
        <ele>68</ele>
        <time>2025-11-16T10:31:29Z</time>
      </trkpt>
      <trkpt lat="48.3944" lon="2.4977">
        <ele>68</ele>
        <time>2025-11-16T10:31:31Z</time>
      </trkpt>
      <trkpt lat="48.39433" lon="2.4976">
        <ele>68</ele>
        <time>2025-11-16T10:31:33Z</time>
      </trkpt>
      <trkpt lat="48.39426" lon="2.49751">
        <ele>68</ele>
        <time>2025-11-16T10:31:35Z</time>
      </trkpt>
      <trkpt lat="48.39419" lon="2.4974">
        <ele>68</ele>
        <time>2025-11-16T10:31:37Z</time>
      </trkpt>
      <trkpt lat="48.39413" lon="2.49731">
        <ele>68</ele>
        <time>2025-11-16T10:31:39Z</time>
      </trkpt>
      <trkpt lat="48.39406" lon="2.4972">
        <ele>67.9</ele>
        <time>2025-11-16T10:31:41Z</time>
      </trkpt>
      <trkpt lat="48.39398" lon="2.49709">
        <ele>67.5</ele>
        <time>2025-11-16T10:31:43Z</time>
      </trkpt>
      <trkpt lat="48.3939" lon="2.49697">
        <ele>67.1</ele>
        <time>2025-11-16T10:31:45Z</time>
      </trkpt>
      <trkpt lat="48.39383" lon="2.49686">
        <ele>67.2</ele>
        <time>2025-11-16T10:31:47Z</time>
      </trkpt>
      <trkpt lat="48.39376" lon="2.49675">
        <ele>67.5</ele>
        <time>2025-11-16T10:31:49Z</time>
      </trkpt>
      <trkpt lat="48.39369" lon="2.49665">
        <ele>67.7</ele>
        <time>2025-11-16T10:31:51Z</time>
      </trkpt>
      <trkpt lat="48.3936" lon="2.49653">
        <ele>67.5</ele>
        <time>2025-11-16T10:31:53Z</time>
      </trkpt>
      <trkpt lat="48.39352" lon="2.49642">
        <ele>67.4</ele>
        <time>2025-11-16T10:31:55Z</time>
      </trkpt>
      <trkpt lat="48.39345" lon="2.4963">
        <ele>67.4</ele>
        <time>2025-11-16T10:31:57Z</time>
      </trkpt>
      <trkpt lat="48.39337" lon="2.49621">
        <ele>67.3</ele>
        <time>2025-11-16T10:31:59Z</time>
      </trkpt>
      <trkpt lat="48.3933" lon="2.49611">
        <ele>67.1</ele>
        <time>2025-11-16T10:32:01Z</time>
      </trkpt>
      <trkpt lat="48.39323" lon="2.496">
        <ele>67.2</ele>
        <time>2025-11-16T10:32:03Z</time>
      </trkpt>
      <trkpt lat="48.39315" lon="2.49588">
        <ele>67.1</ele>
        <time>2025-11-16T10:32:05Z</time>
      </trkpt>
      <trkpt lat="48.39306" lon="2.49576">
        <ele>67</ele>
        <time>2025-11-16T10:32:07Z</time>
      </trkpt>
      <trkpt lat="48.39299" lon="2.49566">
        <ele>67.1</ele>
        <time>2025-11-16T10:32:09Z</time>
      </trkpt>
      <trkpt lat="48.39291" lon="2.49555">
        <ele>67</ele>
        <time>2025-11-16T10:32:11Z</time>
      </trkpt>
      <trkpt lat="48.39283" lon="2.49544">
        <ele>67</ele>
        <time>2025-11-16T10:32:13Z</time>
      </trkpt>
      <trkpt lat="48.39274" lon="2.49533">
        <ele>67</ele>
        <time>2025-11-16T10:32:15Z</time>
      </trkpt>
      <trkpt lat="48.39266" lon="2.49524">
        <ele>67</ele>
        <time>2025-11-16T10:32:17Z</time>
      </trkpt>
      <trkpt lat="48.39257" lon="2.49516">
        <ele>67</ele>
        <time>2025-11-16T10:32:19Z</time>
      </trkpt>
      <trkpt lat="48.39249" lon="2.49507">
        <ele>67</ele>
        <time>2025-11-16T10:32:21Z</time>
      </trkpt>
      <trkpt lat="48.39242" lon="2.49496">
        <ele>67.3</ele>
        <time>2025-11-16T10:32:23Z</time>
      </trkpt>
      <trkpt lat="48.39237" lon="2.49484">
        <ele>67.2</ele>
        <time>2025-11-16T10:32:25Z</time>
      </trkpt>
      <trkpt lat="48.39235" lon="2.49468">
        <ele>67</ele>
        <time>2025-11-16T10:32:27Z</time>
      </trkpt>
      <trkpt lat="48.39232" lon="2.49451">
        <ele>67</ele>
        <time>2025-11-16T10:32:29Z</time>
      </trkpt>
      <trkpt lat="48.3923" lon="2.49435">
        <ele>67</ele>
        <time>2025-11-16T10:32:31Z</time>
      </trkpt>
      <trkpt lat="48.39228" lon="2.49418">
        <ele>67</ele>
        <time>2025-11-16T10:32:33Z</time>
      </trkpt>
      <trkpt lat="48.39227" lon="2.49402">
        <ele>66.9</ele>
        <time>2025-11-16T10:32:35Z</time>
      </trkpt>
      <trkpt lat="48.39225" lon="2.49385">
        <ele>66.9</ele>
        <time>2025-11-16T10:32:37Z</time>
      </trkpt>
      <trkpt lat="48.39225" lon="2.49369">
        <ele>67</ele>
        <time>2025-11-16T10:32:39Z</time>
      </trkpt>
      <trkpt lat="48.39223" lon="2.49353">
        <ele>67</ele>
        <time>2025-11-16T10:32:41Z</time>
      </trkpt>
      <trkpt lat="48.39222" lon="2.49336">
        <ele>67</ele>
        <time>2025-11-16T10:32:43Z</time>
      </trkpt>
      <trkpt lat="48.39221" lon="2.4932">
        <ele>67</ele>
        <time>2025-11-16T10:32:45Z</time>
      </trkpt>
      <trkpt lat="48.39219" lon="2.49303">
        <ele>67.1</ele>
        <time>2025-11-16T10:32:47Z</time>
      </trkpt>
      <trkpt lat="48.39217" lon="2.49288">
        <ele>67.2</ele>
        <time>2025-11-16T10:32:49Z</time>
      </trkpt>
      <trkpt lat="48.39216" lon="2.49273">
        <ele>67.2</ele>
        <time>2025-11-16T10:32:51Z</time>
      </trkpt>
      <trkpt lat="48.39213" lon="2.49257">
        <ele>67.3</ele>
        <time>2025-11-16T10:32:53Z</time>
      </trkpt>
      <trkpt lat="48.3921" lon="2.49241">
        <ele>67.5</ele>
        <time>2025-11-16T10:32:55Z</time>
      </trkpt>
      <trkpt lat="48.39207" lon="2.49225">
        <ele>67.6</ele>
        <time>2025-11-16T10:32:57Z</time>
      </trkpt>
      <trkpt lat="48.39204" lon="2.49207">
        <ele>67.6</ele>
        <time>2025-11-16T10:32:59Z</time>
      </trkpt>
      <trkpt lat="48.39202" lon="2.4919">
        <ele>67.6</ele>
        <time>2025-11-16T10:33:01Z</time>
      </trkpt>
      <trkpt lat="48.39199" lon="2.49174">
        <ele>67.2</ele>
        <time>2025-11-16T10:33:03Z</time>
      </trkpt>
      <trkpt lat="48.39197" lon="2.49156">
        <ele>67</ele>
        <time>2025-11-16T10:33:05Z</time>
      </trkpt>
      <trkpt lat="48.39194" lon="2.49139">
        <ele>67</ele>
        <time>2025-11-16T10:33:07Z</time>
      </trkpt>
      <trkpt lat="48.39192" lon="2.49123">
        <ele>67</ele>
        <time>2025-11-16T10:33:09Z</time>
      </trkpt>
      <trkpt lat="48.3919" lon="2.49106">
        <ele>67</ele>
        <time>2025-11-16T10:33:11Z</time>
      </trkpt>
      <trkpt lat="48.39187" lon="2.49089">
        <ele>67</ele>
        <time>2025-11-16T10:33:13Z</time>
      </trkpt>
      <trkpt lat="48.39184" lon="2.49072">
        <ele>67</ele>
        <time>2025-11-16T10:33:15Z</time>
      </trkpt>
      <trkpt lat="48.39182" lon="2.49055">
        <ele>67</ele>
        <time>2025-11-16T10:33:17Z</time>
      </trkpt>
      <trkpt lat="48.39179" lon="2.49039">
        <ele>67</ele>
        <time>2025-11-16T10:33:19Z</time>
      </trkpt>
      <trkpt lat="48.39176" lon="2.49023">
        <ele>66.9</ele>
        <time>2025-11-16T10:33:21Z</time>
      </trkpt>
      <trkpt lat="48.39172" lon="2.49007">
        <ele>66.4</ele>
        <time>2025-11-16T10:33:23Z</time>
      </trkpt>
      <trkpt lat="48.39169" lon="2.48991">
        <ele>66.1</ele>
        <time>2025-11-16T10:33:25Z</time>
      </trkpt>
      <trkpt lat="48.39167" lon="2.48977">
        <ele>66</ele>
        <time>2025-11-16T10:33:27Z</time>
      </trkpt>
      <trkpt lat="48.39164" lon="2.48963">
        <ele>66.1</ele>
        <time>2025-11-16T10:33:29Z</time>
      </trkpt>
      <trkpt lat="48.3916" lon="2.48948">
        <ele>66</ele>
        <time>2025-11-16T10:33:31Z</time>
      </trkpt>
      <trkpt lat="48.39158" lon="2.48934">
        <ele>66</ele>
        <time>2025-11-16T10:33:33Z</time>
      </trkpt>
      <trkpt lat="48.39159" lon="2.4892">
        <ele>66</ele>
        <time>2025-11-16T10:33:35Z</time>
      </trkpt>
      <trkpt lat="48.39165" lon="2.48907">
        <ele>66</ele>
        <time>2025-11-16T10:33:37Z</time>
      </trkpt>
      <trkpt lat="48.39172" lon="2.48897">
        <ele>66.2</ele>
        <time>2025-11-16T10:33:39Z</time>
      </trkpt>
      <trkpt lat="48.39179" lon="2.48885">
        <ele>66.4</ele>
        <time>2025-11-16T10:33:41Z</time>
      </trkpt>
      <trkpt lat="48.39187" lon="2.48873">
        <ele>66.3</ele>
        <time>2025-11-16T10:33:43Z</time>
      </trkpt>
      <trkpt lat="48.39195" lon="2.4886">
        <ele>66</ele>
        <time>2025-11-16T10:33:45Z</time>
      </trkpt>
      <trkpt lat="48.39202" lon="2.48847">
        <ele>66</ele>
        <time>2025-11-16T10:33:47Z</time>
      </trkpt>
      <trkpt lat="48.3921" lon="2.48835">
        <ele>66</ele>
        <time>2025-11-16T10:33:49Z</time>
      </trkpt>
      <trkpt lat="48.39217" lon="2.48822">
        <ele>66</ele>
        <time>2025-11-16T10:33:51Z</time>
      </trkpt>
      <trkpt lat="48.39223" lon="2.4881">
        <ele>66</ele>
        <time>2025-11-16T10:33:53Z</time>
      </trkpt>
      <trkpt lat="48.39229" lon="2.48797">
        <ele>66</ele>
        <time>2025-11-16T10:33:55Z</time>
      </trkpt>
      <trkpt lat="48.39227" lon="2.48783">
        <ele>66</ele>
        <time>2025-11-16T10:33:57Z</time>
      </trkpt>
      <trkpt lat="48.3922" lon="2.48771">
        <ele>66</ele>
        <time>2025-11-16T10:33:59Z</time>
      </trkpt>
      <trkpt lat="48.39212" lon="2.48759">
        <ele>66</ele>
        <time>2025-11-16T10:34:01Z</time>
      </trkpt>
      <trkpt lat="48.39204" lon="2.48747">
        <ele>66.1</ele>
        <time>2025-11-16T10:34:03Z</time>
      </trkpt>
      <trkpt lat="48.39198" lon="2.48736">
        <ele>66.5</ele>
        <time>2025-11-16T10:34:05Z</time>
      </trkpt>
      <trkpt lat="48.39191" lon="2.48723">
        <ele>67</ele>
        <time>2025-11-16T10:34:07Z</time>
      </trkpt>
      <trkpt lat="48.39183" lon="2.4871">
        <ele>67</ele>
        <time>2025-11-16T10:34:09Z</time>
      </trkpt>
      <trkpt lat="48.39176" lon="2.48699">
        <ele>67</ele>
        <time>2025-11-16T10:34:11Z</time>
      </trkpt>
      <trkpt lat="48.39169" lon="2.48689">
        <ele>67</ele>
        <time>2025-11-16T10:34:13Z</time>
      </trkpt>
      <trkpt lat="48.39161" lon="2.48675">
        <ele>67.1</ele>
        <time>2025-11-16T10:34:15Z</time>
      </trkpt>
      <trkpt lat="48.39154" lon="2.48661">
        <ele>67.5</ele>
        <time>2025-11-16T10:34:17Z</time>
      </trkpt>
      <trkpt lat="48.39145" lon="2.48648">
        <ele>67.8</ele>
        <time>2025-11-16T10:34:19Z</time>
      </trkpt>
      <trkpt lat="48.39138" lon="2.48636">
        <ele>67.9</ele>
        <time>2025-11-16T10:34:21Z</time>
      </trkpt>
      <trkpt lat="48.39131" lon="2.48622">
        <ele>67.3</ele>
        <time>2025-11-16T10:34:23Z</time>
      </trkpt>
      <trkpt lat="48.39123" lon="2.4861">
        <ele>67</ele>
        <time>2025-11-16T10:34:25Z</time>
      </trkpt>
      <trkpt lat="48.39115" lon="2.48597">
        <ele>67</ele>
        <time>2025-11-16T10:34:27Z</time>
      </trkpt>
      <trkpt lat="48.39108" lon="2.48583">
        <ele>67</ele>
        <time>2025-11-16T10:34:29Z</time>
      </trkpt>
      <trkpt lat="48.391" lon="2.4857">
        <ele>67</ele>
        <time>2025-11-16T10:34:31Z</time>
      </trkpt>
      <trkpt lat="48.39093" lon="2.48557">
        <ele>67</ele>
        <time>2025-11-16T10:34:33Z</time>
      </trkpt>
      <trkpt lat="48.39086" lon="2.48545">
        <ele>67</ele>
        <time>2025-11-16T10:34:35Z</time>
      </trkpt>
      <trkpt lat="48.39079" lon="2.48532">
        <ele>67</ele>
        <time>2025-11-16T10:34:37Z</time>
      </trkpt>
      <trkpt lat="48.39071" lon="2.4852">
        <ele>67</ele>
        <time>2025-11-16T10:34:39Z</time>
      </trkpt>
      <trkpt lat="48.39064" lon="2.48507">
        <ele>67</ele>
        <time>2025-11-16T10:34:41Z</time>
      </trkpt>
      <trkpt lat="48.39057" lon="2.48492">
        <ele>66.7</ele>
        <time>2025-11-16T10:34:43Z</time>
      </trkpt>
      <trkpt lat="48.3905" lon="2.48479">
        <ele>66.2</ele>
        <time>2025-11-16T10:34:45Z</time>
      </trkpt>
      <trkpt lat="48.39044" lon="2.48466">
        <ele>66</ele>
        <time>2025-11-16T10:34:47Z</time>
      </trkpt>
      <trkpt lat="48.39038" lon="2.48454">
        <ele>66</ele>
        <time>2025-11-16T10:34:49Z</time>
      </trkpt>
      <trkpt lat="48.39032" lon="2.48443">
        <ele>66</ele>
        <time>2025-11-16T10:34:51Z</time>
      </trkpt>
      <trkpt lat="48.39027" lon="2.48431">
        <ele>66</ele>
        <time>2025-11-16T10:34:53Z</time>
      </trkpt>
      <trkpt lat="48.3902" lon="2.48419">
        <ele>66</ele>
        <time>2025-11-16T10:34:55Z</time>
      </trkpt>
      <trkpt lat="48.39014" lon="2.48407">
        <ele>66</ele>
        <time>2025-11-16T10:34:57Z</time>
      </trkpt>
      <trkpt lat="48.39007" lon="2.48394">
        <ele>66</ele>
        <time>2025-11-16T10:34:59Z</time>
      </trkpt>
      <trkpt lat="48.39" lon="2.4838">
        <ele>66</ele>
        <time>2025-11-16T10:35:01Z</time>
      </trkpt>
      <trkpt lat="48.38993" lon="2.48367">
        <ele>66</ele>
        <time>2025-11-16T10:35:03Z</time>
      </trkpt>
      <trkpt lat="48.38986" lon="2.48353">
        <ele>66</ele>
        <time>2025-11-16T10:35:05Z</time>
      </trkpt>
      <trkpt lat="48.3898" lon="2.48339">
        <ele>66</ele>
        <time>2025-11-16T10:35:07Z</time>
      </trkpt>
      <trkpt lat="48.38973" lon="2.48325">
        <ele>66</ele>
        <time>2025-11-16T10:35:09Z</time>
      </trkpt>
      <trkpt lat="48.38966" lon="2.48312">
        <ele>66</ele>
        <time>2025-11-16T10:35:11Z</time>
      </trkpt>
      <trkpt lat="48.38959" lon="2.48299">
        <ele>66</ele>
        <time>2025-11-16T10:35:13Z</time>
      </trkpt>
      <trkpt lat="48.38952" lon="2.48287">
        <ele>66</ele>
        <time>2025-11-16T10:35:15Z</time>
      </trkpt>
      <trkpt lat="48.38946" lon="2.48275">
        <ele>66</ele>
        <time>2025-11-16T10:35:17Z</time>
      </trkpt>
      <trkpt lat="48.38937" lon="2.48262">
        <ele>66</ele>
        <time>2025-11-16T10:35:19Z</time>
      </trkpt>
      <trkpt lat="48.38929" lon="2.48247">
        <ele>66</ele>
        <time>2025-11-16T10:35:21Z</time>
      </trkpt>
      <trkpt lat="48.38921" lon="2.48233">
        <ele>66</ele>
        <time>2025-11-16T10:35:23Z</time>
      </trkpt>
      <trkpt lat="48.38913" lon="2.48222">
        <ele>66</ele>
        <time>2025-11-16T10:35:25Z</time>
      </trkpt>
      <trkpt lat="48.38908" lon="2.4821">
        <ele>66</ele>
        <time>2025-11-16T10:35:27Z</time>
      </trkpt>
      <trkpt lat="48.389" lon="2.48197">
        <ele>66</ele>
        <time>2025-11-16T10:35:29Z</time>
      </trkpt>
      <trkpt lat="48.38898" lon="2.48182">
        <ele>66</ele>
        <time>2025-11-16T10:35:31Z</time>
      </trkpt>
      <trkpt lat="48.38902" lon="2.48169">
        <ele>66</ele>
        <time>2025-11-16T10:35:33Z</time>
      </trkpt>
      <trkpt lat="48.3891" lon="2.48161">
        <ele>66</ele>
        <time>2025-11-16T10:35:35Z</time>
      </trkpt>
      <trkpt lat="48.38917" lon="2.48153">
        <ele>66</ele>
        <time>2025-11-16T10:35:37Z</time>
      </trkpt>
      <trkpt lat="48.38923" lon="2.48144">
        <ele>66</ele>
        <time>2025-11-16T10:35:39Z</time>
      </trkpt>
      <trkpt lat="48.38931" lon="2.48135">
        <ele>66</ele>
        <time>2025-11-16T10:35:41Z</time>
      </trkpt>
      <trkpt lat="48.38938" lon="2.48125">
        <ele>66</ele>
        <time>2025-11-16T10:35:43Z</time>
      </trkpt>
      <trkpt lat="48.38947" lon="2.48118">
        <ele>66</ele>
        <time>2025-11-16T10:35:45Z</time>
      </trkpt>
      <trkpt lat="48.38957" lon="2.48112">
        <ele>66</ele>
        <time>2025-11-16T10:35:47Z</time>
      </trkpt>
      <trkpt lat="48.38965" lon="2.48103">
        <ele>66</ele>
        <time>2025-11-16T10:35:49Z</time>
      </trkpt>
      <trkpt lat="48.38974" lon="2.48093">
        <ele>66</ele>
        <time>2025-11-16T10:35:51Z</time>
      </trkpt>
      <trkpt lat="48.3898" lon="2.48079">
        <ele>66</ele>
        <time>2025-11-16T10:35:53Z</time>
      </trkpt>
      <trkpt lat="48.38985" lon="2.48065">
        <ele>66</ele>
        <time>2025-11-16T10:35:55Z</time>
      </trkpt>
      <trkpt lat="48.38991" lon="2.48053">
        <ele>66</ele>
        <time>2025-11-16T10:35:57Z</time>
      </trkpt>
      <trkpt lat="48.38997" lon="2.48041">
        <ele>66</ele>
        <time>2025-11-16T10:35:59Z</time>
      </trkpt>
      <trkpt lat="48.39003" lon="2.48031">
        <ele>66</ele>
        <time>2025-11-16T10:36:01Z</time>
      </trkpt>
      <trkpt lat="48.39011" lon="2.4802">
        <ele>66</ele>
        <time>2025-11-16T10:36:03Z</time>
      </trkpt>
      <trkpt lat="48.39017" lon="2.48012">
        <ele>66</ele>
        <time>2025-11-16T10:36:05Z</time>
      </trkpt>
      <trkpt lat="48.39025" lon="2.48005">
        <ele>66</ele>
        <time>2025-11-16T10:36:07Z</time>
      </trkpt>
      <trkpt lat="48.39032" lon="2.47996">
        <ele>66</ele>
        <time>2025-11-16T10:36:09Z</time>
      </trkpt>
      <trkpt lat="48.39039" lon="2.47987">
        <ele>66</ele>
        <time>2025-11-16T10:36:11Z</time>
      </trkpt>
      <trkpt lat="48.39046" lon="2.47978">
        <ele>66</ele>
        <time>2025-11-16T10:36:13Z</time>
      </trkpt>
      <trkpt lat="48.39053" lon="2.4797">
        <ele>66</ele>
        <time>2025-11-16T10:36:15Z</time>
      </trkpt>
      <trkpt lat="48.39059" lon="2.47961">
        <ele>66</ele>
        <time>2025-11-16T10:36:17Z</time>
      </trkpt>
      <trkpt lat="48.39065" lon="2.47951">
        <ele>66</ele>
        <time>2025-11-16T10:36:19Z</time>
      </trkpt>
      <trkpt lat="48.3907" lon="2.47943">
        <ele>66</ele>
        <time>2025-11-16T10:36:21Z</time>
      </trkpt>
      <trkpt lat="48.39077" lon="2.47934">
        <ele>66</ele>
        <time>2025-11-16T10:36:23Z</time>
      </trkpt>
      <trkpt lat="48.39083" lon="2.47924">
        <ele>66</ele>
        <time>2025-11-16T10:36:25Z</time>
      </trkpt>
      <trkpt lat="48.3909" lon="2.47914">
        <ele>66</ele>
        <time>2025-11-16T10:36:27Z</time>
      </trkpt>
      <trkpt lat="48.39095" lon="2.47903">
        <ele>66</ele>
        <time>2025-11-16T10:36:29Z</time>
      </trkpt>
      <trkpt lat="48.39101" lon="2.47893">
        <ele>66</ele>
        <time>2025-11-16T10:36:31Z</time>
      </trkpt>
      <trkpt lat="48.39106" lon="2.47879">
        <ele>65.7</ele>
        <time>2025-11-16T10:36:33Z</time>
      </trkpt>
      <trkpt lat="48.3911" lon="2.47866">
        <ele>65.2</ele>
        <time>2025-11-16T10:36:35Z</time>
      </trkpt>
      <trkpt lat="48.39115" lon="2.47854">
        <ele>65.1</ele>
        <time>2025-11-16T10:36:37Z</time>
      </trkpt>
      <trkpt lat="48.3912" lon="2.4784">
        <ele>65.3</ele>
        <time>2025-11-16T10:36:39Z</time>
      </trkpt>
      <trkpt lat="48.39124" lon="2.47826">
        <ele>65.3</ele>
        <time>2025-11-16T10:36:41Z</time>
      </trkpt>
      <trkpt lat="48.39128" lon="2.47813">
        <ele>65.2</ele>
        <time>2025-11-16T10:36:43Z</time>
      </trkpt>
      <trkpt lat="48.39132" lon="2.478">
        <ele>65</ele>
        <time>2025-11-16T10:36:45Z</time>
      </trkpt>
      <trkpt lat="48.39137" lon="2.47787">
        <ele>65</ele>
        <time>2025-11-16T10:36:47Z</time>
      </trkpt>
      <trkpt lat="48.39141" lon="2.47773">
        <ele>65</ele>
        <time>2025-11-16T10:36:49Z</time>
      </trkpt>
      <trkpt lat="48.39146" lon="2.47759">
        <ele>65</ele>
        <time>2025-11-16T10:36:51Z</time>
      </trkpt>
      <trkpt lat="48.39151" lon="2.47747">
        <ele>65</ele>
        <time>2025-11-16T10:36:53Z</time>
      </trkpt>
      <trkpt lat="48.39155" lon="2.47736">
        <ele>65</ele>
        <time>2025-11-16T10:36:55Z</time>
      </trkpt>
      <trkpt lat="48.39159" lon="2.47724">
        <ele>65</ele>
        <time>2025-11-16T10:36:57Z</time>
      </trkpt>
      <trkpt lat="48.39164" lon="2.47712">
        <ele>65</ele>
        <time>2025-11-16T10:36:59Z</time>
      </trkpt>
      <trkpt lat="48.39169" lon="2.47699">
        <ele>65</ele>
        <time>2025-11-16T10:37:01Z</time>
      </trkpt>
      <trkpt lat="48.39175" lon="2.47686">
        <ele>65</ele>
        <time>2025-11-16T10:37:03Z</time>
      </trkpt>
      <trkpt lat="48.3918" lon="2.47673">
        <ele>65</ele>
        <time>2025-11-16T10:37:05Z</time>
      </trkpt>
      <trkpt lat="48.39184" lon="2.47661">
        <ele>65</ele>
        <time>2025-11-16T10:37:07Z</time>
      </trkpt>
      <trkpt lat="48.3919" lon="2.4765">
        <ele>65</ele>
        <time>2025-11-16T10:37:09Z</time>
      </trkpt>
      <trkpt lat="48.39196" lon="2.47636">
        <ele>65</ele>
        <time>2025-11-16T10:37:11Z</time>
      </trkpt>
      <trkpt lat="48.39201" lon="2.47623">
        <ele>65.1</ele>
        <time>2025-11-16T10:37:13Z</time>
      </trkpt>
      <trkpt lat="48.39206" lon="2.47609">
        <ele>65</ele>
        <time>2025-11-16T10:37:15Z</time>
      </trkpt>
      <trkpt lat="48.39212" lon="2.47597">
        <ele>65</ele>
        <time>2025-11-16T10:37:17Z</time>
      </trkpt>
      <trkpt lat="48.39218" lon="2.47585">
        <ele>65</ele>
        <time>2025-11-16T10:37:19Z</time>
      </trkpt>
      <trkpt lat="48.39224" lon="2.47572">
        <ele>65.1</ele>
        <time>2025-11-16T10:37:21Z</time>
      </trkpt>
      <trkpt lat="48.39231" lon="2.4756">
        <ele>65.3</ele>
        <time>2025-11-16T10:37:23Z</time>
      </trkpt>
      <trkpt lat="48.39237" lon="2.4755">
        <ele>65.4</ele>
        <time>2025-11-16T10:37:25Z</time>
      </trkpt>
      <trkpt lat="48.39244" lon="2.47541">
        <ele>65.4</ele>
        <time>2025-11-16T10:37:27Z</time>
      </trkpt>
      <trkpt lat="48.39252" lon="2.47533">
        <ele>65.2</ele>
        <time>2025-11-16T10:37:29Z</time>
      </trkpt>
      <trkpt lat="48.3926" lon="2.47524">
        <ele>65.3</ele>
        <time>2025-11-16T10:37:31Z</time>
      </trkpt>
      <trkpt lat="48.39267" lon="2.47517">
        <ele>65.4</ele>
        <time>2025-11-16T10:37:33Z</time>
      </trkpt>
      <trkpt lat="48.39275" lon="2.47509">
        <ele>65.3</ele>
        <time>2025-11-16T10:37:35Z</time>
      </trkpt>
      <trkpt lat="48.39282" lon="2.47498">
        <ele>65</ele>
        <time>2025-11-16T10:37:37Z</time>
      </trkpt>
      <trkpt lat="48.39289" lon="2.4749">
        <ele>65</ele>
        <time>2025-11-16T10:37:39Z</time>
      </trkpt>
      <trkpt lat="48.39298" lon="2.47484">
        <ele>65</ele>
        <time>2025-11-16T10:37:41Z</time>
      </trkpt>
      <trkpt lat="48.39307" lon="2.47476">
        <ele>65</ele>
        <time>2025-11-16T10:37:43Z</time>
      </trkpt>
      <trkpt lat="48.39315" lon="2.4747">
        <ele>65</ele>
        <time>2025-11-16T10:37:45Z</time>
      </trkpt>
      <trkpt lat="48.39325" lon="2.47462">
        <ele>65</ele>
        <time>2025-11-16T10:37:47Z</time>
      </trkpt>
      <trkpt lat="48.39334" lon="2.47455">
        <ele>65</ele>
        <time>2025-11-16T10:37:49Z</time>
      </trkpt>
      <trkpt lat="48.39344" lon="2.47447">
        <ele>65</ele>
        <time>2025-11-16T10:37:51Z</time>
      </trkpt>
      <trkpt lat="48.39354" lon="2.47442">
        <ele>65</ele>
        <time>2025-11-16T10:37:53Z</time>
      </trkpt>
      <trkpt lat="48.39364" lon="2.47436">
        <ele>65</ele>
        <time>2025-11-16T10:37:55Z</time>
      </trkpt>
      <trkpt lat="48.39372" lon="2.4743">
        <ele>65</ele>
        <time>2025-11-16T10:37:57Z</time>
      </trkpt>
      <trkpt lat="48.39382" lon="2.47425">
        <ele>65</ele>
        <time>2025-11-16T10:37:59Z</time>
      </trkpt>
      <trkpt lat="48.39391" lon="2.47421">
        <ele>65</ele>
        <time>2025-11-16T10:38:01Z</time>
      </trkpt>
      <trkpt lat="48.39399" lon="2.47415">
        <ele>65</ele>
        <time>2025-11-16T10:38:03Z</time>
      </trkpt>
      <trkpt lat="48.39408" lon="2.4741">
        <ele>65</ele>
        <time>2025-11-16T10:38:05Z</time>
      </trkpt>
      <trkpt lat="48.39417" lon="2.47407">
        <ele>65</ele>
        <time>2025-11-16T10:38:07Z</time>
      </trkpt>
      <trkpt lat="48.39425" lon="2.47402">
        <ele>65</ele>
        <time>2025-11-16T10:38:09Z</time>
      </trkpt>
      <trkpt lat="48.39434" lon="2.47399">
        <ele>65</ele>
        <time>2025-11-16T10:38:11Z</time>
      </trkpt>
      <trkpt lat="48.39443" lon="2.47395">
        <ele>65</ele>
        <time>2025-11-16T10:38:13Z</time>
      </trkpt>
      <trkpt lat="48.39449" lon="2.47387">
        <ele>65</ele>
        <time>2025-11-16T10:38:15Z</time>
      </trkpt>
      <trkpt lat="48.39448" lon="2.47377">
        <ele>65</ele>
        <time>2025-11-16T10:38:17Z</time>
      </trkpt>
      <trkpt lat="48.39446" lon="2.47366">
        <ele>65</ele>
        <time>2025-11-16T10:38:19Z</time>
      </trkpt>
      <trkpt lat="48.39444" lon="2.47356">
        <ele>65</ele>
        <time>2025-11-16T10:38:21Z</time>
      </trkpt>
      <trkpt lat="48.39442" lon="2.47345">
        <ele>65</ele>
        <time>2025-11-16T10:38:23Z</time>
      </trkpt>
      <trkpt lat="48.3944" lon="2.47333">
        <ele>65</ele>
        <time>2025-11-16T10:38:25Z</time>
      </trkpt>
      <trkpt lat="48.39438" lon="2.47322">
        <ele>65</ele>
        <time>2025-11-16T10:38:27Z</time>
      </trkpt>
      <trkpt lat="48.39437" lon="2.47311">
        <ele>65</ele>
        <time>2025-11-16T10:38:29Z</time>
      </trkpt>
      <trkpt lat="48.39435" lon="2.473">
        <ele>65</ele>
        <time>2025-11-16T10:38:31Z</time>
      </trkpt>
      <trkpt lat="48.39433" lon="2.47289">
        <ele>65</ele>
        <time>2025-11-16T10:38:33Z</time>
      </trkpt>
      <trkpt lat="48.3943" lon="2.47278">
        <ele>65</ele>
        <time>2025-11-16T10:38:35Z</time>
      </trkpt>
      <trkpt lat="48.39428" lon="2.47268">
        <ele>65</ele>
        <time>2025-11-16T10:38:37Z</time>
      </trkpt>
      <trkpt lat="48.39426" lon="2.47257">
        <ele>65</ele>
        <time>2025-11-16T10:38:39Z</time>
      </trkpt>
      <trkpt lat="48.39424" lon="2.47247">
        <ele>65</ele>
        <time>2025-11-16T10:38:41Z</time>
      </trkpt>
      <trkpt lat="48.39423" lon="2.47235">
        <ele>65</ele>
        <time>2025-11-16T10:38:43Z</time>
      </trkpt>
      <trkpt lat="48.39421" lon="2.47225">
        <ele>65</ele>
        <time>2025-11-16T10:38:45Z</time>
      </trkpt>
      <trkpt lat="48.39419" lon="2.47214">
        <ele>65</ele>
        <time>2025-11-16T10:38:47Z</time>
      </trkpt>
      <trkpt lat="48.39417" lon="2.47203">
        <ele>65</ele>
        <time>2025-11-16T10:38:49Z</time>
      </trkpt>
      <trkpt lat="48.39417" lon="2.47193">
        <ele>65</ele>
        <time>2025-11-16T10:38:51Z</time>
      </trkpt>
      <trkpt lat="48.39415" lon="2.47182">
        <ele>65</ele>
        <time>2025-11-16T10:38:53Z</time>
      </trkpt>
      <trkpt lat="48.39413" lon="2.47169">
        <ele>65</ele>
        <time>2025-11-16T10:38:55Z</time>
      </trkpt>
      <trkpt lat="48.39411" lon="2.47157">
        <ele>65</ele>
        <time>2025-11-16T10:38:57Z</time>
      </trkpt>
      <trkpt lat="48.3941" lon="2.47143">
        <ele>65</ele>
        <time>2025-11-16T10:38:59Z</time>
      </trkpt>
      <trkpt lat="48.39408" lon="2.4713">
        <ele>65</ele>
        <time>2025-11-16T10:39:01Z</time>
      </trkpt>
      <trkpt lat="48.39406" lon="2.47118">
        <ele>65</ele>
        <time>2025-11-16T10:39:03Z</time>
      </trkpt>
      <trkpt lat="48.39405" lon="2.47107">
        <ele>65</ele>
        <time>2025-11-16T10:39:05Z</time>
      </trkpt>
      <trkpt lat="48.39404" lon="2.47097">
        <ele>65</ele>
        <time>2025-11-16T10:39:07Z</time>
      </trkpt>
      <trkpt lat="48.39403" lon="2.47088">
        <ele>65</ele>
        <time>2025-11-16T10:39:09Z</time>
      </trkpt>
      <trkpt lat="48.39403" lon="2.4708">
        <ele>65</ele>
        <time>2025-11-16T10:39:11Z</time>
      </trkpt>
      <trkpt lat="48.39403" lon="2.4707">
        <ele>65</ele>
        <time>2025-11-16T10:39:13Z</time>
      </trkpt>
      <trkpt lat="48.39404" lon="2.47059">
        <ele>65</ele>
        <time>2025-11-16T10:39:15Z</time>
      </trkpt>
      <trkpt lat="48.39404" lon="2.47047">
        <ele>65</ele>
        <time>2025-11-16T10:39:17Z</time>
      </trkpt>
      <trkpt lat="48.39405" lon="2.47036">
        <ele>65</ele>
        <time>2025-11-16T10:39:19Z</time>
      </trkpt>
      <trkpt lat="48.39405" lon="2.47026">
        <ele>65</ele>
        <time>2025-11-16T10:39:21Z</time>
      </trkpt>
      <trkpt lat="48.39405" lon="2.47015">
        <ele>65</ele>
        <time>2025-11-16T10:39:23Z</time>
      </trkpt>
      <trkpt lat="48.39406" lon="2.47004">
        <ele>65</ele>
        <time>2025-11-16T10:39:25Z</time>
      </trkpt>
      <trkpt lat="48.39407" lon="2.46992">
        <ele>65</ele>
        <time>2025-11-16T10:39:27Z</time>
      </trkpt>
      <trkpt lat="48.39409" lon="2.46981">
        <ele>65</ele>
        <time>2025-11-16T10:39:29Z</time>
      </trkpt>
      <trkpt lat="48.39411" lon="2.4697">
        <ele>65</ele>
        <time>2025-11-16T10:39:31Z</time>
      </trkpt>
      <trkpt lat="48.39413" lon="2.46959">
        <ele>65</ele>
        <time>2025-11-16T10:39:33Z</time>
      </trkpt>
      <trkpt lat="48.39415" lon="2.46948">
        <ele>65</ele>
        <time>2025-11-16T10:39:35Z</time>
      </trkpt>
      <trkpt lat="48.39418" lon="2.46936">
        <ele>65</ele>
        <time>2025-11-16T10:39:37Z</time>
      </trkpt>
      <trkpt lat="48.39421" lon="2.46924">
        <ele>65</ele>
        <time>2025-11-16T10:39:39Z</time>
      </trkpt>
      <trkpt lat="48.39425" lon="2.46913">
        <ele>65</ele>
        <time>2025-11-16T10:39:41Z</time>
      </trkpt>
      <trkpt lat="48.39429" lon="2.46902">
        <ele>65</ele>
        <time>2025-11-16T10:39:43Z</time>
      </trkpt>
      <trkpt lat="48.39434" lon="2.46891">
        <ele>65</ele>
        <time>2025-11-16T10:39:45Z</time>
      </trkpt>
      <trkpt lat="48.39437" lon="2.4688">
        <ele>65</ele>
        <time>2025-11-16T10:39:47Z</time>
      </trkpt>
      <trkpt lat="48.39441" lon="2.46869">
        <ele>65</ele>
        <time>2025-11-16T10:39:49Z</time>
      </trkpt>
      <trkpt lat="48.39444" lon="2.46857">
        <ele>65</ele>
        <time>2025-11-16T10:39:51Z</time>
      </trkpt>
      <trkpt lat="48.39447" lon="2.46847">
        <ele>65</ele>
        <time>2025-11-16T10:39:53Z</time>
      </trkpt>
      <trkpt lat="48.39453" lon="2.46839">
        <ele>65</ele>
        <time>2025-11-16T10:39:55Z</time>
      </trkpt>
      <trkpt lat="48.3946" lon="2.46839">
        <ele>65</ele>
        <time>2025-11-16T10:39:57Z</time>
      </trkpt>
      <trkpt lat="48.39466" lon="2.46839">
        <ele>65</ele>
        <time>2025-11-16T10:39:59Z</time>
      </trkpt>
      <trkpt lat="48.39471" lon="2.46841">
        <ele>65</ele>
        <time>2025-11-16T10:40:01Z</time>
      </trkpt>
      <trkpt lat="48.39478" lon="2.46843">
        <ele>64.9</ele>
        <time>2025-11-16T10:40:03Z</time>
      </trkpt>
      <trkpt lat="48.39486" lon="2.46845">
        <ele>64.8</ele>
        <time>2025-11-16T10:40:05Z</time>
      </trkpt>
      <trkpt lat="48.39494" lon="2.46847">
        <ele>64.6</ele>
        <time>2025-11-16T10:40:07Z</time>
      </trkpt>
      <trkpt lat="48.395" lon="2.46848">
        <ele>64.5</ele>
        <time>2025-11-16T10:40:09Z</time>
      </trkpt>
      <trkpt lat="48.39507" lon="2.46848">
        <ele>64.5</ele>
        <time>2025-11-16T10:40:11Z</time>
      </trkpt>
      <trkpt lat="48.39515" lon="2.4685">
        <ele>64.4</ele>
        <time>2025-11-16T10:40:13Z</time>
      </trkpt>
      <trkpt lat="48.39524" lon="2.4685">
        <ele>64.4</ele>
        <time>2025-11-16T10:40:15Z</time>
      </trkpt>
      <trkpt lat="48.39532" lon="2.4685">
        <ele>64.5</ele>
        <time>2025-11-16T10:40:17Z</time>
      </trkpt>
      <trkpt lat="48.3954" lon="2.46851">
        <ele>64.6</ele>
        <time>2025-11-16T10:40:19Z</time>
      </trkpt>
      <trkpt lat="48.39548" lon="2.46852">
        <ele>64.8</ele>
        <time>2025-11-16T10:40:21Z</time>
      </trkpt>
      <trkpt lat="48.39556" lon="2.46854">
        <ele>65</ele>
        <time>2025-11-16T10:40:23Z</time>
      </trkpt>
      <trkpt lat="48.39562" lon="2.46856">
        <ele>65</ele>
        <time>2025-11-16T10:40:25Z</time>
      </trkpt>
      <trkpt lat="48.39569" lon="2.46859">
        <ele>65</ele>
        <time>2025-11-16T10:40:27Z</time>
      </trkpt>
      <trkpt lat="48.39576" lon="2.4686">
        <ele>65</ele>
        <time>2025-11-16T10:40:29Z</time>
      </trkpt>
      <trkpt lat="48.39583" lon="2.4686">
        <ele>65</ele>
        <time>2025-11-16T10:40:31Z</time>
      </trkpt>
      <trkpt lat="48.3959" lon="2.46862">
        <ele>65.2</ele>
        <time>2025-11-16T10:40:33Z</time>
      </trkpt>
      <trkpt lat="48.39597" lon="2.46861">
        <ele>65.5</ele>
        <time>2025-11-16T10:40:35Z</time>
      </trkpt>
      <trkpt lat="48.39603" lon="2.4686">
        <ele>65.7</ele>
        <time>2025-11-16T10:40:37Z</time>
      </trkpt>
      <trkpt lat="48.39609" lon="2.46858">
        <ele>65.9</ele>
        <time>2025-11-16T10:40:39Z</time>
      </trkpt>
      <trkpt lat="48.39614" lon="2.46855">
        <ele>66</ele>
        <time>2025-11-16T10:40:41Z</time>
      </trkpt>
      <trkpt lat="48.39621" lon="2.46853">
        <ele>66</ele>
        <time>2025-11-16T10:40:43Z</time>
      </trkpt>
      <trkpt lat="48.39628" lon="2.46852">
        <ele>66</ele>
        <time>2025-11-16T10:40:45Z</time>
      </trkpt>
      <trkpt lat="48.39635" lon="2.46849">
        <ele>66</ele>
        <time>2025-11-16T10:40:47Z</time>
      </trkpt>
      <trkpt lat="48.39642" lon="2.46847">
        <ele>65.9</ele>
        <time>2025-11-16T10:40:49Z</time>
      </trkpt>
      <trkpt lat="48.39649" lon="2.46844">
        <ele>65.7</ele>
        <time>2025-11-16T10:40:51Z</time>
      </trkpt>
      <trkpt lat="48.39655" lon="2.4684">
        <ele>65.4</ele>
        <time>2025-11-16T10:40:53Z</time>
      </trkpt>
      <trkpt lat="48.39659" lon="2.46832">
        <ele>65.3</ele>
        <time>2025-11-16T10:40:55Z</time>
      </trkpt>
      <trkpt lat="48.39659" lon="2.46821">
        <ele>65.3</ele>
        <time>2025-11-16T10:40:57Z</time>
      </trkpt>
      <trkpt lat="48.39657" lon="2.46809">
        <ele>65.3</ele>
        <time>2025-11-16T10:40:59Z</time>
      </trkpt>
      <trkpt lat="48.39655" lon="2.46796">
        <ele>65.3</ele>
        <time>2025-11-16T10:41:01Z</time>
      </trkpt>
      <trkpt lat="48.39653" lon="2.46783">
        <ele>65.1</ele>
        <time>2025-11-16T10:41:03Z</time>
      </trkpt>
      <trkpt lat="48.39651" lon="2.4677">
        <ele>65</ele>
        <time>2025-11-16T10:41:05Z</time>
      </trkpt>
      <trkpt lat="48.3965" lon="2.46758">
        <ele>65</ele>
        <time>2025-11-16T10:41:07Z</time>
      </trkpt>
      <trkpt lat="48.39649" lon="2.46747">
        <ele>65</ele>
        <time>2025-11-16T10:41:09Z</time>
      </trkpt>
      <trkpt lat="48.39648" lon="2.46737">
        <ele>65</ele>
        <time>2025-11-16T10:41:11Z</time>
      </trkpt>
      <trkpt lat="48.39643" lon="2.46729">
        <ele>65</ele>
        <time>2025-11-16T10:41:13Z</time>
      </trkpt>
      <trkpt lat="48.39635" lon="2.46725">
        <ele>65</ele>
        <time>2025-11-16T10:41:15Z</time>
      </trkpt>
      <trkpt lat="48.39625" lon="2.46722">
        <ele>65</ele>
        <time>2025-11-16T10:41:17Z</time>
      </trkpt>
      <trkpt lat="48.39616" lon="2.46719">
        <ele>65</ele>
        <time>2025-11-16T10:41:19Z</time>
      </trkpt>
      <trkpt lat="48.39606" lon="2.46715">
        <ele>65</ele>
        <time>2025-11-16T10:41:21Z</time>
      </trkpt>
      <trkpt lat="48.39596" lon="2.46711">
        <ele>65</ele>
        <time>2025-11-16T10:41:23Z</time>
      </trkpt>
      <trkpt lat="48.39585" lon="2.46708">
        <ele>65</ele>
        <time>2025-11-16T10:41:25Z</time>
      </trkpt>
      <trkpt lat="48.39575" lon="2.46705">
        <ele>65</ele>
        <time>2025-11-16T10:41:27Z</time>
      </trkpt>
      <trkpt lat="48.39564" lon="2.46701">
        <ele>65</ele>
        <time>2025-11-16T10:41:29Z</time>
      </trkpt>
      <trkpt lat="48.39555" lon="2.46697">
        <ele>65</ele>
        <time>2025-11-16T10:41:31Z</time>
      </trkpt>
      <trkpt lat="48.39545" lon="2.46692">
        <ele>65</ele>
        <time>2025-11-16T10:41:33Z</time>
      </trkpt>
      <trkpt lat="48.39535" lon="2.46688">
        <ele>65</ele>
        <time>2025-11-16T10:41:35Z</time>
      </trkpt>
      <trkpt lat="48.39527" lon="2.46682">
        <ele>65</ele>
        <time>2025-11-16T10:41:37Z</time>
      </trkpt>
      <trkpt lat="48.39527" lon="2.46671">
        <ele>65</ele>
        <time>2025-11-16T10:41:39Z</time>
      </trkpt>
      <trkpt lat="48.39533" lon="2.46667">
        <ele>65</ele>
        <time>2025-11-16T10:41:41Z</time>
      </trkpt>
      <trkpt lat="48.39541" lon="2.46667">
        <ele>65</ele>
        <time>2025-11-16T10:41:43Z</time>
      </trkpt>
      <trkpt lat="48.3955" lon="2.46666">
        <ele>65</ele>
        <time>2025-11-16T10:41:45Z</time>
      </trkpt>
      <trkpt lat="48.3956" lon="2.46664">
        <ele>65</ele>
        <time>2025-11-16T10:41:47Z</time>
      </trkpt>
      <trkpt lat="48.39569" lon="2.46661">
        <ele>65</ele>
        <time>2025-11-16T10:41:49Z</time>
      </trkpt>
      <trkpt lat="48.39578" lon="2.46658">
        <ele>65</ele>
        <time>2025-11-16T10:41:51Z</time>
      </trkpt>
      <trkpt lat="48.39585" lon="2.46651">
        <ele>65</ele>
        <time>2025-11-16T10:41:53Z</time>
      </trkpt>
      <trkpt lat="48.3959" lon="2.4664">
        <ele>65</ele>
        <time>2025-11-16T10:41:55Z</time>
      </trkpt>
      <trkpt lat="48.39594" lon="2.46626">
        <ele>65</ele>
        <time>2025-11-16T10:41:57Z</time>
      </trkpt>
      <trkpt lat="48.39596" lon="2.4661">
        <ele>65</ele>
        <time>2025-11-16T10:41:59Z</time>
      </trkpt>
      <trkpt lat="48.39597" lon="2.46595">
        <ele>65</ele>
        <time>2025-11-16T10:42:01Z</time>
      </trkpt>
      <trkpt lat="48.39598" lon="2.46579">
        <ele>65</ele>
        <time>2025-11-16T10:42:03Z</time>
      </trkpt>
      <trkpt lat="48.39598" lon="2.46564">
        <ele>65</ele>
        <time>2025-11-16T10:42:05Z</time>
      </trkpt>
      <trkpt lat="48.39599" lon="2.4655">
        <ele>65</ele>
        <time>2025-11-16T10:42:07Z</time>
      </trkpt>
      <trkpt lat="48.39598" lon="2.46536">
        <ele>65</ele>
        <time>2025-11-16T10:42:09Z</time>
      </trkpt>
      <trkpt lat="48.39595" lon="2.46523">
        <ele>64.9</ele>
        <time>2025-11-16T10:42:11Z</time>
      </trkpt>
      <trkpt lat="48.39591" lon="2.46508">
        <ele>64.5</ele>
        <time>2025-11-16T10:42:13Z</time>
      </trkpt>
      <trkpt lat="48.39586" lon="2.46498">
        <ele>64.1</ele>
        <time>2025-11-16T10:42:15Z</time>
      </trkpt>
      <trkpt lat="48.39576" lon="2.46499">
        <ele>64</ele>
        <time>2025-11-16T10:42:17Z</time>
      </trkpt>
      <trkpt lat="48.39567" lon="2.46502">
        <ele>64</ele>
        <time>2025-11-16T10:42:19Z</time>
      </trkpt>
      <trkpt lat="48.39557" lon="2.46504">
        <ele>64</ele>
        <time>2025-11-16T10:42:21Z</time>
      </trkpt>
      <trkpt lat="48.39548" lon="2.46507">
        <ele>64</ele>
        <time>2025-11-16T10:42:23Z</time>
      </trkpt>
      <trkpt lat="48.39538" lon="2.46508">
        <ele>64</ele>
        <time>2025-11-16T10:42:25Z</time>
      </trkpt>
      <trkpt lat="48.39528" lon="2.4651">
        <ele>64</ele>
        <time>2025-11-16T10:42:27Z</time>
      </trkpt>
      <trkpt lat="48.39518" lon="2.46513">
        <ele>64</ele>
        <time>2025-11-16T10:42:29Z</time>
      </trkpt>
      <trkpt lat="48.39508" lon="2.46514">
        <ele>64</ele>
        <time>2025-11-16T10:42:31Z</time>
      </trkpt>
      <trkpt lat="48.39497" lon="2.46516">
        <ele>64</ele>
        <time>2025-11-16T10:42:33Z</time>
      </trkpt>
      <trkpt lat="48.39488" lon="2.46518">
        <ele>64</ele>
        <time>2025-11-16T10:42:35Z</time>
      </trkpt>
      <trkpt lat="48.39478" lon="2.46519">
        <ele>64</ele>
        <time>2025-11-16T10:42:37Z</time>
      </trkpt>
      <trkpt lat="48.39469" lon="2.46521">
        <ele>64.1</ele>
        <time>2025-11-16T10:42:39Z</time>
      </trkpt>
      <trkpt lat="48.3946" lon="2.46523">
        <ele>64.3</ele>
        <time>2025-11-16T10:42:41Z</time>
      </trkpt>
      <trkpt lat="48.3945" lon="2.46524">
        <ele>64.7</ele>
        <time>2025-11-16T10:42:43Z</time>
      </trkpt>
      <trkpt lat="48.39441" lon="2.46527">
        <ele>65.1</ele>
        <time>2025-11-16T10:42:45Z</time>
      </trkpt>
      <trkpt lat="48.39433" lon="2.46528">
        <ele>65.4</ele>
        <time>2025-11-16T10:42:47Z</time>
      </trkpt>
      <trkpt lat="48.39424" lon="2.4653">
        <ele>65.7</ele>
        <time>2025-11-16T10:42:49Z</time>
      </trkpt>
      <trkpt lat="48.39415" lon="2.46531">
        <ele>66</ele>
        <time>2025-11-16T10:42:51Z</time>
      </trkpt>
      <trkpt lat="48.39407" lon="2.4653">
        <ele>66</ele>
        <time>2025-11-16T10:42:53Z</time>
      </trkpt>
      <trkpt lat="48.39397" lon="2.46531">
        <ele>66</ele>
        <time>2025-11-16T10:42:55Z</time>
      </trkpt>
      <trkpt lat="48.39389" lon="2.46532">
        <ele>66</ele>
        <time>2025-11-16T10:42:57Z</time>
      </trkpt>
      <trkpt lat="48.39383" lon="2.46523">
        <ele>66</ele>
        <time>2025-11-16T10:42:59Z</time>
      </trkpt>
      <trkpt lat="48.39377" lon="2.46514">
        <ele>66</ele>
        <time>2025-11-16T10:43:01Z</time>
      </trkpt>
      <trkpt lat="48.39372" lon="2.46503">
        <ele>66</ele>
        <time>2025-11-16T10:43:03Z</time>
      </trkpt>
      <trkpt lat="48.39368" lon="2.46492">
        <ele>66</ele>
        <time>2025-11-16T10:43:05Z</time>
      </trkpt>
      <trkpt lat="48.39363" lon="2.4648">
        <ele>66</ele>
        <time>2025-11-16T10:43:07Z</time>
      </trkpt>
      <trkpt lat="48.39358" lon="2.46469">
        <ele>66</ele>
        <time>2025-11-16T10:43:09Z</time>
      </trkpt>
      <trkpt lat="48.39353" lon="2.46456">
        <ele>66</ele>
        <time>2025-11-16T10:43:11Z</time>
      </trkpt>
      <trkpt lat="48.39348" lon="2.46447">
        <ele>66</ele>
        <time>2025-11-16T10:43:13Z</time>
      </trkpt>
      <trkpt lat="48.39344" lon="2.46439">
        <ele>66</ele>
        <time>2025-11-16T10:43:15Z</time>
      </trkpt>
      <trkpt lat="48.39339" lon="2.46427">
        <ele>66</ele>
        <time>2025-11-16T10:43:17Z</time>
      </trkpt>
      <trkpt lat="48.39336" lon="2.46416">
        <ele>66</ele>
        <time>2025-11-16T10:43:19Z</time>
      </trkpt>
      <trkpt lat="48.39332" lon="2.46408">
        <ele>66.3</ele>
        <time>2025-11-16T10:43:21Z</time>
      </trkpt>
      <trkpt lat="48.39327" lon="2.46398">
        <ele>66.7</ele>
        <time>2025-11-16T10:43:23Z</time>
      </trkpt>
      <trkpt lat="48.39323" lon="2.46392">
        <ele>66.9</ele>
        <time>2025-11-16T10:43:25Z</time>
      </trkpt>
      <trkpt lat="48.39321" lon="2.46385">
        <ele>67.1</ele>
        <time>2025-11-16T10:43:27Z</time>
      </trkpt>
      <trkpt lat="48.39316" lon="2.46375">
        <ele>67.3</ele>
        <time>2025-11-16T10:43:31Z</time>
      </trkpt>
      <trkpt lat="48.39313" lon="2.46368">
        <ele>67.6</ele>
        <time>2025-11-16T10:43:35Z</time>
      </trkpt>
      <trkpt lat="48.39311" lon="2.4636">
        <ele>67.9</ele>
        <time>2025-11-16T10:43:37Z</time>
      </trkpt>
      <trkpt lat="48.39308" lon="2.46353">
        <ele>68.2</ele>
        <time>2025-11-16T10:43:39Z</time>
      </trkpt>
      <trkpt lat="48.39305" lon="2.46346">
        <ele>68.6</ele>
        <time>2025-11-16T10:43:41Z</time>
      </trkpt>
      <trkpt lat="48.39302" lon="2.4634">
        <ele>68.8</ele>
        <time>2025-11-16T10:43:43Z</time>
      </trkpt>
      <trkpt lat="48.393" lon="2.46333">
        <ele>69</ele>
        <time>2025-11-16T10:43:45Z</time>
      </trkpt>
      <trkpt lat="48.39298" lon="2.46327">
        <ele>69.1</ele>
        <time>2025-11-16T10:43:47Z</time>
      </trkpt>
      <trkpt lat="48.39293" lon="2.46319">
        <ele>69.2</ele>
        <time>2025-11-16T10:43:51Z</time>
      </trkpt>
      <trkpt lat="48.3929" lon="2.46313">
        <ele>69.4</ele>
        <time>2025-11-16T10:43:53Z</time>
      </trkpt>
      <trkpt lat="48.39286" lon="2.463">
        <ele>69.8</ele>
        <time>2025-11-16T10:43:57Z</time>
      </trkpt>
      <trkpt lat="48.39281" lon="2.4629">
        <ele>70</ele>
        <time>2025-11-16T10:44:01Z</time>
      </trkpt>
      <trkpt lat="48.39278" lon="2.46283">
        <ele>70</ele>
        <time>2025-11-16T10:44:03Z</time>
      </trkpt>
      <trkpt lat="48.39275" lon="2.46276">
        <ele>70.1</ele>
        <time>2025-11-16T10:44:05Z</time>
      </trkpt>
      <trkpt lat="48.39273" lon="2.46269">
        <ele>70.5</ele>
        <time>2025-11-16T10:44:07Z</time>
      </trkpt>
      <trkpt lat="48.39269" lon="2.46261">
        <ele>70.9</ele>
        <time>2025-11-16T10:44:09Z</time>
      </trkpt>
      <trkpt lat="48.39267" lon="2.46253">
        <ele>71.3</ele>
        <time>2025-11-16T10:44:11Z</time>
      </trkpt>
      <trkpt lat="48.39263" lon="2.46245">
        <ele>71.7</ele>
        <time>2025-11-16T10:44:13Z</time>
      </trkpt>
      <trkpt lat="48.39259" lon="2.46237">
        <ele>72.1</ele>
        <time>2025-11-16T10:44:15Z</time>
      </trkpt>
      <trkpt lat="48.39258" lon="2.46223">
        <ele>72.7</ele>
        <time>2025-11-16T10:44:19Z</time>
      </trkpt>
      <trkpt lat="48.39256" lon="2.46217">
        <ele>73</ele>
        <time>2025-11-16T10:44:21Z</time>
      </trkpt>
      <trkpt lat="48.39255" lon="2.46206">
        <ele>73.5</ele>
        <time>2025-11-16T10:44:25Z</time>
      </trkpt>
      <trkpt lat="48.39254" lon="2.46197">
        <ele>73.9</ele>
        <time>2025-11-16T10:44:29Z</time>
      </trkpt>
      <trkpt lat="48.39251" lon="2.46188">
        <ele>74.5</ele>
        <time>2025-11-16T10:44:33Z</time>
      </trkpt>
      <trkpt lat="48.39248" lon="2.46181">
        <ele>74.9</ele>
        <time>2025-11-16T10:44:37Z</time>
      </trkpt>
      <trkpt lat="48.39243" lon="2.46174">
        <ele>75.3</ele>
        <time>2025-11-16T10:44:41Z</time>
      </trkpt>
      <trkpt lat="48.3924" lon="2.46163">
        <ele>75.9</ele>
        <time>2025-11-16T10:44:45Z</time>
      </trkpt>
      <trkpt lat="48.39237" lon="2.46153">
        <ele>76.3</ele>
        <time>2025-11-16T10:44:49Z</time>
      </trkpt>
      <trkpt lat="48.39233" lon="2.46141">
        <ele>76.7</ele>
        <time>2025-11-16T10:44:53Z</time>
      </trkpt>
      <trkpt lat="48.39227" lon="2.46128">
        <ele>76.8</ele>
        <time>2025-11-16T10:44:57Z</time>
      </trkpt>
      <trkpt lat="48.39224" lon="2.4612">
        <ele>76.8</ele>
        <time>2025-11-16T10:44:59Z</time>
      </trkpt>
      <trkpt lat="48.39221" lon="2.46114">
        <ele>76.8</ele>
        <time>2025-11-16T10:45:01Z</time>
      </trkpt>
      <trkpt lat="48.39216" lon="2.46103">
        <ele>77.1</ele>
        <time>2025-11-16T10:45:05Z</time>
      </trkpt>
      <trkpt lat="48.39213" lon="2.46096">
        <ele>77.2</ele>
        <time>2025-11-16T10:45:07Z</time>
      </trkpt>
      <trkpt lat="48.39209" lon="2.4609">
        <ele>77.3</ele>
        <time>2025-11-16T10:45:09Z</time>
      </trkpt>
      <trkpt lat="48.39205" lon="2.46084">
        <ele>77.3</ele>
        <time>2025-11-16T10:45:11Z</time>
      </trkpt>
      <trkpt lat="48.39199" lon="2.46079">
        <ele>77.2</ele>
        <time>2025-11-16T10:45:13Z</time>
      </trkpt>
      <trkpt lat="48.39192" lon="2.46077">
        <ele>77.1</ele>
        <time>2025-11-16T10:45:15Z</time>
      </trkpt>
      <trkpt lat="48.39187" lon="2.46069">
        <ele>77.3</ele>
        <time>2025-11-16T10:45:17Z</time>
      </trkpt>
      <trkpt lat="48.39183" lon="2.4606">
        <ele>77.4</ele>
        <time>2025-11-16T10:45:21Z</time>
      </trkpt>
      <trkpt lat="48.3918" lon="2.46049">
        <ele>77.8</ele>
        <time>2025-11-16T10:45:25Z</time>
      </trkpt>
      <trkpt lat="48.39178" lon="2.46038">
        <ele>78.2</ele>
        <time>2025-11-16T10:45:29Z</time>
      </trkpt>
      <trkpt lat="48.3918" lon="2.4603">
        <ele>78.4</ele>
        <time>2025-11-16T10:45:31Z</time>
      </trkpt>
      <trkpt lat="48.39182" lon="2.4602">
        <ele>78.7</ele>
        <time>2025-11-16T10:45:35Z</time>
      </trkpt>
      <trkpt lat="48.39177" lon="2.46013">
        <ele>79.2</ele>
        <time>2025-11-16T10:45:39Z</time>
      </trkpt>
      <trkpt lat="48.39175" lon="2.46004">
        <ele>79.6</ele>
        <time>2025-11-16T10:45:43Z</time>
      </trkpt>
      <trkpt lat="48.39177" lon="2.45993">
        <ele>80.1</ele>
        <time>2025-11-16T10:45:47Z</time>
      </trkpt>
      <trkpt lat="48.39176" lon="2.45983">
        <ele>80.9</ele>
        <time>2025-11-16T10:45:51Z</time>
      </trkpt>
      <trkpt lat="48.39177" lon="2.45974">
        <ele>81.5</ele>
        <time>2025-11-16T10:45:55Z</time>
      </trkpt>
      <trkpt lat="48.39177" lon="2.45965">
        <ele>82.1</ele>
        <time>2025-11-16T10:45:59Z</time>
      </trkpt>
      <trkpt lat="48.39177" lon="2.45959">
        <ele>82.6</ele>
        <time>2025-11-16T10:46:03Z</time>
      </trkpt>
      <trkpt lat="48.39174" lon="2.45952">
        <ele>83.2</ele>
        <time>2025-11-16T10:46:07Z</time>
      </trkpt>
      <trkpt lat="48.39168" lon="2.45947">
        <ele>83.7</ele>
        <time>2025-11-16T10:46:11Z</time>
      </trkpt>
      <trkpt lat="48.39165" lon="2.45942">
        <ele>84.4</ele>
        <time>2025-11-16T10:46:15Z</time>
      </trkpt>
      <trkpt lat="48.39162" lon="2.45936">
        <ele>85.4</ele>
        <time>2025-11-16T10:46:19Z</time>
      </trkpt>
      <trkpt lat="48.39159" lon="2.4593">
        <ele>86.5</ele>
        <time>2025-11-16T10:46:25Z</time>
      </trkpt>
      <trkpt lat="48.39153" lon="2.45925">
        <ele>87.6</ele>
        <time>2025-11-16T10:46:31Z</time>
      </trkpt>
      <trkpt lat="48.39153" lon="2.45917">
        <ele>88.9</ele>
        <time>2025-11-16T10:46:37Z</time>
      </trkpt>
      <trkpt lat="48.39152" lon="2.45908">
        <ele>90.5</ele>
        <time>2025-11-16T10:46:43Z</time>
      </trkpt>
      <trkpt lat="48.39155" lon="2.459">
        <ele>91.9</ele>
        <time>2025-11-16T10:46:49Z</time>
      </trkpt>
      <trkpt lat="48.39159" lon="2.45894">
        <ele>92.6</ele>
        <time>2025-11-16T10:46:57Z</time>
      </trkpt>
      <trkpt lat="48.39163" lon="2.4589">
        <ele>93.2</ele>
        <time>2025-11-16T10:47:01Z</time>
      </trkpt>
      <trkpt lat="48.39166" lon="2.45884">
        <ele>94</ele>
        <time>2025-11-16T10:47:05Z</time>
      </trkpt>
      <trkpt lat="48.39172" lon="2.4588">
        <ele>94</ele>
        <time>2025-11-16T10:47:11Z</time>
      </trkpt>
      <trkpt lat="48.39179" lon="2.45874">
        <ele>94.3</ele>
        <time>2025-11-16T10:47:15Z</time>
      </trkpt>
      <trkpt lat="48.39185" lon="2.45874">
        <ele>93.7</ele>
        <time>2025-11-16T10:47:19Z</time>
      </trkpt>
      <trkpt lat="48.39193" lon="2.45873">
        <ele>93.1</ele>
        <time>2025-11-16T10:47:23Z</time>
      </trkpt>
      <trkpt lat="48.392" lon="2.4587">
        <ele>93.1</ele>
        <time>2025-11-16T10:47:27Z</time>
      </trkpt>
      <trkpt lat="48.39204" lon="2.45866">
        <ele>93.4</ele>
        <time>2025-11-16T10:47:29Z</time>
      </trkpt>
      <trkpt lat="48.3921" lon="2.45863">
        <ele>93.6</ele>
        <time>2025-11-16T10:47:33Z</time>
      </trkpt>
      <trkpt lat="48.39216" lon="2.4586">
        <ele>93.6</ele>
        <time>2025-11-16T10:47:39Z</time>
      </trkpt>
      <trkpt lat="48.3922" lon="2.45855">
        <ele>94.2</ele>
        <time>2025-11-16T10:47:43Z</time>
      </trkpt>
      <trkpt lat="48.39227" lon="2.45857">
        <ele>93.5</ele>
        <time>2025-11-16T10:47:47Z</time>
      </trkpt>
      <trkpt lat="48.39231" lon="2.45859">
        <ele>92.8</ele>
        <time>2025-11-16T10:47:49Z</time>
      </trkpt>
      <trkpt lat="48.39238" lon="2.45863">
        <ele>91.6</ele>
        <time>2025-11-16T10:47:51Z</time>
      </trkpt>
      <trkpt lat="48.39243" lon="2.45866">
        <ele>90.9</ele>
        <time>2025-11-16T10:47:53Z</time>
      </trkpt>
      <trkpt lat="48.39245" lon="2.45878">
        <ele>89.3</ele>
        <time>2025-11-16T10:47:55Z</time>
      </trkpt>
      <trkpt lat="48.39251" lon="2.45892">
        <ele>87.7</ele>
        <time>2025-11-16T10:47:57Z</time>
      </trkpt>
      <trkpt lat="48.3926" lon="2.45896">
        <ele>87.4</ele>
        <time>2025-11-16T10:48:01Z</time>
      </trkpt>
      <trkpt lat="48.39265" lon="2.45889">
        <ele>88</ele>
        <time>2025-11-16T10:48:05Z</time>
      </trkpt>
      <trkpt lat="48.39272" lon="2.45883">
        <ele>88.5</ele>
        <time>2025-11-16T10:48:09Z</time>
      </trkpt>
      <trkpt lat="48.3928" lon="2.45878">
        <ele>88.6</ele>
        <time>2025-11-16T10:48:13Z</time>
      </trkpt>
      <trkpt lat="48.39285" lon="2.45875">
        <ele>88.5</ele>
        <time>2025-11-16T10:48:15Z</time>
      </trkpt>
      <trkpt lat="48.39291" lon="2.45869">
        <ele>88.3</ele>
        <time>2025-11-16T10:48:17Z</time>
      </trkpt>
      <trkpt lat="48.39297" lon="2.45863">
        <ele>87.9</ele>
        <time>2025-11-16T10:48:19Z</time>
      </trkpt>
      <trkpt lat="48.39304" lon="2.45856">
        <ele>87.3</ele>
        <time>2025-11-16T10:48:21Z</time>
      </trkpt>
      <trkpt lat="48.39312" lon="2.45857">
        <ele>86.7</ele>
        <time>2025-11-16T10:48:25Z</time>
      </trkpt>
      <trkpt lat="48.39316" lon="2.45845">
        <ele>86.6</ele>
        <time>2025-11-16T10:48:29Z</time>
      </trkpt>
      <trkpt lat="48.39315" lon="2.45831">
        <ele>86.9</ele>
        <time>2025-11-16T10:48:33Z</time>
      </trkpt>
      <trkpt lat="48.39319" lon="2.45819">
        <ele>86</ele>
        <time>2025-11-16T10:48:37Z</time>
      </trkpt>
      <trkpt lat="48.39324" lon="2.4581">
        <ele>85.1</ele>
        <time>2025-11-16T10:48:39Z</time>
      </trkpt>
      <trkpt lat="48.3933" lon="2.45798">
        <ele>84.4</ele>
        <time>2025-11-16T10:48:41Z</time>
      </trkpt>
      <trkpt lat="48.39337" lon="2.45786">
        <ele>83.9</ele>
        <time>2025-11-16T10:48:43Z</time>
      </trkpt>
      <trkpt lat="48.39344" lon="2.45779">
        <ele>83.7</ele>
        <time>2025-11-16T10:48:45Z</time>
      </trkpt>
      <trkpt lat="48.39354" lon="2.45782">
        <ele>83.5</ele>
        <time>2025-11-16T10:48:49Z</time>
      </trkpt>
      <trkpt lat="48.39359" lon="2.45784">
        <ele>83.5</ele>
        <time>2025-11-16T10:48:51Z</time>
      </trkpt>
      <trkpt lat="48.39364" lon="2.45773">
        <ele>83</ele>
        <time>2025-11-16T10:48:55Z</time>
      </trkpt>
      <trkpt lat="48.39364" lon="2.45766">
        <ele>82.7</ele>
        <time>2025-11-16T10:48:57Z</time>
      </trkpt>
      <trkpt lat="48.39366" lon="2.45757">
        <ele>82.5</ele>
        <time>2025-11-16T10:48:59Z</time>
      </trkpt>
      <trkpt lat="48.39375" lon="2.45755">
        <ele>82.8</ele>
        <time>2025-11-16T10:49:03Z</time>
      </trkpt>
      <trkpt lat="48.39381" lon="2.45759">
        <ele>83.2</ele>
        <time>2025-11-16T10:49:07Z</time>
      </trkpt>
      <trkpt lat="48.39386" lon="2.45762">
        <ele>83.7</ele>
        <time>2025-11-16T10:49:13Z</time>
      </trkpt>
      <trkpt lat="48.3939" lon="2.45768">
        <ele>84.3</ele>
        <time>2025-11-16T10:49:17Z</time>
      </trkpt>
      <trkpt lat="48.39395" lon="2.45771">
        <ele>84.5</ele>
        <time>2025-11-16T10:49:23Z</time>
      </trkpt>
      <trkpt lat="48.39402" lon="2.4577">
        <ele>84.4</ele>
        <time>2025-11-16T10:49:29Z</time>
      </trkpt>
      <trkpt lat="48.39402" lon="2.45777">
        <ele>84.9</ele>
        <time>2025-11-16T10:49:35Z</time>
      </trkpt>
      <trkpt lat="48.39402" lon="2.45786">
        <ele>85.6</ele>
        <time>2025-11-16T10:49:39Z</time>
      </trkpt>
      <trkpt lat="48.394" lon="2.45795">
        <ele>86.2</ele>
        <time>2025-11-16T10:49:45Z</time>
      </trkpt>
      <trkpt lat="48.394" lon="2.45806">
        <ele>87</ele>
        <time>2025-11-16T10:49:49Z</time>
      </trkpt>
      <trkpt lat="48.39401" lon="2.45815">
        <ele>87.3</ele>
        <time>2025-11-16T10:49:53Z</time>
      </trkpt>
      <trkpt lat="48.394" lon="2.45824">
        <ele>87.7</ele>
        <time>2025-11-16T10:49:57Z</time>
      </trkpt>
      <trkpt lat="48.39397" lon="2.4583">
        <ele>87.9</ele>
        <time>2025-11-16T10:50:01Z</time>
      </trkpt>
      <trkpt lat="48.39393" lon="2.45839">
        <ele>88.2</ele>
        <time>2025-11-16T10:50:05Z</time>
      </trkpt>
      <trkpt lat="48.39395" lon="2.45845">
        <ele>88.4</ele>
        <time>2025-11-16T10:50:07Z</time>
      </trkpt>
      <trkpt lat="48.39394" lon="2.45854">
        <ele>88.7</ele>
        <time>2025-11-16T10:50:09Z</time>
      </trkpt>
      <trkpt lat="48.39394" lon="2.45861">
        <ele>89</ele>
        <time>2025-11-16T10:50:11Z</time>
      </trkpt>
      <trkpt lat="48.39395" lon="2.4587">
        <ele>88.9</ele>
        <time>2025-11-16T10:50:13Z</time>
      </trkpt>
      <trkpt lat="48.39392" lon="2.45883">
        <ele>88.9</ele>
        <time>2025-11-16T10:50:15Z</time>
      </trkpt>
      <trkpt lat="48.39396" lon="2.45893">
        <ele>88.6</ele>
        <time>2025-11-16T10:50:17Z</time>
      </trkpt>
      <trkpt lat="48.39401" lon="2.45888">
        <ele>88.6</ele>
        <time>2025-11-16T10:50:23Z</time>
      </trkpt>
      <trkpt lat="48.39407" lon="2.45884">
        <ele>88.5</ele>
        <time>2025-11-16T10:50:27Z</time>
      </trkpt>
      <trkpt lat="48.39412" lon="2.45883">
        <ele>88.4</ele>
        <time>2025-11-16T10:50:31Z</time>
      </trkpt>
      <trkpt lat="48.39417" lon="2.45877">
        <ele>88.3</ele>
        <time>2025-11-16T10:50:35Z</time>
      </trkpt>
      <trkpt lat="48.39422" lon="2.45875">
        <ele>87.6</ele>
        <time>2025-11-16T10:50:37Z</time>
      </trkpt>
      <trkpt lat="48.39425" lon="2.45882">
        <ele>86.7</ele>
        <time>2025-11-16T10:50:43Z</time>
      </trkpt>
      <trkpt lat="48.39424" lon="2.4589">
        <ele>86.6</ele>
        <time>2025-11-16T10:50:49Z</time>
      </trkpt>
      <trkpt lat="48.39422" lon="2.45898">
        <ele>86.4</ele>
        <time>2025-11-16T10:50:53Z</time>
      </trkpt>
      <trkpt lat="48.3942" lon="2.45906">
        <ele>86.2</ele>
        <time>2025-11-16T10:50:57Z</time>
      </trkpt>
      <trkpt lat="48.39418" lon="2.45912">
        <ele>86.1</ele>
        <time>2025-11-16T10:51:07Z</time>
      </trkpt>
      <trkpt lat="48.39413" lon="2.4591">
        <ele>86.7</ele>
        <time>2025-11-16T10:51:23Z</time>
      </trkpt>
      <trkpt lat="48.39407" lon="2.45908">
        <ele>87.2</ele>
        <time>2025-11-16T10:51:37Z</time>
      </trkpt>
      <trkpt lat="48.39406" lon="2.45915">
        <ele>86.8</ele>
        <time>2025-11-16T10:51:41Z</time>
      </trkpt>
      <trkpt lat="48.394" lon="2.45919">
        <ele>86.9</ele>
        <time>2025-11-16T10:51:45Z</time>
      </trkpt>
      <trkpt lat="48.39397" lon="2.45926">
        <ele>86.5</ele>
        <time>2025-11-16T10:51:47Z</time>
      </trkpt>
      <trkpt lat="48.39391" lon="2.45919">
        <ele>87.6</ele>
        <time>2025-11-16T10:51:51Z</time>
      </trkpt>
      <trkpt lat="48.39386" lon="2.45912">
        <ele>87.9</ele>
        <time>2025-11-16T10:51:53Z</time>
      </trkpt>
      <trkpt lat="48.39377" lon="2.4591">
        <ele>87.3</ele>
        <time>2025-11-16T10:51:55Z</time>
      </trkpt>
      <trkpt lat="48.39369" lon="2.45911">
        <ele>86.6</ele>
        <time>2025-11-16T10:51:57Z</time>
      </trkpt>
      <trkpt lat="48.39361" lon="2.45911">
        <ele>86</ele>
        <time>2025-11-16T10:51:59Z</time>
      </trkpt>
      <trkpt lat="48.39355" lon="2.45919">
        <ele>85.6</ele>
        <time>2025-11-16T10:52:01Z</time>
      </trkpt>
      <trkpt lat="48.39352" lon="2.4593">
        <ele>84.7</ele>
        <time>2025-11-16T10:52:03Z</time>
      </trkpt>
      <trkpt lat="48.39355" lon="2.45941">
        <ele>84</ele>
        <time>2025-11-16T10:52:05Z</time>
      </trkpt>
      <trkpt lat="48.39357" lon="2.45955">
        <ele>83.2</ele>
        <time>2025-11-16T10:52:07Z</time>
      </trkpt>
      <trkpt lat="48.39356" lon="2.45964">
        <ele>82.7</ele>
        <time>2025-11-16T10:52:09Z</time>
      </trkpt>
      <trkpt lat="48.3935" lon="2.45965">
        <ele>82.7</ele>
        <time>2025-11-16T10:52:13Z</time>
      </trkpt>
      <trkpt lat="48.39345" lon="2.45963">
        <ele>82.9</ele>
        <time>2025-11-16T10:52:15Z</time>
      </trkpt>
      <trkpt lat="48.39338" lon="2.45966">
        <ele>82.9</ele>
        <time>2025-11-16T10:52:19Z</time>
      </trkpt>
      <trkpt lat="48.39337" lon="2.45975">
        <ele>83</ele>
        <time>2025-11-16T10:52:23Z</time>
      </trkpt>
      <trkpt lat="48.39338" lon="2.45984">
        <ele>83.1</ele>
        <time>2025-11-16T10:52:27Z</time>
      </trkpt>
      <trkpt lat="48.39337" lon="2.45991">
        <ele>83.4</ele>
        <time>2025-11-16T10:52:31Z</time>
      </trkpt>
      <trkpt lat="48.39336" lon="2.46">
        <ele>83.7</ele>
        <time>2025-11-16T10:52:35Z</time>
      </trkpt>
      <trkpt lat="48.39335" lon="2.46009">
        <ele>83.6</ele>
        <time>2025-11-16T10:52:39Z</time>
      </trkpt>
      <trkpt lat="48.39329" lon="2.46016">
        <ele>83.8</ele>
        <time>2025-11-16T10:52:45Z</time>
      </trkpt>
      <trkpt lat="48.39324" lon="2.46027">
        <ele>84</ele>
        <time>2025-11-16T10:52:49Z</time>
      </trkpt>
      <trkpt lat="48.39318" lon="2.4603">
        <ele>84.5</ele>
        <time>2025-11-16T10:52:51Z</time>
      </trkpt>
      <trkpt lat="48.39313" lon="2.46034">
        <ele>84.8</ele>
        <time>2025-11-16T10:52:55Z</time>
      </trkpt>
      <trkpt lat="48.39307" lon="2.46038">
        <ele>85.1</ele>
        <time>2025-11-16T10:52:59Z</time>
      </trkpt>
      <trkpt lat="48.39301" lon="2.4604">
        <ele>85.2</ele>
        <time>2025-11-16T10:53:03Z</time>
      </trkpt>
      <trkpt lat="48.39296" lon="2.46038">
        <ele>85.4</ele>
        <time>2025-11-16T10:53:07Z</time>
      </trkpt>
      <trkpt lat="48.39292" lon="2.46034">
        <ele>85.7</ele>
        <time>2025-11-16T10:53:11Z</time>
      </trkpt>
      <trkpt lat="48.39288" lon="2.46029">
        <ele>85.9</ele>
        <time>2025-11-16T10:53:15Z</time>
      </trkpt>
      <trkpt lat="48.39284" lon="2.46027">
        <ele>86.1</ele>
        <time>2025-11-16T10:53:21Z</time>
      </trkpt>
      <trkpt lat="48.3928" lon="2.46035">
        <ele>85.7</ele>
        <time>2025-11-16T10:53:27Z</time>
      </trkpt>
      <trkpt lat="48.39271" lon="2.4604">
        <ele>85.1</ele>
        <time>2025-11-16T10:53:31Z</time>
      </trkpt>
      <trkpt lat="48.39264" lon="2.46043">
        <ele>84.5</ele>
        <time>2025-11-16T10:53:33Z</time>
      </trkpt>
      <trkpt lat="48.39259" lon="2.46051">
        <ele>83.8</ele>
        <time>2025-11-16T10:53:35Z</time>
      </trkpt>
      <trkpt lat="48.39257" lon="2.46061">
        <ele>83.1</ele>
        <time>2025-11-16T10:53:37Z</time>
      </trkpt>
      <trkpt lat="48.39254" lon="2.46068">
        <ele>82.4</ele>
        <time>2025-11-16T10:53:39Z</time>
      </trkpt>
      <trkpt lat="48.39248" lon="2.46072">
        <ele>81.5</ele>
        <time>2025-11-16T10:53:43Z</time>
      </trkpt>
      <trkpt lat="48.39251" lon="2.46079">
        <ele>81.4</ele>
        <time>2025-11-16T10:53:47Z</time>
      </trkpt>
      <trkpt lat="48.39258" lon="2.46078">
        <ele>81.9</ele>
        <time>2025-11-16T10:53:51Z</time>
      </trkpt>
      <trkpt lat="48.39263" lon="2.46082">
        <ele>82.1</ele>
        <time>2025-11-16T10:53:57Z</time>
      </trkpt>
      <trkpt lat="48.39265" lon="2.4609">
        <ele>81.7</ele>
        <time>2025-11-16T10:53:59Z</time>
      </trkpt>
      <trkpt lat="48.39266" lon="2.461">
        <ele>81.2</ele>
        <time>2025-11-16T10:54:01Z</time>
      </trkpt>
      <trkpt lat="48.39268" lon="2.46109">
        <ele>80.8</ele>
        <time>2025-11-16T10:54:03Z</time>
      </trkpt>
      <trkpt lat="48.3927" lon="2.46118">
        <ele>80.2</ele>
        <time>2025-11-16T10:54:05Z</time>
      </trkpt>
      <trkpt lat="48.39273" lon="2.46129">
        <ele>79.5</ele>
        <time>2025-11-16T10:54:07Z</time>
      </trkpt>
      <trkpt lat="48.39276" lon="2.46142">
        <ele>78.6</ele>
        <time>2025-11-16T10:54:09Z</time>
      </trkpt>
      <trkpt lat="48.39282" lon="2.46155">
        <ele>77.2</ele>
        <time>2025-11-16T10:54:11Z</time>
      </trkpt>
      <trkpt lat="48.39287" lon="2.46157">
        <ele>76.9</ele>
        <time>2025-11-16T10:54:13Z</time>
      </trkpt>
      <trkpt lat="48.39293" lon="2.46152">
        <ele>77.3</ele>
        <time>2025-11-16T10:54:15Z</time>
      </trkpt>
      <trkpt lat="48.39295" lon="2.46144">
        <ele>78</ele>
        <time>2025-11-16T10:54:17Z</time>
      </trkpt>
      <trkpt lat="48.39303" lon="2.46137">
        <ele>78.2</ele>
        <time>2025-11-16T10:54:21Z</time>
      </trkpt>
      <trkpt lat="48.39309" lon="2.46133">
        <ele>78.2</ele>
        <time>2025-11-16T10:54:23Z</time>
      </trkpt>
      <trkpt lat="48.39315" lon="2.46129">
        <ele>78.2</ele>
        <time>2025-11-16T10:54:25Z</time>
      </trkpt>
      <trkpt lat="48.39323" lon="2.46124">
        <ele>78.2</ele>
        <time>2025-11-16T10:54:27Z</time>
      </trkpt>
      <trkpt lat="48.3933" lon="2.46117">
        <ele>78.5</ele>
        <time>2025-11-16T10:54:29Z</time>
      </trkpt>
      <trkpt lat="48.39336" lon="2.46108">
        <ele>79.1</ele>
        <time>2025-11-16T10:54:31Z</time>
      </trkpt>
      <trkpt lat="48.39339" lon="2.46103">
        <ele>79.1</ele>
        <time>2025-11-16T10:54:33Z</time>
      </trkpt>
      <trkpt lat="48.39342" lon="2.46096">
        <ele>79.3</ele>
        <time>2025-11-16T10:54:35Z</time>
      </trkpt>
      <trkpt lat="48.39343" lon="2.46088">
        <ele>79.7</ele>
        <time>2025-11-16T10:54:37Z</time>
      </trkpt>
      <trkpt lat="48.39346" lon="2.46079">
        <ele>79.8</ele>
        <time>2025-11-16T10:54:41Z</time>
      </trkpt>
      <trkpt lat="48.3935" lon="2.46075">
        <ele>79.5</ele>
        <time>2025-11-16T10:54:43Z</time>
      </trkpt>
      <trkpt lat="48.39353" lon="2.46069">
        <ele>79.4</ele>
        <time>2025-11-16T10:54:45Z</time>
      </trkpt>
      <trkpt lat="48.39356" lon="2.4606">
        <ele>79.4</ele>
        <time>2025-11-16T10:54:47Z</time>
      </trkpt>
      <trkpt lat="48.39357" lon="2.4605">
        <ele>79.6</ele>
        <time>2025-11-16T10:54:49Z</time>
      </trkpt>
      <trkpt lat="48.3936" lon="2.46041">
        <ele>79.7</ele>
        <time>2025-11-16T10:54:51Z</time>
      </trkpt>
      <trkpt lat="48.39362" lon="2.46031">
        <ele>79.8</ele>
        <time>2025-11-16T10:54:53Z</time>
      </trkpt>
      <trkpt lat="48.39363" lon="2.46023">
        <ele>80</ele>
        <time>2025-11-16T10:54:55Z</time>
      </trkpt>
      <trkpt lat="48.39368" lon="2.46025">
        <ele>79.4</ele>
        <time>2025-11-16T10:54:57Z</time>
      </trkpt>
      <trkpt lat="48.39376" lon="2.46028">
        <ele>78.4</ele>
        <time>2025-11-16T10:54:59Z</time>
      </trkpt>
      <trkpt lat="48.39382" lon="2.46035">
        <ele>77.5</ele>
        <time>2025-11-16T10:55:01Z</time>
      </trkpt>
      <trkpt lat="48.3939" lon="2.46048">
        <ele>76.2</ele>
        <time>2025-11-16T10:55:03Z</time>
      </trkpt>
      <trkpt lat="48.39402" lon="2.46059">
        <ele>75</ele>
        <time>2025-11-16T10:55:05Z</time>
      </trkpt>
      <trkpt lat="48.3941" lon="2.46064">
        <ele>74.2</ele>
        <time>2025-11-16T10:55:07Z</time>
      </trkpt>
      <trkpt lat="48.39417" lon="2.46063">
        <ele>73.7</ele>
        <time>2025-11-16T10:55:09Z</time>
      </trkpt>
      <trkpt lat="48.39421" lon="2.46056">
        <ele>73.8</ele>
        <time>2025-11-16T10:55:11Z</time>
      </trkpt>
      <trkpt lat="48.39425" lon="2.46046">
        <ele>74.3</ele>
        <time>2025-11-16T10:55:15Z</time>
      </trkpt>
      <trkpt lat="48.39428" lon="2.46038">
        <ele>74.6</ele>
        <time>2025-11-16T10:55:17Z</time>
      </trkpt>
      <trkpt lat="48.39431" lon="2.46031">
        <ele>74.8</ele>
        <time>2025-11-16T10:55:19Z</time>
      </trkpt>
      <trkpt lat="48.39435" lon="2.46025">
        <ele>74.8</ele>
        <time>2025-11-16T10:55:21Z</time>
      </trkpt>
      <trkpt lat="48.39442" lon="2.46018">
        <ele>74.6</ele>
        <time>2025-11-16T10:55:23Z</time>
      </trkpt>
      <trkpt lat="48.39448" lon="2.46014">
        <ele>74.2</ele>
        <time>2025-11-16T10:55:25Z</time>
      </trkpt>
      <trkpt lat="48.39449" lon="2.46006">
        <ele>74.4</ele>
        <time>2025-11-16T10:55:27Z</time>
      </trkpt>
      <trkpt lat="48.3946" lon="2.45997">
        <ele>74</ele>
        <time>2025-11-16T10:55:31Z</time>
      </trkpt>
      <trkpt lat="48.39465" lon="2.45987">
        <ele>74.1</ele>
        <time>2025-11-16T10:55:33Z</time>
      </trkpt>
      <trkpt lat="48.39469" lon="2.45976">
        <ele>74.2</ele>
        <time>2025-11-16T10:55:35Z</time>
      </trkpt>
      <trkpt lat="48.39472" lon="2.4597">
        <ele>74</ele>
        <time>2025-11-16T10:55:37Z</time>
      </trkpt>
      <trkpt lat="48.39475" lon="2.45963">
        <ele>73.7</ele>
        <time>2025-11-16T10:55:39Z</time>
      </trkpt>
      <trkpt lat="48.39476" lon="2.45956">
        <ele>73.6</ele>
        <time>2025-11-16T10:55:43Z</time>
      </trkpt>
      <trkpt lat="48.39471" lon="2.45958">
        <ele>74.2</ele>
        <time>2025-11-16T10:55:49Z</time>
      </trkpt>
      <trkpt lat="48.39464" lon="2.4596">
        <ele>75.1</ele>
        <time>2025-11-16T10:55:55Z</time>
      </trkpt>
      <trkpt lat="48.39459" lon="2.4596">
        <ele>75.8</ele>
        <time>2025-11-16T10:55:59Z</time>
      </trkpt>
      <trkpt lat="48.39453" lon="2.45962">
        <ele>76.6</ele>
        <time>2025-11-16T10:56:05Z</time>
      </trkpt>
      <trkpt lat="48.39448" lon="2.45968">
        <ele>76.9</ele>
        <time>2025-11-16T10:56:11Z</time>
      </trkpt>
      <trkpt lat="48.39442" lon="2.4597">
        <ele>77.5</ele>
        <time>2025-11-16T10:56:15Z</time>
      </trkpt>
      <trkpt lat="48.39437" lon="2.4597">
        <ele>78.4</ele>
        <time>2025-11-16T10:56:19Z</time>
      </trkpt>
      <trkpt lat="48.3943" lon="2.45967">
        <ele>79.5</ele>
        <time>2025-11-16T10:56:25Z</time>
      </trkpt>
      <trkpt lat="48.39425" lon="2.45969">
        <ele>80.1</ele>
        <time>2025-11-16T10:56:29Z</time>
      </trkpt>
      <trkpt lat="48.3942" lon="2.45974">
        <ele>80.3</ele>
        <time>2025-11-16T10:56:35Z</time>
      </trkpt>
      <trkpt lat="48.39418" lon="2.45986">
        <ele>79.3</ele>
        <time>2025-11-16T10:56:41Z</time>
      </trkpt>
      <trkpt lat="48.39414" lon="2.45997">
        <ele>78.5</ele>
        <time>2025-11-16T10:56:45Z</time>
      </trkpt>
      <trkpt lat="48.39407" lon="2.46001">
        <ele>78.3</ele>
        <time>2025-11-16T10:56:49Z</time>
      </trkpt>
      <trkpt lat="48.39402" lon="2.46003">
        <ele>78.3</ele>
        <time>2025-11-16T10:56:53Z</time>
      </trkpt>
      <trkpt lat="48.39401" lon="2.45996">
        <ele>79</ele>
        <time>2025-11-16T10:57:01Z</time>
      </trkpt>
      <trkpt lat="48.39401" lon="2.45989">
        <ele>79.7</ele>
        <time>2025-11-16T10:57:07Z</time>
      </trkpt>
      <trkpt lat="48.39404" lon="2.45981">
        <ele>80.5</ele>
        <time>2025-11-16T10:57:13Z</time>
      </trkpt>
      <trkpt lat="48.39405" lon="2.45973">
        <ele>81.3</ele>
        <time>2025-11-16T10:57:19Z</time>
      </trkpt>
      <trkpt lat="48.39407" lon="2.45966">
        <ele>82</ele>
        <time>2025-11-16T10:57:33Z</time>
      </trkpt>
      <trkpt lat="48.39409" lon="2.45959">
        <ele>82.7</ele>
        <time>2025-11-16T10:57:43Z</time>
      </trkpt>
      <trkpt lat="48.39408" lon="2.45952">
        <ele>83.5</ele>
        <time>2025-11-16T10:57:51Z</time>
      </trkpt>
      <trkpt lat="48.39411" lon="2.45947">
        <ele>83.9</ele>
        <time>2025-11-16T10:58:01Z</time>
      </trkpt>
      <trkpt lat="48.39416" lon="2.45942">
        <ele>84.2</ele>
        <time>2025-11-16T10:58:05Z</time>
      </trkpt>
      <trkpt lat="48.39418" lon="2.45936">
        <ele>84.3</ele>
        <time>2025-11-16T10:58:09Z</time>
      </trkpt>
      <trkpt lat="48.39423" lon="2.45928">
        <ele>84.1</ele>
        <time>2025-11-16T10:58:15Z</time>
      </trkpt>
      <trkpt lat="48.39429" lon="2.45927">
        <ele>83</ele>
        <time>2025-11-16T10:58:17Z</time>
      </trkpt>
      <trkpt lat="48.39434" lon="2.45924">
        <ele>82.4</ele>
        <time>2025-11-16T10:58:19Z</time>
      </trkpt>
      <trkpt lat="48.39442" lon="2.45923">
        <ele>80.9</ele>
        <time>2025-11-16T10:58:23Z</time>
      </trkpt>
      <trkpt lat="48.39445" lon="2.45913">
        <ele>81.1</ele>
        <time>2025-11-16T10:58:27Z</time>
      </trkpt>
      <trkpt lat="48.39447" lon="2.45905">
        <ele>81.4</ele>
        <time>2025-11-16T10:58:31Z</time>
      </trkpt>
      <trkpt lat="48.39448" lon="2.45893">
        <ele>81.9</ele>
        <time>2025-11-16T10:58:35Z</time>
      </trkpt>
      <trkpt lat="48.39448" lon="2.45887">
        <ele>82.1</ele>
        <time>2025-11-16T10:58:39Z</time>
      </trkpt>
      <trkpt lat="48.39449" lon="2.45879">
        <ele>82.3</ele>
        <time>2025-11-16T10:58:43Z</time>
      </trkpt>
      <trkpt lat="48.39449" lon="2.4587">
        <ele>82.5</ele>
        <time>2025-11-16T10:58:49Z</time>
      </trkpt>
      <trkpt lat="48.39449" lon="2.45862">
        <ele>82.9</ele>
        <time>2025-11-16T10:58:53Z</time>
      </trkpt>
      <trkpt lat="48.39448" lon="2.45855">
        <ele>83.3</ele>
        <time>2025-11-16T10:58:57Z</time>
      </trkpt>
      <trkpt lat="48.39445" lon="2.45848">
        <ele>83.9</ele>
        <time>2025-11-16T10:59:03Z</time>
      </trkpt>
      <trkpt lat="48.39443" lon="2.45835">
        <ele>84.2</ele>
        <time>2025-11-16T10:59:09Z</time>
      </trkpt>
      <trkpt lat="48.39442" lon="2.45826">
        <ele>84.3</ele>
        <time>2025-11-16T10:59:11Z</time>
      </trkpt>
      <trkpt lat="48.39439" lon="2.45821">
        <ele>84.7</ele>
        <time>2025-11-16T10:59:13Z</time>
      </trkpt>
      <trkpt lat="48.39434" lon="2.45813">
        <ele>85.2</ele>
        <time>2025-11-16T10:59:17Z</time>
      </trkpt>
      <trkpt lat="48.39429" lon="2.45806">
        <ele>85.7</ele>
        <time>2025-11-16T10:59:21Z</time>
      </trkpt>
      <trkpt lat="48.39428" lon="2.45799">
        <ele>85.4</ele>
        <time>2025-11-16T10:59:25Z</time>
      </trkpt>
      <trkpt lat="48.39432" lon="2.4579">
        <ele>84.6</ele>
        <time>2025-11-16T10:59:29Z</time>
      </trkpt>
      <trkpt lat="48.39439" lon="2.45794">
        <ele>84.1</ele>
        <time>2025-11-16T10:59:31Z</time>
      </trkpt>
      <trkpt lat="48.39444" lon="2.45798">
        <ele>83.8</ele>
        <time>2025-11-16T10:59:33Z</time>
      </trkpt>
      <trkpt lat="48.39449" lon="2.45789">
        <ele>82.8</ele>
        <time>2025-11-16T10:59:35Z</time>
      </trkpt>
      <trkpt lat="48.39453" lon="2.45777">
        <ele>82</ele>
        <time>2025-11-16T10:59:37Z</time>
      </trkpt>
      <trkpt lat="48.39458" lon="2.45765">
        <ele>81.3</ele>
        <time>2025-11-16T10:59:39Z</time>
      </trkpt>
      <trkpt lat="48.39465" lon="2.45753">
        <ele>80.6</ele>
        <time>2025-11-16T10:59:41Z</time>
      </trkpt>
      <trkpt lat="48.39473" lon="2.45747">
        <ele>79.8</ele>
        <time>2025-11-16T10:59:43Z</time>
      </trkpt>
      <trkpt lat="48.39479" lon="2.45743">
        <ele>79</ele>
        <time>2025-11-16T10:59:45Z</time>
      </trkpt>
      <trkpt lat="48.39481" lon="2.45736">
        <ele>78.5</ele>
        <time>2025-11-16T10:59:47Z</time>
      </trkpt>
      <trkpt lat="48.39479" lon="2.45729">
        <ele>78.5</ele>
        <time>2025-11-16T10:59:51Z</time>
      </trkpt>
      <trkpt lat="48.39476" lon="2.45718">
        <ele>78.4</ele>
        <time>2025-11-16T10:59:55Z</time>
      </trkpt>
      <trkpt lat="48.39473" lon="2.45712">
        <ele>78.6</ele>
        <time>2025-11-16T10:59:57Z</time>
      </trkpt>
      <trkpt lat="48.39469" lon="2.45706">
        <ele>78.6</ele>
        <time>2025-11-16T10:59:59Z</time>
      </trkpt>
      <trkpt lat="48.39461" lon="2.45698">
        <ele>78.6</ele>
        <time>2025-11-16T11:00:01Z</time>
      </trkpt>
      <trkpt lat="48.39454" lon="2.45693">
        <ele>78.5</ele>
        <time>2025-11-16T11:00:03Z</time>
      </trkpt>
      <trkpt lat="48.39447" lon="2.4569">
        <ele>78.6</ele>
        <time>2025-11-16T11:00:05Z</time>
      </trkpt>
      <trkpt lat="48.39441" lon="2.45688">
        <ele>78.6</ele>
        <time>2025-11-16T11:00:07Z</time>
      </trkpt>
      <trkpt lat="48.39434" lon="2.45685">
        <ele>78.3</ele>
        <time>2025-11-16T11:00:09Z</time>
      </trkpt>
      <trkpt lat="48.39431" lon="2.4568">
        <ele>77.9</ele>
        <time>2025-11-16T11:00:11Z</time>
      </trkpt>
      <trkpt lat="48.39431" lon="2.45672">
        <ele>77.4</ele>
        <time>2025-11-16T11:00:13Z</time>
      </trkpt>
      <trkpt lat="48.39434" lon="2.45664">
        <ele>76.9</ele>
        <time>2025-11-16T11:00:15Z</time>
      </trkpt>
      <trkpt lat="48.39435" lon="2.45655">
        <ele>76.6</ele>
        <time>2025-11-16T11:00:17Z</time>
      </trkpt>
      <trkpt lat="48.39438" lon="2.45646">
        <ele>76.2</ele>
        <time>2025-11-16T11:00:19Z</time>
      </trkpt>
      <trkpt lat="48.39441" lon="2.45638">
        <ele>76</ele>
        <time>2025-11-16T11:00:21Z</time>
      </trkpt>
      <trkpt lat="48.39448" lon="2.45628">
        <ele>75.5</ele>
        <time>2025-11-16T11:00:23Z</time>
      </trkpt>
      <trkpt lat="48.39455" lon="2.45619">
        <ele>74.9</ele>
        <time>2025-11-16T11:00:25Z</time>
      </trkpt>
      <trkpt lat="48.39459" lon="2.45605">
        <ele>74.5</ele>
        <time>2025-11-16T11:00:27Z</time>
      </trkpt>
      <trkpt lat="48.3946" lon="2.45591">
        <ele>74.4</ele>
        <time>2025-11-16T11:00:29Z</time>
      </trkpt>
      <trkpt lat="48.39459" lon="2.45581">
        <ele>74.4</ele>
        <time>2025-11-16T11:00:31Z</time>
      </trkpt>
      <trkpt lat="48.39459" lon="2.45575">
        <ele>74.1</ele>
        <time>2025-11-16T11:00:33Z</time>
      </trkpt>
      <trkpt lat="48.39463" lon="2.45569">
        <ele>73.8</ele>
        <time>2025-11-16T11:00:35Z</time>
      </trkpt>
      <trkpt lat="48.39463" lon="2.45561">
        <ele>73.5</ele>
        <time>2025-11-16T11:00:37Z</time>
      </trkpt>
      <trkpt lat="48.39465" lon="2.45552">
        <ele>73.3</ele>
        <time>2025-11-16T11:00:39Z</time>
      </trkpt>
      <trkpt lat="48.39464" lon="2.45544">
        <ele>73.3</ele>
        <time>2025-11-16T11:00:41Z</time>
      </trkpt>
      <trkpt lat="48.3946" lon="2.45537">
        <ele>73.4</ele>
        <time>2025-11-16T11:00:45Z</time>
      </trkpt>
      <trkpt lat="48.39455" lon="2.45533">
        <ele>73.6</ele>
        <time>2025-11-16T11:00:47Z</time>
      </trkpt>
      <trkpt lat="48.39449" lon="2.45532">
        <ele>73.8</ele>
        <time>2025-11-16T11:00:51Z</time>
      </trkpt>
      <trkpt lat="48.39444" lon="2.45536">
        <ele>74</ele>
        <time>2025-11-16T11:00:55Z</time>
      </trkpt>
      <trkpt lat="48.39438" lon="2.45537">
        <ele>74.2</ele>
        <time>2025-11-16T11:00:59Z</time>
      </trkpt>
      <trkpt lat="48.39433" lon="2.45542">
        <ele>74.4</ele>
        <time>2025-11-16T11:01:05Z</time>
      </trkpt>
      <trkpt lat="48.39428" lon="2.45542">
        <ele>74.6</ele>
        <time>2025-11-16T11:01:09Z</time>
      </trkpt>
      <trkpt lat="48.39423" lon="2.45541">
        <ele>74.8</ele>
        <time>2025-11-16T11:01:13Z</time>
      </trkpt>
      <trkpt lat="48.39417" lon="2.45544">
        <ele>75</ele>
        <time>2025-11-16T11:01:17Z</time>
      </trkpt>
      <trkpt lat="48.39412" lon="2.45551">
        <ele>75</ele>
        <time>2025-11-16T11:01:23Z</time>
      </trkpt>
      <trkpt lat="48.39411" lon="2.45557">
        <ele>75</ele>
        <time>2025-11-16T11:01:27Z</time>
      </trkpt>
      <trkpt lat="48.39407" lon="2.45563">
        <ele>75</ele>
        <time>2025-11-16T11:01:35Z</time>
      </trkpt>
      <trkpt lat="48.39405" lon="2.45569">
        <ele>75</ele>
        <time>2025-11-16T11:01:43Z</time>
      </trkpt>
      <trkpt lat="48.39403" lon="2.45577">
        <ele>75</ele>
        <time>2025-11-16T11:01:53Z</time>
      </trkpt>
      <trkpt lat="48.39399" lon="2.45586">
        <ele>75</ele>
        <time>2025-11-16T11:01:59Z</time>
      </trkpt>
      <trkpt lat="48.39394" lon="2.45589">
        <ele>75</ele>
        <time>2025-11-16T11:02:01Z</time>
      </trkpt>
      <trkpt lat="48.39387" lon="2.45588">
        <ele>75</ele>
        <time>2025-11-16T11:02:03Z</time>
      </trkpt>
      <trkpt lat="48.39378" lon="2.45591">
        <ele>75.1</ele>
        <time>2025-11-16T11:02:07Z</time>
      </trkpt>
      <trkpt lat="48.3937" lon="2.45599">
        <ele>75.4</ele>
        <time>2025-11-16T11:02:11Z</time>
      </trkpt>
      <trkpt lat="48.39365" lon="2.4561">
        <ele>75.8</ele>
        <time>2025-11-16T11:02:13Z</time>
      </trkpt>
      <trkpt lat="48.3936" lon="2.45619">
        <ele>76.4</ele>
        <time>2025-11-16T11:02:15Z</time>
      </trkpt>
      <trkpt lat="48.39354" lon="2.45623">
        <ele>77.1</ele>
        <time>2025-11-16T11:02:19Z</time>
      </trkpt>
      <trkpt lat="48.39349" lon="2.45624">
        <ele>77.5</ele>
        <time>2025-11-16T11:02:23Z</time>
      </trkpt>
      <trkpt lat="48.39344" lon="2.45624">
        <ele>78</ele>
        <time>2025-11-16T11:02:27Z</time>
      </trkpt>
      <trkpt lat="48.39338" lon="2.45623">
        <ele>78.4</ele>
        <time>2025-11-16T11:02:31Z</time>
      </trkpt>
      <trkpt lat="48.39332" lon="2.45624">
        <ele>79.1</ele>
        <time>2025-11-16T11:02:37Z</time>
      </trkpt>
      <trkpt lat="48.3933" lon="2.45631">
        <ele>80</ele>
        <time>2025-11-16T11:02:41Z</time>
      </trkpt>
      <trkpt lat="48.39327" lon="2.4564">
        <ele>81</ele>
        <time>2025-11-16T11:02:47Z</time>
      </trkpt>
      <trkpt lat="48.39325" lon="2.45647">
        <ele>81.4</ele>
        <time>2025-11-16T11:02:51Z</time>
      </trkpt>
      <trkpt lat="48.39324" lon="2.45654">
        <ele>81.9</ele>
        <time>2025-11-16T11:02:57Z</time>
      </trkpt>
      <trkpt lat="48.3932" lon="2.45658">
        <ele>82.6</ele>
        <time>2025-11-16T11:03:03Z</time>
      </trkpt>
      <trkpt lat="48.39316" lon="2.45655">
        <ele>83</ele>
        <time>2025-11-16T11:03:07Z</time>
      </trkpt>
      <trkpt lat="48.3931" lon="2.45656">
        <ele>83.9</ele>
        <time>2025-11-16T11:03:13Z</time>
      </trkpt>
      <trkpt lat="48.39306" lon="2.45662">
        <ele>84.7</ele>
        <time>2025-11-16T11:03:19Z</time>
      </trkpt>
      <trkpt lat="48.39301" lon="2.45665">
        <ele>85.4</ele>
        <time>2025-11-16T11:03:25Z</time>
      </trkpt>
      <trkpt lat="48.39295" lon="2.45665">
        <ele>86.1</ele>
        <time>2025-11-16T11:03:33Z</time>
      </trkpt>
      <trkpt lat="48.39289" lon="2.45662">
        <ele>86.5</ele>
        <time>2025-11-16T11:03:39Z</time>
      </trkpt>
      <trkpt lat="48.39285" lon="2.45653">
        <ele>86.3</ele>
        <time>2025-11-16T11:03:43Z</time>
      </trkpt>
      <trkpt lat="48.39278" lon="2.4565">
        <ele>86.8</ele>
        <time>2025-11-16T11:03:47Z</time>
      </trkpt>
      <trkpt lat="48.39271" lon="2.45645">
        <ele>86.7</ele>
        <time>2025-11-16T11:03:51Z</time>
      </trkpt>
      <trkpt lat="48.39263" lon="2.45643">
        <ele>86.9</ele>
        <time>2025-11-16T11:03:55Z</time>
      </trkpt>
      <trkpt lat="48.39259" lon="2.45638">
        <ele>86.6</ele>
        <time>2025-11-16T11:03:57Z</time>
      </trkpt>
      <trkpt lat="48.39256" lon="2.45628">
        <ele>85.7</ele>
        <time>2025-11-16T11:03:59Z</time>
      </trkpt>
      <trkpt lat="48.39253" lon="2.45619">
        <ele>84.8</ele>
        <time>2025-11-16T11:04:01Z</time>
      </trkpt>
      <trkpt lat="48.3925" lon="2.45605">
        <ele>83.6</ele>
        <time>2025-11-16T11:04:05Z</time>
      </trkpt>
      <trkpt lat="48.39247" lon="2.45596">
        <ele>83</ele>
        <time>2025-11-16T11:04:07Z</time>
      </trkpt>
      <trkpt lat="48.39246" lon="2.45589">
        <ele>82.5</ele>
        <time>2025-11-16T11:04:09Z</time>
      </trkpt>
      <trkpt lat="48.3924" lon="2.45586">
        <ele>82.2</ele>
        <time>2025-11-16T11:04:11Z</time>
      </trkpt>
      <trkpt lat="48.39236" lon="2.45582">
        <ele>81.9</ele>
        <time>2025-11-16T11:04:17Z</time>
      </trkpt>
      <trkpt lat="48.39231" lon="2.45582">
        <ele>81.9</ele>
        <time>2025-11-16T11:04:23Z</time>
      </trkpt>
      <trkpt lat="48.39224" lon="2.45581">
        <ele>81.8</ele>
        <time>2025-11-16T11:04:27Z</time>
      </trkpt>
      <trkpt lat="48.3922" lon="2.45577">
        <ele>81.7</ele>
        <time>2025-11-16T11:04:29Z</time>
      </trkpt>
      <trkpt lat="48.39216" lon="2.45565">
        <ele>81</ele>
        <time>2025-11-16T11:04:31Z</time>
      </trkpt>
      <trkpt lat="48.39211" lon="2.45555">
        <ele>80.4</ele>
        <time>2025-11-16T11:04:33Z</time>
      </trkpt>
      <trkpt lat="48.39206" lon="2.45553">
        <ele>80.4</ele>
        <time>2025-11-16T11:04:37Z</time>
      </trkpt>
      <trkpt lat="48.392" lon="2.45559">
        <ele>81.2</ele>
        <time>2025-11-16T11:04:41Z</time>
      </trkpt>
      <trkpt lat="48.39197" lon="2.45564">
        <ele>81.8</ele>
        <time>2025-11-16T11:04:45Z</time>
      </trkpt>
      <trkpt lat="48.39191" lon="2.45563">
        <ele>82</ele>
        <time>2025-11-16T11:04:49Z</time>
      </trkpt>
      <trkpt lat="48.39186" lon="2.45551">
        <ele>81.2</ele>
        <time>2025-11-16T11:04:53Z</time>
      </trkpt>
      <trkpt lat="48.39185" lon="2.45542">
        <ele>80.5</ele>
        <time>2025-11-16T11:04:55Z</time>
      </trkpt>
      <trkpt lat="48.39181" lon="2.45533">
        <ele>79.9</ele>
        <time>2025-11-16T11:04:57Z</time>
      </trkpt>
      <trkpt lat="48.39174" lon="2.45526">
        <ele>79.6</ele>
        <time>2025-11-16T11:04:59Z</time>
      </trkpt>
      <trkpt lat="48.3917" lon="2.45516">
        <ele>79</ele>
        <time>2025-11-16T11:05:01Z</time>
      </trkpt>
      <trkpt lat="48.39166" lon="2.45505">
        <ele>78.4</ele>
        <time>2025-11-16T11:05:03Z</time>
      </trkpt>
      <trkpt lat="48.39157" lon="2.455">
        <ele>79</ele>
        <time>2025-11-16T11:05:05Z</time>
      </trkpt>
      <trkpt lat="48.3915" lon="2.45495">
        <ele>79.6</ele>
        <time>2025-11-16T11:05:07Z</time>
      </trkpt>
      <trkpt lat="48.39146" lon="2.45492">
        <ele>79.9</ele>
        <time>2025-11-16T11:05:09Z</time>
      </trkpt>
      <trkpt lat="48.39141" lon="2.45489">
        <ele>80.4</ele>
        <time>2025-11-16T11:05:13Z</time>
      </trkpt>
      <trkpt lat="48.39135" lon="2.45483">
        <ele>80.8</ele>
        <time>2025-11-16T11:05:17Z</time>
      </trkpt>
      <trkpt lat="48.39131" lon="2.4548">
        <ele>81.2</ele>
        <time>2025-11-16T11:05:19Z</time>
      </trkpt>
      <trkpt lat="48.39125" lon="2.45475">
        <ele>81.6</ele>
        <time>2025-11-16T11:05:23Z</time>
      </trkpt>
      <trkpt lat="48.39119" lon="2.45469">
        <ele>82</ele>
        <time>2025-11-16T11:05:27Z</time>
      </trkpt>
      <trkpt lat="48.39114" lon="2.45462">
        <ele>82.4</ele>
        <time>2025-11-16T11:05:31Z</time>
      </trkpt>
      <trkpt lat="48.39109" lon="2.45455">
        <ele>82.5</ele>
        <time>2025-11-16T11:05:33Z</time>
      </trkpt>
      <trkpt lat="48.39102" lon="2.45448">
        <ele>82.5</ele>
        <time>2025-11-16T11:05:35Z</time>
      </trkpt>
      <trkpt lat="48.39094" lon="2.4544">
        <ele>82.4</ele>
        <time>2025-11-16T11:05:37Z</time>
      </trkpt>
      <trkpt lat="48.39087" lon="2.45435">
        <ele>82.5</ele>
        <time>2025-11-16T11:05:39Z</time>
      </trkpt>
      <trkpt lat="48.3908" lon="2.45433">
        <ele>82.8</ele>
        <time>2025-11-16T11:05:41Z</time>
      </trkpt>
      <trkpt lat="48.39075" lon="2.4543">
        <ele>82.9</ele>
        <time>2025-11-16T11:05:43Z</time>
      </trkpt>
      <trkpt lat="48.39068" lon="2.45422">
        <ele>82.8</ele>
        <time>2025-11-16T11:05:47Z</time>
      </trkpt>
      <trkpt lat="48.39064" lon="2.45419">
        <ele>82.8</ele>
        <time>2025-11-16T11:05:49Z</time>
      </trkpt>
      <trkpt lat="48.39059" lon="2.45417">
        <ele>82.9</ele>
        <time>2025-11-16T11:05:51Z</time>
      </trkpt>
      <trkpt lat="48.39054" lon="2.45415">
        <ele>82.9</ele>
        <time>2025-11-16T11:05:53Z</time>
      </trkpt>
      <trkpt lat="48.39048" lon="2.45414">
        <ele>83.1</ele>
        <time>2025-11-16T11:05:55Z</time>
      </trkpt>
      <trkpt lat="48.3904" lon="2.45413">
        <ele>83.4</ele>
        <time>2025-11-16T11:05:59Z</time>
      </trkpt>
      <trkpt lat="48.39035" lon="2.45409">
        <ele>83.4</ele>
        <time>2025-11-16T11:06:01Z</time>
      </trkpt>
      <trkpt lat="48.39029" lon="2.45405">
        <ele>83.5</ele>
        <time>2025-11-16T11:06:03Z</time>
      </trkpt>
      <trkpt lat="48.39026" lon="2.454">
        <ele>83.5</ele>
        <time>2025-11-16T11:06:05Z</time>
      </trkpt>
      <trkpt lat="48.3902" lon="2.45397">
        <ele>83.6</ele>
        <time>2025-11-16T11:06:07Z</time>
      </trkpt>
      <trkpt lat="48.39015" lon="2.45394">
        <ele>83.7</ele>
        <time>2025-11-16T11:06:09Z</time>
      </trkpt>
      <trkpt lat="48.3901" lon="2.45391">
        <ele>83.7</ele>
        <time>2025-11-16T11:06:11Z</time>
      </trkpt>
      <trkpt lat="48.39005" lon="2.45387">
        <ele>83.7</ele>
        <time>2025-11-16T11:06:13Z</time>
      </trkpt>
      <trkpt lat="48.38999" lon="2.45386">
        <ele>83.8</ele>
        <time>2025-11-16T11:06:15Z</time>
      </trkpt>
      <trkpt lat="48.38995" lon="2.45391">
        <ele>84.1</ele>
        <time>2025-11-16T11:06:19Z</time>
      </trkpt>
      <trkpt lat="48.3899" lon="2.45399">
        <ele>84.5</ele>
        <time>2025-11-16T11:06:25Z</time>
      </trkpt>
      <trkpt lat="48.38986" lon="2.45404">
        <ele>84.8</ele>
        <time>2025-11-16T11:06:29Z</time>
      </trkpt>
      <trkpt lat="48.38983" lon="2.45411">
        <ele>85.3</ele>
        <time>2025-11-16T11:06:33Z</time>
      </trkpt>
      <trkpt lat="48.38978" lon="2.45415">
        <ele>85.6</ele>
        <time>2025-11-16T11:06:35Z</time>
      </trkpt>
      <trkpt lat="48.38973" lon="2.45418">
        <ele>86.1</ele>
        <time>2025-11-16T11:06:39Z</time>
      </trkpt>
      <trkpt lat="48.3897" lon="2.45428">
        <ele>86.8</ele>
        <time>2025-11-16T11:06:43Z</time>
      </trkpt>
      <trkpt lat="48.38964" lon="2.45438">
        <ele>87.5</ele>
        <time>2025-11-16T11:06:47Z</time>
      </trkpt>
      <trkpt lat="48.38959" lon="2.45446">
        <ele>88.1</ele>
        <time>2025-11-16T11:06:51Z</time>
      </trkpt>
      <trkpt lat="48.38956" lon="2.45455">
        <ele>88.5</ele>
        <time>2025-11-16T11:06:55Z</time>
      </trkpt>
      <trkpt lat="48.38953" lon="2.45463">
        <ele>88.8</ele>
        <time>2025-11-16T11:06:59Z</time>
      </trkpt>
      <trkpt lat="48.38949" lon="2.45471">
        <ele>89.1</ele>
        <time>2025-11-16T11:07:03Z</time>
      </trkpt>
      <trkpt lat="48.38946" lon="2.45479">
        <ele>89.5</ele>
        <time>2025-11-16T11:07:07Z</time>
      </trkpt>
      <trkpt lat="48.38943" lon="2.45486">
        <ele>90</ele>
        <time>2025-11-16T11:07:11Z</time>
      </trkpt>
      <trkpt lat="48.38939" lon="2.45493">
        <ele>90.7</ele>
        <time>2025-11-16T11:07:15Z</time>
      </trkpt>
      <trkpt lat="48.38935" lon="2.45501">
        <ele>91.4</ele>
        <time>2025-11-16T11:07:19Z</time>
      </trkpt>
      <trkpt lat="48.38931" lon="2.45508">
        <ele>92.1</ele>
        <time>2025-11-16T11:07:23Z</time>
      </trkpt>
      <trkpt lat="48.38927" lon="2.45514">
        <ele>92.7</ele>
        <time>2025-11-16T11:07:27Z</time>
      </trkpt>
      <trkpt lat="48.38923" lon="2.45521">
        <ele>93.3</ele>
        <time>2025-11-16T11:07:31Z</time>
      </trkpt>
      <trkpt lat="48.38919" lon="2.45528">
        <ele>93.9</ele>
        <time>2025-11-16T11:07:35Z</time>
      </trkpt>
      <trkpt lat="48.38918" lon="2.45536">
        <ele>94.5</ele>
        <time>2025-11-16T11:07:39Z</time>
      </trkpt>
      <trkpt lat="48.38914" lon="2.45544">
        <ele>95.2</ele>
        <time>2025-11-16T11:07:43Z</time>
      </trkpt>
      <trkpt lat="48.3891" lon="2.4555">
        <ele>95.8</ele>
        <time>2025-11-16T11:07:47Z</time>
      </trkpt>
      <trkpt lat="48.38906" lon="2.45556">
        <ele>96.4</ele>
        <time>2025-11-16T11:07:51Z</time>
      </trkpt>
      <trkpt lat="48.38903" lon="2.45564">
        <ele>97.1</ele>
        <time>2025-11-16T11:07:55Z</time>
      </trkpt>
      <trkpt lat="48.389" lon="2.45571">
        <ele>97.7</ele>
        <time>2025-11-16T11:07:59Z</time>
      </trkpt>
      <trkpt lat="48.38897" lon="2.45577">
        <ele>98.2</ele>
        <time>2025-11-16T11:08:03Z</time>
      </trkpt>
      <trkpt lat="48.38892" lon="2.45581">
        <ele>98.7</ele>
        <time>2025-11-16T11:08:07Z</time>
      </trkpt>
      <trkpt lat="48.38887" lon="2.45585">
        <ele>99.3</ele>
        <time>2025-11-16T11:08:11Z</time>
      </trkpt>
      <trkpt lat="48.38883" lon="2.45588">
        <ele>100</ele>
        <time>2025-11-16T11:08:15Z</time>
      </trkpt>
      <trkpt lat="48.38879" lon="2.45591">
        <ele>100.8</ele>
        <time>2025-11-16T11:08:19Z</time>
      </trkpt>
      <trkpt lat="48.38874" lon="2.45593">
        <ele>101.4</ele>
        <time>2025-11-16T11:08:23Z</time>
      </trkpt>
      <trkpt lat="48.38869" lon="2.45596">
        <ele>102.3</ele>
        <time>2025-11-16T11:08:29Z</time>
      </trkpt>
      <trkpt lat="48.38863" lon="2.45599">
        <ele>103.1</ele>
        <time>2025-11-16T11:08:35Z</time>
      </trkpt>
      <trkpt lat="48.38858" lon="2.45601">
        <ele>103.7</ele>
        <time>2025-11-16T11:08:39Z</time>
      </trkpt>
      <trkpt lat="48.38852" lon="2.45603">
        <ele>104.5</ele>
        <time>2025-11-16T11:08:45Z</time>
      </trkpt>
      <trkpt lat="48.38847" lon="2.45605">
        <ele>105.1</ele>
        <time>2025-11-16T11:08:49Z</time>
      </trkpt>
      <trkpt lat="48.38841" lon="2.45607">
        <ele>105.9</ele>
        <time>2025-11-16T11:08:55Z</time>
      </trkpt>
      <trkpt lat="48.38836" lon="2.45612">
        <ele>107</ele>
        <time>2025-11-16T11:09:01Z</time>
      </trkpt>
      <trkpt lat="48.38831" lon="2.45617">
        <ele>108.2</ele>
        <time>2025-11-16T11:09:07Z</time>
      </trkpt>
      <trkpt lat="48.38825" lon="2.4562">
        <ele>109.2</ele>
        <time>2025-11-16T11:09:15Z</time>
      </trkpt>
      <trkpt lat="48.38819" lon="2.4562">
        <ele>109.7</ele>
        <time>2025-11-16T11:09:25Z</time>
      </trkpt>
      <trkpt lat="48.38815" lon="2.45618">
        <ele>110</ele>
        <time>2025-11-16T11:09:31Z</time>
      </trkpt>
      <trkpt lat="48.3881" lon="2.45617">
        <ele>110.3</ele>
        <time>2025-11-16T11:09:49Z</time>
      </trkpt>
      <trkpt lat="48.3881" lon="2.45625">
        <ele>111.5</ele>
        <time>2025-11-16T11:11:07Z</time>
      </trkpt>
      <trkpt lat="48.38808" lon="2.45632">
        <ele>112.7</ele>
        <time>2025-11-16T11:11:19Z</time>
      </trkpt>
      <trkpt lat="48.38808" lon="2.4564">
        <ele>113.8</ele>
        <time>2025-11-16T11:11:25Z</time>
      </trkpt>
      <trkpt lat="48.38812" lon="2.45646">
        <ele>114.2</ele>
        <time>2025-11-16T11:11:35Z</time>
      </trkpt>
      <trkpt lat="48.38814" lon="2.45653">
        <ele>115</ele>
        <time>2025-11-16T11:11:41Z</time>
      </trkpt>
      <trkpt lat="48.38816" lon="2.45659">
        <ele>115.6</ele>
        <time>2025-11-16T11:11:57Z</time>
      </trkpt>
      <trkpt lat="48.38821" lon="2.45661">
        <ele>115.7</ele>
        <time>2025-11-16T11:12:03Z</time>
      </trkpt>
      <trkpt lat="48.38828" lon="2.45663">
        <ele>115.6</ele>
        <time>2025-11-16T11:12:07Z</time>
      </trkpt>
      <trkpt lat="48.38834" lon="2.45665">
        <ele>115.7</ele>
        <time>2025-11-16T11:12:11Z</time>
      </trkpt>
      <trkpt lat="48.38842" lon="2.45668">
        <ele>115.8</ele>
        <time>2025-11-16T11:12:15Z</time>
      </trkpt>
      <trkpt lat="48.38847" lon="2.45668">
        <ele>115.7</ele>
        <time>2025-11-16T11:12:17Z</time>
      </trkpt>
      <trkpt lat="48.38853" lon="2.4567">
        <ele>115.7</ele>
        <time>2025-11-16T11:12:21Z</time>
      </trkpt>
      <trkpt lat="48.38859" lon="2.45673">
        <ele>115.7</ele>
        <time>2025-11-16T11:12:25Z</time>
      </trkpt>
      <trkpt lat="48.38867" lon="2.45674">
        <ele>115.6</ele>
        <time>2025-11-16T11:12:29Z</time>
      </trkpt>
      <trkpt lat="48.38873" lon="2.45676">
        <ele>115.7</ele>
        <time>2025-11-16T11:12:31Z</time>
      </trkpt>
      <trkpt lat="48.38879" lon="2.45677">
        <ele>115.7</ele>
        <time>2025-11-16T11:12:33Z</time>
      </trkpt>
      <trkpt lat="48.38884" lon="2.45678">
        <ele>115.8</ele>
        <time>2025-11-16T11:12:35Z</time>
      </trkpt>
      <trkpt lat="48.38889" lon="2.45679">
        <ele>115.8</ele>
        <time>2025-11-16T11:12:37Z</time>
      </trkpt>
      <trkpt lat="48.38894" lon="2.45681">
        <ele>115.8</ele>
        <time>2025-11-16T11:12:39Z</time>
      </trkpt>
      <trkpt lat="48.38902" lon="2.45684">
        <ele>116</ele>
        <time>2025-11-16T11:12:41Z</time>
      </trkpt>
      <trkpt lat="48.38909" lon="2.45685">
        <ele>115.9</ele>
        <time>2025-11-16T11:12:43Z</time>
      </trkpt>
      <trkpt lat="48.38914" lon="2.45686">
        <ele>115.9</ele>
        <time>2025-11-16T11:12:45Z</time>
      </trkpt>
      <trkpt lat="48.3892" lon="2.45688">
        <ele>116.1</ele>
        <time>2025-11-16T11:12:47Z</time>
      </trkpt>
      <trkpt lat="48.38926" lon="2.4569">
        <ele>116.4</ele>
        <time>2025-11-16T11:12:49Z</time>
      </trkpt>
      <trkpt lat="48.38936" lon="2.45691">
        <ele>116.6</ele>
        <time>2025-11-16T11:12:53Z</time>
      </trkpt>
      <trkpt lat="48.38944" lon="2.45693">
        <ele>116.8</ele>
        <time>2025-11-16T11:12:55Z</time>
      </trkpt>
      <trkpt lat="48.3895" lon="2.45695">
        <ele>117.1</ele>
        <time>2025-11-16T11:12:57Z</time>
      </trkpt>
      <trkpt lat="48.38956" lon="2.45697">
        <ele>117.1</ele>
        <time>2025-11-16T11:12:59Z</time>
      </trkpt>
      <trkpt lat="48.38962" lon="2.45699">
        <ele>117.3</ele>
        <time>2025-11-16T11:13:01Z</time>
      </trkpt>
      <trkpt lat="48.38967" lon="2.45701">
        <ele>117.5</ele>
        <time>2025-11-16T11:13:03Z</time>
      </trkpt>
      <trkpt lat="48.38973" lon="2.45702">
        <ele>117.5</ele>
        <time>2025-11-16T11:13:05Z</time>
      </trkpt>
      <trkpt lat="48.38981" lon="2.45704">
        <ele>117.3</ele>
        <time>2025-11-16T11:13:07Z</time>
      </trkpt>
      <trkpt lat="48.38987" lon="2.45706">
        <ele>117.1</ele>
        <time>2025-11-16T11:13:09Z</time>
      </trkpt>
      <trkpt lat="48.38993" lon="2.45708">
        <ele>116.9</ele>
        <time>2025-11-16T11:13:11Z</time>
      </trkpt>
      <trkpt lat="48.38999" lon="2.45708">
        <ele>116.5</ele>
        <time>2025-11-16T11:13:13Z</time>
      </trkpt>
      <trkpt lat="48.39004" lon="2.45709">
        <ele>116.4</ele>
        <time>2025-11-16T11:13:15Z</time>
      </trkpt>
      <trkpt lat="48.3901" lon="2.45711">
        <ele>116.1</ele>
        <time>2025-11-16T11:13:17Z</time>
      </trkpt>
      <trkpt lat="48.39015" lon="2.45713">
        <ele>115.9</ele>
        <time>2025-11-16T11:13:19Z</time>
      </trkpt>
      <trkpt lat="48.3902" lon="2.45716">
        <ele>115.9</ele>
        <time>2025-11-16T11:13:21Z</time>
      </trkpt>
      <trkpt lat="48.39025" lon="2.45718">
        <ele>115.8</ele>
        <time>2025-11-16T11:13:23Z</time>
      </trkpt>
      <trkpt lat="48.39031" lon="2.4572">
        <ele>115.7</ele>
        <time>2025-11-16T11:13:25Z</time>
      </trkpt>
      <trkpt lat="48.39038" lon="2.45722">
        <ele>115.6</ele>
        <time>2025-11-16T11:13:27Z</time>
      </trkpt>
      <trkpt lat="48.39044" lon="2.45721">
        <ele>115.3</ele>
        <time>2025-11-16T11:13:29Z</time>
      </trkpt>
      <trkpt lat="48.39051" lon="2.45723">
        <ele>115.2</ele>
        <time>2025-11-16T11:13:31Z</time>
      </trkpt>
      <trkpt lat="48.39057" lon="2.45725">
        <ele>115.1</ele>
        <time>2025-11-16T11:13:33Z</time>
      </trkpt>
      <trkpt lat="48.39064" lon="2.45725">
        <ele>114.6</ele>
        <time>2025-11-16T11:13:35Z</time>
      </trkpt>
      <trkpt lat="48.39069" lon="2.45727">
        <ele>114.4</ele>
        <time>2025-11-16T11:13:37Z</time>
      </trkpt>
      <trkpt lat="48.39075" lon="2.45729">
        <ele>114.2</ele>
        <time>2025-11-16T11:13:39Z</time>
      </trkpt>
      <trkpt lat="48.39082" lon="2.45731">
        <ele>114.1</ele>
        <time>2025-11-16T11:13:41Z</time>
      </trkpt>
      <trkpt lat="48.3909" lon="2.45733">
        <ele>113.9</ele>
        <time>2025-11-16T11:13:43Z</time>
      </trkpt>
      <trkpt lat="48.39096" lon="2.45734">
        <ele>113.8</ele>
        <time>2025-11-16T11:13:45Z</time>
      </trkpt>
      <trkpt lat="48.39102" lon="2.45735">
        <ele>113.7</ele>
        <time>2025-11-16T11:13:47Z</time>
      </trkpt>
      <trkpt lat="48.39108" lon="2.45733">
        <ele>113.3</ele>
        <time>2025-11-16T11:13:49Z</time>
      </trkpt>
      <trkpt lat="48.39114" lon="2.4573">
        <ele>112.9</ele>
        <time>2025-11-16T11:13:51Z</time>
      </trkpt>
      <trkpt lat="48.39119" lon="2.45727">
        <ele>112.7</ele>
        <time>2025-11-16T11:13:53Z</time>
      </trkpt>
      <trkpt lat="48.39125" lon="2.45725">
        <ele>112.7</ele>
        <time>2025-11-16T11:13:55Z</time>
      </trkpt>
      <trkpt lat="48.39131" lon="2.45722">
        <ele>112.6</ele>
        <time>2025-11-16T11:13:57Z</time>
      </trkpt>
      <trkpt lat="48.39136" lon="2.45724">
        <ele>113</ele>
        <time>2025-11-16T11:13:59Z</time>
      </trkpt>
      <trkpt lat="48.39142" lon="2.4572">
        <ele>112.8</ele>
        <time>2025-11-16T11:14:03Z</time>
      </trkpt>
      <trkpt lat="48.39149" lon="2.45716">
        <ele>112.8</ele>
        <time>2025-11-16T11:14:07Z</time>
      </trkpt>
      <trkpt lat="48.39157" lon="2.45715">
        <ele>113.2</ele>
        <time>2025-11-16T11:14:11Z</time>
      </trkpt>
      <trkpt lat="48.39164" lon="2.45712">
        <ele>113.3</ele>
        <time>2025-11-16T11:14:15Z</time>
      </trkpt>
      <trkpt lat="48.39172" lon="2.45712">
        <ele>113.3</ele>
        <time>2025-11-16T11:14:19Z</time>
      </trkpt>
      <trkpt lat="48.3918" lon="2.45713">
        <ele>113.1</ele>
        <time>2025-11-16T11:14:23Z</time>
      </trkpt>
      <trkpt lat="48.39187" lon="2.45706">
        <ele>111.5</ele>
        <time>2025-11-16T11:14:27Z</time>
      </trkpt>
      <trkpt lat="48.39194" lon="2.45704">
        <ele>110.7</ele>
        <time>2025-11-16T11:14:31Z</time>
      </trkpt>
      <trkpt lat="48.39199" lon="2.4571">
        <ele>110.4</ele>
        <time>2025-11-16T11:14:39Z</time>
      </trkpt>
      <trkpt lat="48.39204" lon="2.45715">
        <ele>109.8</ele>
        <time>2025-11-16T11:14:43Z</time>
      </trkpt>
      <trkpt lat="48.3921" lon="2.45723">
        <ele>109.1</ele>
        <time>2025-11-16T11:14:47Z</time>
      </trkpt>
      <trkpt lat="48.39212" lon="2.45729">
        <ele>108.6</ele>
        <time>2025-11-16T11:14:49Z</time>
      </trkpt>
      <trkpt lat="48.39215" lon="2.4574">
        <ele>108.2</ele>
        <time>2025-11-16T11:14:53Z</time>
      </trkpt>
      <trkpt lat="48.39216" lon="2.45748">
        <ele>108.5</ele>
        <time>2025-11-16T11:14:57Z</time>
      </trkpt>
      <trkpt lat="48.39213" lon="2.45756">
        <ele>109.2</ele>
        <time>2025-11-16T11:15:01Z</time>
      </trkpt>
      <trkpt lat="48.39214" lon="2.45763">
        <ele>108.9</ele>
        <time>2025-11-16T11:15:09Z</time>
      </trkpt>
      <trkpt lat="48.39216" lon="2.45771">
        <ele>108.4</ele>
        <time>2025-11-16T11:15:15Z</time>
      </trkpt>
      <trkpt lat="48.39215" lon="2.45778">
        <ele>108.5</ele>
        <time>2025-11-16T11:15:21Z</time>
      </trkpt>
      <trkpt lat="48.39216" lon="2.45791">
        <ele>106.7</ele>
        <time>2025-11-16T11:15:27Z</time>
      </trkpt>
      <trkpt lat="48.39213" lon="2.45803">
        <ele>105.7</ele>
        <time>2025-11-16T11:15:31Z</time>
      </trkpt>
      <trkpt lat="48.39216" lon="2.45811">
        <ele>103.7</ele>
        <time>2025-11-16T11:15:33Z</time>
      </trkpt>
      <trkpt lat="48.39215" lon="2.45818">
        <ele>102.3</ele>
        <time>2025-11-16T11:15:35Z</time>
      </trkpt>
      <trkpt lat="48.39212" lon="2.45824">
        <ele>101.6</ele>
        <time>2025-11-16T11:15:37Z</time>
      </trkpt>
      <trkpt lat="48.39208" lon="2.45833">
        <ele>100.1</ele>
        <time>2025-11-16T11:15:39Z</time>
      </trkpt>
      <trkpt lat="48.39205" lon="2.45841">
        <ele>98.8</ele>
        <time>2025-11-16T11:15:41Z</time>
      </trkpt>
      <trkpt lat="48.392" lon="2.45847">
        <ele>97.9</ele>
        <time>2025-11-16T11:15:43Z</time>
      </trkpt>
      <trkpt lat="48.39195" lon="2.45848">
        <ele>98.3</ele>
        <time>2025-11-16T11:15:45Z</time>
      </trkpt>
      <trkpt lat="48.3919" lon="2.45847">
        <ele>99.2</ele>
        <time>2025-11-16T11:15:51Z</time>
      </trkpt>
      <trkpt lat="48.39184" lon="2.4585">
        <ele>98.9</ele>
        <time>2025-11-16T11:15:55Z</time>
      </trkpt>
      <trkpt lat="48.39177" lon="2.45853">
        <ele>99</ele>
        <time>2025-11-16T11:16:01Z</time>
      </trkpt>
      <trkpt lat="48.39171" lon="2.45854">
        <ele>99.4</ele>
        <time>2025-11-16T11:16:07Z</time>
      </trkpt>
      <trkpt lat="48.39165" lon="2.4585">
        <ele>100.9</ele>
        <time>2025-11-16T11:16:13Z</time>
      </trkpt>
      <trkpt lat="48.3916" lon="2.45853">
        <ele>101</ele>
        <time>2025-11-16T11:16:17Z</time>
      </trkpt>
      <trkpt lat="48.39156" lon="2.45855">
        <ele>101.1</ele>
        <time>2025-11-16T11:16:21Z</time>
      </trkpt>
      <trkpt lat="48.39151" lon="2.45857">
        <ele>101.2</ele>
        <time>2025-11-16T11:16:25Z</time>
      </trkpt>
      <trkpt lat="48.39146" lon="2.45858">
        <ele>101.7</ele>
        <time>2025-11-16T11:16:29Z</time>
      </trkpt>
      <trkpt lat="48.39142" lon="2.4586">
        <ele>101.8</ele>
        <time>2025-11-16T11:16:33Z</time>
      </trkpt>
      <trkpt lat="48.39132" lon="2.45863">
        <ele>102.4</ele>
        <time>2025-11-16T11:16:37Z</time>
      </trkpt>
      <trkpt lat="48.39125" lon="2.45866">
        <ele>102.8</ele>
        <time>2025-11-16T11:16:41Z</time>
      </trkpt>
      <trkpt lat="48.3912" lon="2.45867">
        <ele>103.3</ele>
        <time>2025-11-16T11:16:45Z</time>
      </trkpt>
      <trkpt lat="48.39114" lon="2.45869">
        <ele>104</ele>
        <time>2025-11-16T11:16:51Z</time>
      </trkpt>
      <trkpt lat="48.39108" lon="2.45867">
        <ele>105.3</ele>
        <time>2025-11-16T11:16:59Z</time>
      </trkpt>
      <trkpt lat="48.39103" lon="2.45868">
        <ele>105.8</ele>
        <time>2025-11-16T11:17:03Z</time>
      </trkpt>
      <trkpt lat="48.39097" lon="2.45866">
        <ele>107.3</ele>
        <time>2025-11-16T11:17:37Z</time>
      </trkpt>
      <trkpt lat="48.39092" lon="2.45866">
        <ele>108</ele>
        <time>2025-11-16T11:17:43Z</time>
      </trkpt>
      <trkpt lat="48.39087" lon="2.45866">
        <ele>108.7</ele>
        <time>2025-11-16T11:17:49Z</time>
      </trkpt>
      <trkpt lat="48.39082" lon="2.45866">
        <ele>109.4</ele>
        <time>2025-11-16T11:17:59Z</time>
      </trkpt>
      <trkpt lat="48.39078" lon="2.45871">
        <ele>109.3</ele>
        <time>2025-11-16T11:18:23Z</time>
      </trkpt>
      <trkpt lat="48.39072" lon="2.45871">
        <ele>110.2</ele>
        <time>2025-11-16T11:18:27Z</time>
      </trkpt>
      <trkpt lat="48.39067" lon="2.45871">
        <ele>110.8</ele>
        <time>2025-11-16T11:18:31Z</time>
      </trkpt>
      <trkpt lat="48.39061" lon="2.45876">
        <ele>111.1</ele>
        <time>2025-11-16T11:18:37Z</time>
      </trkpt>
      <trkpt lat="48.39055" lon="2.45881">
        <ele>111.7</ele>
        <time>2025-11-16T11:18:41Z</time>
      </trkpt>
      <trkpt lat="48.39047" lon="2.45885">
        <ele>111.9</ele>
        <time>2025-11-16T11:18:45Z</time>
      </trkpt>
      <trkpt lat="48.39041" lon="2.45891">
        <ele>111.9</ele>
        <time>2025-11-16T11:18:49Z</time>
      </trkpt>
      <trkpt lat="48.39036" lon="2.45897">
        <ele>111.7</ele>
        <time>2025-11-16T11:18:53Z</time>
      </trkpt>
      <trkpt lat="48.39029" lon="2.45902">
        <ele>112</ele>
        <time>2025-11-16T11:18:57Z</time>
      </trkpt>
      <trkpt lat="48.39021" lon="2.45906">
        <ele>112</ele>
        <time>2025-11-16T11:19:01Z</time>
      </trkpt>
      <trkpt lat="48.39013" lon="2.45907">
        <ele>112.2</ele>
        <time>2025-11-16T11:19:05Z</time>
      </trkpt>
      <trkpt lat="48.39004" lon="2.45906">
        <ele>112.6</ele>
        <time>2025-11-16T11:19:09Z</time>
      </trkpt>
      <trkpt lat="48.39" lon="2.45899">
        <ele>113.3</ele>
        <time>2025-11-16T11:19:13Z</time>
      </trkpt>
      <trkpt lat="48.38996" lon="2.45891">
        <ele>113.9</ele>
        <time>2025-11-16T11:19:17Z</time>
      </trkpt>
      <trkpt lat="48.38993" lon="2.45883">
        <ele>114.4</ele>
        <time>2025-11-16T11:19:21Z</time>
      </trkpt>
      <trkpt lat="48.38988" lon="2.45876">
        <ele>114.9</ele>
        <time>2025-11-16T11:19:25Z</time>
      </trkpt>
      <trkpt lat="48.3898" lon="2.45871">
        <ele>115.3</ele>
        <time>2025-11-16T11:19:29Z</time>
      </trkpt>
      <trkpt lat="48.38973" lon="2.45865">
        <ele>115.7</ele>
        <time>2025-11-16T11:19:33Z</time>
      </trkpt>
      <trkpt lat="48.38968" lon="2.4586">
        <ele>116.2</ele>
        <time>2025-11-16T11:19:37Z</time>
      </trkpt>
      <trkpt lat="48.38962" lon="2.45855">
        <ele>116.8</ele>
        <time>2025-11-16T11:19:41Z</time>
      </trkpt>
      <trkpt lat="48.3896" lon="2.45847">
        <ele>117.5</ele>
        <time>2025-11-16T11:19:45Z</time>
      </trkpt>
      <trkpt lat="48.3896" lon="2.45837">
        <ele>118.2</ele>
        <time>2025-11-16T11:19:49Z</time>
      </trkpt>
      <trkpt lat="48.38956" lon="2.45829">
        <ele>118.9</ele>
        <time>2025-11-16T11:19:53Z</time>
      </trkpt>
      <trkpt lat="48.38954" lon="2.4582">
        <ele>119.6</ele>
        <time>2025-11-16T11:19:57Z</time>
      </trkpt>
      <trkpt lat="48.3895" lon="2.45812">
        <ele>120.4</ele>
        <time>2025-11-16T11:20:01Z</time>
      </trkpt>
      <trkpt lat="48.38946" lon="2.45807">
        <ele>120.8</ele>
        <time>2025-11-16T11:20:03Z</time>
      </trkpt>
      <trkpt lat="48.38941" lon="2.45801">
        <ele>121</ele>
        <time>2025-11-16T11:20:07Z</time>
      </trkpt>
      <trkpt lat="48.38936" lon="2.45793">
        <ele>121.1</ele>
        <time>2025-11-16T11:20:11Z</time>
      </trkpt>
      <trkpt lat="48.3893" lon="2.45792">
        <ele>121.3</ele>
        <time>2025-11-16T11:20:15Z</time>
      </trkpt>
      <trkpt lat="48.38925" lon="2.45795">
        <ele>121.3</ele>
        <time>2025-11-16T11:20:17Z</time>
      </trkpt>
      <trkpt lat="48.38918" lon="2.45803">
        <ele>121.1</ele>
        <time>2025-11-16T11:20:21Z</time>
      </trkpt>
      <trkpt lat="48.38912" lon="2.45802">
        <ele>121.3</ele>
        <time>2025-11-16T11:20:25Z</time>
      </trkpt>
      <trkpt lat="48.38904" lon="2.45801">
        <ele>121.5</ele>
        <time>2025-11-16T11:20:29Z</time>
      </trkpt>
      <trkpt lat="48.38898" lon="2.45802">
        <ele>121.7</ele>
        <time>2025-11-16T11:20:31Z</time>
      </trkpt>
      <trkpt lat="48.38894" lon="2.45805">
        <ele>121.8</ele>
        <time>2025-11-16T11:20:33Z</time>
      </trkpt>
      <trkpt lat="48.38889" lon="2.45808">
        <ele>121.9</ele>
        <time>2025-11-16T11:20:35Z</time>
      </trkpt>
      <trkpt lat="48.38884" lon="2.45813">
        <ele>121.7</ele>
        <time>2025-11-16T11:20:37Z</time>
      </trkpt>
      <trkpt lat="48.38877" lon="2.45817">
        <ele>121.6</ele>
        <time>2025-11-16T11:20:39Z</time>
      </trkpt>
      <trkpt lat="48.38871" lon="2.45818">
        <ele>121.5</ele>
        <time>2025-11-16T11:20:41Z</time>
      </trkpt>
      <trkpt lat="48.38866" lon="2.4582">
        <ele>121.5</ele>
        <time>2025-11-16T11:20:43Z</time>
      </trkpt>
      <trkpt lat="48.3886" lon="2.45822">
        <ele>121.4</ele>
        <time>2025-11-16T11:20:45Z</time>
      </trkpt>
      <trkpt lat="48.38853" lon="2.45824">
        <ele>121.3</ele>
        <time>2025-11-16T11:20:47Z</time>
      </trkpt>
      <trkpt lat="48.38848" lon="2.45823">
        <ele>121.4</ele>
        <time>2025-11-16T11:20:49Z</time>
      </trkpt>
      <trkpt lat="48.38841" lon="2.45823">
        <ele>121.4</ele>
        <time>2025-11-16T11:20:51Z</time>
      </trkpt>
      <trkpt lat="48.38833" lon="2.45822">
        <ele>121.4</ele>
        <time>2025-11-16T11:20:53Z</time>
      </trkpt>
      <trkpt lat="48.38826" lon="2.45819">
        <ele>121.5</ele>
        <time>2025-11-16T11:20:55Z</time>
      </trkpt>
      <trkpt lat="48.38821" lon="2.45823">
        <ele>121.4</ele>
        <time>2025-11-16T11:20:57Z</time>
      </trkpt>
      <trkpt lat="48.38815" lon="2.45831">
        <ele>121.1</ele>
        <time>2025-11-16T11:20:59Z</time>
      </trkpt>
      <trkpt lat="48.38808" lon="2.45837">
        <ele>120.7</ele>
        <time>2025-11-16T11:21:01Z</time>
      </trkpt>
      <trkpt lat="48.38802" lon="2.45836">
        <ele>120.7</ele>
        <time>2025-11-16T11:21:03Z</time>
      </trkpt>
      <trkpt lat="48.38794" lon="2.45836">
        <ele>120.4</ele>
        <time>2025-11-16T11:21:05Z</time>
      </trkpt>
      <trkpt lat="48.38788" lon="2.45839">
        <ele>120</ele>
        <time>2025-11-16T11:21:07Z</time>
      </trkpt>
      <trkpt lat="48.38781" lon="2.45839">
        <ele>119.7</ele>
        <time>2025-11-16T11:21:09Z</time>
      </trkpt>
      <trkpt lat="48.38776" lon="2.4584">
        <ele>119.5</ele>
        <time>2025-11-16T11:21:11Z</time>
      </trkpt>
      <trkpt lat="48.38772" lon="2.45834">
        <ele>119.9</ele>
        <time>2025-11-16T11:21:13Z</time>
      </trkpt>
      <trkpt lat="48.38765" lon="2.45834">
        <ele>119.9</ele>
        <time>2025-11-16T11:21:15Z</time>
      </trkpt>
      <trkpt lat="48.38758" lon="2.45835">
        <ele>119.8</ele>
        <time>2025-11-16T11:21:17Z</time>
      </trkpt>
      <trkpt lat="48.3875" lon="2.45836">
        <ele>119.7</ele>
        <time>2025-11-16T11:21:19Z</time>
      </trkpt>
      <trkpt lat="48.38741" lon="2.45836">
        <ele>119.4</ele>
        <time>2025-11-16T11:21:21Z</time>
      </trkpt>
      <trkpt lat="48.38733" lon="2.45834">
        <ele>119.3</ele>
        <time>2025-11-16T11:21:23Z</time>
      </trkpt>
      <trkpt lat="48.38726" lon="2.45836">
        <ele>118.9</ele>
        <time>2025-11-16T11:21:25Z</time>
      </trkpt>
      <trkpt lat="48.38719" lon="2.45838">
        <ele>118.6</ele>
        <time>2025-11-16T11:21:27Z</time>
      </trkpt>
      <trkpt lat="48.38716" lon="2.45833">
        <ele>118.8</ele>
        <time>2025-11-16T11:21:29Z</time>
      </trkpt>
      <trkpt lat="48.3871" lon="2.45834">
        <ele>118.5</ele>
        <time>2025-11-16T11:21:33Z</time>
      </trkpt>
      <trkpt lat="48.38705" lon="2.45836">
        <ele>118.2</ele>
        <time>2025-11-16T11:21:43Z</time>
      </trkpt>
      <trkpt lat="48.38706" lon="2.45843">
        <ele>117.7</ele>
        <time>2025-11-16T11:21:47Z</time>
      </trkpt>
      <trkpt lat="48.38702" lon="2.45855">
        <ele>116.7</ele>
        <time>2025-11-16T11:21:51Z</time>
      </trkpt>
      <trkpt lat="48.38696" lon="2.45862">
        <ele>116</ele>
        <time>2025-11-16T11:21:53Z</time>
      </trkpt>
      <trkpt lat="48.38692" lon="2.45874">
        <ele>115.1</ele>
        <time>2025-11-16T11:21:55Z</time>
      </trkpt>
      <trkpt lat="48.38689" lon="2.45886">
        <ele>114.2</ele>
        <time>2025-11-16T11:21:57Z</time>
      </trkpt>
      <trkpt lat="48.38688" lon="2.45899">
        <ele>113</ele>
        <time>2025-11-16T11:21:59Z</time>
      </trkpt>
      <trkpt lat="48.38685" lon="2.45907">
        <ele>112.3</ele>
        <time>2025-11-16T11:22:01Z</time>
      </trkpt>
      <trkpt lat="48.38681" lon="2.45918">
        <ele>111.4</ele>
        <time>2025-11-16T11:22:03Z</time>
      </trkpt>
      <trkpt lat="48.38685" lon="2.45928">
        <ele>110.8</ele>
        <time>2025-11-16T11:22:05Z</time>
      </trkpt>
      <trkpt lat="48.38693" lon="2.45935">
        <ele>109.8</ele>
        <time>2025-11-16T11:22:07Z</time>
      </trkpt>
      <trkpt lat="48.38703" lon="2.45942">
        <ele>109</ele>
        <time>2025-11-16T11:22:09Z</time>
      </trkpt>
      <trkpt lat="48.38713" lon="2.45957">
        <ele>107.4</ele>
        <time>2025-11-16T11:22:11Z</time>
      </trkpt>
      <trkpt lat="48.38725" lon="2.45972">
        <ele>106</ele>
        <time>2025-11-16T11:22:13Z</time>
      </trkpt>
      <trkpt lat="48.38735" lon="2.4599">
        <ele>104.4</ele>
        <time>2025-11-16T11:22:15Z</time>
      </trkpt>
      <trkpt lat="48.38747" lon="2.46008">
        <ele>102.6</ele>
        <time>2025-11-16T11:22:17Z</time>
      </trkpt>
      <trkpt lat="48.38759" lon="2.46023">
        <ele>101.7</ele>
        <time>2025-11-16T11:22:19Z</time>
      </trkpt>
      <trkpt lat="48.3877" lon="2.46042">
        <ele>100.5</ele>
        <time>2025-11-16T11:22:21Z</time>
      </trkpt>
      <trkpt lat="48.3878" lon="2.46061">
        <ele>98.9</ele>
        <time>2025-11-16T11:22:23Z</time>
      </trkpt>
      <trkpt lat="48.3879" lon="2.46082">
        <ele>98.1</ele>
        <time>2025-11-16T11:22:25Z</time>
      </trkpt>
      <trkpt lat="48.38799" lon="2.46103">
        <ele>96.3</ele>
        <time>2025-11-16T11:22:27Z</time>
      </trkpt>
      <trkpt lat="48.38808" lon="2.46122">
        <ele>94.8</ele>
        <time>2025-11-16T11:22:29Z</time>
      </trkpt>
      <trkpt lat="48.38812" lon="2.46147">
        <ele>94</ele>
        <time>2025-11-16T11:22:31Z</time>
      </trkpt>
      <trkpt lat="48.38817" lon="2.46165">
        <ele>93.5</ele>
        <time>2025-11-16T11:22:33Z</time>
      </trkpt>
      <trkpt lat="48.38817" lon="2.46178">
        <ele>93.5</ele>
        <time>2025-11-16T11:22:35Z</time>
      </trkpt>
      <trkpt lat="48.38811" lon="2.46179">
        <ele>93.5</ele>
        <time>2025-11-16T11:22:37Z</time>
      </trkpt>
      <trkpt lat="48.38807" lon="2.46183">
        <ele>93.6</ele>
        <time>2025-11-16T11:22:39Z</time>
      </trkpt>
      <trkpt lat="48.38802" lon="2.46185">
        <ele>93.8</ele>
        <time>2025-11-16T11:22:41Z</time>
      </trkpt>
      <trkpt lat="48.38796" lon="2.4619">
        <ele>94.2</ele>
        <time>2025-11-16T11:22:45Z</time>
      </trkpt>
      <trkpt lat="48.3879" lon="2.46195">
        <ele>94.6</ele>
        <time>2025-11-16T11:22:49Z</time>
      </trkpt>
      <trkpt lat="48.38783" lon="2.46201">
        <ele>95</ele>
        <time>2025-11-16T11:22:53Z</time>
      </trkpt>
      <trkpt lat="48.38776" lon="2.46207">
        <ele>95.5</ele>
        <time>2025-11-16T11:22:57Z</time>
      </trkpt>
      <trkpt lat="48.3877" lon="2.46214">
        <ele>96.1</ele>
        <time>2025-11-16T11:23:01Z</time>
      </trkpt>
      <trkpt lat="48.38763" lon="2.46221">
        <ele>96.5</ele>
        <time>2025-11-16T11:23:05Z</time>
      </trkpt>
      <trkpt lat="48.38757" lon="2.46228">
        <ele>96.4</ele>
        <time>2025-11-16T11:23:09Z</time>
      </trkpt>
      <trkpt lat="48.38752" lon="2.46234">
        <ele>96.1</ele>
        <time>2025-11-16T11:23:13Z</time>
      </trkpt>
      <trkpt lat="48.38749" lon="2.4624">
        <ele>95.8</ele>
        <time>2025-11-16T11:23:15Z</time>
      </trkpt>
      <trkpt lat="48.38745" lon="2.4625">
        <ele>95.4</ele>
        <time>2025-11-16T11:23:17Z</time>
      </trkpt>
      <trkpt lat="48.38742" lon="2.46262">
        <ele>95.2</ele>
        <time>2025-11-16T11:23:19Z</time>
      </trkpt>
      <trkpt lat="48.38739" lon="2.46276">
        <ele>94.9</ele>
        <time>2025-11-16T11:23:21Z</time>
      </trkpt>
      <trkpt lat="48.38732" lon="2.46282">
        <ele>94.9</ele>
        <time>2025-11-16T11:23:23Z</time>
      </trkpt>
      <trkpt lat="48.38724" lon="2.46281">
        <ele>95.6</ele>
        <time>2025-11-16T11:23:25Z</time>
      </trkpt>
      <trkpt lat="48.38718" lon="2.46281">
        <ele>96.4</ele>
        <time>2025-11-16T11:23:29Z</time>
      </trkpt>
      <trkpt lat="48.38714" lon="2.46277">
        <ele>97.2</ele>
        <time>2025-11-16T11:23:33Z</time>
      </trkpt>
      <trkpt lat="48.38708" lon="2.46273">
        <ele>98.1</ele>
        <time>2025-11-16T11:23:39Z</time>
      </trkpt>
      <trkpt lat="48.38705" lon="2.46269">
        <ele>98.9</ele>
        <time>2025-11-16T11:23:43Z</time>
      </trkpt>
      <trkpt lat="48.38701" lon="2.46261">
        <ele>99.7</ele>
        <time>2025-11-16T11:23:47Z</time>
      </trkpt>
      <trkpt lat="48.38696" lon="2.46254">
        <ele>100.6</ele>
        <time>2025-11-16T11:23:53Z</time>
      </trkpt>
      <trkpt lat="48.38692" lon="2.46248">
        <ele>101.4</ele>
        <time>2025-11-16T11:23:59Z</time>
      </trkpt>
      <trkpt lat="48.38689" lon="2.46243">
        <ele>102</ele>
        <time>2025-11-16T11:24:05Z</time>
      </trkpt>
      <trkpt lat="48.38686" lon="2.46237">
        <ele>102.5</ele>
        <time>2025-11-16T11:24:09Z</time>
      </trkpt>
      <trkpt lat="48.3868" lon="2.4623">
        <ele>103.5</ele>
        <time>2025-11-16T11:24:15Z</time>
      </trkpt>
      <trkpt lat="48.38676" lon="2.46223">
        <ele>104.3</ele>
        <time>2025-11-16T11:24:21Z</time>
      </trkpt>
      <trkpt lat="48.38673" lon="2.46215">
        <ele>105.2</ele>
        <time>2025-11-16T11:24:27Z</time>
      </trkpt>
      <trkpt lat="48.38669" lon="2.4621">
        <ele>106</ele>
        <time>2025-11-16T11:24:31Z</time>
      </trkpt>
      <trkpt lat="48.38665" lon="2.46206">
        <ele>106.8</ele>
        <time>2025-11-16T11:24:35Z</time>
      </trkpt>
      <trkpt lat="48.38661" lon="2.46202">
        <ele>107.6</ele>
        <time>2025-11-16T11:24:39Z</time>
      </trkpt>
      <trkpt lat="48.38655" lon="2.46201">
        <ele>108.7</ele>
        <time>2025-11-16T11:24:45Z</time>
      </trkpt>
      <trkpt lat="48.3865" lon="2.46205">
        <ele>109.6</ele>
        <time>2025-11-16T11:24:51Z</time>
      </trkpt>
      <trkpt lat="48.38646" lon="2.46211">
        <ele>110.3</ele>
        <time>2025-11-16T11:24:57Z</time>
      </trkpt>
      <trkpt lat="48.38641" lon="2.46216">
        <ele>111.4</ele>
        <time>2025-11-16T11:25:03Z</time>
      </trkpt>
      <trkpt lat="48.38637" lon="2.46223">
        <ele>112.2</ele>
        <time>2025-11-16T11:25:09Z</time>
      </trkpt>
      <trkpt lat="48.38633" lon="2.46228">
        <ele>112.9</ele>
        <time>2025-11-16T11:25:15Z</time>
      </trkpt>
      <trkpt lat="48.3863" lon="2.46234">
        <ele>113.4</ele>
        <time>2025-11-16T11:25:21Z</time>
      </trkpt>
      <trkpt lat="48.38627" lon="2.46242">
        <ele>114.1</ele>
        <time>2025-11-16T11:25:27Z</time>
      </trkpt>
      <trkpt lat="48.38624" lon="2.46249">
        <ele>114.6</ele>
        <time>2025-11-16T11:25:33Z</time>
      </trkpt>
      <trkpt lat="48.38624" lon="2.46256">
        <ele>114.7</ele>
        <time>2025-11-16T11:25:39Z</time>
      </trkpt>
      <trkpt lat="48.3862" lon="2.46263">
        <ele>115.4</ele>
        <time>2025-11-16T11:25:45Z</time>
      </trkpt>
      <trkpt lat="48.38616" lon="2.4627">
        <ele>116.1</ele>
        <time>2025-11-16T11:25:53Z</time>
      </trkpt>
      <trkpt lat="48.38612" lon="2.46276">
        <ele>116.9</ele>
        <time>2025-11-16T11:25:59Z</time>
      </trkpt>
      <trkpt lat="48.38608" lon="2.46281">
        <ele>117.5</ele>
        <time>2025-11-16T11:26:05Z</time>
      </trkpt>
      <trkpt lat="48.38604" lon="2.46285">
        <ele>118</ele>
        <time>2025-11-16T11:26:09Z</time>
      </trkpt>
      <trkpt lat="48.38599" lon="2.46291">
        <ele>118.7</ele>
        <time>2025-11-16T11:26:15Z</time>
      </trkpt>
      <trkpt lat="48.38595" lon="2.46295">
        <ele>119.4</ele>
        <time>2025-11-16T11:26:21Z</time>
      </trkpt>
      <trkpt lat="48.38589" lon="2.46299">
        <ele>120.1</ele>
        <time>2025-11-16T11:26:27Z</time>
      </trkpt>
      <trkpt lat="48.38584" lon="2.46305">
        <ele>120.9</ele>
        <time>2025-11-16T11:26:35Z</time>
      </trkpt>
      <trkpt lat="48.3858" lon="2.46312">
        <ele>121.5</ele>
        <time>2025-11-16T11:26:41Z</time>
      </trkpt>
      <trkpt lat="48.38575" lon="2.46316">
        <ele>121.8</ele>
        <time>2025-11-16T11:26:45Z</time>
      </trkpt>
      <trkpt lat="48.38571" lon="2.4632">
        <ele>122.2</ele>
        <time>2025-11-16T11:26:49Z</time>
      </trkpt>
      <trkpt lat="48.38568" lon="2.46326">
        <ele>122.5</ele>
        <time>2025-11-16T11:26:53Z</time>
      </trkpt>
      <trkpt lat="48.38562" lon="2.46332">
        <ele>122.8</ele>
        <time>2025-11-16T11:26:57Z</time>
      </trkpt>
      <trkpt lat="48.38557" lon="2.46337">
        <ele>123</ele>
        <time>2025-11-16T11:27:01Z</time>
      </trkpt>
      <trkpt lat="48.38549" lon="2.46342">
        <ele>123.1</ele>
        <time>2025-11-16T11:27:05Z</time>
      </trkpt>
      <trkpt lat="48.38545" lon="2.46345">
        <ele>123.2</ele>
        <time>2025-11-16T11:27:07Z</time>
      </trkpt>
      <trkpt lat="48.38543" lon="2.46351">
        <ele>123.3</ele>
        <time>2025-11-16T11:27:09Z</time>
      </trkpt>
      <trkpt lat="48.38543" lon="2.46364">
        <ele>123.5</ele>
        <time>2025-11-16T11:27:13Z</time>
      </trkpt>
      <trkpt lat="48.38545" lon="2.46374">
        <ele>123.4</ele>
        <time>2025-11-16T11:27:17Z</time>
      </trkpt>
      <trkpt lat="48.38547" lon="2.46384">
        <ele>123.3</ele>
        <time>2025-11-16T11:27:21Z</time>
      </trkpt>
      <trkpt lat="48.38551" lon="2.46394">
        <ele>123.3</ele>
        <time>2025-11-16T11:27:25Z</time>
      </trkpt>
      <trkpt lat="48.38552" lon="2.46407">
        <ele>123.7</ele>
        <time>2025-11-16T11:27:29Z</time>
      </trkpt>
      <trkpt lat="48.3855" lon="2.46414">
        <ele>123.9</ele>
        <time>2025-11-16T11:27:31Z</time>
      </trkpt>
      <trkpt lat="48.38555" lon="2.46419">
        <ele>124</ele>
        <time>2025-11-16T11:27:33Z</time>
      </trkpt>
      <trkpt lat="48.38559" lon="2.46429">
        <ele>123.9</ele>
        <time>2025-11-16T11:27:37Z</time>
      </trkpt>
      <trkpt lat="48.38563" lon="2.4644">
        <ele>123.7</ele>
        <time>2025-11-16T11:27:41Z</time>
      </trkpt>
      <trkpt lat="48.38567" lon="2.46452">
        <ele>123.7</ele>
        <time>2025-11-16T11:27:45Z</time>
      </trkpt>
      <trkpt lat="48.38571" lon="2.46458">
        <ele>123.7</ele>
        <time>2025-11-16T11:27:47Z</time>
      </trkpt>
      <trkpt lat="48.38575" lon="2.46464">
        <ele>123.8</ele>
        <time>2025-11-16T11:27:49Z</time>
      </trkpt>
      <trkpt lat="48.38576" lon="2.46471">
        <ele>124</ele>
        <time>2025-11-16T11:27:51Z</time>
      </trkpt>
      <trkpt lat="48.38578" lon="2.46478">
        <ele>124</ele>
        <time>2025-11-16T11:27:53Z</time>
      </trkpt>
      <trkpt lat="48.38582" lon="2.46491">
        <ele>124</ele>
        <time>2025-11-16T11:27:57Z</time>
      </trkpt>
      <trkpt lat="48.38583" lon="2.465">
        <ele>124</ele>
        <time>2025-11-16T11:27:59Z</time>
      </trkpt>
      <trkpt lat="48.38583" lon="2.46509">
        <ele>124</ele>
        <time>2025-11-16T11:28:01Z</time>
      </trkpt>
      <trkpt lat="48.38584" lon="2.46517">
        <ele>124</ele>
        <time>2025-11-16T11:28:03Z</time>
      </trkpt>
      <trkpt lat="48.38585" lon="2.46525">
        <ele>123.9</ele>
        <time>2025-11-16T11:28:05Z</time>
      </trkpt>
      <trkpt lat="48.38583" lon="2.46536">
        <ele>124</ele>
        <time>2025-11-16T11:28:09Z</time>
      </trkpt>
      <trkpt lat="48.38582" lon="2.46551">
        <ele>124</ele>
        <time>2025-11-16T11:28:13Z</time>
      </trkpt>
      <trkpt lat="48.3858" lon="2.46559">
        <ele>123.9</ele>
        <time>2025-11-16T11:28:15Z</time>
      </trkpt>
      <trkpt lat="48.38578" lon="2.46567">
        <ele>123.6</ele>
        <time>2025-11-16T11:28:17Z</time>
      </trkpt>
      <trkpt lat="48.38576" lon="2.46574">
        <ele>123.3</ele>
        <time>2025-11-16T11:28:19Z</time>
      </trkpt>
      <trkpt lat="48.38574" lon="2.46581">
        <ele>123.1</ele>
        <time>2025-11-16T11:28:21Z</time>
      </trkpt>
      <trkpt lat="48.38572" lon="2.4659">
        <ele>122.6</ele>
        <time>2025-11-16T11:28:23Z</time>
      </trkpt>
      <trkpt lat="48.38568" lon="2.466">
        <ele>122.1</ele>
        <time>2025-11-16T11:28:25Z</time>
      </trkpt>
      <trkpt lat="48.38565" lon="2.46608">
        <ele>121.8</ele>
        <time>2025-11-16T11:28:27Z</time>
      </trkpt>
      <trkpt lat="48.38562" lon="2.46615">
        <ele>121.5</ele>
        <time>2025-11-16T11:28:29Z</time>
      </trkpt>
      <trkpt lat="48.38557" lon="2.46623">
        <ele>121.1</ele>
        <time>2025-11-16T11:28:31Z</time>
      </trkpt>
      <trkpt lat="48.38552" lon="2.46626">
        <ele>121</ele>
        <time>2025-11-16T11:28:33Z</time>
      </trkpt>
      <trkpt lat="48.38544" lon="2.46636">
        <ele>120.6</ele>
        <time>2025-11-16T11:28:35Z</time>
      </trkpt>
      <trkpt lat="48.38538" lon="2.46646">
        <ele>119.8</ele>
        <time>2025-11-16T11:28:37Z</time>
      </trkpt>
      <trkpt lat="48.38529" lon="2.46652">
        <ele>119.5</ele>
        <time>2025-11-16T11:28:39Z</time>
      </trkpt>
      <trkpt lat="48.3852" lon="2.46655">
        <ele>119.1</ele>
        <time>2025-11-16T11:28:41Z</time>
      </trkpt>
      <trkpt lat="48.3851" lon="2.46659">
        <ele>118.6</ele>
        <time>2025-11-16T11:28:43Z</time>
      </trkpt>
      <trkpt lat="48.38507" lon="2.46665">
        <ele>118.1</ele>
        <time>2025-11-16T11:28:45Z</time>
      </trkpt>
      <trkpt lat="48.38509" lon="2.46672">
        <ele>117.2</ele>
        <time>2025-11-16T11:28:49Z</time>
      </trkpt>
      <trkpt lat="48.38505" lon="2.46676">
        <ele>116.8</ele>
        <time>2025-11-16T11:28:51Z</time>
      </trkpt>
      <trkpt lat="48.38502" lon="2.46684">
        <ele>116.1</ele>
        <time>2025-11-16T11:28:53Z</time>
      </trkpt>
      <trkpt lat="48.38498" lon="2.46693">
        <ele>115.2</ele>
        <time>2025-11-16T11:28:55Z</time>
      </trkpt>
      <trkpt lat="48.38491" lon="2.467">
        <ele>114.1</ele>
        <time>2025-11-16T11:28:57Z</time>
      </trkpt>
      <trkpt lat="48.38486" lon="2.46708">
        <ele>113.1</ele>
        <time>2025-11-16T11:28:59Z</time>
      </trkpt>
      <trkpt lat="48.38483" lon="2.46716">
        <ele>112</ele>
        <time>2025-11-16T11:29:03Z</time>
      </trkpt>
      <trkpt lat="48.38486" lon="2.46724">
        <ele>110.8</ele>
        <time>2025-11-16T11:29:07Z</time>
      </trkpt>
      <trkpt lat="48.38485" lon="2.46732">
        <ele>109.7</ele>
        <time>2025-11-16T11:29:09Z</time>
      </trkpt>
      <trkpt lat="48.38485" lon="2.4674">
        <ele>108.6</ele>
        <time>2025-11-16T11:29:11Z</time>
      </trkpt>
      <trkpt lat="48.38485" lon="2.46749">
        <ele>107.4</ele>
        <time>2025-11-16T11:29:17Z</time>
      </trkpt>
      <trkpt lat="48.38489" lon="2.46749">
        <ele>106.7</ele>
        <time>2025-11-16T11:29:31Z</time>
      </trkpt>
      <trkpt lat="48.38494" lon="2.46741">
        <ele>107.2</ele>
        <time>2025-11-16T11:29:35Z</time>
      </trkpt>
      <trkpt lat="48.38501" lon="2.46739">
        <ele>106.7</ele>
        <time>2025-11-16T11:29:39Z</time>
      </trkpt>
      <trkpt lat="48.38507" lon="2.46744">
        <ele>104.6</ele>
        <time>2025-11-16T11:29:43Z</time>
      </trkpt>
      <trkpt lat="48.38512" lon="2.46746">
        <ele>103.2</ele>
        <time>2025-11-16T11:29:45Z</time>
      </trkpt>
      <trkpt lat="48.38518" lon="2.46749">
        <ele>101.4</ele>
        <time>2025-11-16T11:29:49Z</time>
      </trkpt>
      <trkpt lat="48.38522" lon="2.46755">
        <ele>99.4</ele>
        <time>2025-11-16T11:29:51Z</time>
      </trkpt>
      <trkpt lat="48.38524" lon="2.46767">
        <ele>96.9</ele>
        <time>2025-11-16T11:29:55Z</time>
      </trkpt>
      <trkpt lat="48.3852" lon="2.46774">
        <ele>96.3</ele>
        <time>2025-11-16T11:29:57Z</time>
      </trkpt>
      <trkpt lat="48.38516" lon="2.46778">
        <ele>96.6</ele>
        <time>2025-11-16T11:29:59Z</time>
      </trkpt>
      <trkpt lat="48.38513" lon="2.46784">
        <ele>96.7</ele>
        <time>2025-11-16T11:30:01Z</time>
      </trkpt>
      <trkpt lat="48.38508" lon="2.46796">
        <ele>96.9</ele>
        <time>2025-11-16T11:30:05Z</time>
      </trkpt>
      <trkpt lat="48.38513" lon="2.46805">
        <ele>95.3</ele>
        <time>2025-11-16T11:30:11Z</time>
      </trkpt>
      <trkpt lat="48.38518" lon="2.46819">
        <ele>94.2</ele>
        <time>2025-11-16T11:30:13Z</time>
      </trkpt>
      <trkpt lat="48.38519" lon="2.46827">
        <ele>94.1</ele>
        <time>2025-11-16T11:30:15Z</time>
      </trkpt>
      <trkpt lat="48.38523" lon="2.46835">
        <ele>93.4</ele>
        <time>2025-11-16T11:30:17Z</time>
      </trkpt>
      <trkpt lat="48.3853" lon="2.46844">
        <ele>92.4</ele>
        <time>2025-11-16T11:30:19Z</time>
      </trkpt>
      <trkpt lat="48.38538" lon="2.46842">
        <ele>91.4</ele>
        <time>2025-11-16T11:30:21Z</time>
      </trkpt>
      <trkpt lat="48.38545" lon="2.46839">
        <ele>90.4</ele>
        <time>2025-11-16T11:30:23Z</time>
      </trkpt>
      <trkpt lat="48.38552" lon="2.46835">
        <ele>89.4</ele>
        <time>2025-11-16T11:30:25Z</time>
      </trkpt>
      <trkpt lat="48.3856" lon="2.46838">
        <ele>88.8</ele>
        <time>2025-11-16T11:30:27Z</time>
      </trkpt>
      <trkpt lat="48.3857" lon="2.46841">
        <ele>88.1</ele>
        <time>2025-11-16T11:30:29Z</time>
      </trkpt>
      <trkpt lat="48.38578" lon="2.46844">
        <ele>87.5</ele>
        <time>2025-11-16T11:30:31Z</time>
      </trkpt>
      <trkpt lat="48.38586" lon="2.46845">
        <ele>87.4</ele>
        <time>2025-11-16T11:30:33Z</time>
      </trkpt>
      <trkpt lat="48.38593" lon="2.46856">
        <ele>87.9</ele>
        <time>2025-11-16T11:30:35Z</time>
      </trkpt>
      <trkpt lat="48.38597" lon="2.46869">
        <ele>87.6</ele>
        <time>2025-11-16T11:30:37Z</time>
      </trkpt>
      <trkpt lat="48.38601" lon="2.46886">
        <ele>86.6</ele>
        <time>2025-11-16T11:30:39Z</time>
      </trkpt>
      <trkpt lat="48.38606" lon="2.46902">
        <ele>85.4</ele>
        <time>2025-11-16T11:30:41Z</time>
      </trkpt>
      <trkpt lat="48.38611" lon="2.46918">
        <ele>84</ele>
        <time>2025-11-16T11:30:43Z</time>
      </trkpt>
      <trkpt lat="48.38615" lon="2.46936">
        <ele>83.6</ele>
        <time>2025-11-16T11:30:45Z</time>
      </trkpt>
      <trkpt lat="48.38623" lon="2.46951">
        <ele>83.2</ele>
        <time>2025-11-16T11:30:47Z</time>
      </trkpt>
      <trkpt lat="48.38629" lon="2.46965">
        <ele>82.9</ele>
        <time>2025-11-16T11:30:49Z</time>
      </trkpt>
      <trkpt lat="48.38635" lon="2.4698">
        <ele>82.4</ele>
        <time>2025-11-16T11:30:51Z</time>
      </trkpt>
      <trkpt lat="48.38638" lon="2.46989">
        <ele>81.8</ele>
        <time>2025-11-16T11:30:53Z</time>
      </trkpt>
      <trkpt lat="48.38638" lon="2.47">
        <ele>81.1</ele>
        <time>2025-11-16T11:30:55Z</time>
      </trkpt>
      <trkpt lat="48.38633" lon="2.47007">
        <ele>81</ele>
        <time>2025-11-16T11:30:57Z</time>
      </trkpt>
      <trkpt lat="48.38628" lon="2.47013">
        <ele>80.9</ele>
        <time>2025-11-16T11:30:59Z</time>
      </trkpt>
      <trkpt lat="48.38623" lon="2.47017">
        <ele>81</ele>
        <time>2025-11-16T11:31:01Z</time>
      </trkpt>
      <trkpt lat="48.38617" lon="2.47011">
        <ele>81.4</ele>
        <time>2025-11-16T11:31:05Z</time>
      </trkpt>
      <trkpt lat="48.3861" lon="2.47009">
        <ele>81.8</ele>
        <time>2025-11-16T11:31:09Z</time>
      </trkpt>
      <trkpt lat="48.38606" lon="2.47007">
        <ele>82.1</ele>
        <time>2025-11-16T11:31:13Z</time>
      </trkpt>
      <trkpt lat="48.386" lon="2.47007">
        <ele>82.5</ele>
        <time>2025-11-16T11:31:17Z</time>
      </trkpt>
      <trkpt lat="48.38596" lon="2.47004">
        <ele>83</ele>
        <time>2025-11-16T11:31:21Z</time>
      </trkpt>
      <trkpt lat="48.3859" lon="2.47001">
        <ele>83.5</ele>
        <time>2025-11-16T11:31:25Z</time>
      </trkpt>
      <trkpt lat="48.38586" lon="2.46995">
        <ele>84</ele>
        <time>2025-11-16T11:31:29Z</time>
      </trkpt>
      <trkpt lat="48.38582" lon="2.46987">
        <ele>84.6</ele>
        <time>2025-11-16T11:31:33Z</time>
      </trkpt>
      <trkpt lat="48.38578" lon="2.46981">
        <ele>85.2</ele>
        <time>2025-11-16T11:31:37Z</time>
      </trkpt>
      <trkpt lat="48.38573" lon="2.46978">
        <ele>85.8</ele>
        <time>2025-11-16T11:31:43Z</time>
      </trkpt>
      <trkpt lat="48.38567" lon="2.46975">
        <ele>86.6</ele>
        <time>2025-11-16T11:31:49Z</time>
      </trkpt>
      <trkpt lat="48.38562" lon="2.46969">
        <ele>87.5</ele>
        <time>2025-11-16T11:31:55Z</time>
      </trkpt>
      <trkpt lat="48.38559" lon="2.46963">
        <ele>88.2</ele>
        <time>2025-11-16T11:32:01Z</time>
      </trkpt>
      <trkpt lat="48.38556" lon="2.46957">
        <ele>89</ele>
        <time>2025-11-16T11:32:05Z</time>
      </trkpt>
      <trkpt lat="48.38552" lon="2.46954">
        <ele>89.8</ele>
        <time>2025-11-16T11:32:11Z</time>
      </trkpt>
      <trkpt lat="48.38548" lon="2.46958">
        <ele>90</ele>
        <time>2025-11-16T11:32:19Z</time>
      </trkpt>
      <trkpt lat="48.38544" lon="2.46961">
        <ele>90.4</ele>
        <time>2025-11-16T11:32:27Z</time>
      </trkpt>
      <trkpt lat="48.3854" lon="2.46963">
        <ele>90.9</ele>
        <time>2025-11-16T11:33:07Z</time>
      </trkpt>
      <trkpt lat="48.38534" lon="2.46967">
        <ele>91.5</ele>
        <time>2025-11-16T11:33:25Z</time>
      </trkpt>
      <trkpt lat="48.38529" lon="2.46969">
        <ele>92.1</ele>
        <time>2025-11-16T11:33:31Z</time>
      </trkpt>
      <trkpt lat="48.38526" lon="2.46974">
        <ele>92.1</ele>
        <time>2025-11-16T11:34:23Z</time>
      </trkpt>
      <trkpt lat="48.3852" lon="2.46977">
        <ele>92.4</ele>
        <time>2025-11-16T11:34:41Z</time>
      </trkpt>
      <trkpt lat="48.38515" lon="2.46979">
        <ele>92.7</ele>
        <time>2025-11-16T11:34:47Z</time>
      </trkpt>
      <trkpt lat="48.3851" lon="2.46977">
        <ele>93.4</ele>
        <time>2025-11-16T11:34:51Z</time>
      </trkpt>
      <trkpt lat="48.38505" lon="2.46976">
        <ele>94.1</ele>
        <time>2025-11-16T11:34:59Z</time>
      </trkpt>
      <trkpt lat="48.38503" lon="2.46969">
        <ele>94.9</ele>
        <time>2025-11-16T11:36:05Z</time>
      </trkpt>
      <trkpt lat="48.38502" lon="2.46976">
        <ele>94.4</ele>
        <time>2025-11-16T11:39:31Z</time>
      </trkpt>
      <trkpt lat="48.38501" lon="2.46988">
        <ele>93.2</ele>
        <time>2025-11-16T11:39:35Z</time>
      </trkpt>
      <trkpt lat="48.385" lon="2.46999">
        <ele>92.1</ele>
        <time>2025-11-16T11:39:37Z</time>
      </trkpt>
      <trkpt lat="48.38499" lon="2.47009">
        <ele>91.4</ele>
        <time>2025-11-16T11:39:39Z</time>
      </trkpt>
      <trkpt lat="48.38499" lon="2.47022">
        <ele>90.4</ele>
        <time>2025-11-16T11:39:41Z</time>
      </trkpt>
      <trkpt lat="48.38497" lon="2.4703">
        <ele>90</ele>
        <time>2025-11-16T11:39:43Z</time>
      </trkpt>
      <trkpt lat="48.38497" lon="2.47041">
        <ele>89.6</ele>
        <time>2025-11-16T11:39:45Z</time>
      </trkpt>
      <trkpt lat="48.38495" lon="2.4705">
        <ele>89.4</ele>
        <time>2025-11-16T11:39:47Z</time>
      </trkpt>
      <trkpt lat="48.38493" lon="2.47065">
        <ele>88.6</ele>
        <time>2025-11-16T11:39:51Z</time>
      </trkpt>
      <trkpt lat="48.3849" lon="2.47072">
        <ele>88.2</ele>
        <time>2025-11-16T11:39:53Z</time>
      </trkpt>
      <trkpt lat="48.38487" lon="2.47078">
        <ele>87.8</ele>
        <time>2025-11-16T11:39:57Z</time>
      </trkpt>
      <trkpt lat="48.38482" lon="2.47083">
        <ele>87.6</ele>
        <time>2025-11-16T11:40:01Z</time>
      </trkpt>
      <trkpt lat="48.38477" lon="2.47086">
        <ele>87.7</ele>
        <time>2025-11-16T11:40:05Z</time>
      </trkpt>
      <trkpt lat="48.38473" lon="2.47091">
        <ele>87.5</ele>
        <time>2025-11-16T11:40:09Z</time>
      </trkpt>
      <trkpt lat="48.38468" lon="2.47102">
        <ele>86.5</ele>
        <time>2025-11-16T11:40:15Z</time>
      </trkpt>
      <trkpt lat="48.38469" lon="2.47113">
        <ele>85.7</ele>
        <time>2025-11-16T11:40:17Z</time>
      </trkpt>
      <trkpt lat="48.38467" lon="2.47122">
        <ele>85</ele>
        <time>2025-11-16T11:40:19Z</time>
      </trkpt>
      <trkpt lat="48.38473" lon="2.47127">
        <ele>84.9</ele>
        <time>2025-11-16T11:40:27Z</time>
      </trkpt>
      <trkpt lat="48.38474" lon="2.47136">
        <ele>84.3</ele>
        <time>2025-11-16T11:40:31Z</time>
      </trkpt>
      <trkpt lat="48.38471" lon="2.47145">
        <ele>83.7</ele>
        <time>2025-11-16T11:40:35Z</time>
      </trkpt>
      <trkpt lat="48.38469" lon="2.47153">
        <ele>83.4</ele>
        <time>2025-11-16T11:40:37Z</time>
      </trkpt>
      <trkpt lat="48.38468" lon="2.47169">
        <ele>82.7</ele>
        <time>2025-11-16T11:40:41Z</time>
      </trkpt>
      <trkpt lat="48.38469" lon="2.47182">
        <ele>81.8</ele>
        <time>2025-11-16T11:40:43Z</time>
      </trkpt>
      <trkpt lat="48.38471" lon="2.47189">
        <ele>81.3</ele>
        <time>2025-11-16T11:40:47Z</time>
      </trkpt>
      <trkpt lat="48.38468" lon="2.47196">
        <ele>80.8</ele>
        <time>2025-11-16T11:40:59Z</time>
      </trkpt>
      <trkpt lat="48.38463" lon="2.47195">
        <ele>80.7</ele>
        <time>2025-11-16T11:41:07Z</time>
      </trkpt>
      <trkpt lat="48.38458" lon="2.47189">
        <ele>80.9</ele>
        <time>2025-11-16T11:41:15Z</time>
      </trkpt>
      <trkpt lat="48.38452" lon="2.47187">
        <ele>80.8</ele>
        <time>2025-11-16T11:41:33Z</time>
      </trkpt>
      <trkpt lat="48.38449" lon="2.47181">
        <ele>81.1</ele>
        <time>2025-11-16T11:41:37Z</time>
      </trkpt>
      <trkpt lat="48.38445" lon="2.47173">
        <ele>81.6</ele>
        <time>2025-11-16T11:41:43Z</time>
      </trkpt>
      <trkpt lat="48.38441" lon="2.47169">
        <ele>81.6</ele>
        <time>2025-11-16T11:41:49Z</time>
      </trkpt>
      <trkpt lat="48.38436" lon="2.47165">
        <ele>81.4</ele>
        <time>2025-11-16T11:41:53Z</time>
      </trkpt>
      <trkpt lat="48.38433" lon="2.4716">
        <ele>81.5</ele>
        <time>2025-11-16T11:42:01Z</time>
      </trkpt>
      <trkpt lat="48.38429" lon="2.47152">
        <ele>81.7</ele>
        <time>2025-11-16T11:42:07Z</time>
      </trkpt>
      <trkpt lat="48.38425" lon="2.47146">
        <ele>81.9</ele>
        <time>2025-11-16T11:42:11Z</time>
      </trkpt>
      <trkpt lat="48.38422" lon="2.47139">
        <ele>82.2</ele>
        <time>2025-11-16T11:42:15Z</time>
      </trkpt>
      <trkpt lat="48.38422" lon="2.47132">
        <ele>82.7</ele>
        <time>2025-11-16T11:42:19Z</time>
      </trkpt>
      <trkpt lat="48.3842" lon="2.47126">
        <ele>83.1</ele>
        <time>2025-11-16T11:42:33Z</time>
      </trkpt>
      <trkpt lat="48.38422" lon="2.47119">
        <ele>83.6</ele>
        <time>2025-11-16T11:42:59Z</time>
      </trkpt>
      <trkpt lat="48.38426" lon="2.47114">
        <ele>84.1</ele>
        <time>2025-11-16T11:43:07Z</time>
      </trkpt>
      <trkpt lat="48.38431" lon="2.47109">
        <ele>84.7</ele>
        <time>2025-11-16T11:43:15Z</time>
      </trkpt>
      <trkpt lat="48.38434" lon="2.47102">
        <ele>85.3</ele>
        <time>2025-11-16T11:43:21Z</time>
      </trkpt>
      <trkpt lat="48.38435" lon="2.47094">
        <ele>85.9</ele>
        <time>2025-11-16T11:43:37Z</time>
      </trkpt>
      <trkpt lat="48.38438" lon="2.47087">
        <ele>86.5</ele>
        <time>2025-11-16T11:44:23Z</time>
      </trkpt>
      <trkpt lat="48.38441" lon="2.47078">
        <ele>87.2</ele>
        <time>2025-11-16T11:44:29Z</time>
      </trkpt>
      <trkpt lat="48.38446" lon="2.47075">
        <ele>87.7</ele>
        <time>2025-11-16T11:44:33Z</time>
      </trkpt>
      <trkpt lat="48.38449" lon="2.4707">
        <ele>88.1</ele>
        <time>2025-11-16T11:44:37Z</time>
      </trkpt>
      <trkpt lat="48.38457" lon="2.47069">
        <ele>88.5</ele>
        <time>2025-11-16T11:44:43Z</time>
      </trkpt>
      <trkpt lat="48.38462" lon="2.47063">
        <ele>89.1</ele>
        <time>2025-11-16T11:44:47Z</time>
      </trkpt>
      <trkpt lat="48.38467" lon="2.47057">
        <ele>89.7</ele>
        <time>2025-11-16T11:44:51Z</time>
      </trkpt>
      <trkpt lat="48.38467" lon="2.47049">
        <ele>90.1</ele>
        <time>2025-11-16T11:44:55Z</time>
      </trkpt>
      <trkpt lat="48.38468" lon="2.4704">
        <ele>90.5</ele>
        <time>2025-11-16T11:44:59Z</time>
      </trkpt>
      <trkpt lat="48.38469" lon="2.47031">
        <ele>90.9</ele>
        <time>2025-11-16T11:45:05Z</time>
      </trkpt>
      <trkpt lat="48.38468" lon="2.47022">
        <ele>91.4</ele>
        <time>2025-11-16T11:45:09Z</time>
      </trkpt>
      <trkpt lat="48.38466" lon="2.47015">
        <ele>91.8</ele>
        <time>2025-11-16T11:45:13Z</time>
      </trkpt>
      <trkpt lat="48.38465" lon="2.47004">
        <ele>92.5</ele>
        <time>2025-11-16T11:45:19Z</time>
      </trkpt>
      <trkpt lat="48.38464" lon="2.46997">
        <ele>93</ele>
        <time>2025-11-16T11:45:23Z</time>
      </trkpt>
      <trkpt lat="48.38463" lon="2.46987">
        <ele>93.6</ele>
        <time>2025-11-16T11:45:27Z</time>
      </trkpt>
      <trkpt lat="48.38464" lon="2.46978">
        <ele>94.3</ele>
        <time>2025-11-16T11:45:31Z</time>
      </trkpt>
      <trkpt lat="48.38463" lon="2.46969">
        <ele>94.8</ele>
        <time>2025-11-16T11:45:35Z</time>
      </trkpt>
      <trkpt lat="48.38465" lon="2.4696">
        <ele>95.5</ele>
        <time>2025-11-16T11:45:39Z</time>
      </trkpt>
      <trkpt lat="48.38466" lon="2.46951">
        <ele>96.2</ele>
        <time>2025-11-16T11:45:43Z</time>
      </trkpt>
      <trkpt lat="48.38466" lon="2.46941">
        <ele>96.7</ele>
        <time>2025-11-16T11:45:47Z</time>
      </trkpt>
      <trkpt lat="48.38468" lon="2.46934">
        <ele>97</ele>
        <time>2025-11-16T11:45:55Z</time>
      </trkpt>
      <trkpt lat="48.38473" lon="2.46934">
        <ele>97.4</ele>
        <time>2025-11-16T11:46:01Z</time>
      </trkpt>
      <trkpt lat="48.38478" lon="2.46939">
        <ele>97.2</ele>
        <time>2025-11-16T11:46:05Z</time>
      </trkpt>
      <trkpt lat="48.38483" lon="2.4694">
        <ele>97.2</ele>
        <time>2025-11-16T11:46:11Z</time>
      </trkpt>
      <trkpt lat="48.38487" lon="2.46937">
        <ele>97.4</ele>
        <time>2025-11-16T11:46:15Z</time>
      </trkpt>
      <trkpt lat="48.38492" lon="2.4693">
        <ele>97.9</ele>
        <time>2025-11-16T11:46:19Z</time>
      </trkpt>
      <trkpt lat="48.38499" lon="2.46922">
        <ele>98.6</ele>
        <time>2025-11-16T11:46:23Z</time>
      </trkpt>
      <trkpt lat="48.38505" lon="2.46913">
        <ele>98.6</ele>
        <time>2025-11-16T11:46:27Z</time>
      </trkpt>
      <trkpt lat="48.38507" lon="2.46907">
        <ele>98.4</ele>
        <time>2025-11-16T11:46:29Z</time>
      </trkpt>
      <trkpt lat="48.38508" lon="2.46897">
        <ele>98.4</ele>
        <time>2025-11-16T11:46:31Z</time>
      </trkpt>
      <trkpt lat="48.38507" lon="2.46888">
        <ele>98.8</ele>
        <time>2025-11-16T11:46:33Z</time>
      </trkpt>
      <trkpt lat="48.38505" lon="2.4688">
        <ele>99.1</ele>
        <time>2025-11-16T11:46:37Z</time>
      </trkpt>
      <trkpt lat="48.38506" lon="2.4687">
        <ele>98.8</ele>
        <time>2025-11-16T11:46:41Z</time>
      </trkpt>
      <trkpt lat="48.38505" lon="2.46861">
        <ele>98.9</ele>
        <time>2025-11-16T11:46:45Z</time>
      </trkpt>
      <trkpt lat="48.38505" lon="2.46854">
        <ele>98.6</ele>
        <time>2025-11-16T11:46:49Z</time>
      </trkpt>
      <trkpt lat="48.385" lon="2.46844">
        <ele>99.3</ele>
        <time>2025-11-16T11:46:55Z</time>
      </trkpt>
      <trkpt lat="48.38498" lon="2.46833">
        <ele>99.2</ele>
        <time>2025-11-16T11:46:59Z</time>
      </trkpt>
      <trkpt lat="48.38497" lon="2.46825">
        <ele>99.3</ele>
        <time>2025-11-16T11:47:01Z</time>
      </trkpt>
      <trkpt lat="48.38496" lon="2.46816">
        <ele>99.1</ele>
        <time>2025-11-16T11:47:03Z</time>
      </trkpt>
      <trkpt lat="48.38495" lon="2.46805">
        <ele>99.1</ele>
        <time>2025-11-16T11:47:05Z</time>
      </trkpt>
      <trkpt lat="48.38495" lon="2.46796">
        <ele>99.7</ele>
        <time>2025-11-16T11:47:07Z</time>
      </trkpt>
      <trkpt lat="48.38494" lon="2.46789">
        <ele>100.5</ele>
        <time>2025-11-16T11:47:21Z</time>
      </trkpt>
      <trkpt lat="48.38489" lon="2.46786">
        <ele>101.7</ele>
        <time>2025-11-16T11:47:29Z</time>
      </trkpt>
      <trkpt lat="48.38484" lon="2.46787">
        <ele>102.7</ele>
        <time>2025-11-16T11:47:39Z</time>
      </trkpt>
      <trkpt lat="48.38479" lon="2.46786">
        <ele>103.9</ele>
        <time>2025-11-16T11:47:55Z</time>
      </trkpt>
      <trkpt lat="48.38476" lon="2.46779">
        <ele>105</ele>
        <time>2025-11-16T11:48:09Z</time>
      </trkpt>
      <trkpt lat="48.38472" lon="2.46779">
        <ele>105.9</ele>
        <time>2025-11-16T11:48:15Z</time>
      </trkpt>
      <trkpt lat="48.38467" lon="2.46779">
        <ele>106.1</ele>
        <time>2025-11-16T11:48:27Z</time>
      </trkpt>
      <trkpt lat="48.3846" lon="2.46778">
        <ele>106.4</ele>
        <time>2025-11-16T11:48:35Z</time>
      </trkpt>
      <trkpt lat="48.38454" lon="2.46774">
        <ele>107.1</ele>
        <time>2025-11-16T11:48:41Z</time>
      </trkpt>
      <trkpt lat="48.38448" lon="2.46771">
        <ele>107.6</ele>
        <time>2025-11-16T11:48:45Z</time>
      </trkpt>
      <trkpt lat="48.38441" lon="2.46781">
        <ele>106.4</ele>
        <time>2025-11-16T11:48:49Z</time>
      </trkpt>
      <trkpt lat="48.38438" lon="2.46788">
        <ele>105.4</ele>
        <time>2025-11-16T11:48:51Z</time>
      </trkpt>
      <trkpt lat="48.38429" lon="2.46792">
        <ele>104.3</ele>
        <time>2025-11-16T11:48:55Z</time>
      </trkpt>
      <trkpt lat="48.3842" lon="2.46794">
        <ele>103.5</ele>
        <time>2025-11-16T11:48:57Z</time>
      </trkpt>
      <trkpt lat="48.38412" lon="2.46795">
        <ele>102.8</ele>
        <time>2025-11-16T11:48:59Z</time>
      </trkpt>
      <trkpt lat="48.38406" lon="2.46799">
        <ele>101.9</ele>
        <time>2025-11-16T11:49:01Z</time>
      </trkpt>
      <trkpt lat="48.38401" lon="2.46804">
        <ele>101.1</ele>
        <time>2025-11-16T11:49:03Z</time>
      </trkpt>
      <trkpt lat="48.38397" lon="2.46797">
        <ele>101.5</ele>
        <time>2025-11-16T11:49:07Z</time>
      </trkpt>
      <trkpt lat="48.38391" lon="2.46795">
        <ele>101.3</ele>
        <time>2025-11-16T11:49:11Z</time>
      </trkpt>
      <trkpt lat="48.38382" lon="2.46796">
        <ele>100.4</ele>
        <time>2025-11-16T11:49:15Z</time>
      </trkpt>
      <trkpt lat="48.38375" lon="2.46797">
        <ele>99.6</ele>
        <time>2025-11-16T11:49:19Z</time>
      </trkpt>
      <trkpt lat="48.38374" lon="2.46809">
        <ele>98.7</ele>
        <time>2025-11-16T11:49:23Z</time>
      </trkpt>
      <trkpt lat="48.38376" lon="2.46818">
        <ele>98.2</ele>
        <time>2025-11-16T11:49:25Z</time>
      </trkpt>
      <trkpt lat="48.38378" lon="2.46831">
        <ele>97.4</ele>
        <time>2025-11-16T11:49:27Z</time>
      </trkpt>
      <trkpt lat="48.38378" lon="2.46848">
        <ele>96.2</ele>
        <time>2025-11-16T11:49:29Z</time>
      </trkpt>
      <trkpt lat="48.38375" lon="2.46868">
        <ele>94.6</ele>
        <time>2025-11-16T11:49:31Z</time>
      </trkpt>
      <trkpt lat="48.38371" lon="2.46887">
        <ele>93.4</ele>
        <time>2025-11-16T11:49:33Z</time>
      </trkpt>
      <trkpt lat="48.38365" lon="2.46909">
        <ele>92.4</ele>
        <time>2025-11-16T11:49:35Z</time>
      </trkpt>
      <trkpt lat="48.38361" lon="2.4693">
        <ele>91.5</ele>
        <time>2025-11-16T11:49:37Z</time>
      </trkpt>
      <trkpt lat="48.38357" lon="2.46949">
        <ele>90.4</ele>
        <time>2025-11-16T11:49:39Z</time>
      </trkpt>
      <trkpt lat="48.38352" lon="2.46967">
        <ele>89</ele>
        <time>2025-11-16T11:49:41Z</time>
      </trkpt>
      <trkpt lat="48.38347" lon="2.46985">
        <ele>88</ele>
        <time>2025-11-16T11:49:43Z</time>
      </trkpt>
      <trkpt lat="48.38343" lon="2.47">
        <ele>87.3</ele>
        <time>2025-11-16T11:49:45Z</time>
      </trkpt>
      <trkpt lat="48.38341" lon="2.47016">
        <ele>86.1</ele>
        <time>2025-11-16T11:49:47Z</time>
      </trkpt>
      <trkpt lat="48.38337" lon="2.47029">
        <ele>85.1</ele>
        <time>2025-11-16T11:49:49Z</time>
      </trkpt>
      <trkpt lat="48.38333" lon="2.4704">
        <ele>84.6</ele>
        <time>2025-11-16T11:49:51Z</time>
      </trkpt>
      <trkpt lat="48.38326" lon="2.47044">
        <ele>84.2</ele>
        <time>2025-11-16T11:49:53Z</time>
      </trkpt>
      <trkpt lat="48.3832" lon="2.47041">
        <ele>84.3</ele>
        <time>2025-11-16T11:49:55Z</time>
      </trkpt>
      <trkpt lat="48.38315" lon="2.47036">
        <ele>84.5</ele>
        <time>2025-11-16T11:49:57Z</time>
      </trkpt>
      <trkpt lat="48.38311" lon="2.47032">
        <ele>84.7</ele>
        <time>2025-11-16T11:49:59Z</time>
      </trkpt>
      <trkpt lat="48.38306" lon="2.47024">
        <ele>85.1</ele>
        <time>2025-11-16T11:50:03Z</time>
      </trkpt>
      <trkpt lat="48.38302" lon="2.4702">
        <ele>85.1</ele>
        <time>2025-11-16T11:50:05Z</time>
      </trkpt>
      <trkpt lat="48.38294" lon="2.47011">
        <ele>85.2</ele>
        <time>2025-11-16T11:50:09Z</time>
      </trkpt>
      <trkpt lat="48.38289" lon="2.47">
        <ele>85.4</ele>
        <time>2025-11-16T11:50:13Z</time>
      </trkpt>
      <trkpt lat="48.38289" lon="2.4699">
        <ele>85.5</ele>
        <time>2025-11-16T11:50:17Z</time>
      </trkpt>
      <trkpt lat="48.38289" lon="2.46982">
        <ele>85.7</ele>
        <time>2025-11-16T11:50:27Z</time>
      </trkpt>
      <trkpt lat="48.38291" lon="2.46975">
        <ele>85.9</ele>
        <time>2025-11-16T11:50:33Z</time>
      </trkpt>
      <trkpt lat="48.38293" lon="2.46967">
        <ele>86.2</ele>
        <time>2025-11-16T11:50:43Z</time>
      </trkpt>
      <trkpt lat="48.38295" lon="2.4696">
        <ele>86.4</ele>
        <time>2025-11-16T11:50:49Z</time>
      </trkpt>
      <trkpt lat="48.38295" lon="2.46954">
        <ele>86.5</ele>
        <time>2025-11-16T11:50:59Z</time>
      </trkpt>
    </trkseg>
  </trk>
</gpx>